<?xml version="1.0" encoding="UTF-8" standalone="no" ?>
<gpx xmlns="http://www.topografix.com/GPX/1/1" xmlns:xsi="http://www.w3.org/2001/XMLSchema-instance" xsi:schemaLocation="http://www.topografix.com/GPX/1/1 http://www.topografix.com/GPX/1/1/gpx.xsd" version="1.1" creator="VisuGPX - https://www.visugpx.com">
  <metadata>
    <name>Le Pellerin-La Rochelle</name>
  </metadata>
  <trk>
    <name><![CDATA[Le Pellerin-La Rochelle_1]]></name>
    <trkseg>
      <trkpt lat="47.19867" lon="-1.75989">
        <ele>14.2</ele>
        <time>2021-12-24T06:46:30Z</time>
      </trkpt>
      <trkpt lat="47.19864" lon="-1.75988">
        <ele>14.2</ele>
        <time>2021-12-24T06:46:31Z</time>
      </trkpt>
      <trkpt lat="47.19857" lon="-1.75985">
        <ele>14.4</ele>
        <time>2021-12-24T06:46:33Z</time>
      </trkpt>
      <trkpt lat="47.19854" lon="-1.75983">
        <ele>14.4</ele>
        <time>2021-12-24T06:46:34Z</time>
      </trkpt>
      <trkpt lat="47.19851" lon="-1.75981">
        <ele>14.4</ele>
        <time>2021-12-24T06:46:35Z</time>
      </trkpt>
      <trkpt lat="47.19848" lon="-1.75979">
        <ele>14.6</ele>
        <time>2021-12-24T06:46:36Z</time>
      </trkpt>
      <trkpt lat="47.19835" lon="-1.75973">
        <ele>14.8</ele>
        <time>2021-12-24T06:46:40Z</time>
      </trkpt>
      <trkpt lat="47.19832" lon="-1.75972">
        <ele>15</ele>
        <time>2021-12-24T06:46:41Z</time>
      </trkpt>
      <trkpt lat="47.19826" lon="-1.75968">
        <ele>15</ele>
        <time>2021-12-24T06:46:43Z</time>
      </trkpt>
      <trkpt lat="47.1982" lon="-1.75966">
        <ele>15.2</ele>
        <time>2021-12-24T06:46:45Z</time>
      </trkpt>
      <trkpt lat="47.19813" lon="-1.75962">
        <ele>15.4</ele>
        <time>2021-12-24T06:46:47Z</time>
      </trkpt>
      <trkpt lat="47.19807" lon="-1.75958">
        <ele>15.4</ele>
        <time>2021-12-24T06:46:49Z</time>
      </trkpt>
      <trkpt lat="47.19801" lon="-1.75954">
        <ele>15.6</ele>
        <time>2021-12-24T06:46:51Z</time>
      </trkpt>
      <trkpt lat="47.19795" lon="-1.7595">
        <ele>15.6</ele>
        <time>2021-12-24T06:46:53Z</time>
      </trkpt>
      <trkpt lat="47.19789" lon="-1.75945">
        <ele>15.8</ele>
        <time>2021-12-24T06:46:55Z</time>
      </trkpt>
      <trkpt lat="47.19782" lon="-1.75941">
        <ele>15.8</ele>
        <time>2021-12-24T06:46:57Z</time>
      </trkpt>
      <trkpt lat="47.19779" lon="-1.75939">
        <ele>16</ele>
        <time>2021-12-24T06:46:58Z</time>
      </trkpt>
      <trkpt lat="47.19776" lon="-1.75936">
        <ele>16</ele>
        <time>2021-12-24T06:46:59Z</time>
      </trkpt>
      <trkpt lat="47.1977" lon="-1.7593">
        <ele>16.2</ele>
        <time>2021-12-24T06:47:01Z</time>
      </trkpt>
      <trkpt lat="47.19763" lon="-1.75925">
        <ele>16.4</ele>
        <time>2021-12-24T06:47:03Z</time>
      </trkpt>
      <trkpt lat="47.19758" lon="-1.75919">
        <ele>16.6</ele>
        <time>2021-12-24T06:47:05Z</time>
      </trkpt>
      <trkpt lat="47.19752" lon="-1.75912">
        <ele>16.8</ele>
        <time>2021-12-24T06:47:07Z</time>
      </trkpt>
      <trkpt lat="47.19747" lon="-1.75905">
        <ele>16.8</ele>
        <time>2021-12-24T06:47:09Z</time>
      </trkpt>
      <trkpt lat="47.19742" lon="-1.75898">
        <ele>17</ele>
        <time>2021-12-24T06:47:11Z</time>
      </trkpt>
      <trkpt lat="47.19737" lon="-1.7589">
        <ele>17.2</ele>
        <time>2021-12-24T06:47:13Z</time>
      </trkpt>
      <trkpt lat="47.19732" lon="-1.75882">
        <ele>17.4</ele>
        <time>2021-12-24T06:47:15Z</time>
      </trkpt>
      <trkpt lat="47.19727" lon="-1.75874">
        <ele>17.6</ele>
        <time>2021-12-24T06:47:17Z</time>
      </trkpt>
      <trkpt lat="47.19722" lon="-1.75865">
        <ele>17.6</ele>
        <time>2021-12-24T06:47:19Z</time>
      </trkpt>
      <trkpt lat="47.19716" lon="-1.75856">
        <ele>17.8</ele>
        <time>2021-12-24T06:47:21Z</time>
      </trkpt>
      <trkpt lat="47.19711" lon="-1.75847">
        <ele>17.8</ele>
        <time>2021-12-24T06:47:23Z</time>
      </trkpt>
      <trkpt lat="47.19707" lon="-1.7584">
        <ele>18</ele>
        <time>2021-12-24T06:47:25Z</time>
      </trkpt>
      <trkpt lat="47.19702" lon="-1.75832">
        <ele>18</ele>
        <time>2021-12-24T06:47:27Z</time>
      </trkpt>
      <trkpt lat="47.197" lon="-1.75827">
        <ele>18</ele>
        <time>2021-12-24T06:47:28Z</time>
      </trkpt>
      <trkpt lat="47.19698" lon="-1.75822">
        <ele>18.2</ele>
        <time>2021-12-24T06:47:29Z</time>
      </trkpt>
      <trkpt lat="47.19695" lon="-1.75817">
        <ele>18.2</ele>
        <time>2021-12-24T06:47:30Z</time>
      </trkpt>
      <trkpt lat="47.19692" lon="-1.75812">
        <ele>18.2</ele>
        <time>2021-12-24T06:47:31Z</time>
      </trkpt>
      <trkpt lat="47.19689" lon="-1.75807">
        <ele>18.2</ele>
        <time>2021-12-24T06:47:32Z</time>
      </trkpt>
      <trkpt lat="47.19686" lon="-1.75802">
        <ele>18.2</ele>
        <time>2021-12-24T06:47:33Z</time>
      </trkpt>
      <trkpt lat="47.19679" lon="-1.75793">
        <ele>18.2</ele>
        <time>2021-12-24T06:47:35Z</time>
      </trkpt>
      <trkpt lat="47.19675" lon="-1.75789">
        <ele>18.2</ele>
        <time>2021-12-24T06:47:36Z</time>
      </trkpt>
      <trkpt lat="47.19672" lon="-1.75785">
        <ele>18.2</ele>
        <time>2021-12-24T06:47:37Z</time>
      </trkpt>
      <trkpt lat="47.19668" lon="-1.75782">
        <ele>18.2</ele>
        <time>2021-12-24T06:47:38Z</time>
      </trkpt>
      <trkpt lat="47.19665" lon="-1.75779">
        <ele>18.2</ele>
        <time>2021-12-24T06:47:39Z</time>
      </trkpt>
      <trkpt lat="47.19655" lon="-1.75772">
        <ele>18.2</ele>
        <time>2021-12-24T06:47:41Z</time>
      </trkpt>
      <trkpt lat="47.19646" lon="-1.75766">
        <ele>18.2</ele>
        <time>2021-12-24T06:47:43Z</time>
      </trkpt>
      <trkpt lat="47.19637" lon="-1.75759">
        <ele>18.2</ele>
        <time>2021-12-24T06:47:45Z</time>
      </trkpt>
      <trkpt lat="47.19628" lon="-1.75752">
        <ele>18.2</ele>
        <time>2021-12-24T06:47:47Z</time>
      </trkpt>
      <trkpt lat="47.19619" lon="-1.75744">
        <ele>18.2</ele>
        <time>2021-12-24T06:47:49Z</time>
      </trkpt>
      <trkpt lat="47.19614" lon="-1.7574">
        <ele>18.4</ele>
        <time>2021-12-24T06:47:50Z</time>
      </trkpt>
      <trkpt lat="47.19611" lon="-1.75736">
        <ele>18.4</ele>
        <time>2021-12-24T06:47:51Z</time>
      </trkpt>
      <trkpt lat="47.19603" lon="-1.75728">
        <ele>18.4</ele>
        <time>2021-12-24T06:47:53Z</time>
      </trkpt>
      <trkpt lat="47.19595" lon="-1.75719">
        <ele>18.4</ele>
        <time>2021-12-24T06:47:55Z</time>
      </trkpt>
      <trkpt lat="47.19591" lon="-1.75715">
        <ele>18.4</ele>
        <time>2021-12-24T06:47:56Z</time>
      </trkpt>
      <trkpt lat="47.19587" lon="-1.75711">
        <ele>18.4</ele>
        <time>2021-12-24T06:47:57Z</time>
      </trkpt>
      <trkpt lat="47.19579" lon="-1.75703">
        <ele>18.4</ele>
        <time>2021-12-24T06:47:59Z</time>
      </trkpt>
      <trkpt lat="47.1957" lon="-1.75695">
        <ele>18.4</ele>
        <time>2021-12-24T06:48:01Z</time>
      </trkpt>
      <trkpt lat="47.19561" lon="-1.75689">
        <ele>18.6</ele>
        <time>2021-12-24T06:48:03Z</time>
      </trkpt>
      <trkpt lat="47.19557" lon="-1.75686">
        <ele>18.6</ele>
        <time>2021-12-24T06:48:04Z</time>
      </trkpt>
      <trkpt lat="47.19552" lon="-1.75683">
        <ele>18.6</ele>
        <time>2021-12-24T06:48:05Z</time>
      </trkpt>
      <trkpt lat="47.19543" lon="-1.75679">
        <ele>18.8</ele>
        <time>2021-12-24T06:48:07Z</time>
      </trkpt>
      <trkpt lat="47.19533" lon="-1.75675">
        <ele>18.8</ele>
        <time>2021-12-24T06:48:09Z</time>
      </trkpt>
      <trkpt lat="47.19524" lon="-1.75671">
        <ele>19</ele>
        <time>2021-12-24T06:48:11Z</time>
      </trkpt>
      <trkpt lat="47.19514" lon="-1.75667">
        <ele>19</ele>
        <time>2021-12-24T06:48:13Z</time>
      </trkpt>
      <trkpt lat="47.19503" lon="-1.75662">
        <ele>19.2</ele>
        <time>2021-12-24T06:48:15Z</time>
      </trkpt>
      <trkpt lat="47.19493" lon="-1.75658">
        <ele>19.2</ele>
        <time>2021-12-24T06:48:17Z</time>
      </trkpt>
      <trkpt lat="47.19483" lon="-1.75653">
        <ele>19.4</ele>
        <time>2021-12-24T06:48:19Z</time>
      </trkpt>
      <trkpt lat="47.19472" lon="-1.75649">
        <ele>19.4</ele>
        <time>2021-12-24T06:48:21Z</time>
      </trkpt>
      <trkpt lat="47.19462" lon="-1.75644">
        <ele>19.6</ele>
        <time>2021-12-24T06:48:23Z</time>
      </trkpt>
      <trkpt lat="47.19452" lon="-1.75639">
        <ele>19.6</ele>
        <time>2021-12-24T06:48:25Z</time>
      </trkpt>
      <trkpt lat="47.19441" lon="-1.75634">
        <ele>19.6</ele>
        <time>2021-12-24T06:48:27Z</time>
      </trkpt>
      <trkpt lat="47.19436" lon="-1.75631">
        <ele>19.8</ele>
        <time>2021-12-24T06:48:28Z</time>
      </trkpt>
      <trkpt lat="47.19431" lon="-1.75629">
        <ele>19.8</ele>
        <time>2021-12-24T06:48:29Z</time>
      </trkpt>
      <trkpt lat="47.1942" lon="-1.75625">
        <ele>19.8</ele>
        <time>2021-12-24T06:48:31Z</time>
      </trkpt>
      <trkpt lat="47.1941" lon="-1.75622">
        <ele>20</ele>
        <time>2021-12-24T06:48:33Z</time>
      </trkpt>
      <trkpt lat="47.19405" lon="-1.75619">
        <ele>20.2</ele>
        <time>2021-12-24T06:48:34Z</time>
      </trkpt>
      <trkpt lat="47.19399" lon="-1.75617">
        <ele>20.2</ele>
        <time>2021-12-24T06:48:35Z</time>
      </trkpt>
      <trkpt lat="47.19387" lon="-1.75614">
        <ele>20.2</ele>
        <time>2021-12-24T06:48:37Z</time>
      </trkpt>
      <trkpt lat="47.19377" lon="-1.75609">
        <ele>20.2</ele>
        <time>2021-12-24T06:48:39Z</time>
      </trkpt>
      <trkpt lat="47.19366" lon="-1.75602">
        <ele>20.4</ele>
        <time>2021-12-24T06:48:41Z</time>
      </trkpt>
      <trkpt lat="47.19356" lon="-1.75594">
        <ele>20.4</ele>
        <time>2021-12-24T06:48:43Z</time>
      </trkpt>
      <trkpt lat="47.1935" lon="-1.75591">
        <ele>20.4</ele>
        <time>2021-12-24T06:48:44Z</time>
      </trkpt>
      <trkpt lat="47.19345" lon="-1.75589">
        <ele>20.4</ele>
        <time>2021-12-24T06:48:45Z</time>
      </trkpt>
      <trkpt lat="47.19339" lon="-1.75588">
        <ele>20.4</ele>
        <time>2021-12-24T06:48:46Z</time>
      </trkpt>
      <trkpt lat="47.19334" lon="-1.75589">
        <ele>20.4</ele>
        <time>2021-12-24T06:48:47Z</time>
      </trkpt>
      <trkpt lat="47.19328" lon="-1.7559">
        <ele>20.6</ele>
        <time>2021-12-24T06:48:48Z</time>
      </trkpt>
      <trkpt lat="47.19322" lon="-1.75591">
        <ele>20.6</ele>
        <time>2021-12-24T06:48:49Z</time>
      </trkpt>
      <trkpt lat="47.19317" lon="-1.75592">
        <ele>20.6</ele>
        <time>2021-12-24T06:48:50Z</time>
      </trkpt>
      <trkpt lat="47.19312" lon="-1.7559">
        <ele>20.6</ele>
        <time>2021-12-24T06:48:51Z</time>
      </trkpt>
      <trkpt lat="47.19307" lon="-1.75586">
        <ele>20.6</ele>
        <time>2021-12-24T06:48:52Z</time>
      </trkpt>
      <trkpt lat="47.19303" lon="-1.75582">
        <ele>20.6</ele>
        <time>2021-12-24T06:48:53Z</time>
      </trkpt>
      <trkpt lat="47.19293" lon="-1.75573">
        <ele>20.8</ele>
        <time>2021-12-24T06:48:55Z</time>
      </trkpt>
      <trkpt lat="47.19288" lon="-1.7557">
        <ele>20.8</ele>
        <time>2021-12-24T06:48:56Z</time>
      </trkpt>
      <trkpt lat="47.19283" lon="-1.75567">
        <ele>20.8</ele>
        <time>2021-12-24T06:48:57Z</time>
      </trkpt>
      <trkpt lat="47.19273" lon="-1.75562">
        <ele>21</ele>
        <time>2021-12-24T06:48:59Z</time>
      </trkpt>
      <trkpt lat="47.19267" lon="-1.7556">
        <ele>21</ele>
        <time>2021-12-24T06:49:00Z</time>
      </trkpt>
      <trkpt lat="47.19262" lon="-1.75557">
        <ele>21</ele>
        <time>2021-12-24T06:49:01Z</time>
      </trkpt>
      <trkpt lat="47.19252" lon="-1.75553">
        <ele>21</ele>
        <time>2021-12-24T06:49:03Z</time>
      </trkpt>
      <trkpt lat="47.19241" lon="-1.75549">
        <ele>21</ele>
        <time>2021-12-24T06:49:05Z</time>
      </trkpt>
      <trkpt lat="47.19229" lon="-1.75544">
        <ele>21.2</ele>
        <time>2021-12-24T06:49:07Z</time>
      </trkpt>
      <trkpt lat="47.19218" lon="-1.75541">
        <ele>21.2</ele>
        <time>2021-12-24T06:49:09Z</time>
      </trkpt>
      <trkpt lat="47.19207" lon="-1.75539">
        <ele>21.4</ele>
        <time>2021-12-24T06:49:11Z</time>
      </trkpt>
      <trkpt lat="47.19195" lon="-1.75536">
        <ele>21.4</ele>
        <time>2021-12-24T06:49:13Z</time>
      </trkpt>
      <trkpt lat="47.19184" lon="-1.75534">
        <ele>21.6</ele>
        <time>2021-12-24T06:49:15Z</time>
      </trkpt>
      <trkpt lat="47.19172" lon="-1.75533">
        <ele>21.6</ele>
        <time>2021-12-24T06:49:17Z</time>
      </trkpt>
      <trkpt lat="47.19161" lon="-1.75531">
        <ele>21.6</ele>
        <time>2021-12-24T06:49:19Z</time>
      </trkpt>
      <trkpt lat="47.1915" lon="-1.75529">
        <ele>21.8</ele>
        <time>2021-12-24T06:49:21Z</time>
      </trkpt>
      <trkpt lat="47.19139" lon="-1.75526">
        <ele>21.8</ele>
        <time>2021-12-24T06:49:23Z</time>
      </trkpt>
      <trkpt lat="47.19129" lon="-1.75521">
        <ele>21.8</ele>
        <time>2021-12-24T06:49:25Z</time>
      </trkpt>
      <trkpt lat="47.19118" lon="-1.75516">
        <ele>22</ele>
        <time>2021-12-24T06:49:27Z</time>
      </trkpt>
      <trkpt lat="47.19107" lon="-1.7551">
        <ele>22</ele>
        <time>2021-12-24T06:49:29Z</time>
      </trkpt>
      <trkpt lat="47.19096" lon="-1.75504">
        <ele>22.2</ele>
        <time>2021-12-24T06:49:31Z</time>
      </trkpt>
      <trkpt lat="47.19086" lon="-1.75498">
        <ele>22.2</ele>
        <time>2021-12-24T06:49:33Z</time>
      </trkpt>
      <trkpt lat="47.19075" lon="-1.7549">
        <ele>22.2</ele>
        <time>2021-12-24T06:49:35Z</time>
      </trkpt>
      <trkpt lat="47.19064" lon="-1.75483">
        <ele>22.2</ele>
        <time>2021-12-24T06:49:37Z</time>
      </trkpt>
      <trkpt lat="47.19053" lon="-1.75477">
        <ele>22.2</ele>
        <time>2021-12-24T06:49:39Z</time>
      </trkpt>
      <trkpt lat="47.19042" lon="-1.7547">
        <ele>22.4</ele>
        <time>2021-12-24T06:49:41Z</time>
      </trkpt>
      <trkpt lat="47.1903" lon="-1.75463">
        <ele>22.4</ele>
        <time>2021-12-24T06:49:43Z</time>
      </trkpt>
      <trkpt lat="47.19025" lon="-1.7546">
        <ele>22.4</ele>
        <time>2021-12-24T06:49:44Z</time>
      </trkpt>
      <trkpt lat="47.19019" lon="-1.75457">
        <ele>22.4</ele>
        <time>2021-12-24T06:49:45Z</time>
      </trkpt>
      <trkpt lat="47.19009" lon="-1.75452">
        <ele>22.4</ele>
        <time>2021-12-24T06:49:47Z</time>
      </trkpt>
      <trkpt lat="47.18998" lon="-1.75449">
        <ele>22.4</ele>
        <time>2021-12-24T06:49:49Z</time>
      </trkpt>
      <trkpt lat="47.18992" lon="-1.75447">
        <ele>22.4</ele>
        <time>2021-12-24T06:49:50Z</time>
      </trkpt>
      <trkpt lat="47.18986" lon="-1.75446">
        <ele>22.4</ele>
        <time>2021-12-24T06:49:51Z</time>
      </trkpt>
      <trkpt lat="47.18974" lon="-1.75441">
        <ele>22.4</ele>
        <time>2021-12-24T06:49:53Z</time>
      </trkpt>
      <trkpt lat="47.18963" lon="-1.75437">
        <ele>22.4</ele>
        <time>2021-12-24T06:49:55Z</time>
      </trkpt>
      <trkpt lat="47.18952" lon="-1.75431">
        <ele>22.4</ele>
        <time>2021-12-24T06:49:57Z</time>
      </trkpt>
      <trkpt lat="47.1894" lon="-1.75425">
        <ele>22.4</ele>
        <time>2021-12-24T06:49:59Z</time>
      </trkpt>
      <trkpt lat="47.18929" lon="-1.75418">
        <ele>22.4</ele>
        <time>2021-12-24T06:50:01Z</time>
      </trkpt>
      <trkpt lat="47.18917" lon="-1.75411">
        <ele>22.4</ele>
        <time>2021-12-24T06:50:03Z</time>
      </trkpt>
      <trkpt lat="47.18911" lon="-1.75409">
        <ele>22.6</ele>
        <time>2021-12-24T06:50:04Z</time>
      </trkpt>
      <trkpt lat="47.18905" lon="-1.75406">
        <ele>22.4</ele>
        <time>2021-12-24T06:50:05Z</time>
      </trkpt>
      <trkpt lat="47.18894" lon="-1.75404">
        <ele>22.4</ele>
        <time>2021-12-24T06:50:07Z</time>
      </trkpt>
      <trkpt lat="47.18882" lon="-1.75403">
        <ele>22.6</ele>
        <time>2021-12-24T06:50:09Z</time>
      </trkpt>
      <trkpt lat="47.1887" lon="-1.75403">
        <ele>22.4</ele>
        <time>2021-12-24T06:50:11Z</time>
      </trkpt>
      <trkpt lat="47.18857" lon="-1.75402">
        <ele>22.4</ele>
        <time>2021-12-24T06:50:13Z</time>
      </trkpt>
      <trkpt lat="47.18844" lon="-1.75401">
        <ele>22.4</ele>
        <time>2021-12-24T06:50:15Z</time>
      </trkpt>
      <trkpt lat="47.18831" lon="-1.754">
        <ele>22.4</ele>
        <time>2021-12-24T06:50:17Z</time>
      </trkpt>
      <trkpt lat="47.18819" lon="-1.754">
        <ele>22.4</ele>
        <time>2021-12-24T06:50:19Z</time>
      </trkpt>
      <trkpt lat="47.18806" lon="-1.75399">
        <ele>22.4</ele>
        <time>2021-12-24T06:50:21Z</time>
      </trkpt>
      <trkpt lat="47.18794" lon="-1.75398">
        <ele>22.4</ele>
        <time>2021-12-24T06:50:23Z</time>
      </trkpt>
      <trkpt lat="47.18782" lon="-1.75398">
        <ele>22.6</ele>
        <time>2021-12-24T06:50:25Z</time>
      </trkpt>
      <trkpt lat="47.1877" lon="-1.75398">
        <ele>22.6</ele>
        <time>2021-12-24T06:50:27Z</time>
      </trkpt>
      <trkpt lat="47.18758" lon="-1.75398">
        <ele>22.6</ele>
        <time>2021-12-24T06:50:29Z</time>
      </trkpt>
      <trkpt lat="47.18745" lon="-1.75398">
        <ele>22.8</ele>
        <time>2021-12-24T06:50:31Z</time>
      </trkpt>
      <trkpt lat="47.18733" lon="-1.75398">
        <ele>22.8</ele>
        <time>2021-12-24T06:50:33Z</time>
      </trkpt>
      <trkpt lat="47.1872" lon="-1.75399">
        <ele>22.8</ele>
        <time>2021-12-24T06:50:35Z</time>
      </trkpt>
      <trkpt lat="47.18707" lon="-1.754">
        <ele>22.8</ele>
        <time>2021-12-24T06:50:37Z</time>
      </trkpt>
      <trkpt lat="47.18694" lon="-1.754">
        <ele>22.8</ele>
        <time>2021-12-24T06:50:39Z</time>
      </trkpt>
      <trkpt lat="47.18682" lon="-1.75401">
        <ele>22.8</ele>
        <time>2021-12-24T06:50:41Z</time>
      </trkpt>
      <trkpt lat="47.18669" lon="-1.75402">
        <ele>23</ele>
        <time>2021-12-24T06:50:43Z</time>
      </trkpt>
      <trkpt lat="47.18662" lon="-1.75402">
        <ele>23</ele>
        <time>2021-12-24T06:50:44Z</time>
      </trkpt>
      <trkpt lat="47.18656" lon="-1.75402">
        <ele>23</ele>
        <time>2021-12-24T06:50:45Z</time>
      </trkpt>
      <trkpt lat="47.18643" lon="-1.75403">
        <ele>23</ele>
        <time>2021-12-24T06:50:47Z</time>
      </trkpt>
      <trkpt lat="47.18629" lon="-1.75403">
        <ele>23</ele>
        <time>2021-12-24T06:50:49Z</time>
      </trkpt>
      <trkpt lat="47.18615" lon="-1.75404">
        <ele>23</ele>
        <time>2021-12-24T06:50:51Z</time>
      </trkpt>
      <trkpt lat="47.18599" lon="-1.75405">
        <ele>23</ele>
        <time>2021-12-24T06:50:53Z</time>
      </trkpt>
      <trkpt lat="47.18583" lon="-1.75406">
        <ele>23</ele>
        <time>2021-12-24T06:50:55Z</time>
      </trkpt>
      <trkpt lat="47.18565" lon="-1.75407">
        <ele>22.6</ele>
        <time>2021-12-24T06:50:57Z</time>
      </trkpt>
      <trkpt lat="47.18546" lon="-1.75408">
        <ele>22.6</ele>
        <time>2021-12-24T06:50:59Z</time>
      </trkpt>
      <trkpt lat="47.18527" lon="-1.75409">
        <ele>22.2</ele>
        <time>2021-12-24T06:51:01Z</time>
      </trkpt>
      <trkpt lat="47.18507" lon="-1.7541">
        <ele>22</ele>
        <time>2021-12-24T06:51:03Z</time>
      </trkpt>
      <trkpt lat="47.18489" lon="-1.7541">
        <ele>21.8</ele>
        <time>2021-12-24T06:51:05Z</time>
      </trkpt>
      <trkpt lat="47.18471" lon="-1.75411">
        <ele>21.8</ele>
        <time>2021-12-24T06:51:07Z</time>
      </trkpt>
      <trkpt lat="47.18454" lon="-1.75413">
        <ele>21.6</ele>
        <time>2021-12-24T06:51:09Z</time>
      </trkpt>
      <trkpt lat="47.18438" lon="-1.75414">
        <ele>21.6</ele>
        <time>2021-12-24T06:51:11Z</time>
      </trkpt>
      <trkpt lat="47.1843" lon="-1.75415">
        <ele>21.6</ele>
        <time>2021-12-24T06:51:12Z</time>
      </trkpt>
      <trkpt lat="47.18422" lon="-1.75416">
        <ele>21.4</ele>
        <time>2021-12-24T06:51:13Z</time>
      </trkpt>
      <trkpt lat="47.18415" lon="-1.75418">
        <ele>21.4</ele>
        <time>2021-12-24T06:51:14Z</time>
      </trkpt>
      <trkpt lat="47.18408" lon="-1.75422">
        <ele>21.6</ele>
        <time>2021-12-24T06:51:15Z</time>
      </trkpt>
      <trkpt lat="47.18401" lon="-1.75426">
        <ele>21.6</ele>
        <time>2021-12-24T06:51:16Z</time>
      </trkpt>
      <trkpt lat="47.18395" lon="-1.75427">
        <ele>21.6</ele>
        <time>2021-12-24T06:51:17Z</time>
      </trkpt>
      <trkpt lat="47.18381" lon="-1.75428">
        <ele>21.6</ele>
        <time>2021-12-24T06:51:19Z</time>
      </trkpt>
      <trkpt lat="47.18368" lon="-1.75429">
        <ele>21.6</ele>
        <time>2021-12-24T06:51:21Z</time>
      </trkpt>
      <trkpt lat="47.18355" lon="-1.75431">
        <ele>21.6</ele>
        <time>2021-12-24T06:51:23Z</time>
      </trkpt>
      <trkpt lat="47.18349" lon="-1.75433">
        <ele>21.6</ele>
        <time>2021-12-24T06:51:24Z</time>
      </trkpt>
      <trkpt lat="47.18343" lon="-1.75434">
        <ele>21.6</ele>
        <time>2021-12-24T06:51:25Z</time>
      </trkpt>
      <trkpt lat="47.18331" lon="-1.75438">
        <ele>21.6</ele>
        <time>2021-12-24T06:51:27Z</time>
      </trkpt>
      <trkpt lat="47.18319" lon="-1.75443">
        <ele>21.6</ele>
        <time>2021-12-24T06:51:29Z</time>
      </trkpt>
      <trkpt lat="47.18306" lon="-1.75447">
        <ele>21</ele>
        <time>2021-12-24T06:51:31Z</time>
      </trkpt>
      <trkpt lat="47.18294" lon="-1.75451">
        <ele>21.2</ele>
        <time>2021-12-24T06:51:33Z</time>
      </trkpt>
      <trkpt lat="47.18282" lon="-1.75455">
        <ele>21.2</ele>
        <time>2021-12-24T06:51:35Z</time>
      </trkpt>
      <trkpt lat="47.1827" lon="-1.75459">
        <ele>21.6</ele>
        <time>2021-12-24T06:51:37Z</time>
      </trkpt>
      <trkpt lat="47.18258" lon="-1.75463">
        <ele>21.8</ele>
        <time>2021-12-24T06:51:39Z</time>
      </trkpt>
      <trkpt lat="47.18246" lon="-1.75467">
        <ele>21.8</ele>
        <time>2021-12-24T06:51:41Z</time>
      </trkpt>
      <trkpt lat="47.18234" lon="-1.75472">
        <ele>21.8</ele>
        <time>2021-12-24T06:51:43Z</time>
      </trkpt>
      <trkpt lat="47.18222" lon="-1.75476">
        <ele>22</ele>
        <time>2021-12-24T06:51:45Z</time>
      </trkpt>
      <trkpt lat="47.1821" lon="-1.7548">
        <ele>21.6</ele>
        <time>2021-12-24T06:51:47Z</time>
      </trkpt>
      <trkpt lat="47.18198" lon="-1.75484">
        <ele>21.6</ele>
        <time>2021-12-24T06:51:49Z</time>
      </trkpt>
      <trkpt lat="47.18187" lon="-1.75488">
        <ele>22</ele>
        <time>2021-12-24T06:51:51Z</time>
      </trkpt>
      <trkpt lat="47.18175" lon="-1.75492">
        <ele>21.8</ele>
        <time>2021-12-24T06:51:53Z</time>
      </trkpt>
      <trkpt lat="47.18164" lon="-1.75496">
        <ele>21.8</ele>
        <time>2021-12-24T06:51:55Z</time>
      </trkpt>
      <trkpt lat="47.18153" lon="-1.755">
        <ele>21.6</ele>
        <time>2021-12-24T06:51:57Z</time>
      </trkpt>
      <trkpt lat="47.18143" lon="-1.75504">
        <ele>21.4</ele>
        <time>2021-12-24T06:51:59Z</time>
      </trkpt>
      <trkpt lat="47.18138" lon="-1.75504">
        <ele>21.6</ele>
        <time>2021-12-24T06:52:00Z</time>
      </trkpt>
      <trkpt lat="47.18134" lon="-1.75503">
        <ele>21.8</ele>
        <time>2021-12-24T06:52:01Z</time>
      </trkpt>
      <trkpt lat="47.18131" lon="-1.755">
        <ele>21.8</ele>
        <time>2021-12-24T06:52:02Z</time>
      </trkpt>
      <trkpt lat="47.18128" lon="-1.75495">
        <ele>21.8</ele>
        <time>2021-12-24T06:52:03Z</time>
      </trkpt>
      <trkpt lat="47.18126" lon="-1.75488">
        <ele>21.8</ele>
        <time>2021-12-24T06:52:04Z</time>
      </trkpt>
      <trkpt lat="47.18125" lon="-1.75481">
        <ele>21.6</ele>
        <time>2021-12-24T06:52:05Z</time>
      </trkpt>
      <trkpt lat="47.18124" lon="-1.75473">
        <ele>21.6</ele>
        <time>2021-12-24T06:52:06Z</time>
      </trkpt>
      <trkpt lat="47.18123" lon="-1.75465">
        <ele>21.4</ele>
        <time>2021-12-24T06:52:07Z</time>
      </trkpt>
      <trkpt lat="47.1812" lon="-1.75449">
        <ele>21.4</ele>
        <time>2021-12-24T06:52:09Z</time>
      </trkpt>
      <trkpt lat="47.18118" lon="-1.75434">
        <ele>21.4</ele>
        <time>2021-12-24T06:52:11Z</time>
      </trkpt>
      <trkpt lat="47.18116" lon="-1.75426">
        <ele>21.4</ele>
        <time>2021-12-24T06:52:12Z</time>
      </trkpt>
      <trkpt lat="47.18115" lon="-1.75418">
        <ele>21.6</ele>
        <time>2021-12-24T06:52:13Z</time>
      </trkpt>
      <trkpt lat="47.18112" lon="-1.75402">
        <ele>21.6</ele>
        <time>2021-12-24T06:52:15Z</time>
      </trkpt>
      <trkpt lat="47.18109" lon="-1.75385">
        <ele>21.4</ele>
        <time>2021-12-24T06:52:17Z</time>
      </trkpt>
      <trkpt lat="47.18106" lon="-1.75369">
        <ele>21.4</ele>
        <time>2021-12-24T06:52:19Z</time>
      </trkpt>
      <trkpt lat="47.18102" lon="-1.75352">
        <ele>21.4</ele>
        <time>2021-12-24T06:52:21Z</time>
      </trkpt>
      <trkpt lat="47.18098" lon="-1.75337">
        <ele>21.2</ele>
        <time>2021-12-24T06:52:23Z</time>
      </trkpt>
      <trkpt lat="47.18094" lon="-1.75322">
        <ele>21.2</ele>
        <time>2021-12-24T06:52:25Z</time>
      </trkpt>
      <trkpt lat="47.1809" lon="-1.75308">
        <ele>21</ele>
        <time>2021-12-24T06:52:27Z</time>
      </trkpt>
      <trkpt lat="47.18086" lon="-1.75295">
        <ele>21</ele>
        <time>2021-12-24T06:52:29Z</time>
      </trkpt>
      <trkpt lat="47.18082" lon="-1.75282">
        <ele>20.8</ele>
        <time>2021-12-24T06:52:31Z</time>
      </trkpt>
      <trkpt lat="47.18078" lon="-1.75268">
        <ele>20.8</ele>
        <time>2021-12-24T06:52:33Z</time>
      </trkpt>
      <trkpt lat="47.18074" lon="-1.75253">
        <ele>20.6</ele>
        <time>2021-12-24T06:52:35Z</time>
      </trkpt>
      <trkpt lat="47.1807" lon="-1.75238">
        <ele>20.6</ele>
        <time>2021-12-24T06:52:37Z</time>
      </trkpt>
      <trkpt lat="47.18068" lon="-1.7523">
        <ele>20.4</ele>
        <time>2021-12-24T06:52:38Z</time>
      </trkpt>
      <trkpt lat="47.18066" lon="-1.75222">
        <ele>20.4</ele>
        <time>2021-12-24T06:52:39Z</time>
      </trkpt>
      <trkpt lat="47.18062" lon="-1.75207">
        <ele>20.2</ele>
        <time>2021-12-24T06:52:41Z</time>
      </trkpt>
      <trkpt lat="47.1806" lon="-1.75199">
        <ele>20.2</ele>
        <time>2021-12-24T06:52:42Z</time>
      </trkpt>
      <trkpt lat="47.18058" lon="-1.75192">
        <ele>20.2</ele>
        <time>2021-12-24T06:52:43Z</time>
      </trkpt>
      <trkpt lat="47.18053" lon="-1.75177">
        <ele>20</ele>
        <time>2021-12-24T06:52:45Z</time>
      </trkpt>
      <trkpt lat="47.18049" lon="-1.75162">
        <ele>19.8</ele>
        <time>2021-12-24T06:52:47Z</time>
      </trkpt>
      <trkpt lat="47.18045" lon="-1.75148">
        <ele>19.8</ele>
        <time>2021-12-24T06:52:49Z</time>
      </trkpt>
      <trkpt lat="47.1804" lon="-1.75133">
        <ele>19.6</ele>
        <time>2021-12-24T06:52:51Z</time>
      </trkpt>
      <trkpt lat="47.18037" lon="-1.75117">
        <ele>19.4</ele>
        <time>2021-12-24T06:52:53Z</time>
      </trkpt>
      <trkpt lat="47.18034" lon="-1.75102">
        <ele>19.2</ele>
        <time>2021-12-24T06:52:55Z</time>
      </trkpt>
      <trkpt lat="47.18032" lon="-1.75095">
        <ele>19.2</ele>
        <time>2021-12-24T06:52:56Z</time>
      </trkpt>
      <trkpt lat="47.18031" lon="-1.75087">
        <ele>19</ele>
        <time>2021-12-24T06:52:57Z</time>
      </trkpt>
      <trkpt lat="47.18028" lon="-1.7507">
        <ele>18.8</ele>
        <time>2021-12-24T06:52:59Z</time>
      </trkpt>
      <trkpt lat="47.18026" lon="-1.75062">
        <ele>18.6</ele>
        <time>2021-12-24T06:53:00Z</time>
      </trkpt>
      <trkpt lat="47.18025" lon="-1.75053">
        <ele>18.6</ele>
        <time>2021-12-24T06:53:01Z</time>
      </trkpt>
      <trkpt lat="47.18022" lon="-1.75037">
        <ele>18.2</ele>
        <time>2021-12-24T06:53:03Z</time>
      </trkpt>
      <trkpt lat="47.18021" lon="-1.75022">
        <ele>17.8</ele>
        <time>2021-12-24T06:53:05Z</time>
      </trkpt>
      <trkpt lat="47.1802" lon="-1.75007">
        <ele>17.6</ele>
        <time>2021-12-24T06:53:07Z</time>
      </trkpt>
      <trkpt lat="47.18016" lon="-1.74993">
        <ele>17.2</ele>
        <time>2021-12-24T06:53:09Z</time>
      </trkpt>
      <trkpt lat="47.18011" lon="-1.74979">
        <ele>16.8</ele>
        <time>2021-12-24T06:53:11Z</time>
      </trkpt>
      <trkpt lat="47.18007" lon="-1.74964">
        <ele>16.4</ele>
        <time>2021-12-24T06:53:13Z</time>
      </trkpt>
      <trkpt lat="47.18005" lon="-1.74956">
        <ele>16.4</ele>
        <time>2021-12-24T06:53:14Z</time>
      </trkpt>
      <trkpt lat="47.18003" lon="-1.74948">
        <ele>16.2</ele>
        <time>2021-12-24T06:53:15Z</time>
      </trkpt>
      <trkpt lat="47.17999" lon="-1.74932">
        <ele>16</ele>
        <time>2021-12-24T06:53:17Z</time>
      </trkpt>
      <trkpt lat="47.17997" lon="-1.74924">
        <ele>15.8</ele>
        <time>2021-12-24T06:53:18Z</time>
      </trkpt>
      <trkpt lat="47.17995" lon="-1.74916">
        <ele>15.6</ele>
        <time>2021-12-24T06:53:19Z</time>
      </trkpt>
      <trkpt lat="47.17991" lon="-1.74901">
        <ele>15.4</ele>
        <time>2021-12-24T06:53:21Z</time>
      </trkpt>
      <trkpt lat="47.17989" lon="-1.74893">
        <ele>15.4</ele>
        <time>2021-12-24T06:53:22Z</time>
      </trkpt>
      <trkpt lat="47.17987" lon="-1.74886">
        <ele>15.2</ele>
        <time>2021-12-24T06:53:23Z</time>
      </trkpt>
      <trkpt lat="47.17986" lon="-1.74879">
        <ele>15.2</ele>
        <time>2021-12-24T06:53:24Z</time>
      </trkpt>
      <trkpt lat="47.17984" lon="-1.74873">
        <ele>14.8</ele>
        <time>2021-12-24T06:53:25Z</time>
      </trkpt>
      <trkpt lat="47.1798" lon="-1.7486">
        <ele>14.4</ele>
        <time>2021-12-24T06:53:27Z</time>
      </trkpt>
      <trkpt lat="47.17975" lon="-1.74845">
        <ele>14.2</ele>
        <time>2021-12-24T06:53:29Z</time>
      </trkpt>
      <trkpt lat="47.17972" lon="-1.7483">
        <ele>13.8</ele>
        <time>2021-12-24T06:53:31Z</time>
      </trkpt>
      <trkpt lat="47.17968" lon="-1.74815">
        <ele>13.6</ele>
        <time>2021-12-24T06:53:33Z</time>
      </trkpt>
      <trkpt lat="47.17964" lon="-1.748">
        <ele>13.2</ele>
        <time>2021-12-24T06:53:35Z</time>
      </trkpt>
      <trkpt lat="47.1796" lon="-1.74784">
        <ele>12.8</ele>
        <time>2021-12-24T06:53:37Z</time>
      </trkpt>
      <trkpt lat="47.17956" lon="-1.74768">
        <ele>12.4</ele>
        <time>2021-12-24T06:53:39Z</time>
      </trkpt>
      <trkpt lat="47.17954" lon="-1.7476">
        <ele>12.2</ele>
        <time>2021-12-24T06:53:40Z</time>
      </trkpt>
      <trkpt lat="47.17952" lon="-1.74753">
        <ele>12</ele>
        <time>2021-12-24T06:53:41Z</time>
      </trkpt>
      <trkpt lat="47.17948" lon="-1.74737">
        <ele>11.6</ele>
        <time>2021-12-24T06:53:43Z</time>
      </trkpt>
      <trkpt lat="47.17944" lon="-1.7472">
        <ele>11.4</ele>
        <time>2021-12-24T06:53:45Z</time>
      </trkpt>
      <trkpt lat="47.17941" lon="-1.74704">
        <ele>11</ele>
        <time>2021-12-24T06:53:47Z</time>
      </trkpt>
      <trkpt lat="47.17937" lon="-1.74689">
        <ele>10.8</ele>
        <time>2021-12-24T06:53:49Z</time>
      </trkpt>
      <trkpt lat="47.17934" lon="-1.74672">
        <ele>10.4</ele>
        <time>2021-12-24T06:53:51Z</time>
      </trkpt>
      <trkpt lat="47.17933" lon="-1.74663">
        <ele>10.2</ele>
        <time>2021-12-24T06:53:52Z</time>
      </trkpt>
      <trkpt lat="47.17931" lon="-1.74655">
        <ele>10.2</ele>
        <time>2021-12-24T06:53:53Z</time>
      </trkpt>
      <trkpt lat="47.17929" lon="-1.74647">
        <ele>10</ele>
        <time>2021-12-24T06:53:54Z</time>
      </trkpt>
      <trkpt lat="47.17927" lon="-1.74639">
        <ele>10</ele>
        <time>2021-12-24T06:53:55Z</time>
      </trkpt>
      <trkpt lat="47.17923" lon="-1.74623">
        <ele>9.8</ele>
        <time>2021-12-24T06:53:57Z</time>
      </trkpt>
      <trkpt lat="47.17919" lon="-1.74604">
        <ele>9.6</ele>
        <time>2021-12-24T06:53:59Z</time>
      </trkpt>
      <trkpt lat="47.17916" lon="-1.74584">
        <ele>9.4</ele>
        <time>2021-12-24T06:54:01Z</time>
      </trkpt>
      <trkpt lat="47.17912" lon="-1.74563">
        <ele>9.2</ele>
        <time>2021-12-24T06:54:03Z</time>
      </trkpt>
      <trkpt lat="47.17908" lon="-1.74542">
        <ele>9</ele>
        <time>2021-12-24T06:54:05Z</time>
      </trkpt>
      <trkpt lat="47.17903" lon="-1.74521">
        <ele>9</ele>
        <time>2021-12-24T06:54:07Z</time>
      </trkpt>
      <trkpt lat="47.17898" lon="-1.74498">
        <ele>8.8</ele>
        <time>2021-12-24T06:54:09Z</time>
      </trkpt>
      <trkpt lat="47.17893" lon="-1.74476">
        <ele>8.6</ele>
        <time>2021-12-24T06:54:11Z</time>
      </trkpt>
      <trkpt lat="47.17888" lon="-1.74454">
        <ele>8.4</ele>
        <time>2021-12-24T06:54:13Z</time>
      </trkpt>
      <trkpt lat="47.17883" lon="-1.74432">
        <ele>8.2</ele>
        <time>2021-12-24T06:54:15Z</time>
      </trkpt>
      <trkpt lat="47.17881" lon="-1.74421">
        <ele>8.2</ele>
        <time>2021-12-24T06:54:16Z</time>
      </trkpt>
      <trkpt lat="47.17879" lon="-1.7441">
        <ele>8.2</ele>
        <time>2021-12-24T06:54:17Z</time>
      </trkpt>
      <trkpt lat="47.17874" lon="-1.74388">
        <ele>8</ele>
        <time>2021-12-24T06:54:19Z</time>
      </trkpt>
      <trkpt lat="47.1787" lon="-1.74367">
        <ele>7.8</ele>
        <time>2021-12-24T06:54:21Z</time>
      </trkpt>
      <trkpt lat="47.17868" lon="-1.74356">
        <ele>7.8</ele>
        <time>2021-12-24T06:54:22Z</time>
      </trkpt>
      <trkpt lat="47.17865" lon="-1.74345">
        <ele>7.6</ele>
        <time>2021-12-24T06:54:23Z</time>
      </trkpt>
      <trkpt lat="47.17861" lon="-1.74323">
        <ele>7.4</ele>
        <time>2021-12-24T06:54:25Z</time>
      </trkpt>
      <trkpt lat="47.17856" lon="-1.74302">
        <ele>7.4</ele>
        <time>2021-12-24T06:54:27Z</time>
      </trkpt>
      <trkpt lat="47.17851" lon="-1.74281">
        <ele>7.2</ele>
        <time>2021-12-24T06:54:29Z</time>
      </trkpt>
      <trkpt lat="47.1785" lon="-1.74271">
        <ele>7.2</ele>
        <time>2021-12-24T06:54:30Z</time>
      </trkpt>
      <trkpt lat="47.17847" lon="-1.7426">
        <ele>7.2</ele>
        <time>2021-12-24T06:54:31Z</time>
      </trkpt>
      <trkpt lat="47.17843" lon="-1.7424">
        <ele>7</ele>
        <time>2021-12-24T06:54:33Z</time>
      </trkpt>
      <trkpt lat="47.17839" lon="-1.7422">
        <ele>7</ele>
        <time>2021-12-24T06:54:35Z</time>
      </trkpt>
      <trkpt lat="47.17837" lon="-1.7421">
        <ele>6.8</ele>
        <time>2021-12-24T06:54:36Z</time>
      </trkpt>
      <trkpt lat="47.17835" lon="-1.742">
        <ele>6.8</ele>
        <time>2021-12-24T06:54:37Z</time>
      </trkpt>
      <trkpt lat="47.1783" lon="-1.74181">
        <ele>6.6</ele>
        <time>2021-12-24T06:54:39Z</time>
      </trkpt>
      <trkpt lat="47.17826" lon="-1.74161">
        <ele>6.6</ele>
        <time>2021-12-24T06:54:41Z</time>
      </trkpt>
      <trkpt lat="47.17822" lon="-1.74143">
        <ele>6.6</ele>
        <time>2021-12-24T06:54:43Z</time>
      </trkpt>
      <trkpt lat="47.1782" lon="-1.74134">
        <ele>6.6</ele>
        <time>2021-12-24T06:54:44Z</time>
      </trkpt>
      <trkpt lat="47.17818" lon="-1.74126">
        <ele>6.4</ele>
        <time>2021-12-24T06:54:45Z</time>
      </trkpt>
      <trkpt lat="47.17815" lon="-1.7411">
        <ele>6.4</ele>
        <time>2021-12-24T06:54:47Z</time>
      </trkpt>
      <trkpt lat="47.17812" lon="-1.74095">
        <ele>6.6</ele>
        <time>2021-12-24T06:54:49Z</time>
      </trkpt>
      <trkpt lat="47.17808" lon="-1.74081">
        <ele>6.4</ele>
        <time>2021-12-24T06:54:51Z</time>
      </trkpt>
      <trkpt lat="47.17805" lon="-1.74068">
        <ele>6.6</ele>
        <time>2021-12-24T06:54:53Z</time>
      </trkpt>
      <trkpt lat="47.17803" lon="-1.74055">
        <ele>6.4</ele>
        <time>2021-12-24T06:54:55Z</time>
      </trkpt>
      <trkpt lat="47.178" lon="-1.74044">
        <ele>6.4</ele>
        <time>2021-12-24T06:54:57Z</time>
      </trkpt>
      <trkpt lat="47.17799" lon="-1.74038">
        <ele>6.4</ele>
        <time>2021-12-24T06:54:58Z</time>
      </trkpt>
      <trkpt lat="47.17798" lon="-1.74032">
        <ele>6.4</ele>
        <time>2021-12-24T06:54:59Z</time>
      </trkpt>
      <trkpt lat="47.17796" lon="-1.74022">
        <ele>6.4</ele>
        <time>2021-12-24T06:55:01Z</time>
      </trkpt>
      <trkpt lat="47.17794" lon="-1.74012">
        <ele>6.2</ele>
        <time>2021-12-24T06:55:03Z</time>
      </trkpt>
      <trkpt lat="47.17792" lon="-1.74003">
        <ele>6.2</ele>
        <time>2021-12-24T06:55:05Z</time>
      </trkpt>
      <trkpt lat="47.17791" lon="-1.73993">
        <ele>6.4</ele>
        <time>2021-12-24T06:55:07Z</time>
      </trkpt>
      <trkpt lat="47.17788" lon="-1.73983">
        <ele>6.6</ele>
        <time>2021-12-24T06:55:09Z</time>
      </trkpt>
      <trkpt lat="47.17785" lon="-1.73973">
        <ele>6.8</ele>
        <time>2021-12-24T06:55:11Z</time>
      </trkpt>
      <trkpt lat="47.17782" lon="-1.73961">
        <ele>6.6</ele>
        <time>2021-12-24T06:55:13Z</time>
      </trkpt>
      <trkpt lat="47.17779" lon="-1.73948">
        <ele>6.6</ele>
        <time>2021-12-24T06:55:15Z</time>
      </trkpt>
      <trkpt lat="47.17776" lon="-1.73935">
        <ele>6.8</ele>
        <time>2021-12-24T06:55:17Z</time>
      </trkpt>
      <trkpt lat="47.17773" lon="-1.73922">
        <ele>6.8</ele>
        <time>2021-12-24T06:55:19Z</time>
      </trkpt>
      <trkpt lat="47.17772" lon="-1.73915">
        <ele>6.8</ele>
        <time>2021-12-24T06:55:20Z</time>
      </trkpt>
      <trkpt lat="47.17771" lon="-1.73908">
        <ele>7</ele>
        <time>2021-12-24T06:55:21Z</time>
      </trkpt>
      <trkpt lat="47.17768" lon="-1.73894">
        <ele>7</ele>
        <time>2021-12-24T06:55:23Z</time>
      </trkpt>
      <trkpt lat="47.17764" lon="-1.7388">
        <ele>7</ele>
        <time>2021-12-24T06:55:25Z</time>
      </trkpt>
      <trkpt lat="47.17763" lon="-1.73873">
        <ele>7</ele>
        <time>2021-12-24T06:55:26Z</time>
      </trkpt>
      <trkpt lat="47.17761" lon="-1.73866">
        <ele>7</ele>
        <time>2021-12-24T06:55:27Z</time>
      </trkpt>
      <trkpt lat="47.17759" lon="-1.73852">
        <ele>7.2</ele>
        <time>2021-12-24T06:55:29Z</time>
      </trkpt>
      <trkpt lat="47.17755" lon="-1.7384">
        <ele>7.2</ele>
        <time>2021-12-24T06:55:31Z</time>
      </trkpt>
      <trkpt lat="47.17752" lon="-1.73836">
        <ele>7.2</ele>
        <time>2021-12-24T06:55:32Z</time>
      </trkpt>
      <trkpt lat="47.17747" lon="-1.73834">
        <ele>7.2</ele>
        <time>2021-12-24T06:55:33Z</time>
      </trkpt>
      <trkpt lat="47.17737" lon="-1.73838">
        <ele>7.4</ele>
        <time>2021-12-24T06:55:35Z</time>
      </trkpt>
      <trkpt lat="47.17726" lon="-1.73842">
        <ele>7.4</ele>
        <time>2021-12-24T06:55:37Z</time>
      </trkpt>
      <trkpt lat="47.17714" lon="-1.73845">
        <ele>7.4</ele>
        <time>2021-12-24T06:55:39Z</time>
      </trkpt>
      <trkpt lat="47.17701" lon="-1.73846">
        <ele>7.4</ele>
        <time>2021-12-24T06:55:41Z</time>
      </trkpt>
      <trkpt lat="47.17687" lon="-1.73847">
        <ele>7.4</ele>
        <time>2021-12-24T06:55:43Z</time>
      </trkpt>
      <trkpt lat="47.17673" lon="-1.73847">
        <ele>7.4</ele>
        <time>2021-12-24T06:55:45Z</time>
      </trkpt>
      <trkpt lat="47.17658" lon="-1.73848">
        <ele>7.4</ele>
        <time>2021-12-24T06:55:47Z</time>
      </trkpt>
      <trkpt lat="47.17641" lon="-1.73849">
        <ele>7.2</ele>
        <time>2021-12-24T06:55:49Z</time>
      </trkpt>
      <trkpt lat="47.17624" lon="-1.73851">
        <ele>7</ele>
        <time>2021-12-24T06:55:51Z</time>
      </trkpt>
      <trkpt lat="47.17606" lon="-1.73852">
        <ele>6.8</ele>
        <time>2021-12-24T06:55:53Z</time>
      </trkpt>
      <trkpt lat="47.17597" lon="-1.73852">
        <ele>6.8</ele>
        <time>2021-12-24T06:55:54Z</time>
      </trkpt>
      <trkpt lat="47.17588" lon="-1.73853">
        <ele>6.8</ele>
        <time>2021-12-24T06:55:55Z</time>
      </trkpt>
      <trkpt lat="47.17571" lon="-1.73854">
        <ele>6.6</ele>
        <time>2021-12-24T06:55:57Z</time>
      </trkpt>
      <trkpt lat="47.17554" lon="-1.73856">
        <ele>6.4</ele>
        <time>2021-12-24T06:55:59Z</time>
      </trkpt>
      <trkpt lat="47.17539" lon="-1.73857">
        <ele>6.4</ele>
        <time>2021-12-24T06:56:01Z</time>
      </trkpt>
      <trkpt lat="47.17531" lon="-1.73858">
        <ele>6.4</ele>
        <time>2021-12-24T06:56:02Z</time>
      </trkpt>
      <trkpt lat="47.17523" lon="-1.73859">
        <ele>6.2</ele>
        <time>2021-12-24T06:56:03Z</time>
      </trkpt>
      <trkpt lat="47.17507" lon="-1.7386">
        <ele>6.2</ele>
        <time>2021-12-24T06:56:05Z</time>
      </trkpt>
      <trkpt lat="47.17492" lon="-1.73861">
        <ele>6.2</ele>
        <time>2021-12-24T06:56:07Z</time>
      </trkpt>
      <trkpt lat="47.17478" lon="-1.73862">
        <ele>6.2</ele>
        <time>2021-12-24T06:56:09Z</time>
      </trkpt>
      <trkpt lat="47.17463" lon="-1.73861">
        <ele>6</ele>
        <time>2021-12-24T06:56:11Z</time>
      </trkpt>
      <trkpt lat="47.17448" lon="-1.73859">
        <ele>5.8</ele>
        <time>2021-12-24T06:56:13Z</time>
      </trkpt>
      <trkpt lat="47.17433" lon="-1.73858">
        <ele>5.8</ele>
        <time>2021-12-24T06:56:15Z</time>
      </trkpt>
      <trkpt lat="47.17426" lon="-1.73857">
        <ele>5.6</ele>
        <time>2021-12-24T06:56:16Z</time>
      </trkpt>
      <trkpt lat="47.17419" lon="-1.73857">
        <ele>5.6</ele>
        <time>2021-12-24T06:56:17Z</time>
      </trkpt>
      <trkpt lat="47.17405" lon="-1.73856">
        <ele>5.6</ele>
        <time>2021-12-24T06:56:19Z</time>
      </trkpt>
      <trkpt lat="47.17391" lon="-1.73854">
        <ele>5.6</ele>
        <time>2021-12-24T06:56:21Z</time>
      </trkpt>
      <trkpt lat="47.17384" lon="-1.73853">
        <ele>5.6</ele>
        <time>2021-12-24T06:56:22Z</time>
      </trkpt>
      <trkpt lat="47.17377" lon="-1.73853">
        <ele>5.6</ele>
        <time>2021-12-24T06:56:23Z</time>
      </trkpt>
      <trkpt lat="47.17363" lon="-1.73852">
        <ele>5.4</ele>
        <time>2021-12-24T06:56:25Z</time>
      </trkpt>
      <trkpt lat="47.17349" lon="-1.7385">
        <ele>5.4</ele>
        <time>2021-12-24T06:56:27Z</time>
      </trkpt>
      <trkpt lat="47.17336" lon="-1.73849">
        <ele>5.4</ele>
        <time>2021-12-24T06:56:29Z</time>
      </trkpt>
      <trkpt lat="47.17329" lon="-1.73848">
        <ele>5.4</ele>
        <time>2021-12-24T06:56:30Z</time>
      </trkpt>
      <trkpt lat="47.17322" lon="-1.73848">
        <ele>5.4</ele>
        <time>2021-12-24T06:56:31Z</time>
      </trkpt>
      <trkpt lat="47.17309" lon="-1.73848">
        <ele>5.4</ele>
        <time>2021-12-24T06:56:33Z</time>
      </trkpt>
      <trkpt lat="47.17295" lon="-1.73847">
        <ele>5.2</ele>
        <time>2021-12-24T06:56:35Z</time>
      </trkpt>
      <trkpt lat="47.17281" lon="-1.73845">
        <ele>5.2</ele>
        <time>2021-12-24T06:56:37Z</time>
      </trkpt>
      <trkpt lat="47.17268" lon="-1.73846">
        <ele>5.2</ele>
        <time>2021-12-24T06:56:39Z</time>
      </trkpt>
      <trkpt lat="47.17255" lon="-1.73848">
        <ele>5</ele>
        <time>2021-12-24T06:56:41Z</time>
      </trkpt>
      <trkpt lat="47.17243" lon="-1.73852">
        <ele>5</ele>
        <time>2021-12-24T06:56:43Z</time>
      </trkpt>
      <trkpt lat="47.17231" lon="-1.73856">
        <ele>5</ele>
        <time>2021-12-24T06:56:45Z</time>
      </trkpt>
      <trkpt lat="47.17225" lon="-1.73857">
        <ele>4.8</ele>
        <time>2021-12-24T06:56:46Z</time>
      </trkpt>
      <trkpt lat="47.17219" lon="-1.73857">
        <ele>4.8</ele>
        <time>2021-12-24T06:56:47Z</time>
      </trkpt>
      <trkpt lat="47.17213" lon="-1.73854">
        <ele>4.8</ele>
        <time>2021-12-24T06:56:48Z</time>
      </trkpt>
      <trkpt lat="47.17209" lon="-1.7385">
        <ele>4.8</ele>
        <time>2021-12-24T06:56:49Z</time>
      </trkpt>
      <trkpt lat="47.17206" lon="-1.73843">
        <ele>4.8</ele>
        <time>2021-12-24T06:56:50Z</time>
      </trkpt>
      <trkpt lat="47.17203" lon="-1.73837">
        <ele>4.6</ele>
        <time>2021-12-24T06:56:51Z</time>
      </trkpt>
      <trkpt lat="47.17201" lon="-1.7383">
        <ele>4.6</ele>
        <time>2021-12-24T06:56:52Z</time>
      </trkpt>
      <trkpt lat="47.17199" lon="-1.73823">
        <ele>4.6</ele>
        <time>2021-12-24T06:56:53Z</time>
      </trkpt>
      <trkpt lat="47.17195" lon="-1.73811">
        <ele>4.4</ele>
        <time>2021-12-24T06:56:55Z</time>
      </trkpt>
      <trkpt lat="47.17192" lon="-1.738">
        <ele>4.4</ele>
        <time>2021-12-24T06:56:57Z</time>
      </trkpt>
      <trkpt lat="47.1719" lon="-1.73794">
        <ele>4.4</ele>
        <time>2021-12-24T06:56:58Z</time>
      </trkpt>
      <trkpt lat="47.17188" lon="-1.73788">
        <ele>4.4</ele>
        <time>2021-12-24T06:56:59Z</time>
      </trkpt>
      <trkpt lat="47.17185" lon="-1.73777">
        <ele>4.4</ele>
        <time>2021-12-24T06:57:01Z</time>
      </trkpt>
      <trkpt lat="47.17181" lon="-1.73767">
        <ele>4.4</ele>
        <time>2021-12-24T06:57:03Z</time>
      </trkpt>
      <trkpt lat="47.17178" lon="-1.73757">
        <ele>4.6</ele>
        <time>2021-12-24T06:57:05Z</time>
      </trkpt>
      <trkpt lat="47.17175" lon="-1.73747">
        <ele>4.6</ele>
        <time>2021-12-24T06:57:07Z</time>
      </trkpt>
      <trkpt lat="47.17171" lon="-1.73737">
        <ele>4.4</ele>
        <time>2021-12-24T06:57:09Z</time>
      </trkpt>
      <trkpt lat="47.17168" lon="-1.73728">
        <ele>4.4</ele>
        <time>2021-12-24T06:57:11Z</time>
      </trkpt>
      <trkpt lat="47.17167" lon="-1.73724">
        <ele>4.6</ele>
        <time>2021-12-24T06:57:12Z</time>
      </trkpt>
      <trkpt lat="47.17165" lon="-1.73719">
        <ele>4.4</ele>
        <time>2021-12-24T06:57:13Z</time>
      </trkpt>
      <trkpt lat="47.17162" lon="-1.7371">
        <ele>4.8</ele>
        <time>2021-12-24T06:57:15Z</time>
      </trkpt>
      <trkpt lat="47.17159" lon="-1.73702">
        <ele>4.8</ele>
        <time>2021-12-24T06:57:17Z</time>
      </trkpt>
      <trkpt lat="47.17156" lon="-1.73693">
        <ele>4.8</ele>
        <time>2021-12-24T06:57:19Z</time>
      </trkpt>
      <trkpt lat="47.17153" lon="-1.73685">
        <ele>4.6</ele>
        <time>2021-12-24T06:57:21Z</time>
      </trkpt>
      <trkpt lat="47.17151" lon="-1.73677">
        <ele>4.8</ele>
        <time>2021-12-24T06:57:23Z</time>
      </trkpt>
      <trkpt lat="47.17148" lon="-1.7367">
        <ele>4.8</ele>
        <time>2021-12-24T06:57:25Z</time>
      </trkpt>
      <trkpt lat="47.17145" lon="-1.73662">
        <ele>4.8</ele>
        <time>2021-12-24T06:57:27Z</time>
      </trkpt>
      <trkpt lat="47.17143" lon="-1.73655">
        <ele>5</ele>
        <time>2021-12-24T06:57:29Z</time>
      </trkpt>
      <trkpt lat="47.17141" lon="-1.73651">
        <ele>5</ele>
        <time>2021-12-24T06:57:30Z</time>
      </trkpt>
      <trkpt lat="47.1714" lon="-1.73648">
        <ele>5.2</ele>
        <time>2021-12-24T06:57:31Z</time>
      </trkpt>
      <trkpt lat="47.17136" lon="-1.73643">
        <ele>5.4</ele>
        <time>2021-12-24T06:57:33Z</time>
      </trkpt>
      <trkpt lat="47.1713" lon="-1.73642">
        <ele>5.4</ele>
        <time>2021-12-24T06:57:35Z</time>
      </trkpt>
      <trkpt lat="47.17124" lon="-1.73644">
        <ele>5.6</ele>
        <time>2021-12-24T06:57:37Z</time>
      </trkpt>
      <trkpt lat="47.17118" lon="-1.73647">
        <ele>6</ele>
        <time>2021-12-24T06:57:39Z</time>
      </trkpt>
      <trkpt lat="47.17111" lon="-1.7365">
        <ele>6.2</ele>
        <time>2021-12-24T06:57:41Z</time>
      </trkpt>
      <trkpt lat="47.17105" lon="-1.73654">
        <ele>6.4</ele>
        <time>2021-12-24T06:57:43Z</time>
      </trkpt>
      <trkpt lat="47.17099" lon="-1.73658">
        <ele>6.6</ele>
        <time>2021-12-24T06:57:45Z</time>
      </trkpt>
      <trkpt lat="47.17092" lon="-1.73662">
        <ele>6.8</ele>
        <time>2021-12-24T06:57:47Z</time>
      </trkpt>
      <trkpt lat="47.17089" lon="-1.73664">
        <ele>6.8</ele>
        <time>2021-12-24T06:57:48Z</time>
      </trkpt>
      <trkpt lat="47.17086" lon="-1.73666">
        <ele>7</ele>
        <time>2021-12-24T06:57:49Z</time>
      </trkpt>
      <trkpt lat="47.17079" lon="-1.7367">
        <ele>7</ele>
        <time>2021-12-24T06:57:51Z</time>
      </trkpt>
      <trkpt lat="47.1707" lon="-1.73673">
        <ele>7.8</ele>
        <time>2021-12-24T06:57:53Z</time>
      </trkpt>
      <trkpt lat="47.17063" lon="-1.73677">
        <ele>8</ele>
        <time>2021-12-24T06:57:55Z</time>
      </trkpt>
      <trkpt lat="47.17056" lon="-1.73682">
        <ele>8</ele>
        <time>2021-12-24T06:57:57Z</time>
      </trkpt>
      <trkpt lat="47.17048" lon="-1.73685">
        <ele>8.4</ele>
        <time>2021-12-24T06:57:59Z</time>
      </trkpt>
      <trkpt lat="47.17041" lon="-1.73689">
        <ele>8.4</ele>
        <time>2021-12-24T06:58:01Z</time>
      </trkpt>
      <trkpt lat="47.17038" lon="-1.73691">
        <ele>8.6</ele>
        <time>2021-12-24T06:58:02Z</time>
      </trkpt>
      <trkpt lat="47.17035" lon="-1.73693">
        <ele>8.8</ele>
        <time>2021-12-24T06:58:03Z</time>
      </trkpt>
      <trkpt lat="47.17028" lon="-1.73697">
        <ele>9</ele>
        <time>2021-12-24T06:58:05Z</time>
      </trkpt>
      <trkpt lat="47.17021" lon="-1.73702">
        <ele>9.2</ele>
        <time>2021-12-24T06:58:07Z</time>
      </trkpt>
      <trkpt lat="47.17014" lon="-1.73707">
        <ele>9.4</ele>
        <time>2021-12-24T06:58:09Z</time>
      </trkpt>
      <trkpt lat="47.1701" lon="-1.73708">
        <ele>9.6</ele>
        <time>2021-12-24T06:58:10Z</time>
      </trkpt>
      <trkpt lat="47.17006" lon="-1.7371">
        <ele>9.6</ele>
        <time>2021-12-24T06:58:11Z</time>
      </trkpt>
      <trkpt lat="47.16999" lon="-1.73714">
        <ele>9.8</ele>
        <time>2021-12-24T06:58:13Z</time>
      </trkpt>
      <trkpt lat="47.16992" lon="-1.73715">
        <ele>10</ele>
        <time>2021-12-24T06:58:15Z</time>
      </trkpt>
      <trkpt lat="47.16989" lon="-1.73713">
        <ele>10.2</ele>
        <time>2021-12-24T06:58:16Z</time>
      </trkpt>
      <trkpt lat="47.16987" lon="-1.73708">
        <ele>10.4</ele>
        <time>2021-12-24T06:58:17Z</time>
      </trkpt>
      <trkpt lat="47.16983" lon="-1.737">
        <ele>10.6</ele>
        <time>2021-12-24T06:58:19Z</time>
      </trkpt>
      <trkpt lat="47.16979" lon="-1.73692">
        <ele>10.8</ele>
        <time>2021-12-24T06:58:21Z</time>
      </trkpt>
      <trkpt lat="47.16976" lon="-1.73684">
        <ele>11.2</ele>
        <time>2021-12-24T06:58:23Z</time>
      </trkpt>
      <trkpt lat="47.16971" lon="-1.73676">
        <ele>11.6</ele>
        <time>2021-12-24T06:58:25Z</time>
      </trkpt>
      <trkpt lat="47.16967" lon="-1.73667">
        <ele>11.8</ele>
        <time>2021-12-24T06:58:27Z</time>
      </trkpt>
      <trkpt lat="47.16962" lon="-1.73658">
        <ele>12</ele>
        <time>2021-12-24T06:58:29Z</time>
      </trkpt>
      <trkpt lat="47.1696" lon="-1.73654">
        <ele>12.2</ele>
        <time>2021-12-24T06:58:30Z</time>
      </trkpt>
      <trkpt lat="47.16957" lon="-1.7365">
        <ele>12.2</ele>
        <time>2021-12-24T06:58:31Z</time>
      </trkpt>
      <trkpt lat="47.16953" lon="-1.73643">
        <ele>12.6</ele>
        <time>2021-12-24T06:58:33Z</time>
      </trkpt>
      <trkpt lat="47.16948" lon="-1.73634">
        <ele>12.8</ele>
        <time>2021-12-24T06:58:35Z</time>
      </trkpt>
      <trkpt lat="47.16945" lon="-1.73626">
        <ele>13</ele>
        <time>2021-12-24T06:58:37Z</time>
      </trkpt>
      <trkpt lat="47.16942" lon="-1.73616">
        <ele>13.2</ele>
        <time>2021-12-24T06:58:39Z</time>
      </trkpt>
      <trkpt lat="47.1694" lon="-1.73607">
        <ele>13.2</ele>
        <time>2021-12-24T06:58:41Z</time>
      </trkpt>
      <trkpt lat="47.1694" lon="-1.73602">
        <ele>13.4</ele>
        <time>2021-12-24T06:58:42Z</time>
      </trkpt>
      <trkpt lat="47.16941" lon="-1.73598">
        <ele>13.6</ele>
        <time>2021-12-24T06:58:43Z</time>
      </trkpt>
      <trkpt lat="47.1694" lon="-1.73587">
        <ele>13.8</ele>
        <time>2021-12-24T06:58:45Z</time>
      </trkpt>
      <trkpt lat="47.16939" lon="-1.73575">
        <ele>13.8</ele>
        <time>2021-12-24T06:58:47Z</time>
      </trkpt>
      <trkpt lat="47.16938" lon="-1.73568">
        <ele>14</ele>
        <time>2021-12-24T06:58:48Z</time>
      </trkpt>
      <trkpt lat="47.16936" lon="-1.73561">
        <ele>14</ele>
        <time>2021-12-24T06:58:49Z</time>
      </trkpt>
      <trkpt lat="47.16935" lon="-1.73547">
        <ele>14</ele>
        <time>2021-12-24T06:58:51Z</time>
      </trkpt>
      <trkpt lat="47.16934" lon="-1.73531">
        <ele>14.2</ele>
        <time>2021-12-24T06:58:53Z</time>
      </trkpt>
      <trkpt lat="47.16932" lon="-1.73515">
        <ele>14.2</ele>
        <time>2021-12-24T06:58:55Z</time>
      </trkpt>
      <trkpt lat="47.1693" lon="-1.73498">
        <ele>14.2</ele>
        <time>2021-12-24T06:58:57Z</time>
      </trkpt>
      <trkpt lat="47.16928" lon="-1.7348">
        <ele>14.2</ele>
        <time>2021-12-24T06:58:59Z</time>
      </trkpt>
      <trkpt lat="47.16927" lon="-1.73471">
        <ele>14.2</ele>
        <time>2021-12-24T06:59:00Z</time>
      </trkpt>
      <trkpt lat="47.16926" lon="-1.73462">
        <ele>14.2</ele>
        <time>2021-12-24T06:59:01Z</time>
      </trkpt>
      <trkpt lat="47.16924" lon="-1.73443">
        <ele>14.4</ele>
        <time>2021-12-24T06:59:03Z</time>
      </trkpt>
      <trkpt lat="47.16922" lon="-1.73423">
        <ele>14.4</ele>
        <time>2021-12-24T06:59:05Z</time>
      </trkpt>
      <trkpt lat="47.1692" lon="-1.73403">
        <ele>14.2</ele>
        <time>2021-12-24T06:59:07Z</time>
      </trkpt>
      <trkpt lat="47.16918" lon="-1.73382">
        <ele>14.2</ele>
        <time>2021-12-24T06:59:09Z</time>
      </trkpt>
      <trkpt lat="47.16916" lon="-1.7336">
        <ele>14.2</ele>
        <time>2021-12-24T06:59:11Z</time>
      </trkpt>
      <trkpt lat="47.16915" lon="-1.73337">
        <ele>14.4</ele>
        <time>2021-12-24T06:59:13Z</time>
      </trkpt>
      <trkpt lat="47.16915" lon="-1.73324">
        <ele>14.4</ele>
        <time>2021-12-24T06:59:14Z</time>
      </trkpt>
      <trkpt lat="47.16915" lon="-1.73312">
        <ele>14</ele>
        <time>2021-12-24T06:59:15Z</time>
      </trkpt>
      <trkpt lat="47.16915" lon="-1.73289">
        <ele>14</ele>
        <time>2021-12-24T06:59:17Z</time>
      </trkpt>
      <trkpt lat="47.16914" lon="-1.73272">
        <ele>13.8</ele>
        <time>2021-12-24T06:59:19Z</time>
      </trkpt>
      <trkpt lat="47.16907" lon="-1.73264">
        <ele>13.6</ele>
        <time>2021-12-24T06:59:21Z</time>
      </trkpt>
      <trkpt lat="47.16896" lon="-1.73271">
        <ele>13.4</ele>
        <time>2021-12-24T06:59:23Z</time>
      </trkpt>
      <trkpt lat="47.1689" lon="-1.73275">
        <ele>13.4</ele>
        <time>2021-12-24T06:59:24Z</time>
      </trkpt>
      <trkpt lat="47.16884" lon="-1.73279">
        <ele>13.2</ele>
        <time>2021-12-24T06:59:25Z</time>
      </trkpt>
      <trkpt lat="47.16872" lon="-1.73288">
        <ele>13.2</ele>
        <time>2021-12-24T06:59:27Z</time>
      </trkpt>
      <trkpt lat="47.1686" lon="-1.73297">
        <ele>13</ele>
        <time>2021-12-24T06:59:29Z</time>
      </trkpt>
      <trkpt lat="47.16847" lon="-1.73308">
        <ele>12.6</ele>
        <time>2021-12-24T06:59:31Z</time>
      </trkpt>
      <trkpt lat="47.16832" lon="-1.73318">
        <ele>12.4</ele>
        <time>2021-12-24T06:59:33Z</time>
      </trkpt>
      <trkpt lat="47.16825" lon="-1.73323">
        <ele>12.2</ele>
        <time>2021-12-24T06:59:34Z</time>
      </trkpt>
      <trkpt lat="47.16817" lon="-1.73329">
        <ele>12</ele>
        <time>2021-12-24T06:59:35Z</time>
      </trkpt>
      <trkpt lat="47.16801" lon="-1.7334">
        <ele>11.4</ele>
        <time>2021-12-24T06:59:37Z</time>
      </trkpt>
      <trkpt lat="47.16786" lon="-1.7335">
        <ele>11</ele>
        <time>2021-12-24T06:59:39Z</time>
      </trkpt>
      <trkpt lat="47.1677" lon="-1.73362">
        <ele>10.6</ele>
        <time>2021-12-24T06:59:41Z</time>
      </trkpt>
      <trkpt lat="47.16754" lon="-1.73372">
        <ele>10.2</ele>
        <time>2021-12-24T06:59:43Z</time>
      </trkpt>
      <trkpt lat="47.16738" lon="-1.73382">
        <ele>9.8</ele>
        <time>2021-12-24T06:59:45Z</time>
      </trkpt>
      <trkpt lat="47.1673" lon="-1.73387">
        <ele>9.8</ele>
        <time>2021-12-24T06:59:46Z</time>
      </trkpt>
      <trkpt lat="47.16722" lon="-1.73391">
        <ele>9.6</ele>
        <time>2021-12-24T06:59:47Z</time>
      </trkpt>
      <trkpt lat="47.16714" lon="-1.73393">
        <ele>9.6</ele>
        <time>2021-12-24T06:59:48Z</time>
      </trkpt>
      <trkpt lat="47.16705" lon="-1.73395">
        <ele>9.4</ele>
        <time>2021-12-24T06:59:49Z</time>
      </trkpt>
      <trkpt lat="47.16697" lon="-1.73397">
        <ele>9.2</ele>
        <time>2021-12-24T06:59:50Z</time>
      </trkpt>
      <trkpt lat="47.16689" lon="-1.73397">
        <ele>9.2</ele>
        <time>2021-12-24T06:59:51Z</time>
      </trkpt>
      <trkpt lat="47.16673" lon="-1.73395">
        <ele>9</ele>
        <time>2021-12-24T06:59:53Z</time>
      </trkpt>
      <trkpt lat="47.16657" lon="-1.7339">
        <ele>8.6</ele>
        <time>2021-12-24T06:59:55Z</time>
      </trkpt>
      <trkpt lat="47.16642" lon="-1.73385">
        <ele>8.6</ele>
        <time>2021-12-24T06:59:57Z</time>
      </trkpt>
      <trkpt lat="47.16629" lon="-1.73382">
        <ele>8.6</ele>
        <time>2021-12-24T06:59:59Z</time>
      </trkpt>
      <trkpt lat="47.16622" lon="-1.7338">
        <ele>8.4</ele>
        <time>2021-12-24T07:00:00Z</time>
      </trkpt>
      <trkpt lat="47.16614" lon="-1.73378">
        <ele>8.2</ele>
        <time>2021-12-24T07:00:01Z</time>
      </trkpt>
      <trkpt lat="47.166" lon="-1.73373">
        <ele>8</ele>
        <time>2021-12-24T07:00:03Z</time>
      </trkpt>
      <trkpt lat="47.16585" lon="-1.73369">
        <ele>7.8</ele>
        <time>2021-12-24T07:00:05Z</time>
      </trkpt>
      <trkpt lat="47.1657" lon="-1.73364">
        <ele>7.8</ele>
        <time>2021-12-24T07:00:07Z</time>
      </trkpt>
      <trkpt lat="47.16563" lon="-1.73362">
        <ele>7.6</ele>
        <time>2021-12-24T07:00:08Z</time>
      </trkpt>
      <trkpt lat="47.16556" lon="-1.7336">
        <ele>7.6</ele>
        <time>2021-12-24T07:00:09Z</time>
      </trkpt>
      <trkpt lat="47.16542" lon="-1.73355">
        <ele>7.4</ele>
        <time>2021-12-24T07:00:11Z</time>
      </trkpt>
      <trkpt lat="47.16528" lon="-1.73351">
        <ele>7.2</ele>
        <time>2021-12-24T07:00:13Z</time>
      </trkpt>
      <trkpt lat="47.16514" lon="-1.73347">
        <ele>7</ele>
        <time>2021-12-24T07:00:15Z</time>
      </trkpt>
      <trkpt lat="47.16501" lon="-1.73342">
        <ele>6.8</ele>
        <time>2021-12-24T07:00:17Z</time>
      </trkpt>
      <trkpt lat="47.16487" lon="-1.73338">
        <ele>6.8</ele>
        <time>2021-12-24T07:00:19Z</time>
      </trkpt>
      <trkpt lat="47.16473" lon="-1.73334">
        <ele>6.8</ele>
        <time>2021-12-24T07:00:21Z</time>
      </trkpt>
      <trkpt lat="47.1646" lon="-1.7333">
        <ele>6.6</ele>
        <time>2021-12-24T07:00:23Z</time>
      </trkpt>
      <trkpt lat="47.16453" lon="-1.73328">
        <ele>6.6</ele>
        <time>2021-12-24T07:00:24Z</time>
      </trkpt>
      <trkpt lat="47.16446" lon="-1.73327">
        <ele>6.6</ele>
        <time>2021-12-24T07:00:25Z</time>
      </trkpt>
      <trkpt lat="47.16432" lon="-1.73328">
        <ele>6.4</ele>
        <time>2021-12-24T07:00:27Z</time>
      </trkpt>
      <trkpt lat="47.16426" lon="-1.73329">
        <ele>6.4</ele>
        <time>2021-12-24T07:00:28Z</time>
      </trkpt>
      <trkpt lat="47.16419" lon="-1.73332">
        <ele>6.4</ele>
        <time>2021-12-24T07:00:29Z</time>
      </trkpt>
      <trkpt lat="47.16406" lon="-1.73337">
        <ele>6.2</ele>
        <time>2021-12-24T07:00:31Z</time>
      </trkpt>
      <trkpt lat="47.16394" lon="-1.73344">
        <ele>6.2</ele>
        <time>2021-12-24T07:00:33Z</time>
      </trkpt>
      <trkpt lat="47.16381" lon="-1.73351">
        <ele>6</ele>
        <time>2021-12-24T07:00:35Z</time>
      </trkpt>
      <trkpt lat="47.16375" lon="-1.73355">
        <ele>6</ele>
        <time>2021-12-24T07:00:36Z</time>
      </trkpt>
      <trkpt lat="47.16368" lon="-1.73357">
        <ele>6</ele>
        <time>2021-12-24T07:00:37Z</time>
      </trkpt>
      <trkpt lat="47.16356" lon="-1.73364">
        <ele>6</ele>
        <time>2021-12-24T07:00:39Z</time>
      </trkpt>
      <trkpt lat="47.16344" lon="-1.7337">
        <ele>6</ele>
        <time>2021-12-24T07:00:41Z</time>
      </trkpt>
      <trkpt lat="47.16333" lon="-1.73377">
        <ele>5.8</ele>
        <time>2021-12-24T07:00:43Z</time>
      </trkpt>
      <trkpt lat="47.16321" lon="-1.73383">
        <ele>5.8</ele>
        <time>2021-12-24T07:00:45Z</time>
      </trkpt>
      <trkpt lat="47.16308" lon="-1.73388">
        <ele>5.8</ele>
        <time>2021-12-24T07:00:47Z</time>
      </trkpt>
      <trkpt lat="47.16294" lon="-1.73391">
        <ele>5.6</ele>
        <time>2021-12-24T07:00:49Z</time>
      </trkpt>
      <trkpt lat="47.16279" lon="-1.73391">
        <ele>5.6</ele>
        <time>2021-12-24T07:00:51Z</time>
      </trkpt>
      <trkpt lat="47.16272" lon="-1.7339">
        <ele>5.4</ele>
        <time>2021-12-24T07:00:52Z</time>
      </trkpt>
      <trkpt lat="47.16265" lon="-1.73389">
        <ele>5.4</ele>
        <time>2021-12-24T07:00:53Z</time>
      </trkpt>
      <trkpt lat="47.16252" lon="-1.73386">
        <ele>5.4</ele>
        <time>2021-12-24T07:00:55Z</time>
      </trkpt>
      <trkpt lat="47.16239" lon="-1.73384">
        <ele>5.4</ele>
        <time>2021-12-24T07:00:57Z</time>
      </trkpt>
      <trkpt lat="47.16226" lon="-1.73384">
        <ele>5.4</ele>
        <time>2021-12-24T07:00:59Z</time>
      </trkpt>
      <trkpt lat="47.1622" lon="-1.73384">
        <ele>5.4</ele>
        <time>2021-12-24T07:01:00Z</time>
      </trkpt>
      <trkpt lat="47.16214" lon="-1.73386">
        <ele>5.2</ele>
        <time>2021-12-24T07:01:01Z</time>
      </trkpt>
      <trkpt lat="47.16204" lon="-1.73393">
        <ele>5.4</ele>
        <time>2021-12-24T07:01:03Z</time>
      </trkpt>
      <trkpt lat="47.16198" lon="-1.73397">
        <ele>5.4</ele>
        <time>2021-12-24T07:01:04Z</time>
      </trkpt>
      <trkpt lat="47.16193" lon="-1.73402">
        <ele>5.4</ele>
        <time>2021-12-24T07:01:05Z</time>
      </trkpt>
      <trkpt lat="47.16188" lon="-1.73408">
        <ele>5.4</ele>
        <time>2021-12-24T07:01:06Z</time>
      </trkpt>
      <trkpt lat="47.16184" lon="-1.73414">
        <ele>5.4</ele>
        <time>2021-12-24T07:01:07Z</time>
      </trkpt>
      <trkpt lat="47.16179" lon="-1.7342">
        <ele>5.4</ele>
        <time>2021-12-24T07:01:08Z</time>
      </trkpt>
      <trkpt lat="47.16175" lon="-1.73426">
        <ele>5.4</ele>
        <time>2021-12-24T07:01:09Z</time>
      </trkpt>
      <trkpt lat="47.16166" lon="-1.73438">
        <ele>5.4</ele>
        <time>2021-12-24T07:01:11Z</time>
      </trkpt>
      <trkpt lat="47.16161" lon="-1.73445">
        <ele>5.6</ele>
        <time>2021-12-24T07:01:12Z</time>
      </trkpt>
      <trkpt lat="47.16156" lon="-1.73452">
        <ele>5.6</ele>
        <time>2021-12-24T07:01:13Z</time>
      </trkpt>
      <trkpt lat="47.1615" lon="-1.73459">
        <ele>5.4</ele>
        <time>2021-12-24T07:01:14Z</time>
      </trkpt>
      <trkpt lat="47.16144" lon="-1.73466">
        <ele>5.2</ele>
        <time>2021-12-24T07:01:15Z</time>
      </trkpt>
      <trkpt lat="47.16133" lon="-1.73479">
        <ele>5.2</ele>
        <time>2021-12-24T07:01:17Z</time>
      </trkpt>
      <trkpt lat="47.16121" lon="-1.7349">
        <ele>5.4</ele>
        <time>2021-12-24T07:01:19Z</time>
      </trkpt>
      <trkpt lat="47.16116" lon="-1.73494">
        <ele>5.4</ele>
        <time>2021-12-24T07:01:20Z</time>
      </trkpt>
      <trkpt lat="47.1611" lon="-1.73496">
        <ele>5.2</ele>
        <time>2021-12-24T07:01:21Z</time>
      </trkpt>
      <trkpt lat="47.16105" lon="-1.73498">
        <ele>5.2</ele>
        <time>2021-12-24T07:01:22Z</time>
      </trkpt>
      <trkpt lat="47.161" lon="-1.73499">
        <ele>5.6</ele>
        <time>2021-12-24T07:01:23Z</time>
      </trkpt>
      <trkpt lat="47.1609" lon="-1.735">
        <ele>5.4</ele>
        <time>2021-12-24T07:01:25Z</time>
      </trkpt>
      <trkpt lat="47.1608" lon="-1.73501">
        <ele>5.4</ele>
        <time>2021-12-24T07:01:27Z</time>
      </trkpt>
      <trkpt lat="47.16076" lon="-1.73502">
        <ele>5.4</ele>
        <time>2021-12-24T07:01:28Z</time>
      </trkpt>
      <trkpt lat="47.16071" lon="-1.73502">
        <ele>5.6</ele>
        <time>2021-12-24T07:01:29Z</time>
      </trkpt>
      <trkpt lat="47.16062" lon="-1.73502">
        <ele>5.6</ele>
        <time>2021-12-24T07:01:31Z</time>
      </trkpt>
      <trkpt lat="47.16054" lon="-1.73503">
        <ele>5.6</ele>
        <time>2021-12-24T07:01:33Z</time>
      </trkpt>
      <trkpt lat="47.16046" lon="-1.73504">
        <ele>5.8</ele>
        <time>2021-12-24T07:01:35Z</time>
      </trkpt>
      <trkpt lat="47.16043" lon="-1.73505">
        <ele>5.8</ele>
        <time>2021-12-24T07:01:36Z</time>
      </trkpt>
      <trkpt lat="47.16039" lon="-1.73505">
        <ele>5.8</ele>
        <time>2021-12-24T07:01:37Z</time>
      </trkpt>
      <trkpt lat="47.16032" lon="-1.73507">
        <ele>6</ele>
        <time>2021-12-24T07:01:39Z</time>
      </trkpt>
      <trkpt lat="47.16025" lon="-1.73508">
        <ele>6.2</ele>
        <time>2021-12-24T07:01:41Z</time>
      </trkpt>
      <trkpt lat="47.16017" lon="-1.73509">
        <ele>6.2</ele>
        <time>2021-12-24T07:01:43Z</time>
      </trkpt>
      <trkpt lat="47.16014" lon="-1.73509">
        <ele>6.4</ele>
        <time>2021-12-24T07:01:44Z</time>
      </trkpt>
      <trkpt lat="47.1601" lon="-1.7351">
        <ele>6.4</ele>
        <time>2021-12-24T07:01:45Z</time>
      </trkpt>
      <trkpt lat="47.16004" lon="-1.73511">
        <ele>6.6</ele>
        <time>2021-12-24T07:01:47Z</time>
      </trkpt>
      <trkpt lat="47.15997" lon="-1.73512">
        <ele>6.8</ele>
        <time>2021-12-24T07:01:49Z</time>
      </trkpt>
      <trkpt lat="47.1599" lon="-1.73513">
        <ele>7.2</ele>
        <time>2021-12-24T07:01:51Z</time>
      </trkpt>
      <trkpt lat="47.15983" lon="-1.73513">
        <ele>7.4</ele>
        <time>2021-12-24T07:01:53Z</time>
      </trkpt>
      <trkpt lat="47.15977" lon="-1.73514">
        <ele>7.6</ele>
        <time>2021-12-24T07:01:55Z</time>
      </trkpt>
      <trkpt lat="47.15971" lon="-1.73515">
        <ele>7.8</ele>
        <time>2021-12-24T07:01:57Z</time>
      </trkpt>
      <trkpt lat="47.15967" lon="-1.73516">
        <ele>7.8</ele>
        <time>2021-12-24T07:01:58Z</time>
      </trkpt>
      <trkpt lat="47.15964" lon="-1.73516">
        <ele>8</ele>
        <time>2021-12-24T07:01:59Z</time>
      </trkpt>
      <trkpt lat="47.15961" lon="-1.73514">
        <ele>8</ele>
        <time>2021-12-24T07:02:00Z</time>
      </trkpt>
      <trkpt lat="47.1596" lon="-1.7351">
        <ele>8.2</ele>
        <time>2021-12-24T07:02:01Z</time>
      </trkpt>
      <trkpt lat="47.15956" lon="-1.73502">
        <ele>8.2</ele>
        <time>2021-12-24T07:02:03Z</time>
      </trkpt>
      <trkpt lat="47.15955" lon="-1.73498">
        <ele>8.4</ele>
        <time>2021-12-24T07:02:04Z</time>
      </trkpt>
      <trkpt lat="47.15955" lon="-1.73495">
        <ele>8.4</ele>
        <time>2021-12-24T07:02:05Z</time>
      </trkpt>
      <trkpt lat="47.15956" lon="-1.73486">
        <ele>8.4</ele>
        <time>2021-12-24T07:02:07Z</time>
      </trkpt>
      <trkpt lat="47.15955" lon="-1.73479">
        <ele>8.6</ele>
        <time>2021-12-24T07:02:09Z</time>
      </trkpt>
      <trkpt lat="47.15955" lon="-1.73475">
        <ele>8.8</ele>
        <time>2021-12-24T07:02:11Z</time>
      </trkpt>
      <trkpt lat="47.15957" lon="-1.73476">
        <ele>9</ele>
        <time>2021-12-24T07:02:12Z</time>
      </trkpt>
      <trkpt lat="47.1596" lon="-1.73478">
        <ele>9</ele>
        <time>2021-12-24T07:02:13Z</time>
      </trkpt>
      <trkpt lat="47.15961" lon="-1.73482">
        <ele>9</ele>
        <time>2021-12-24T07:02:14Z</time>
      </trkpt>
      <trkpt lat="47.15961" lon="-1.73487">
        <ele>9</ele>
        <time>2021-12-24T07:02:15Z</time>
      </trkpt>
      <trkpt lat="47.1596" lon="-1.73491">
        <ele>9</ele>
        <time>2021-12-24T07:02:16Z</time>
      </trkpt>
      <trkpt lat="47.15957" lon="-1.73494">
        <ele>9</ele>
        <time>2021-12-24T07:02:17Z</time>
      </trkpt>
      <trkpt lat="47.15953" lon="-1.73496">
        <ele>9</ele>
        <time>2021-12-24T07:02:18Z</time>
      </trkpt>
      <trkpt lat="47.1595" lon="-1.73496">
        <ele>9</ele>
        <time>2021-12-24T07:02:19Z</time>
      </trkpt>
      <trkpt lat="47.15942" lon="-1.73498">
        <ele>9.2</ele>
        <time>2021-12-24T07:02:21Z</time>
      </trkpt>
      <trkpt lat="47.15935" lon="-1.735">
        <ele>9.2</ele>
        <time>2021-12-24T07:02:23Z</time>
      </trkpt>
      <trkpt lat="47.15928" lon="-1.73502">
        <ele>9.4</ele>
        <time>2021-12-24T07:02:25Z</time>
      </trkpt>
      <trkpt lat="47.15925" lon="-1.73502">
        <ele>9.4</ele>
        <time>2021-12-24T07:02:26Z</time>
      </trkpt>
      <trkpt lat="47.15922" lon="-1.73503">
        <ele>9.4</ele>
        <time>2021-12-24T07:02:27Z</time>
      </trkpt>
      <trkpt lat="47.15915" lon="-1.73504">
        <ele>9.6</ele>
        <time>2021-12-24T07:02:29Z</time>
      </trkpt>
      <trkpt lat="47.15908" lon="-1.73506">
        <ele>9.8</ele>
        <time>2021-12-24T07:02:31Z</time>
      </trkpt>
      <trkpt lat="47.15901" lon="-1.73508">
        <ele>10</ele>
        <time>2021-12-24T07:02:33Z</time>
      </trkpt>
      <trkpt lat="47.15894" lon="-1.73509">
        <ele>10</ele>
        <time>2021-12-24T07:02:35Z</time>
      </trkpt>
      <trkpt lat="47.15888" lon="-1.7351">
        <ele>10.2</ele>
        <time>2021-12-24T07:02:37Z</time>
      </trkpt>
      <trkpt lat="47.15881" lon="-1.7351">
        <ele>10.2</ele>
        <time>2021-12-24T07:02:39Z</time>
      </trkpt>
      <trkpt lat="47.15873" lon="-1.73509">
        <ele>10.4</ele>
        <time>2021-12-24T07:02:41Z</time>
      </trkpt>
      <trkpt lat="47.15866" lon="-1.7351">
        <ele>10.6</ele>
        <time>2021-12-24T07:02:43Z</time>
      </trkpt>
      <trkpt lat="47.15858" lon="-1.7351">
        <ele>10.8</ele>
        <time>2021-12-24T07:02:45Z</time>
      </trkpt>
      <trkpt lat="47.15851" lon="-1.7351">
        <ele>10.8</ele>
        <time>2021-12-24T07:02:47Z</time>
      </trkpt>
      <trkpt lat="47.15843" lon="-1.73511">
        <ele>11</ele>
        <time>2021-12-24T07:02:49Z</time>
      </trkpt>
      <trkpt lat="47.15836" lon="-1.73511">
        <ele>11.2</ele>
        <time>2021-12-24T07:02:51Z</time>
      </trkpt>
      <trkpt lat="47.15828" lon="-1.73511">
        <ele>11.2</ele>
        <time>2021-12-24T07:02:53Z</time>
      </trkpt>
      <trkpt lat="47.15823" lon="-1.73511">
        <ele>11.4</ele>
        <time>2021-12-24T07:02:54Z</time>
      </trkpt>
      <trkpt lat="47.15819" lon="-1.73511">
        <ele>11.4</ele>
        <time>2021-12-24T07:02:55Z</time>
      </trkpt>
      <trkpt lat="47.1581" lon="-1.73512">
        <ele>11.6</ele>
        <time>2021-12-24T07:02:57Z</time>
      </trkpt>
      <trkpt lat="47.15801" lon="-1.73511">
        <ele>11.8</ele>
        <time>2021-12-24T07:02:59Z</time>
      </trkpt>
      <trkpt lat="47.15792" lon="-1.73511">
        <ele>12</ele>
        <time>2021-12-24T07:03:01Z</time>
      </trkpt>
      <trkpt lat="47.15783" lon="-1.7351">
        <ele>12.2</ele>
        <time>2021-12-24T07:03:03Z</time>
      </trkpt>
      <trkpt lat="47.15773" lon="-1.7351">
        <ele>12.4</ele>
        <time>2021-12-24T07:03:05Z</time>
      </trkpt>
      <trkpt lat="47.15762" lon="-1.73511">
        <ele>12.4</ele>
        <time>2021-12-24T07:03:07Z</time>
      </trkpt>
      <trkpt lat="47.15757" lon="-1.73511">
        <ele>12.6</ele>
        <time>2021-12-24T07:03:08Z</time>
      </trkpt>
      <trkpt lat="47.15752" lon="-1.73511">
        <ele>12.6</ele>
        <time>2021-12-24T07:03:09Z</time>
      </trkpt>
      <trkpt lat="47.15742" lon="-1.7351">
        <ele>12.8</ele>
        <time>2021-12-24T07:03:11Z</time>
      </trkpt>
      <trkpt lat="47.15731" lon="-1.73511">
        <ele>13</ele>
        <time>2021-12-24T07:03:13Z</time>
      </trkpt>
      <trkpt lat="47.15721" lon="-1.73511">
        <ele>13.2</ele>
        <time>2021-12-24T07:03:15Z</time>
      </trkpt>
      <trkpt lat="47.15716" lon="-1.73512">
        <ele>13.2</ele>
        <time>2021-12-24T07:03:16Z</time>
      </trkpt>
      <trkpt lat="47.1571" lon="-1.73511">
        <ele>13.2</ele>
        <time>2021-12-24T07:03:17Z</time>
      </trkpt>
      <trkpt lat="47.15701" lon="-1.7351">
        <ele>13.4</ele>
        <time>2021-12-24T07:03:19Z</time>
      </trkpt>
      <trkpt lat="47.15696" lon="-1.73504">
        <ele>13.4</ele>
        <time>2021-12-24T07:03:21Z</time>
      </trkpt>
      <trkpt lat="47.15695" lon="-1.73492">
        <ele>13.6</ele>
        <time>2021-12-24T07:03:23Z</time>
      </trkpt>
      <trkpt lat="47.15695" lon="-1.73485">
        <ele>13.6</ele>
        <time>2021-12-24T07:03:24Z</time>
      </trkpt>
      <trkpt lat="47.15695" lon="-1.73479">
        <ele>13.6</ele>
        <time>2021-12-24T07:03:25Z</time>
      </trkpt>
      <trkpt lat="47.15695" lon="-1.73465">
        <ele>13.6</ele>
        <time>2021-12-24T07:03:27Z</time>
      </trkpt>
      <trkpt lat="47.15695" lon="-1.7345">
        <ele>13.6</ele>
        <time>2021-12-24T07:03:29Z</time>
      </trkpt>
      <trkpt lat="47.15695" lon="-1.73434">
        <ele>13.6</ele>
        <time>2021-12-24T07:03:31Z</time>
      </trkpt>
      <trkpt lat="47.15694" lon="-1.73418">
        <ele>13.6</ele>
        <time>2021-12-24T07:03:33Z</time>
      </trkpt>
      <trkpt lat="47.15695" lon="-1.73402">
        <ele>13.6</ele>
        <time>2021-12-24T07:03:35Z</time>
      </trkpt>
      <trkpt lat="47.15694" lon="-1.73386">
        <ele>13.8</ele>
        <time>2021-12-24T07:03:37Z</time>
      </trkpt>
      <trkpt lat="47.15694" lon="-1.7337">
        <ele>13.8</ele>
        <time>2021-12-24T07:03:39Z</time>
      </trkpt>
      <trkpt lat="47.15693" lon="-1.73362">
        <ele>13.6</ele>
        <time>2021-12-24T07:03:40Z</time>
      </trkpt>
      <trkpt lat="47.15693" lon="-1.73354">
        <ele>13.6</ele>
        <time>2021-12-24T07:03:41Z</time>
      </trkpt>
      <trkpt lat="47.15693" lon="-1.73338">
        <ele>13.6</ele>
        <time>2021-12-24T07:03:43Z</time>
      </trkpt>
      <trkpt lat="47.15693" lon="-1.73323">
        <ele>13.6</ele>
        <time>2021-12-24T07:03:45Z</time>
      </trkpt>
      <trkpt lat="47.15693" lon="-1.73307">
        <ele>13.4</ele>
        <time>2021-12-24T07:03:47Z</time>
      </trkpt>
      <trkpt lat="47.15692" lon="-1.73299">
        <ele>13.4</ele>
        <time>2021-12-24T07:03:48Z</time>
      </trkpt>
      <trkpt lat="47.15692" lon="-1.73292">
        <ele>13.2</ele>
        <time>2021-12-24T07:03:49Z</time>
      </trkpt>
      <trkpt lat="47.15692" lon="-1.73284">
        <ele>13.2</ele>
        <time>2021-12-24T07:03:50Z</time>
      </trkpt>
      <trkpt lat="47.15691" lon="-1.73276">
        <ele>13</ele>
        <time>2021-12-24T07:03:51Z</time>
      </trkpt>
      <trkpt lat="47.15691" lon="-1.73268">
        <ele>13</ele>
        <time>2021-12-24T07:03:52Z</time>
      </trkpt>
      <trkpt lat="47.15691" lon="-1.7326">
        <ele>13</ele>
        <time>2021-12-24T07:03:53Z</time>
      </trkpt>
      <trkpt lat="47.15692" lon="-1.73245">
        <ele>13</ele>
        <time>2021-12-24T07:03:55Z</time>
      </trkpt>
      <trkpt lat="47.15692" lon="-1.73229">
        <ele>13</ele>
        <time>2021-12-24T07:03:57Z</time>
      </trkpt>
      <trkpt lat="47.15691" lon="-1.73221">
        <ele>13</ele>
        <time>2021-12-24T07:03:58Z</time>
      </trkpt>
      <trkpt lat="47.1569" lon="-1.73214">
        <ele>13</ele>
        <time>2021-12-24T07:03:59Z</time>
      </trkpt>
      <trkpt lat="47.15688" lon="-1.73207">
        <ele>13</ele>
        <time>2021-12-24T07:04:00Z</time>
      </trkpt>
      <trkpt lat="47.15686" lon="-1.73202">
        <ele>12.8</ele>
        <time>2021-12-24T07:04:01Z</time>
      </trkpt>
      <trkpt lat="47.15684" lon="-1.73197">
        <ele>12.8</ele>
        <time>2021-12-24T07:04:02Z</time>
      </trkpt>
      <trkpt lat="47.15682" lon="-1.73191">
        <ele>12.6</ele>
        <time>2021-12-24T07:04:03Z</time>
      </trkpt>
      <trkpt lat="47.15676" lon="-1.73177">
        <ele>12.6</ele>
        <time>2021-12-24T07:04:05Z</time>
      </trkpt>
      <trkpt lat="47.15671" lon="-1.73163">
        <ele>12.4</ele>
        <time>2021-12-24T07:04:07Z</time>
      </trkpt>
      <trkpt lat="47.15666" lon="-1.7315">
        <ele>12.2</ele>
        <time>2021-12-24T07:04:09Z</time>
      </trkpt>
      <trkpt lat="47.1566" lon="-1.73136">
        <ele>12.2</ele>
        <time>2021-12-24T07:04:11Z</time>
      </trkpt>
      <trkpt lat="47.15655" lon="-1.73122">
        <ele>12</ele>
        <time>2021-12-24T07:04:13Z</time>
      </trkpt>
      <trkpt lat="47.15653" lon="-1.73115">
        <ele>12</ele>
        <time>2021-12-24T07:04:14Z</time>
      </trkpt>
      <trkpt lat="47.1565" lon="-1.73109">
        <ele>11.8</ele>
        <time>2021-12-24T07:04:15Z</time>
      </trkpt>
      <trkpt lat="47.15645" lon="-1.73095">
        <ele>11.8</ele>
        <time>2021-12-24T07:04:17Z</time>
      </trkpt>
      <trkpt lat="47.1564" lon="-1.73081">
        <ele>11.6</ele>
        <time>2021-12-24T07:04:19Z</time>
      </trkpt>
      <trkpt lat="47.15635" lon="-1.73066">
        <ele>11.6</ele>
        <time>2021-12-24T07:04:21Z</time>
      </trkpt>
      <trkpt lat="47.15633" lon="-1.73058">
        <ele>11.6</ele>
        <time>2021-12-24T07:04:22Z</time>
      </trkpt>
      <trkpt lat="47.1563" lon="-1.73051">
        <ele>11.6</ele>
        <time>2021-12-24T07:04:23Z</time>
      </trkpt>
      <trkpt lat="47.15626" lon="-1.73036">
        <ele>11.4</ele>
        <time>2021-12-24T07:04:25Z</time>
      </trkpt>
      <trkpt lat="47.15624" lon="-1.73029">
        <ele>11.4</ele>
        <time>2021-12-24T07:04:26Z</time>
      </trkpt>
      <trkpt lat="47.15621" lon="-1.73022">
        <ele>11.2</ele>
        <time>2021-12-24T07:04:27Z</time>
      </trkpt>
      <trkpt lat="47.15615" lon="-1.73006">
        <ele>11</ele>
        <time>2021-12-24T07:04:29Z</time>
      </trkpt>
      <trkpt lat="47.15609" lon="-1.72989">
        <ele>10.8</ele>
        <time>2021-12-24T07:04:31Z</time>
      </trkpt>
      <trkpt lat="47.15603" lon="-1.72973">
        <ele>10.6</ele>
        <time>2021-12-24T07:04:33Z</time>
      </trkpt>
      <trkpt lat="47.15598" lon="-1.72955">
        <ele>10.2</ele>
        <time>2021-12-24T07:04:35Z</time>
      </trkpt>
      <trkpt lat="47.15596" lon="-1.72946">
        <ele>10.2</ele>
        <time>2021-12-24T07:04:36Z</time>
      </trkpt>
      <trkpt lat="47.15595" lon="-1.72938">
        <ele>10</ele>
        <time>2021-12-24T07:04:37Z</time>
      </trkpt>
      <trkpt lat="47.15593" lon="-1.7293">
        <ele>9.8</ele>
        <time>2021-12-24T07:04:38Z</time>
      </trkpt>
      <trkpt lat="47.15592" lon="-1.7292">
        <ele>9.6</ele>
        <time>2021-12-24T07:04:39Z</time>
      </trkpt>
      <trkpt lat="47.15589" lon="-1.72903">
        <ele>9.2</ele>
        <time>2021-12-24T07:04:41Z</time>
      </trkpt>
      <trkpt lat="47.15587" lon="-1.72885">
        <ele>8.8</ele>
        <time>2021-12-24T07:04:43Z</time>
      </trkpt>
      <trkpt lat="47.15585" lon="-1.72865">
        <ele>8.4</ele>
        <time>2021-12-24T07:04:45Z</time>
      </trkpt>
      <trkpt lat="47.15585" lon="-1.72856">
        <ele>8.2</ele>
        <time>2021-12-24T07:04:46Z</time>
      </trkpt>
      <trkpt lat="47.15585" lon="-1.72847">
        <ele>8</ele>
        <time>2021-12-24T07:04:47Z</time>
      </trkpt>
      <trkpt lat="47.15584" lon="-1.72838">
        <ele>7.8</ele>
        <time>2021-12-24T07:04:48Z</time>
      </trkpt>
      <trkpt lat="47.15584" lon="-1.72829">
        <ele>7.6</ele>
        <time>2021-12-24T07:04:49Z</time>
      </trkpt>
      <trkpt lat="47.15583" lon="-1.7281">
        <ele>7.2</ele>
        <time>2021-12-24T07:04:51Z</time>
      </trkpt>
      <trkpt lat="47.15582" lon="-1.72791">
        <ele>6.8</ele>
        <time>2021-12-24T07:04:53Z</time>
      </trkpt>
      <trkpt lat="47.1558" lon="-1.72773">
        <ele>6.6</ele>
        <time>2021-12-24T07:04:55Z</time>
      </trkpt>
      <trkpt lat="47.15578" lon="-1.72755">
        <ele>6.4</ele>
        <time>2021-12-24T07:04:57Z</time>
      </trkpt>
      <trkpt lat="47.15577" lon="-1.72737">
        <ele>6.4</ele>
        <time>2021-12-24T07:04:59Z</time>
      </trkpt>
      <trkpt lat="47.15576" lon="-1.7272">
        <ele>6.4</ele>
        <time>2021-12-24T07:05:01Z</time>
      </trkpt>
      <trkpt lat="47.15576" lon="-1.72701">
        <ele>6.4</ele>
        <time>2021-12-24T07:05:03Z</time>
      </trkpt>
      <trkpt lat="47.15576" lon="-1.72683">
        <ele>6.4</ele>
        <time>2021-12-24T07:05:05Z</time>
      </trkpt>
      <trkpt lat="47.15577" lon="-1.72665">
        <ele>6.8</ele>
        <time>2021-12-24T07:05:07Z</time>
      </trkpt>
      <trkpt lat="47.15578" lon="-1.72646">
        <ele>7</ele>
        <time>2021-12-24T07:05:09Z</time>
      </trkpt>
      <trkpt lat="47.15578" lon="-1.72638">
        <ele>5.2</ele>
        <time>2021-12-24T07:05:10Z</time>
      </trkpt>
      <trkpt lat="47.15578" lon="-1.72629">
        <ele>5.8</ele>
        <time>2021-12-24T07:05:11Z</time>
      </trkpt>
      <trkpt lat="47.15577" lon="-1.72617">
        <ele>6.4</ele>
        <time>2021-12-24T07:05:13Z</time>
      </trkpt>
      <trkpt lat="47.15571" lon="-1.72614">
        <ele>6.6</ele>
        <time>2021-12-24T07:05:15Z</time>
      </trkpt>
      <trkpt lat="47.15568" lon="-1.72616">
        <ele>6.8</ele>
        <time>2021-12-24T07:05:16Z</time>
      </trkpt>
      <trkpt lat="47.15565" lon="-1.72619">
        <ele>6.8</ele>
        <time>2021-12-24T07:05:17Z</time>
      </trkpt>
      <trkpt lat="47.15556" lon="-1.72629">
        <ele>6</ele>
        <time>2021-12-24T07:05:19Z</time>
      </trkpt>
      <trkpt lat="47.15544" lon="-1.72639">
        <ele>6.2</ele>
        <time>2021-12-24T07:05:21Z</time>
      </trkpt>
      <trkpt lat="47.15531" lon="-1.72649">
        <ele>6</ele>
        <time>2021-12-24T07:05:23Z</time>
      </trkpt>
      <trkpt lat="47.15524" lon="-1.72655">
        <ele>5.8</ele>
        <time>2021-12-24T07:05:24Z</time>
      </trkpt>
      <trkpt lat="47.15516" lon="-1.72661">
        <ele>5.6</ele>
        <time>2021-12-24T07:05:25Z</time>
      </trkpt>
      <trkpt lat="47.15501" lon="-1.72674">
        <ele>5.2</ele>
        <time>2021-12-24T07:05:27Z</time>
      </trkpt>
      <trkpt lat="47.15484" lon="-1.72687">
        <ele>5</ele>
        <time>2021-12-24T07:05:29Z</time>
      </trkpt>
      <trkpt lat="47.15467" lon="-1.72701">
        <ele>4.6</ele>
        <time>2021-12-24T07:05:31Z</time>
      </trkpt>
      <trkpt lat="47.15449" lon="-1.72715">
        <ele>4.2</ele>
        <time>2021-12-24T07:05:33Z</time>
      </trkpt>
      <trkpt lat="47.1543" lon="-1.72729">
        <ele>4</ele>
        <time>2021-12-24T07:05:35Z</time>
      </trkpt>
      <trkpt lat="47.1542" lon="-1.72736">
        <ele>3.8</ele>
        <time>2021-12-24T07:05:36Z</time>
      </trkpt>
      <trkpt lat="47.1541" lon="-1.72744">
        <ele>3.6</ele>
        <time>2021-12-24T07:05:37Z</time>
      </trkpt>
      <trkpt lat="47.15391" lon="-1.7276">
        <ele>3.4</ele>
        <time>2021-12-24T07:05:39Z</time>
      </trkpt>
      <trkpt lat="47.15373" lon="-1.72774">
        <ele>3.2</ele>
        <time>2021-12-24T07:05:41Z</time>
      </trkpt>
      <trkpt lat="47.15364" lon="-1.7278">
        <ele>3.2</ele>
        <time>2021-12-24T07:05:42Z</time>
      </trkpt>
      <trkpt lat="47.15356" lon="-1.72786">
        <ele>3</ele>
        <time>2021-12-24T07:05:43Z</time>
      </trkpt>
      <trkpt lat="47.15339" lon="-1.72797">
        <ele>3</ele>
        <time>2021-12-24T07:05:45Z</time>
      </trkpt>
      <trkpt lat="47.15324" lon="-1.72806">
        <ele>2.8</ele>
        <time>2021-12-24T07:05:47Z</time>
      </trkpt>
      <trkpt lat="47.1531" lon="-1.72815">
        <ele>2.4</ele>
        <time>2021-12-24T07:05:49Z</time>
      </trkpt>
      <trkpt lat="47.15296" lon="-1.72822">
        <ele>2.2</ele>
        <time>2021-12-24T07:05:51Z</time>
      </trkpt>
      <trkpt lat="47.15286" lon="-1.72829">
        <ele>2</ele>
        <time>2021-12-24T07:05:53Z</time>
      </trkpt>
      <trkpt lat="47.15275" lon="-1.72835">
        <ele>1.8</ele>
        <time>2021-12-24T07:05:55Z</time>
      </trkpt>
      <trkpt lat="47.15265" lon="-1.72841">
        <ele>1.6</ele>
        <time>2021-12-24T07:05:57Z</time>
      </trkpt>
      <trkpt lat="47.15256" lon="-1.72847">
        <ele>1.6</ele>
        <time>2021-12-24T07:05:59Z</time>
      </trkpt>
      <trkpt lat="47.15253" lon="-1.7285">
        <ele>1.4</ele>
        <time>2021-12-24T07:06:00Z</time>
      </trkpt>
      <trkpt lat="47.15248" lon="-1.72853">
        <ele>1.4</ele>
        <time>2021-12-24T07:06:01Z</time>
      </trkpt>
      <trkpt lat="47.15244" lon="-1.72856">
        <ele>1.4</ele>
        <time>2021-12-24T07:06:02Z</time>
      </trkpt>
      <trkpt lat="47.15239" lon="-1.72859">
        <ele>1.2</ele>
        <time>2021-12-24T07:06:03Z</time>
      </trkpt>
      <trkpt lat="47.15231" lon="-1.72865">
        <ele>1</ele>
        <time>2021-12-24T07:06:05Z</time>
      </trkpt>
      <trkpt lat="47.15227" lon="-1.72866">
        <ele>1</ele>
        <time>2021-12-24T07:06:06Z</time>
      </trkpt>
      <trkpt lat="47.15223" lon="-1.72868">
        <ele>1</ele>
        <time>2021-12-24T07:06:07Z</time>
      </trkpt>
      <trkpt lat="47.15216" lon="-1.72873">
        <ele>0.80000000000001</ele>
        <time>2021-12-24T07:06:09Z</time>
      </trkpt>
      <trkpt lat="47.15207" lon="-1.72878">
        <ele>0.60000000000002</ele>
        <time>2021-12-24T07:06:11Z</time>
      </trkpt>
      <trkpt lat="47.15198" lon="-1.72883">
        <ele>0.60000000000002</ele>
        <time>2021-12-24T07:06:13Z</time>
      </trkpt>
      <trkpt lat="47.15189" lon="-1.72888">
        <ele>0.60000000000002</ele>
        <time>2021-12-24T07:06:15Z</time>
      </trkpt>
      <trkpt lat="47.1518" lon="-1.72892">
        <ele>0.60000000000002</ele>
        <time>2021-12-24T07:06:17Z</time>
      </trkpt>
      <trkpt lat="47.15171" lon="-1.72896">
        <ele>0.80000000000001</ele>
        <time>2021-12-24T07:06:19Z</time>
      </trkpt>
      <trkpt lat="47.15163" lon="-1.72899">
        <ele>0.80000000000001</ele>
        <time>2021-12-24T07:06:21Z</time>
      </trkpt>
      <trkpt lat="47.15157" lon="-1.72903">
        <ele>1</ele>
        <time>2021-12-24T07:06:23Z</time>
      </trkpt>
      <trkpt lat="47.15153" lon="-1.72905">
        <ele>0.60000000000002</ele>
        <time>2021-12-24T07:06:24Z</time>
      </trkpt>
      <trkpt lat="47.15151" lon="-1.72908">
        <ele>0.80000000000001</ele>
        <time>2021-12-24T07:06:25Z</time>
      </trkpt>
      <trkpt lat="47.15145" lon="-1.72912">
        <ele>1.6</ele>
        <time>2021-12-24T07:06:27Z</time>
      </trkpt>
      <trkpt lat="47.15142" lon="-1.72914">
        <ele>1.2</ele>
        <time>2021-12-24T07:06:28Z</time>
      </trkpt>
      <trkpt lat="47.15139" lon="-1.72916">
        <ele>1.4</ele>
        <time>2021-12-24T07:06:29Z</time>
      </trkpt>
      <trkpt lat="47.15132" lon="-1.7292">
        <ele>1.4</ele>
        <time>2021-12-24T07:06:31Z</time>
      </trkpt>
      <trkpt lat="47.15125" lon="-1.72923">
        <ele>1.6</ele>
        <time>2021-12-24T07:06:33Z</time>
      </trkpt>
      <trkpt lat="47.15121" lon="-1.72924">
        <ele>1.8</ele>
        <time>2021-12-24T07:06:34Z</time>
      </trkpt>
      <trkpt lat="47.15117" lon="-1.72925">
        <ele>2</ele>
        <time>2021-12-24T07:06:35Z</time>
      </trkpt>
      <trkpt lat="47.15109" lon="-1.72928">
        <ele>2.2</ele>
        <time>2021-12-24T07:06:37Z</time>
      </trkpt>
      <trkpt lat="47.15102" lon="-1.72931">
        <ele>2.6</ele>
        <time>2021-12-24T07:06:39Z</time>
      </trkpt>
      <trkpt lat="47.15099" lon="-1.72932">
        <ele>2.8</ele>
        <time>2021-12-24T07:06:40Z</time>
      </trkpt>
      <trkpt lat="47.15095" lon="-1.72934">
        <ele>3</ele>
        <time>2021-12-24T07:06:41Z</time>
      </trkpt>
      <trkpt lat="47.15089" lon="-1.72936">
        <ele>3.2</ele>
        <time>2021-12-24T07:06:43Z</time>
      </trkpt>
      <trkpt lat="47.15081" lon="-1.72939">
        <ele>3.8</ele>
        <time>2021-12-24T07:06:45Z</time>
      </trkpt>
      <trkpt lat="47.15073" lon="-1.72941">
        <ele>4.2</ele>
        <time>2021-12-24T07:06:47Z</time>
      </trkpt>
      <trkpt lat="47.15066" lon="-1.72945">
        <ele>4.6</ele>
        <time>2021-12-24T07:06:49Z</time>
      </trkpt>
      <trkpt lat="47.1506" lon="-1.72948">
        <ele>5</ele>
        <time>2021-12-24T07:06:51Z</time>
      </trkpt>
      <trkpt lat="47.15053" lon="-1.72951">
        <ele>5.4</ele>
        <time>2021-12-24T07:06:53Z</time>
      </trkpt>
      <trkpt lat="47.15047" lon="-1.72954">
        <ele>5.8</ele>
        <time>2021-12-24T07:06:55Z</time>
      </trkpt>
      <trkpt lat="47.15041" lon="-1.72958">
        <ele>6.2</ele>
        <time>2021-12-24T07:06:57Z</time>
      </trkpt>
      <trkpt lat="47.15034" lon="-1.7296">
        <ele>6.8</ele>
        <time>2021-12-24T07:06:59Z</time>
      </trkpt>
      <trkpt lat="47.15031" lon="-1.72961">
        <ele>7</ele>
        <time>2021-12-24T07:07:00Z</time>
      </trkpt>
      <trkpt lat="47.15027" lon="-1.72963">
        <ele>7.2</ele>
        <time>2021-12-24T07:07:01Z</time>
      </trkpt>
      <trkpt lat="47.15021" lon="-1.72967">
        <ele>7.6</ele>
        <time>2021-12-24T07:07:03Z</time>
      </trkpt>
      <trkpt lat="47.15015" lon="-1.7297">
        <ele>8</ele>
        <time>2021-12-24T07:07:05Z</time>
      </trkpt>
      <trkpt lat="47.15008" lon="-1.72974">
        <ele>8.4</ele>
        <time>2021-12-24T07:07:07Z</time>
      </trkpt>
      <trkpt lat="47.15002" lon="-1.72978">
        <ele>8.8</ele>
        <time>2021-12-24T07:07:09Z</time>
      </trkpt>
      <trkpt lat="47.14995" lon="-1.72982">
        <ele>9.2</ele>
        <time>2021-12-24T07:07:11Z</time>
      </trkpt>
      <trkpt lat="47.14991" lon="-1.72985">
        <ele>9.4</ele>
        <time>2021-12-24T07:07:12Z</time>
      </trkpt>
      <trkpt lat="47.14987" lon="-1.72987">
        <ele>9.6</ele>
        <time>2021-12-24T07:07:13Z</time>
      </trkpt>
      <trkpt lat="47.14984" lon="-1.7299">
        <ele>9.8</ele>
        <time>2021-12-24T07:07:14Z</time>
      </trkpt>
      <trkpt lat="47.1498" lon="-1.72993">
        <ele>10</ele>
        <time>2021-12-24T07:07:15Z</time>
      </trkpt>
      <trkpt lat="47.14972" lon="-1.72999">
        <ele>10.4</ele>
        <time>2021-12-24T07:07:17Z</time>
      </trkpt>
      <trkpt lat="47.14965" lon="-1.73005">
        <ele>10.8</ele>
        <time>2021-12-24T07:07:19Z</time>
      </trkpt>
      <trkpt lat="47.14957" lon="-1.73011">
        <ele>11.2</ele>
        <time>2021-12-24T07:07:21Z</time>
      </trkpt>
      <trkpt lat="47.1495" lon="-1.73017">
        <ele>11.6</ele>
        <time>2021-12-24T07:07:23Z</time>
      </trkpt>
      <trkpt lat="47.14942" lon="-1.73023">
        <ele>12</ele>
        <time>2021-12-24T07:07:25Z</time>
      </trkpt>
      <trkpt lat="47.14934" lon="-1.73029">
        <ele>12.4</ele>
        <time>2021-12-24T07:07:27Z</time>
      </trkpt>
      <trkpt lat="47.14927" lon="-1.73036">
        <ele>12.6</ele>
        <time>2021-12-24T07:07:29Z</time>
      </trkpt>
      <trkpt lat="47.14918" lon="-1.73042">
        <ele>13</ele>
        <time>2021-12-24T07:07:31Z</time>
      </trkpt>
      <trkpt lat="47.1491" lon="-1.73049">
        <ele>13.4</ele>
        <time>2021-12-24T07:07:33Z</time>
      </trkpt>
      <trkpt lat="47.14901" lon="-1.73055">
        <ele>13.8</ele>
        <time>2021-12-24T07:07:35Z</time>
      </trkpt>
      <trkpt lat="47.14893" lon="-1.73062">
        <ele>14</ele>
        <time>2021-12-24T07:07:37Z</time>
      </trkpt>
      <trkpt lat="47.14885" lon="-1.73068">
        <ele>14.4</ele>
        <time>2021-12-24T07:07:39Z</time>
      </trkpt>
      <trkpt lat="47.14877" lon="-1.73075">
        <ele>14.8</ele>
        <time>2021-12-24T07:07:41Z</time>
      </trkpt>
      <trkpt lat="47.14872" lon="-1.73079">
        <ele>15</ele>
        <time>2021-12-24T07:07:42Z</time>
      </trkpt>
      <trkpt lat="47.14868" lon="-1.73083">
        <ele>15.2</ele>
        <time>2021-12-24T07:07:43Z</time>
      </trkpt>
      <trkpt lat="47.1486" lon="-1.7309">
        <ele>15.4</ele>
        <time>2021-12-24T07:07:45Z</time>
      </trkpt>
      <trkpt lat="47.14851" lon="-1.73098">
        <ele>15.8</ele>
        <time>2021-12-24T07:07:47Z</time>
      </trkpt>
      <trkpt lat="47.14843" lon="-1.73105">
        <ele>16</ele>
        <time>2021-12-24T07:07:49Z</time>
      </trkpt>
      <trkpt lat="47.14834" lon="-1.73113">
        <ele>16.4</ele>
        <time>2021-12-24T07:07:51Z</time>
      </trkpt>
      <trkpt lat="47.14829" lon="-1.73117">
        <ele>16.6</ele>
        <time>2021-12-24T07:07:52Z</time>
      </trkpt>
      <trkpt lat="47.14825" lon="-1.73121">
        <ele>16.8</ele>
        <time>2021-12-24T07:07:53Z</time>
      </trkpt>
      <trkpt lat="47.14816" lon="-1.73129">
        <ele>17</ele>
        <time>2021-12-24T07:07:55Z</time>
      </trkpt>
      <trkpt lat="47.14807" lon="-1.73137">
        <ele>17.2</ele>
        <time>2021-12-24T07:07:57Z</time>
      </trkpt>
      <trkpt lat="47.14797" lon="-1.73146">
        <ele>17.4</ele>
        <time>2021-12-24T07:07:59Z</time>
      </trkpt>
      <trkpt lat="47.14788" lon="-1.73154">
        <ele>17.6</ele>
        <time>2021-12-24T07:08:01Z</time>
      </trkpt>
      <trkpt lat="47.14778" lon="-1.73163">
        <ele>18</ele>
        <time>2021-12-24T07:08:03Z</time>
      </trkpt>
      <trkpt lat="47.14768" lon="-1.73172">
        <ele>18.2</ele>
        <time>2021-12-24T07:08:05Z</time>
      </trkpt>
      <trkpt lat="47.14758" lon="-1.73181">
        <ele>18.4</ele>
        <time>2021-12-24T07:08:07Z</time>
      </trkpt>
      <trkpt lat="47.14748" lon="-1.7319">
        <ele>18.6</ele>
        <time>2021-12-24T07:08:09Z</time>
      </trkpt>
      <trkpt lat="47.14737" lon="-1.73198">
        <ele>18.8</ele>
        <time>2021-12-24T07:08:11Z</time>
      </trkpt>
      <trkpt lat="47.14731" lon="-1.73203">
        <ele>18.8</ele>
        <time>2021-12-24T07:08:12Z</time>
      </trkpt>
      <trkpt lat="47.14726" lon="-1.73207">
        <ele>19</ele>
        <time>2021-12-24T07:08:13Z</time>
      </trkpt>
      <trkpt lat="47.14714" lon="-1.73218">
        <ele>19</ele>
        <time>2021-12-24T07:08:15Z</time>
      </trkpt>
      <trkpt lat="47.14702" lon="-1.73229">
        <ele>19.2</ele>
        <time>2021-12-24T07:08:17Z</time>
      </trkpt>
      <trkpt lat="47.14691" lon="-1.73241">
        <ele>19.4</ele>
        <time>2021-12-24T07:08:19Z</time>
      </trkpt>
      <trkpt lat="47.14681" lon="-1.73255">
        <ele>19.6</ele>
        <time>2021-12-24T07:08:21Z</time>
      </trkpt>
      <trkpt lat="47.14671" lon="-1.73268">
        <ele>19.6</ele>
        <time>2021-12-24T07:08:23Z</time>
      </trkpt>
      <trkpt lat="47.14662" lon="-1.73281">
        <ele>19.8</ele>
        <time>2021-12-24T07:08:25Z</time>
      </trkpt>
      <trkpt lat="47.14657" lon="-1.73287">
        <ele>20</ele>
        <time>2021-12-24T07:08:26Z</time>
      </trkpt>
      <trkpt lat="47.14652" lon="-1.73293">
        <ele>20</ele>
        <time>2021-12-24T07:08:27Z</time>
      </trkpt>
      <trkpt lat="47.14642" lon="-1.73304">
        <ele>20.2</ele>
        <time>2021-12-24T07:08:29Z</time>
      </trkpt>
      <trkpt lat="47.14631" lon="-1.73314">
        <ele>20.4</ele>
        <time>2021-12-24T07:08:31Z</time>
      </trkpt>
      <trkpt lat="47.1462" lon="-1.73324">
        <ele>20.4</ele>
        <time>2021-12-24T07:08:33Z</time>
      </trkpt>
      <trkpt lat="47.14608" lon="-1.73333">
        <ele>20.6</ele>
        <time>2021-12-24T07:08:35Z</time>
      </trkpt>
      <trkpt lat="47.14596" lon="-1.73342">
        <ele>20.8</ele>
        <time>2021-12-24T07:08:37Z</time>
      </trkpt>
      <trkpt lat="47.14584" lon="-1.73351">
        <ele>20.8</ele>
        <time>2021-12-24T07:08:39Z</time>
      </trkpt>
      <trkpt lat="47.14572" lon="-1.73361">
        <ele>21</ele>
        <time>2021-12-24T07:08:41Z</time>
      </trkpt>
      <trkpt lat="47.14561" lon="-1.73371">
        <ele>21</ele>
        <time>2021-12-24T07:08:43Z</time>
      </trkpt>
      <trkpt lat="47.14549" lon="-1.73382">
        <ele>21</ele>
        <time>2021-12-24T07:08:45Z</time>
      </trkpt>
      <trkpt lat="47.14538" lon="-1.73393">
        <ele>21</ele>
        <time>2021-12-24T07:08:47Z</time>
      </trkpt>
      <trkpt lat="47.14526" lon="-1.73405">
        <ele>21.2</ele>
        <time>2021-12-24T07:08:49Z</time>
      </trkpt>
      <trkpt lat="47.14515" lon="-1.73417">
        <ele>21.2</ele>
        <time>2021-12-24T07:08:51Z</time>
      </trkpt>
      <trkpt lat="47.14505" lon="-1.7343">
        <ele>21.4</ele>
        <time>2021-12-24T07:08:53Z</time>
      </trkpt>
      <trkpt lat="47.14496" lon="-1.73443">
        <ele>21.4</ele>
        <time>2021-12-24T07:08:55Z</time>
      </trkpt>
      <trkpt lat="47.14491" lon="-1.7345">
        <ele>21.4</ele>
        <time>2021-12-24T07:08:56Z</time>
      </trkpt>
      <trkpt lat="47.14486" lon="-1.73457">
        <ele>21.4</ele>
        <time>2021-12-24T07:08:57Z</time>
      </trkpt>
      <trkpt lat="47.14477" lon="-1.73471">
        <ele>21.6</ele>
        <time>2021-12-24T07:08:59Z</time>
      </trkpt>
      <trkpt lat="47.14468" lon="-1.73485">
        <ele>21.6</ele>
        <time>2021-12-24T07:09:01Z</time>
      </trkpt>
      <trkpt lat="47.1446" lon="-1.735">
        <ele>21.6</ele>
        <time>2021-12-24T07:09:03Z</time>
      </trkpt>
      <trkpt lat="47.14452" lon="-1.73515">
        <ele>21.8</ele>
        <time>2021-12-24T07:09:05Z</time>
      </trkpt>
      <trkpt lat="47.14444" lon="-1.7353">
        <ele>21.8</ele>
        <time>2021-12-24T07:09:07Z</time>
      </trkpt>
      <trkpt lat="47.14436" lon="-1.73545">
        <ele>22</ele>
        <time>2021-12-24T07:09:09Z</time>
      </trkpt>
      <trkpt lat="47.14428" lon="-1.7356">
        <ele>22.2</ele>
        <time>2021-12-24T07:09:11Z</time>
      </trkpt>
      <trkpt lat="47.1442" lon="-1.73575">
        <ele>22.2</ele>
        <time>2021-12-24T07:09:13Z</time>
      </trkpt>
      <trkpt lat="47.14416" lon="-1.73582">
        <ele>22.2</ele>
        <time>2021-12-24T07:09:14Z</time>
      </trkpt>
      <trkpt lat="47.14412" lon="-1.73589">
        <ele>22.4</ele>
        <time>2021-12-24T07:09:15Z</time>
      </trkpt>
      <trkpt lat="47.14403" lon="-1.73604">
        <ele>22.4</ele>
        <time>2021-12-24T07:09:17Z</time>
      </trkpt>
      <trkpt lat="47.14395" lon="-1.73619">
        <ele>22.6</ele>
        <time>2021-12-24T07:09:19Z</time>
      </trkpt>
      <trkpt lat="47.14386" lon="-1.73634">
        <ele>22.6</ele>
        <time>2021-12-24T07:09:21Z</time>
      </trkpt>
      <trkpt lat="47.14377" lon="-1.73648">
        <ele>22.6</ele>
        <time>2021-12-24T07:09:23Z</time>
      </trkpt>
      <trkpt lat="47.14367" lon="-1.73662">
        <ele>22.8</ele>
        <time>2021-12-24T07:09:25Z</time>
      </trkpt>
      <trkpt lat="47.14355" lon="-1.73675">
        <ele>22.8</ele>
        <time>2021-12-24T07:09:27Z</time>
      </trkpt>
      <trkpt lat="47.14349" lon="-1.73681">
        <ele>22.6</ele>
        <time>2021-12-24T07:09:28Z</time>
      </trkpt>
      <trkpt lat="47.14342" lon="-1.73687">
        <ele>22.6</ele>
        <time>2021-12-24T07:09:29Z</time>
      </trkpt>
      <trkpt lat="47.14329" lon="-1.73699">
        <ele>22.6</ele>
        <time>2021-12-24T07:09:31Z</time>
      </trkpt>
      <trkpt lat="47.14314" lon="-1.73709">
        <ele>22.4</ele>
        <time>2021-12-24T07:09:33Z</time>
      </trkpt>
      <trkpt lat="47.143" lon="-1.73719">
        <ele>22.4</ele>
        <time>2021-12-24T07:09:35Z</time>
      </trkpt>
      <trkpt lat="47.14287" lon="-1.7373">
        <ele>22.6</ele>
        <time>2021-12-24T07:09:37Z</time>
      </trkpt>
      <trkpt lat="47.14273" lon="-1.73741">
        <ele>22.2</ele>
        <time>2021-12-24T07:09:39Z</time>
      </trkpt>
      <trkpt lat="47.1426" lon="-1.73752">
        <ele>22.2</ele>
        <time>2021-12-24T07:09:41Z</time>
      </trkpt>
      <trkpt lat="47.14246" lon="-1.73763">
        <ele>22.2</ele>
        <time>2021-12-24T07:09:43Z</time>
      </trkpt>
      <trkpt lat="47.14233" lon="-1.73773">
        <ele>22.2</ele>
        <time>2021-12-24T07:09:45Z</time>
      </trkpt>
      <trkpt lat="47.1422" lon="-1.73785">
        <ele>22</ele>
        <time>2021-12-24T07:09:47Z</time>
      </trkpt>
      <trkpt lat="47.14208" lon="-1.73797">
        <ele>22</ele>
        <time>2021-12-24T07:09:49Z</time>
      </trkpt>
      <trkpt lat="47.14196" lon="-1.7381">
        <ele>22</ele>
        <time>2021-12-24T07:09:51Z</time>
      </trkpt>
      <trkpt lat="47.14183" lon="-1.73822">
        <ele>22</ele>
        <time>2021-12-24T07:09:53Z</time>
      </trkpt>
      <trkpt lat="47.1417" lon="-1.73834">
        <ele>21.8</ele>
        <time>2021-12-24T07:09:55Z</time>
      </trkpt>
      <trkpt lat="47.14158" lon="-1.73846">
        <ele>21.8</ele>
        <time>2021-12-24T07:09:57Z</time>
      </trkpt>
      <trkpt lat="47.14151" lon="-1.73852">
        <ele>21.8</ele>
        <time>2021-12-24T07:09:58Z</time>
      </trkpt>
      <trkpt lat="47.14145" lon="-1.73859">
        <ele>21.8</ele>
        <time>2021-12-24T07:09:59Z</time>
      </trkpt>
      <trkpt lat="47.14133" lon="-1.73871">
        <ele>21.8</ele>
        <time>2021-12-24T07:10:01Z</time>
      </trkpt>
      <trkpt lat="47.14121" lon="-1.73883">
        <ele>21.8</ele>
        <time>2021-12-24T07:10:03Z</time>
      </trkpt>
      <trkpt lat="47.14108" lon="-1.73895">
        <ele>21.6</ele>
        <time>2021-12-24T07:10:05Z</time>
      </trkpt>
      <trkpt lat="47.14097" lon="-1.73908">
        <ele>21.6</ele>
        <time>2021-12-24T07:10:07Z</time>
      </trkpt>
      <trkpt lat="47.14091" lon="-1.73913">
        <ele>21.6</ele>
        <time>2021-12-24T07:10:08Z</time>
      </trkpt>
      <trkpt lat="47.14085" lon="-1.73919">
        <ele>21.4</ele>
        <time>2021-12-24T07:10:09Z</time>
      </trkpt>
      <trkpt lat="47.14073" lon="-1.73931">
        <ele>21.4</ele>
        <time>2021-12-24T07:10:11Z</time>
      </trkpt>
      <trkpt lat="47.14062" lon="-1.73941">
        <ele>21.2</ele>
        <time>2021-12-24T07:10:13Z</time>
      </trkpt>
      <trkpt lat="47.14049" lon="-1.73951">
        <ele>21</ele>
        <time>2021-12-24T07:10:15Z</time>
      </trkpt>
      <trkpt lat="47.14038" lon="-1.73962">
        <ele>21</ele>
        <time>2021-12-24T07:10:17Z</time>
      </trkpt>
      <trkpt lat="47.14026" lon="-1.73972">
        <ele>20.8</ele>
        <time>2021-12-24T07:10:19Z</time>
      </trkpt>
      <trkpt lat="47.14014" lon="-1.73982">
        <ele>20.8</ele>
        <time>2021-12-24T07:10:21Z</time>
      </trkpt>
      <trkpt lat="47.14002" lon="-1.73992">
        <ele>20.6</ele>
        <time>2021-12-24T07:10:23Z</time>
      </trkpt>
      <trkpt lat="47.1399" lon="-1.74003">
        <ele>20.6</ele>
        <time>2021-12-24T07:10:25Z</time>
      </trkpt>
      <trkpt lat="47.13978" lon="-1.74014">
        <ele>20.6</ele>
        <time>2021-12-24T07:10:27Z</time>
      </trkpt>
      <trkpt lat="47.13967" lon="-1.74027">
        <ele>20.6</ele>
        <time>2021-12-24T07:10:29Z</time>
      </trkpt>
      <trkpt lat="47.13956" lon="-1.74041">
        <ele>20.6</ele>
        <time>2021-12-24T07:10:31Z</time>
      </trkpt>
      <trkpt lat="47.13951" lon="-1.74048">
        <ele>20.6</ele>
        <time>2021-12-24T07:10:32Z</time>
      </trkpt>
      <trkpt lat="47.13946" lon="-1.74056">
        <ele>20.6</ele>
        <time>2021-12-24T07:10:33Z</time>
      </trkpt>
      <trkpt lat="47.13937" lon="-1.74073">
        <ele>20.6</ele>
        <time>2021-12-24T07:10:35Z</time>
      </trkpt>
      <trkpt lat="47.13927" lon="-1.7409">
        <ele>20.4</ele>
        <time>2021-12-24T07:10:37Z</time>
      </trkpt>
      <trkpt lat="47.13917" lon="-1.74105">
        <ele>20.4</ele>
        <time>2021-12-24T07:10:39Z</time>
      </trkpt>
      <trkpt lat="47.13905" lon="-1.7412">
        <ele>20.2</ele>
        <time>2021-12-24T07:10:41Z</time>
      </trkpt>
      <trkpt lat="47.13893" lon="-1.74135">
        <ele>20</ele>
        <time>2021-12-24T07:10:43Z</time>
      </trkpt>
      <trkpt lat="47.1388" lon="-1.74149">
        <ele>19.8</ele>
        <time>2021-12-24T07:10:45Z</time>
      </trkpt>
      <trkpt lat="47.13874" lon="-1.74156">
        <ele>19.8</ele>
        <time>2021-12-24T07:10:46Z</time>
      </trkpt>
      <trkpt lat="47.13867" lon="-1.74164">
        <ele>19.6</ele>
        <time>2021-12-24T07:10:47Z</time>
      </trkpt>
      <trkpt lat="47.13853" lon="-1.74178">
        <ele>19.6</ele>
        <time>2021-12-24T07:10:49Z</time>
      </trkpt>
      <trkpt lat="47.13841" lon="-1.74193">
        <ele>19.4</ele>
        <time>2021-12-24T07:10:51Z</time>
      </trkpt>
      <trkpt lat="47.13828" lon="-1.74209">
        <ele>19.2</ele>
        <time>2021-12-24T07:10:53Z</time>
      </trkpt>
      <trkpt lat="47.13823" lon="-1.74218">
        <ele>19.2</ele>
        <time>2021-12-24T07:10:54Z</time>
      </trkpt>
      <trkpt lat="47.13817" lon="-1.74226">
        <ele>19</ele>
        <time>2021-12-24T07:10:55Z</time>
      </trkpt>
      <trkpt lat="47.13805" lon="-1.74244">
        <ele>18.6</ele>
        <time>2021-12-24T07:10:57Z</time>
      </trkpt>
      <trkpt lat="47.13793" lon="-1.74263">
        <ele>18.4</ele>
        <time>2021-12-24T07:10:59Z</time>
      </trkpt>
      <trkpt lat="47.13788" lon="-1.74273">
        <ele>18.2</ele>
        <time>2021-12-24T07:11:00Z</time>
      </trkpt>
      <trkpt lat="47.13782" lon="-1.74283">
        <ele>18</ele>
        <time>2021-12-24T07:11:01Z</time>
      </trkpt>
      <trkpt lat="47.13771" lon="-1.74304">
        <ele>17.8</ele>
        <time>2021-12-24T07:11:03Z</time>
      </trkpt>
      <trkpt lat="47.1376" lon="-1.74324">
        <ele>17.4</ele>
        <time>2021-12-24T07:11:05Z</time>
      </trkpt>
      <trkpt lat="47.13748" lon="-1.74345">
        <ele>17</ele>
        <time>2021-12-24T07:11:07Z</time>
      </trkpt>
      <trkpt lat="47.13743" lon="-1.74356">
        <ele>16.8</ele>
        <time>2021-12-24T07:11:08Z</time>
      </trkpt>
      <trkpt lat="47.13738" lon="-1.74367">
        <ele>16.6</ele>
        <time>2021-12-24T07:11:09Z</time>
      </trkpt>
      <trkpt lat="47.13727" lon="-1.74388">
        <ele>16</ele>
        <time>2021-12-24T07:11:11Z</time>
      </trkpt>
      <trkpt lat="47.13718" lon="-1.74412">
        <ele>15.8</ele>
        <time>2021-12-24T07:11:13Z</time>
      </trkpt>
      <trkpt lat="47.13709" lon="-1.74431">
        <ele>15.4</ele>
        <time>2021-12-24T07:11:15Z</time>
      </trkpt>
      <trkpt lat="47.13702" lon="-1.74445">
        <ele>15</ele>
        <time>2021-12-24T07:11:17Z</time>
      </trkpt>
      <trkpt lat="47.13694" lon="-1.74456">
        <ele>14.8</ele>
        <time>2021-12-24T07:11:19Z</time>
      </trkpt>
      <trkpt lat="47.13685" lon="-1.7447">
        <ele>14.4</ele>
        <time>2021-12-24T07:11:21Z</time>
      </trkpt>
      <trkpt lat="47.13674" lon="-1.74483">
        <ele>14</ele>
        <time>2021-12-24T07:11:23Z</time>
      </trkpt>
      <trkpt lat="47.13668" lon="-1.74489">
        <ele>13.8</ele>
        <time>2021-12-24T07:11:24Z</time>
      </trkpt>
      <trkpt lat="47.13662" lon="-1.74496">
        <ele>13.6</ele>
        <time>2021-12-24T07:11:25Z</time>
      </trkpt>
      <trkpt lat="47.13649" lon="-1.74508">
        <ele>13.2</ele>
        <time>2021-12-24T07:11:27Z</time>
      </trkpt>
      <trkpt lat="47.13638" lon="-1.74519">
        <ele>12.8</ele>
        <time>2021-12-24T07:11:29Z</time>
      </trkpt>
      <trkpt lat="47.13626" lon="-1.7453">
        <ele>12.6</ele>
        <time>2021-12-24T07:11:31Z</time>
      </trkpt>
      <trkpt lat="47.13614" lon="-1.74542">
        <ele>12.2</ele>
        <time>2021-12-24T07:11:33Z</time>
      </trkpt>
      <trkpt lat="47.13602" lon="-1.74556">
        <ele>11.6</ele>
        <time>2021-12-24T07:11:35Z</time>
      </trkpt>
      <trkpt lat="47.13589" lon="-1.74571">
        <ele>11</ele>
        <time>2021-12-24T07:11:37Z</time>
      </trkpt>
      <trkpt lat="47.13574" lon="-1.74586">
        <ele>10.2</ele>
        <time>2021-12-24T07:11:39Z</time>
      </trkpt>
      <trkpt lat="47.13558" lon="-1.74601">
        <ele>9.4</ele>
        <time>2021-12-24T07:11:41Z</time>
      </trkpt>
      <trkpt lat="47.13543" lon="-1.74615">
        <ele>9</ele>
        <time>2021-12-24T07:11:43Z</time>
      </trkpt>
      <trkpt lat="47.13528" lon="-1.74628">
        <ele>8.4</ele>
        <time>2021-12-24T07:11:45Z</time>
      </trkpt>
      <trkpt lat="47.13516" lon="-1.74641">
        <ele>7.8</ele>
        <time>2021-12-24T07:11:47Z</time>
      </trkpt>
      <trkpt lat="47.13502" lon="-1.74653">
        <ele>7.4</ele>
        <time>2021-12-24T07:11:49Z</time>
      </trkpt>
      <trkpt lat="47.13497" lon="-1.7466">
        <ele>7</ele>
        <time>2021-12-24T07:11:50Z</time>
      </trkpt>
      <trkpt lat="47.13492" lon="-1.74667">
        <ele>6.8</ele>
        <time>2021-12-24T07:11:51Z</time>
      </trkpt>
      <trkpt lat="47.13489" lon="-1.74673">
        <ele>6.6</ele>
        <time>2021-12-24T07:11:52Z</time>
      </trkpt>
      <trkpt lat="47.13485" lon="-1.74679">
        <ele>6.4</ele>
        <time>2021-12-24T07:11:53Z</time>
      </trkpt>
      <trkpt lat="47.13484" lon="-1.74685">
        <ele>6.4</ele>
        <time>2021-12-24T07:11:54Z</time>
      </trkpt>
      <trkpt lat="47.13485" lon="-1.7469">
        <ele>6.4</ele>
        <time>2021-12-24T07:11:55Z</time>
      </trkpt>
      <trkpt lat="47.13484" lon="-1.74696">
        <ele>6.4</ele>
        <time>2021-12-24T07:11:56Z</time>
      </trkpt>
      <trkpt lat="47.13482" lon="-1.747">
        <ele>6.4</ele>
        <time>2021-12-24T07:11:57Z</time>
      </trkpt>
      <trkpt lat="47.13478" lon="-1.74709">
        <ele>6.4</ele>
        <time>2021-12-24T07:11:59Z</time>
      </trkpt>
      <trkpt lat="47.13473" lon="-1.74717">
        <ele>6.6</ele>
        <time>2021-12-24T07:12:01Z</time>
      </trkpt>
      <trkpt lat="47.13468" lon="-1.74724">
        <ele>6.4</ele>
        <time>2021-12-24T07:12:03Z</time>
      </trkpt>
      <trkpt lat="47.13462" lon="-1.74731">
        <ele>6.4</ele>
        <time>2021-12-24T07:12:05Z</time>
      </trkpt>
      <trkpt lat="47.13458" lon="-1.74733">
        <ele>6.4</ele>
        <time>2021-12-24T07:12:06Z</time>
      </trkpt>
      <trkpt lat="47.13456" lon="-1.74737">
        <ele>6.4</ele>
        <time>2021-12-24T07:12:07Z</time>
      </trkpt>
      <trkpt lat="47.13451" lon="-1.74744">
        <ele>6.4</ele>
        <time>2021-12-24T07:12:09Z</time>
      </trkpt>
      <trkpt lat="47.13446" lon="-1.74751">
        <ele>6.4</ele>
        <time>2021-12-24T07:12:11Z</time>
      </trkpt>
      <trkpt lat="47.1344" lon="-1.74757">
        <ele>6.4</ele>
        <time>2021-12-24T07:12:13Z</time>
      </trkpt>
      <trkpt lat="47.13436" lon="-1.74761">
        <ele>6.2</ele>
        <time>2021-12-24T07:12:14Z</time>
      </trkpt>
      <trkpt lat="47.13433" lon="-1.74764">
        <ele>6.2</ele>
        <time>2021-12-24T07:12:15Z</time>
      </trkpt>
      <trkpt lat="47.13427" lon="-1.74771">
        <ele>6.2</ele>
        <time>2021-12-24T07:12:17Z</time>
      </trkpt>
      <trkpt lat="47.13423" lon="-1.74774">
        <ele>6</ele>
        <time>2021-12-24T07:12:18Z</time>
      </trkpt>
      <trkpt lat="47.13419" lon="-1.74777">
        <ele>6.2</ele>
        <time>2021-12-24T07:12:19Z</time>
      </trkpt>
      <trkpt lat="47.13412" lon="-1.74784">
        <ele>6.2</ele>
        <time>2021-12-24T07:12:21Z</time>
      </trkpt>
      <trkpt lat="47.13405" lon="-1.74792">
        <ele>6.2</ele>
        <time>2021-12-24T07:12:23Z</time>
      </trkpt>
      <trkpt lat="47.13402" lon="-1.74794">
        <ele>6.2</ele>
        <time>2021-12-24T07:12:24Z</time>
      </trkpt>
      <trkpt lat="47.13398" lon="-1.74796">
        <ele>6</ele>
        <time>2021-12-24T07:12:25Z</time>
      </trkpt>
      <trkpt lat="47.13389" lon="-1.74796">
        <ele>6.6</ele>
        <time>2021-12-24T07:12:27Z</time>
      </trkpt>
      <trkpt lat="47.13384" lon="-1.74795">
        <ele>6.4</ele>
        <time>2021-12-24T07:12:28Z</time>
      </trkpt>
      <trkpt lat="47.1338" lon="-1.74795">
        <ele>6.6</ele>
        <time>2021-12-24T07:12:29Z</time>
      </trkpt>
      <trkpt lat="47.13375" lon="-1.74795">
        <ele>6.6</ele>
        <time>2021-12-24T07:12:30Z</time>
      </trkpt>
      <trkpt lat="47.13371" lon="-1.74795">
        <ele>6.6</ele>
        <time>2021-12-24T07:12:31Z</time>
      </trkpt>
      <trkpt lat="47.13362" lon="-1.74795">
        <ele>6.6</ele>
        <time>2021-12-24T07:12:33Z</time>
      </trkpt>
      <trkpt lat="47.13357" lon="-1.74795">
        <ele>6.8</ele>
        <time>2021-12-24T07:12:34Z</time>
      </trkpt>
      <trkpt lat="47.13352" lon="-1.74795">
        <ele>6.8</ele>
        <time>2021-12-24T07:12:35Z</time>
      </trkpt>
      <trkpt lat="47.13342" lon="-1.74796">
        <ele>6.8</ele>
        <time>2021-12-24T07:12:37Z</time>
      </trkpt>
      <trkpt lat="47.13333" lon="-1.74797">
        <ele>7</ele>
        <time>2021-12-24T07:12:39Z</time>
      </trkpt>
      <trkpt lat="47.13328" lon="-1.74798">
        <ele>7</ele>
        <time>2021-12-24T07:12:40Z</time>
      </trkpt>
      <trkpt lat="47.13323" lon="-1.74798">
        <ele>7.2</ele>
        <time>2021-12-24T07:12:41Z</time>
      </trkpt>
      <trkpt lat="47.13314" lon="-1.74799">
        <ele>7.2</ele>
        <time>2021-12-24T07:12:43Z</time>
      </trkpt>
      <trkpt lat="47.13305" lon="-1.748">
        <ele>7.4</ele>
        <time>2021-12-24T07:12:45Z</time>
      </trkpt>
      <trkpt lat="47.13301" lon="-1.748">
        <ele>7.4</ele>
        <time>2021-12-24T07:12:46Z</time>
      </trkpt>
      <trkpt lat="47.13296" lon="-1.74801">
        <ele>7.6</ele>
        <time>2021-12-24T07:12:47Z</time>
      </trkpt>
      <trkpt lat="47.13287" lon="-1.74804">
        <ele>7.8</ele>
        <time>2021-12-24T07:12:49Z</time>
      </trkpt>
      <trkpt lat="47.13279" lon="-1.74807">
        <ele>8</ele>
        <time>2021-12-24T07:12:51Z</time>
      </trkpt>
      <trkpt lat="47.13271" lon="-1.74811">
        <ele>8</ele>
        <time>2021-12-24T07:12:53Z</time>
      </trkpt>
      <trkpt lat="47.13266" lon="-1.74812">
        <ele>8.2</ele>
        <time>2021-12-24T07:12:54Z</time>
      </trkpt>
      <trkpt lat="47.13262" lon="-1.74814">
        <ele>8.2</ele>
        <time>2021-12-24T07:12:55Z</time>
      </trkpt>
      <trkpt lat="47.13253" lon="-1.74816">
        <ele>8.6</ele>
        <time>2021-12-24T07:12:57Z</time>
      </trkpt>
      <trkpt lat="47.13249" lon="-1.74816">
        <ele>8.6</ele>
        <time>2021-12-24T07:12:58Z</time>
      </trkpt>
      <trkpt lat="47.13245" lon="-1.74817">
        <ele>8.6</ele>
        <time>2021-12-24T07:12:59Z</time>
      </trkpt>
      <trkpt lat="47.13236" lon="-1.74818">
        <ele>8.8</ele>
        <time>2021-12-24T07:13:01Z</time>
      </trkpt>
      <trkpt lat="47.13228" lon="-1.74818">
        <ele>9</ele>
        <time>2021-12-24T07:13:03Z</time>
      </trkpt>
      <trkpt lat="47.13219" lon="-1.74817">
        <ele>9.2</ele>
        <time>2021-12-24T07:13:05Z</time>
      </trkpt>
      <trkpt lat="47.1321" lon="-1.74817">
        <ele>9.4</ele>
        <time>2021-12-24T07:13:07Z</time>
      </trkpt>
      <trkpt lat="47.13201" lon="-1.74818">
        <ele>9.4</ele>
        <time>2021-12-24T07:13:09Z</time>
      </trkpt>
      <trkpt lat="47.13193" lon="-1.74818">
        <ele>9.6</ele>
        <time>2021-12-24T07:13:11Z</time>
      </trkpt>
      <trkpt lat="47.13184" lon="-1.74819">
        <ele>9.8</ele>
        <time>2021-12-24T07:13:13Z</time>
      </trkpt>
      <trkpt lat="47.1318" lon="-1.74819">
        <ele>9.8</ele>
        <time>2021-12-24T07:13:14Z</time>
      </trkpt>
      <trkpt lat="47.13176" lon="-1.74815">
        <ele>9.8</ele>
        <time>2021-12-24T07:13:15Z</time>
      </trkpt>
      <trkpt lat="47.13172" lon="-1.7481">
        <ele>9.8</ele>
        <time>2021-12-24T07:13:16Z</time>
      </trkpt>
      <trkpt lat="47.13169" lon="-1.74804">
        <ele>10</ele>
        <time>2021-12-24T07:13:17Z</time>
      </trkpt>
      <trkpt lat="47.13162" lon="-1.74793">
        <ele>10</ele>
        <time>2021-12-24T07:13:19Z</time>
      </trkpt>
      <trkpt lat="47.13154" lon="-1.74782">
        <ele>10</ele>
        <time>2021-12-24T07:13:21Z</time>
      </trkpt>
      <trkpt lat="47.13148" lon="-1.74776">
        <ele>10</ele>
        <time>2021-12-24T07:13:22Z</time>
      </trkpt>
      <trkpt lat="47.13143" lon="-1.7477">
        <ele>10</ele>
        <time>2021-12-24T07:13:23Z</time>
      </trkpt>
      <trkpt lat="47.13132" lon="-1.74758">
        <ele>10.2</ele>
        <time>2021-12-24T07:13:25Z</time>
      </trkpt>
      <trkpt lat="47.13119" lon="-1.74745">
        <ele>10.2</ele>
        <time>2021-12-24T07:13:27Z</time>
      </trkpt>
      <trkpt lat="47.13104" lon="-1.74732">
        <ele>10.2</ele>
        <time>2021-12-24T07:13:29Z</time>
      </trkpt>
      <trkpt lat="47.13091" lon="-1.74721">
        <ele>10.2</ele>
        <time>2021-12-24T07:13:31Z</time>
      </trkpt>
      <trkpt lat="47.13078" lon="-1.74711">
        <ele>10.4</ele>
        <time>2021-12-24T07:13:33Z</time>
      </trkpt>
      <trkpt lat="47.13066" lon="-1.74702">
        <ele>10.4</ele>
        <time>2021-12-24T07:13:35Z</time>
      </trkpt>
      <trkpt lat="47.13055" lon="-1.74692">
        <ele>10.6</ele>
        <time>2021-12-24T07:13:37Z</time>
      </trkpt>
      <trkpt lat="47.1305" lon="-1.74688">
        <ele>10.6</ele>
        <time>2021-12-24T07:13:38Z</time>
      </trkpt>
      <trkpt lat="47.13044" lon="-1.74684">
        <ele>10.8</ele>
        <time>2021-12-24T07:13:39Z</time>
      </trkpt>
      <trkpt lat="47.13034" lon="-1.74675">
        <ele>11</ele>
        <time>2021-12-24T07:13:41Z</time>
      </trkpt>
      <trkpt lat="47.13023" lon="-1.74667">
        <ele>11</ele>
        <time>2021-12-24T07:13:43Z</time>
      </trkpt>
      <trkpt lat="47.13012" lon="-1.74658">
        <ele>11.2</ele>
        <time>2021-12-24T07:13:45Z</time>
      </trkpt>
      <trkpt lat="47.13001" lon="-1.7465">
        <ele>11.4</ele>
        <time>2021-12-24T07:13:47Z</time>
      </trkpt>
      <trkpt lat="47.1299" lon="-1.74641">
        <ele>11.4</ele>
        <time>2021-12-24T07:13:49Z</time>
      </trkpt>
      <trkpt lat="47.12979" lon="-1.74631">
        <ele>11.4</ele>
        <time>2021-12-24T07:13:51Z</time>
      </trkpt>
      <trkpt lat="47.12972" lon="-1.74625">
        <ele>11.4</ele>
        <time>2021-12-24T07:13:52Z</time>
      </trkpt>
      <trkpt lat="47.12966" lon="-1.7462">
        <ele>11.4</ele>
        <time>2021-12-24T07:13:53Z</time>
      </trkpt>
      <trkpt lat="47.12954" lon="-1.74609">
        <ele>11.6</ele>
        <time>2021-12-24T07:13:55Z</time>
      </trkpt>
      <trkpt lat="47.12942" lon="-1.74597">
        <ele>11.6</ele>
        <time>2021-12-24T07:13:57Z</time>
      </trkpt>
      <trkpt lat="47.12932" lon="-1.74584">
        <ele>11.6</ele>
        <time>2021-12-24T07:13:59Z</time>
      </trkpt>
      <trkpt lat="47.12922" lon="-1.7457">
        <ele>11.6</ele>
        <time>2021-12-24T07:14:01Z</time>
      </trkpt>
      <trkpt lat="47.12914" lon="-1.74556">
        <ele>11.8</ele>
        <time>2021-12-24T07:14:03Z</time>
      </trkpt>
      <trkpt lat="47.12906" lon="-1.74541">
        <ele>11.8</ele>
        <time>2021-12-24T07:14:05Z</time>
      </trkpt>
      <trkpt lat="47.12899" lon="-1.74527">
        <ele>12</ele>
        <time>2021-12-24T07:14:07Z</time>
      </trkpt>
      <trkpt lat="47.12893" lon="-1.74513">
        <ele>12</ele>
        <time>2021-12-24T07:14:09Z</time>
      </trkpt>
      <trkpt lat="47.12888" lon="-1.74499">
        <ele>12.2</ele>
        <time>2021-12-24T07:14:11Z</time>
      </trkpt>
      <trkpt lat="47.12885" lon="-1.74492">
        <ele>12.2</ele>
        <time>2021-12-24T07:14:12Z</time>
      </trkpt>
      <trkpt lat="47.12883" lon="-1.74485">
        <ele>12.4</ele>
        <time>2021-12-24T07:14:13Z</time>
      </trkpt>
      <trkpt lat="47.12878" lon="-1.74471">
        <ele>12.4</ele>
        <time>2021-12-24T07:14:15Z</time>
      </trkpt>
      <trkpt lat="47.12873" lon="-1.74457">
        <ele>12.4</ele>
        <time>2021-12-24T07:14:17Z</time>
      </trkpt>
      <trkpt lat="47.12867" lon="-1.74443">
        <ele>12.6</ele>
        <time>2021-12-24T07:14:19Z</time>
      </trkpt>
      <trkpt lat="47.12861" lon="-1.7443">
        <ele>12.6</ele>
        <time>2021-12-24T07:14:21Z</time>
      </trkpt>
      <trkpt lat="47.12856" lon="-1.74417">
        <ele>12.6</ele>
        <time>2021-12-24T07:14:23Z</time>
      </trkpt>
      <trkpt lat="47.1285" lon="-1.74403">
        <ele>12.8</ele>
        <time>2021-12-24T07:14:25Z</time>
      </trkpt>
      <trkpt lat="47.12843" lon="-1.74391">
        <ele>12.8</ele>
        <time>2021-12-24T07:14:27Z</time>
      </trkpt>
      <trkpt lat="47.12839" lon="-1.74385">
        <ele>13</ele>
        <time>2021-12-24T07:14:28Z</time>
      </trkpt>
      <trkpt lat="47.12835" lon="-1.74379">
        <ele>13</ele>
        <time>2021-12-24T07:14:29Z</time>
      </trkpt>
      <trkpt lat="47.12828" lon="-1.74367">
        <ele>13</ele>
        <time>2021-12-24T07:14:31Z</time>
      </trkpt>
      <trkpt lat="47.1282" lon="-1.74355">
        <ele>13</ele>
        <time>2021-12-24T07:14:33Z</time>
      </trkpt>
      <trkpt lat="47.12812" lon="-1.74343">
        <ele>13.2</ele>
        <time>2021-12-24T07:14:35Z</time>
      </trkpt>
      <trkpt lat="47.12803" lon="-1.74331">
        <ele>13.2</ele>
        <time>2021-12-24T07:14:37Z</time>
      </trkpt>
      <trkpt lat="47.12795" lon="-1.74319">
        <ele>13.2</ele>
        <time>2021-12-24T07:14:39Z</time>
      </trkpt>
      <trkpt lat="47.12787" lon="-1.74307">
        <ele>13.4</ele>
        <time>2021-12-24T07:14:41Z</time>
      </trkpt>
      <trkpt lat="47.12779" lon="-1.74295">
        <ele>13.4</ele>
        <time>2021-12-24T07:14:43Z</time>
      </trkpt>
      <trkpt lat="47.12771" lon="-1.74283">
        <ele>13.4</ele>
        <time>2021-12-24T07:14:45Z</time>
      </trkpt>
      <trkpt lat="47.12762" lon="-1.74272">
        <ele>13.4</ele>
        <time>2021-12-24T07:14:47Z</time>
      </trkpt>
      <trkpt lat="47.12754" lon="-1.74259">
        <ele>13.4</ele>
        <time>2021-12-24T07:14:49Z</time>
      </trkpt>
      <trkpt lat="47.12746" lon="-1.74247">
        <ele>13.4</ele>
        <time>2021-12-24T07:14:51Z</time>
      </trkpt>
      <trkpt lat="47.12737" lon="-1.74235">
        <ele>13.6</ele>
        <time>2021-12-24T07:14:53Z</time>
      </trkpt>
      <trkpt lat="47.12728" lon="-1.74222">
        <ele>13.6</ele>
        <time>2021-12-24T07:14:55Z</time>
      </trkpt>
      <trkpt lat="47.1272" lon="-1.74209">
        <ele>13.6</ele>
        <time>2021-12-24T07:14:57Z</time>
      </trkpt>
      <trkpt lat="47.1271" lon="-1.74195">
        <ele>13.6</ele>
        <time>2021-12-24T07:14:59Z</time>
      </trkpt>
      <trkpt lat="47.12706" lon="-1.74189">
        <ele>13.8</ele>
        <time>2021-12-24T07:15:00Z</time>
      </trkpt>
      <trkpt lat="47.12701" lon="-1.74181">
        <ele>13.8</ele>
        <time>2021-12-24T07:15:01Z</time>
      </trkpt>
      <trkpt lat="47.12692" lon="-1.74168">
        <ele>13.8</ele>
        <time>2021-12-24T07:15:03Z</time>
      </trkpt>
      <trkpt lat="47.12683" lon="-1.74154">
        <ele>13.8</ele>
        <time>2021-12-24T07:15:05Z</time>
      </trkpt>
      <trkpt lat="47.12674" lon="-1.74141">
        <ele>13.8</ele>
        <time>2021-12-24T07:15:07Z</time>
      </trkpt>
      <trkpt lat="47.12665" lon="-1.74127">
        <ele>14</ele>
        <time>2021-12-24T07:15:09Z</time>
      </trkpt>
      <trkpt lat="47.1266" lon="-1.7412">
        <ele>13.8</ele>
        <time>2021-12-24T07:15:10Z</time>
      </trkpt>
      <trkpt lat="47.12656" lon="-1.74114">
        <ele>13.8</ele>
        <time>2021-12-24T07:15:11Z</time>
      </trkpt>
      <trkpt lat="47.12647" lon="-1.741">
        <ele>13.8</ele>
        <time>2021-12-24T07:15:13Z</time>
      </trkpt>
      <trkpt lat="47.12639" lon="-1.74086">
        <ele>13.8</ele>
        <time>2021-12-24T07:15:15Z</time>
      </trkpt>
      <trkpt lat="47.1263" lon="-1.74073">
        <ele>13.8</ele>
        <time>2021-12-24T07:15:17Z</time>
      </trkpt>
      <trkpt lat="47.12622" lon="-1.74059">
        <ele>13.8</ele>
        <time>2021-12-24T07:15:19Z</time>
      </trkpt>
      <trkpt lat="47.12614" lon="-1.74045">
        <ele>14</ele>
        <time>2021-12-24T07:15:21Z</time>
      </trkpt>
      <trkpt lat="47.12605" lon="-1.74031">
        <ele>13.8</ele>
        <time>2021-12-24T07:15:23Z</time>
      </trkpt>
      <trkpt lat="47.12595" lon="-1.74017">
        <ele>14</ele>
        <time>2021-12-24T07:15:25Z</time>
      </trkpt>
      <trkpt lat="47.12585" lon="-1.74003">
        <ele>13.6</ele>
        <time>2021-12-24T07:15:27Z</time>
      </trkpt>
      <trkpt lat="47.12579" lon="-1.73997">
        <ele>13.6</ele>
        <time>2021-12-24T07:15:28Z</time>
      </trkpt>
      <trkpt lat="47.12574" lon="-1.73991">
        <ele>13.6</ele>
        <time>2021-12-24T07:15:29Z</time>
      </trkpt>
      <trkpt lat="47.12561" lon="-1.7398">
        <ele>13.4</ele>
        <time>2021-12-24T07:15:31Z</time>
      </trkpt>
      <trkpt lat="47.12545" lon="-1.73971">
        <ele>13.2</ele>
        <time>2021-12-24T07:15:33Z</time>
      </trkpt>
      <trkpt lat="47.12528" lon="-1.73963">
        <ele>12.8</ele>
        <time>2021-12-24T07:15:35Z</time>
      </trkpt>
      <trkpt lat="47.12511" lon="-1.73956">
        <ele>12.6</ele>
        <time>2021-12-24T07:15:37Z</time>
      </trkpt>
      <trkpt lat="47.12493" lon="-1.7395">
        <ele>12.4</ele>
        <time>2021-12-24T07:15:39Z</time>
      </trkpt>
      <trkpt lat="47.12476" lon="-1.73944">
        <ele>12.2</ele>
        <time>2021-12-24T07:15:41Z</time>
      </trkpt>
      <trkpt lat="47.1246" lon="-1.73939">
        <ele>12.2</ele>
        <time>2021-12-24T07:15:43Z</time>
      </trkpt>
      <trkpt lat="47.12444" lon="-1.73933">
        <ele>12.2</ele>
        <time>2021-12-24T07:15:45Z</time>
      </trkpt>
      <trkpt lat="47.12429" lon="-1.73927">
        <ele>12</ele>
        <time>2021-12-24T07:15:47Z</time>
      </trkpt>
      <trkpt lat="47.12415" lon="-1.73923">
        <ele>12</ele>
        <time>2021-12-24T07:15:49Z</time>
      </trkpt>
      <trkpt lat="47.12408" lon="-1.73921">
        <ele>12</ele>
        <time>2021-12-24T07:15:50Z</time>
      </trkpt>
      <trkpt lat="47.12402" lon="-1.73919">
        <ele>12</ele>
        <time>2021-12-24T07:15:51Z</time>
      </trkpt>
      <trkpt lat="47.1239" lon="-1.73915">
        <ele>12</ele>
        <time>2021-12-24T07:15:53Z</time>
      </trkpt>
      <trkpt lat="47.12378" lon="-1.73912">
        <ele>12.2</ele>
        <time>2021-12-24T07:15:55Z</time>
      </trkpt>
      <trkpt lat="47.12372" lon="-1.73911">
        <ele>12.2</ele>
        <time>2021-12-24T07:15:56Z</time>
      </trkpt>
      <trkpt lat="47.12367" lon="-1.73909">
        <ele>12.2</ele>
        <time>2021-12-24T07:15:57Z</time>
      </trkpt>
      <trkpt lat="47.12357" lon="-1.73907">
        <ele>12.2</ele>
        <time>2021-12-24T07:15:59Z</time>
      </trkpt>
      <trkpt lat="47.12347" lon="-1.73905">
        <ele>12.2</ele>
        <time>2021-12-24T07:16:01Z</time>
      </trkpt>
      <trkpt lat="47.12342" lon="-1.73904">
        <ele>12.2</ele>
        <time>2021-12-24T07:16:02Z</time>
      </trkpt>
      <trkpt lat="47.12337" lon="-1.73903">
        <ele>12.2</ele>
        <time>2021-12-24T07:16:03Z</time>
      </trkpt>
      <trkpt lat="47.12327" lon="-1.73901">
        <ele>11.6</ele>
        <time>2021-12-24T07:16:05Z</time>
      </trkpt>
      <trkpt lat="47.12316" lon="-1.73899">
        <ele>11.8</ele>
        <time>2021-12-24T07:16:07Z</time>
      </trkpt>
      <trkpt lat="47.12306" lon="-1.73898">
        <ele>12</ele>
        <time>2021-12-24T07:16:09Z</time>
      </trkpt>
      <trkpt lat="47.12295" lon="-1.73897">
        <ele>12</ele>
        <time>2021-12-24T07:16:11Z</time>
      </trkpt>
      <trkpt lat="47.1229" lon="-1.73897">
        <ele>12.2</ele>
        <time>2021-12-24T07:16:12Z</time>
      </trkpt>
      <trkpt lat="47.12285" lon="-1.73897">
        <ele>12.2</ele>
        <time>2021-12-24T07:16:13Z</time>
      </trkpt>
      <trkpt lat="47.12275" lon="-1.73898">
        <ele>12.2</ele>
        <time>2021-12-24T07:16:15Z</time>
      </trkpt>
      <trkpt lat="47.12265" lon="-1.73898">
        <ele>12.4</ele>
        <time>2021-12-24T07:16:17Z</time>
      </trkpt>
      <trkpt lat="47.12256" lon="-1.739">
        <ele>12.4</ele>
        <time>2021-12-24T07:16:19Z</time>
      </trkpt>
      <trkpt lat="47.12245" lon="-1.739">
        <ele>12.4</ele>
        <time>2021-12-24T07:16:21Z</time>
      </trkpt>
      <trkpt lat="47.12233" lon="-1.739">
        <ele>12.4</ele>
        <time>2021-12-24T07:16:23Z</time>
      </trkpt>
      <trkpt lat="47.12222" lon="-1.73901">
        <ele>12.4</ele>
        <time>2021-12-24T07:16:25Z</time>
      </trkpt>
      <trkpt lat="47.12216" lon="-1.73901">
        <ele>12.2</ele>
        <time>2021-12-24T07:16:26Z</time>
      </trkpt>
      <trkpt lat="47.1221" lon="-1.73902">
        <ele>12.2</ele>
        <time>2021-12-24T07:16:27Z</time>
      </trkpt>
      <trkpt lat="47.12198" lon="-1.73902">
        <ele>11.8</ele>
        <time>2021-12-24T07:16:29Z</time>
      </trkpt>
      <trkpt lat="47.12184" lon="-1.73903">
        <ele>12</ele>
        <time>2021-12-24T07:16:31Z</time>
      </trkpt>
      <trkpt lat="47.1217" lon="-1.73902">
        <ele>11.8</ele>
        <time>2021-12-24T07:16:33Z</time>
      </trkpt>
      <trkpt lat="47.12156" lon="-1.73902">
        <ele>11.6</ele>
        <time>2021-12-24T07:16:35Z</time>
      </trkpt>
      <trkpt lat="47.12148" lon="-1.73902">
        <ele>11.6</ele>
        <time>2021-12-24T07:16:36Z</time>
      </trkpt>
      <trkpt lat="47.1214" lon="-1.73902">
        <ele>11.6</ele>
        <time>2021-12-24T07:16:37Z</time>
      </trkpt>
      <trkpt lat="47.12123" lon="-1.73902">
        <ele>11.4</ele>
        <time>2021-12-24T07:16:39Z</time>
      </trkpt>
      <trkpt lat="47.12106" lon="-1.73902">
        <ele>11.2</ele>
        <time>2021-12-24T07:16:41Z</time>
      </trkpt>
      <trkpt lat="47.12089" lon="-1.73903">
        <ele>11.2</ele>
        <time>2021-12-24T07:16:43Z</time>
      </trkpt>
      <trkpt lat="47.12073" lon="-1.73905">
        <ele>11.2</ele>
        <time>2021-12-24T07:16:45Z</time>
      </trkpt>
      <trkpt lat="47.12057" lon="-1.73908">
        <ele>11</ele>
        <time>2021-12-24T07:16:47Z</time>
      </trkpt>
      <trkpt lat="47.12041" lon="-1.73911">
        <ele>11</ele>
        <time>2021-12-24T07:16:49Z</time>
      </trkpt>
      <trkpt lat="47.12025" lon="-1.73914">
        <ele>10.8</ele>
        <time>2021-12-24T07:16:51Z</time>
      </trkpt>
      <trkpt lat="47.1201" lon="-1.73916">
        <ele>10.8</ele>
        <time>2021-12-24T07:16:53Z</time>
      </trkpt>
      <trkpt lat="47.11995" lon="-1.73917">
        <ele>10.6</ele>
        <time>2021-12-24T07:16:55Z</time>
      </trkpt>
      <trkpt lat="47.1198" lon="-1.73917">
        <ele>10.4</ele>
        <time>2021-12-24T07:16:57Z</time>
      </trkpt>
      <trkpt lat="47.11964" lon="-1.73915">
        <ele>10.2</ele>
        <time>2021-12-24T07:16:59Z</time>
      </trkpt>
      <trkpt lat="47.11949" lon="-1.73913">
        <ele>10.2</ele>
        <time>2021-12-24T07:17:01Z</time>
      </trkpt>
      <trkpt lat="47.11934" lon="-1.73911">
        <ele>10</ele>
        <time>2021-12-24T07:17:03Z</time>
      </trkpt>
      <trkpt lat="47.11918" lon="-1.73909">
        <ele>9.8</ele>
        <time>2021-12-24T07:17:05Z</time>
      </trkpt>
      <trkpt lat="47.11903" lon="-1.73905">
        <ele>9.8</ele>
        <time>2021-12-24T07:17:07Z</time>
      </trkpt>
      <trkpt lat="47.11888" lon="-1.73902">
        <ele>9.6</ele>
        <time>2021-12-24T07:17:09Z</time>
      </trkpt>
      <trkpt lat="47.11872" lon="-1.73899">
        <ele>9.4</ele>
        <time>2021-12-24T07:17:11Z</time>
      </trkpt>
      <trkpt lat="47.11857" lon="-1.73898">
        <ele>9.4</ele>
        <time>2021-12-24T07:17:13Z</time>
      </trkpt>
      <trkpt lat="47.11841" lon="-1.73898">
        <ele>9.2</ele>
        <time>2021-12-24T07:17:15Z</time>
      </trkpt>
      <trkpt lat="47.11826" lon="-1.73899">
        <ele>9</ele>
        <time>2021-12-24T07:17:17Z</time>
      </trkpt>
      <trkpt lat="47.11812" lon="-1.73901">
        <ele>8.8</ele>
        <time>2021-12-24T07:17:19Z</time>
      </trkpt>
      <trkpt lat="47.11797" lon="-1.73902">
        <ele>8.6</ele>
        <time>2021-12-24T07:17:21Z</time>
      </trkpt>
      <trkpt lat="47.11782" lon="-1.73903">
        <ele>8.4</ele>
        <time>2021-12-24T07:17:23Z</time>
      </trkpt>
      <trkpt lat="47.11767" lon="-1.73902">
        <ele>8.2</ele>
        <time>2021-12-24T07:17:25Z</time>
      </trkpt>
      <trkpt lat="47.11753" lon="-1.73899">
        <ele>8</ele>
        <time>2021-12-24T07:17:27Z</time>
      </trkpt>
      <trkpt lat="47.1174" lon="-1.73895">
        <ele>8</ele>
        <time>2021-12-24T07:17:29Z</time>
      </trkpt>
      <trkpt lat="47.11727" lon="-1.7389">
        <ele>7.8</ele>
        <time>2021-12-24T07:17:31Z</time>
      </trkpt>
      <trkpt lat="47.11714" lon="-1.73887">
        <ele>7.6</ele>
        <time>2021-12-24T07:17:33Z</time>
      </trkpt>
      <trkpt lat="47.11701" lon="-1.73888">
        <ele>7.4</ele>
        <time>2021-12-24T07:17:35Z</time>
      </trkpt>
      <trkpt lat="47.11687" lon="-1.7389">
        <ele>7.4</ele>
        <time>2021-12-24T07:17:37Z</time>
      </trkpt>
      <trkpt lat="47.11672" lon="-1.73891">
        <ele>7.2</ele>
        <time>2021-12-24T07:17:39Z</time>
      </trkpt>
      <trkpt lat="47.11658" lon="-1.73894">
        <ele>7.2</ele>
        <time>2021-12-24T07:17:41Z</time>
      </trkpt>
      <trkpt lat="47.11643" lon="-1.73898">
        <ele>7.2</ele>
        <time>2021-12-24T07:17:43Z</time>
      </trkpt>
      <trkpt lat="47.11636" lon="-1.73901">
        <ele>7</ele>
        <time>2021-12-24T07:17:44Z</time>
      </trkpt>
      <trkpt lat="47.1163" lon="-1.73905">
        <ele>7</ele>
        <time>2021-12-24T07:17:45Z</time>
      </trkpt>
      <trkpt lat="47.11617" lon="-1.73914">
        <ele>6.8</ele>
        <time>2021-12-24T07:17:47Z</time>
      </trkpt>
      <trkpt lat="47.11611" lon="-1.73919">
        <ele>6.8</ele>
        <time>2021-12-24T07:17:48Z</time>
      </trkpt>
      <trkpt lat="47.11605" lon="-1.73924">
        <ele>6.8</ele>
        <time>2021-12-24T07:17:49Z</time>
      </trkpt>
      <trkpt lat="47.11593" lon="-1.73935">
        <ele>6.8</ele>
        <time>2021-12-24T07:17:51Z</time>
      </trkpt>
      <trkpt lat="47.11582" lon="-1.73946">
        <ele>6.8</ele>
        <time>2021-12-24T07:17:53Z</time>
      </trkpt>
      <trkpt lat="47.1157" lon="-1.73957">
        <ele>6.6</ele>
        <time>2021-12-24T07:17:55Z</time>
      </trkpt>
      <trkpt lat="47.1156" lon="-1.73968">
        <ele>6.6</ele>
        <time>2021-12-24T07:17:57Z</time>
      </trkpt>
      <trkpt lat="47.11549" lon="-1.73979">
        <ele>6.6</ele>
        <time>2021-12-24T07:17:59Z</time>
      </trkpt>
      <trkpt lat="47.11537" lon="-1.73989">
        <ele>6.6</ele>
        <time>2021-12-24T07:18:01Z</time>
      </trkpt>
      <trkpt lat="47.11525" lon="-1.73997">
        <ele>6.4</ele>
        <time>2021-12-24T07:18:03Z</time>
      </trkpt>
      <trkpt lat="47.11512" lon="-1.74001">
        <ele>6.4</ele>
        <time>2021-12-24T07:18:05Z</time>
      </trkpt>
      <trkpt lat="47.11505" lon="-1.74001">
        <ele>6.4</ele>
        <time>2021-12-24T07:18:06Z</time>
      </trkpt>
      <trkpt lat="47.11499" lon="-1.74">
        <ele>6.4</ele>
        <time>2021-12-24T07:18:07Z</time>
      </trkpt>
      <trkpt lat="47.11485" lon="-1.73996">
        <ele>6.2</ele>
        <time>2021-12-24T07:18:09Z</time>
      </trkpt>
      <trkpt lat="47.11472" lon="-1.73989">
        <ele>6.2</ele>
        <time>2021-12-24T07:18:11Z</time>
      </trkpt>
      <trkpt lat="47.11466" lon="-1.73984">
        <ele>6</ele>
        <time>2021-12-24T07:18:12Z</time>
      </trkpt>
      <trkpt lat="47.11461" lon="-1.73978">
        <ele>6</ele>
        <time>2021-12-24T07:18:13Z</time>
      </trkpt>
      <trkpt lat="47.11456" lon="-1.73972">
        <ele>6</ele>
        <time>2021-12-24T07:18:14Z</time>
      </trkpt>
      <trkpt lat="47.11451" lon="-1.73965">
        <ele>5.8</ele>
        <time>2021-12-24T07:18:15Z</time>
      </trkpt>
      <trkpt lat="47.11447" lon="-1.73959">
        <ele>5.8</ele>
        <time>2021-12-24T07:18:16Z</time>
      </trkpt>
      <trkpt lat="47.11443" lon="-1.73951">
        <ele>5.8</ele>
        <time>2021-12-24T07:18:17Z</time>
      </trkpt>
      <trkpt lat="47.11437" lon="-1.73936">
        <ele>5.8</ele>
        <time>2021-12-24T07:18:19Z</time>
      </trkpt>
      <trkpt lat="47.11433" lon="-1.73923">
        <ele>5.6</ele>
        <time>2021-12-24T07:18:21Z</time>
      </trkpt>
      <trkpt lat="47.11431" lon="-1.73916">
        <ele>5.4</ele>
        <time>2021-12-24T07:18:22Z</time>
      </trkpt>
      <trkpt lat="47.11429" lon="-1.73908">
        <ele>5.4</ele>
        <time>2021-12-24T07:18:23Z</time>
      </trkpt>
      <trkpt lat="47.11424" lon="-1.73895">
        <ele>5.2</ele>
        <time>2021-12-24T07:18:25Z</time>
      </trkpt>
      <trkpt lat="47.11419" lon="-1.7388">
        <ele>5.2</ele>
        <time>2021-12-24T07:18:27Z</time>
      </trkpt>
      <trkpt lat="47.11414" lon="-1.73866">
        <ele>5</ele>
        <time>2021-12-24T07:18:29Z</time>
      </trkpt>
      <trkpt lat="47.11408" lon="-1.73852">
        <ele>5</ele>
        <time>2021-12-24T07:18:31Z</time>
      </trkpt>
      <trkpt lat="47.11404" lon="-1.73837">
        <ele>5</ele>
        <time>2021-12-24T07:18:33Z</time>
      </trkpt>
      <trkpt lat="47.11399" lon="-1.73821">
        <ele>4.8</ele>
        <time>2021-12-24T07:18:35Z</time>
      </trkpt>
      <trkpt lat="47.11396" lon="-1.73805">
        <ele>4.8</ele>
        <time>2021-12-24T07:18:37Z</time>
      </trkpt>
      <trkpt lat="47.1139" lon="-1.73789">
        <ele>4.8</ele>
        <time>2021-12-24T07:18:39Z</time>
      </trkpt>
      <trkpt lat="47.11384" lon="-1.73773">
        <ele>4.8</ele>
        <time>2021-12-24T07:18:41Z</time>
      </trkpt>
      <trkpt lat="47.11379" lon="-1.73758">
        <ele>4.6</ele>
        <time>2021-12-24T07:18:43Z</time>
      </trkpt>
      <trkpt lat="47.11374" lon="-1.73744">
        <ele>4.6</ele>
        <time>2021-12-24T07:18:45Z</time>
      </trkpt>
      <trkpt lat="47.11368" lon="-1.73729">
        <ele>4.4</ele>
        <time>2021-12-24T07:18:47Z</time>
      </trkpt>
      <trkpt lat="47.11361" lon="-1.73716">
        <ele>4.4</ele>
        <time>2021-12-24T07:18:49Z</time>
      </trkpt>
      <trkpt lat="47.11354" lon="-1.73703">
        <ele>4.4</ele>
        <time>2021-12-24T07:18:51Z</time>
      </trkpt>
      <trkpt lat="47.11352" lon="-1.73696">
        <ele>4.4</ele>
        <time>2021-12-24T07:18:52Z</time>
      </trkpt>
      <trkpt lat="47.11348" lon="-1.73689">
        <ele>4.2</ele>
        <time>2021-12-24T07:18:53Z</time>
      </trkpt>
      <trkpt lat="47.11341" lon="-1.73675">
        <ele>4.2</ele>
        <time>2021-12-24T07:18:55Z</time>
      </trkpt>
      <trkpt lat="47.11335" lon="-1.73662">
        <ele>4</ele>
        <time>2021-12-24T07:18:57Z</time>
      </trkpt>
      <trkpt lat="47.11328" lon="-1.73649">
        <ele>4</ele>
        <time>2021-12-24T07:18:59Z</time>
      </trkpt>
      <trkpt lat="47.11322" lon="-1.73636">
        <ele>4</ele>
        <time>2021-12-24T07:19:01Z</time>
      </trkpt>
      <trkpt lat="47.11315" lon="-1.73623">
        <ele>4</ele>
        <time>2021-12-24T07:19:03Z</time>
      </trkpt>
      <trkpt lat="47.11309" lon="-1.7361">
        <ele>4</ele>
        <time>2021-12-24T07:19:05Z</time>
      </trkpt>
      <trkpt lat="47.11303" lon="-1.73598">
        <ele>3.8</ele>
        <time>2021-12-24T07:19:07Z</time>
      </trkpt>
      <trkpt lat="47.11299" lon="-1.73592">
        <ele>3.8</ele>
        <time>2021-12-24T07:19:08Z</time>
      </trkpt>
      <trkpt lat="47.11296" lon="-1.73585">
        <ele>3.8</ele>
        <time>2021-12-24T07:19:09Z</time>
      </trkpt>
      <trkpt lat="47.11291" lon="-1.73574">
        <ele>3.8</ele>
        <time>2021-12-24T07:19:11Z</time>
      </trkpt>
      <trkpt lat="47.11288" lon="-1.73569">
        <ele>3.8</ele>
        <time>2021-12-24T07:19:12Z</time>
      </trkpt>
      <trkpt lat="47.11284" lon="-1.73565">
        <ele>3.8</ele>
        <time>2021-12-24T07:19:13Z</time>
      </trkpt>
      <trkpt lat="47.1128" lon="-1.73563">
        <ele>4</ele>
        <time>2021-12-24T07:19:14Z</time>
      </trkpt>
      <trkpt lat="47.11275" lon="-1.73562">
        <ele>4</ele>
        <time>2021-12-24T07:19:15Z</time>
      </trkpt>
      <trkpt lat="47.1127" lon="-1.73563">
        <ele>4</ele>
        <time>2021-12-24T07:19:16Z</time>
      </trkpt>
      <trkpt lat="47.11265" lon="-1.73564">
        <ele>4.4</ele>
        <time>2021-12-24T07:19:17Z</time>
      </trkpt>
      <trkpt lat="47.11254" lon="-1.73564">
        <ele>4.6</ele>
        <time>2021-12-24T07:19:19Z</time>
      </trkpt>
      <trkpt lat="47.11243" lon="-1.73564">
        <ele>4.2</ele>
        <time>2021-12-24T07:19:21Z</time>
      </trkpt>
      <trkpt lat="47.11237" lon="-1.73564">
        <ele>4.2</ele>
        <time>2021-12-24T07:19:22Z</time>
      </trkpt>
      <trkpt lat="47.11232" lon="-1.73563">
        <ele>4.2</ele>
        <time>2021-12-24T07:19:23Z</time>
      </trkpt>
      <trkpt lat="47.1122" lon="-1.73563">
        <ele>4.2</ele>
        <time>2021-12-24T07:19:25Z</time>
      </trkpt>
      <trkpt lat="47.11208" lon="-1.73562">
        <ele>4.4</ele>
        <time>2021-12-24T07:19:27Z</time>
      </trkpt>
      <trkpt lat="47.11195" lon="-1.73561">
        <ele>4.4</ele>
        <time>2021-12-24T07:19:29Z</time>
      </trkpt>
      <trkpt lat="47.11189" lon="-1.73561">
        <ele>4.4</ele>
        <time>2021-12-24T07:19:30Z</time>
      </trkpt>
      <trkpt lat="47.11182" lon="-1.7356">
        <ele>4.4</ele>
        <time>2021-12-24T07:19:31Z</time>
      </trkpt>
      <trkpt lat="47.11169" lon="-1.7356">
        <ele>4.4</ele>
        <time>2021-12-24T07:19:33Z</time>
      </trkpt>
      <trkpt lat="47.11156" lon="-1.73559">
        <ele>4.4</ele>
        <time>2021-12-24T07:19:35Z</time>
      </trkpt>
      <trkpt lat="47.11142" lon="-1.73558">
        <ele>4.4</ele>
        <time>2021-12-24T07:19:37Z</time>
      </trkpt>
      <trkpt lat="47.11129" lon="-1.73556">
        <ele>4.2</ele>
        <time>2021-12-24T07:19:39Z</time>
      </trkpt>
      <trkpt lat="47.11115" lon="-1.73553">
        <ele>4.4</ele>
        <time>2021-12-24T07:19:41Z</time>
      </trkpt>
      <trkpt lat="47.11102" lon="-1.73549">
        <ele>4.4</ele>
        <time>2021-12-24T07:19:43Z</time>
      </trkpt>
      <trkpt lat="47.11095" lon="-1.73546">
        <ele>4.2</ele>
        <time>2021-12-24T07:19:44Z</time>
      </trkpt>
      <trkpt lat="47.11088" lon="-1.73543">
        <ele>4.2</ele>
        <time>2021-12-24T07:19:45Z</time>
      </trkpt>
      <trkpt lat="47.11075" lon="-1.73537">
        <ele>4.2</ele>
        <time>2021-12-24T07:19:47Z</time>
      </trkpt>
      <trkpt lat="47.11063" lon="-1.73532">
        <ele>4</ele>
        <time>2021-12-24T07:19:49Z</time>
      </trkpt>
      <trkpt lat="47.11051" lon="-1.73526">
        <ele>4.2</ele>
        <time>2021-12-24T07:19:51Z</time>
      </trkpt>
      <trkpt lat="47.11039" lon="-1.73521">
        <ele>4.2</ele>
        <time>2021-12-24T07:19:53Z</time>
      </trkpt>
      <trkpt lat="47.11028" lon="-1.73515">
        <ele>4.4</ele>
        <time>2021-12-24T07:19:55Z</time>
      </trkpt>
      <trkpt lat="47.11018" lon="-1.73509">
        <ele>4.6</ele>
        <time>2021-12-24T07:19:57Z</time>
      </trkpt>
      <trkpt lat="47.11007" lon="-1.73503">
        <ele>4.6</ele>
        <time>2021-12-24T07:19:59Z</time>
      </trkpt>
      <trkpt lat="47.11002" lon="-1.735">
        <ele>4.8</ele>
        <time>2021-12-24T07:20:00Z</time>
      </trkpt>
      <trkpt lat="47.10997" lon="-1.73498">
        <ele>4.8</ele>
        <time>2021-12-24T07:20:01Z</time>
      </trkpt>
      <trkpt lat="47.10985" lon="-1.73495">
        <ele>4.8</ele>
        <time>2021-12-24T07:20:03Z</time>
      </trkpt>
      <trkpt lat="47.10979" lon="-1.73494">
        <ele>4.8</ele>
        <time>2021-12-24T07:20:04Z</time>
      </trkpt>
      <trkpt lat="47.10973" lon="-1.73493">
        <ele>5</ele>
        <time>2021-12-24T07:20:05Z</time>
      </trkpt>
      <trkpt lat="47.10961" lon="-1.73493">
        <ele>5</ele>
        <time>2021-12-24T07:20:07Z</time>
      </trkpt>
      <trkpt lat="47.10948" lon="-1.73495">
        <ele>5</ele>
        <time>2021-12-24T07:20:09Z</time>
      </trkpt>
      <trkpt lat="47.10943" lon="-1.73497">
        <ele>5</ele>
        <time>2021-12-24T07:20:10Z</time>
      </trkpt>
      <trkpt lat="47.10937" lon="-1.73499">
        <ele>5.2</ele>
        <time>2021-12-24T07:20:11Z</time>
      </trkpt>
      <trkpt lat="47.10924" lon="-1.73502">
        <ele>5.2</ele>
        <time>2021-12-24T07:20:13Z</time>
      </trkpt>
      <trkpt lat="47.10912" lon="-1.73506">
        <ele>5.2</ele>
        <time>2021-12-24T07:20:15Z</time>
      </trkpt>
      <trkpt lat="47.10906" lon="-1.73508">
        <ele>5.2</ele>
        <time>2021-12-24T07:20:16Z</time>
      </trkpt>
      <trkpt lat="47.109" lon="-1.7351">
        <ele>5.2</ele>
        <time>2021-12-24T07:20:17Z</time>
      </trkpt>
      <trkpt lat="47.10889" lon="-1.73513">
        <ele>5.2</ele>
        <time>2021-12-24T07:20:19Z</time>
      </trkpt>
      <trkpt lat="47.10884" lon="-1.73514">
        <ele>5.4</ele>
        <time>2021-12-24T07:20:20Z</time>
      </trkpt>
      <trkpt lat="47.10879" lon="-1.73516">
        <ele>5.4</ele>
        <time>2021-12-24T07:20:21Z</time>
      </trkpt>
      <trkpt lat="47.1087" lon="-1.7352">
        <ele>5.4</ele>
        <time>2021-12-24T07:20:23Z</time>
      </trkpt>
      <trkpt lat="47.10867" lon="-1.73519">
        <ele>5.6</ele>
        <time>2021-12-24T07:20:24Z</time>
      </trkpt>
      <trkpt lat="47.10865" lon="-1.73514">
        <ele>5.6</ele>
        <time>2021-12-24T07:20:25Z</time>
      </trkpt>
      <trkpt lat="47.10865" lon="-1.735">
        <ele>5.6</ele>
        <time>2021-12-24T07:20:27Z</time>
      </trkpt>
      <trkpt lat="47.10865" lon="-1.73493">
        <ele>5.6</ele>
        <time>2021-12-24T07:20:28Z</time>
      </trkpt>
      <trkpt lat="47.10864" lon="-1.73486">
        <ele>5.8</ele>
        <time>2021-12-24T07:20:29Z</time>
      </trkpt>
      <trkpt lat="47.10861" lon="-1.73471">
        <ele>5.8</ele>
        <time>2021-12-24T07:20:31Z</time>
      </trkpt>
      <trkpt lat="47.1086" lon="-1.73464">
        <ele>5.8</ele>
        <time>2021-12-24T07:20:32Z</time>
      </trkpt>
      <trkpt lat="47.10859" lon="-1.73456">
        <ele>5.8</ele>
        <time>2021-12-24T07:20:33Z</time>
      </trkpt>
      <trkpt lat="47.10857" lon="-1.73442">
        <ele>6</ele>
        <time>2021-12-24T07:20:35Z</time>
      </trkpt>
      <trkpt lat="47.10854" lon="-1.73429">
        <ele>6</ele>
        <time>2021-12-24T07:20:37Z</time>
      </trkpt>
      <trkpt lat="47.1085" lon="-1.73415">
        <ele>6.2</ele>
        <time>2021-12-24T07:20:39Z</time>
      </trkpt>
      <trkpt lat="47.10848" lon="-1.7341">
        <ele>6.2</ele>
        <time>2021-12-24T07:20:40Z</time>
      </trkpt>
      <trkpt lat="47.10846" lon="-1.73404">
        <ele>6.2</ele>
        <time>2021-12-24T07:20:41Z</time>
      </trkpt>
      <trkpt lat="47.1084" lon="-1.73393">
        <ele>6.2</ele>
        <time>2021-12-24T07:20:43Z</time>
      </trkpt>
      <trkpt lat="47.10832" lon="-1.73383">
        <ele>6.4</ele>
        <time>2021-12-24T07:20:45Z</time>
      </trkpt>
      <trkpt lat="47.10825" lon="-1.73375">
        <ele>6.6</ele>
        <time>2021-12-24T07:20:47Z</time>
      </trkpt>
      <trkpt lat="47.10817" lon="-1.73368">
        <ele>6.6</ele>
        <time>2021-12-24T07:20:49Z</time>
      </trkpt>
      <trkpt lat="47.10809" lon="-1.73362">
        <ele>6.8</ele>
        <time>2021-12-24T07:20:51Z</time>
      </trkpt>
      <trkpt lat="47.10801" lon="-1.73356">
        <ele>7</ele>
        <time>2021-12-24T07:20:53Z</time>
      </trkpt>
      <trkpt lat="47.10793" lon="-1.73351">
        <ele>7</ele>
        <time>2021-12-24T07:20:55Z</time>
      </trkpt>
      <trkpt lat="47.10789" lon="-1.73348">
        <ele>7.2</ele>
        <time>2021-12-24T07:20:56Z</time>
      </trkpt>
      <trkpt lat="47.10785" lon="-1.73345">
        <ele>7.2</ele>
        <time>2021-12-24T07:20:57Z</time>
      </trkpt>
      <trkpt lat="47.10776" lon="-1.73341">
        <ele>7.4</ele>
        <time>2021-12-24T07:20:59Z</time>
      </trkpt>
      <trkpt lat="47.10768" lon="-1.73337">
        <ele>7.4</ele>
        <time>2021-12-24T07:21:01Z</time>
      </trkpt>
      <trkpt lat="47.10759" lon="-1.73333">
        <ele>7.6</ele>
        <time>2021-12-24T07:21:03Z</time>
      </trkpt>
      <trkpt lat="47.10751" lon="-1.7333">
        <ele>7.8</ele>
        <time>2021-12-24T07:21:05Z</time>
      </trkpt>
      <trkpt lat="47.10743" lon="-1.73328">
        <ele>7.8</ele>
        <time>2021-12-24T07:21:07Z</time>
      </trkpt>
      <trkpt lat="47.10736" lon="-1.73327">
        <ele>8</ele>
        <time>2021-12-24T07:21:09Z</time>
      </trkpt>
      <trkpt lat="47.10728" lon="-1.73326">
        <ele>8</ele>
        <time>2021-12-24T07:21:11Z</time>
      </trkpt>
      <trkpt lat="47.1072" lon="-1.73324">
        <ele>8.2</ele>
        <time>2021-12-24T07:21:13Z</time>
      </trkpt>
      <trkpt lat="47.10716" lon="-1.73322">
        <ele>8.2</ele>
        <time>2021-12-24T07:21:14Z</time>
      </trkpt>
      <trkpt lat="47.10712" lon="-1.7332">
        <ele>8.4</ele>
        <time>2021-12-24T07:21:15Z</time>
      </trkpt>
      <trkpt lat="47.10702" lon="-1.73317">
        <ele>8.6</ele>
        <time>2021-12-24T07:21:17Z</time>
      </trkpt>
      <trkpt lat="47.10693" lon="-1.73312">
        <ele>8.6</ele>
        <time>2021-12-24T07:21:19Z</time>
      </trkpt>
      <trkpt lat="47.10685" lon="-1.73308">
        <ele>8.8</ele>
        <time>2021-12-24T07:21:21Z</time>
      </trkpt>
      <trkpt lat="47.10681" lon="-1.73306">
        <ele>9</ele>
        <time>2021-12-24T07:21:22Z</time>
      </trkpt>
      <trkpt lat="47.10677" lon="-1.73305">
        <ele>9</ele>
        <time>2021-12-24T07:21:23Z</time>
      </trkpt>
      <trkpt lat="47.10668" lon="-1.733">
        <ele>9.2</ele>
        <time>2021-12-24T07:21:25Z</time>
      </trkpt>
      <trkpt lat="47.1066" lon="-1.73296">
        <ele>9.4</ele>
        <time>2021-12-24T07:21:27Z</time>
      </trkpt>
      <trkpt lat="47.10655" lon="-1.73294">
        <ele>9.6</ele>
        <time>2021-12-24T07:21:28Z</time>
      </trkpt>
      <trkpt lat="47.10651" lon="-1.73292">
        <ele>9.6</ele>
        <time>2021-12-24T07:21:29Z</time>
      </trkpt>
      <trkpt lat="47.10642" lon="-1.73286">
        <ele>9.8</ele>
        <time>2021-12-24T07:21:31Z</time>
      </trkpt>
      <trkpt lat="47.10633" lon="-1.73278">
        <ele>9.8</ele>
        <time>2021-12-24T07:21:33Z</time>
      </trkpt>
      <trkpt lat="47.10629" lon="-1.73275">
        <ele>9.8</ele>
        <time>2021-12-24T07:21:34Z</time>
      </trkpt>
      <trkpt lat="47.10625" lon="-1.7327">
        <ele>9.8</ele>
        <time>2021-12-24T07:21:35Z</time>
      </trkpt>
      <trkpt lat="47.10617" lon="-1.73261">
        <ele>10</ele>
        <time>2021-12-24T07:21:37Z</time>
      </trkpt>
      <trkpt lat="47.10608" lon="-1.73252">
        <ele>10</ele>
        <time>2021-12-24T07:21:39Z</time>
      </trkpt>
      <trkpt lat="47.10604" lon="-1.73248">
        <ele>10.2</ele>
        <time>2021-12-24T07:21:40Z</time>
      </trkpt>
      <trkpt lat="47.10599" lon="-1.73244">
        <ele>10.2</ele>
        <time>2021-12-24T07:21:41Z</time>
      </trkpt>
      <trkpt lat="47.1059" lon="-1.73237">
        <ele>10.4</ele>
        <time>2021-12-24T07:21:43Z</time>
      </trkpt>
      <trkpt lat="47.1058" lon="-1.73231">
        <ele>10.4</ele>
        <time>2021-12-24T07:21:45Z</time>
      </trkpt>
      <trkpt lat="47.1057" lon="-1.73225">
        <ele>10.4</ele>
        <time>2021-12-24T07:21:47Z</time>
      </trkpt>
      <trkpt lat="47.10565" lon="-1.73221">
        <ele>10.6</ele>
        <time>2021-12-24T07:21:48Z</time>
      </trkpt>
      <trkpt lat="47.1056" lon="-1.73216">
        <ele>10.6</ele>
        <time>2021-12-24T07:21:49Z</time>
      </trkpt>
      <trkpt lat="47.10552" lon="-1.73206">
        <ele>10.6</ele>
        <time>2021-12-24T07:21:51Z</time>
      </trkpt>
      <trkpt lat="47.10544" lon="-1.73195">
        <ele>10.8</ele>
        <time>2021-12-24T07:21:53Z</time>
      </trkpt>
      <trkpt lat="47.10537" lon="-1.73182">
        <ele>10.8</ele>
        <time>2021-12-24T07:21:55Z</time>
      </trkpt>
      <trkpt lat="47.1053" lon="-1.73169">
        <ele>11</ele>
        <time>2021-12-24T07:21:57Z</time>
      </trkpt>
      <trkpt lat="47.10526" lon="-1.73162">
        <ele>11</ele>
        <time>2021-12-24T07:21:58Z</time>
      </trkpt>
      <trkpt lat="47.10522" lon="-1.73156">
        <ele>11</ele>
        <time>2021-12-24T07:21:59Z</time>
      </trkpt>
      <trkpt lat="47.10518" lon="-1.73149">
        <ele>11</ele>
        <time>2021-12-24T07:22:00Z</time>
      </trkpt>
      <trkpt lat="47.10514" lon="-1.73143">
        <ele>11</ele>
        <time>2021-12-24T07:22:01Z</time>
      </trkpt>
      <trkpt lat="47.10506" lon="-1.7313">
        <ele>11</ele>
        <time>2021-12-24T07:22:03Z</time>
      </trkpt>
      <trkpt lat="47.10498" lon="-1.73117">
        <ele>11</ele>
        <time>2021-12-24T07:22:05Z</time>
      </trkpt>
      <trkpt lat="47.10489" lon="-1.73104">
        <ele>11</ele>
        <time>2021-12-24T07:22:07Z</time>
      </trkpt>
      <trkpt lat="47.1048" lon="-1.73091">
        <ele>11</ele>
        <time>2021-12-24T07:22:09Z</time>
      </trkpt>
      <trkpt lat="47.10471" lon="-1.7308">
        <ele>11.2</ele>
        <time>2021-12-24T07:22:11Z</time>
      </trkpt>
      <trkpt lat="47.10461" lon="-1.7307">
        <ele>11.2</ele>
        <time>2021-12-24T07:22:13Z</time>
      </trkpt>
      <trkpt lat="47.10451" lon="-1.7306">
        <ele>11.2</ele>
        <time>2021-12-24T07:22:15Z</time>
      </trkpt>
      <trkpt lat="47.1044" lon="-1.73051">
        <ele>11.2</ele>
        <time>2021-12-24T07:22:17Z</time>
      </trkpt>
      <trkpt lat="47.10429" lon="-1.73043">
        <ele>11.4</ele>
        <time>2021-12-24T07:22:19Z</time>
      </trkpt>
      <trkpt lat="47.10417" lon="-1.73035">
        <ele>11.4</ele>
        <time>2021-12-24T07:22:21Z</time>
      </trkpt>
      <trkpt lat="47.10405" lon="-1.73026">
        <ele>11.6</ele>
        <time>2021-12-24T07:22:23Z</time>
      </trkpt>
      <trkpt lat="47.10393" lon="-1.73017">
        <ele>11.6</ele>
        <time>2021-12-24T07:22:25Z</time>
      </trkpt>
      <trkpt lat="47.10381" lon="-1.73008">
        <ele>11.6</ele>
        <time>2021-12-24T07:22:27Z</time>
      </trkpt>
      <trkpt lat="47.10369" lon="-1.72998">
        <ele>11.6</ele>
        <time>2021-12-24T07:22:29Z</time>
      </trkpt>
      <trkpt lat="47.10357" lon="-1.72989">
        <ele>11.8</ele>
        <time>2021-12-24T07:22:31Z</time>
      </trkpt>
      <trkpt lat="47.10345" lon="-1.7298">
        <ele>11.8</ele>
        <time>2021-12-24T07:22:33Z</time>
      </trkpt>
      <trkpt lat="47.10332" lon="-1.72972">
        <ele>11.8</ele>
        <time>2021-12-24T07:22:35Z</time>
      </trkpt>
      <trkpt lat="47.1032" lon="-1.72964">
        <ele>12</ele>
        <time>2021-12-24T07:22:37Z</time>
      </trkpt>
      <trkpt lat="47.10307" lon="-1.72957">
        <ele>12</ele>
        <time>2021-12-24T07:22:39Z</time>
      </trkpt>
      <trkpt lat="47.10294" lon="-1.72949">
        <ele>12</ele>
        <time>2021-12-24T07:22:41Z</time>
      </trkpt>
      <trkpt lat="47.10282" lon="-1.72942">
        <ele>12</ele>
        <time>2021-12-24T07:22:43Z</time>
      </trkpt>
      <trkpt lat="47.10269" lon="-1.72933">
        <ele>12</ele>
        <time>2021-12-24T07:22:45Z</time>
      </trkpt>
      <trkpt lat="47.10258" lon="-1.72923">
        <ele>12.2</ele>
        <time>2021-12-24T07:22:47Z</time>
      </trkpt>
      <trkpt lat="47.10253" lon="-1.72919">
        <ele>12.2</ele>
        <time>2021-12-24T07:22:48Z</time>
      </trkpt>
      <trkpt lat="47.10248" lon="-1.72914">
        <ele>12.2</ele>
        <time>2021-12-24T07:22:49Z</time>
      </trkpt>
      <trkpt lat="47.10238" lon="-1.72903">
        <ele>12.2</ele>
        <time>2021-12-24T07:22:51Z</time>
      </trkpt>
      <trkpt lat="47.10228" lon="-1.72892">
        <ele>12.2</ele>
        <time>2021-12-24T07:22:53Z</time>
      </trkpt>
      <trkpt lat="47.10218" lon="-1.72881">
        <ele>12.2</ele>
        <time>2021-12-24T07:22:55Z</time>
      </trkpt>
      <trkpt lat="47.10208" lon="-1.7287">
        <ele>12</ele>
        <time>2021-12-24T07:22:57Z</time>
      </trkpt>
      <trkpt lat="47.10197" lon="-1.72859">
        <ele>12</ele>
        <time>2021-12-24T07:22:59Z</time>
      </trkpt>
      <trkpt lat="47.10187" lon="-1.72847">
        <ele>12</ele>
        <time>2021-12-24T07:23:01Z</time>
      </trkpt>
      <trkpt lat="47.10176" lon="-1.72836">
        <ele>12</ele>
        <time>2021-12-24T07:23:03Z</time>
      </trkpt>
      <trkpt lat="47.10165" lon="-1.72825">
        <ele>11.8</ele>
        <time>2021-12-24T07:23:05Z</time>
      </trkpt>
      <trkpt lat="47.10155" lon="-1.72814">
        <ele>11.8</ele>
        <time>2021-12-24T07:23:07Z</time>
      </trkpt>
      <trkpt lat="47.10144" lon="-1.72802">
        <ele>11.8</ele>
        <time>2021-12-24T07:23:09Z</time>
      </trkpt>
      <trkpt lat="47.10134" lon="-1.72791">
        <ele>11.8</ele>
        <time>2021-12-24T07:23:11Z</time>
      </trkpt>
      <trkpt lat="47.10129" lon="-1.72785">
        <ele>11.6</ele>
        <time>2021-12-24T07:23:12Z</time>
      </trkpt>
      <trkpt lat="47.10125" lon="-1.72778">
        <ele>11.6</ele>
        <time>2021-12-24T07:23:13Z</time>
      </trkpt>
      <trkpt lat="47.10116" lon="-1.72765">
        <ele>11.6</ele>
        <time>2021-12-24T07:23:15Z</time>
      </trkpt>
      <trkpt lat="47.10107" lon="-1.72752">
        <ele>11.6</ele>
        <time>2021-12-24T07:23:17Z</time>
      </trkpt>
      <trkpt lat="47.10103" lon="-1.72746">
        <ele>11.6</ele>
        <time>2021-12-24T07:23:18Z</time>
      </trkpt>
      <trkpt lat="47.10099" lon="-1.7274">
        <ele>11.6</ele>
        <time>2021-12-24T07:23:19Z</time>
      </trkpt>
      <trkpt lat="47.10095" lon="-1.72734">
        <ele>11.6</ele>
        <time>2021-12-24T07:23:20Z</time>
      </trkpt>
      <trkpt lat="47.10091" lon="-1.72728">
        <ele>11.4</ele>
        <time>2021-12-24T07:23:21Z</time>
      </trkpt>
      <trkpt lat="47.10085" lon="-1.72715">
        <ele>11.4</ele>
        <time>2021-12-24T07:23:23Z</time>
      </trkpt>
      <trkpt lat="47.10078" lon="-1.72703">
        <ele>11.4</ele>
        <time>2021-12-24T07:23:25Z</time>
      </trkpt>
      <trkpt lat="47.10071" lon="-1.72691">
        <ele>11.2</ele>
        <time>2021-12-24T07:23:27Z</time>
      </trkpt>
      <trkpt lat="47.10067" lon="-1.72687">
        <ele>11.2</ele>
        <time>2021-12-24T07:23:28Z</time>
      </trkpt>
      <trkpt lat="47.10061" lon="-1.72686">
        <ele>11.2</ele>
        <time>2021-12-24T07:23:29Z</time>
      </trkpt>
      <trkpt lat="47.1005" lon="-1.7269">
        <ele>11.2</ele>
        <time>2021-12-24T07:23:31Z</time>
      </trkpt>
      <trkpt lat="47.10039" lon="-1.72699">
        <ele>11</ele>
        <time>2021-12-24T07:23:33Z</time>
      </trkpt>
      <trkpt lat="47.1003" lon="-1.72709">
        <ele>11</ele>
        <time>2021-12-24T07:23:35Z</time>
      </trkpt>
      <trkpt lat="47.1002" lon="-1.72718">
        <ele>11</ele>
        <time>2021-12-24T07:23:37Z</time>
      </trkpt>
      <trkpt lat="47.10015" lon="-1.72723">
        <ele>11</ele>
        <time>2021-12-24T07:23:38Z</time>
      </trkpt>
      <trkpt lat="47.1001" lon="-1.72727">
        <ele>11</ele>
        <time>2021-12-24T07:23:39Z</time>
      </trkpt>
      <trkpt lat="47.09999" lon="-1.72736">
        <ele>11</ele>
        <time>2021-12-24T07:23:41Z</time>
      </trkpt>
      <trkpt lat="47.09988" lon="-1.72743">
        <ele>11</ele>
        <time>2021-12-24T07:23:43Z</time>
      </trkpt>
      <trkpt lat="47.09977" lon="-1.7275">
        <ele>11</ele>
        <time>2021-12-24T07:23:45Z</time>
      </trkpt>
      <trkpt lat="47.09966" lon="-1.72757">
        <ele>10.8</ele>
        <time>2021-12-24T07:23:47Z</time>
      </trkpt>
      <trkpt lat="47.09954" lon="-1.72762">
        <ele>10.8</ele>
        <time>2021-12-24T07:23:49Z</time>
      </trkpt>
      <trkpt lat="47.09942" lon="-1.72768">
        <ele>10.8</ele>
        <time>2021-12-24T07:23:51Z</time>
      </trkpt>
      <trkpt lat="47.09931" lon="-1.72775">
        <ele>10.8</ele>
        <time>2021-12-24T07:23:53Z</time>
      </trkpt>
      <trkpt lat="47.09919" lon="-1.7278">
        <ele>10.8</ele>
        <time>2021-12-24T07:23:55Z</time>
      </trkpt>
      <trkpt lat="47.09907" lon="-1.72787">
        <ele>10.6</ele>
        <time>2021-12-24T07:23:57Z</time>
      </trkpt>
      <trkpt lat="47.09895" lon="-1.72793">
        <ele>10.6</ele>
        <time>2021-12-24T07:23:59Z</time>
      </trkpt>
      <trkpt lat="47.09882" lon="-1.728">
        <ele>10.4</ele>
        <time>2021-12-24T07:24:01Z</time>
      </trkpt>
      <trkpt lat="47.09869" lon="-1.72806">
        <ele>10.4</ele>
        <time>2021-12-24T07:24:03Z</time>
      </trkpt>
      <trkpt lat="47.09855" lon="-1.72813">
        <ele>10.4</ele>
        <time>2021-12-24T07:24:05Z</time>
      </trkpt>
      <trkpt lat="47.09842" lon="-1.7282">
        <ele>10.2</ele>
        <time>2021-12-24T07:24:07Z</time>
      </trkpt>
      <trkpt lat="47.09835" lon="-1.72824">
        <ele>10.2</ele>
        <time>2021-12-24T07:24:08Z</time>
      </trkpt>
      <trkpt lat="47.09828" lon="-1.72827">
        <ele>10</ele>
        <time>2021-12-24T07:24:09Z</time>
      </trkpt>
      <trkpt lat="47.09815" lon="-1.72834">
        <ele>10</ele>
        <time>2021-12-24T07:24:11Z</time>
      </trkpt>
      <trkpt lat="47.09802" lon="-1.72844">
        <ele>10</ele>
        <time>2021-12-24T07:24:13Z</time>
      </trkpt>
      <trkpt lat="47.09796" lon="-1.7285">
        <ele>10</ele>
        <time>2021-12-24T07:24:14Z</time>
      </trkpt>
      <trkpt lat="47.0979" lon="-1.72856">
        <ele>9.8</ele>
        <time>2021-12-24T07:24:15Z</time>
      </trkpt>
      <trkpt lat="47.0978" lon="-1.72869">
        <ele>9.8</ele>
        <time>2021-12-24T07:24:17Z</time>
      </trkpt>
      <trkpt lat="47.09774" lon="-1.72872">
        <ele>9.8</ele>
        <time>2021-12-24T07:24:18Z</time>
      </trkpt>
      <trkpt lat="47.09768" lon="-1.72873">
        <ele>9.8</ele>
        <time>2021-12-24T07:24:19Z</time>
      </trkpt>
      <trkpt lat="47.09763" lon="-1.72871">
        <ele>9.6</ele>
        <time>2021-12-24T07:24:20Z</time>
      </trkpt>
      <trkpt lat="47.09759" lon="-1.72864">
        <ele>9.6</ele>
        <time>2021-12-24T07:24:21Z</time>
      </trkpt>
      <trkpt lat="47.09752" lon="-1.72847">
        <ele>9.4</ele>
        <time>2021-12-24T07:24:23Z</time>
      </trkpt>
      <trkpt lat="47.09744" lon="-1.72829">
        <ele>9.2</ele>
        <time>2021-12-24T07:24:25Z</time>
      </trkpt>
      <trkpt lat="47.09737" lon="-1.72811">
        <ele>9</ele>
        <time>2021-12-24T07:24:27Z</time>
      </trkpt>
      <trkpt lat="47.09729" lon="-1.72794">
        <ele>8.8</ele>
        <time>2021-12-24T07:24:29Z</time>
      </trkpt>
      <trkpt lat="47.09722" lon="-1.72776">
        <ele>8.8</ele>
        <time>2021-12-24T07:24:31Z</time>
      </trkpt>
      <trkpt lat="47.09714" lon="-1.72759">
        <ele>8.6</ele>
        <time>2021-12-24T07:24:33Z</time>
      </trkpt>
      <trkpt lat="47.09703" lon="-1.72745">
        <ele>8.6</ele>
        <time>2021-12-24T07:24:35Z</time>
      </trkpt>
      <trkpt lat="47.09697" lon="-1.72739">
        <ele>8.6</ele>
        <time>2021-12-24T07:24:36Z</time>
      </trkpt>
      <trkpt lat="47.09691" lon="-1.72735">
        <ele>8.4</ele>
        <time>2021-12-24T07:24:37Z</time>
      </trkpt>
      <trkpt lat="47.09677" lon="-1.72729">
        <ele>8.4</ele>
        <time>2021-12-24T07:24:39Z</time>
      </trkpt>
      <trkpt lat="47.0967" lon="-1.72727">
        <ele>8.4</ele>
        <time>2021-12-24T07:24:40Z</time>
      </trkpt>
      <trkpt lat="47.09663" lon="-1.72726">
        <ele>8.4</ele>
        <time>2021-12-24T07:24:41Z</time>
      </trkpt>
      <trkpt lat="47.09649" lon="-1.72723">
        <ele>8.2</ele>
        <time>2021-12-24T07:24:43Z</time>
      </trkpt>
      <trkpt lat="47.09636" lon="-1.72719">
        <ele>8.2</ele>
        <time>2021-12-24T07:24:45Z</time>
      </trkpt>
      <trkpt lat="47.0963" lon="-1.72716">
        <ele>8.2</ele>
        <time>2021-12-24T07:24:46Z</time>
      </trkpt>
      <trkpt lat="47.09623" lon="-1.72713">
        <ele>8.2</ele>
        <time>2021-12-24T07:24:47Z</time>
      </trkpt>
      <trkpt lat="47.09609" lon="-1.72706">
        <ele>8</ele>
        <time>2021-12-24T07:24:49Z</time>
      </trkpt>
      <trkpt lat="47.09595" lon="-1.72699">
        <ele>7.8</ele>
        <time>2021-12-24T07:24:51Z</time>
      </trkpt>
      <trkpt lat="47.0958" lon="-1.72693">
        <ele>7.6</ele>
        <time>2021-12-24T07:24:53Z</time>
      </trkpt>
      <trkpt lat="47.09565" lon="-1.72685">
        <ele>7.4</ele>
        <time>2021-12-24T07:24:55Z</time>
      </trkpt>
      <trkpt lat="47.0955" lon="-1.7268">
        <ele>7.2</ele>
        <time>2021-12-24T07:24:57Z</time>
      </trkpt>
      <trkpt lat="47.09543" lon="-1.72681">
        <ele>7</ele>
        <time>2021-12-24T07:24:58Z</time>
      </trkpt>
      <trkpt lat="47.09536" lon="-1.72684">
        <ele>7</ele>
        <time>2021-12-24T07:24:59Z</time>
      </trkpt>
      <trkpt lat="47.09523" lon="-1.72697">
        <ele>6.8</ele>
        <time>2021-12-24T07:25:01Z</time>
      </trkpt>
      <trkpt lat="47.09515" lon="-1.72715">
        <ele>6.6</ele>
        <time>2021-12-24T07:25:03Z</time>
      </trkpt>
      <trkpt lat="47.09507" lon="-1.72733">
        <ele>6.4</ele>
        <time>2021-12-24T07:25:05Z</time>
      </trkpt>
      <trkpt lat="47.09499" lon="-1.72751">
        <ele>6.4</ele>
        <time>2021-12-24T07:25:07Z</time>
      </trkpt>
      <trkpt lat="47.09495" lon="-1.7276">
        <ele>6.4</ele>
        <time>2021-12-24T07:25:08Z</time>
      </trkpt>
      <trkpt lat="47.0949" lon="-1.72769">
        <ele>6.4</ele>
        <time>2021-12-24T07:25:09Z</time>
      </trkpt>
      <trkpt lat="47.09482" lon="-1.72787">
        <ele>6.4</ele>
        <time>2021-12-24T07:25:11Z</time>
      </trkpt>
      <trkpt lat="47.09474" lon="-1.72804">
        <ele>6.2</ele>
        <time>2021-12-24T07:25:13Z</time>
      </trkpt>
      <trkpt lat="47.0947" lon="-1.72812">
        <ele>6.2</ele>
        <time>2021-12-24T07:25:14Z</time>
      </trkpt>
      <trkpt lat="47.09466" lon="-1.7282">
        <ele>6.2</ele>
        <time>2021-12-24T07:25:15Z</time>
      </trkpt>
      <trkpt lat="47.09457" lon="-1.72836">
        <ele>6.2</ele>
        <time>2021-12-24T07:25:17Z</time>
      </trkpt>
      <trkpt lat="47.09449" lon="-1.72853">
        <ele>6.2</ele>
        <time>2021-12-24T07:25:19Z</time>
      </trkpt>
      <trkpt lat="47.09445" lon="-1.72861">
        <ele>6.2</ele>
        <time>2021-12-24T07:25:20Z</time>
      </trkpt>
      <trkpt lat="47.09442" lon="-1.72869">
        <ele>6.2</ele>
        <time>2021-12-24T07:25:21Z</time>
      </trkpt>
      <trkpt lat="47.09434" lon="-1.72886">
        <ele>6.2</ele>
        <time>2021-12-24T07:25:23Z</time>
      </trkpt>
      <trkpt lat="47.09426" lon="-1.72902">
        <ele>6.2</ele>
        <time>2021-12-24T07:25:25Z</time>
      </trkpt>
      <trkpt lat="47.09417" lon="-1.72917">
        <ele>6.2</ele>
        <time>2021-12-24T07:25:27Z</time>
      </trkpt>
      <trkpt lat="47.09413" lon="-1.72925">
        <ele>6.2</ele>
        <time>2021-12-24T07:25:28Z</time>
      </trkpt>
      <trkpt lat="47.09409" lon="-1.72933">
        <ele>6.2</ele>
        <time>2021-12-24T07:25:29Z</time>
      </trkpt>
      <trkpt lat="47.09401" lon="-1.72951">
        <ele>6.2</ele>
        <time>2021-12-24T07:25:31Z</time>
      </trkpt>
      <trkpt lat="47.09395" lon="-1.7297">
        <ele>6</ele>
        <time>2021-12-24T07:25:33Z</time>
      </trkpt>
      <trkpt lat="47.09393" lon="-1.72979">
        <ele>6</ele>
        <time>2021-12-24T07:25:34Z</time>
      </trkpt>
      <trkpt lat="47.09391" lon="-1.72989">
        <ele>6</ele>
        <time>2021-12-24T07:25:35Z</time>
      </trkpt>
      <trkpt lat="47.09389" lon="-1.73009">
        <ele>6</ele>
        <time>2021-12-24T07:25:37Z</time>
      </trkpt>
      <trkpt lat="47.09389" lon="-1.73019">
        <ele>6</ele>
        <time>2021-12-24T07:25:38Z</time>
      </trkpt>
      <trkpt lat="47.09389" lon="-1.73029">
        <ele>6</ele>
        <time>2021-12-24T07:25:39Z</time>
      </trkpt>
      <trkpt lat="47.09387" lon="-1.7305">
        <ele>6</ele>
        <time>2021-12-24T07:25:41Z</time>
      </trkpt>
      <trkpt lat="47.09383" lon="-1.7307">
        <ele>6</ele>
        <time>2021-12-24T07:25:43Z</time>
      </trkpt>
      <trkpt lat="47.09379" lon="-1.7308">
        <ele>6</ele>
        <time>2021-12-24T07:25:44Z</time>
      </trkpt>
      <trkpt lat="47.09375" lon="-1.73089">
        <ele>5.8</ele>
        <time>2021-12-24T07:25:45Z</time>
      </trkpt>
      <trkpt lat="47.09365" lon="-1.73105">
        <ele>5.8</ele>
        <time>2021-12-24T07:25:47Z</time>
      </trkpt>
      <trkpt lat="47.09359" lon="-1.73112">
        <ele>5.6</ele>
        <time>2021-12-24T07:25:48Z</time>
      </trkpt>
      <trkpt lat="47.09353" lon="-1.73117">
        <ele>5.6</ele>
        <time>2021-12-24T07:25:49Z</time>
      </trkpt>
      <trkpt lat="47.0934" lon="-1.73128">
        <ele>5.4</ele>
        <time>2021-12-24T07:25:51Z</time>
      </trkpt>
      <trkpt lat="47.09326" lon="-1.73138">
        <ele>5.4</ele>
        <time>2021-12-24T07:25:53Z</time>
      </trkpt>
      <trkpt lat="47.0932" lon="-1.73143">
        <ele>5.2</ele>
        <time>2021-12-24T07:25:54Z</time>
      </trkpt>
      <trkpt lat="47.09313" lon="-1.73148">
        <ele>5.2</ele>
        <time>2021-12-24T07:25:55Z</time>
      </trkpt>
      <trkpt lat="47.093" lon="-1.73158">
        <ele>5.2</ele>
        <time>2021-12-24T07:25:57Z</time>
      </trkpt>
      <trkpt lat="47.09287" lon="-1.73168">
        <ele>5</ele>
        <time>2021-12-24T07:25:59Z</time>
      </trkpt>
      <trkpt lat="47.09275" lon="-1.73178">
        <ele>4.8</ele>
        <time>2021-12-24T07:26:01Z</time>
      </trkpt>
      <trkpt lat="47.09269" lon="-1.73184">
        <ele>4.8</ele>
        <time>2021-12-24T07:26:02Z</time>
      </trkpt>
      <trkpt lat="47.09263" lon="-1.73189">
        <ele>4.6</ele>
        <time>2021-12-24T07:26:03Z</time>
      </trkpt>
      <trkpt lat="47.09251" lon="-1.73198">
        <ele>4.6</ele>
        <time>2021-12-24T07:26:05Z</time>
      </trkpt>
      <trkpt lat="47.09238" lon="-1.73208">
        <ele>4.4</ele>
        <time>2021-12-24T07:26:07Z</time>
      </trkpt>
      <trkpt lat="47.09225" lon="-1.73218">
        <ele>4.4</ele>
        <time>2021-12-24T07:26:09Z</time>
      </trkpt>
      <trkpt lat="47.09212" lon="-1.73229">
        <ele>4.2</ele>
        <time>2021-12-24T07:26:11Z</time>
      </trkpt>
      <trkpt lat="47.09207" lon="-1.73233">
        <ele>4.2</ele>
        <time>2021-12-24T07:26:12Z</time>
      </trkpt>
      <trkpt lat="47.09201" lon="-1.73238">
        <ele>4.2</ele>
        <time>2021-12-24T07:26:13Z</time>
      </trkpt>
      <trkpt lat="47.09189" lon="-1.73248">
        <ele>4</ele>
        <time>2021-12-24T07:26:15Z</time>
      </trkpt>
      <trkpt lat="47.09176" lon="-1.73257">
        <ele>3.8</ele>
        <time>2021-12-24T07:26:17Z</time>
      </trkpt>
      <trkpt lat="47.0917" lon="-1.73262">
        <ele>3.8</ele>
        <time>2021-12-24T07:26:18Z</time>
      </trkpt>
      <trkpt lat="47.09164" lon="-1.73267">
        <ele>3.8</ele>
        <time>2021-12-24T07:26:19Z</time>
      </trkpt>
      <trkpt lat="47.09152" lon="-1.73276">
        <ele>3.8</ele>
        <time>2021-12-24T07:26:21Z</time>
      </trkpt>
      <trkpt lat="47.0914" lon="-1.73284">
        <ele>3.6</ele>
        <time>2021-12-24T07:26:23Z</time>
      </trkpt>
      <trkpt lat="47.09128" lon="-1.73293">
        <ele>3.6</ele>
        <time>2021-12-24T07:26:25Z</time>
      </trkpt>
      <trkpt lat="47.09123" lon="-1.73298">
        <ele>3.6</ele>
        <time>2021-12-24T07:26:26Z</time>
      </trkpt>
      <trkpt lat="47.09117" lon="-1.73303">
        <ele>3.4</ele>
        <time>2021-12-24T07:26:27Z</time>
      </trkpt>
      <trkpt lat="47.09106" lon="-1.73314">
        <ele>3.4</ele>
        <time>2021-12-24T07:26:29Z</time>
      </trkpt>
      <trkpt lat="47.09095" lon="-1.73324">
        <ele>3.4</ele>
        <time>2021-12-24T07:26:31Z</time>
      </trkpt>
      <trkpt lat="47.09084" lon="-1.73333">
        <ele>3.2</ele>
        <time>2021-12-24T07:26:33Z</time>
      </trkpt>
      <trkpt lat="47.09079" lon="-1.73337">
        <ele>3.2</ele>
        <time>2021-12-24T07:26:34Z</time>
      </trkpt>
      <trkpt lat="47.09074" lon="-1.73342">
        <ele>3</ele>
        <time>2021-12-24T07:26:35Z</time>
      </trkpt>
      <trkpt lat="47.09066" lon="-1.7335">
        <ele>3</ele>
        <time>2021-12-24T07:26:37Z</time>
      </trkpt>
      <trkpt lat="47.09061" lon="-1.73354">
        <ele>2.6</ele>
        <time>2021-12-24T07:26:39Z</time>
      </trkpt>
      <trkpt lat="47.09059" lon="-1.73354">
        <ele>2.6</ele>
        <time>2021-12-24T07:26:40Z</time>
      </trkpt>
      <trkpt lat="47.09058" lon="-1.73353">
        <ele>2.4</ele>
        <time>2021-12-24T07:26:41Z</time>
      </trkpt>
      <trkpt lat="47.09056" lon="-1.7335">
        <ele>2.4</ele>
        <time>2021-12-24T07:26:42Z</time>
      </trkpt>
      <trkpt lat="47.09054" lon="-1.73347">
        <ele>2.2</ele>
        <time>2021-12-24T07:26:43Z</time>
      </trkpt>
      <trkpt lat="47.0905" lon="-1.7334">
        <ele>2</ele>
        <time>2021-12-24T07:26:45Z</time>
      </trkpt>
      <trkpt lat="47.09048" lon="-1.73335">
        <ele>1.8</ele>
        <time>2021-12-24T07:26:46Z</time>
      </trkpt>
      <trkpt lat="47.09046" lon="-1.73331">
        <ele>1.6</ele>
        <time>2021-12-24T07:26:47Z</time>
      </trkpt>
      <trkpt lat="47.09042" lon="-1.73322">
        <ele>1</ele>
        <time>2021-12-24T07:26:49Z</time>
      </trkpt>
      <trkpt lat="47.09038" lon="-1.73313">
        <ele>0.39999999999998</ele>
        <time>2021-12-24T07:26:51Z</time>
      </trkpt>
      <trkpt lat="47.09035" lon="-1.73308">
        <ele>0.19999999999999</ele>
        <time>2021-12-24T07:26:52Z</time>
      </trkpt>
      <trkpt lat="47.09033" lon="-1.73303">
        <ele>0.19999999999999</ele>
        <time>2021-12-24T07:26:53Z</time>
      </trkpt>
      <trkpt lat="47.09028" lon="-1.73293">
        <ele>-0.39999999999998</ele>
        <time>2021-12-24T07:26:55Z</time>
      </trkpt>
      <trkpt lat="47.09022" lon="-1.73284">
        <ele>-0.80000000000001</ele>
        <time>2021-12-24T07:26:57Z</time>
      </trkpt>
      <trkpt lat="47.09017" lon="-1.73273">
        <ele>-1.2</ele>
        <time>2021-12-24T07:26:59Z</time>
      </trkpt>
      <trkpt lat="47.09011" lon="-1.73263">
        <ele>-1.4</ele>
        <time>2021-12-24T07:27:01Z</time>
      </trkpt>
      <trkpt lat="47.09005" lon="-1.73252">
        <ele>-1.6</ele>
        <time>2021-12-24T07:27:03Z</time>
      </trkpt>
      <trkpt lat="47.08997" lon="-1.73244">
        <ele>-1.6</ele>
        <time>2021-12-24T07:27:05Z</time>
      </trkpt>
      <trkpt lat="47.0899" lon="-1.73239">
        <ele>-1.4</ele>
        <time>2021-12-24T07:27:07Z</time>
      </trkpt>
      <trkpt lat="47.08984" lon="-1.73233">
        <ele>-1.4</ele>
        <time>2021-12-24T07:27:09Z</time>
      </trkpt>
      <trkpt lat="47.08981" lon="-1.7323">
        <ele>-1.4</ele>
        <time>2021-12-24T07:27:10Z</time>
      </trkpt>
      <trkpt lat="47.08979" lon="-1.73228">
        <ele>-1.4</ele>
        <time>2021-12-24T07:27:11Z</time>
      </trkpt>
      <trkpt lat="47.08973" lon="-1.73225">
        <ele>-1.4</ele>
        <time>2021-12-24T07:27:13Z</time>
      </trkpt>
      <trkpt lat="47.08968" lon="-1.73222">
        <ele>-1.6</ele>
        <time>2021-12-24T07:27:15Z</time>
      </trkpt>
      <trkpt lat="47.08963" lon="-1.7322">
        <ele>-1.6</ele>
        <time>2021-12-24T07:27:17Z</time>
      </trkpt>
      <trkpt lat="47.0896" lon="-1.73219">
        <ele>-1.6</ele>
        <time>2021-12-24T07:27:19Z</time>
      </trkpt>
      <trkpt lat="47.0896" lon="-1.73219">
        <ele>-1.8</ele>
        <time>2021-12-24T07:27:21Z</time>
      </trkpt>
      <trkpt lat="47.0896" lon="-1.73219">
        <ele>-2</ele>
        <time>2021-12-24T07:27:23Z</time>
      </trkpt>
      <trkpt lat="47.0896" lon="-1.73219">
        <ele>-2</ele>
        <time>2021-12-24T07:27:24Z</time>
      </trkpt>
      <trkpt lat="47.08962" lon="-1.73217">
        <ele>-4</ele>
        <time>2021-12-24T07:30:43Z</time>
      </trkpt>
      <trkpt lat="47.08965" lon="-1.7322">
        <ele>-3.8</ele>
        <time>2021-12-24T07:30:45Z</time>
      </trkpt>
      <trkpt lat="47.0897" lon="-1.73222">
        <ele>-3.8</ele>
        <time>2021-12-24T07:30:47Z</time>
      </trkpt>
      <trkpt lat="47.08974" lon="-1.73225">
        <ele>-3.6</ele>
        <time>2021-12-24T07:30:49Z</time>
      </trkpt>
      <trkpt lat="47.0898" lon="-1.73228">
        <ele>-3.4</ele>
        <time>2021-12-24T07:30:51Z</time>
      </trkpt>
      <trkpt lat="47.08987" lon="-1.73233">
        <ele>-3.4</ele>
        <time>2021-12-24T07:30:53Z</time>
      </trkpt>
      <trkpt lat="47.08993" lon="-1.73238">
        <ele>-3.4</ele>
        <time>2021-12-24T07:30:55Z</time>
      </trkpt>
      <trkpt lat="47.08999" lon="-1.73245">
        <ele>-3.4</ele>
        <time>2021-12-24T07:30:57Z</time>
      </trkpt>
      <trkpt lat="47.09004" lon="-1.73253">
        <ele>-3.4</ele>
        <time>2021-12-24T07:30:59Z</time>
      </trkpt>
      <trkpt lat="47.09006" lon="-1.73257">
        <ele>-3.4</ele>
        <time>2021-12-24T07:31:00Z</time>
      </trkpt>
      <trkpt lat="47.09008" lon="-1.73261">
        <ele>-3.4</ele>
        <time>2021-12-24T07:31:01Z</time>
      </trkpt>
      <trkpt lat="47.09012" lon="-1.73268">
        <ele>-3.4</ele>
        <time>2021-12-24T07:31:03Z</time>
      </trkpt>
      <trkpt lat="47.09016" lon="-1.73275">
        <ele>-3.4</ele>
        <time>2021-12-24T07:31:05Z</time>
      </trkpt>
      <trkpt lat="47.09019" lon="-1.73282">
        <ele>-3.6</ele>
        <time>2021-12-24T07:31:07Z</time>
      </trkpt>
      <trkpt lat="47.09024" lon="-1.73289">
        <ele>-3.4</ele>
        <time>2021-12-24T07:31:09Z</time>
      </trkpt>
      <trkpt lat="47.09027" lon="-1.73295">
        <ele>-3.6</ele>
        <time>2021-12-24T07:31:11Z</time>
      </trkpt>
      <trkpt lat="47.09029" lon="-1.73299">
        <ele>-3.6</ele>
        <time>2021-12-24T07:31:12Z</time>
      </trkpt>
      <trkpt lat="47.0903" lon="-1.73302">
        <ele>-3.8</ele>
        <time>2021-12-24T07:31:13Z</time>
      </trkpt>
      <trkpt lat="47.09032" lon="-1.73305">
        <ele>-4</ele>
        <time>2021-12-24T07:31:14Z</time>
      </trkpt>
      <trkpt lat="47.09034" lon="-1.73308">
        <ele>-3.8</ele>
        <time>2021-12-24T07:31:15Z</time>
      </trkpt>
      <trkpt lat="47.09037" lon="-1.73314">
        <ele>-4</ele>
        <time>2021-12-24T07:31:17Z</time>
      </trkpt>
      <trkpt lat="47.09038" lon="-1.73318">
        <ele>-4.2</ele>
        <time>2021-12-24T07:31:18Z</time>
      </trkpt>
      <trkpt lat="47.09038" lon="-1.73324">
        <ele>-4.2</ele>
        <time>2021-12-24T07:31:19Z</time>
      </trkpt>
      <trkpt lat="47.09043" lon="-1.73333">
        <ele>-4.2</ele>
        <time>2021-12-24T07:31:21Z</time>
      </trkpt>
      <trkpt lat="47.09048" lon="-1.73339">
        <ele>-4.2</ele>
        <time>2021-12-24T07:31:23Z</time>
      </trkpt>
      <trkpt lat="47.0905" lon="-1.73342">
        <ele>-4.2</ele>
        <time>2021-12-24T07:31:24Z</time>
      </trkpt>
      <trkpt lat="47.09053" lon="-1.73345">
        <ele>-4</ele>
        <time>2021-12-24T07:31:25Z</time>
      </trkpt>
      <trkpt lat="47.09054" lon="-1.73349">
        <ele>-4.2</ele>
        <time>2021-12-24T07:31:26Z</time>
      </trkpt>
      <trkpt lat="47.09053" lon="-1.73353">
        <ele>-3.2</ele>
        <time>2021-12-24T07:31:27Z</time>
      </trkpt>
      <trkpt lat="47.09048" lon="-1.73361">
        <ele>-3.4</ele>
        <time>2021-12-24T07:31:29Z</time>
      </trkpt>
      <trkpt lat="47.0904" lon="-1.73369">
        <ele>-3.2</ele>
        <time>2021-12-24T07:31:31Z</time>
      </trkpt>
      <trkpt lat="47.09032" lon="-1.73376">
        <ele>-3.2</ele>
        <time>2021-12-24T07:31:33Z</time>
      </trkpt>
      <trkpt lat="47.09028" lon="-1.7338">
        <ele>-3.2</ele>
        <time>2021-12-24T07:31:34Z</time>
      </trkpt>
      <trkpt lat="47.09024" lon="-1.73384">
        <ele>-3.2</ele>
        <time>2021-12-24T07:31:35Z</time>
      </trkpt>
      <trkpt lat="47.09015" lon="-1.73392">
        <ele>-3.2</ele>
        <time>2021-12-24T07:31:37Z</time>
      </trkpt>
      <trkpt lat="47.0901" lon="-1.73396">
        <ele>-3</ele>
        <time>2021-12-24T07:31:38Z</time>
      </trkpt>
      <trkpt lat="47.09006" lon="-1.734">
        <ele>-3</ele>
        <time>2021-12-24T07:31:39Z</time>
      </trkpt>
      <trkpt lat="47.08997" lon="-1.73409">
        <ele>-3</ele>
        <time>2021-12-24T07:31:41Z</time>
      </trkpt>
      <trkpt lat="47.08989" lon="-1.73419">
        <ele>-3.2</ele>
        <time>2021-12-24T07:31:43Z</time>
      </trkpt>
      <trkpt lat="47.08982" lon="-1.73427">
        <ele>-3.2</ele>
        <time>2021-12-24T07:31:45Z</time>
      </trkpt>
      <trkpt lat="47.08975" lon="-1.73437">
        <ele>-3.2</ele>
        <time>2021-12-24T07:31:47Z</time>
      </trkpt>
      <trkpt lat="47.08967" lon="-1.73449">
        <ele>-3.2</ele>
        <time>2021-12-24T07:31:49Z</time>
      </trkpt>
      <trkpt lat="47.08964" lon="-1.73455">
        <ele>-3.2</ele>
        <time>2021-12-24T07:31:50Z</time>
      </trkpt>
      <trkpt lat="47.0896" lon="-1.73462">
        <ele>-3.2</ele>
        <time>2021-12-24T07:31:51Z</time>
      </trkpt>
      <trkpt lat="47.08954" lon="-1.73477">
        <ele>-3.2</ele>
        <time>2021-12-24T07:31:53Z</time>
      </trkpt>
      <trkpt lat="47.08948" lon="-1.73493">
        <ele>-3</ele>
        <time>2021-12-24T07:31:55Z</time>
      </trkpt>
      <trkpt lat="47.08944" lon="-1.7351">
        <ele>-3</ele>
        <time>2021-12-24T07:31:57Z</time>
      </trkpt>
      <trkpt lat="47.08939" lon="-1.73528">
        <ele>-2.8</ele>
        <time>2021-12-24T07:31:59Z</time>
      </trkpt>
      <trkpt lat="47.08935" lon="-1.73544">
        <ele>-2.6</ele>
        <time>2021-12-24T07:32:01Z</time>
      </trkpt>
      <trkpt lat="47.08931" lon="-1.73562">
        <ele>-2.6</ele>
        <time>2021-12-24T07:32:03Z</time>
      </trkpt>
      <trkpt lat="47.08928" lon="-1.73579">
        <ele>-2.4</ele>
        <time>2021-12-24T07:32:05Z</time>
      </trkpt>
      <trkpt lat="47.08925" lon="-1.73597">
        <ele>-2.4</ele>
        <time>2021-12-24T07:32:07Z</time>
      </trkpt>
      <trkpt lat="47.08922" lon="-1.73615">
        <ele>-2.2</ele>
        <time>2021-12-24T07:32:09Z</time>
      </trkpt>
      <trkpt lat="47.08919" lon="-1.73633">
        <ele>-2.2</ele>
        <time>2021-12-24T07:32:11Z</time>
      </trkpt>
      <trkpt lat="47.08915" lon="-1.73651">
        <ele>-2.2</ele>
        <time>2021-12-24T07:32:13Z</time>
      </trkpt>
      <trkpt lat="47.08909" lon="-1.73668">
        <ele>-2.2</ele>
        <time>2021-12-24T07:32:15Z</time>
      </trkpt>
      <trkpt lat="47.08901" lon="-1.73683">
        <ele>-2.2</ele>
        <time>2021-12-24T07:32:17Z</time>
      </trkpt>
      <trkpt lat="47.08894" lon="-1.73698">
        <ele>-2.2</ele>
        <time>2021-12-24T07:32:19Z</time>
      </trkpt>
      <trkpt lat="47.08886" lon="-1.73713">
        <ele>-2.2</ele>
        <time>2021-12-24T07:32:21Z</time>
      </trkpt>
      <trkpt lat="47.08879" lon="-1.73728">
        <ele>-2</ele>
        <time>2021-12-24T07:32:23Z</time>
      </trkpt>
      <trkpt lat="47.08873" lon="-1.73742">
        <ele>-2</ele>
        <time>2021-12-24T07:32:25Z</time>
      </trkpt>
      <trkpt lat="47.08866" lon="-1.73757">
        <ele>-1.8</ele>
        <time>2021-12-24T07:32:27Z</time>
      </trkpt>
      <trkpt lat="47.08858" lon="-1.73771">
        <ele>-1.6</ele>
        <time>2021-12-24T07:32:29Z</time>
      </trkpt>
      <trkpt lat="47.0885" lon="-1.73784">
        <ele>-1.4</ele>
        <time>2021-12-24T07:32:31Z</time>
      </trkpt>
      <trkpt lat="47.08841" lon="-1.73796">
        <ele>-1.2</ele>
        <time>2021-12-24T07:32:33Z</time>
      </trkpt>
      <trkpt lat="47.08832" lon="-1.73808">
        <ele>-1.2</ele>
        <time>2021-12-24T07:32:35Z</time>
      </trkpt>
      <trkpt lat="47.08827" lon="-1.73814">
        <ele>-1.2</ele>
        <time>2021-12-24T07:32:36Z</time>
      </trkpt>
      <trkpt lat="47.08822" lon="-1.73819">
        <ele>-1.2</ele>
        <time>2021-12-24T07:32:37Z</time>
      </trkpt>
      <trkpt lat="47.08813" lon="-1.73831">
        <ele>-1</ele>
        <time>2021-12-24T07:32:39Z</time>
      </trkpt>
      <trkpt lat="47.08803" lon="-1.73843">
        <ele>-1</ele>
        <time>2021-12-24T07:32:41Z</time>
      </trkpt>
      <trkpt lat="47.08794" lon="-1.73855">
        <ele>-1</ele>
        <time>2021-12-24T07:32:43Z</time>
      </trkpt>
      <trkpt lat="47.08789" lon="-1.73862">
        <ele>-1</ele>
        <time>2021-12-24T07:32:44Z</time>
      </trkpt>
      <trkpt lat="47.08785" lon="-1.73869">
        <ele>-1</ele>
        <time>2021-12-24T07:32:45Z</time>
      </trkpt>
      <trkpt lat="47.08778" lon="-1.73884">
        <ele>-0.80000000000001</ele>
        <time>2021-12-24T07:32:47Z</time>
      </trkpt>
      <trkpt lat="47.0877" lon="-1.73899">
        <ele>-0.80000000000001</ele>
        <time>2021-12-24T07:32:49Z</time>
      </trkpt>
      <trkpt lat="47.08763" lon="-1.73915">
        <ele>-0.60000000000002</ele>
        <time>2021-12-24T07:32:51Z</time>
      </trkpt>
      <trkpt lat="47.08755" lon="-1.7393">
        <ele>-0.60000000000002</ele>
        <time>2021-12-24T07:32:53Z</time>
      </trkpt>
      <trkpt lat="47.08747" lon="-1.73945">
        <ele>-0.39999999999998</ele>
        <time>2021-12-24T07:32:55Z</time>
      </trkpt>
      <trkpt lat="47.0874" lon="-1.7396">
        <ele>-0.39999999999998</ele>
        <time>2021-12-24T07:32:57Z</time>
      </trkpt>
      <trkpt lat="47.08732" lon="-1.73976">
        <ele>-0.39999999999998</ele>
        <time>2021-12-24T07:32:59Z</time>
      </trkpt>
      <trkpt lat="47.08725" lon="-1.73991">
        <ele>-0.19999999999999</ele>
        <time>2021-12-24T07:33:01Z</time>
      </trkpt>
      <trkpt lat="47.08717" lon="-1.74007">
        <ele>-0.19999999999999</ele>
        <time>2021-12-24T07:33:03Z</time>
      </trkpt>
      <trkpt lat="47.0871" lon="-1.74023">
        <ele>-0.19999999999999</ele>
        <time>2021-12-24T07:33:05Z</time>
      </trkpt>
      <trkpt lat="47.08707" lon="-1.74031">
        <ele>-0.19999999999999</ele>
        <time>2021-12-24T07:33:06Z</time>
      </trkpt>
      <trkpt lat="47.08704" lon="-1.74039">
        <ele>-0.19999999999999</ele>
        <time>2021-12-24T07:33:07Z</time>
      </trkpt>
      <trkpt lat="47.08697" lon="-1.74055">
        <ele>-0.19999999999999</ele>
        <time>2021-12-24T07:33:09Z</time>
      </trkpt>
      <trkpt lat="47.08691" lon="-1.74072">
        <ele>-0.19999999999999</ele>
        <time>2021-12-24T07:33:11Z</time>
      </trkpt>
      <trkpt lat="47.08687" lon="-1.74081">
        <ele>-0.19999999999999</ele>
        <time>2021-12-24T07:33:12Z</time>
      </trkpt>
      <trkpt lat="47.08684" lon="-1.74089">
        <ele>-0.19999999999999</ele>
        <time>2021-12-24T07:33:13Z</time>
      </trkpt>
      <trkpt lat="47.08677" lon="-1.74105">
        <ele>-0.19999999999999</ele>
        <time>2021-12-24T07:33:15Z</time>
      </trkpt>
      <trkpt lat="47.0867" lon="-1.74121">
        <ele>-0.19999999999999</ele>
        <time>2021-12-24T07:33:17Z</time>
      </trkpt>
      <trkpt lat="47.08663" lon="-1.74137">
        <ele>0.19999999999999</ele>
        <time>2021-12-24T07:33:19Z</time>
      </trkpt>
      <trkpt lat="47.08654" lon="-1.74152">
        <ele>0.19999999999999</ele>
        <time>2021-12-24T07:33:21Z</time>
      </trkpt>
      <trkpt lat="47.08645" lon="-1.74165">
        <ele>0.39999999999998</ele>
        <time>2021-12-24T07:33:23Z</time>
      </trkpt>
      <trkpt lat="47.08635" lon="-1.74178">
        <ele>0.39999999999998</ele>
        <time>2021-12-24T07:33:25Z</time>
      </trkpt>
      <trkpt lat="47.08624" lon="-1.74191">
        <ele>0.39999999999998</ele>
        <time>2021-12-24T07:33:27Z</time>
      </trkpt>
      <trkpt lat="47.08613" lon="-1.74203">
        <ele>0.39999999999998</ele>
        <time>2021-12-24T07:33:29Z</time>
      </trkpt>
      <trkpt lat="47.08607" lon="-1.7421">
        <ele>0.39999999999998</ele>
        <time>2021-12-24T07:33:30Z</time>
      </trkpt>
      <trkpt lat="47.08602" lon="-1.74217">
        <ele>0.39999999999998</ele>
        <time>2021-12-24T07:33:31Z</time>
      </trkpt>
      <trkpt lat="47.08591" lon="-1.7423">
        <ele>0.60000000000002</ele>
        <time>2021-12-24T07:33:33Z</time>
      </trkpt>
      <trkpt lat="47.08581" lon="-1.74243">
        <ele>0.60000000000002</ele>
        <time>2021-12-24T07:33:35Z</time>
      </trkpt>
      <trkpt lat="47.08571" lon="-1.74255">
        <ele>0.60000000000002</ele>
        <time>2021-12-24T07:33:37Z</time>
      </trkpt>
      <trkpt lat="47.08561" lon="-1.74267">
        <ele>0.60000000000002</ele>
        <time>2021-12-24T07:33:39Z</time>
      </trkpt>
      <trkpt lat="47.08552" lon="-1.7428">
        <ele>0.60000000000002</ele>
        <time>2021-12-24T07:33:41Z</time>
      </trkpt>
      <trkpt lat="47.08544" lon="-1.74296">
        <ele>0.60000000000002</ele>
        <time>2021-12-24T07:33:43Z</time>
      </trkpt>
      <trkpt lat="47.0854" lon="-1.74314">
        <ele>0.60000000000002</ele>
        <time>2021-12-24T07:33:45Z</time>
      </trkpt>
      <trkpt lat="47.08538" lon="-1.74332">
        <ele>0.60000000000002</ele>
        <time>2021-12-24T07:33:47Z</time>
      </trkpt>
      <trkpt lat="47.08535" lon="-1.74351">
        <ele>0.60000000000002</ele>
        <time>2021-12-24T07:33:49Z</time>
      </trkpt>
      <trkpt lat="47.08529" lon="-1.74369">
        <ele>0.60000000000002</ele>
        <time>2021-12-24T07:33:51Z</time>
      </trkpt>
      <trkpt lat="47.0852" lon="-1.74383">
        <ele>0.60000000000002</ele>
        <time>2021-12-24T07:33:53Z</time>
      </trkpt>
      <trkpt lat="47.08514" lon="-1.74389">
        <ele>0.80000000000001</ele>
        <time>2021-12-24T07:33:54Z</time>
      </trkpt>
      <trkpt lat="47.08509" lon="-1.74395">
        <ele>0.39999999999998</ele>
        <time>2021-12-24T07:33:55Z</time>
      </trkpt>
      <trkpt lat="47.08498" lon="-1.74407">
        <ele>0.39999999999998</ele>
        <time>2021-12-24T07:33:57Z</time>
      </trkpt>
      <trkpt lat="47.08488" lon="-1.7442">
        <ele>0.19999999999999</ele>
        <time>2021-12-24T07:33:59Z</time>
      </trkpt>
      <trkpt lat="47.08478" lon="-1.74433">
        <ele>0.19999999999999</ele>
        <time>2021-12-24T07:34:01Z</time>
      </trkpt>
      <trkpt lat="47.08467" lon="-1.74445">
        <ele>0.19999999999999</ele>
        <time>2021-12-24T07:34:03Z</time>
      </trkpt>
      <trkpt lat="47.08457" lon="-1.74458">
        <ele>-0.19999999999999</ele>
        <time>2021-12-24T07:34:05Z</time>
      </trkpt>
      <trkpt lat="47.08451" lon="-1.74464">
        <ele>-0.39999999999998</ele>
        <time>2021-12-24T07:34:06Z</time>
      </trkpt>
      <trkpt lat="47.08445" lon="-1.74471">
        <ele>-0.19999999999999</ele>
        <time>2021-12-24T07:34:07Z</time>
      </trkpt>
      <trkpt lat="47.08434" lon="-1.74484">
        <ele>-0.39999999999998</ele>
        <time>2021-12-24T07:34:09Z</time>
      </trkpt>
      <trkpt lat="47.08424" lon="-1.74496">
        <ele>-0.60000000000002</ele>
        <time>2021-12-24T07:34:11Z</time>
      </trkpt>
      <trkpt lat="47.08413" lon="-1.74508">
        <ele>-0.80000000000001</ele>
        <time>2021-12-24T07:34:13Z</time>
      </trkpt>
      <trkpt lat="47.08403" lon="-1.74521">
        <ele>-0.80000000000001</ele>
        <time>2021-12-24T07:34:15Z</time>
      </trkpt>
      <trkpt lat="47.08393" lon="-1.74533">
        <ele>-1</ele>
        <time>2021-12-24T07:34:17Z</time>
      </trkpt>
      <trkpt lat="47.08388" lon="-1.74539">
        <ele>-1</ele>
        <time>2021-12-24T07:34:18Z</time>
      </trkpt>
      <trkpt lat="47.08383" lon="-1.74546">
        <ele>-1</ele>
        <time>2021-12-24T07:34:19Z</time>
      </trkpt>
      <trkpt lat="47.08372" lon="-1.74557">
        <ele>-1.2</ele>
        <time>2021-12-24T07:34:21Z</time>
      </trkpt>
      <trkpt lat="47.08367" lon="-1.7456">
        <ele>-1.2</ele>
        <time>2021-12-24T07:34:22Z</time>
      </trkpt>
      <trkpt lat="47.08362" lon="-1.74563">
        <ele>-1.4</ele>
        <time>2021-12-24T07:34:23Z</time>
      </trkpt>
      <trkpt lat="47.08351" lon="-1.74569">
        <ele>-1.6</ele>
        <time>2021-12-24T07:34:25Z</time>
      </trkpt>
      <trkpt lat="47.08337" lon="-1.74578">
        <ele>-1.8</ele>
        <time>2021-12-24T07:34:27Z</time>
      </trkpt>
      <trkpt lat="47.08324" lon="-1.74586">
        <ele>-2</ele>
        <time>2021-12-24T07:34:29Z</time>
      </trkpt>
      <trkpt lat="47.08312" lon="-1.74596">
        <ele>-2.4</ele>
        <time>2021-12-24T07:34:31Z</time>
      </trkpt>
      <trkpt lat="47.083" lon="-1.74608">
        <ele>-2.6</ele>
        <time>2021-12-24T07:34:33Z</time>
      </trkpt>
      <trkpt lat="47.0829" lon="-1.74621">
        <ele>-2.8</ele>
        <time>2021-12-24T07:34:35Z</time>
      </trkpt>
      <trkpt lat="47.08285" lon="-1.74627">
        <ele>-2.8</ele>
        <time>2021-12-24T07:34:36Z</time>
      </trkpt>
      <trkpt lat="47.0828" lon="-1.74632">
        <ele>-3</ele>
        <time>2021-12-24T07:34:37Z</time>
      </trkpt>
      <trkpt lat="47.0827" lon="-1.74646">
        <ele>-3.2</ele>
        <time>2021-12-24T07:34:39Z</time>
      </trkpt>
      <trkpt lat="47.08261" lon="-1.7466">
        <ele>-3.4</ele>
        <time>2021-12-24T07:34:41Z</time>
      </trkpt>
      <trkpt lat="47.08251" lon="-1.74674">
        <ele>-3.6</ele>
        <time>2021-12-24T07:34:43Z</time>
      </trkpt>
      <trkpt lat="47.08242" lon="-1.74689">
        <ele>-4</ele>
        <time>2021-12-24T07:34:45Z</time>
      </trkpt>
      <trkpt lat="47.08233" lon="-1.74703">
        <ele>-4.2</ele>
        <time>2021-12-24T07:34:47Z</time>
      </trkpt>
      <trkpt lat="47.08228" lon="-1.7471">
        <ele>-4.4</ele>
        <time>2021-12-24T07:34:48Z</time>
      </trkpt>
      <trkpt lat="47.08224" lon="-1.74718">
        <ele>-4.4</ele>
        <time>2021-12-24T07:34:49Z</time>
      </trkpt>
      <trkpt lat="47.08221" lon="-1.74727">
        <ele>-4.6</ele>
        <time>2021-12-24T07:34:50Z</time>
      </trkpt>
      <trkpt lat="47.08217" lon="-1.74736">
        <ele>-4.6</ele>
        <time>2021-12-24T07:34:51Z</time>
      </trkpt>
      <trkpt lat="47.08214" lon="-1.74745">
        <ele>-4.8</ele>
        <time>2021-12-24T07:34:52Z</time>
      </trkpt>
      <trkpt lat="47.08212" lon="-1.74755">
        <ele>-4.6</ele>
        <time>2021-12-24T07:34:53Z</time>
      </trkpt>
      <trkpt lat="47.08207" lon="-1.74775">
        <ele>-4.4</ele>
        <time>2021-12-24T07:34:55Z</time>
      </trkpt>
      <trkpt lat="47.08204" lon="-1.74793">
        <ele>-4.4</ele>
        <time>2021-12-24T07:34:57Z</time>
      </trkpt>
      <trkpt lat="47.08203" lon="-1.74802">
        <ele>-4.4</ele>
        <time>2021-12-24T07:34:58Z</time>
      </trkpt>
      <trkpt lat="47.082" lon="-1.74811">
        <ele>-4.4</ele>
        <time>2021-12-24T07:34:59Z</time>
      </trkpt>
      <trkpt lat="47.08196" lon="-1.7482">
        <ele>-4.4</ele>
        <time>2021-12-24T07:35:00Z</time>
      </trkpt>
      <trkpt lat="47.08191" lon="-1.74829">
        <ele>-4.2</ele>
        <time>2021-12-24T07:35:01Z</time>
      </trkpt>
      <trkpt lat="47.08179" lon="-1.74843">
        <ele>-4.4</ele>
        <time>2021-12-24T07:35:03Z</time>
      </trkpt>
      <trkpt lat="47.08167" lon="-1.74853">
        <ele>-4.6</ele>
        <time>2021-12-24T07:35:05Z</time>
      </trkpt>
      <trkpt lat="47.0816" lon="-1.74859">
        <ele>-4.2</ele>
        <time>2021-12-24T07:35:06Z</time>
      </trkpt>
      <trkpt lat="47.08154" lon="-1.74863">
        <ele>-4.4</ele>
        <time>2021-12-24T07:35:07Z</time>
      </trkpt>
      <trkpt lat="47.08142" lon="-1.74871">
        <ele>-4.4</ele>
        <time>2021-12-24T07:35:09Z</time>
      </trkpt>
      <trkpt lat="47.08129" lon="-1.74877">
        <ele>-4</ele>
        <time>2021-12-24T07:35:11Z</time>
      </trkpt>
      <trkpt lat="47.08116" lon="-1.74881">
        <ele>-4</ele>
        <time>2021-12-24T07:35:13Z</time>
      </trkpt>
      <trkpt lat="47.08103" lon="-1.74885">
        <ele>-4</ele>
        <time>2021-12-24T07:35:15Z</time>
      </trkpt>
      <trkpt lat="47.08096" lon="-1.74888">
        <ele>-4.2</ele>
        <time>2021-12-24T07:35:16Z</time>
      </trkpt>
      <trkpt lat="47.08089" lon="-1.74892">
        <ele>-4.4</ele>
        <time>2021-12-24T07:35:17Z</time>
      </trkpt>
      <trkpt lat="47.08077" lon="-1.74902">
        <ele>-4.8</ele>
        <time>2021-12-24T07:35:19Z</time>
      </trkpt>
      <trkpt lat="47.08071" lon="-1.74908">
        <ele>-4.6</ele>
        <time>2021-12-24T07:35:20Z</time>
      </trkpt>
      <trkpt lat="47.08066" lon="-1.74914">
        <ele>-4.6</ele>
        <time>2021-12-24T07:35:21Z</time>
      </trkpt>
      <trkpt lat="47.0806" lon="-1.7492">
        <ele>-4.8</ele>
        <time>2021-12-24T07:35:22Z</time>
      </trkpt>
      <trkpt lat="47.08055" lon="-1.74926">
        <ele>-4.6</ele>
        <time>2021-12-24T07:35:23Z</time>
      </trkpt>
      <trkpt lat="47.08045" lon="-1.74934">
        <ele>-4.8</ele>
        <time>2021-12-24T07:35:25Z</time>
      </trkpt>
      <trkpt lat="47.08039" lon="-1.74938">
        <ele>-4.6</ele>
        <time>2021-12-24T07:35:26Z</time>
      </trkpt>
      <trkpt lat="47.08033" lon="-1.74942">
        <ele>-4.8</ele>
        <time>2021-12-24T07:35:27Z</time>
      </trkpt>
      <trkpt lat="47.08021" lon="-1.7495">
        <ele>-5</ele>
        <time>2021-12-24T07:35:29Z</time>
      </trkpt>
      <trkpt lat="47.08009" lon="-1.74957">
        <ele>-5.4</ele>
        <time>2021-12-24T07:35:31Z</time>
      </trkpt>
      <trkpt lat="47.07997" lon="-1.74965">
        <ele>-6</ele>
        <time>2021-12-24T07:35:33Z</time>
      </trkpt>
      <trkpt lat="47.07984" lon="-1.74973">
        <ele>-6.4</ele>
        <time>2021-12-24T07:35:35Z</time>
      </trkpt>
      <trkpt lat="47.07973" lon="-1.74981">
        <ele>-6.8</ele>
        <time>2021-12-24T07:35:37Z</time>
      </trkpt>
      <trkpt lat="47.07961" lon="-1.74989">
        <ele>-7.2</ele>
        <time>2021-12-24T07:35:39Z</time>
      </trkpt>
      <trkpt lat="47.07949" lon="-1.74996">
        <ele>-7.6</ele>
        <time>2021-12-24T07:35:41Z</time>
      </trkpt>
      <trkpt lat="47.07938" lon="-1.75004">
        <ele>-8</ele>
        <time>2021-12-24T07:35:43Z</time>
      </trkpt>
      <trkpt lat="47.07927" lon="-1.75015">
        <ele>-8.2</ele>
        <time>2021-12-24T07:35:45Z</time>
      </trkpt>
      <trkpt lat="47.07916" lon="-1.75025">
        <ele>-8.6</ele>
        <time>2021-12-24T07:35:47Z</time>
      </trkpt>
      <trkpt lat="47.07904" lon="-1.75034">
        <ele>-8.8</ele>
        <time>2021-12-24T07:35:49Z</time>
      </trkpt>
      <trkpt lat="47.0789" lon="-1.75038">
        <ele>-8.8</ele>
        <time>2021-12-24T07:35:51Z</time>
      </trkpt>
      <trkpt lat="47.07877" lon="-1.75043">
        <ele>-8.8</ele>
        <time>2021-12-24T07:35:53Z</time>
      </trkpt>
      <trkpt lat="47.0787" lon="-1.75046">
        <ele>-8.6</ele>
        <time>2021-12-24T07:35:54Z</time>
      </trkpt>
      <trkpt lat="47.07864" lon="-1.75049">
        <ele>-8.4</ele>
        <time>2021-12-24T07:35:55Z</time>
      </trkpt>
      <trkpt lat="47.07857" lon="-1.75052">
        <ele>-8.2</ele>
        <time>2021-12-24T07:35:56Z</time>
      </trkpt>
      <trkpt lat="47.07851" lon="-1.75054">
        <ele>-8</ele>
        <time>2021-12-24T07:35:57Z</time>
      </trkpt>
      <trkpt lat="47.07838" lon="-1.75056">
        <ele>-8.8</ele>
        <time>2021-12-24T07:35:59Z</time>
      </trkpt>
      <trkpt lat="47.07825" lon="-1.75058">
        <ele>-6.8</ele>
        <time>2021-12-24T07:36:01Z</time>
      </trkpt>
      <trkpt lat="47.07819" lon="-1.75058">
        <ele>-6</ele>
        <time>2021-12-24T07:36:02Z</time>
      </trkpt>
      <trkpt lat="47.07813" lon="-1.75059">
        <ele>-5.6</ele>
        <time>2021-12-24T07:36:03Z</time>
      </trkpt>
      <trkpt lat="47.07801" lon="-1.75058">
        <ele>-7</ele>
        <time>2021-12-24T07:36:05Z</time>
      </trkpt>
      <trkpt lat="47.0779" lon="-1.75059">
        <ele>-6.8</ele>
        <time>2021-12-24T07:36:07Z</time>
      </trkpt>
      <trkpt lat="47.07784" lon="-1.75059">
        <ele>-7</ele>
        <time>2021-12-24T07:36:08Z</time>
      </trkpt>
      <trkpt lat="47.07779" lon="-1.75058">
        <ele>-7</ele>
        <time>2021-12-24T07:36:09Z</time>
      </trkpt>
      <trkpt lat="47.07767" lon="-1.75059">
        <ele>-7</ele>
        <time>2021-12-24T07:36:11Z</time>
      </trkpt>
      <trkpt lat="47.07754" lon="-1.7506">
        <ele>-6.8</ele>
        <time>2021-12-24T07:36:13Z</time>
      </trkpt>
      <trkpt lat="47.07742" lon="-1.75061">
        <ele>-6.8</ele>
        <time>2021-12-24T07:36:15Z</time>
      </trkpt>
      <trkpt lat="47.0773" lon="-1.75062">
        <ele>-6.4</ele>
        <time>2021-12-24T07:36:17Z</time>
      </trkpt>
      <trkpt lat="47.0772" lon="-1.75062">
        <ele>-6.4</ele>
        <time>2021-12-24T07:36:19Z</time>
      </trkpt>
      <trkpt lat="47.07718" lon="-1.75061">
        <ele>-6.2</ele>
        <time>2021-12-24T07:36:20Z</time>
      </trkpt>
      <trkpt lat="47.07716" lon="-1.75056">
        <ele>-6.2</ele>
        <time>2021-12-24T07:36:21Z</time>
      </trkpt>
      <trkpt lat="47.07716" lon="-1.75043">
        <ele>-6</ele>
        <time>2021-12-24T07:36:23Z</time>
      </trkpt>
      <trkpt lat="47.07718" lon="-1.75028">
        <ele>-5.8</ele>
        <time>2021-12-24T07:36:25Z</time>
      </trkpt>
      <trkpt lat="47.07719" lon="-1.75013">
        <ele>-5.6</ele>
        <time>2021-12-24T07:36:27Z</time>
      </trkpt>
      <trkpt lat="47.07721" lon="-1.74997">
        <ele>-5.4</ele>
        <time>2021-12-24T07:36:29Z</time>
      </trkpt>
      <trkpt lat="47.07722" lon="-1.74981">
        <ele>-5.4</ele>
        <time>2021-12-24T07:36:31Z</time>
      </trkpt>
      <trkpt lat="47.07724" lon="-1.74965">
        <ele>-5.2</ele>
        <time>2021-12-24T07:36:33Z</time>
      </trkpt>
      <trkpt lat="47.07725" lon="-1.74948">
        <ele>-5.2</ele>
        <time>2021-12-24T07:36:35Z</time>
      </trkpt>
      <trkpt lat="47.07726" lon="-1.7494">
        <ele>-5.2</ele>
        <time>2021-12-24T07:36:36Z</time>
      </trkpt>
      <trkpt lat="47.07727" lon="-1.74931">
        <ele>-5.2</ele>
        <time>2021-12-24T07:36:37Z</time>
      </trkpt>
      <trkpt lat="47.07728" lon="-1.74914">
        <ele>-5.2</ele>
        <time>2021-12-24T07:36:39Z</time>
      </trkpt>
      <trkpt lat="47.0773" lon="-1.74897">
        <ele>-5.2</ele>
        <time>2021-12-24T07:36:41Z</time>
      </trkpt>
      <trkpt lat="47.0773" lon="-1.74889">
        <ele>-5.2</ele>
        <time>2021-12-24T07:36:42Z</time>
      </trkpt>
      <trkpt lat="47.07731" lon="-1.7488">
        <ele>-5.4</ele>
        <time>2021-12-24T07:36:43Z</time>
      </trkpt>
      <trkpt lat="47.07732" lon="-1.74864">
        <ele>-5.4</ele>
        <time>2021-12-24T07:36:45Z</time>
      </trkpt>
      <trkpt lat="47.07733" lon="-1.74852">
        <ele>-5.2</ele>
        <time>2021-12-24T07:36:47Z</time>
      </trkpt>
      <trkpt lat="47.07734" lon="-1.74846">
        <ele>-5.8</ele>
        <time>2021-12-24T07:36:48Z</time>
      </trkpt>
      <trkpt lat="47.07734" lon="-1.7484">
        <ele>-6.4</ele>
        <time>2021-12-24T07:36:49Z</time>
      </trkpt>
      <trkpt lat="47.07733" lon="-1.74836">
        <ele>-6</ele>
        <time>2021-12-24T07:36:50Z</time>
      </trkpt>
      <trkpt lat="47.07731" lon="-1.74832">
        <ele>-6</ele>
        <time>2021-12-24T07:36:51Z</time>
      </trkpt>
      <trkpt lat="47.07725" lon="-1.74831">
        <ele>-6.2</ele>
        <time>2021-12-24T07:36:53Z</time>
      </trkpt>
      <trkpt lat="47.07718" lon="-1.74833">
        <ele>-6.4</ele>
        <time>2021-12-24T07:36:55Z</time>
      </trkpt>
      <trkpt lat="47.07711" lon="-1.74839">
        <ele>-6.8</ele>
        <time>2021-12-24T07:36:57Z</time>
      </trkpt>
      <trkpt lat="47.07703" lon="-1.74844">
        <ele>-7</ele>
        <time>2021-12-24T07:36:59Z</time>
      </trkpt>
      <trkpt lat="47.07695" lon="-1.74849">
        <ele>-7.4</ele>
        <time>2021-12-24T07:37:01Z</time>
      </trkpt>
      <trkpt lat="47.0769" lon="-1.7485">
        <ele>-7.8</ele>
        <time>2021-12-24T07:37:02Z</time>
      </trkpt>
      <trkpt lat="47.07686" lon="-1.74851">
        <ele>-8</ele>
        <time>2021-12-24T07:37:03Z</time>
      </trkpt>
      <trkpt lat="47.07678" lon="-1.74853">
        <ele>-8.6</ele>
        <time>2021-12-24T07:37:05Z</time>
      </trkpt>
      <trkpt lat="47.07669" lon="-1.74856">
        <ele>-9.2</ele>
        <time>2021-12-24T07:37:07Z</time>
      </trkpt>
      <trkpt lat="47.0766" lon="-1.74858">
        <ele>-9.6</ele>
        <time>2021-12-24T07:37:09Z</time>
      </trkpt>
      <trkpt lat="47.07652" lon="-1.7486">
        <ele>-10.2</ele>
        <time>2021-12-24T07:37:11Z</time>
      </trkpt>
      <trkpt lat="47.07648" lon="-1.74861">
        <ele>-10.6</ele>
        <time>2021-12-24T07:37:12Z</time>
      </trkpt>
      <trkpt lat="47.07643" lon="-1.74861">
        <ele>-10.8</ele>
        <time>2021-12-24T07:37:13Z</time>
      </trkpt>
      <trkpt lat="47.07634" lon="-1.74863">
        <ele>-11.6</ele>
        <time>2021-12-24T07:37:15Z</time>
      </trkpt>
      <trkpt lat="47.07626" lon="-1.74863">
        <ele>-12.2</ele>
        <time>2021-12-24T07:37:17Z</time>
      </trkpt>
      <trkpt lat="47.07617" lon="-1.74862">
        <ele>-13</ele>
        <time>2021-12-24T07:37:19Z</time>
      </trkpt>
      <trkpt lat="47.07612" lon="-1.74861">
        <ele>-13.4</ele>
        <time>2021-12-24T07:37:20Z</time>
      </trkpt>
      <trkpt lat="47.07608" lon="-1.74862">
        <ele>-13.8</ele>
        <time>2021-12-24T07:37:21Z</time>
      </trkpt>
      <trkpt lat="47.07598" lon="-1.74861">
        <ele>-14.6</ele>
        <time>2021-12-24T07:37:23Z</time>
      </trkpt>
      <trkpt lat="47.07587" lon="-1.74859">
        <ele>-15.6</ele>
        <time>2021-12-24T07:37:25Z</time>
      </trkpt>
      <trkpt lat="47.07576" lon="-1.74859">
        <ele>-16.4</ele>
        <time>2021-12-24T07:37:27Z</time>
      </trkpt>
      <trkpt lat="47.07565" lon="-1.74859">
        <ele>-17.2</ele>
        <time>2021-12-24T07:37:29Z</time>
      </trkpt>
      <trkpt lat="47.07554" lon="-1.74861">
        <ele>-18</ele>
        <time>2021-12-24T07:37:31Z</time>
      </trkpt>
      <trkpt lat="47.07548" lon="-1.74863">
        <ele>-18.2</ele>
        <time>2021-12-24T07:37:32Z</time>
      </trkpt>
      <trkpt lat="47.07543" lon="-1.74865">
        <ele>-18.6</ele>
        <time>2021-12-24T07:37:33Z</time>
      </trkpt>
      <trkpt lat="47.07532" lon="-1.74869">
        <ele>-19.2</ele>
        <time>2021-12-24T07:37:35Z</time>
      </trkpt>
      <trkpt lat="47.0752" lon="-1.74872">
        <ele>-19.8</ele>
        <time>2021-12-24T07:37:37Z</time>
      </trkpt>
      <trkpt lat="47.07508" lon="-1.74875">
        <ele>-20.6</ele>
        <time>2021-12-24T07:37:39Z</time>
      </trkpt>
      <trkpt lat="47.07503" lon="-1.74877">
        <ele>-21</ele>
        <time>2021-12-24T07:37:40Z</time>
      </trkpt>
      <trkpt lat="47.07497" lon="-1.74878">
        <ele>-21.4</ele>
        <time>2021-12-24T07:37:41Z</time>
      </trkpt>
      <trkpt lat="47.07486" lon="-1.7488">
        <ele>-22.2</ele>
        <time>2021-12-24T07:37:43Z</time>
      </trkpt>
      <trkpt lat="47.07476" lon="-1.74882">
        <ele>-23.2</ele>
        <time>2021-12-24T07:37:45Z</time>
      </trkpt>
      <trkpt lat="47.07465" lon="-1.74885">
        <ele>-24.2</ele>
        <time>2021-12-24T07:37:47Z</time>
      </trkpt>
      <trkpt lat="47.07455" lon="-1.74889">
        <ele>-25</ele>
        <time>2021-12-24T07:37:49Z</time>
      </trkpt>
      <trkpt lat="47.0745" lon="-1.74891">
        <ele>-25.6</ele>
        <time>2021-12-24T07:37:50Z</time>
      </trkpt>
      <trkpt lat="47.07445" lon="-1.74892">
        <ele>-26</ele>
        <time>2021-12-24T07:37:51Z</time>
      </trkpt>
      <trkpt lat="47.07435" lon="-1.74893">
        <ele>-27</ele>
        <time>2021-12-24T07:37:53Z</time>
      </trkpt>
      <trkpt lat="47.07423" lon="-1.74892">
        <ele>-27.8</ele>
        <time>2021-12-24T07:37:55Z</time>
      </trkpt>
      <trkpt lat="47.07416" lon="-1.74891">
        <ele>-28</ele>
        <time>2021-12-24T07:37:56Z</time>
      </trkpt>
      <trkpt lat="47.0741" lon="-1.7489">
        <ele>-28.2</ele>
        <time>2021-12-24T07:37:57Z</time>
      </trkpt>
      <trkpt lat="47.07399" lon="-1.74889">
        <ele>-28.6</ele>
        <time>2021-12-24T07:37:59Z</time>
      </trkpt>
      <trkpt lat="47.07388" lon="-1.74886">
        <ele>-29</ele>
        <time>2021-12-24T07:38:01Z</time>
      </trkpt>
      <trkpt lat="47.07377" lon="-1.74884">
        <ele>-29.4</ele>
        <time>2021-12-24T07:38:03Z</time>
      </trkpt>
      <trkpt lat="47.07371" lon="-1.74883">
        <ele>-29.6</ele>
        <time>2021-12-24T07:38:04Z</time>
      </trkpt>
      <trkpt lat="47.07365" lon="-1.74882">
        <ele>-29.8</ele>
        <time>2021-12-24T07:38:05Z</time>
      </trkpt>
      <trkpt lat="47.07352" lon="-1.74881">
        <ele>-30</ele>
        <time>2021-12-24T07:38:07Z</time>
      </trkpt>
      <trkpt lat="47.07341" lon="-1.74881">
        <ele>-30.2</ele>
        <time>2021-12-24T07:38:09Z</time>
      </trkpt>
      <trkpt lat="47.07336" lon="-1.74881">
        <ele>-30.2</ele>
        <time>2021-12-24T07:38:10Z</time>
      </trkpt>
      <trkpt lat="47.07331" lon="-1.7488">
        <ele>-30.4</ele>
        <time>2021-12-24T07:38:11Z</time>
      </trkpt>
      <trkpt lat="47.0732" lon="-1.74879">
        <ele>-30.6</ele>
        <time>2021-12-24T07:38:13Z</time>
      </trkpt>
      <trkpt lat="47.07314" lon="-1.74878">
        <ele>-30.8</ele>
        <time>2021-12-24T07:38:14Z</time>
      </trkpt>
      <trkpt lat="47.07308" lon="-1.74876">
        <ele>-31</ele>
        <time>2021-12-24T07:38:15Z</time>
      </trkpt>
      <trkpt lat="47.07302" lon="-1.74876">
        <ele>-31.4</ele>
        <time>2021-12-24T07:38:16Z</time>
      </trkpt>
      <trkpt lat="47.07296" lon="-1.74875">
        <ele>-31.4</ele>
        <time>2021-12-24T07:38:17Z</time>
      </trkpt>
      <trkpt lat="47.07285" lon="-1.74874">
        <ele>-31.8</ele>
        <time>2021-12-24T07:38:19Z</time>
      </trkpt>
      <trkpt lat="47.07272" lon="-1.74873">
        <ele>-31.4</ele>
        <time>2021-12-24T07:38:21Z</time>
      </trkpt>
      <trkpt lat="47.0726" lon="-1.74876">
        <ele>-31.6</ele>
        <time>2021-12-24T07:38:23Z</time>
      </trkpt>
      <trkpt lat="47.07249" lon="-1.74876">
        <ele>-30.6</ele>
        <time>2021-12-24T07:38:25Z</time>
      </trkpt>
      <trkpt lat="47.07237" lon="-1.74871">
        <ele>-28.8</ele>
        <time>2021-12-24T07:38:27Z</time>
      </trkpt>
      <trkpt lat="47.07224" lon="-1.7487">
        <ele>-28</ele>
        <time>2021-12-24T07:38:29Z</time>
      </trkpt>
      <trkpt lat="47.07212" lon="-1.74868">
        <ele>-27.2</ele>
        <time>2021-12-24T07:38:31Z</time>
      </trkpt>
      <trkpt lat="47.07206" lon="-1.74865">
        <ele>-26.8</ele>
        <time>2021-12-24T07:38:32Z</time>
      </trkpt>
      <trkpt lat="47.07199" lon="-1.74863">
        <ele>-26.6</ele>
        <time>2021-12-24T07:38:33Z</time>
      </trkpt>
      <trkpt lat="47.07187" lon="-1.7486">
        <ele>-26.2</ele>
        <time>2021-12-24T07:38:35Z</time>
      </trkpt>
      <trkpt lat="47.07175" lon="-1.74857">
        <ele>-25.6</ele>
        <time>2021-12-24T07:38:37Z</time>
      </trkpt>
      <trkpt lat="47.07163" lon="-1.74856">
        <ele>-25</ele>
        <time>2021-12-24T07:38:39Z</time>
      </trkpt>
      <trkpt lat="47.07151" lon="-1.74853">
        <ele>-24.4</ele>
        <time>2021-12-24T07:38:41Z</time>
      </trkpt>
      <trkpt lat="47.07145" lon="-1.74852">
        <ele>-24.2</ele>
        <time>2021-12-24T07:38:42Z</time>
      </trkpt>
      <trkpt lat="47.07138" lon="-1.74848">
        <ele>-24</ele>
        <time>2021-12-24T07:38:43Z</time>
      </trkpt>
      <trkpt lat="47.07126" lon="-1.74843">
        <ele>-23.8</ele>
        <time>2021-12-24T07:38:45Z</time>
      </trkpt>
      <trkpt lat="47.07113" lon="-1.7484">
        <ele>-23.4</ele>
        <time>2021-12-24T07:38:47Z</time>
      </trkpt>
      <trkpt lat="47.07107" lon="-1.7484">
        <ele>-23.4</ele>
        <time>2021-12-24T07:38:48Z</time>
      </trkpt>
      <trkpt lat="47.07101" lon="-1.74839">
        <ele>-23.2</ele>
        <time>2021-12-24T07:38:49Z</time>
      </trkpt>
      <trkpt lat="47.07089" lon="-1.74839">
        <ele>-22.8</ele>
        <time>2021-12-24T07:38:51Z</time>
      </trkpt>
      <trkpt lat="47.07077" lon="-1.7484">
        <ele>-22.6</ele>
        <time>2021-12-24T07:38:53Z</time>
      </trkpt>
      <trkpt lat="47.07071" lon="-1.74839">
        <ele>-22.4</ele>
        <time>2021-12-24T07:38:54Z</time>
      </trkpt>
      <trkpt lat="47.07065" lon="-1.74839">
        <ele>-22.2</ele>
        <time>2021-12-24T07:38:55Z</time>
      </trkpt>
      <trkpt lat="47.07053" lon="-1.74839">
        <ele>-21.8</ele>
        <time>2021-12-24T07:38:57Z</time>
      </trkpt>
      <trkpt lat="47.07041" lon="-1.7484">
        <ele>-21.6</ele>
        <time>2021-12-24T07:38:59Z</time>
      </trkpt>
      <trkpt lat="47.07035" lon="-1.74841">
        <ele>-21.4</ele>
        <time>2021-12-24T07:39:00Z</time>
      </trkpt>
      <trkpt lat="47.07029" lon="-1.74843">
        <ele>-21.4</ele>
        <time>2021-12-24T07:39:01Z</time>
      </trkpt>
      <trkpt lat="47.07017" lon="-1.74848">
        <ele>-21.2</ele>
        <time>2021-12-24T07:39:03Z</time>
      </trkpt>
      <trkpt lat="47.07004" lon="-1.74854">
        <ele>-21</ele>
        <time>2021-12-24T07:39:05Z</time>
      </trkpt>
      <trkpt lat="47.06993" lon="-1.74861">
        <ele>-20.8</ele>
        <time>2021-12-24T07:39:07Z</time>
      </trkpt>
      <trkpt lat="47.06981" lon="-1.74866">
        <ele>-20.6</ele>
        <time>2021-12-24T07:39:09Z</time>
      </trkpt>
      <trkpt lat="47.06975" lon="-1.74866">
        <ele>-20.4</ele>
        <time>2021-12-24T07:39:10Z</time>
      </trkpt>
      <trkpt lat="47.06969" lon="-1.74866">
        <ele>-20.4</ele>
        <time>2021-12-24T07:39:11Z</time>
      </trkpt>
      <trkpt lat="47.06957" lon="-1.74866">
        <ele>-20.2</ele>
        <time>2021-12-24T07:39:13Z</time>
      </trkpt>
      <trkpt lat="47.06944" lon="-1.74866">
        <ele>-20.2</ele>
        <time>2021-12-24T07:39:15Z</time>
      </trkpt>
      <trkpt lat="47.06938" lon="-1.74866">
        <ele>-20</ele>
        <time>2021-12-24T07:39:16Z</time>
      </trkpt>
      <trkpt lat="47.06933" lon="-1.74866">
        <ele>-20</ele>
        <time>2021-12-24T07:39:17Z</time>
      </trkpt>
      <trkpt lat="47.06921" lon="-1.74866">
        <ele>-19.8</ele>
        <time>2021-12-24T07:39:19Z</time>
      </trkpt>
      <trkpt lat="47.06909" lon="-1.74864">
        <ele>-19.6</ele>
        <time>2021-12-24T07:39:21Z</time>
      </trkpt>
      <trkpt lat="47.06903" lon="-1.74864">
        <ele>-19.4</ele>
        <time>2021-12-24T07:39:22Z</time>
      </trkpt>
      <trkpt lat="47.06897" lon="-1.74864">
        <ele>-19.4</ele>
        <time>2021-12-24T07:39:23Z</time>
      </trkpt>
      <trkpt lat="47.06891" lon="-1.74864">
        <ele>-19.4</ele>
        <time>2021-12-24T07:39:24Z</time>
      </trkpt>
      <trkpt lat="47.06885" lon="-1.74863">
        <ele>-19.2</ele>
        <time>2021-12-24T07:39:25Z</time>
      </trkpt>
      <trkpt lat="47.06873" lon="-1.74862">
        <ele>-19.2</ele>
        <time>2021-12-24T07:39:27Z</time>
      </trkpt>
      <trkpt lat="47.06867" lon="-1.74862">
        <ele>-19.2</ele>
        <time>2021-12-24T07:39:28Z</time>
      </trkpt>
      <trkpt lat="47.06862" lon="-1.74862">
        <ele>-19</ele>
        <time>2021-12-24T07:39:29Z</time>
      </trkpt>
      <trkpt lat="47.0685" lon="-1.74861">
        <ele>-19</ele>
        <time>2021-12-24T07:39:31Z</time>
      </trkpt>
      <trkpt lat="47.0684" lon="-1.7486">
        <ele>-18.8</ele>
        <time>2021-12-24T07:39:33Z</time>
      </trkpt>
      <trkpt lat="47.06834" lon="-1.7486">
        <ele>-18.8</ele>
        <time>2021-12-24T07:39:34Z</time>
      </trkpt>
      <trkpt lat="47.06829" lon="-1.7486">
        <ele>-18.8</ele>
        <time>2021-12-24T07:39:35Z</time>
      </trkpt>
      <trkpt lat="47.06824" lon="-1.74859">
        <ele>-18.6</ele>
        <time>2021-12-24T07:39:36Z</time>
      </trkpt>
      <trkpt lat="47.06819" lon="-1.74858">
        <ele>-18.6</ele>
        <time>2021-12-24T07:39:37Z</time>
      </trkpt>
      <trkpt lat="47.06808" lon="-1.74853">
        <ele>-18.2</ele>
        <time>2021-12-24T07:39:39Z</time>
      </trkpt>
      <trkpt lat="47.06803" lon="-1.7485">
        <ele>-18.2</ele>
        <time>2021-12-24T07:39:40Z</time>
      </trkpt>
      <trkpt lat="47.06798" lon="-1.74846">
        <ele>-18.2</ele>
        <time>2021-12-24T07:39:41Z</time>
      </trkpt>
      <trkpt lat="47.06789" lon="-1.74836">
        <ele>-18</ele>
        <time>2021-12-24T07:39:43Z</time>
      </trkpt>
      <trkpt lat="47.06781" lon="-1.74824">
        <ele>-17.8</ele>
        <time>2021-12-24T07:39:45Z</time>
      </trkpt>
      <trkpt lat="47.06773" lon="-1.74812">
        <ele>-17.4</ele>
        <time>2021-12-24T07:39:47Z</time>
      </trkpt>
      <trkpt lat="47.06769" lon="-1.74806">
        <ele>-17.2</ele>
        <time>2021-12-24T07:39:48Z</time>
      </trkpt>
      <trkpt lat="47.06764" lon="-1.74801">
        <ele>-17.2</ele>
        <time>2021-12-24T07:39:49Z</time>
      </trkpt>
      <trkpt lat="47.06752" lon="-1.74793">
        <ele>-16.8</ele>
        <time>2021-12-24T07:39:51Z</time>
      </trkpt>
      <trkpt lat="47.06742" lon="-1.74786">
        <ele>-16.4</ele>
        <time>2021-12-24T07:39:53Z</time>
      </trkpt>
      <trkpt lat="47.06732" lon="-1.74781">
        <ele>-16</ele>
        <time>2021-12-24T07:39:55Z</time>
      </trkpt>
      <trkpt lat="47.06724" lon="-1.74778">
        <ele>-15.8</ele>
        <time>2021-12-24T07:39:57Z</time>
      </trkpt>
      <trkpt lat="47.06721" lon="-1.74777">
        <ele>-15.6</ele>
        <time>2021-12-24T07:39:58Z</time>
      </trkpt>
      <trkpt lat="47.06719" lon="-1.74776">
        <ele>-15.4</ele>
        <time>2021-12-24T07:39:59Z</time>
      </trkpt>
      <trkpt lat="47.06712" lon="-1.74777">
        <ele>-15.2</ele>
        <time>2021-12-24T07:40:01Z</time>
      </trkpt>
      <trkpt lat="47.06707" lon="-1.74778">
        <ele>-15.2</ele>
        <time>2021-12-24T07:40:02Z</time>
      </trkpt>
      <trkpt lat="47.06703" lon="-1.7478">
        <ele>-15.2</ele>
        <time>2021-12-24T07:40:03Z</time>
      </trkpt>
      <trkpt lat="47.06693" lon="-1.74783">
        <ele>-14.8</ele>
        <time>2021-12-24T07:40:05Z</time>
      </trkpt>
      <trkpt lat="47.06687" lon="-1.74785">
        <ele>-14.8</ele>
        <time>2021-12-24T07:40:06Z</time>
      </trkpt>
      <trkpt lat="47.06682" lon="-1.74788">
        <ele>-14.6</ele>
        <time>2021-12-24T07:40:07Z</time>
      </trkpt>
      <trkpt lat="47.06671" lon="-1.74793">
        <ele>-14.4</ele>
        <time>2021-12-24T07:40:09Z</time>
      </trkpt>
      <trkpt lat="47.0666" lon="-1.74799">
        <ele>-14.4</ele>
        <time>2021-12-24T07:40:11Z</time>
      </trkpt>
      <trkpt lat="47.06649" lon="-1.74804">
        <ele>-14.2</ele>
        <time>2021-12-24T07:40:13Z</time>
      </trkpt>
      <trkpt lat="47.06638" lon="-1.74809">
        <ele>-14.2</ele>
        <time>2021-12-24T07:40:15Z</time>
      </trkpt>
      <trkpt lat="47.06627" lon="-1.74814">
        <ele>-14</ele>
        <time>2021-12-24T07:40:17Z</time>
      </trkpt>
      <trkpt lat="47.06616" lon="-1.74818">
        <ele>-13.8</ele>
        <time>2021-12-24T07:40:19Z</time>
      </trkpt>
      <trkpt lat="47.0661" lon="-1.7482">
        <ele>-13.8</ele>
        <time>2021-12-24T07:40:20Z</time>
      </trkpt>
      <trkpt lat="47.06605" lon="-1.74821">
        <ele>-13.8</ele>
        <time>2021-12-24T07:40:21Z</time>
      </trkpt>
      <trkpt lat="47.06596" lon="-1.74824">
        <ele>-13.6</ele>
        <time>2021-12-24T07:40:23Z</time>
      </trkpt>
      <trkpt lat="47.06591" lon="-1.74824">
        <ele>-13.6</ele>
        <time>2021-12-24T07:40:24Z</time>
      </trkpt>
      <trkpt lat="47.06586" lon="-1.74823">
        <ele>-13.6</ele>
        <time>2021-12-24T07:40:25Z</time>
      </trkpt>
      <trkpt lat="47.06581" lon="-1.74821">
        <ele>-13.6</ele>
        <time>2021-12-24T07:40:26Z</time>
      </trkpt>
      <trkpt lat="47.06576" lon="-1.74819">
        <ele>-13.6</ele>
        <time>2021-12-24T07:40:27Z</time>
      </trkpt>
      <trkpt lat="47.06566" lon="-1.74816">
        <ele>-13.6</ele>
        <time>2021-12-24T07:40:29Z</time>
      </trkpt>
      <trkpt lat="47.06561" lon="-1.74813">
        <ele>-13.6</ele>
        <time>2021-12-24T07:40:30Z</time>
      </trkpt>
      <trkpt lat="47.06556" lon="-1.74812">
        <ele>-13.6</ele>
        <time>2021-12-24T07:40:31Z</time>
      </trkpt>
      <trkpt lat="47.06552" lon="-1.7481">
        <ele>-13.6</ele>
        <time>2021-12-24T07:40:32Z</time>
      </trkpt>
      <trkpt lat="47.06547" lon="-1.74807">
        <ele>-13.6</ele>
        <time>2021-12-24T07:40:33Z</time>
      </trkpt>
      <trkpt lat="47.06536" lon="-1.748">
        <ele>-13.4</ele>
        <time>2021-12-24T07:40:35Z</time>
      </trkpt>
      <trkpt lat="47.0653" lon="-1.74796">
        <ele>-13.2</ele>
        <time>2021-12-24T07:40:36Z</time>
      </trkpt>
      <trkpt lat="47.06524" lon="-1.74794">
        <ele>-13.2</ele>
        <time>2021-12-24T07:40:37Z</time>
      </trkpt>
      <trkpt lat="47.06514" lon="-1.74793">
        <ele>-13.2</ele>
        <time>2021-12-24T07:40:39Z</time>
      </trkpt>
      <trkpt lat="47.06509" lon="-1.74793">
        <ele>-13.2</ele>
        <time>2021-12-24T07:40:40Z</time>
      </trkpt>
      <trkpt lat="47.06504" lon="-1.74793">
        <ele>-13</ele>
        <time>2021-12-24T07:40:41Z</time>
      </trkpt>
      <trkpt lat="47.06499" lon="-1.74793">
        <ele>-13</ele>
        <time>2021-12-24T07:40:42Z</time>
      </trkpt>
      <trkpt lat="47.06494" lon="-1.74793">
        <ele>-12.8</ele>
        <time>2021-12-24T07:40:43Z</time>
      </trkpt>
      <trkpt lat="47.06488" lon="-1.74794">
        <ele>-12.8</ele>
        <time>2021-12-24T07:40:44Z</time>
      </trkpt>
      <trkpt lat="47.06483" lon="-1.74796">
        <ele>-12.6</ele>
        <time>2021-12-24T07:40:45Z</time>
      </trkpt>
      <trkpt lat="47.06472" lon="-1.748">
        <ele>-12.6</ele>
        <time>2021-12-24T07:40:47Z</time>
      </trkpt>
      <trkpt lat="47.06461" lon="-1.74805">
        <ele>-12.2</ele>
        <time>2021-12-24T07:40:49Z</time>
      </trkpt>
      <trkpt lat="47.06456" lon="-1.74805">
        <ele>-12.2</ele>
        <time>2021-12-24T07:40:50Z</time>
      </trkpt>
      <trkpt lat="47.06451" lon="-1.74805">
        <ele>-12</ele>
        <time>2021-12-24T07:40:51Z</time>
      </trkpt>
      <trkpt lat="47.06446" lon="-1.74804">
        <ele>-12</ele>
        <time>2021-12-24T07:40:52Z</time>
      </trkpt>
      <trkpt lat="47.0644" lon="-1.74802">
        <ele>-11.8</ele>
        <time>2021-12-24T07:40:53Z</time>
      </trkpt>
      <trkpt lat="47.06428" lon="-1.74799">
        <ele>-11.8</ele>
        <time>2021-12-24T07:40:55Z</time>
      </trkpt>
      <trkpt lat="47.06417" lon="-1.74795">
        <ele>-11.6</ele>
        <time>2021-12-24T07:40:57Z</time>
      </trkpt>
      <trkpt lat="47.06406" lon="-1.7479">
        <ele>-11.4</ele>
        <time>2021-12-24T07:40:59Z</time>
      </trkpt>
      <trkpt lat="47.06395" lon="-1.74787">
        <ele>-11.4</ele>
        <time>2021-12-24T07:41:01Z</time>
      </trkpt>
      <trkpt lat="47.06389" lon="-1.74786">
        <ele>-11.2</ele>
        <time>2021-12-24T07:41:02Z</time>
      </trkpt>
      <trkpt lat="47.06383" lon="-1.74785">
        <ele>-11.2</ele>
        <time>2021-12-24T07:41:03Z</time>
      </trkpt>
      <trkpt lat="47.06377" lon="-1.74784">
        <ele>-11.2</ele>
        <time>2021-12-24T07:41:04Z</time>
      </trkpt>
      <trkpt lat="47.06371" lon="-1.74785">
        <ele>-11</ele>
        <time>2021-12-24T07:41:05Z</time>
      </trkpt>
      <trkpt lat="47.06358" lon="-1.74787">
        <ele>-10.8</ele>
        <time>2021-12-24T07:41:07Z</time>
      </trkpt>
      <trkpt lat="47.06347" lon="-1.74788">
        <ele>-10.6</ele>
        <time>2021-12-24T07:41:09Z</time>
      </trkpt>
      <trkpt lat="47.06335" lon="-1.7479">
        <ele>-10.2</ele>
        <time>2021-12-24T07:41:11Z</time>
      </trkpt>
      <trkpt lat="47.06323" lon="-1.74791">
        <ele>-10</ele>
        <time>2021-12-24T07:41:13Z</time>
      </trkpt>
      <trkpt lat="47.06312" lon="-1.74791">
        <ele>-9.6</ele>
        <time>2021-12-24T07:41:15Z</time>
      </trkpt>
      <trkpt lat="47.06301" lon="-1.74793">
        <ele>-9.4</ele>
        <time>2021-12-24T07:41:17Z</time>
      </trkpt>
      <trkpt lat="47.06295" lon="-1.74794">
        <ele>-9</ele>
        <time>2021-12-24T07:41:18Z</time>
      </trkpt>
      <trkpt lat="47.06289" lon="-1.74795">
        <ele>-9</ele>
        <time>2021-12-24T07:41:19Z</time>
      </trkpt>
      <trkpt lat="47.06277" lon="-1.748">
        <ele>-8.8</ele>
        <time>2021-12-24T07:41:21Z</time>
      </trkpt>
      <trkpt lat="47.06271" lon="-1.74803">
        <ele>-8.6</ele>
        <time>2021-12-24T07:41:22Z</time>
      </trkpt>
      <trkpt lat="47.06265" lon="-1.74805">
        <ele>-8.6</ele>
        <time>2021-12-24T07:41:23Z</time>
      </trkpt>
      <trkpt lat="47.06254" lon="-1.74812">
        <ele>-8.6</ele>
        <time>2021-12-24T07:41:25Z</time>
      </trkpt>
      <trkpt lat="47.06243" lon="-1.74819">
        <ele>-8.4</ele>
        <time>2021-12-24T07:41:27Z</time>
      </trkpt>
      <trkpt lat="47.06232" lon="-1.74827">
        <ele>-8.2</ele>
        <time>2021-12-24T07:41:29Z</time>
      </trkpt>
      <trkpt lat="47.0622" lon="-1.74831">
        <ele>-8.2</ele>
        <time>2021-12-24T07:41:31Z</time>
      </trkpt>
      <trkpt lat="47.06214" lon="-1.74831">
        <ele>-8</ele>
        <time>2021-12-24T07:41:32Z</time>
      </trkpt>
      <trkpt lat="47.06208" lon="-1.74831">
        <ele>-8</ele>
        <time>2021-12-24T07:41:33Z</time>
      </trkpt>
      <trkpt lat="47.06195" lon="-1.74827">
        <ele>-8</ele>
        <time>2021-12-24T07:41:35Z</time>
      </trkpt>
      <trkpt lat="47.06183" lon="-1.74823">
        <ele>-7.8</ele>
        <time>2021-12-24T07:41:37Z</time>
      </trkpt>
      <trkpt lat="47.06177" lon="-1.7482">
        <ele>-7.8</ele>
        <time>2021-12-24T07:41:38Z</time>
      </trkpt>
      <trkpt lat="47.06171" lon="-1.74816">
        <ele>-7.8</ele>
        <time>2021-12-24T07:41:39Z</time>
      </trkpt>
      <trkpt lat="47.06159" lon="-1.74808">
        <ele>-7.8</ele>
        <time>2021-12-24T07:41:41Z</time>
      </trkpt>
      <trkpt lat="47.06149" lon="-1.748">
        <ele>-8</ele>
        <time>2021-12-24T07:41:43Z</time>
      </trkpt>
      <trkpt lat="47.06138" lon="-1.74791">
        <ele>-8</ele>
        <time>2021-12-24T07:41:45Z</time>
      </trkpt>
      <trkpt lat="47.06126" lon="-1.74785">
        <ele>-8</ele>
        <time>2021-12-24T07:41:47Z</time>
      </trkpt>
      <trkpt lat="47.06121" lon="-1.74783">
        <ele>-8.2</ele>
        <time>2021-12-24T07:41:48Z</time>
      </trkpt>
      <trkpt lat="47.06115" lon="-1.74781">
        <ele>-8.2</ele>
        <time>2021-12-24T07:41:49Z</time>
      </trkpt>
      <trkpt lat="47.06109" lon="-1.7478">
        <ele>-7.8</ele>
        <time>2021-12-24T07:41:50Z</time>
      </trkpt>
      <trkpt lat="47.06103" lon="-1.74779">
        <ele>-8.2</ele>
        <time>2021-12-24T07:41:51Z</time>
      </trkpt>
      <trkpt lat="47.06097" lon="-1.74778">
        <ele>-8.8</ele>
        <time>2021-12-24T07:41:52Z</time>
      </trkpt>
      <trkpt lat="47.06092" lon="-1.74778">
        <ele>-8.4</ele>
        <time>2021-12-24T07:41:53Z</time>
      </trkpt>
      <trkpt lat="47.0608" lon="-1.74777">
        <ele>-8.6</ele>
        <time>2021-12-24T07:41:55Z</time>
      </trkpt>
      <trkpt lat="47.06066" lon="-1.74778">
        <ele>-8.4</ele>
        <time>2021-12-24T07:41:57Z</time>
      </trkpt>
      <trkpt lat="47.06053" lon="-1.74779">
        <ele>-8.6</ele>
        <time>2021-12-24T07:41:59Z</time>
      </trkpt>
      <trkpt lat="47.06047" lon="-1.7478">
        <ele>-8.6</ele>
        <time>2021-12-24T07:42:00Z</time>
      </trkpt>
      <trkpt lat="47.06041" lon="-1.7478">
        <ele>-8.6</ele>
        <time>2021-12-24T07:42:01Z</time>
      </trkpt>
      <trkpt lat="47.06029" lon="-1.74781">
        <ele>-8.6</ele>
        <time>2021-12-24T07:42:03Z</time>
      </trkpt>
      <trkpt lat="47.06015" lon="-1.74783">
        <ele>-8.8</ele>
        <time>2021-12-24T07:42:05Z</time>
      </trkpt>
      <trkpt lat="47.06002" lon="-1.74785">
        <ele>-9</ele>
        <time>2021-12-24T07:42:07Z</time>
      </trkpt>
      <trkpt lat="47.0599" lon="-1.74788">
        <ele>-9</ele>
        <time>2021-12-24T07:42:09Z</time>
      </trkpt>
      <trkpt lat="47.05984" lon="-1.7479">
        <ele>-9.2</ele>
        <time>2021-12-24T07:42:10Z</time>
      </trkpt>
      <trkpt lat="47.05977" lon="-1.74792">
        <ele>-9.2</ele>
        <time>2021-12-24T07:42:11Z</time>
      </trkpt>
      <trkpt lat="47.05964" lon="-1.74797">
        <ele>-9.4</ele>
        <time>2021-12-24T07:42:13Z</time>
      </trkpt>
      <trkpt lat="47.05952" lon="-1.74802">
        <ele>-9.4</ele>
        <time>2021-12-24T07:42:15Z</time>
      </trkpt>
      <trkpt lat="47.0594" lon="-1.7481">
        <ele>-10</ele>
        <time>2021-12-24T07:42:17Z</time>
      </trkpt>
      <trkpt lat="47.05928" lon="-1.74817">
        <ele>-10</ele>
        <time>2021-12-24T07:42:19Z</time>
      </trkpt>
      <trkpt lat="47.05916" lon="-1.74824">
        <ele>-10</ele>
        <time>2021-12-24T07:42:21Z</time>
      </trkpt>
      <trkpt lat="47.05911" lon="-1.74828">
        <ele>-10.2</ele>
        <time>2021-12-24T07:42:22Z</time>
      </trkpt>
      <trkpt lat="47.05904" lon="-1.74832">
        <ele>-10.4</ele>
        <time>2021-12-24T07:42:23Z</time>
      </trkpt>
      <trkpt lat="47.05892" lon="-1.74838">
        <ele>-10.4</ele>
        <time>2021-12-24T07:42:25Z</time>
      </trkpt>
      <trkpt lat="47.0588" lon="-1.74844">
        <ele>-10.6</ele>
        <time>2021-12-24T07:42:27Z</time>
      </trkpt>
      <trkpt lat="47.0587" lon="-1.74847">
        <ele>-10.6</ele>
        <time>2021-12-24T07:42:29Z</time>
      </trkpt>
      <trkpt lat="47.05858" lon="-1.74852">
        <ele>-11</ele>
        <time>2021-12-24T07:42:31Z</time>
      </trkpt>
      <trkpt lat="47.05846" lon="-1.74855">
        <ele>-11.4</ele>
        <time>2021-12-24T07:42:33Z</time>
      </trkpt>
      <trkpt lat="47.05834" lon="-1.74858">
        <ele>-11.6</ele>
        <time>2021-12-24T07:42:35Z</time>
      </trkpt>
      <trkpt lat="47.05821" lon="-1.74859">
        <ele>-12</ele>
        <time>2021-12-24T07:42:37Z</time>
      </trkpt>
      <trkpt lat="47.05815" lon="-1.7486">
        <ele>-12.2</ele>
        <time>2021-12-24T07:42:38Z</time>
      </trkpt>
      <trkpt lat="47.05808" lon="-1.74862">
        <ele>-12.2</ele>
        <time>2021-12-24T07:42:39Z</time>
      </trkpt>
      <trkpt lat="47.05795" lon="-1.74866">
        <ele>-12.6</ele>
        <time>2021-12-24T07:42:41Z</time>
      </trkpt>
      <trkpt lat="47.05789" lon="-1.74869">
        <ele>-12.8</ele>
        <time>2021-12-24T07:42:42Z</time>
      </trkpt>
      <trkpt lat="47.05782" lon="-1.74872">
        <ele>-13</ele>
        <time>2021-12-24T07:42:43Z</time>
      </trkpt>
      <trkpt lat="47.05769" lon="-1.74877">
        <ele>-13.2</ele>
        <time>2021-12-24T07:42:45Z</time>
      </trkpt>
      <trkpt lat="47.05764" lon="-1.74879">
        <ele>-13.2</ele>
        <time>2021-12-24T07:42:46Z</time>
      </trkpt>
      <trkpt lat="47.05757" lon="-1.74883">
        <ele>-13.2</ele>
        <time>2021-12-24T07:42:47Z</time>
      </trkpt>
      <trkpt lat="47.05744" lon="-1.74889">
        <ele>-13.2</ele>
        <time>2021-12-24T07:42:49Z</time>
      </trkpt>
      <trkpt lat="47.05732" lon="-1.74895">
        <ele>-13</ele>
        <time>2021-12-24T07:42:51Z</time>
      </trkpt>
      <trkpt lat="47.05726" lon="-1.74896">
        <ele>-13</ele>
        <time>2021-12-24T07:42:52Z</time>
      </trkpt>
      <trkpt lat="47.05719" lon="-1.74897">
        <ele>-13</ele>
        <time>2021-12-24T07:42:53Z</time>
      </trkpt>
      <trkpt lat="47.05707" lon="-1.74897">
        <ele>-13.2</ele>
        <time>2021-12-24T07:42:55Z</time>
      </trkpt>
      <trkpt lat="47.05701" lon="-1.74896">
        <ele>-13.2</ele>
        <time>2021-12-24T07:42:56Z</time>
      </trkpt>
      <trkpt lat="47.05694" lon="-1.74896">
        <ele>-13.2</ele>
        <time>2021-12-24T07:42:57Z</time>
      </trkpt>
      <trkpt lat="47.05682" lon="-1.74897">
        <ele>-13.4</ele>
        <time>2021-12-24T07:42:59Z</time>
      </trkpt>
      <trkpt lat="47.05676" lon="-1.74897">
        <ele>-13.4</ele>
        <time>2021-12-24T07:43:00Z</time>
      </trkpt>
      <trkpt lat="47.0567" lon="-1.74897">
        <ele>-13.4</ele>
        <time>2021-12-24T07:43:01Z</time>
      </trkpt>
      <trkpt lat="47.05664" lon="-1.74896">
        <ele>-13.4</ele>
        <time>2021-12-24T07:43:02Z</time>
      </trkpt>
      <trkpt lat="47.05658" lon="-1.74893">
        <ele>-13.4</ele>
        <time>2021-12-24T07:43:03Z</time>
      </trkpt>
      <trkpt lat="47.05652" lon="-1.7489">
        <ele>-13.4</ele>
        <time>2021-12-24T07:43:04Z</time>
      </trkpt>
      <trkpt lat="47.05647" lon="-1.74887">
        <ele>-13.4</ele>
        <time>2021-12-24T07:43:05Z</time>
      </trkpt>
      <trkpt lat="47.05636" lon="-1.7488">
        <ele>-13.4</ele>
        <time>2021-12-24T07:43:07Z</time>
      </trkpt>
      <trkpt lat="47.05626" lon="-1.74874">
        <ele>-13.4</ele>
        <time>2021-12-24T07:43:09Z</time>
      </trkpt>
      <trkpt lat="47.0562" lon="-1.74872">
        <ele>-13.4</ele>
        <time>2021-12-24T07:43:10Z</time>
      </trkpt>
      <trkpt lat="47.05615" lon="-1.74871">
        <ele>-13.4</ele>
        <time>2021-12-24T07:43:11Z</time>
      </trkpt>
      <trkpt lat="47.05609" lon="-1.74873">
        <ele>-13.8</ele>
        <time>2021-12-24T07:43:12Z</time>
      </trkpt>
      <trkpt lat="47.05605" lon="-1.74876">
        <ele>-13</ele>
        <time>2021-12-24T07:43:13Z</time>
      </trkpt>
      <trkpt lat="47.05601" lon="-1.7488">
        <ele>-13</ele>
        <time>2021-12-24T07:43:14Z</time>
      </trkpt>
      <trkpt lat="47.05598" lon="-1.74885">
        <ele>-12.8</ele>
        <time>2021-12-24T07:43:15Z</time>
      </trkpt>
      <trkpt lat="47.05595" lon="-1.74893">
        <ele>-12.4</ele>
        <time>2021-12-24T07:43:17Z</time>
      </trkpt>
      <trkpt lat="47.05593" lon="-1.74902">
        <ele>-12.2</ele>
        <time>2021-12-24T07:43:19Z</time>
      </trkpt>
      <trkpt lat="47.05593" lon="-1.74908">
        <ele>-12.2</ele>
        <time>2021-12-24T07:43:20Z</time>
      </trkpt>
      <trkpt lat="47.05592" lon="-1.74913">
        <ele>-12</ele>
        <time>2021-12-24T07:43:21Z</time>
      </trkpt>
      <trkpt lat="47.0559" lon="-1.74918">
        <ele>-12</ele>
        <time>2021-12-24T07:43:22Z</time>
      </trkpt>
      <trkpt lat="47.05589" lon="-1.74922">
        <ele>-11.8</ele>
        <time>2021-12-24T07:43:23Z</time>
      </trkpt>
      <trkpt lat="47.05585" lon="-1.74929">
        <ele>-11.8</ele>
        <time>2021-12-24T07:43:25Z</time>
      </trkpt>
      <trkpt lat="47.05582" lon="-1.74932">
        <ele>-11.6</ele>
        <time>2021-12-24T07:43:26Z</time>
      </trkpt>
      <trkpt lat="47.0558" lon="-1.74935">
        <ele>-11.2</ele>
        <time>2021-12-24T07:43:27Z</time>
      </trkpt>
      <trkpt lat="47.05576" lon="-1.74938">
        <ele>-11.2</ele>
        <time>2021-12-24T07:43:29Z</time>
      </trkpt>
      <trkpt lat="47.05574" lon="-1.74939">
        <ele>-11.2</ele>
        <time>2021-12-24T07:43:30Z</time>
      </trkpt>
      <trkpt lat="47.05572" lon="-1.74939">
        <ele>-11.2</ele>
        <time>2021-12-24T07:43:31Z</time>
      </trkpt>
      <trkpt lat="47.05568" lon="-1.74937">
        <ele>-11.2</ele>
        <time>2021-12-24T07:43:33Z</time>
      </trkpt>
      <trkpt lat="47.05566" lon="-1.74936">
        <ele>-11.2</ele>
        <time>2021-12-24T07:43:34Z</time>
      </trkpt>
      <trkpt lat="47.05564" lon="-1.74935">
        <ele>-11.2</ele>
        <time>2021-12-24T07:43:35Z</time>
      </trkpt>
      <trkpt lat="47.05559" lon="-1.74933">
        <ele>-11.2</ele>
        <time>2021-12-24T07:43:37Z</time>
      </trkpt>
      <trkpt lat="47.05555" lon="-1.74931">
        <ele>-11.2</ele>
        <time>2021-12-24T07:43:39Z</time>
      </trkpt>
      <trkpt lat="47.05552" lon="-1.74932">
        <ele>-11</ele>
        <time>2021-12-24T07:43:41Z</time>
      </trkpt>
      <trkpt lat="47.05551" lon="-1.74931">
        <ele>-10.8</ele>
        <time>2021-12-24T07:43:43Z</time>
      </trkpt>
      <trkpt lat="47.05549" lon="-1.74931">
        <ele>-10.8</ele>
        <time>2021-12-24T07:43:44Z</time>
      </trkpt>
      <trkpt lat="47.05547" lon="-1.74931">
        <ele>-10.8</ele>
        <time>2021-12-24T07:43:45Z</time>
      </trkpt>
      <trkpt lat="47.05543" lon="-1.74933">
        <ele>-10.4</ele>
        <time>2021-12-24T07:43:47Z</time>
      </trkpt>
      <trkpt lat="47.0554" lon="-1.74935">
        <ele>-10.4</ele>
        <time>2021-12-24T07:43:48Z</time>
      </trkpt>
      <trkpt lat="47.05537" lon="-1.74935">
        <ele>-10.2</ele>
        <time>2021-12-24T07:43:49Z</time>
      </trkpt>
      <trkpt lat="47.05531" lon="-1.74931">
        <ele>-10.4</ele>
        <time>2021-12-24T07:43:51Z</time>
      </trkpt>
      <trkpt lat="47.05527" lon="-1.74928">
        <ele>-10.4</ele>
        <time>2021-12-24T07:43:52Z</time>
      </trkpt>
      <trkpt lat="47.05523" lon="-1.74925">
        <ele>-10.4</ele>
        <time>2021-12-24T07:43:53Z</time>
      </trkpt>
      <trkpt lat="47.05514" lon="-1.74917">
        <ele>-10.4</ele>
        <time>2021-12-24T07:43:55Z</time>
      </trkpt>
      <trkpt lat="47.05505" lon="-1.74909">
        <ele>-10.6</ele>
        <time>2021-12-24T07:43:57Z</time>
      </trkpt>
      <trkpt lat="47.05495" lon="-1.74899">
        <ele>-10.2</ele>
        <time>2021-12-24T07:43:59Z</time>
      </trkpt>
      <trkpt lat="47.05489" lon="-1.74895">
        <ele>-10.6</ele>
        <time>2021-12-24T07:44:00Z</time>
      </trkpt>
      <trkpt lat="47.05484" lon="-1.7489">
        <ele>-11</ele>
        <time>2021-12-24T07:44:01Z</time>
      </trkpt>
      <trkpt lat="47.05473" lon="-1.74882">
        <ele>-11.2</ele>
        <time>2021-12-24T07:44:03Z</time>
      </trkpt>
      <trkpt lat="47.05467" lon="-1.74877">
        <ele>-11.2</ele>
        <time>2021-12-24T07:44:04Z</time>
      </trkpt>
      <trkpt lat="47.05461" lon="-1.74872">
        <ele>-11.4</ele>
        <time>2021-12-24T07:44:05Z</time>
      </trkpt>
      <trkpt lat="47.05448" lon="-1.74861">
        <ele>-11.6</ele>
        <time>2021-12-24T07:44:07Z</time>
      </trkpt>
      <trkpt lat="47.05435" lon="-1.74851">
        <ele>-11.6</ele>
        <time>2021-12-24T07:44:09Z</time>
      </trkpt>
      <trkpt lat="47.05428" lon="-1.74845">
        <ele>-11.6</ele>
        <time>2021-12-24T07:44:10Z</time>
      </trkpt>
      <trkpt lat="47.05422" lon="-1.7484">
        <ele>-11.6</ele>
        <time>2021-12-24T07:44:11Z</time>
      </trkpt>
      <trkpt lat="47.05408" lon="-1.74829">
        <ele>-11.6</ele>
        <time>2021-12-24T07:44:13Z</time>
      </trkpt>
      <trkpt lat="47.05393" lon="-1.74817">
        <ele>-11.4</ele>
        <time>2021-12-24T07:44:15Z</time>
      </trkpt>
      <trkpt lat="47.05387" lon="-1.74811">
        <ele>-11.4</ele>
        <time>2021-12-24T07:44:16Z</time>
      </trkpt>
      <trkpt lat="47.05381" lon="-1.74805">
        <ele>-11.4</ele>
        <time>2021-12-24T07:44:17Z</time>
      </trkpt>
      <trkpt lat="47.05369" lon="-1.74791">
        <ele>-11.4</ele>
        <time>2021-12-24T07:44:19Z</time>
      </trkpt>
      <trkpt lat="47.05358" lon="-1.74776">
        <ele>-10.8</ele>
        <time>2021-12-24T07:44:21Z</time>
      </trkpt>
      <trkpt lat="47.05348" lon="-1.74762">
        <ele>-10.6</ele>
        <time>2021-12-24T07:44:23Z</time>
      </trkpt>
      <trkpt lat="47.05339" lon="-1.74748">
        <ele>-10.4</ele>
        <time>2021-12-24T07:44:25Z</time>
      </trkpt>
      <trkpt lat="47.05332" lon="-1.74733">
        <ele>-10.4</ele>
        <time>2021-12-24T07:44:27Z</time>
      </trkpt>
      <trkpt lat="47.05328" lon="-1.74726">
        <ele>-10.4</ele>
        <time>2021-12-24T07:44:28Z</time>
      </trkpt>
      <trkpt lat="47.05325" lon="-1.74718">
        <ele>-10.4</ele>
        <time>2021-12-24T07:44:29Z</time>
      </trkpt>
      <trkpt lat="47.05318" lon="-1.74703">
        <ele>-10.4</ele>
        <time>2021-12-24T07:44:31Z</time>
      </trkpt>
      <trkpt lat="47.05311" lon="-1.74688">
        <ele>-10.4</ele>
        <time>2021-12-24T07:44:33Z</time>
      </trkpt>
      <trkpt lat="47.05304" lon="-1.74674">
        <ele>-10.4</ele>
        <time>2021-12-24T07:44:35Z</time>
      </trkpt>
      <trkpt lat="47.05301" lon="-1.74667">
        <ele>-10.4</ele>
        <time>2021-12-24T07:44:36Z</time>
      </trkpt>
      <trkpt lat="47.05297" lon="-1.7466">
        <ele>-10.2</ele>
        <time>2021-12-24T07:44:37Z</time>
      </trkpt>
      <trkpt lat="47.05288" lon="-1.74651">
        <ele>-10.2</ele>
        <time>2021-12-24T07:44:39Z</time>
      </trkpt>
      <trkpt lat="47.05277" lon="-1.74652">
        <ele>-10</ele>
        <time>2021-12-24T07:44:41Z</time>
      </trkpt>
      <trkpt lat="47.05272" lon="-1.74654">
        <ele>-9.8</ele>
        <time>2021-12-24T07:44:42Z</time>
      </trkpt>
      <trkpt lat="47.05268" lon="-1.74656">
        <ele>-9.6</ele>
        <time>2021-12-24T07:44:43Z</time>
      </trkpt>
      <trkpt lat="47.05258" lon="-1.74659">
        <ele>-8.8</ele>
        <time>2021-12-24T07:44:45Z</time>
      </trkpt>
      <trkpt lat="47.05249" lon="-1.74661">
        <ele>-8</ele>
        <time>2021-12-24T07:44:47Z</time>
      </trkpt>
      <trkpt lat="47.05241" lon="-1.74665">
        <ele>-7.4</ele>
        <time>2021-12-24T07:44:49Z</time>
      </trkpt>
      <trkpt lat="47.05234" lon="-1.74668">
        <ele>-6.8</ele>
        <time>2021-12-24T07:44:51Z</time>
      </trkpt>
      <trkpt lat="47.05227" lon="-1.74672">
        <ele>-6</ele>
        <time>2021-12-24T07:44:53Z</time>
      </trkpt>
      <trkpt lat="47.0522" lon="-1.74676">
        <ele>-5.8</ele>
        <time>2021-12-24T07:44:55Z</time>
      </trkpt>
      <trkpt lat="47.05214" lon="-1.74681">
        <ele>-5.4</ele>
        <time>2021-12-24T07:44:57Z</time>
      </trkpt>
      <trkpt lat="47.05211" lon="-1.74683">
        <ele>-5.2</ele>
        <time>2021-12-24T07:44:58Z</time>
      </trkpt>
      <trkpt lat="47.05208" lon="-1.74686">
        <ele>-5</ele>
        <time>2021-12-24T07:44:59Z</time>
      </trkpt>
      <trkpt lat="47.05204" lon="-1.74693">
        <ele>-4.6</ele>
        <time>2021-12-24T07:45:01Z</time>
      </trkpt>
      <trkpt lat="47.05199" lon="-1.747">
        <ele>-4.2</ele>
        <time>2021-12-24T07:45:03Z</time>
      </trkpt>
      <trkpt lat="47.05197" lon="-1.74705">
        <ele>-4.2</ele>
        <time>2021-12-24T07:45:04Z</time>
      </trkpt>
      <trkpt lat="47.05195" lon="-1.74709">
        <ele>-4</ele>
        <time>2021-12-24T07:45:05Z</time>
      </trkpt>
      <trkpt lat="47.05192" lon="-1.74717">
        <ele>-3.4</ele>
        <time>2021-12-24T07:45:07Z</time>
      </trkpt>
      <trkpt lat="47.05188" lon="-1.74726">
        <ele>-3</ele>
        <time>2021-12-24T07:45:09Z</time>
      </trkpt>
      <trkpt lat="47.05184" lon="-1.74735">
        <ele>-2.6</ele>
        <time>2021-12-24T07:45:11Z</time>
      </trkpt>
      <trkpt lat="47.05182" lon="-1.74739">
        <ele>-2.4</ele>
        <time>2021-12-24T07:45:12Z</time>
      </trkpt>
      <trkpt lat="47.05181" lon="-1.74743">
        <ele>-2</ele>
        <time>2021-12-24T07:45:13Z</time>
      </trkpt>
      <trkpt lat="47.05176" lon="-1.7475">
        <ele>-1.6</ele>
        <time>2021-12-24T07:45:15Z</time>
      </trkpt>
      <trkpt lat="47.05172" lon="-1.74757">
        <ele>-1</ele>
        <time>2021-12-24T07:45:17Z</time>
      </trkpt>
      <trkpt lat="47.0517" lon="-1.74761">
        <ele>-0.80000000000001</ele>
        <time>2021-12-24T07:45:18Z</time>
      </trkpt>
      <trkpt lat="47.05168" lon="-1.74765">
        <ele>-0.39999999999998</ele>
        <time>2021-12-24T07:45:19Z</time>
      </trkpt>
      <trkpt lat="47.05164" lon="-1.74773">
        <ele>-0.39999999999998</ele>
        <time>2021-12-24T07:45:21Z</time>
      </trkpt>
      <trkpt lat="47.05159" lon="-1.7478">
        <ele>0.39999999999998</ele>
        <time>2021-12-24T07:45:23Z</time>
      </trkpt>
      <trkpt lat="47.05154" lon="-1.74786">
        <ele>0.80000000000001</ele>
        <time>2021-12-24T07:45:25Z</time>
      </trkpt>
      <trkpt lat="47.05151" lon="-1.74787">
        <ele>1</ele>
        <time>2021-12-24T07:45:26Z</time>
      </trkpt>
      <trkpt lat="47.05148" lon="-1.74786">
        <ele>1.2</ele>
        <time>2021-12-24T07:45:27Z</time>
      </trkpt>
      <trkpt lat="47.05145" lon="-1.74784">
        <ele>1.6</ele>
        <time>2021-12-24T07:45:28Z</time>
      </trkpt>
      <trkpt lat="47.05142" lon="-1.74781">
        <ele>1.6</ele>
        <time>2021-12-24T07:45:29Z</time>
      </trkpt>
      <trkpt lat="47.05138" lon="-1.74773">
        <ele>2</ele>
        <time>2021-12-24T07:45:31Z</time>
      </trkpt>
      <trkpt lat="47.05133" lon="-1.74767">
        <ele>2.4</ele>
        <time>2021-12-24T07:45:33Z</time>
      </trkpt>
      <trkpt lat="47.05127" lon="-1.74762">
        <ele>2.8</ele>
        <time>2021-12-24T07:45:35Z</time>
      </trkpt>
      <trkpt lat="47.05121" lon="-1.74757">
        <ele>3.2</ele>
        <time>2021-12-24T07:45:37Z</time>
      </trkpt>
      <trkpt lat="47.05115" lon="-1.74752">
        <ele>3.6</ele>
        <time>2021-12-24T07:45:39Z</time>
      </trkpt>
      <trkpt lat="47.0511" lon="-1.74748">
        <ele>4</ele>
        <time>2021-12-24T07:45:41Z</time>
      </trkpt>
      <trkpt lat="47.05103" lon="-1.74742">
        <ele>4.4</ele>
        <time>2021-12-24T07:45:43Z</time>
      </trkpt>
      <trkpt lat="47.05096" lon="-1.74737">
        <ele>4.8</ele>
        <time>2021-12-24T07:45:45Z</time>
      </trkpt>
      <trkpt lat="47.05089" lon="-1.7473">
        <ele>5.2</ele>
        <time>2021-12-24T07:45:47Z</time>
      </trkpt>
      <trkpt lat="47.05082" lon="-1.74721">
        <ele>5.6</ele>
        <time>2021-12-24T07:45:49Z</time>
      </trkpt>
      <trkpt lat="47.05076" lon="-1.74711">
        <ele>6</ele>
        <time>2021-12-24T07:45:51Z</time>
      </trkpt>
      <trkpt lat="47.05069" lon="-1.74702">
        <ele>6.2</ele>
        <time>2021-12-24T07:45:53Z</time>
      </trkpt>
      <trkpt lat="47.05063" lon="-1.74693">
        <ele>6.6</ele>
        <time>2021-12-24T07:45:55Z</time>
      </trkpt>
      <trkpt lat="47.05057" lon="-1.74683">
        <ele>7</ele>
        <time>2021-12-24T07:45:57Z</time>
      </trkpt>
      <trkpt lat="47.05052" lon="-1.74673">
        <ele>7.4</ele>
        <time>2021-12-24T07:45:59Z</time>
      </trkpt>
      <trkpt lat="47.05049" lon="-1.74668">
        <ele>7.6</ele>
        <time>2021-12-24T07:46:00Z</time>
      </trkpt>
      <trkpt lat="47.05045" lon="-1.74664">
        <ele>7.6</ele>
        <time>2021-12-24T07:46:01Z</time>
      </trkpt>
      <trkpt lat="47.05042" lon="-1.74658">
        <ele>7.8</ele>
        <time>2021-12-24T07:46:02Z</time>
      </trkpt>
      <trkpt lat="47.05039" lon="-1.74653">
        <ele>8</ele>
        <time>2021-12-24T07:46:03Z</time>
      </trkpt>
      <trkpt lat="47.05032" lon="-1.74642">
        <ele>8.2</ele>
        <time>2021-12-24T07:46:05Z</time>
      </trkpt>
      <trkpt lat="47.05026" lon="-1.74631">
        <ele>8.6</ele>
        <time>2021-12-24T07:46:07Z</time>
      </trkpt>
      <trkpt lat="47.0502" lon="-1.7462">
        <ele>8.8</ele>
        <time>2021-12-24T07:46:09Z</time>
      </trkpt>
      <trkpt lat="47.05015" lon="-1.74609">
        <ele>9.2</ele>
        <time>2021-12-24T07:46:11Z</time>
      </trkpt>
      <trkpt lat="47.0501" lon="-1.74597">
        <ele>9.4</ele>
        <time>2021-12-24T07:46:13Z</time>
      </trkpt>
      <trkpt lat="47.05005" lon="-1.74586">
        <ele>9.8</ele>
        <time>2021-12-24T07:46:15Z</time>
      </trkpt>
      <trkpt lat="47.05" lon="-1.74574">
        <ele>10.2</ele>
        <time>2021-12-24T07:46:17Z</time>
      </trkpt>
      <trkpt lat="47.04996" lon="-1.74562">
        <ele>10.4</ele>
        <time>2021-12-24T07:46:19Z</time>
      </trkpt>
      <trkpt lat="47.04992" lon="-1.7455">
        <ele>10.6</ele>
        <time>2021-12-24T07:46:21Z</time>
      </trkpt>
      <trkpt lat="47.04987" lon="-1.74539">
        <ele>11</ele>
        <time>2021-12-24T07:46:23Z</time>
      </trkpt>
      <trkpt lat="47.04984" lon="-1.74534">
        <ele>11.2</ele>
        <time>2021-12-24T07:46:24Z</time>
      </trkpt>
      <trkpt lat="47.04981" lon="-1.7453">
        <ele>11.4</ele>
        <time>2021-12-24T07:46:25Z</time>
      </trkpt>
      <trkpt lat="47.04978" lon="-1.74528">
        <ele>11.4</ele>
        <time>2021-12-24T07:46:26Z</time>
      </trkpt>
      <trkpt lat="47.04973" lon="-1.74526">
        <ele>11.6</ele>
        <time>2021-12-24T07:46:27Z</time>
      </trkpt>
      <trkpt lat="47.04969" lon="-1.74526">
        <ele>11.8</ele>
        <time>2021-12-24T07:46:28Z</time>
      </trkpt>
      <trkpt lat="47.04965" lon="-1.74527">
        <ele>12</ele>
        <time>2021-12-24T07:46:29Z</time>
      </trkpt>
      <trkpt lat="47.04956" lon="-1.7453">
        <ele>12.2</ele>
        <time>2021-12-24T07:46:31Z</time>
      </trkpt>
      <trkpt lat="47.04947" lon="-1.74531">
        <ele>12.6</ele>
        <time>2021-12-24T07:46:33Z</time>
      </trkpt>
      <trkpt lat="47.04943" lon="-1.74532">
        <ele>12.6</ele>
        <time>2021-12-24T07:46:34Z</time>
      </trkpt>
      <trkpt lat="47.04939" lon="-1.74534">
        <ele>12.8</ele>
        <time>2021-12-24T07:46:35Z</time>
      </trkpt>
      <trkpt lat="47.04931" lon="-1.74536">
        <ele>13</ele>
        <time>2021-12-24T07:46:37Z</time>
      </trkpt>
      <trkpt lat="47.04923" lon="-1.74538">
        <ele>13.4</ele>
        <time>2021-12-24T07:46:39Z</time>
      </trkpt>
      <trkpt lat="47.04915" lon="-1.74539">
        <ele>13.6</ele>
        <time>2021-12-24T07:46:41Z</time>
      </trkpt>
      <trkpt lat="47.04912" lon="-1.7454">
        <ele>13.8</ele>
        <time>2021-12-24T07:46:42Z</time>
      </trkpt>
      <trkpt lat="47.04909" lon="-1.74541">
        <ele>14</ele>
        <time>2021-12-24T07:46:43Z</time>
      </trkpt>
      <trkpt lat="47.04904" lon="-1.74542">
        <ele>14.2</ele>
        <time>2021-12-24T07:46:45Z</time>
      </trkpt>
      <trkpt lat="47.04899" lon="-1.74542">
        <ele>14.4</ele>
        <time>2021-12-24T07:46:47Z</time>
      </trkpt>
      <trkpt lat="47.04892" lon="-1.74539">
        <ele>14.6</ele>
        <time>2021-12-24T07:46:49Z</time>
      </trkpt>
      <trkpt lat="47.04889" lon="-1.74536">
        <ele>14.8</ele>
        <time>2021-12-24T07:46:50Z</time>
      </trkpt>
      <trkpt lat="47.04888" lon="-1.74531">
        <ele>14.8</ele>
        <time>2021-12-24T07:46:51Z</time>
      </trkpt>
      <trkpt lat="47.04889" lon="-1.74519">
        <ele>15</ele>
        <time>2021-12-24T07:46:53Z</time>
      </trkpt>
      <trkpt lat="47.04892" lon="-1.74506">
        <ele>15</ele>
        <time>2021-12-24T07:46:55Z</time>
      </trkpt>
      <trkpt lat="47.04895" lon="-1.74493">
        <ele>15.4</ele>
        <time>2021-12-24T07:46:57Z</time>
      </trkpt>
      <trkpt lat="47.04896" lon="-1.74479">
        <ele>15.6</ele>
        <time>2021-12-24T07:46:59Z</time>
      </trkpt>
      <trkpt lat="47.04898" lon="-1.74465">
        <ele>15.8</ele>
        <time>2021-12-24T07:47:01Z</time>
      </trkpt>
      <trkpt lat="47.04899" lon="-1.74457">
        <ele>16</ele>
        <time>2021-12-24T07:47:02Z</time>
      </trkpt>
      <trkpt lat="47.049" lon="-1.74449">
        <ele>16</ele>
        <time>2021-12-24T07:47:03Z</time>
      </trkpt>
      <trkpt lat="47.04903" lon="-1.74432">
        <ele>16.2</ele>
        <time>2021-12-24T07:47:05Z</time>
      </trkpt>
      <trkpt lat="47.04905" lon="-1.74415">
        <ele>16.4</ele>
        <time>2021-12-24T07:47:07Z</time>
      </trkpt>
      <trkpt lat="47.04908" lon="-1.74398">
        <ele>16.6</ele>
        <time>2021-12-24T07:47:09Z</time>
      </trkpt>
      <trkpt lat="47.0491" lon="-1.74389">
        <ele>16.6</ele>
        <time>2021-12-24T07:47:10Z</time>
      </trkpt>
      <trkpt lat="47.04911" lon="-1.74381">
        <ele>16.8</ele>
        <time>2021-12-24T07:47:11Z</time>
      </trkpt>
      <trkpt lat="47.04913" lon="-1.74364">
        <ele>17</ele>
        <time>2021-12-24T07:47:13Z</time>
      </trkpt>
      <trkpt lat="47.04913" lon="-1.74357">
        <ele>17</ele>
        <time>2021-12-24T07:47:14Z</time>
      </trkpt>
      <trkpt lat="47.04911" lon="-1.74351">
        <ele>17.2</ele>
        <time>2021-12-24T07:47:15Z</time>
      </trkpt>
      <trkpt lat="47.04907" lon="-1.74347">
        <ele>17.2</ele>
        <time>2021-12-24T07:47:16Z</time>
      </trkpt>
      <trkpt lat="47.04903" lon="-1.74345">
        <ele>17.4</ele>
        <time>2021-12-24T07:47:17Z</time>
      </trkpt>
      <trkpt lat="47.04899" lon="-1.74344">
        <ele>17.4</ele>
        <time>2021-12-24T07:47:18Z</time>
      </trkpt>
      <trkpt lat="47.04895" lon="-1.74343">
        <ele>17.6</ele>
        <time>2021-12-24T07:47:19Z</time>
      </trkpt>
      <trkpt lat="47.04888" lon="-1.74342">
        <ele>17.8</ele>
        <time>2021-12-24T07:47:21Z</time>
      </trkpt>
      <trkpt lat="47.0488" lon="-1.74341">
        <ele>18</ele>
        <time>2021-12-24T07:47:23Z</time>
      </trkpt>
      <trkpt lat="47.04877" lon="-1.74339">
        <ele>18.2</ele>
        <time>2021-12-24T07:47:24Z</time>
      </trkpt>
      <trkpt lat="47.04874" lon="-1.74337">
        <ele>18.2</ele>
        <time>2021-12-24T07:47:25Z</time>
      </trkpt>
      <trkpt lat="47.04868" lon="-1.74332">
        <ele>18.4</ele>
        <time>2021-12-24T07:47:27Z</time>
      </trkpt>
      <trkpt lat="47.04862" lon="-1.74327">
        <ele>18.6</ele>
        <time>2021-12-24T07:47:29Z</time>
      </trkpt>
      <trkpt lat="47.04856" lon="-1.7432">
        <ele>18.8</ele>
        <time>2021-12-24T07:47:31Z</time>
      </trkpt>
      <trkpt lat="47.0485" lon="-1.74313">
        <ele>19</ele>
        <time>2021-12-24T07:47:33Z</time>
      </trkpt>
      <trkpt lat="47.04843" lon="-1.7431">
        <ele>19.2</ele>
        <time>2021-12-24T07:47:35Z</time>
      </trkpt>
      <trkpt lat="47.04839" lon="-1.74311">
        <ele>19.2</ele>
        <time>2021-12-24T07:47:36Z</time>
      </trkpt>
      <trkpt lat="47.04836" lon="-1.74313">
        <ele>19.4</ele>
        <time>2021-12-24T07:47:37Z</time>
      </trkpt>
      <trkpt lat="47.04829" lon="-1.74319">
        <ele>19.6</ele>
        <time>2021-12-24T07:47:39Z</time>
      </trkpt>
      <trkpt lat="47.04823" lon="-1.74325">
        <ele>19.8</ele>
        <time>2021-12-24T07:47:41Z</time>
      </trkpt>
      <trkpt lat="47.04817" lon="-1.74331">
        <ele>20</ele>
        <time>2021-12-24T07:47:43Z</time>
      </trkpt>
      <trkpt lat="47.0481" lon="-1.74335">
        <ele>20.4</ele>
        <time>2021-12-24T07:47:45Z</time>
      </trkpt>
      <trkpt lat="47.04803" lon="-1.74339">
        <ele>20.6</ele>
        <time>2021-12-24T07:47:47Z</time>
      </trkpt>
      <trkpt lat="47.048" lon="-1.74341">
        <ele>20.8</ele>
        <time>2021-12-24T07:47:48Z</time>
      </trkpt>
      <trkpt lat="47.04797" lon="-1.74343">
        <ele>21</ele>
        <time>2021-12-24T07:47:49Z</time>
      </trkpt>
      <trkpt lat="47.04791" lon="-1.74347">
        <ele>21.2</ele>
        <time>2021-12-24T07:47:51Z</time>
      </trkpt>
      <trkpt lat="47.04785" lon="-1.74352">
        <ele>21.4</ele>
        <time>2021-12-24T07:47:53Z</time>
      </trkpt>
      <trkpt lat="47.04779" lon="-1.74356">
        <ele>21.8</ele>
        <time>2021-12-24T07:47:55Z</time>
      </trkpt>
      <trkpt lat="47.04773" lon="-1.74357">
        <ele>22</ele>
        <time>2021-12-24T07:47:57Z</time>
      </trkpt>
      <trkpt lat="47.04771" lon="-1.74355">
        <ele>22</ele>
        <time>2021-12-24T07:47:58Z</time>
      </trkpt>
      <trkpt lat="47.0477" lon="-1.7435">
        <ele>22.2</ele>
        <time>2021-12-24T07:47:59Z</time>
      </trkpt>
      <trkpt lat="47.0477" lon="-1.7434">
        <ele>22.4</ele>
        <time>2021-12-24T07:48:01Z</time>
      </trkpt>
      <trkpt lat="47.0477" lon="-1.74334">
        <ele>22.6</ele>
        <time>2021-12-24T07:48:02Z</time>
      </trkpt>
      <trkpt lat="47.04771" lon="-1.74329">
        <ele>22.8</ele>
        <time>2021-12-24T07:48:03Z</time>
      </trkpt>
      <trkpt lat="47.04771" lon="-1.74319">
        <ele>23</ele>
        <time>2021-12-24T07:48:05Z</time>
      </trkpt>
      <trkpt lat="47.04772" lon="-1.74308">
        <ele>23.2</ele>
        <time>2021-12-24T07:48:07Z</time>
      </trkpt>
      <trkpt lat="47.04773" lon="-1.74297">
        <ele>23.6</ele>
        <time>2021-12-24T07:48:09Z</time>
      </trkpt>
      <trkpt lat="47.04774" lon="-1.74285">
        <ele>23.8</ele>
        <time>2021-12-24T07:48:11Z</time>
      </trkpt>
      <trkpt lat="47.04774" lon="-1.74273">
        <ele>24</ele>
        <time>2021-12-24T07:48:13Z</time>
      </trkpt>
      <trkpt lat="47.04774" lon="-1.74261">
        <ele>24.2</ele>
        <time>2021-12-24T07:48:15Z</time>
      </trkpt>
      <trkpt lat="47.04774" lon="-1.74255">
        <ele>24.4</ele>
        <time>2021-12-24T07:48:16Z</time>
      </trkpt>
      <trkpt lat="47.04773" lon="-1.74248">
        <ele>24.6</ele>
        <time>2021-12-24T07:48:17Z</time>
      </trkpt>
      <trkpt lat="47.04772" lon="-1.74242">
        <ele>24.6</ele>
        <time>2021-12-24T07:48:18Z</time>
      </trkpt>
      <trkpt lat="47.0477" lon="-1.74236">
        <ele>24.8</ele>
        <time>2021-12-24T07:48:19Z</time>
      </trkpt>
      <trkpt lat="47.04766" lon="-1.74223">
        <ele>25</ele>
        <time>2021-12-24T07:48:21Z</time>
      </trkpt>
      <trkpt lat="47.04764" lon="-1.74217">
        <ele>25.2</ele>
        <time>2021-12-24T07:48:22Z</time>
      </trkpt>
      <trkpt lat="47.04761" lon="-1.74211">
        <ele>25.2</ele>
        <time>2021-12-24T07:48:23Z</time>
      </trkpt>
      <trkpt lat="47.04756" lon="-1.742">
        <ele>25.6</ele>
        <time>2021-12-24T07:48:25Z</time>
      </trkpt>
      <trkpt lat="47.04751" lon="-1.74188">
        <ele>25.8</ele>
        <time>2021-12-24T07:48:27Z</time>
      </trkpt>
      <trkpt lat="47.04746" lon="-1.74175">
        <ele>25.8</ele>
        <time>2021-12-24T07:48:29Z</time>
      </trkpt>
      <trkpt lat="47.04744" lon="-1.74168">
        <ele>26</ele>
        <time>2021-12-24T07:48:30Z</time>
      </trkpt>
      <trkpt lat="47.04742" lon="-1.74161">
        <ele>26</ele>
        <time>2021-12-24T07:48:31Z</time>
      </trkpt>
      <trkpt lat="47.04738" lon="-1.74147">
        <ele>26.2</ele>
        <time>2021-12-24T07:48:33Z</time>
      </trkpt>
      <trkpt lat="47.04735" lon="-1.74132">
        <ele>26.4</ele>
        <time>2021-12-24T07:48:35Z</time>
      </trkpt>
      <trkpt lat="47.04732" lon="-1.74118">
        <ele>26.6</ele>
        <time>2021-12-24T07:48:37Z</time>
      </trkpt>
      <trkpt lat="47.04731" lon="-1.74111">
        <ele>26.6</ele>
        <time>2021-12-24T07:48:38Z</time>
      </trkpt>
      <trkpt lat="47.04729" lon="-1.74104">
        <ele>26.6</ele>
        <time>2021-12-24T07:48:39Z</time>
      </trkpt>
      <trkpt lat="47.04727" lon="-1.74089">
        <ele>26.8</ele>
        <time>2021-12-24T07:48:41Z</time>
      </trkpt>
      <trkpt lat="47.04724" lon="-1.74074">
        <ele>27</ele>
        <time>2021-12-24T07:48:43Z</time>
      </trkpt>
      <trkpt lat="47.0472" lon="-1.74059">
        <ele>27.2</ele>
        <time>2021-12-24T07:48:45Z</time>
      </trkpt>
      <trkpt lat="47.04717" lon="-1.74045">
        <ele>27.2</ele>
        <time>2021-12-24T07:48:47Z</time>
      </trkpt>
      <trkpt lat="47.04714" lon="-1.7403">
        <ele>27.4</ele>
        <time>2021-12-24T07:48:49Z</time>
      </trkpt>
      <trkpt lat="47.04711" lon="-1.74015">
        <ele>27.6</ele>
        <time>2021-12-24T07:48:51Z</time>
      </trkpt>
      <trkpt lat="47.04708" lon="-1.74">
        <ele>27.6</ele>
        <time>2021-12-24T07:48:53Z</time>
      </trkpt>
      <trkpt lat="47.04705" lon="-1.73986">
        <ele>27.8</ele>
        <time>2021-12-24T07:48:55Z</time>
      </trkpt>
      <trkpt lat="47.04703" lon="-1.73978">
        <ele>27.8</ele>
        <time>2021-12-24T07:48:56Z</time>
      </trkpt>
      <trkpt lat="47.04702" lon="-1.73971">
        <ele>28</ele>
        <time>2021-12-24T07:48:57Z</time>
      </trkpt>
      <trkpt lat="47.047" lon="-1.73963">
        <ele>28</ele>
        <time>2021-12-24T07:48:58Z</time>
      </trkpt>
      <trkpt lat="47.04699" lon="-1.73956">
        <ele>28</ele>
        <time>2021-12-24T07:48:59Z</time>
      </trkpt>
      <trkpt lat="47.04697" lon="-1.73941">
        <ele>28.2</ele>
        <time>2021-12-24T07:49:01Z</time>
      </trkpt>
      <trkpt lat="47.04696" lon="-1.73925">
        <ele>28.2</ele>
        <time>2021-12-24T07:49:03Z</time>
      </trkpt>
      <trkpt lat="47.04694" lon="-1.7391">
        <ele>28.4</ele>
        <time>2021-12-24T07:49:05Z</time>
      </trkpt>
      <trkpt lat="47.04693" lon="-1.73902">
        <ele>28.6</ele>
        <time>2021-12-24T07:49:06Z</time>
      </trkpt>
      <trkpt lat="47.04692" lon="-1.73894">
        <ele>28.6</ele>
        <time>2021-12-24T07:49:07Z</time>
      </trkpt>
      <trkpt lat="47.04691" lon="-1.73877">
        <ele>28.8</ele>
        <time>2021-12-24T07:49:09Z</time>
      </trkpt>
      <trkpt lat="47.0469" lon="-1.73861">
        <ele>29</ele>
        <time>2021-12-24T07:49:11Z</time>
      </trkpt>
      <trkpt lat="47.04688" lon="-1.73845">
        <ele>29.2</ele>
        <time>2021-12-24T07:49:13Z</time>
      </trkpt>
      <trkpt lat="47.04687" lon="-1.73829">
        <ele>29.4</ele>
        <time>2021-12-24T07:49:15Z</time>
      </trkpt>
      <trkpt lat="47.04685" lon="-1.73813">
        <ele>29.6</ele>
        <time>2021-12-24T07:49:17Z</time>
      </trkpt>
      <trkpt lat="47.04684" lon="-1.73797">
        <ele>29.6</ele>
        <time>2021-12-24T07:49:19Z</time>
      </trkpt>
      <trkpt lat="47.04682" lon="-1.7378">
        <ele>29.8</ele>
        <time>2021-12-24T07:49:21Z</time>
      </trkpt>
      <trkpt lat="47.04681" lon="-1.73764">
        <ele>30</ele>
        <time>2021-12-24T07:49:23Z</time>
      </trkpt>
      <trkpt lat="47.0468" lon="-1.73747">
        <ele>30.2</ele>
        <time>2021-12-24T07:49:25Z</time>
      </trkpt>
      <trkpt lat="47.04678" lon="-1.73732">
        <ele>30.2</ele>
        <time>2021-12-24T07:49:27Z</time>
      </trkpt>
      <trkpt lat="47.04677" lon="-1.73716">
        <ele>30.4</ele>
        <time>2021-12-24T07:49:29Z</time>
      </trkpt>
      <trkpt lat="47.04676" lon="-1.73701">
        <ele>30.6</ele>
        <time>2021-12-24T07:49:31Z</time>
      </trkpt>
      <trkpt lat="47.04674" lon="-1.73686">
        <ele>30.6</ele>
        <time>2021-12-24T07:49:33Z</time>
      </trkpt>
      <trkpt lat="47.04672" lon="-1.73671">
        <ele>30.8</ele>
        <time>2021-12-24T07:49:35Z</time>
      </trkpt>
      <trkpt lat="47.04671" lon="-1.73664">
        <ele>30.8</ele>
        <time>2021-12-24T07:49:36Z</time>
      </trkpt>
      <trkpt lat="47.04668" lon="-1.73658">
        <ele>31</ele>
        <time>2021-12-24T07:49:37Z</time>
      </trkpt>
      <trkpt lat="47.04662" lon="-1.73645">
        <ele>31.2</ele>
        <time>2021-12-24T07:49:39Z</time>
      </trkpt>
      <trkpt lat="47.04656" lon="-1.73633">
        <ele>31.2</ele>
        <time>2021-12-24T07:49:41Z</time>
      </trkpt>
      <trkpt lat="47.0465" lon="-1.73621">
        <ele>31.4</ele>
        <time>2021-12-24T07:49:43Z</time>
      </trkpt>
      <trkpt lat="47.04644" lon="-1.7361">
        <ele>31.6</ele>
        <time>2021-12-24T07:49:45Z</time>
      </trkpt>
      <trkpt lat="47.04638" lon="-1.73598">
        <ele>31.8</ele>
        <time>2021-12-24T07:49:47Z</time>
      </trkpt>
      <trkpt lat="47.04634" lon="-1.73593">
        <ele>31.8</ele>
        <time>2021-12-24T07:49:48Z</time>
      </trkpt>
      <trkpt lat="47.04631" lon="-1.73587">
        <ele>32</ele>
        <time>2021-12-24T07:49:49Z</time>
      </trkpt>
      <trkpt lat="47.04625" lon="-1.73576">
        <ele>32.2</ele>
        <time>2021-12-24T07:49:51Z</time>
      </trkpt>
      <trkpt lat="47.04619" lon="-1.73565">
        <ele>32.2</ele>
        <time>2021-12-24T07:49:53Z</time>
      </trkpt>
      <trkpt lat="47.04613" lon="-1.73553">
        <ele>32.4</ele>
        <time>2021-12-24T07:49:55Z</time>
      </trkpt>
      <trkpt lat="47.04606" lon="-1.73542">
        <ele>32.6</ele>
        <time>2021-12-24T07:49:57Z</time>
      </trkpt>
      <trkpt lat="47.04599" lon="-1.7353">
        <ele>32.8</ele>
        <time>2021-12-24T07:49:59Z</time>
      </trkpt>
      <trkpt lat="47.04592" lon="-1.73519">
        <ele>33</ele>
        <time>2021-12-24T07:50:01Z</time>
      </trkpt>
      <trkpt lat="47.04584" lon="-1.73509">
        <ele>33</ele>
        <time>2021-12-24T07:50:03Z</time>
      </trkpt>
      <trkpt lat="47.04576" lon="-1.73499">
        <ele>33.2</ele>
        <time>2021-12-24T07:50:05Z</time>
      </trkpt>
      <trkpt lat="47.04567" lon="-1.73489">
        <ele>33.2</ele>
        <time>2021-12-24T07:50:07Z</time>
      </trkpt>
      <trkpt lat="47.04559" lon="-1.7348">
        <ele>33.4</ele>
        <time>2021-12-24T07:50:09Z</time>
      </trkpt>
      <trkpt lat="47.0455" lon="-1.73472">
        <ele>33.4</ele>
        <time>2021-12-24T07:50:11Z</time>
      </trkpt>
      <trkpt lat="47.0454" lon="-1.73465">
        <ele>33.6</ele>
        <time>2021-12-24T07:50:13Z</time>
      </trkpt>
      <trkpt lat="47.04535" lon="-1.73461">
        <ele>33.6</ele>
        <time>2021-12-24T07:50:14Z</time>
      </trkpt>
      <trkpt lat="47.0453" lon="-1.73457">
        <ele>33.6</ele>
        <time>2021-12-24T07:50:15Z</time>
      </trkpt>
      <trkpt lat="47.04521" lon="-1.7345">
        <ele>33.8</ele>
        <time>2021-12-24T07:50:17Z</time>
      </trkpt>
      <trkpt lat="47.04511" lon="-1.73442">
        <ele>34</ele>
        <time>2021-12-24T07:50:19Z</time>
      </trkpt>
      <trkpt lat="47.04502" lon="-1.73435">
        <ele>34</ele>
        <time>2021-12-24T07:50:21Z</time>
      </trkpt>
      <trkpt lat="47.04493" lon="-1.73428">
        <ele>34.2</ele>
        <time>2021-12-24T07:50:23Z</time>
      </trkpt>
      <trkpt lat="47.04484" lon="-1.73421">
        <ele>34.2</ele>
        <time>2021-12-24T07:50:25Z</time>
      </trkpt>
      <trkpt lat="47.04475" lon="-1.73413">
        <ele>34.2</ele>
        <time>2021-12-24T07:50:27Z</time>
      </trkpt>
      <trkpt lat="47.04466" lon="-1.73406">
        <ele>34.4</ele>
        <time>2021-12-24T07:50:29Z</time>
      </trkpt>
      <trkpt lat="47.04458" lon="-1.73398">
        <ele>34.4</ele>
        <time>2021-12-24T07:50:31Z</time>
      </trkpt>
      <trkpt lat="47.0445" lon="-1.73389">
        <ele>34.6</ele>
        <time>2021-12-24T07:50:33Z</time>
      </trkpt>
      <trkpt lat="47.04441" lon="-1.7338">
        <ele>34.6</ele>
        <time>2021-12-24T07:50:35Z</time>
      </trkpt>
      <trkpt lat="47.04433" lon="-1.7337">
        <ele>34.8</ele>
        <time>2021-12-24T07:50:37Z</time>
      </trkpt>
      <trkpt lat="47.04425" lon="-1.73359">
        <ele>34.8</ele>
        <time>2021-12-24T07:50:39Z</time>
      </trkpt>
      <trkpt lat="47.04418" lon="-1.73348">
        <ele>34.8</ele>
        <time>2021-12-24T07:50:41Z</time>
      </trkpt>
      <trkpt lat="47.04411" lon="-1.73337">
        <ele>35</ele>
        <time>2021-12-24T07:50:43Z</time>
      </trkpt>
      <trkpt lat="47.04405" lon="-1.73326">
        <ele>35</ele>
        <time>2021-12-24T07:50:45Z</time>
      </trkpt>
      <trkpt lat="47.044" lon="-1.73317">
        <ele>35.2</ele>
        <time>2021-12-24T07:50:47Z</time>
      </trkpt>
      <trkpt lat="47.04394" lon="-1.73307">
        <ele>35.2</ele>
        <time>2021-12-24T07:50:49Z</time>
      </trkpt>
      <trkpt lat="47.04388" lon="-1.73298">
        <ele>35.2</ele>
        <time>2021-12-24T07:50:51Z</time>
      </trkpt>
      <trkpt lat="47.04379" lon="-1.73296">
        <ele>35.2</ele>
        <time>2021-12-24T07:50:53Z</time>
      </trkpt>
      <trkpt lat="47.04374" lon="-1.73299">
        <ele>35.4</ele>
        <time>2021-12-24T07:50:54Z</time>
      </trkpt>
      <trkpt lat="47.0437" lon="-1.73304">
        <ele>35.4</ele>
        <time>2021-12-24T07:50:55Z</time>
      </trkpt>
      <trkpt lat="47.04361" lon="-1.73314">
        <ele>35.4</ele>
        <time>2021-12-24T07:50:57Z</time>
      </trkpt>
      <trkpt lat="47.04351" lon="-1.73324">
        <ele>35.4</ele>
        <time>2021-12-24T07:50:59Z</time>
      </trkpt>
      <trkpt lat="47.04346" lon="-1.73329">
        <ele>35.6</ele>
        <time>2021-12-24T07:51:00Z</time>
      </trkpt>
      <trkpt lat="47.04341" lon="-1.73334">
        <ele>35.6</ele>
        <time>2021-12-24T07:51:01Z</time>
      </trkpt>
      <trkpt lat="47.04331" lon="-1.73345">
        <ele>35.6</ele>
        <time>2021-12-24T07:51:03Z</time>
      </trkpt>
      <trkpt lat="47.0432" lon="-1.73355">
        <ele>35.6</ele>
        <time>2021-12-24T07:51:05Z</time>
      </trkpt>
      <trkpt lat="47.0431" lon="-1.73366">
        <ele>35.8</ele>
        <time>2021-12-24T07:51:07Z</time>
      </trkpt>
      <trkpt lat="47.04299" lon="-1.73376">
        <ele>35.8</ele>
        <time>2021-12-24T07:51:09Z</time>
      </trkpt>
      <trkpt lat="47.04288" lon="-1.73387">
        <ele>35.8</ele>
        <time>2021-12-24T07:51:11Z</time>
      </trkpt>
      <trkpt lat="47.04277" lon="-1.73398">
        <ele>35.8</ele>
        <time>2021-12-24T07:51:13Z</time>
      </trkpt>
      <trkpt lat="47.04265" lon="-1.7341">
        <ele>36</ele>
        <time>2021-12-24T07:51:15Z</time>
      </trkpt>
      <trkpt lat="47.04254" lon="-1.73421">
        <ele>36</ele>
        <time>2021-12-24T07:51:17Z</time>
      </trkpt>
      <trkpt lat="47.04248" lon="-1.73427">
        <ele>36</ele>
        <time>2021-12-24T07:51:18Z</time>
      </trkpt>
      <trkpt lat="47.04242" lon="-1.73433">
        <ele>36</ele>
        <time>2021-12-24T07:51:19Z</time>
      </trkpt>
      <trkpt lat="47.0423" lon="-1.73445">
        <ele>36</ele>
        <time>2021-12-24T07:51:21Z</time>
      </trkpt>
      <trkpt lat="47.04217" lon="-1.73457">
        <ele>36</ele>
        <time>2021-12-24T07:51:23Z</time>
      </trkpt>
      <trkpt lat="47.04205" lon="-1.73469">
        <ele>36</ele>
        <time>2021-12-24T07:51:25Z</time>
      </trkpt>
      <trkpt lat="47.04198" lon="-1.73476">
        <ele>36</ele>
        <time>2021-12-24T07:51:26Z</time>
      </trkpt>
      <trkpt lat="47.04192" lon="-1.73482">
        <ele>36</ele>
        <time>2021-12-24T07:51:27Z</time>
      </trkpt>
      <trkpt lat="47.04179" lon="-1.73495">
        <ele>35.8</ele>
        <time>2021-12-24T07:51:29Z</time>
      </trkpt>
      <trkpt lat="47.04166" lon="-1.73508">
        <ele>36.2</ele>
        <time>2021-12-24T07:51:31Z</time>
      </trkpt>
      <trkpt lat="47.04153" lon="-1.73521">
        <ele>35.8</ele>
        <time>2021-12-24T07:51:33Z</time>
      </trkpt>
      <trkpt lat="47.0414" lon="-1.73534">
        <ele>35.8</ele>
        <time>2021-12-24T07:51:35Z</time>
      </trkpt>
      <trkpt lat="47.04127" lon="-1.73547">
        <ele>35.6</ele>
        <time>2021-12-24T07:51:37Z</time>
      </trkpt>
      <trkpt lat="47.04114" lon="-1.7356">
        <ele>35.6</ele>
        <time>2021-12-24T07:51:39Z</time>
      </trkpt>
      <trkpt lat="47.04101" lon="-1.73573">
        <ele>35.6</ele>
        <time>2021-12-24T07:51:41Z</time>
      </trkpt>
      <trkpt lat="47.04088" lon="-1.73586">
        <ele>35.6</ele>
        <time>2021-12-24T07:51:43Z</time>
      </trkpt>
      <trkpt lat="47.04075" lon="-1.73599">
        <ele>35.4</ele>
        <time>2021-12-24T07:51:45Z</time>
      </trkpt>
      <trkpt lat="47.04069" lon="-1.73606">
        <ele>35.4</ele>
        <time>2021-12-24T07:51:46Z</time>
      </trkpt>
      <trkpt lat="47.04062" lon="-1.73612">
        <ele>35.4</ele>
        <time>2021-12-24T07:51:47Z</time>
      </trkpt>
      <trkpt lat="47.0405" lon="-1.73625">
        <ele>35.4</ele>
        <time>2021-12-24T07:51:49Z</time>
      </trkpt>
      <trkpt lat="47.04037" lon="-1.73637">
        <ele>35.2</ele>
        <time>2021-12-24T07:51:51Z</time>
      </trkpt>
      <trkpt lat="47.04024" lon="-1.7365">
        <ele>35.2</ele>
        <time>2021-12-24T07:51:53Z</time>
      </trkpt>
      <trkpt lat="47.04011" lon="-1.73663">
        <ele>35.2</ele>
        <time>2021-12-24T07:51:55Z</time>
      </trkpt>
      <trkpt lat="47.03998" lon="-1.73676">
        <ele>35</ele>
        <time>2021-12-24T07:51:57Z</time>
      </trkpt>
      <trkpt lat="47.03986" lon="-1.73688">
        <ele>35</ele>
        <time>2021-12-24T07:51:59Z</time>
      </trkpt>
      <trkpt lat="47.03973" lon="-1.73701">
        <ele>34.8</ele>
        <time>2021-12-24T07:52:01Z</time>
      </trkpt>
      <trkpt lat="47.0396" lon="-1.73714">
        <ele>34.8</ele>
        <time>2021-12-24T07:52:03Z</time>
      </trkpt>
      <trkpt lat="47.03948" lon="-1.73726">
        <ele>34.8</ele>
        <time>2021-12-24T07:52:05Z</time>
      </trkpt>
      <trkpt lat="47.03935" lon="-1.7374">
        <ele>34.8</ele>
        <time>2021-12-24T07:52:07Z</time>
      </trkpt>
      <trkpt lat="47.03921" lon="-1.73752">
        <ele>34.8</ele>
        <time>2021-12-24T07:52:09Z</time>
      </trkpt>
      <trkpt lat="47.03907" lon="-1.73765">
        <ele>34.6</ele>
        <time>2021-12-24T07:52:11Z</time>
      </trkpt>
      <trkpt lat="47.03893" lon="-1.73776">
        <ele>34.6</ele>
        <time>2021-12-24T07:52:13Z</time>
      </trkpt>
      <trkpt lat="47.03878" lon="-1.73786">
        <ele>34.4</ele>
        <time>2021-12-24T07:52:15Z</time>
      </trkpt>
      <trkpt lat="47.03861" lon="-1.73795">
        <ele>34.4</ele>
        <time>2021-12-24T07:52:17Z</time>
      </trkpt>
      <trkpt lat="47.03853" lon="-1.73798">
        <ele>34.2</ele>
        <time>2021-12-24T07:52:18Z</time>
      </trkpt>
      <trkpt lat="47.03844" lon="-1.73801">
        <ele>34.2</ele>
        <time>2021-12-24T07:52:19Z</time>
      </trkpt>
      <trkpt lat="47.03827" lon="-1.73804">
        <ele>34</ele>
        <time>2021-12-24T07:52:21Z</time>
      </trkpt>
      <trkpt lat="47.03809" lon="-1.73807">
        <ele>33.8</ele>
        <time>2021-12-24T07:52:23Z</time>
      </trkpt>
      <trkpt lat="47.038" lon="-1.73808">
        <ele>33.6</ele>
        <time>2021-12-24T07:52:24Z</time>
      </trkpt>
      <trkpt lat="47.03792" lon="-1.7381">
        <ele>33.6</ele>
        <time>2021-12-24T07:52:25Z</time>
      </trkpt>
      <trkpt lat="47.03775" lon="-1.73812">
        <ele>33.4</ele>
        <time>2021-12-24T07:52:27Z</time>
      </trkpt>
      <trkpt lat="47.03758" lon="-1.73815">
        <ele>33.2</ele>
        <time>2021-12-24T07:52:29Z</time>
      </trkpt>
      <trkpt lat="47.0375" lon="-1.73816">
        <ele>33</ele>
        <time>2021-12-24T07:52:30Z</time>
      </trkpt>
      <trkpt lat="47.03742" lon="-1.73817">
        <ele>32.8</ele>
        <time>2021-12-24T07:52:31Z</time>
      </trkpt>
      <trkpt lat="47.03727" lon="-1.73818">
        <ele>32.6</ele>
        <time>2021-12-24T07:52:33Z</time>
      </trkpt>
      <trkpt lat="47.03719" lon="-1.73819">
        <ele>32.4</ele>
        <time>2021-12-24T07:52:34Z</time>
      </trkpt>
      <trkpt lat="47.03711" lon="-1.7382">
        <ele>32.2</ele>
        <time>2021-12-24T07:52:35Z</time>
      </trkpt>
      <trkpt lat="47.03696" lon="-1.73821">
        <ele>31.8</ele>
        <time>2021-12-24T07:52:37Z</time>
      </trkpt>
      <trkpt lat="47.03689" lon="-1.73821">
        <ele>31.6</ele>
        <time>2021-12-24T07:52:38Z</time>
      </trkpt>
      <trkpt lat="47.03682" lon="-1.73821">
        <ele>31.4</ele>
        <time>2021-12-24T07:52:39Z</time>
      </trkpt>
      <trkpt lat="47.03667" lon="-1.73819">
        <ele>31</ele>
        <time>2021-12-24T07:52:41Z</time>
      </trkpt>
      <trkpt lat="47.0366" lon="-1.73817">
        <ele>30.8</ele>
        <time>2021-12-24T07:52:42Z</time>
      </trkpt>
      <trkpt lat="47.03653" lon="-1.73815">
        <ele>30.6</ele>
        <time>2021-12-24T07:52:43Z</time>
      </trkpt>
      <trkpt lat="47.03646" lon="-1.73812">
        <ele>30.6</ele>
        <time>2021-12-24T07:52:44Z</time>
      </trkpt>
      <trkpt lat="47.03639" lon="-1.73809">
        <ele>30.4</ele>
        <time>2021-12-24T07:52:45Z</time>
      </trkpt>
      <trkpt lat="47.03625" lon="-1.73804">
        <ele>30.4</ele>
        <time>2021-12-24T07:52:47Z</time>
      </trkpt>
      <trkpt lat="47.03612" lon="-1.73799">
        <ele>30.2</ele>
        <time>2021-12-24T07:52:49Z</time>
      </trkpt>
      <trkpt lat="47.036" lon="-1.73794">
        <ele>30</ele>
        <time>2021-12-24T07:52:51Z</time>
      </trkpt>
      <trkpt lat="47.03588" lon="-1.7379">
        <ele>29.8</ele>
        <time>2021-12-24T07:52:53Z</time>
      </trkpt>
      <trkpt lat="47.03576" lon="-1.73785">
        <ele>29.8</ele>
        <time>2021-12-24T07:52:55Z</time>
      </trkpt>
      <trkpt lat="47.03564" lon="-1.7378">
        <ele>29.6</ele>
        <time>2021-12-24T07:52:57Z</time>
      </trkpt>
      <trkpt lat="47.03552" lon="-1.73777">
        <ele>29.4</ele>
        <time>2021-12-24T07:52:59Z</time>
      </trkpt>
      <trkpt lat="47.03541" lon="-1.73772">
        <ele>29.4</ele>
        <time>2021-12-24T07:53:01Z</time>
      </trkpt>
      <trkpt lat="47.03535" lon="-1.7377">
        <ele>29.4</ele>
        <time>2021-12-24T07:53:02Z</time>
      </trkpt>
      <trkpt lat="47.03529" lon="-1.73768">
        <ele>29.2</ele>
        <time>2021-12-24T07:53:03Z</time>
      </trkpt>
      <trkpt lat="47.03518" lon="-1.73764">
        <ele>29</ele>
        <time>2021-12-24T07:53:05Z</time>
      </trkpt>
      <trkpt lat="47.03506" lon="-1.73759">
        <ele>29</ele>
        <time>2021-12-24T07:53:07Z</time>
      </trkpt>
      <trkpt lat="47.03495" lon="-1.73755">
        <ele>28.8</ele>
        <time>2021-12-24T07:53:09Z</time>
      </trkpt>
      <trkpt lat="47.03484" lon="-1.73751">
        <ele>28.6</ele>
        <time>2021-12-24T07:53:11Z</time>
      </trkpt>
      <trkpt lat="47.03479" lon="-1.73749">
        <ele>28.6</ele>
        <time>2021-12-24T07:53:12Z</time>
      </trkpt>
      <trkpt lat="47.03473" lon="-1.73747">
        <ele>28.4</ele>
        <time>2021-12-24T07:53:13Z</time>
      </trkpt>
      <trkpt lat="47.03463" lon="-1.73743">
        <ele>28.2</ele>
        <time>2021-12-24T07:53:15Z</time>
      </trkpt>
      <trkpt lat="47.03452" lon="-1.73738">
        <ele>28</ele>
        <time>2021-12-24T07:53:17Z</time>
      </trkpt>
      <trkpt lat="47.03442" lon="-1.73732">
        <ele>27.8</ele>
        <time>2021-12-24T07:53:19Z</time>
      </trkpt>
      <trkpt lat="47.03431" lon="-1.73726">
        <ele>27.6</ele>
        <time>2021-12-24T07:53:21Z</time>
      </trkpt>
      <trkpt lat="47.03419" lon="-1.7372">
        <ele>27.4</ele>
        <time>2021-12-24T07:53:23Z</time>
      </trkpt>
      <trkpt lat="47.03409" lon="-1.73714">
        <ele>27.2</ele>
        <time>2021-12-24T07:53:25Z</time>
      </trkpt>
      <trkpt lat="47.03398" lon="-1.73709">
        <ele>27</ele>
        <time>2021-12-24T07:53:27Z</time>
      </trkpt>
      <trkpt lat="47.03393" lon="-1.73706">
        <ele>26.8</ele>
        <time>2021-12-24T07:53:28Z</time>
      </trkpt>
      <trkpt lat="47.03388" lon="-1.73704">
        <ele>26.8</ele>
        <time>2021-12-24T07:53:29Z</time>
      </trkpt>
      <trkpt lat="47.03383" lon="-1.73702">
        <ele>26.6</ele>
        <time>2021-12-24T07:53:30Z</time>
      </trkpt>
      <trkpt lat="47.03378" lon="-1.737">
        <ele>26.4</ele>
        <time>2021-12-24T07:53:31Z</time>
      </trkpt>
      <trkpt lat="47.03373" lon="-1.73697">
        <ele>26.4</ele>
        <time>2021-12-24T07:53:32Z</time>
      </trkpt>
      <trkpt lat="47.03368" lon="-1.73694">
        <ele>26.2</ele>
        <time>2021-12-24T07:53:33Z</time>
      </trkpt>
      <trkpt lat="47.03358" lon="-1.73689">
        <ele>26</ele>
        <time>2021-12-24T07:53:35Z</time>
      </trkpt>
      <trkpt lat="47.03348" lon="-1.73683">
        <ele>25.8</ele>
        <time>2021-12-24T07:53:37Z</time>
      </trkpt>
      <trkpt lat="47.03343" lon="-1.73681">
        <ele>25.8</ele>
        <time>2021-12-24T07:53:38Z</time>
      </trkpt>
      <trkpt lat="47.03338" lon="-1.73678">
        <ele>25.6</ele>
        <time>2021-12-24T07:53:39Z</time>
      </trkpt>
      <trkpt lat="47.03328" lon="-1.73673">
        <ele>25.4</ele>
        <time>2021-12-24T07:53:41Z</time>
      </trkpt>
      <trkpt lat="47.03323" lon="-1.7367">
        <ele>25.2</ele>
        <time>2021-12-24T07:53:42Z</time>
      </trkpt>
      <trkpt lat="47.03318" lon="-1.73667">
        <ele>25</ele>
        <time>2021-12-24T07:53:43Z</time>
      </trkpt>
      <trkpt lat="47.03308" lon="-1.73661">
        <ele>24.8</ele>
        <time>2021-12-24T07:53:45Z</time>
      </trkpt>
      <trkpt lat="47.03298" lon="-1.73655">
        <ele>24.6</ele>
        <time>2021-12-24T07:53:47Z</time>
      </trkpt>
      <trkpt lat="47.03288" lon="-1.7365">
        <ele>24.4</ele>
        <time>2021-12-24T07:53:49Z</time>
      </trkpt>
      <trkpt lat="47.03278" lon="-1.73644">
        <ele>24.2</ele>
        <time>2021-12-24T07:53:51Z</time>
      </trkpt>
      <trkpt lat="47.03268" lon="-1.73637">
        <ele>24.2</ele>
        <time>2021-12-24T07:53:53Z</time>
      </trkpt>
      <trkpt lat="47.03258" lon="-1.73631">
        <ele>24.2</ele>
        <time>2021-12-24T07:53:55Z</time>
      </trkpt>
      <trkpt lat="47.03248" lon="-1.73625">
        <ele>24.2</ele>
        <time>2021-12-24T07:53:57Z</time>
      </trkpt>
      <trkpt lat="47.03238" lon="-1.73619">
        <ele>24.2</ele>
        <time>2021-12-24T07:53:59Z</time>
      </trkpt>
      <trkpt lat="47.03228" lon="-1.73613">
        <ele>24.2</ele>
        <time>2021-12-24T07:54:01Z</time>
      </trkpt>
      <trkpt lat="47.03218" lon="-1.73608">
        <ele>24</ele>
        <time>2021-12-24T07:54:03Z</time>
      </trkpt>
      <trkpt lat="47.03208" lon="-1.73603">
        <ele>24</ele>
        <time>2021-12-24T07:54:05Z</time>
      </trkpt>
      <trkpt lat="47.03197" lon="-1.73599">
        <ele>24</ele>
        <time>2021-12-24T07:54:07Z</time>
      </trkpt>
      <trkpt lat="47.03187" lon="-1.73596">
        <ele>24.2</ele>
        <time>2021-12-24T07:54:09Z</time>
      </trkpt>
      <trkpt lat="47.03181" lon="-1.73594">
        <ele>24.2</ele>
        <time>2021-12-24T07:54:10Z</time>
      </trkpt>
      <trkpt lat="47.03176" lon="-1.73593">
        <ele>24.2</ele>
        <time>2021-12-24T07:54:11Z</time>
      </trkpt>
      <trkpt lat="47.03165" lon="-1.73592">
        <ele>24.2</ele>
        <time>2021-12-24T07:54:13Z</time>
      </trkpt>
      <trkpt lat="47.03153" lon="-1.73591">
        <ele>24.2</ele>
        <time>2021-12-24T07:54:15Z</time>
      </trkpt>
      <trkpt lat="47.03142" lon="-1.73591">
        <ele>24</ele>
        <time>2021-12-24T07:54:17Z</time>
      </trkpt>
      <trkpt lat="47.03136" lon="-1.73591">
        <ele>24.4</ele>
        <time>2021-12-24T07:54:18Z</time>
      </trkpt>
      <trkpt lat="47.03131" lon="-1.73592">
        <ele>24.4</ele>
        <time>2021-12-24T07:54:19Z</time>
      </trkpt>
      <trkpt lat="47.0312" lon="-1.73594">
        <ele>24.4</ele>
        <time>2021-12-24T07:54:21Z</time>
      </trkpt>
      <trkpt lat="47.03114" lon="-1.73595">
        <ele>24.4</ele>
        <time>2021-12-24T07:54:22Z</time>
      </trkpt>
      <trkpt lat="47.03108" lon="-1.73597">
        <ele>24.4</ele>
        <time>2021-12-24T07:54:23Z</time>
      </trkpt>
      <trkpt lat="47.03097" lon="-1.73599">
        <ele>24.6</ele>
        <time>2021-12-24T07:54:25Z</time>
      </trkpt>
      <trkpt lat="47.03086" lon="-1.73601">
        <ele>24.6</ele>
        <time>2021-12-24T07:54:27Z</time>
      </trkpt>
      <trkpt lat="47.03074" lon="-1.73603">
        <ele>24.6</ele>
        <time>2021-12-24T07:54:29Z</time>
      </trkpt>
      <trkpt lat="47.03062" lon="-1.73605">
        <ele>24.6</ele>
        <time>2021-12-24T07:54:31Z</time>
      </trkpt>
      <trkpt lat="47.03057" lon="-1.73606">
        <ele>24.6</ele>
        <time>2021-12-24T07:54:32Z</time>
      </trkpt>
      <trkpt lat="47.03051" lon="-1.73607">
        <ele>24.6</ele>
        <time>2021-12-24T07:54:33Z</time>
      </trkpt>
      <trkpt lat="47.03039" lon="-1.73609">
        <ele>24.8</ele>
        <time>2021-12-24T07:54:35Z</time>
      </trkpt>
      <trkpt lat="47.03028" lon="-1.73611">
        <ele>24.8</ele>
        <time>2021-12-24T07:54:37Z</time>
      </trkpt>
      <trkpt lat="47.03016" lon="-1.73613">
        <ele>25</ele>
        <time>2021-12-24T07:54:39Z</time>
      </trkpt>
      <trkpt lat="47.03004" lon="-1.73615">
        <ele>25</ele>
        <time>2021-12-24T07:54:41Z</time>
      </trkpt>
      <trkpt lat="47.02993" lon="-1.73616">
        <ele>25.2</ele>
        <time>2021-12-24T07:54:43Z</time>
      </trkpt>
      <trkpt lat="47.02981" lon="-1.73619">
        <ele>25.2</ele>
        <time>2021-12-24T07:54:45Z</time>
      </trkpt>
      <trkpt lat="47.02968" lon="-1.73621">
        <ele>25.2</ele>
        <time>2021-12-24T07:54:47Z</time>
      </trkpt>
      <trkpt lat="47.02955" lon="-1.73623">
        <ele>25.4</ele>
        <time>2021-12-24T07:54:49Z</time>
      </trkpt>
      <trkpt lat="47.02948" lon="-1.73624">
        <ele>25.4</ele>
        <time>2021-12-24T07:54:50Z</time>
      </trkpt>
      <trkpt lat="47.02942" lon="-1.73626">
        <ele>25.4</ele>
        <time>2021-12-24T07:54:51Z</time>
      </trkpt>
      <trkpt lat="47.02928" lon="-1.73628">
        <ele>25.6</ele>
        <time>2021-12-24T07:54:53Z</time>
      </trkpt>
      <trkpt lat="47.02915" lon="-1.7363">
        <ele>25.6</ele>
        <time>2021-12-24T07:54:55Z</time>
      </trkpt>
      <trkpt lat="47.02901" lon="-1.73633">
        <ele>25.8</ele>
        <time>2021-12-24T07:54:57Z</time>
      </trkpt>
      <trkpt lat="47.02887" lon="-1.73636">
        <ele>26</ele>
        <time>2021-12-24T07:54:59Z</time>
      </trkpt>
      <trkpt lat="47.0288" lon="-1.73637">
        <ele>26</ele>
        <time>2021-12-24T07:55:00Z</time>
      </trkpt>
      <trkpt lat="47.02873" lon="-1.73639">
        <ele>26</ele>
        <time>2021-12-24T07:55:01Z</time>
      </trkpt>
      <trkpt lat="47.02859" lon="-1.73641">
        <ele>26</ele>
        <time>2021-12-24T07:55:03Z</time>
      </trkpt>
      <trkpt lat="47.02844" lon="-1.73644">
        <ele>26.2</ele>
        <time>2021-12-24T07:55:05Z</time>
      </trkpt>
      <trkpt lat="47.0283" lon="-1.73647">
        <ele>26.4</ele>
        <time>2021-12-24T07:55:07Z</time>
      </trkpt>
      <trkpt lat="47.02817" lon="-1.73649">
        <ele>26.4</ele>
        <time>2021-12-24T07:55:09Z</time>
      </trkpt>
      <trkpt lat="47.02802" lon="-1.73652">
        <ele>26.4</ele>
        <time>2021-12-24T07:55:11Z</time>
      </trkpt>
      <trkpt lat="47.02788" lon="-1.73654">
        <ele>26.6</ele>
        <time>2021-12-24T07:55:13Z</time>
      </trkpt>
      <trkpt lat="47.02774" lon="-1.73657">
        <ele>26.6</ele>
        <time>2021-12-24T07:55:15Z</time>
      </trkpt>
      <trkpt lat="47.02767" lon="-1.73659">
        <ele>26.6</ele>
        <time>2021-12-24T07:55:16Z</time>
      </trkpt>
      <trkpt lat="47.0276" lon="-1.7366">
        <ele>26.6</ele>
        <time>2021-12-24T07:55:17Z</time>
      </trkpt>
      <trkpt lat="47.02747" lon="-1.73663">
        <ele>26.8</ele>
        <time>2021-12-24T07:55:19Z</time>
      </trkpt>
      <trkpt lat="47.0274" lon="-1.73664">
        <ele>26.8</ele>
        <time>2021-12-24T07:55:20Z</time>
      </trkpt>
      <trkpt lat="47.02733" lon="-1.73665">
        <ele>26.8</ele>
        <time>2021-12-24T07:55:21Z</time>
      </trkpt>
      <trkpt lat="47.02719" lon="-1.73669">
        <ele>26.8</ele>
        <time>2021-12-24T07:55:23Z</time>
      </trkpt>
      <trkpt lat="47.02712" lon="-1.7367">
        <ele>26.8</ele>
        <time>2021-12-24T07:55:24Z</time>
      </trkpt>
      <trkpt lat="47.02705" lon="-1.73672">
        <ele>26.8</ele>
        <time>2021-12-24T07:55:25Z</time>
      </trkpt>
      <trkpt lat="47.0269" lon="-1.73675">
        <ele>26.6</ele>
        <time>2021-12-24T07:55:27Z</time>
      </trkpt>
      <trkpt lat="47.02675" lon="-1.73678">
        <ele>26.6</ele>
        <time>2021-12-24T07:55:29Z</time>
      </trkpt>
      <trkpt lat="47.0266" lon="-1.73681">
        <ele>26.2</ele>
        <time>2021-12-24T07:55:31Z</time>
      </trkpt>
      <trkpt lat="47.02644" lon="-1.73685">
        <ele>26.2</ele>
        <time>2021-12-24T07:55:33Z</time>
      </trkpt>
      <trkpt lat="47.02629" lon="-1.73687">
        <ele>26</ele>
        <time>2021-12-24T07:55:35Z</time>
      </trkpt>
      <trkpt lat="47.02613" lon="-1.7369">
        <ele>25.8</ele>
        <time>2021-12-24T07:55:37Z</time>
      </trkpt>
      <trkpt lat="47.02605" lon="-1.73692">
        <ele>25.6</ele>
        <time>2021-12-24T07:55:38Z</time>
      </trkpt>
      <trkpt lat="47.02597" lon="-1.73693">
        <ele>25.6</ele>
        <time>2021-12-24T07:55:39Z</time>
      </trkpt>
      <trkpt lat="47.02581" lon="-1.73696">
        <ele>25.4</ele>
        <time>2021-12-24T07:55:41Z</time>
      </trkpt>
      <trkpt lat="47.02565" lon="-1.73699">
        <ele>25.2</ele>
        <time>2021-12-24T07:55:43Z</time>
      </trkpt>
      <trkpt lat="47.02549" lon="-1.73702">
        <ele>25.2</ele>
        <time>2021-12-24T07:55:45Z</time>
      </trkpt>
      <trkpt lat="47.02542" lon="-1.73704">
        <ele>25.2</ele>
        <time>2021-12-24T07:55:46Z</time>
      </trkpt>
      <trkpt lat="47.02534" lon="-1.73706">
        <ele>25</ele>
        <time>2021-12-24T07:55:47Z</time>
      </trkpt>
      <trkpt lat="47.02519" lon="-1.73709">
        <ele>24.8</ele>
        <time>2021-12-24T07:55:49Z</time>
      </trkpt>
      <trkpt lat="47.02512" lon="-1.7371">
        <ele>24.8</ele>
        <time>2021-12-24T07:55:50Z</time>
      </trkpt>
      <trkpt lat="47.02504" lon="-1.73712">
        <ele>24.6</ele>
        <time>2021-12-24T07:55:51Z</time>
      </trkpt>
      <trkpt lat="47.02497" lon="-1.73715">
        <ele>24.6</ele>
        <time>2021-12-24T07:55:52Z</time>
      </trkpt>
      <trkpt lat="47.0249" lon="-1.73717">
        <ele>24.4</ele>
        <time>2021-12-24T07:55:53Z</time>
      </trkpt>
      <trkpt lat="47.02482" lon="-1.73718">
        <ele>24.2</ele>
        <time>2021-12-24T07:55:54Z</time>
      </trkpt>
      <trkpt lat="47.02475" lon="-1.7372">
        <ele>24.2</ele>
        <time>2021-12-24T07:55:55Z</time>
      </trkpt>
      <trkpt lat="47.0246" lon="-1.73723">
        <ele>23.8</ele>
        <time>2021-12-24T07:55:57Z</time>
      </trkpt>
      <trkpt lat="47.02445" lon="-1.73726">
        <ele>23.4</ele>
        <time>2021-12-24T07:55:59Z</time>
      </trkpt>
      <trkpt lat="47.02437" lon="-1.73727">
        <ele>23.2</ele>
        <time>2021-12-24T07:56:00Z</time>
      </trkpt>
      <trkpt lat="47.02429" lon="-1.73729">
        <ele>23.2</ele>
        <time>2021-12-24T07:56:01Z</time>
      </trkpt>
      <trkpt lat="47.02414" lon="-1.73732">
        <ele>22.8</ele>
        <time>2021-12-24T07:56:03Z</time>
      </trkpt>
      <trkpt lat="47.02398" lon="-1.73734">
        <ele>22.4</ele>
        <time>2021-12-24T07:56:05Z</time>
      </trkpt>
      <trkpt lat="47.02391" lon="-1.73736">
        <ele>22.4</ele>
        <time>2021-12-24T07:56:06Z</time>
      </trkpt>
      <trkpt lat="47.02383" lon="-1.73737">
        <ele>22.4</ele>
        <time>2021-12-24T07:56:07Z</time>
      </trkpt>
      <trkpt lat="47.02367" lon="-1.73739">
        <ele>22.2</ele>
        <time>2021-12-24T07:56:09Z</time>
      </trkpt>
      <trkpt lat="47.02359" lon="-1.73741">
        <ele>22.2</ele>
        <time>2021-12-24T07:56:10Z</time>
      </trkpt>
      <trkpt lat="47.02352" lon="-1.73743">
        <ele>22.2</ele>
        <time>2021-12-24T07:56:11Z</time>
      </trkpt>
      <trkpt lat="47.02344" lon="-1.73745">
        <ele>22</ele>
        <time>2021-12-24T07:56:12Z</time>
      </trkpt>
      <trkpt lat="47.02336" lon="-1.73746">
        <ele>22</ele>
        <time>2021-12-24T07:56:13Z</time>
      </trkpt>
      <trkpt lat="47.02322" lon="-1.73749">
        <ele>21.8</ele>
        <time>2021-12-24T07:56:15Z</time>
      </trkpt>
      <trkpt lat="47.02307" lon="-1.73751">
        <ele>21.6</ele>
        <time>2021-12-24T07:56:17Z</time>
      </trkpt>
      <trkpt lat="47.023" lon="-1.73752">
        <ele>21.4</ele>
        <time>2021-12-24T07:56:18Z</time>
      </trkpt>
      <trkpt lat="47.02293" lon="-1.73752">
        <ele>21.4</ele>
        <time>2021-12-24T07:56:19Z</time>
      </trkpt>
      <trkpt lat="47.02279" lon="-1.73753">
        <ele>21.2</ele>
        <time>2021-12-24T07:56:21Z</time>
      </trkpt>
      <trkpt lat="47.02264" lon="-1.73752">
        <ele>21</ele>
        <time>2021-12-24T07:56:23Z</time>
      </trkpt>
      <trkpt lat="47.02249" lon="-1.7375">
        <ele>20.8</ele>
        <time>2021-12-24T07:56:25Z</time>
      </trkpt>
      <trkpt lat="47.02235" lon="-1.73747">
        <ele>20.6</ele>
        <time>2021-12-24T07:56:27Z</time>
      </trkpt>
      <trkpt lat="47.0222" lon="-1.73744">
        <ele>20.4</ele>
        <time>2021-12-24T07:56:29Z</time>
      </trkpt>
      <trkpt lat="47.02204" lon="-1.73741">
        <ele>20.2</ele>
        <time>2021-12-24T07:56:31Z</time>
      </trkpt>
      <trkpt lat="47.02189" lon="-1.73737">
        <ele>20.4</ele>
        <time>2021-12-24T07:56:33Z</time>
      </trkpt>
      <trkpt lat="47.02181" lon="-1.73735">
        <ele>20.4</ele>
        <time>2021-12-24T07:56:34Z</time>
      </trkpt>
      <trkpt lat="47.02173" lon="-1.73733">
        <ele>20.4</ele>
        <time>2021-12-24T07:56:35Z</time>
      </trkpt>
      <trkpt lat="47.02158" lon="-1.73729">
        <ele>20.2</ele>
        <time>2021-12-24T07:56:37Z</time>
      </trkpt>
      <trkpt lat="47.02143" lon="-1.73725">
        <ele>20.2</ele>
        <time>2021-12-24T07:56:39Z</time>
      </trkpt>
      <trkpt lat="47.02128" lon="-1.73722">
        <ele>20</ele>
        <time>2021-12-24T07:56:41Z</time>
      </trkpt>
      <trkpt lat="47.02113" lon="-1.73718">
        <ele>19.8</ele>
        <time>2021-12-24T07:56:43Z</time>
      </trkpt>
      <trkpt lat="47.021" lon="-1.73715">
        <ele>19.6</ele>
        <time>2021-12-24T07:56:45Z</time>
      </trkpt>
      <trkpt lat="47.02086" lon="-1.73712">
        <ele>19.4</ele>
        <time>2021-12-24T07:56:47Z</time>
      </trkpt>
      <trkpt lat="47.02072" lon="-1.73708">
        <ele>19.2</ele>
        <time>2021-12-24T07:56:49Z</time>
      </trkpt>
      <trkpt lat="47.02059" lon="-1.73705">
        <ele>19.2</ele>
        <time>2021-12-24T07:56:51Z</time>
      </trkpt>
      <trkpt lat="47.02047" lon="-1.73702">
        <ele>19</ele>
        <time>2021-12-24T07:56:53Z</time>
      </trkpt>
      <trkpt lat="47.02034" lon="-1.73699">
        <ele>18.8</ele>
        <time>2021-12-24T07:56:55Z</time>
      </trkpt>
      <trkpt lat="47.02022" lon="-1.73696">
        <ele>18.4</ele>
        <time>2021-12-24T07:56:57Z</time>
      </trkpt>
      <trkpt lat="47.02009" lon="-1.73692">
        <ele>18.2</ele>
        <time>2021-12-24T07:56:59Z</time>
      </trkpt>
      <trkpt lat="47.01997" lon="-1.73689">
        <ele>17.8</ele>
        <time>2021-12-24T07:57:01Z</time>
      </trkpt>
      <trkpt lat="47.01991" lon="-1.73688">
        <ele>17.6</ele>
        <time>2021-12-24T07:57:02Z</time>
      </trkpt>
      <trkpt lat="47.01985" lon="-1.73687">
        <ele>17.4</ele>
        <time>2021-12-24T07:57:03Z</time>
      </trkpt>
      <trkpt lat="47.01973" lon="-1.73684">
        <ele>16.8</ele>
        <time>2021-12-24T07:57:05Z</time>
      </trkpt>
      <trkpt lat="47.01962" lon="-1.73682">
        <ele>16.6</ele>
        <time>2021-12-24T07:57:07Z</time>
      </trkpt>
      <trkpt lat="47.0195" lon="-1.7368">
        <ele>16.4</ele>
        <time>2021-12-24T07:57:09Z</time>
      </trkpt>
      <trkpt lat="47.01938" lon="-1.73677">
        <ele>16</ele>
        <time>2021-12-24T07:57:11Z</time>
      </trkpt>
      <trkpt lat="47.01927" lon="-1.73675">
        <ele>15.4</ele>
        <time>2021-12-24T07:57:13Z</time>
      </trkpt>
      <trkpt lat="47.01915" lon="-1.73672">
        <ele>15</ele>
        <time>2021-12-24T07:57:15Z</time>
      </trkpt>
      <trkpt lat="47.01904" lon="-1.73668">
        <ele>14.6</ele>
        <time>2021-12-24T07:57:17Z</time>
      </trkpt>
      <trkpt lat="47.01892" lon="-1.73666">
        <ele>14.2</ele>
        <time>2021-12-24T07:57:19Z</time>
      </trkpt>
      <trkpt lat="47.01886" lon="-1.73664">
        <ele>14</ele>
        <time>2021-12-24T07:57:20Z</time>
      </trkpt>
      <trkpt lat="47.0188" lon="-1.73662">
        <ele>13.8</ele>
        <time>2021-12-24T07:57:21Z</time>
      </trkpt>
      <trkpt lat="47.01874" lon="-1.7366">
        <ele>13.6</ele>
        <time>2021-12-24T07:57:22Z</time>
      </trkpt>
      <trkpt lat="47.01869" lon="-1.73659">
        <ele>13.4</ele>
        <time>2021-12-24T07:57:23Z</time>
      </trkpt>
      <trkpt lat="47.01858" lon="-1.73655">
        <ele>13</ele>
        <time>2021-12-24T07:57:25Z</time>
      </trkpt>
      <trkpt lat="47.01847" lon="-1.73652">
        <ele>12.6</ele>
        <time>2021-12-24T07:57:27Z</time>
      </trkpt>
      <trkpt lat="47.01836" lon="-1.73649">
        <ele>12.4</ele>
        <time>2021-12-24T07:57:29Z</time>
      </trkpt>
      <trkpt lat="47.01824" lon="-1.73646">
        <ele>12</ele>
        <time>2021-12-24T07:57:31Z</time>
      </trkpt>
      <trkpt lat="47.01812" lon="-1.73644">
        <ele>11.4</ele>
        <time>2021-12-24T07:57:33Z</time>
      </trkpt>
      <trkpt lat="47.01801" lon="-1.73642">
        <ele>10.8</ele>
        <time>2021-12-24T07:57:35Z</time>
      </trkpt>
      <trkpt lat="47.0179" lon="-1.73639">
        <ele>10</ele>
        <time>2021-12-24T07:57:37Z</time>
      </trkpt>
      <trkpt lat="47.01778" lon="-1.73636">
        <ele>9.6</ele>
        <time>2021-12-24T07:57:39Z</time>
      </trkpt>
      <trkpt lat="47.01766" lon="-1.73634">
        <ele>9</ele>
        <time>2021-12-24T07:57:41Z</time>
      </trkpt>
      <trkpt lat="47.01755" lon="-1.73632">
        <ele>8.4</ele>
        <time>2021-12-24T07:57:43Z</time>
      </trkpt>
      <trkpt lat="47.01748" lon="-1.73631">
        <ele>8.2</ele>
        <time>2021-12-24T07:57:44Z</time>
      </trkpt>
      <trkpt lat="47.01742" lon="-1.73629">
        <ele>8.2</ele>
        <time>2021-12-24T07:57:45Z</time>
      </trkpt>
      <trkpt lat="47.01731" lon="-1.73625">
        <ele>7.6</ele>
        <time>2021-12-24T07:57:47Z</time>
      </trkpt>
      <trkpt lat="47.01718" lon="-1.73622">
        <ele>7.2</ele>
        <time>2021-12-24T07:57:49Z</time>
      </trkpt>
      <trkpt lat="47.01705" lon="-1.73618">
        <ele>7</ele>
        <time>2021-12-24T07:57:51Z</time>
      </trkpt>
      <trkpt lat="47.01692" lon="-1.73615">
        <ele>6.8</ele>
        <time>2021-12-24T07:57:53Z</time>
      </trkpt>
      <trkpt lat="47.01678" lon="-1.73612">
        <ele>6.6</ele>
        <time>2021-12-24T07:57:55Z</time>
      </trkpt>
      <trkpt lat="47.01664" lon="-1.73609">
        <ele>6</ele>
        <time>2021-12-24T07:57:57Z</time>
      </trkpt>
      <trkpt lat="47.01657" lon="-1.73608">
        <ele>5.8</ele>
        <time>2021-12-24T07:57:58Z</time>
      </trkpt>
      <trkpt lat="47.0165" lon="-1.73606">
        <ele>5.6</ele>
        <time>2021-12-24T07:57:59Z</time>
      </trkpt>
      <trkpt lat="47.01643" lon="-1.73604">
        <ele>5.2</ele>
        <time>2021-12-24T07:58:00Z</time>
      </trkpt>
      <trkpt lat="47.01636" lon="-1.73604">
        <ele>4.8</ele>
        <time>2021-12-24T07:58:01Z</time>
      </trkpt>
      <trkpt lat="47.01629" lon="-1.73602">
        <ele>4.4</ele>
        <time>2021-12-24T07:58:02Z</time>
      </trkpt>
      <trkpt lat="47.01621" lon="-1.73601">
        <ele>4.2</ele>
        <time>2021-12-24T07:58:03Z</time>
      </trkpt>
      <trkpt lat="47.01607" lon="-1.73598">
        <ele>3.4</ele>
        <time>2021-12-24T07:58:05Z</time>
      </trkpt>
      <trkpt lat="47.01594" lon="-1.73596">
        <ele>2.8</ele>
        <time>2021-12-24T07:58:07Z</time>
      </trkpt>
      <trkpt lat="47.01587" lon="-1.73593">
        <ele>2.6</ele>
        <time>2021-12-24T07:58:08Z</time>
      </trkpt>
      <trkpt lat="47.01581" lon="-1.73589">
        <ele>2.6</ele>
        <time>2021-12-24T07:58:09Z</time>
      </trkpt>
      <trkpt lat="47.01567" lon="-1.73586">
        <ele>1.8</ele>
        <time>2021-12-24T07:58:11Z</time>
      </trkpt>
      <trkpt lat="47.01554" lon="-1.73583">
        <ele>1.2</ele>
        <time>2021-12-24T07:58:13Z</time>
      </trkpt>
      <trkpt lat="47.01547" lon="-1.73581">
        <ele>1</ele>
        <time>2021-12-24T07:58:14Z</time>
      </trkpt>
      <trkpt lat="47.0154" lon="-1.73579">
        <ele>0.60000000000002</ele>
        <time>2021-12-24T07:58:15Z</time>
      </trkpt>
      <trkpt lat="47.01527" lon="-1.73576">
        <ele>0.19999999999999</ele>
        <time>2021-12-24T07:58:17Z</time>
      </trkpt>
      <trkpt lat="47.01514" lon="-1.73573">
        <ele>-0.19999999999999</ele>
        <time>2021-12-24T07:58:19Z</time>
      </trkpt>
      <trkpt lat="47.01501" lon="-1.7357">
        <ele>-0.60000000000002</ele>
        <time>2021-12-24T07:58:21Z</time>
      </trkpt>
      <trkpt lat="47.01487" lon="-1.73566">
        <ele>-0.80000000000001</ele>
        <time>2021-12-24T07:58:23Z</time>
      </trkpt>
      <trkpt lat="47.01474" lon="-1.73563">
        <ele>-1.2</ele>
        <time>2021-12-24T07:58:25Z</time>
      </trkpt>
      <trkpt lat="47.01461" lon="-1.7356">
        <ele>-1.8</ele>
        <time>2021-12-24T07:58:27Z</time>
      </trkpt>
      <trkpt lat="47.01454" lon="-1.73559">
        <ele>-2</ele>
        <time>2021-12-24T07:58:28Z</time>
      </trkpt>
      <trkpt lat="47.01448" lon="-1.73557">
        <ele>-2.2</ele>
        <time>2021-12-24T07:58:29Z</time>
      </trkpt>
      <trkpt lat="47.01434" lon="-1.73555">
        <ele>-2.4</ele>
        <time>2021-12-24T07:58:31Z</time>
      </trkpt>
      <trkpt lat="47.01421" lon="-1.73551">
        <ele>-2.6</ele>
        <time>2021-12-24T07:58:33Z</time>
      </trkpt>
      <trkpt lat="47.01408" lon="-1.73547">
        <ele>-3</ele>
        <time>2021-12-24T07:58:35Z</time>
      </trkpt>
      <trkpt lat="47.01402" lon="-1.73546">
        <ele>-3</ele>
        <time>2021-12-24T07:58:36Z</time>
      </trkpt>
      <trkpt lat="47.01396" lon="-1.73544">
        <ele>-3</ele>
        <time>2021-12-24T07:58:37Z</time>
      </trkpt>
      <trkpt lat="47.01384" lon="-1.73541">
        <ele>-3.2</ele>
        <time>2021-12-24T07:58:39Z</time>
      </trkpt>
      <trkpt lat="47.01371" lon="-1.73536">
        <ele>-3.4</ele>
        <time>2021-12-24T07:58:41Z</time>
      </trkpt>
      <trkpt lat="47.01358" lon="-1.73533">
        <ele>-3.2</ele>
        <time>2021-12-24T07:58:43Z</time>
      </trkpt>
      <trkpt lat="47.01345" lon="-1.73529">
        <ele>-3.4</ele>
        <time>2021-12-24T07:58:45Z</time>
      </trkpt>
      <trkpt lat="47.01332" lon="-1.73525">
        <ele>-3.2</ele>
        <time>2021-12-24T07:58:47Z</time>
      </trkpt>
      <trkpt lat="47.0132" lon="-1.73522">
        <ele>-3.2</ele>
        <time>2021-12-24T07:58:49Z</time>
      </trkpt>
      <trkpt lat="47.01307" lon="-1.73519">
        <ele>-3</ele>
        <time>2021-12-24T07:58:51Z</time>
      </trkpt>
      <trkpt lat="47.01295" lon="-1.73515">
        <ele>-4.4</ele>
        <time>2021-12-24T07:58:53Z</time>
      </trkpt>
      <trkpt lat="47.01282" lon="-1.73512">
        <ele>-2.8</ele>
        <time>2021-12-24T07:58:55Z</time>
      </trkpt>
      <trkpt lat="47.01269" lon="-1.73509">
        <ele>-1.4</ele>
        <time>2021-12-24T07:58:57Z</time>
      </trkpt>
      <trkpt lat="47.01256" lon="-1.73505">
        <ele>-2.4</ele>
        <time>2021-12-24T07:58:59Z</time>
      </trkpt>
      <trkpt lat="47.01244" lon="-1.73501">
        <ele>-2.4</ele>
        <time>2021-12-24T07:59:01Z</time>
      </trkpt>
      <trkpt lat="47.01238" lon="-1.73499">
        <ele>-2.4</ele>
        <time>2021-12-24T07:59:02Z</time>
      </trkpt>
      <trkpt lat="47.01232" lon="-1.73498">
        <ele>-2.4</ele>
        <time>2021-12-24T07:59:03Z</time>
      </trkpt>
      <trkpt lat="47.0122" lon="-1.73494">
        <ele>-2.2</ele>
        <time>2021-12-24T07:59:05Z</time>
      </trkpt>
      <trkpt lat="47.01207" lon="-1.7349">
        <ele>-2</ele>
        <time>2021-12-24T07:59:07Z</time>
      </trkpt>
      <trkpt lat="47.01194" lon="-1.73486">
        <ele>-1.8</ele>
        <time>2021-12-24T07:59:09Z</time>
      </trkpt>
      <trkpt lat="47.0118" lon="-1.73482">
        <ele>-1.8</ele>
        <time>2021-12-24T07:59:11Z</time>
      </trkpt>
      <trkpt lat="47.01166" lon="-1.73478">
        <ele>-1.8</ele>
        <time>2021-12-24T07:59:13Z</time>
      </trkpt>
      <trkpt lat="47.01152" lon="-1.73473">
        <ele>-1.6</ele>
        <time>2021-12-24T07:59:15Z</time>
      </trkpt>
      <trkpt lat="47.01138" lon="-1.73469">
        <ele>-1.6</ele>
        <time>2021-12-24T07:59:17Z</time>
      </trkpt>
      <trkpt lat="47.01131" lon="-1.73468">
        <ele>-1.6</ele>
        <time>2021-12-24T07:59:18Z</time>
      </trkpt>
      <trkpt lat="47.01124" lon="-1.73465">
        <ele>-1.6</ele>
        <time>2021-12-24T07:59:19Z</time>
      </trkpt>
      <trkpt lat="47.0111" lon="-1.73462">
        <ele>-1.6</ele>
        <time>2021-12-24T07:59:21Z</time>
      </trkpt>
      <trkpt lat="47.01095" lon="-1.73458">
        <ele>-1.6</ele>
        <time>2021-12-24T07:59:23Z</time>
      </trkpt>
      <trkpt lat="47.01081" lon="-1.73455">
        <ele>-1.4</ele>
        <time>2021-12-24T07:59:25Z</time>
      </trkpt>
      <trkpt lat="47.01073" lon="-1.73453">
        <ele>-1.2</ele>
        <time>2021-12-24T07:59:26Z</time>
      </trkpt>
      <trkpt lat="47.01066" lon="-1.73451">
        <ele>-1</ele>
        <time>2021-12-24T07:59:27Z</time>
      </trkpt>
      <trkpt lat="47.0105" lon="-1.73446">
        <ele>-0.80000000000001</ele>
        <time>2021-12-24T07:59:29Z</time>
      </trkpt>
      <trkpt lat="47.01035" lon="-1.73443">
        <ele>-0.60000000000002</ele>
        <time>2021-12-24T07:59:31Z</time>
      </trkpt>
      <trkpt lat="47.01027" lon="-1.7344">
        <ele>-0.39999999999998</ele>
        <time>2021-12-24T07:59:32Z</time>
      </trkpt>
      <trkpt lat="47.01019" lon="-1.73438">
        <ele>-0.19999999999999</ele>
        <time>2021-12-24T07:59:33Z</time>
      </trkpt>
      <trkpt lat="47.01003" lon="-1.73434">
        <ele>-0.19999999999999</ele>
        <time>2021-12-24T07:59:35Z</time>
      </trkpt>
      <trkpt lat="47.00986" lon="-1.7343">
        <ele>-0.19999999999999</ele>
        <time>2021-12-24T07:59:37Z</time>
      </trkpt>
      <trkpt lat="47.0097" lon="-1.73425">
        <ele>-0.19999999999999</ele>
        <time>2021-12-24T07:59:39Z</time>
      </trkpt>
      <trkpt lat="47.00954" lon="-1.73421">
        <ele>-0.19999999999999</ele>
        <time>2021-12-24T07:59:41Z</time>
      </trkpt>
      <trkpt lat="47.00938" lon="-1.73416">
        <ele>-0.19999999999999</ele>
        <time>2021-12-24T07:59:43Z</time>
      </trkpt>
      <trkpt lat="47.00923" lon="-1.73412">
        <ele>-0.19999999999999</ele>
        <time>2021-12-24T07:59:45Z</time>
      </trkpt>
      <trkpt lat="47.00915" lon="-1.7341">
        <ele>-0.19999999999999</ele>
        <time>2021-12-24T07:59:46Z</time>
      </trkpt>
      <trkpt lat="47.00907" lon="-1.73408">
        <ele>-0.19999999999999</ele>
        <time>2021-12-24T07:59:47Z</time>
      </trkpt>
      <trkpt lat="47.00891" lon="-1.73404">
        <ele>-0.19999999999999</ele>
        <time>2021-12-24T07:59:49Z</time>
      </trkpt>
      <trkpt lat="47.00876" lon="-1.73401">
        <ele>0.19999999999999</ele>
        <time>2021-12-24T07:59:51Z</time>
      </trkpt>
      <trkpt lat="47.00868" lon="-1.73399">
        <ele>0.19999999999999</ele>
        <time>2021-12-24T07:59:52Z</time>
      </trkpt>
      <trkpt lat="47.0086" lon="-1.73397">
        <ele>0.19999999999999</ele>
        <time>2021-12-24T07:59:53Z</time>
      </trkpt>
      <trkpt lat="47.00844" lon="-1.73394">
        <ele>0.19999999999999</ele>
        <time>2021-12-24T07:59:55Z</time>
      </trkpt>
      <trkpt lat="47.00828" lon="-1.73392">
        <ele>0.19999999999999</ele>
        <time>2021-12-24T07:59:57Z</time>
      </trkpt>
      <trkpt lat="47.00813" lon="-1.7339">
        <ele>0.39999999999998</ele>
        <time>2021-12-24T07:59:59Z</time>
      </trkpt>
      <trkpt lat="47.00798" lon="-1.73388">
        <ele>-0.19999999999999</ele>
        <time>2021-12-24T08:00:01Z</time>
      </trkpt>
      <trkpt lat="47.00783" lon="-1.73387">
        <ele>-0.39999999999998</ele>
        <time>2021-12-24T08:00:03Z</time>
      </trkpt>
      <trkpt lat="47.00776" lon="-1.73387">
        <ele>-0.39999999999998</ele>
        <time>2021-12-24T08:00:04Z</time>
      </trkpt>
      <trkpt lat="47.00768" lon="-1.73387">
        <ele>-0.60000000000002</ele>
        <time>2021-12-24T08:00:05Z</time>
      </trkpt>
      <trkpt lat="47.00754" lon="-1.73386">
        <ele>-0.80000000000001</ele>
        <time>2021-12-24T08:00:07Z</time>
      </trkpt>
      <trkpt lat="47.00739" lon="-1.73387">
        <ele>-1</ele>
        <time>2021-12-24T08:00:09Z</time>
      </trkpt>
      <trkpt lat="47.00726" lon="-1.73388">
        <ele>-1.2</ele>
        <time>2021-12-24T08:00:11Z</time>
      </trkpt>
      <trkpt lat="47.00712" lon="-1.73389">
        <ele>-1.4</ele>
        <time>2021-12-24T08:00:13Z</time>
      </trkpt>
      <trkpt lat="47.00698" lon="-1.7339">
        <ele>-1.2</ele>
        <time>2021-12-24T08:00:15Z</time>
      </trkpt>
      <trkpt lat="47.00684" lon="-1.7339">
        <ele>-1</ele>
        <time>2021-12-24T08:00:17Z</time>
      </trkpt>
      <trkpt lat="47.00677" lon="-1.7339">
        <ele>-1</ele>
        <time>2021-12-24T08:00:18Z</time>
      </trkpt>
      <trkpt lat="47.0067" lon="-1.7339">
        <ele>-0.80000000000001</ele>
        <time>2021-12-24T08:00:19Z</time>
      </trkpt>
      <trkpt lat="47.00656" lon="-1.7339">
        <ele>-1.2</ele>
        <time>2021-12-24T08:00:21Z</time>
      </trkpt>
      <trkpt lat="47.00642" lon="-1.73389">
        <ele>-1.2</ele>
        <time>2021-12-24T08:00:23Z</time>
      </trkpt>
      <trkpt lat="47.00628" lon="-1.73388">
        <ele>-0.19999999999999</ele>
        <time>2021-12-24T08:00:25Z</time>
      </trkpt>
      <trkpt lat="47.00615" lon="-1.73388">
        <ele>-0.19999999999999</ele>
        <time>2021-12-24T08:00:27Z</time>
      </trkpt>
      <trkpt lat="47.00601" lon="-1.73388">
        <ele>0.19999999999999</ele>
        <time>2021-12-24T08:00:29Z</time>
      </trkpt>
      <trkpt lat="47.00589" lon="-1.73388">
        <ele>0.39999999999998</ele>
        <time>2021-12-24T08:00:31Z</time>
      </trkpt>
      <trkpt lat="47.00576" lon="-1.73387">
        <ele>0.60000000000002</ele>
        <time>2021-12-24T08:00:33Z</time>
      </trkpt>
      <trkpt lat="47.00564" lon="-1.73387">
        <ele>0.80000000000001</ele>
        <time>2021-12-24T08:00:35Z</time>
      </trkpt>
      <trkpt lat="47.00551" lon="-1.73387">
        <ele>1</ele>
        <time>2021-12-24T08:00:37Z</time>
      </trkpt>
      <trkpt lat="47.00539" lon="-1.73387">
        <ele>1.2</ele>
        <time>2021-12-24T08:00:39Z</time>
      </trkpt>
      <trkpt lat="47.00527" lon="-1.73387">
        <ele>1.4</ele>
        <time>2021-12-24T08:00:41Z</time>
      </trkpt>
      <trkpt lat="47.00516" lon="-1.73387">
        <ele>1.6</ele>
        <time>2021-12-24T08:00:43Z</time>
      </trkpt>
      <trkpt lat="47.00504" lon="-1.73387">
        <ele>1.8</ele>
        <time>2021-12-24T08:00:45Z</time>
      </trkpt>
      <trkpt lat="47.00493" lon="-1.73387">
        <ele>2</ele>
        <time>2021-12-24T08:00:47Z</time>
      </trkpt>
      <trkpt lat="47.00487" lon="-1.73387">
        <ele>2.2</ele>
        <time>2021-12-24T08:00:48Z</time>
      </trkpt>
      <trkpt lat="47.00482" lon="-1.73387">
        <ele>2.2</ele>
        <time>2021-12-24T08:00:49Z</time>
      </trkpt>
      <trkpt lat="47.00471" lon="-1.73387">
        <ele>2.4</ele>
        <time>2021-12-24T08:00:51Z</time>
      </trkpt>
      <trkpt lat="47.0046" lon="-1.73387">
        <ele>2.6</ele>
        <time>2021-12-24T08:00:53Z</time>
      </trkpt>
      <trkpt lat="47.00449" lon="-1.73387">
        <ele>3</ele>
        <time>2021-12-24T08:00:55Z</time>
      </trkpt>
      <trkpt lat="47.00444" lon="-1.73387">
        <ele>3</ele>
        <time>2021-12-24T08:00:56Z</time>
      </trkpt>
      <trkpt lat="47.00438" lon="-1.73388">
        <ele>3.2</ele>
        <time>2021-12-24T08:00:57Z</time>
      </trkpt>
      <trkpt lat="47.00428" lon="-1.73391">
        <ele>3.4</ele>
        <time>2021-12-24T08:00:59Z</time>
      </trkpt>
      <trkpt lat="47.00418" lon="-1.73394">
        <ele>3.6</ele>
        <time>2021-12-24T08:01:01Z</time>
      </trkpt>
      <trkpt lat="47.00408" lon="-1.73399">
        <ele>4</ele>
        <time>2021-12-24T08:01:03Z</time>
      </trkpt>
      <trkpt lat="47.00399" lon="-1.73403">
        <ele>4.2</ele>
        <time>2021-12-24T08:01:05Z</time>
      </trkpt>
      <trkpt lat="47.00389" lon="-1.73408">
        <ele>4.6</ele>
        <time>2021-12-24T08:01:07Z</time>
      </trkpt>
      <trkpt lat="47.00379" lon="-1.73412">
        <ele>4.8</ele>
        <time>2021-12-24T08:01:09Z</time>
      </trkpt>
      <trkpt lat="47.00369" lon="-1.73417">
        <ele>5.2</ele>
        <time>2021-12-24T08:01:11Z</time>
      </trkpt>
      <trkpt lat="47.0036" lon="-1.73421">
        <ele>5.4</ele>
        <time>2021-12-24T08:01:13Z</time>
      </trkpt>
      <trkpt lat="47.0035" lon="-1.73427">
        <ele>5.6</ele>
        <time>2021-12-24T08:01:15Z</time>
      </trkpt>
      <trkpt lat="47.0034" lon="-1.73431">
        <ele>5.8</ele>
        <time>2021-12-24T08:01:17Z</time>
      </trkpt>
      <trkpt lat="47.00331" lon="-1.73436">
        <ele>6</ele>
        <time>2021-12-24T08:01:19Z</time>
      </trkpt>
      <trkpt lat="47.00321" lon="-1.73441">
        <ele>6.2</ele>
        <time>2021-12-24T08:01:21Z</time>
      </trkpt>
      <trkpt lat="47.00311" lon="-1.73446">
        <ele>6.4</ele>
        <time>2021-12-24T08:01:23Z</time>
      </trkpt>
      <trkpt lat="47.00306" lon="-1.73448">
        <ele>6.4</ele>
        <time>2021-12-24T08:01:24Z</time>
      </trkpt>
      <trkpt lat="47.00302" lon="-1.73451">
        <ele>6.4</ele>
        <time>2021-12-24T08:01:25Z</time>
      </trkpt>
      <trkpt lat="47.00291" lon="-1.73456">
        <ele>6.6</ele>
        <time>2021-12-24T08:01:27Z</time>
      </trkpt>
      <trkpt lat="47.00282" lon="-1.7346">
        <ele>6.6</ele>
        <time>2021-12-24T08:01:29Z</time>
      </trkpt>
      <trkpt lat="47.00272" lon="-1.73465">
        <ele>6.8</ele>
        <time>2021-12-24T08:01:31Z</time>
      </trkpt>
      <trkpt lat="47.00263" lon="-1.7347">
        <ele>7</ele>
        <time>2021-12-24T08:01:33Z</time>
      </trkpt>
      <trkpt lat="47.00253" lon="-1.73474">
        <ele>7.2</ele>
        <time>2021-12-24T08:01:35Z</time>
      </trkpt>
      <trkpt lat="47.00244" lon="-1.73479">
        <ele>7.2</ele>
        <time>2021-12-24T08:01:37Z</time>
      </trkpt>
      <trkpt lat="47.00234" lon="-1.73484">
        <ele>7.4</ele>
        <time>2021-12-24T08:01:39Z</time>
      </trkpt>
      <trkpt lat="47.0023" lon="-1.73486">
        <ele>7.4</ele>
        <time>2021-12-24T08:01:40Z</time>
      </trkpt>
      <trkpt lat="47.00226" lon="-1.73489">
        <ele>7.4</ele>
        <time>2021-12-24T08:01:41Z</time>
      </trkpt>
      <trkpt lat="47.00217" lon="-1.73494">
        <ele>7.4</ele>
        <time>2021-12-24T08:01:43Z</time>
      </trkpt>
      <trkpt lat="47.00208" lon="-1.735">
        <ele>7.6</ele>
        <time>2021-12-24T08:01:45Z</time>
      </trkpt>
      <trkpt lat="47.00199" lon="-1.73506">
        <ele>7.6</ele>
        <time>2021-12-24T08:01:47Z</time>
      </trkpt>
      <trkpt lat="47.00194" lon="-1.73508">
        <ele>7.6</ele>
        <time>2021-12-24T08:01:48Z</time>
      </trkpt>
      <trkpt lat="47.0019" lon="-1.73512">
        <ele>7.6</ele>
        <time>2021-12-24T08:01:49Z</time>
      </trkpt>
      <trkpt lat="47.00181" lon="-1.73518">
        <ele>7.6</ele>
        <time>2021-12-24T08:01:51Z</time>
      </trkpt>
      <trkpt lat="47.00174" lon="-1.73524">
        <ele>7.6</ele>
        <time>2021-12-24T08:01:53Z</time>
      </trkpt>
      <trkpt lat="47.00166" lon="-1.73531">
        <ele>7.8</ele>
        <time>2021-12-24T08:01:55Z</time>
      </trkpt>
      <trkpt lat="47.00157" lon="-1.73537">
        <ele>7.8</ele>
        <time>2021-12-24T08:01:57Z</time>
      </trkpt>
      <trkpt lat="47.00149" lon="-1.73544">
        <ele>7.8</ele>
        <time>2021-12-24T08:01:59Z</time>
      </trkpt>
      <trkpt lat="47.00141" lon="-1.7355">
        <ele>8</ele>
        <time>2021-12-24T08:02:01Z</time>
      </trkpt>
      <trkpt lat="47.00133" lon="-1.73556">
        <ele>8</ele>
        <time>2021-12-24T08:02:03Z</time>
      </trkpt>
      <trkpt lat="47.00126" lon="-1.73563">
        <ele>8.2</ele>
        <time>2021-12-24T08:02:05Z</time>
      </trkpt>
      <trkpt lat="47.00119" lon="-1.7357">
        <ele>8.6</ele>
        <time>2021-12-24T08:02:07Z</time>
      </trkpt>
      <trkpt lat="47.00113" lon="-1.73579">
        <ele>9</ele>
        <time>2021-12-24T08:02:09Z</time>
      </trkpt>
      <trkpt lat="47.00106" lon="-1.73589">
        <ele>9.2</ele>
        <time>2021-12-24T08:02:11Z</time>
      </trkpt>
      <trkpt lat="47.001" lon="-1.73601">
        <ele>9.4</ele>
        <time>2021-12-24T08:02:13Z</time>
      </trkpt>
      <trkpt lat="47.00098" lon="-1.73607">
        <ele>9.6</ele>
        <time>2021-12-24T08:02:14Z</time>
      </trkpt>
      <trkpt lat="47.00096" lon="-1.73613">
        <ele>9.8</ele>
        <time>2021-12-24T08:02:15Z</time>
      </trkpt>
      <trkpt lat="47.00092" lon="-1.73627">
        <ele>10.2</ele>
        <time>2021-12-24T08:02:17Z</time>
      </trkpt>
      <trkpt lat="47.00091" lon="-1.73643">
        <ele>10.4</ele>
        <time>2021-12-24T08:02:19Z</time>
      </trkpt>
      <trkpt lat="47.0009" lon="-1.73651">
        <ele>10.6</ele>
        <time>2021-12-24T08:02:20Z</time>
      </trkpt>
      <trkpt lat="47.00091" lon="-1.73659">
        <ele>10.6</ele>
        <time>2021-12-24T08:02:21Z</time>
      </trkpt>
      <trkpt lat="47.0009" lon="-1.73676">
        <ele>11</ele>
        <time>2021-12-24T08:02:23Z</time>
      </trkpt>
      <trkpt lat="47.00086" lon="-1.73692">
        <ele>11.2</ele>
        <time>2021-12-24T08:02:25Z</time>
      </trkpt>
      <trkpt lat="47.00077" lon="-1.73703">
        <ele>11.4</ele>
        <time>2021-12-24T08:02:27Z</time>
      </trkpt>
      <trkpt lat="47.00071" lon="-1.73706">
        <ele>11.4</ele>
        <time>2021-12-24T08:02:28Z</time>
      </trkpt>
      <trkpt lat="47.00065" lon="-1.73708">
        <ele>11.6</ele>
        <time>2021-12-24T08:02:29Z</time>
      </trkpt>
      <trkpt lat="47.00053" lon="-1.73712">
        <ele>11.8</ele>
        <time>2021-12-24T08:02:31Z</time>
      </trkpt>
      <trkpt lat="47.00047" lon="-1.73717">
        <ele>11.8</ele>
        <time>2021-12-24T08:02:32Z</time>
      </trkpt>
      <trkpt lat="47.00041" lon="-1.73721">
        <ele>12</ele>
        <time>2021-12-24T08:02:33Z</time>
      </trkpt>
      <trkpt lat="47.00029" lon="-1.73732">
        <ele>12.2</ele>
        <time>2021-12-24T08:02:35Z</time>
      </trkpt>
      <trkpt lat="47.00016" lon="-1.73742">
        <ele>12.4</ele>
        <time>2021-12-24T08:02:37Z</time>
      </trkpt>
      <trkpt lat="47.00001" lon="-1.73751">
        <ele>12.6</ele>
        <time>2021-12-24T08:02:39Z</time>
      </trkpt>
      <trkpt lat="46.99986" lon="-1.73755">
        <ele>12.6</ele>
        <time>2021-12-24T08:02:41Z</time>
      </trkpt>
      <trkpt lat="46.99978" lon="-1.73756">
        <ele>12.8</ele>
        <time>2021-12-24T08:02:42Z</time>
      </trkpt>
      <trkpt lat="46.99969" lon="-1.73757">
        <ele>12.8</ele>
        <time>2021-12-24T08:02:43Z</time>
      </trkpt>
      <trkpt lat="46.99953" lon="-1.73757">
        <ele>12.8</ele>
        <time>2021-12-24T08:02:45Z</time>
      </trkpt>
      <trkpt lat="46.99937" lon="-1.73757">
        <ele>13</ele>
        <time>2021-12-24T08:02:47Z</time>
      </trkpt>
      <trkpt lat="46.99929" lon="-1.73757">
        <ele>13.2</ele>
        <time>2021-12-24T08:02:48Z</time>
      </trkpt>
      <trkpt lat="46.99922" lon="-1.73756">
        <ele>13.2</ele>
        <time>2021-12-24T08:02:49Z</time>
      </trkpt>
      <trkpt lat="46.99909" lon="-1.73755">
        <ele>13.2</ele>
        <time>2021-12-24T08:02:51Z</time>
      </trkpt>
      <trkpt lat="46.99895" lon="-1.73753">
        <ele>13.2</ele>
        <time>2021-12-24T08:02:53Z</time>
      </trkpt>
      <trkpt lat="46.99888" lon="-1.73754">
        <ele>13</ele>
        <time>2021-12-24T08:02:54Z</time>
      </trkpt>
      <trkpt lat="46.99882" lon="-1.73755">
        <ele>13</ele>
        <time>2021-12-24T08:02:55Z</time>
      </trkpt>
      <trkpt lat="46.99869" lon="-1.73757">
        <ele>13</ele>
        <time>2021-12-24T08:02:57Z</time>
      </trkpt>
      <trkpt lat="46.99858" lon="-1.73757">
        <ele>13.2</ele>
        <time>2021-12-24T08:02:59Z</time>
      </trkpt>
      <trkpt lat="46.99852" lon="-1.73757">
        <ele>13.2</ele>
        <time>2021-12-24T08:03:00Z</time>
      </trkpt>
      <trkpt lat="46.99846" lon="-1.73757">
        <ele>13.4</ele>
        <time>2021-12-24T08:03:01Z</time>
      </trkpt>
      <trkpt lat="46.99836" lon="-1.73757">
        <ele>13.6</ele>
        <time>2021-12-24T08:03:03Z</time>
      </trkpt>
      <trkpt lat="46.99827" lon="-1.73759">
        <ele>13.8</ele>
        <time>2021-12-24T08:03:05Z</time>
      </trkpt>
      <trkpt lat="46.99822" lon="-1.73761">
        <ele>13.8</ele>
        <time>2021-12-24T08:03:06Z</time>
      </trkpt>
      <trkpt lat="46.99817" lon="-1.73762">
        <ele>14</ele>
        <time>2021-12-24T08:03:07Z</time>
      </trkpt>
      <trkpt lat="46.99813" lon="-1.73766">
        <ele>14</ele>
        <time>2021-12-24T08:03:08Z</time>
      </trkpt>
      <trkpt lat="46.99809" lon="-1.7377">
        <ele>14.2</ele>
        <time>2021-12-24T08:03:09Z</time>
      </trkpt>
      <trkpt lat="46.99805" lon="-1.73775">
        <ele>14.4</ele>
        <time>2021-12-24T08:03:10Z</time>
      </trkpt>
      <trkpt lat="46.99801" lon="-1.73778">
        <ele>14.4</ele>
        <time>2021-12-24T08:03:11Z</time>
      </trkpt>
      <trkpt lat="46.99797" lon="-1.7378">
        <ele>14.6</ele>
        <time>2021-12-24T08:03:12Z</time>
      </trkpt>
      <trkpt lat="46.99792" lon="-1.73781">
        <ele>14.6</ele>
        <time>2021-12-24T08:03:13Z</time>
      </trkpt>
      <trkpt lat="46.99788" lon="-1.73781">
        <ele>14.8</ele>
        <time>2021-12-24T08:03:14Z</time>
      </trkpt>
      <trkpt lat="46.99783" lon="-1.73781">
        <ele>14.8</ele>
        <time>2021-12-24T08:03:15Z</time>
      </trkpt>
      <trkpt lat="46.99779" lon="-1.73778">
        <ele>14.8</ele>
        <time>2021-12-24T08:03:16Z</time>
      </trkpt>
      <trkpt lat="46.99775" lon="-1.73775">
        <ele>15</ele>
        <time>2021-12-24T08:03:17Z</time>
      </trkpt>
      <trkpt lat="46.99772" lon="-1.7377">
        <ele>15</ele>
        <time>2021-12-24T08:03:18Z</time>
      </trkpt>
      <trkpt lat="46.9977" lon="-1.73764">
        <ele>15</ele>
        <time>2021-12-24T08:03:19Z</time>
      </trkpt>
      <trkpt lat="46.99768" lon="-1.73757">
        <ele>15</ele>
        <time>2021-12-24T08:03:20Z</time>
      </trkpt>
      <trkpt lat="46.99767" lon="-1.73751">
        <ele>15.2</ele>
        <time>2021-12-24T08:03:21Z</time>
      </trkpt>
      <trkpt lat="46.99764" lon="-1.73745">
        <ele>15.2</ele>
        <time>2021-12-24T08:03:22Z</time>
      </trkpt>
      <trkpt lat="46.9976" lon="-1.7374">
        <ele>15.2</ele>
        <time>2021-12-24T08:03:23Z</time>
      </trkpt>
      <trkpt lat="46.99755" lon="-1.73736">
        <ele>15.4</ele>
        <time>2021-12-24T08:03:24Z</time>
      </trkpt>
      <trkpt lat="46.99751" lon="-1.73733">
        <ele>15.4</ele>
        <time>2021-12-24T08:03:25Z</time>
      </trkpt>
      <trkpt lat="46.99741" lon="-1.73725">
        <ele>15.4</ele>
        <time>2021-12-24T08:03:27Z</time>
      </trkpt>
      <trkpt lat="46.99733" lon="-1.73715">
        <ele>15.6</ele>
        <time>2021-12-24T08:03:29Z</time>
      </trkpt>
      <trkpt lat="46.99729" lon="-1.7371">
        <ele>15.6</ele>
        <time>2021-12-24T08:03:30Z</time>
      </trkpt>
      <trkpt lat="46.99725" lon="-1.73705">
        <ele>15.6</ele>
        <time>2021-12-24T08:03:31Z</time>
      </trkpt>
      <trkpt lat="46.99721" lon="-1.73701">
        <ele>15.6</ele>
        <time>2021-12-24T08:03:32Z</time>
      </trkpt>
      <trkpt lat="46.99716" lon="-1.73699">
        <ele>15.8</ele>
        <time>2021-12-24T08:03:33Z</time>
      </trkpt>
      <trkpt lat="46.99712" lon="-1.73699">
        <ele>15.8</ele>
        <time>2021-12-24T08:03:34Z</time>
      </trkpt>
      <trkpt lat="46.99708" lon="-1.737">
        <ele>15.8</ele>
        <time>2021-12-24T08:03:35Z</time>
      </trkpt>
      <trkpt lat="46.99703" lon="-1.73703">
        <ele>15.8</ele>
        <time>2021-12-24T08:03:36Z</time>
      </trkpt>
      <trkpt lat="46.99699" lon="-1.73708">
        <ele>16</ele>
        <time>2021-12-24T08:03:37Z</time>
      </trkpt>
      <trkpt lat="46.99692" lon="-1.73719">
        <ele>16</ele>
        <time>2021-12-24T08:03:39Z</time>
      </trkpt>
      <trkpt lat="46.99686" lon="-1.73732">
        <ele>16.2</ele>
        <time>2021-12-24T08:03:41Z</time>
      </trkpt>
      <trkpt lat="46.9968" lon="-1.73746">
        <ele>16.2</ele>
        <time>2021-12-24T08:03:43Z</time>
      </trkpt>
      <trkpt lat="46.99677" lon="-1.73752">
        <ele>16.4</ele>
        <time>2021-12-24T08:03:44Z</time>
      </trkpt>
      <trkpt lat="46.99674" lon="-1.73759">
        <ele>16.4</ele>
        <time>2021-12-24T08:03:45Z</time>
      </trkpt>
      <trkpt lat="46.99669" lon="-1.73775">
        <ele>16.4</ele>
        <time>2021-12-24T08:03:47Z</time>
      </trkpt>
      <trkpt lat="46.99662" lon="-1.73789">
        <ele>16.6</ele>
        <time>2021-12-24T08:03:49Z</time>
      </trkpt>
      <trkpt lat="46.99655" lon="-1.73803">
        <ele>16.8</ele>
        <time>2021-12-24T08:03:51Z</time>
      </trkpt>
      <trkpt lat="46.99651" lon="-1.7381">
        <ele>16.8</ele>
        <time>2021-12-24T08:03:52Z</time>
      </trkpt>
      <trkpt lat="46.99647" lon="-1.73816">
        <ele>16.8</ele>
        <time>2021-12-24T08:03:53Z</time>
      </trkpt>
      <trkpt lat="46.99638" lon="-1.7383">
        <ele>16.8</ele>
        <time>2021-12-24T08:03:55Z</time>
      </trkpt>
      <trkpt lat="46.99634" lon="-1.73837">
        <ele>17</ele>
        <time>2021-12-24T08:03:56Z</time>
      </trkpt>
      <trkpt lat="46.99631" lon="-1.73845">
        <ele>17</ele>
        <time>2021-12-24T08:03:57Z</time>
      </trkpt>
      <trkpt lat="46.99624" lon="-1.7386">
        <ele>17.2</ele>
        <time>2021-12-24T08:03:59Z</time>
      </trkpt>
      <trkpt lat="46.99617" lon="-1.73877">
        <ele>17.2</ele>
        <time>2021-12-24T08:04:01Z</time>
      </trkpt>
      <trkpt lat="46.9961" lon="-1.73893">
        <ele>17.4</ele>
        <time>2021-12-24T08:04:03Z</time>
      </trkpt>
      <trkpt lat="46.99602" lon="-1.73908">
        <ele>17.6</ele>
        <time>2021-12-24T08:04:05Z</time>
      </trkpt>
      <trkpt lat="46.99594" lon="-1.73924">
        <ele>17.6</ele>
        <time>2021-12-24T08:04:07Z</time>
      </trkpt>
      <trkpt lat="46.99586" lon="-1.7394">
        <ele>17.8</ele>
        <time>2021-12-24T08:04:09Z</time>
      </trkpt>
      <trkpt lat="46.99578" lon="-1.73955">
        <ele>17.8</ele>
        <time>2021-12-24T08:04:11Z</time>
      </trkpt>
      <trkpt lat="46.99568" lon="-1.7397">
        <ele>17.8</ele>
        <time>2021-12-24T08:04:13Z</time>
      </trkpt>
      <trkpt lat="46.99556" lon="-1.73979">
        <ele>17.8</ele>
        <time>2021-12-24T08:04:15Z</time>
      </trkpt>
      <trkpt lat="46.99542" lon="-1.73985">
        <ele>17.6</ele>
        <time>2021-12-24T08:04:17Z</time>
      </trkpt>
      <trkpt lat="46.99528" lon="-1.73991">
        <ele>17.6</ele>
        <time>2021-12-24T08:04:19Z</time>
      </trkpt>
      <trkpt lat="46.99515" lon="-1.73996">
        <ele>18.2</ele>
        <time>2021-12-24T08:04:21Z</time>
      </trkpt>
      <trkpt lat="46.99503" lon="-1.74003">
        <ele>17.4</ele>
        <time>2021-12-24T08:04:23Z</time>
      </trkpt>
      <trkpt lat="46.99494" lon="-1.74005">
        <ele>16.8</ele>
        <time>2021-12-24T08:04:25Z</time>
      </trkpt>
      <trkpt lat="46.99489" lon="-1.74003">
        <ele>17.2</ele>
        <time>2021-12-24T08:04:27Z</time>
      </trkpt>
      <trkpt lat="46.99488" lon="-1.73998">
        <ele>17</ele>
        <time>2021-12-24T08:04:28Z</time>
      </trkpt>
      <trkpt lat="46.99488" lon="-1.73992">
        <ele>17</ele>
        <time>2021-12-24T08:04:29Z</time>
      </trkpt>
      <trkpt lat="46.99489" lon="-1.73979">
        <ele>17</ele>
        <time>2021-12-24T08:04:31Z</time>
      </trkpt>
      <trkpt lat="46.9949" lon="-1.73972">
        <ele>16.8</ele>
        <time>2021-12-24T08:04:32Z</time>
      </trkpt>
      <trkpt lat="46.9949" lon="-1.73964">
        <ele>16.8</ele>
        <time>2021-12-24T08:04:33Z</time>
      </trkpt>
      <trkpt lat="46.99491" lon="-1.73948">
        <ele>16.6</ele>
        <time>2021-12-24T08:04:35Z</time>
      </trkpt>
      <trkpt lat="46.99492" lon="-1.73932">
        <ele>16.4</ele>
        <time>2021-12-24T08:04:37Z</time>
      </trkpt>
      <trkpt lat="46.99492" lon="-1.73923">
        <ele>16.4</ele>
        <time>2021-12-24T08:04:38Z</time>
      </trkpt>
      <trkpt lat="46.99491" lon="-1.73915">
        <ele>16.2</ele>
        <time>2021-12-24T08:04:39Z</time>
      </trkpt>
      <trkpt lat="46.9949" lon="-1.73906">
        <ele>16.2</ele>
        <time>2021-12-24T08:04:40Z</time>
      </trkpt>
      <trkpt lat="46.99487" lon="-1.73899">
        <ele>16.2</ele>
        <time>2021-12-24T08:04:41Z</time>
      </trkpt>
      <trkpt lat="46.99484" lon="-1.73893">
        <ele>16.2</ele>
        <time>2021-12-24T08:04:42Z</time>
      </trkpt>
      <trkpt lat="46.99479" lon="-1.73887">
        <ele>16.2</ele>
        <time>2021-12-24T08:04:43Z</time>
      </trkpt>
      <trkpt lat="46.99471" lon="-1.73878">
        <ele>16</ele>
        <time>2021-12-24T08:04:45Z</time>
      </trkpt>
      <trkpt lat="46.99466" lon="-1.73875">
        <ele>16</ele>
        <time>2021-12-24T08:04:46Z</time>
      </trkpt>
      <trkpt lat="46.99462" lon="-1.73872">
        <ele>16</ele>
        <time>2021-12-24T08:04:47Z</time>
      </trkpt>
      <trkpt lat="46.99453" lon="-1.73868">
        <ele>15.8</ele>
        <time>2021-12-24T08:04:49Z</time>
      </trkpt>
      <trkpt lat="46.99443" lon="-1.73865">
        <ele>15.6</ele>
        <time>2021-12-24T08:04:51Z</time>
      </trkpt>
      <trkpt lat="46.99438" lon="-1.73864">
        <ele>15.6</ele>
        <time>2021-12-24T08:04:52Z</time>
      </trkpt>
      <trkpt lat="46.99432" lon="-1.73863">
        <ele>15.6</ele>
        <time>2021-12-24T08:04:53Z</time>
      </trkpt>
      <trkpt lat="46.99422" lon="-1.73861">
        <ele>15.4</ele>
        <time>2021-12-24T08:04:55Z</time>
      </trkpt>
      <trkpt lat="46.9941" lon="-1.73858">
        <ele>15.2</ele>
        <time>2021-12-24T08:04:57Z</time>
      </trkpt>
      <trkpt lat="46.99398" lon="-1.73855">
        <ele>15.2</ele>
        <time>2021-12-24T08:04:59Z</time>
      </trkpt>
      <trkpt lat="46.99386" lon="-1.73851">
        <ele>15.2</ele>
        <time>2021-12-24T08:05:01Z</time>
      </trkpt>
      <trkpt lat="46.99374" lon="-1.73847">
        <ele>15</ele>
        <time>2021-12-24T08:05:03Z</time>
      </trkpt>
      <trkpt lat="46.99363" lon="-1.73842">
        <ele>14.8</ele>
        <time>2021-12-24T08:05:05Z</time>
      </trkpt>
      <trkpt lat="46.99351" lon="-1.73837">
        <ele>14.8</ele>
        <time>2021-12-24T08:05:07Z</time>
      </trkpt>
      <trkpt lat="46.99341" lon="-1.73833">
        <ele>14.6</ele>
        <time>2021-12-24T08:05:09Z</time>
      </trkpt>
      <trkpt lat="46.9933" lon="-1.73828">
        <ele>14.6</ele>
        <time>2021-12-24T08:05:11Z</time>
      </trkpt>
      <trkpt lat="46.9932" lon="-1.73823">
        <ele>14.4</ele>
        <time>2021-12-24T08:05:13Z</time>
      </trkpt>
      <trkpt lat="46.99309" lon="-1.73816">
        <ele>14.2</ele>
        <time>2021-12-24T08:05:15Z</time>
      </trkpt>
      <trkpt lat="46.993" lon="-1.73808">
        <ele>14</ele>
        <time>2021-12-24T08:05:17Z</time>
      </trkpt>
      <trkpt lat="46.99292" lon="-1.73796">
        <ele>14</ele>
        <time>2021-12-24T08:05:19Z</time>
      </trkpt>
      <trkpt lat="46.99287" lon="-1.73781">
        <ele>13.8</ele>
        <time>2021-12-24T08:05:21Z</time>
      </trkpt>
      <trkpt lat="46.99283" lon="-1.73765">
        <ele>13.6</ele>
        <time>2021-12-24T08:05:23Z</time>
      </trkpt>
      <trkpt lat="46.99277" lon="-1.7375">
        <ele>13.4</ele>
        <time>2021-12-24T08:05:25Z</time>
      </trkpt>
      <trkpt lat="46.99271" lon="-1.73734">
        <ele>13.6</ele>
        <time>2021-12-24T08:05:27Z</time>
      </trkpt>
      <trkpt lat="46.99262" lon="-1.73719">
        <ele>13.4</ele>
        <time>2021-12-24T08:05:29Z</time>
      </trkpt>
      <trkpt lat="46.99258" lon="-1.73712">
        <ele>13.4</ele>
        <time>2021-12-24T08:05:30Z</time>
      </trkpt>
      <trkpt lat="46.99253" lon="-1.73706">
        <ele>13.4</ele>
        <time>2021-12-24T08:05:31Z</time>
      </trkpt>
      <trkpt lat="46.99244" lon="-1.73695">
        <ele>13.2</ele>
        <time>2021-12-24T08:05:33Z</time>
      </trkpt>
      <trkpt lat="46.99239" lon="-1.73689">
        <ele>13</ele>
        <time>2021-12-24T08:05:34Z</time>
      </trkpt>
      <trkpt lat="46.99234" lon="-1.73682">
        <ele>13</ele>
        <time>2021-12-24T08:05:35Z</time>
      </trkpt>
      <trkpt lat="46.99224" lon="-1.73669">
        <ele>12.8</ele>
        <time>2021-12-24T08:05:37Z</time>
      </trkpt>
      <trkpt lat="46.99215" lon="-1.73655">
        <ele>12.8</ele>
        <time>2021-12-24T08:05:39Z</time>
      </trkpt>
      <trkpt lat="46.99206" lon="-1.73641">
        <ele>12.6</ele>
        <time>2021-12-24T08:05:41Z</time>
      </trkpt>
      <trkpt lat="46.99197" lon="-1.73627">
        <ele>12.6</ele>
        <time>2021-12-24T08:05:43Z</time>
      </trkpt>
      <trkpt lat="46.99188" lon="-1.73613">
        <ele>12.4</ele>
        <time>2021-12-24T08:05:45Z</time>
      </trkpt>
      <trkpt lat="46.9918" lon="-1.736">
        <ele>12.4</ele>
        <time>2021-12-24T08:05:47Z</time>
      </trkpt>
      <trkpt lat="46.99172" lon="-1.73586">
        <ele>12.2</ele>
        <time>2021-12-24T08:05:49Z</time>
      </trkpt>
      <trkpt lat="46.99164" lon="-1.73572">
        <ele>12.2</ele>
        <time>2021-12-24T08:05:51Z</time>
      </trkpt>
      <trkpt lat="46.99156" lon="-1.73559">
        <ele>12</ele>
        <time>2021-12-24T08:05:53Z</time>
      </trkpt>
      <trkpt lat="46.99148" lon="-1.73545">
        <ele>12</ele>
        <time>2021-12-24T08:05:55Z</time>
      </trkpt>
      <trkpt lat="46.9914" lon="-1.73532">
        <ele>12</ele>
        <time>2021-12-24T08:05:57Z</time>
      </trkpt>
      <trkpt lat="46.99132" lon="-1.73518">
        <ele>11.8</ele>
        <time>2021-12-24T08:05:59Z</time>
      </trkpt>
      <trkpt lat="46.99128" lon="-1.73512">
        <ele>11.8</ele>
        <time>2021-12-24T08:06:00Z</time>
      </trkpt>
      <trkpt lat="46.99125" lon="-1.73506">
        <ele>11.8</ele>
        <time>2021-12-24T08:06:01Z</time>
      </trkpt>
      <trkpt lat="46.99117" lon="-1.73493">
        <ele>11.8</ele>
        <time>2021-12-24T08:06:03Z</time>
      </trkpt>
      <trkpt lat="46.99109" lon="-1.7348">
        <ele>11.8</ele>
        <time>2021-12-24T08:06:05Z</time>
      </trkpt>
      <trkpt lat="46.99101" lon="-1.73468">
        <ele>11.6</ele>
        <time>2021-12-24T08:06:07Z</time>
      </trkpt>
      <trkpt lat="46.99097" lon="-1.73461">
        <ele>11.6</ele>
        <time>2021-12-24T08:06:08Z</time>
      </trkpt>
      <trkpt lat="46.99094" lon="-1.73455">
        <ele>11.6</ele>
        <time>2021-12-24T08:06:09Z</time>
      </trkpt>
      <trkpt lat="46.99086" lon="-1.73442">
        <ele>11.6</ele>
        <time>2021-12-24T08:06:11Z</time>
      </trkpt>
      <trkpt lat="46.99078" lon="-1.7343">
        <ele>11.6</ele>
        <time>2021-12-24T08:06:13Z</time>
      </trkpt>
      <trkpt lat="46.99071" lon="-1.73418">
        <ele>11.6</ele>
        <time>2021-12-24T08:06:15Z</time>
      </trkpt>
      <trkpt lat="46.99067" lon="-1.73412">
        <ele>11.6</ele>
        <time>2021-12-24T08:06:16Z</time>
      </trkpt>
      <trkpt lat="46.99064" lon="-1.73406">
        <ele>11.6</ele>
        <time>2021-12-24T08:06:17Z</time>
      </trkpt>
      <trkpt lat="46.99057" lon="-1.73394">
        <ele>11.4</ele>
        <time>2021-12-24T08:06:19Z</time>
      </trkpt>
      <trkpt lat="46.99051" lon="-1.73381">
        <ele>11.4</ele>
        <time>2021-12-24T08:06:21Z</time>
      </trkpt>
      <trkpt lat="46.99045" lon="-1.73366">
        <ele>11.4</ele>
        <time>2021-12-24T08:06:23Z</time>
      </trkpt>
      <trkpt lat="46.99039" lon="-1.73352">
        <ele>11.4</ele>
        <time>2021-12-24T08:06:25Z</time>
      </trkpt>
      <trkpt lat="46.99033" lon="-1.73339">
        <ele>11.4</ele>
        <time>2021-12-24T08:06:27Z</time>
      </trkpt>
      <trkpt lat="46.99027" lon="-1.73324">
        <ele>11.8</ele>
        <time>2021-12-24T08:06:29Z</time>
      </trkpt>
      <trkpt lat="46.99021" lon="-1.7331">
        <ele>11.8</ele>
        <time>2021-12-24T08:06:31Z</time>
      </trkpt>
      <trkpt lat="46.99015" lon="-1.73296">
        <ele>11.8</ele>
        <time>2021-12-24T08:06:33Z</time>
      </trkpt>
      <trkpt lat="46.9901" lon="-1.73282">
        <ele>11.8</ele>
        <time>2021-12-24T08:06:35Z</time>
      </trkpt>
      <trkpt lat="46.99004" lon="-1.73269">
        <ele>12</ele>
        <time>2021-12-24T08:06:37Z</time>
      </trkpt>
      <trkpt lat="46.98998" lon="-1.73255">
        <ele>12</ele>
        <time>2021-12-24T08:06:39Z</time>
      </trkpt>
      <trkpt lat="46.98993" lon="-1.73241">
        <ele>12</ele>
        <time>2021-12-24T08:06:41Z</time>
      </trkpt>
      <trkpt lat="46.98987" lon="-1.73227">
        <ele>12.2</ele>
        <time>2021-12-24T08:06:43Z</time>
      </trkpt>
      <trkpt lat="46.98982" lon="-1.73213">
        <ele>12.2</ele>
        <time>2021-12-24T08:06:45Z</time>
      </trkpt>
      <trkpt lat="46.98976" lon="-1.732">
        <ele>12.2</ele>
        <time>2021-12-24T08:06:47Z</time>
      </trkpt>
      <trkpt lat="46.9897" lon="-1.73186">
        <ele>12.2</ele>
        <time>2021-12-24T08:06:49Z</time>
      </trkpt>
      <trkpt lat="46.98967" lon="-1.73179">
        <ele>12.4</ele>
        <time>2021-12-24T08:06:50Z</time>
      </trkpt>
      <trkpt lat="46.98965" lon="-1.73172">
        <ele>12.4</ele>
        <time>2021-12-24T08:06:51Z</time>
      </trkpt>
      <trkpt lat="46.98959" lon="-1.73159">
        <ele>12.4</ele>
        <time>2021-12-24T08:06:53Z</time>
      </trkpt>
      <trkpt lat="46.98953" lon="-1.73145">
        <ele>12.4</ele>
        <time>2021-12-24T08:06:55Z</time>
      </trkpt>
      <trkpt lat="46.98948" lon="-1.73131">
        <ele>12.6</ele>
        <time>2021-12-24T08:06:57Z</time>
      </trkpt>
      <trkpt lat="46.98942" lon="-1.73117">
        <ele>12.6</ele>
        <time>2021-12-24T08:06:59Z</time>
      </trkpt>
      <trkpt lat="46.98936" lon="-1.73103">
        <ele>12.6</ele>
        <time>2021-12-24T08:07:01Z</time>
      </trkpt>
      <trkpt lat="46.98931" lon="-1.73089">
        <ele>12.6</ele>
        <time>2021-12-24T08:07:03Z</time>
      </trkpt>
      <trkpt lat="46.98925" lon="-1.73075">
        <ele>12.6</ele>
        <time>2021-12-24T08:07:05Z</time>
      </trkpt>
      <trkpt lat="46.9892" lon="-1.73061">
        <ele>12.8</ele>
        <time>2021-12-24T08:07:07Z</time>
      </trkpt>
      <trkpt lat="46.98914" lon="-1.73046">
        <ele>12.8</ele>
        <time>2021-12-24T08:07:09Z</time>
      </trkpt>
      <trkpt lat="46.9891" lon="-1.73039">
        <ele>12.8</ele>
        <time>2021-12-24T08:07:10Z</time>
      </trkpt>
      <trkpt lat="46.98907" lon="-1.73032">
        <ele>12.8</ele>
        <time>2021-12-24T08:07:11Z</time>
      </trkpt>
      <trkpt lat="46.98901" lon="-1.73018">
        <ele>12.8</ele>
        <time>2021-12-24T08:07:13Z</time>
      </trkpt>
      <trkpt lat="46.98895" lon="-1.73003">
        <ele>13</ele>
        <time>2021-12-24T08:07:15Z</time>
      </trkpt>
      <trkpt lat="46.98888" lon="-1.7299">
        <ele>13.2</ele>
        <time>2021-12-24T08:07:17Z</time>
      </trkpt>
      <trkpt lat="46.9888" lon="-1.72977">
        <ele>13.2</ele>
        <time>2021-12-24T08:07:19Z</time>
      </trkpt>
      <trkpt lat="46.98873" lon="-1.72965">
        <ele>13.4</ele>
        <time>2021-12-24T08:07:21Z</time>
      </trkpt>
      <trkpt lat="46.98866" lon="-1.72952">
        <ele>13.4</ele>
        <time>2021-12-24T08:07:23Z</time>
      </trkpt>
      <trkpt lat="46.98859" lon="-1.72939">
        <ele>13.4</ele>
        <time>2021-12-24T08:07:25Z</time>
      </trkpt>
      <trkpt lat="46.98856" lon="-1.72932">
        <ele>13.4</ele>
        <time>2021-12-24T08:07:26Z</time>
      </trkpt>
      <trkpt lat="46.98853" lon="-1.72925">
        <ele>13.4</ele>
        <time>2021-12-24T08:07:27Z</time>
      </trkpt>
      <trkpt lat="46.98848" lon="-1.72909">
        <ele>13.6</ele>
        <time>2021-12-24T08:07:29Z</time>
      </trkpt>
      <trkpt lat="46.98843" lon="-1.72894">
        <ele>13.6</ele>
        <time>2021-12-24T08:07:31Z</time>
      </trkpt>
      <trkpt lat="46.9884" lon="-1.72886">
        <ele>13.6</ele>
        <time>2021-12-24T08:07:32Z</time>
      </trkpt>
      <trkpt lat="46.98838" lon="-1.72878">
        <ele>13.6</ele>
        <time>2021-12-24T08:07:33Z</time>
      </trkpt>
      <trkpt lat="46.98832" lon="-1.72863">
        <ele>13.8</ele>
        <time>2021-12-24T08:07:35Z</time>
      </trkpt>
      <trkpt lat="46.98826" lon="-1.72847">
        <ele>13.8</ele>
        <time>2021-12-24T08:07:37Z</time>
      </trkpt>
      <trkpt lat="46.98819" lon="-1.72832">
        <ele>13.8</ele>
        <time>2021-12-24T08:07:39Z</time>
      </trkpt>
      <trkpt lat="46.98815" lon="-1.72824">
        <ele>13.8</ele>
        <time>2021-12-24T08:07:40Z</time>
      </trkpt>
      <trkpt lat="46.98811" lon="-1.72817">
        <ele>13.8</ele>
        <time>2021-12-24T08:07:41Z</time>
      </trkpt>
      <trkpt lat="46.98802" lon="-1.72803">
        <ele>14</ele>
        <time>2021-12-24T08:07:43Z</time>
      </trkpt>
      <trkpt lat="46.98793" lon="-1.7279">
        <ele>14</ele>
        <time>2021-12-24T08:07:45Z</time>
      </trkpt>
      <trkpt lat="46.98784" lon="-1.72776">
        <ele>14</ele>
        <time>2021-12-24T08:07:47Z</time>
      </trkpt>
      <trkpt lat="46.98779" lon="-1.72769">
        <ele>14</ele>
        <time>2021-12-24T08:07:48Z</time>
      </trkpt>
      <trkpt lat="46.98775" lon="-1.72762">
        <ele>14</ele>
        <time>2021-12-24T08:07:49Z</time>
      </trkpt>
      <trkpt lat="46.98766" lon="-1.72748">
        <ele>14</ele>
        <time>2021-12-24T08:07:51Z</time>
      </trkpt>
      <trkpt lat="46.98757" lon="-1.72734">
        <ele>14.2</ele>
        <time>2021-12-24T08:07:53Z</time>
      </trkpt>
      <trkpt lat="46.98749" lon="-1.7272">
        <ele>14.2</ele>
        <time>2021-12-24T08:07:55Z</time>
      </trkpt>
      <trkpt lat="46.98746" lon="-1.72712">
        <ele>14.2</ele>
        <time>2021-12-24T08:07:56Z</time>
      </trkpt>
      <trkpt lat="46.98742" lon="-1.72705">
        <ele>14.2</ele>
        <time>2021-12-24T08:07:57Z</time>
      </trkpt>
      <trkpt lat="46.98736" lon="-1.7269">
        <ele>14.2</ele>
        <time>2021-12-24T08:07:59Z</time>
      </trkpt>
      <trkpt lat="46.9873" lon="-1.72674">
        <ele>14.2</ele>
        <time>2021-12-24T08:08:01Z</time>
      </trkpt>
      <trkpt lat="46.98725" lon="-1.72659">
        <ele>14.2</ele>
        <time>2021-12-24T08:08:03Z</time>
      </trkpt>
      <trkpt lat="46.98719" lon="-1.72644">
        <ele>14.2</ele>
        <time>2021-12-24T08:08:05Z</time>
      </trkpt>
      <trkpt lat="46.98709" lon="-1.72635">
        <ele>14.4</ele>
        <time>2021-12-24T08:08:07Z</time>
      </trkpt>
      <trkpt lat="46.98696" lon="-1.72637">
        <ele>14.4</ele>
        <time>2021-12-24T08:08:09Z</time>
      </trkpt>
      <trkpt lat="46.9869" lon="-1.7264">
        <ele>14.4</ele>
        <time>2021-12-24T08:08:10Z</time>
      </trkpt>
      <trkpt lat="46.98684" lon="-1.72642">
        <ele>14.4</ele>
        <time>2021-12-24T08:08:11Z</time>
      </trkpt>
      <trkpt lat="46.98671" lon="-1.72643">
        <ele>14.4</ele>
        <time>2021-12-24T08:08:13Z</time>
      </trkpt>
      <trkpt lat="46.98665" lon="-1.72644">
        <ele>14.4</ele>
        <time>2021-12-24T08:08:14Z</time>
      </trkpt>
      <trkpt lat="46.98658" lon="-1.72643">
        <ele>14.4</ele>
        <time>2021-12-24T08:08:15Z</time>
      </trkpt>
      <trkpt lat="46.98646" lon="-1.72642">
        <ele>14.4</ele>
        <time>2021-12-24T08:08:17Z</time>
      </trkpt>
      <trkpt lat="46.98634" lon="-1.72641">
        <ele>14.4</ele>
        <time>2021-12-24T08:08:19Z</time>
      </trkpt>
      <trkpt lat="46.98622" lon="-1.72639">
        <ele>14.4</ele>
        <time>2021-12-24T08:08:21Z</time>
      </trkpt>
      <trkpt lat="46.98616" lon="-1.72638">
        <ele>14.4</ele>
        <time>2021-12-24T08:08:22Z</time>
      </trkpt>
      <trkpt lat="46.9861" lon="-1.72638">
        <ele>14.4</ele>
        <time>2021-12-24T08:08:23Z</time>
      </trkpt>
      <trkpt lat="46.98598" lon="-1.72636">
        <ele>14.4</ele>
        <time>2021-12-24T08:08:25Z</time>
      </trkpt>
      <trkpt lat="46.98586" lon="-1.72635">
        <ele>14.4</ele>
        <time>2021-12-24T08:08:27Z</time>
      </trkpt>
      <trkpt lat="46.98575" lon="-1.72635">
        <ele>14.4</ele>
        <time>2021-12-24T08:08:29Z</time>
      </trkpt>
      <trkpt lat="46.98562" lon="-1.72635">
        <ele>14.4</ele>
        <time>2021-12-24T08:08:31Z</time>
      </trkpt>
      <trkpt lat="46.98557" lon="-1.72635">
        <ele>14.4</ele>
        <time>2021-12-24T08:08:32Z</time>
      </trkpt>
      <trkpt lat="46.9855" lon="-1.72636">
        <ele>14.4</ele>
        <time>2021-12-24T08:08:33Z</time>
      </trkpt>
      <trkpt lat="46.98538" lon="-1.72636">
        <ele>14.4</ele>
        <time>2021-12-24T08:08:35Z</time>
      </trkpt>
      <trkpt lat="46.98525" lon="-1.72637">
        <ele>14.4</ele>
        <time>2021-12-24T08:08:37Z</time>
      </trkpt>
      <trkpt lat="46.98512" lon="-1.72638">
        <ele>14.4</ele>
        <time>2021-12-24T08:08:39Z</time>
      </trkpt>
      <trkpt lat="46.98506" lon="-1.72639">
        <ele>14.4</ele>
        <time>2021-12-24T08:08:40Z</time>
      </trkpt>
      <trkpt lat="46.98499" lon="-1.7264">
        <ele>14.4</ele>
        <time>2021-12-24T08:08:41Z</time>
      </trkpt>
      <trkpt lat="46.98486" lon="-1.72641">
        <ele>14.2</ele>
        <time>2021-12-24T08:08:43Z</time>
      </trkpt>
      <trkpt lat="46.98472" lon="-1.72641">
        <ele>14.2</ele>
        <time>2021-12-24T08:08:45Z</time>
      </trkpt>
      <trkpt lat="46.98459" lon="-1.72643">
        <ele>14.2</ele>
        <time>2021-12-24T08:08:47Z</time>
      </trkpt>
      <trkpt lat="46.98445" lon="-1.72645">
        <ele>14.2</ele>
        <time>2021-12-24T08:08:49Z</time>
      </trkpt>
      <trkpt lat="46.98431" lon="-1.72646">
        <ele>14.2</ele>
        <time>2021-12-24T08:08:51Z</time>
      </trkpt>
      <trkpt lat="46.98417" lon="-1.72647">
        <ele>14</ele>
        <time>2021-12-24T08:08:53Z</time>
      </trkpt>
      <trkpt lat="46.98403" lon="-1.72649">
        <ele>14</ele>
        <time>2021-12-24T08:08:55Z</time>
      </trkpt>
      <trkpt lat="46.98388" lon="-1.7265">
        <ele>14</ele>
        <time>2021-12-24T08:08:57Z</time>
      </trkpt>
      <trkpt lat="46.98374" lon="-1.72651">
        <ele>13.8</ele>
        <time>2021-12-24T08:08:59Z</time>
      </trkpt>
      <trkpt lat="46.98359" lon="-1.72653">
        <ele>13.8</ele>
        <time>2021-12-24T08:09:01Z</time>
      </trkpt>
      <trkpt lat="46.98345" lon="-1.72655">
        <ele>13.6</ele>
        <time>2021-12-24T08:09:03Z</time>
      </trkpt>
      <trkpt lat="46.98337" lon="-1.72656">
        <ele>13.6</ele>
        <time>2021-12-24T08:09:04Z</time>
      </trkpt>
      <trkpt lat="46.9833" lon="-1.72656">
        <ele>13.4</ele>
        <time>2021-12-24T08:09:05Z</time>
      </trkpt>
      <trkpt lat="46.98315" lon="-1.72658">
        <ele>13.4</ele>
        <time>2021-12-24T08:09:07Z</time>
      </trkpt>
      <trkpt lat="46.983" lon="-1.72659">
        <ele>13.2</ele>
        <time>2021-12-24T08:09:09Z</time>
      </trkpt>
      <trkpt lat="46.98286" lon="-1.72661">
        <ele>13.2</ele>
        <time>2021-12-24T08:09:11Z</time>
      </trkpt>
      <trkpt lat="46.98271" lon="-1.72663">
        <ele>13.2</ele>
        <time>2021-12-24T08:09:13Z</time>
      </trkpt>
      <trkpt lat="46.98256" lon="-1.72664">
        <ele>13.2</ele>
        <time>2021-12-24T08:09:15Z</time>
      </trkpt>
      <trkpt lat="46.98242" lon="-1.72664">
        <ele>13.4</ele>
        <time>2021-12-24T08:09:17Z</time>
      </trkpt>
      <trkpt lat="46.98227" lon="-1.72665">
        <ele>13.2</ele>
        <time>2021-12-24T08:09:19Z</time>
      </trkpt>
      <trkpt lat="46.98213" lon="-1.72666">
        <ele>13.2</ele>
        <time>2021-12-24T08:09:21Z</time>
      </trkpt>
      <trkpt lat="46.98198" lon="-1.72665">
        <ele>13.2</ele>
        <time>2021-12-24T08:09:23Z</time>
      </trkpt>
      <trkpt lat="46.98184" lon="-1.72666">
        <ele>13.2</ele>
        <time>2021-12-24T08:09:25Z</time>
      </trkpt>
      <trkpt lat="46.98169" lon="-1.72666">
        <ele>13.2</ele>
        <time>2021-12-24T08:09:27Z</time>
      </trkpt>
      <trkpt lat="46.98155" lon="-1.72665">
        <ele>13.2</ele>
        <time>2021-12-24T08:09:29Z</time>
      </trkpt>
      <trkpt lat="46.98141" lon="-1.72665">
        <ele>13.2</ele>
        <time>2021-12-24T08:09:31Z</time>
      </trkpt>
      <trkpt lat="46.98128" lon="-1.72666">
        <ele>13.2</ele>
        <time>2021-12-24T08:09:33Z</time>
      </trkpt>
      <trkpt lat="46.98121" lon="-1.72666">
        <ele>13.2</ele>
        <time>2021-12-24T08:09:34Z</time>
      </trkpt>
      <trkpt lat="46.98114" lon="-1.72666">
        <ele>13.2</ele>
        <time>2021-12-24T08:09:35Z</time>
      </trkpt>
      <trkpt lat="46.98101" lon="-1.72666">
        <ele>13.2</ele>
        <time>2021-12-24T08:09:37Z</time>
      </trkpt>
      <trkpt lat="46.98087" lon="-1.72666">
        <ele>13.2</ele>
        <time>2021-12-24T08:09:39Z</time>
      </trkpt>
      <trkpt lat="46.98074" lon="-1.72667">
        <ele>13.2</ele>
        <time>2021-12-24T08:09:41Z</time>
      </trkpt>
      <trkpt lat="46.98061" lon="-1.72667">
        <ele>13.4</ele>
        <time>2021-12-24T08:09:43Z</time>
      </trkpt>
      <trkpt lat="46.98048" lon="-1.72667">
        <ele>13.2</ele>
        <time>2021-12-24T08:09:45Z</time>
      </trkpt>
      <trkpt lat="46.98036" lon="-1.72666">
        <ele>13.2</ele>
        <time>2021-12-24T08:09:47Z</time>
      </trkpt>
      <trkpt lat="46.98024" lon="-1.72666">
        <ele>13.2</ele>
        <time>2021-12-24T08:09:49Z</time>
      </trkpt>
      <trkpt lat="46.98012" lon="-1.72665">
        <ele>13.2</ele>
        <time>2021-12-24T08:09:51Z</time>
      </trkpt>
      <trkpt lat="46.98006" lon="-1.72664">
        <ele>13.2</ele>
        <time>2021-12-24T08:09:52Z</time>
      </trkpt>
      <trkpt lat="46.98" lon="-1.72663">
        <ele>13.2</ele>
        <time>2021-12-24T08:09:53Z</time>
      </trkpt>
      <trkpt lat="46.97989" lon="-1.72661">
        <ele>13.2</ele>
        <time>2021-12-24T08:09:55Z</time>
      </trkpt>
      <trkpt lat="46.97978" lon="-1.72659">
        <ele>13.2</ele>
        <time>2021-12-24T08:09:57Z</time>
      </trkpt>
      <trkpt lat="46.97966" lon="-1.72657">
        <ele>13.4</ele>
        <time>2021-12-24T08:09:59Z</time>
      </trkpt>
      <trkpt lat="46.97956" lon="-1.72654">
        <ele>13.4</ele>
        <time>2021-12-24T08:10:01Z</time>
      </trkpt>
      <trkpt lat="46.97945" lon="-1.72652">
        <ele>13.4</ele>
        <time>2021-12-24T08:10:03Z</time>
      </trkpt>
      <trkpt lat="46.97934" lon="-1.72649">
        <ele>13.4</ele>
        <time>2021-12-24T08:10:05Z</time>
      </trkpt>
      <trkpt lat="46.97924" lon="-1.72647">
        <ele>13.4</ele>
        <time>2021-12-24T08:10:07Z</time>
      </trkpt>
      <trkpt lat="46.97913" lon="-1.72644">
        <ele>13.4</ele>
        <time>2021-12-24T08:10:09Z</time>
      </trkpt>
      <trkpt lat="46.97904" lon="-1.7264">
        <ele>13.4</ele>
        <time>2021-12-24T08:10:11Z</time>
      </trkpt>
      <trkpt lat="46.97894" lon="-1.72637">
        <ele>13.2</ele>
        <time>2021-12-24T08:10:13Z</time>
      </trkpt>
      <trkpt lat="46.97885" lon="-1.72633">
        <ele>13.2</ele>
        <time>2021-12-24T08:10:15Z</time>
      </trkpt>
      <trkpt lat="46.9788" lon="-1.72631">
        <ele>13.2</ele>
        <time>2021-12-24T08:10:16Z</time>
      </trkpt>
      <trkpt lat="46.97875" lon="-1.72628">
        <ele>13.2</ele>
        <time>2021-12-24T08:10:17Z</time>
      </trkpt>
      <trkpt lat="46.97866" lon="-1.72624">
        <ele>13</ele>
        <time>2021-12-24T08:10:19Z</time>
      </trkpt>
      <trkpt lat="46.97862" lon="-1.72621">
        <ele>13</ele>
        <time>2021-12-24T08:10:20Z</time>
      </trkpt>
      <trkpt lat="46.97858" lon="-1.72619">
        <ele>12.8</ele>
        <time>2021-12-24T08:10:21Z</time>
      </trkpt>
      <trkpt lat="46.97853" lon="-1.72617">
        <ele>12.8</ele>
        <time>2021-12-24T08:10:22Z</time>
      </trkpt>
      <trkpt lat="46.97849" lon="-1.72614">
        <ele>12.6</ele>
        <time>2021-12-24T08:10:23Z</time>
      </trkpt>
      <trkpt lat="46.97845" lon="-1.72613">
        <ele>12.6</ele>
        <time>2021-12-24T08:10:24Z</time>
      </trkpt>
      <trkpt lat="46.9784" lon="-1.72611">
        <ele>12.6</ele>
        <time>2021-12-24T08:10:25Z</time>
      </trkpt>
      <trkpt lat="46.97831" lon="-1.72608">
        <ele>12.2</ele>
        <time>2021-12-24T08:10:27Z</time>
      </trkpt>
      <trkpt lat="46.97822" lon="-1.72604">
        <ele>12.2</ele>
        <time>2021-12-24T08:10:29Z</time>
      </trkpt>
      <trkpt lat="46.97813" lon="-1.72602">
        <ele>11.8</ele>
        <time>2021-12-24T08:10:31Z</time>
      </trkpt>
      <trkpt lat="46.97808" lon="-1.72601">
        <ele>11.8</ele>
        <time>2021-12-24T08:10:32Z</time>
      </trkpt>
      <trkpt lat="46.97803" lon="-1.726">
        <ele>11.6</ele>
        <time>2021-12-24T08:10:33Z</time>
      </trkpt>
      <trkpt lat="46.97793" lon="-1.726">
        <ele>11.4</ele>
        <time>2021-12-24T08:10:35Z</time>
      </trkpt>
      <trkpt lat="46.97782" lon="-1.72601">
        <ele>11.2</ele>
        <time>2021-12-24T08:10:37Z</time>
      </trkpt>
      <trkpt lat="46.97776" lon="-1.72601">
        <ele>11.2</ele>
        <time>2021-12-24T08:10:38Z</time>
      </trkpt>
      <trkpt lat="46.9777" lon="-1.72602">
        <ele>11</ele>
        <time>2021-12-24T08:10:39Z</time>
      </trkpt>
      <trkpt lat="46.97759" lon="-1.72601">
        <ele>10.8</ele>
        <time>2021-12-24T08:10:41Z</time>
      </trkpt>
      <trkpt lat="46.97748" lon="-1.72601">
        <ele>10.4</ele>
        <time>2021-12-24T08:10:43Z</time>
      </trkpt>
      <trkpt lat="46.97742" lon="-1.726">
        <ele>10.4</ele>
        <time>2021-12-24T08:10:44Z</time>
      </trkpt>
      <trkpt lat="46.97737" lon="-1.72599">
        <ele>10.2</ele>
        <time>2021-12-24T08:10:45Z</time>
      </trkpt>
      <trkpt lat="46.97726" lon="-1.72594">
        <ele>10</ele>
        <time>2021-12-24T08:10:47Z</time>
      </trkpt>
      <trkpt lat="46.97715" lon="-1.72588">
        <ele>10</ele>
        <time>2021-12-24T08:10:49Z</time>
      </trkpt>
      <trkpt lat="46.97704" lon="-1.72581">
        <ele>9.8</ele>
        <time>2021-12-24T08:10:51Z</time>
      </trkpt>
      <trkpt lat="46.97693" lon="-1.72573">
        <ele>9.8</ele>
        <time>2021-12-24T08:10:53Z</time>
      </trkpt>
      <trkpt lat="46.97682" lon="-1.72565">
        <ele>9.8</ele>
        <time>2021-12-24T08:10:55Z</time>
      </trkpt>
      <trkpt lat="46.97677" lon="-1.72559">
        <ele>10</ele>
        <time>2021-12-24T08:10:56Z</time>
      </trkpt>
      <trkpt lat="46.97672" lon="-1.72553">
        <ele>10</ele>
        <time>2021-12-24T08:10:57Z</time>
      </trkpt>
      <trkpt lat="46.97663" lon="-1.7254">
        <ele>10</ele>
        <time>2021-12-24T08:10:59Z</time>
      </trkpt>
      <trkpt lat="46.97654" lon="-1.72526">
        <ele>9.8</ele>
        <time>2021-12-24T08:11:01Z</time>
      </trkpt>
      <trkpt lat="46.97648" lon="-1.7251">
        <ele>9.8</ele>
        <time>2021-12-24T08:11:03Z</time>
      </trkpt>
      <trkpt lat="46.97642" lon="-1.72493">
        <ele>9.8</ele>
        <time>2021-12-24T08:11:05Z</time>
      </trkpt>
      <trkpt lat="46.97636" lon="-1.72476">
        <ele>9.8</ele>
        <time>2021-12-24T08:11:07Z</time>
      </trkpt>
      <trkpt lat="46.97631" lon="-1.72459">
        <ele>9.6</ele>
        <time>2021-12-24T08:11:09Z</time>
      </trkpt>
      <trkpt lat="46.97626" lon="-1.72442">
        <ele>9.4</ele>
        <time>2021-12-24T08:11:11Z</time>
      </trkpt>
      <trkpt lat="46.9762" lon="-1.72426">
        <ele>9.4</ele>
        <time>2021-12-24T08:11:13Z</time>
      </trkpt>
      <trkpt lat="46.97617" lon="-1.72418">
        <ele>9.4</ele>
        <time>2021-12-24T08:11:14Z</time>
      </trkpt>
      <trkpt lat="46.97614" lon="-1.7241">
        <ele>9.6</ele>
        <time>2021-12-24T08:11:15Z</time>
      </trkpt>
      <trkpt lat="46.97609" lon="-1.72394">
        <ele>9.6</ele>
        <time>2021-12-24T08:11:17Z</time>
      </trkpt>
      <trkpt lat="46.97604" lon="-1.72378">
        <ele>9.6</ele>
        <time>2021-12-24T08:11:19Z</time>
      </trkpt>
      <trkpt lat="46.97598" lon="-1.72363">
        <ele>9.4</ele>
        <time>2021-12-24T08:11:21Z</time>
      </trkpt>
      <trkpt lat="46.97592" lon="-1.72348">
        <ele>9.8</ele>
        <time>2021-12-24T08:11:23Z</time>
      </trkpt>
      <trkpt lat="46.97586" lon="-1.72333">
        <ele>9.8</ele>
        <time>2021-12-24T08:11:25Z</time>
      </trkpt>
      <trkpt lat="46.9758" lon="-1.72319">
        <ele>10</ele>
        <time>2021-12-24T08:11:27Z</time>
      </trkpt>
      <trkpt lat="46.97576" lon="-1.72312">
        <ele>10</ele>
        <time>2021-12-24T08:11:28Z</time>
      </trkpt>
      <trkpt lat="46.97572" lon="-1.72308">
        <ele>10</ele>
        <time>2021-12-24T08:11:29Z</time>
      </trkpt>
      <trkpt lat="46.97566" lon="-1.72305">
        <ele>10</ele>
        <time>2021-12-24T08:11:30Z</time>
      </trkpt>
      <trkpt lat="46.9756" lon="-1.72305">
        <ele>10</ele>
        <time>2021-12-24T08:11:31Z</time>
      </trkpt>
      <trkpt lat="46.97554" lon="-1.72306">
        <ele>10.2</ele>
        <time>2021-12-24T08:11:32Z</time>
      </trkpt>
      <trkpt lat="46.97549" lon="-1.72309">
        <ele>10.2</ele>
        <time>2021-12-24T08:11:33Z</time>
      </trkpt>
      <trkpt lat="46.97538" lon="-1.72316">
        <ele>10.2</ele>
        <time>2021-12-24T08:11:35Z</time>
      </trkpt>
      <trkpt lat="46.97527" lon="-1.72324">
        <ele>10.2</ele>
        <time>2021-12-24T08:11:37Z</time>
      </trkpt>
      <trkpt lat="46.97516" lon="-1.72331">
        <ele>10.2</ele>
        <time>2021-12-24T08:11:39Z</time>
      </trkpt>
      <trkpt lat="46.97504" lon="-1.72339">
        <ele>10.2</ele>
        <time>2021-12-24T08:11:41Z</time>
      </trkpt>
      <trkpt lat="46.97492" lon="-1.72346">
        <ele>10.2</ele>
        <time>2021-12-24T08:11:43Z</time>
      </trkpt>
      <trkpt lat="46.97486" lon="-1.7235">
        <ele>10.2</ele>
        <time>2021-12-24T08:11:44Z</time>
      </trkpt>
      <trkpt lat="46.9748" lon="-1.72354">
        <ele>10.2</ele>
        <time>2021-12-24T08:11:45Z</time>
      </trkpt>
      <trkpt lat="46.97467" lon="-1.72362">
        <ele>10.2</ele>
        <time>2021-12-24T08:11:47Z</time>
      </trkpt>
      <trkpt lat="46.97454" lon="-1.72371">
        <ele>10.2</ele>
        <time>2021-12-24T08:11:49Z</time>
      </trkpt>
      <trkpt lat="46.97447" lon="-1.72375">
        <ele>10.2</ele>
        <time>2021-12-24T08:11:50Z</time>
      </trkpt>
      <trkpt lat="46.9744" lon="-1.72379">
        <ele>10.2</ele>
        <time>2021-12-24T08:11:51Z</time>
      </trkpt>
      <trkpt lat="46.97426" lon="-1.72389">
        <ele>10.2</ele>
        <time>2021-12-24T08:11:53Z</time>
      </trkpt>
      <trkpt lat="46.97412" lon="-1.72398">
        <ele>10.2</ele>
        <time>2021-12-24T08:11:55Z</time>
      </trkpt>
      <trkpt lat="46.97398" lon="-1.72407">
        <ele>10.2</ele>
        <time>2021-12-24T08:11:57Z</time>
      </trkpt>
      <trkpt lat="46.97384" lon="-1.72416">
        <ele>10.2</ele>
        <time>2021-12-24T08:11:59Z</time>
      </trkpt>
      <trkpt lat="46.97376" lon="-1.72421">
        <ele>10.2</ele>
        <time>2021-12-24T08:12:00Z</time>
      </trkpt>
      <trkpt lat="46.97369" lon="-1.72426">
        <ele>10.2</ele>
        <time>2021-12-24T08:12:01Z</time>
      </trkpt>
      <trkpt lat="46.97355" lon="-1.72435">
        <ele>10.2</ele>
        <time>2021-12-24T08:12:03Z</time>
      </trkpt>
      <trkpt lat="46.97341" lon="-1.72445">
        <ele>10</ele>
        <time>2021-12-24T08:12:05Z</time>
      </trkpt>
      <trkpt lat="46.97327" lon="-1.72454">
        <ele>10</ele>
        <time>2021-12-24T08:12:07Z</time>
      </trkpt>
      <trkpt lat="46.97314" lon="-1.72462">
        <ele>10</ele>
        <time>2021-12-24T08:12:09Z</time>
      </trkpt>
      <trkpt lat="46.97301" lon="-1.7247">
        <ele>10</ele>
        <time>2021-12-24T08:12:11Z</time>
      </trkpt>
      <trkpt lat="46.97289" lon="-1.72477">
        <ele>9.8</ele>
        <time>2021-12-24T08:12:13Z</time>
      </trkpt>
      <trkpt lat="46.97278" lon="-1.72484">
        <ele>9.8</ele>
        <time>2021-12-24T08:12:15Z</time>
      </trkpt>
      <trkpt lat="46.97267" lon="-1.72491">
        <ele>9.8</ele>
        <time>2021-12-24T08:12:17Z</time>
      </trkpt>
      <trkpt lat="46.9725" lon="-1.72502">
        <ele>9.8</ele>
        <time>2021-12-24T08:12:19Z</time>
      </trkpt>
      <trkpt lat="46.97245" lon="-1.72505">
        <ele>9.8</ele>
        <time>2021-12-24T08:12:20Z</time>
      </trkpt>
      <trkpt lat="46.97239" lon="-1.72508">
        <ele>9.6</ele>
        <time>2021-12-24T08:12:21Z</time>
      </trkpt>
      <trkpt lat="46.97228" lon="-1.72515">
        <ele>9.6</ele>
        <time>2021-12-24T08:12:23Z</time>
      </trkpt>
      <trkpt lat="46.97218" lon="-1.72521">
        <ele>9.6</ele>
        <time>2021-12-24T08:12:25Z</time>
      </trkpt>
      <trkpt lat="46.97208" lon="-1.72528">
        <ele>9.6</ele>
        <time>2021-12-24T08:12:27Z</time>
      </trkpt>
      <trkpt lat="46.97198" lon="-1.72535">
        <ele>9.6</ele>
        <time>2021-12-24T08:12:29Z</time>
      </trkpt>
      <trkpt lat="46.97187" lon="-1.72542">
        <ele>9.6</ele>
        <time>2021-12-24T08:12:31Z</time>
      </trkpt>
      <trkpt lat="46.97176" lon="-1.72548">
        <ele>9.6</ele>
        <time>2021-12-24T08:12:33Z</time>
      </trkpt>
      <trkpt lat="46.9717" lon="-1.72551">
        <ele>9.6</ele>
        <time>2021-12-24T08:12:35Z</time>
      </trkpt>
      <trkpt lat="46.97154" lon="-1.72561">
        <ele>9.6</ele>
        <time>2021-12-24T08:12:37Z</time>
      </trkpt>
      <trkpt lat="46.97143" lon="-1.72568">
        <ele>9.6</ele>
        <time>2021-12-24T08:12:39Z</time>
      </trkpt>
      <trkpt lat="46.97133" lon="-1.72576">
        <ele>9.6</ele>
        <time>2021-12-24T08:12:41Z</time>
      </trkpt>
      <trkpt lat="46.97122" lon="-1.72582">
        <ele>9.8</ele>
        <time>2021-12-24T08:12:43Z</time>
      </trkpt>
      <trkpt lat="46.97112" lon="-1.72589">
        <ele>9.8</ele>
        <time>2021-12-24T08:12:45Z</time>
      </trkpt>
      <trkpt lat="46.97103" lon="-1.72595">
        <ele>9.8</ele>
        <time>2021-12-24T08:12:47Z</time>
      </trkpt>
      <trkpt lat="46.97094" lon="-1.726">
        <ele>10</ele>
        <time>2021-12-24T08:12:49Z</time>
      </trkpt>
      <trkpt lat="46.97089" lon="-1.72603">
        <ele>10.2</ele>
        <time>2021-12-24T08:12:51Z</time>
      </trkpt>
      <trkpt lat="46.97081" lon="-1.72609">
        <ele>10.2</ele>
        <time>2021-12-24T08:12:52Z</time>
      </trkpt>
      <trkpt lat="46.97077" lon="-1.72612">
        <ele>10.2</ele>
        <time>2021-12-24T08:12:53Z</time>
      </trkpt>
      <trkpt lat="46.97073" lon="-1.72615">
        <ele>10.4</ele>
        <time>2021-12-24T08:12:54Z</time>
      </trkpt>
      <trkpt lat="46.97068" lon="-1.72616">
        <ele>10.4</ele>
        <time>2021-12-24T08:12:55Z</time>
      </trkpt>
      <trkpt lat="46.97058" lon="-1.72621">
        <ele>10.4</ele>
        <time>2021-12-24T08:12:57Z</time>
      </trkpt>
      <trkpt lat="46.97053" lon="-1.72624">
        <ele>10.4</ele>
        <time>2021-12-24T08:12:58Z</time>
      </trkpt>
      <trkpt lat="46.97048" lon="-1.72626">
        <ele>10.4</ele>
        <time>2021-12-24T08:12:59Z</time>
      </trkpt>
      <trkpt lat="46.97038" lon="-1.72632">
        <ele>10.4</ele>
        <time>2021-12-24T08:13:01Z</time>
      </trkpt>
      <trkpt lat="46.97028" lon="-1.72638">
        <ele>10.4</ele>
        <time>2021-12-24T08:13:03Z</time>
      </trkpt>
      <trkpt lat="46.97018" lon="-1.72643">
        <ele>10.4</ele>
        <time>2021-12-24T08:13:05Z</time>
      </trkpt>
      <trkpt lat="46.97013" lon="-1.72646">
        <ele>10.4</ele>
        <time>2021-12-24T08:13:06Z</time>
      </trkpt>
      <trkpt lat="46.97008" lon="-1.72649">
        <ele>10.4</ele>
        <time>2021-12-24T08:13:07Z</time>
      </trkpt>
      <trkpt lat="46.96998" lon="-1.72654">
        <ele>10.4</ele>
        <time>2021-12-24T08:13:09Z</time>
      </trkpt>
      <trkpt lat="46.96988" lon="-1.72659">
        <ele>10.4</ele>
        <time>2021-12-24T08:13:11Z</time>
      </trkpt>
      <trkpt lat="46.96983" lon="-1.72662">
        <ele>10.4</ele>
        <time>2021-12-24T08:13:12Z</time>
      </trkpt>
      <trkpt lat="46.96978" lon="-1.72665">
        <ele>10.4</ele>
        <time>2021-12-24T08:13:13Z</time>
      </trkpt>
      <trkpt lat="46.9697" lon="-1.72673">
        <ele>10.4</ele>
        <time>2021-12-24T08:13:15Z</time>
      </trkpt>
      <trkpt lat="46.9696" lon="-1.72679">
        <ele>10.4</ele>
        <time>2021-12-24T08:13:17Z</time>
      </trkpt>
      <trkpt lat="46.96951" lon="-1.72686">
        <ele>10.6</ele>
        <time>2021-12-24T08:13:19Z</time>
      </trkpt>
      <trkpt lat="46.96946" lon="-1.7269">
        <ele>10.6</ele>
        <time>2021-12-24T08:13:20Z</time>
      </trkpt>
      <trkpt lat="46.96942" lon="-1.72694">
        <ele>10.8</ele>
        <time>2021-12-24T08:13:21Z</time>
      </trkpt>
      <trkpt lat="46.96932" lon="-1.72701">
        <ele>11</ele>
        <time>2021-12-24T08:13:23Z</time>
      </trkpt>
      <trkpt lat="46.96922" lon="-1.72708">
        <ele>11</ele>
        <time>2021-12-24T08:13:25Z</time>
      </trkpt>
      <trkpt lat="46.96918" lon="-1.72712">
        <ele>10.8</ele>
        <time>2021-12-24T08:13:26Z</time>
      </trkpt>
      <trkpt lat="46.96913" lon="-1.72716">
        <ele>10.8</ele>
        <time>2021-12-24T08:13:27Z</time>
      </trkpt>
      <trkpt lat="46.96903" lon="-1.72722">
        <ele>10.8</ele>
        <time>2021-12-24T08:13:29Z</time>
      </trkpt>
      <trkpt lat="46.96894" lon="-1.72728">
        <ele>10.8</ele>
        <time>2021-12-24T08:13:31Z</time>
      </trkpt>
      <trkpt lat="46.96884" lon="-1.72732">
        <ele>10.8</ele>
        <time>2021-12-24T08:13:33Z</time>
      </trkpt>
      <trkpt lat="46.96874" lon="-1.72733">
        <ele>10.8</ele>
        <time>2021-12-24T08:13:35Z</time>
      </trkpt>
      <trkpt lat="46.96869" lon="-1.72733">
        <ele>10.8</ele>
        <time>2021-12-24T08:13:36Z</time>
      </trkpt>
      <trkpt lat="46.96865" lon="-1.72731">
        <ele>10.8</ele>
        <time>2021-12-24T08:13:37Z</time>
      </trkpt>
      <trkpt lat="46.9686" lon="-1.7273">
        <ele>10.8</ele>
        <time>2021-12-24T08:13:38Z</time>
      </trkpt>
      <trkpt lat="46.96857" lon="-1.72729">
        <ele>11</ele>
        <time>2021-12-24T08:13:39Z</time>
      </trkpt>
      <trkpt lat="46.96849" lon="-1.72727">
        <ele>11.2</ele>
        <time>2021-12-24T08:13:41Z</time>
      </trkpt>
      <trkpt lat="46.96843" lon="-1.72727">
        <ele>11.2</ele>
        <time>2021-12-24T08:13:43Z</time>
      </trkpt>
      <trkpt lat="46.96837" lon="-1.72728">
        <ele>11.2</ele>
        <time>2021-12-24T08:13:45Z</time>
      </trkpt>
      <trkpt lat="46.96834" lon="-1.72726">
        <ele>11.2</ele>
        <time>2021-12-24T08:13:46Z</time>
      </trkpt>
      <trkpt lat="46.96831" lon="-1.72723">
        <ele>11.4</ele>
        <time>2021-12-24T08:13:47Z</time>
      </trkpt>
      <trkpt lat="46.96825" lon="-1.72716">
        <ele>11.4</ele>
        <time>2021-12-24T08:13:49Z</time>
      </trkpt>
      <trkpt lat="46.96821" lon="-1.72713">
        <ele>11.6</ele>
        <time>2021-12-24T08:13:50Z</time>
      </trkpt>
      <trkpt lat="46.96817" lon="-1.72711">
        <ele>11.6</ele>
        <time>2021-12-24T08:13:51Z</time>
      </trkpt>
      <trkpt lat="46.9681" lon="-1.72705">
        <ele>11.6</ele>
        <time>2021-12-24T08:13:53Z</time>
      </trkpt>
      <trkpt lat="46.96802" lon="-1.727">
        <ele>11.6</ele>
        <time>2021-12-24T08:13:55Z</time>
      </trkpt>
      <trkpt lat="46.96795" lon="-1.72695">
        <ele>11.8</ele>
        <time>2021-12-24T08:13:57Z</time>
      </trkpt>
      <trkpt lat="46.96787" lon="-1.7269">
        <ele>12</ele>
        <time>2021-12-24T08:13:59Z</time>
      </trkpt>
      <trkpt lat="46.96779" lon="-1.72685">
        <ele>12</ele>
        <time>2021-12-24T08:14:01Z</time>
      </trkpt>
      <trkpt lat="46.96772" lon="-1.72679">
        <ele>12.2</ele>
        <time>2021-12-24T08:14:03Z</time>
      </trkpt>
      <trkpt lat="46.96765" lon="-1.72673">
        <ele>12.2</ele>
        <time>2021-12-24T08:14:05Z</time>
      </trkpt>
      <trkpt lat="46.96761" lon="-1.7267">
        <ele>12.4</ele>
        <time>2021-12-24T08:14:06Z</time>
      </trkpt>
      <trkpt lat="46.96758" lon="-1.72667">
        <ele>12.4</ele>
        <time>2021-12-24T08:14:07Z</time>
      </trkpt>
      <trkpt lat="46.96751" lon="-1.72661">
        <ele>12.6</ele>
        <time>2021-12-24T08:14:09Z</time>
      </trkpt>
      <trkpt lat="46.96745" lon="-1.72654">
        <ele>12.6</ele>
        <time>2021-12-24T08:14:11Z</time>
      </trkpt>
      <trkpt lat="46.96738" lon="-1.72647">
        <ele>12.8</ele>
        <time>2021-12-24T08:14:13Z</time>
      </trkpt>
      <trkpt lat="46.96735" lon="-1.72643">
        <ele>13</ele>
        <time>2021-12-24T08:14:14Z</time>
      </trkpt>
      <trkpt lat="46.96732" lon="-1.7264">
        <ele>13</ele>
        <time>2021-12-24T08:14:15Z</time>
      </trkpt>
      <trkpt lat="46.96725" lon="-1.72632">
        <ele>13.2</ele>
        <time>2021-12-24T08:14:17Z</time>
      </trkpt>
      <trkpt lat="46.96718" lon="-1.72625">
        <ele>13.2</ele>
        <time>2021-12-24T08:14:19Z</time>
      </trkpt>
      <trkpt lat="46.9671" lon="-1.72616">
        <ele>13.2</ele>
        <time>2021-12-24T08:14:21Z</time>
      </trkpt>
      <trkpt lat="46.96706" lon="-1.72612">
        <ele>13.4</ele>
        <time>2021-12-24T08:14:22Z</time>
      </trkpt>
      <trkpt lat="46.96702" lon="-1.72608">
        <ele>13.4</ele>
        <time>2021-12-24T08:14:23Z</time>
      </trkpt>
      <trkpt lat="46.96694" lon="-1.72599">
        <ele>13.4</ele>
        <time>2021-12-24T08:14:25Z</time>
      </trkpt>
      <trkpt lat="46.96686" lon="-1.7259">
        <ele>13.6</ele>
        <time>2021-12-24T08:14:27Z</time>
      </trkpt>
      <trkpt lat="46.96683" lon="-1.72586">
        <ele>13.6</ele>
        <time>2021-12-24T08:14:28Z</time>
      </trkpt>
      <trkpt lat="46.96679" lon="-1.72582">
        <ele>13.6</ele>
        <time>2021-12-24T08:14:29Z</time>
      </trkpt>
      <trkpt lat="46.96671" lon="-1.72574">
        <ele>13.8</ele>
        <time>2021-12-24T08:14:31Z</time>
      </trkpt>
      <trkpt lat="46.96663" lon="-1.72565">
        <ele>13.8</ele>
        <time>2021-12-24T08:14:33Z</time>
      </trkpt>
      <trkpt lat="46.96655" lon="-1.72557">
        <ele>14</ele>
        <time>2021-12-24T08:14:35Z</time>
      </trkpt>
      <trkpt lat="46.96651" lon="-1.72552">
        <ele>14</ele>
        <time>2021-12-24T08:14:36Z</time>
      </trkpt>
      <trkpt lat="46.96651" lon="-1.72552">
        <ele>14</ele>
        <time>2021-12-24T08:14:37Z</time>
      </trkpt>
      <trkpt lat="46.96639" lon="-1.72538">
        <ele>14</ele>
        <time>2021-12-24T08:14:39Z</time>
      </trkpt>
      <trkpt lat="46.96632" lon="-1.72529">
        <ele>14.2</ele>
        <time>2021-12-24T08:14:41Z</time>
      </trkpt>
      <trkpt lat="46.96625" lon="-1.7252">
        <ele>14.2</ele>
        <time>2021-12-24T08:14:43Z</time>
      </trkpt>
      <trkpt lat="46.96617" lon="-1.7251">
        <ele>14.4</ele>
        <time>2021-12-24T08:14:45Z</time>
      </trkpt>
      <trkpt lat="46.96609" lon="-1.72501">
        <ele>14.4</ele>
        <time>2021-12-24T08:14:47Z</time>
      </trkpt>
      <trkpt lat="46.96602" lon="-1.72491">
        <ele>14.4</ele>
        <time>2021-12-24T08:14:49Z</time>
      </trkpt>
      <trkpt lat="46.96594" lon="-1.72481">
        <ele>14.6</ele>
        <time>2021-12-24T08:14:51Z</time>
      </trkpt>
      <trkpt lat="46.96586" lon="-1.7247">
        <ele>14.6</ele>
        <time>2021-12-24T08:14:53Z</time>
      </trkpt>
      <trkpt lat="46.96578" lon="-1.7246">
        <ele>14.8</ele>
        <time>2021-12-24T08:14:55Z</time>
      </trkpt>
      <trkpt lat="46.9657" lon="-1.72449">
        <ele>14.8</ele>
        <time>2021-12-24T08:14:57Z</time>
      </trkpt>
      <trkpt lat="46.96562" lon="-1.72439">
        <ele>14.8</ele>
        <time>2021-12-24T08:14:59Z</time>
      </trkpt>
      <trkpt lat="46.96554" lon="-1.72428">
        <ele>15</ele>
        <time>2021-12-24T08:15:01Z</time>
      </trkpt>
      <trkpt lat="46.96546" lon="-1.72416">
        <ele>15</ele>
        <time>2021-12-24T08:15:03Z</time>
      </trkpt>
      <trkpt lat="46.96537" lon="-1.72404">
        <ele>15</ele>
        <time>2021-12-24T08:15:05Z</time>
      </trkpt>
      <trkpt lat="46.96529" lon="-1.72391">
        <ele>15</ele>
        <time>2021-12-24T08:15:07Z</time>
      </trkpt>
      <trkpt lat="46.96524" lon="-1.72385">
        <ele>15</ele>
        <time>2021-12-24T08:15:08Z</time>
      </trkpt>
      <trkpt lat="46.9652" lon="-1.72379">
        <ele>15</ele>
        <time>2021-12-24T08:15:09Z</time>
      </trkpt>
      <trkpt lat="46.96512" lon="-1.72366">
        <ele>15</ele>
        <time>2021-12-24T08:15:11Z</time>
      </trkpt>
      <trkpt lat="46.96504" lon="-1.72353">
        <ele>15.2</ele>
        <time>2021-12-24T08:15:13Z</time>
      </trkpt>
      <trkpt lat="46.96496" lon="-1.7234">
        <ele>15.2</ele>
        <time>2021-12-24T08:15:15Z</time>
      </trkpt>
      <trkpt lat="46.96488" lon="-1.72328">
        <ele>15.2</ele>
        <time>2021-12-24T08:15:17Z</time>
      </trkpt>
      <trkpt lat="46.96479" lon="-1.72317">
        <ele>15.4</ele>
        <time>2021-12-24T08:15:19Z</time>
      </trkpt>
      <trkpt lat="46.96475" lon="-1.72311">
        <ele>15.4</ele>
        <time>2021-12-24T08:15:20Z</time>
      </trkpt>
      <trkpt lat="46.9647" lon="-1.72307">
        <ele>15.4</ele>
        <time>2021-12-24T08:15:21Z</time>
      </trkpt>
      <trkpt lat="46.96466" lon="-1.72303">
        <ele>15.4</ele>
        <time>2021-12-24T08:15:22Z</time>
      </trkpt>
      <trkpt lat="46.9646" lon="-1.723">
        <ele>15.6</ele>
        <time>2021-12-24T08:15:23Z</time>
      </trkpt>
      <trkpt lat="46.96449" lon="-1.72296">
        <ele>15.6</ele>
        <time>2021-12-24T08:15:25Z</time>
      </trkpt>
      <trkpt lat="46.96438" lon="-1.72292">
        <ele>15.6</ele>
        <time>2021-12-24T08:15:27Z</time>
      </trkpt>
      <trkpt lat="46.96427" lon="-1.72287">
        <ele>15.8</ele>
        <time>2021-12-24T08:15:29Z</time>
      </trkpt>
      <trkpt lat="46.96422" lon="-1.72283">
        <ele>15.8</ele>
        <time>2021-12-24T08:15:30Z</time>
      </trkpt>
      <trkpt lat="46.96417" lon="-1.72279">
        <ele>15.8</ele>
        <time>2021-12-24T08:15:31Z</time>
      </trkpt>
      <trkpt lat="46.96408" lon="-1.72269">
        <ele>16</ele>
        <time>2021-12-24T08:15:33Z</time>
      </trkpt>
      <trkpt lat="46.964" lon="-1.72259">
        <ele>16</ele>
        <time>2021-12-24T08:15:35Z</time>
      </trkpt>
      <trkpt lat="46.96396" lon="-1.72253">
        <ele>16</ele>
        <time>2021-12-24T08:15:36Z</time>
      </trkpt>
      <trkpt lat="46.96392" lon="-1.72248">
        <ele>16</ele>
        <time>2021-12-24T08:15:37Z</time>
      </trkpt>
      <trkpt lat="46.96384" lon="-1.72237">
        <ele>16.2</ele>
        <time>2021-12-24T08:15:39Z</time>
      </trkpt>
      <trkpt lat="46.96376" lon="-1.72226">
        <ele>16.2</ele>
        <time>2021-12-24T08:15:41Z</time>
      </trkpt>
      <trkpt lat="46.96368" lon="-1.72215">
        <ele>16.2</ele>
        <time>2021-12-24T08:15:43Z</time>
      </trkpt>
      <trkpt lat="46.9636" lon="-1.72204">
        <ele>16.2</ele>
        <time>2021-12-24T08:15:45Z</time>
      </trkpt>
      <trkpt lat="46.96352" lon="-1.72193">
        <ele>16.4</ele>
        <time>2021-12-24T08:15:47Z</time>
      </trkpt>
      <trkpt lat="46.96343" lon="-1.72182">
        <ele>16.4</ele>
        <time>2021-12-24T08:15:49Z</time>
      </trkpt>
      <trkpt lat="46.96336" lon="-1.72169">
        <ele>16.4</ele>
        <time>2021-12-24T08:15:51Z</time>
      </trkpt>
      <trkpt lat="46.96328" lon="-1.72158">
        <ele>16.4</ele>
        <time>2021-12-24T08:15:53Z</time>
      </trkpt>
      <trkpt lat="46.96321" lon="-1.72145">
        <ele>16.4</ele>
        <time>2021-12-24T08:15:55Z</time>
      </trkpt>
      <trkpt lat="46.96314" lon="-1.72132">
        <ele>16.6</ele>
        <time>2021-12-24T08:15:57Z</time>
      </trkpt>
      <trkpt lat="46.96308" lon="-1.72118">
        <ele>16.6</ele>
        <time>2021-12-24T08:15:59Z</time>
      </trkpt>
      <trkpt lat="46.96305" lon="-1.72111">
        <ele>16.6</ele>
        <time>2021-12-24T08:16:00Z</time>
      </trkpt>
      <trkpt lat="46.96301" lon="-1.72104">
        <ele>16.6</ele>
        <time>2021-12-24T08:16:01Z</time>
      </trkpt>
      <trkpt lat="46.96295" lon="-1.7209">
        <ele>16.8</ele>
        <time>2021-12-24T08:16:03Z</time>
      </trkpt>
      <trkpt lat="46.96288" lon="-1.72077">
        <ele>16.8</ele>
        <time>2021-12-24T08:16:05Z</time>
      </trkpt>
      <trkpt lat="46.96281" lon="-1.72066">
        <ele>17</ele>
        <time>2021-12-24T08:16:07Z</time>
      </trkpt>
      <trkpt lat="46.96276" lon="-1.72061">
        <ele>17</ele>
        <time>2021-12-24T08:16:08Z</time>
      </trkpt>
      <trkpt lat="46.96272" lon="-1.72057">
        <ele>17</ele>
        <time>2021-12-24T08:16:09Z</time>
      </trkpt>
      <trkpt lat="46.96267" lon="-1.72053">
        <ele>17</ele>
        <time>2021-12-24T08:16:10Z</time>
      </trkpt>
      <trkpt lat="46.96262" lon="-1.72049">
        <ele>17.2</ele>
        <time>2021-12-24T08:16:11Z</time>
      </trkpt>
      <trkpt lat="46.96257" lon="-1.72047">
        <ele>17.2</ele>
        <time>2021-12-24T08:16:12Z</time>
      </trkpt>
      <trkpt lat="46.96251" lon="-1.72044">
        <ele>17.2</ele>
        <time>2021-12-24T08:16:13Z</time>
      </trkpt>
      <trkpt lat="46.96242" lon="-1.72039">
        <ele>17.2</ele>
        <time>2021-12-24T08:16:15Z</time>
      </trkpt>
      <trkpt lat="46.96232" lon="-1.72033">
        <ele>17.4</ele>
        <time>2021-12-24T08:16:17Z</time>
      </trkpt>
      <trkpt lat="46.96221" lon="-1.72028">
        <ele>17.6</ele>
        <time>2021-12-24T08:16:19Z</time>
      </trkpt>
      <trkpt lat="46.96211" lon="-1.72022">
        <ele>17.6</ele>
        <time>2021-12-24T08:16:21Z</time>
      </trkpt>
      <trkpt lat="46.96201" lon="-1.72016">
        <ele>17.6</ele>
        <time>2021-12-24T08:16:23Z</time>
      </trkpt>
      <trkpt lat="46.96191" lon="-1.7201">
        <ele>17.6</ele>
        <time>2021-12-24T08:16:25Z</time>
      </trkpt>
      <trkpt lat="46.96182" lon="-1.72003">
        <ele>17.8</ele>
        <time>2021-12-24T08:16:27Z</time>
      </trkpt>
      <trkpt lat="46.96172" lon="-1.71996">
        <ele>17.8</ele>
        <time>2021-12-24T08:16:29Z</time>
      </trkpt>
      <trkpt lat="46.96163" lon="-1.71988">
        <ele>18</ele>
        <time>2021-12-24T08:16:31Z</time>
      </trkpt>
      <trkpt lat="46.96153" lon="-1.71981">
        <ele>18</ele>
        <time>2021-12-24T08:16:33Z</time>
      </trkpt>
      <trkpt lat="46.96144" lon="-1.71973">
        <ele>18</ele>
        <time>2021-12-24T08:16:35Z</time>
      </trkpt>
      <trkpt lat="46.96135" lon="-1.71966">
        <ele>18.2</ele>
        <time>2021-12-24T08:16:37Z</time>
      </trkpt>
      <trkpt lat="46.96131" lon="-1.71963">
        <ele>18.2</ele>
        <time>2021-12-24T08:16:38Z</time>
      </trkpt>
      <trkpt lat="46.96126" lon="-1.71959">
        <ele>18.2</ele>
        <time>2021-12-24T08:16:39Z</time>
      </trkpt>
      <trkpt lat="46.96116" lon="-1.71953">
        <ele>18.2</ele>
        <time>2021-12-24T08:16:41Z</time>
      </trkpt>
      <trkpt lat="46.96107" lon="-1.71948">
        <ele>18.2</ele>
        <time>2021-12-24T08:16:43Z</time>
      </trkpt>
      <trkpt lat="46.96098" lon="-1.71942">
        <ele>18.2</ele>
        <time>2021-12-24T08:16:45Z</time>
      </trkpt>
      <trkpt lat="46.96093" lon="-1.7194">
        <ele>18.4</ele>
        <time>2021-12-24T08:16:46Z</time>
      </trkpt>
      <trkpt lat="46.96088" lon="-1.71937">
        <ele>18.4</ele>
        <time>2021-12-24T08:16:47Z</time>
      </trkpt>
      <trkpt lat="46.96079" lon="-1.71933">
        <ele>18.4</ele>
        <time>2021-12-24T08:16:49Z</time>
      </trkpt>
      <trkpt lat="46.96069" lon="-1.71928">
        <ele>18.4</ele>
        <time>2021-12-24T08:16:51Z</time>
      </trkpt>
      <trkpt lat="46.9606" lon="-1.71923">
        <ele>18.6</ele>
        <time>2021-12-24T08:16:53Z</time>
      </trkpt>
      <trkpt lat="46.96051" lon="-1.71917">
        <ele>18.6</ele>
        <time>2021-12-24T08:16:55Z</time>
      </trkpt>
      <trkpt lat="46.96042" lon="-1.71912">
        <ele>18.6</ele>
        <time>2021-12-24T08:16:57Z</time>
      </trkpt>
      <trkpt lat="46.96032" lon="-1.71905">
        <ele>18.6</ele>
        <time>2021-12-24T08:16:59Z</time>
      </trkpt>
      <trkpt lat="46.96023" lon="-1.71899">
        <ele>18.8</ele>
        <time>2021-12-24T08:17:01Z</time>
      </trkpt>
      <trkpt lat="46.96018" lon="-1.71895">
        <ele>18.8</ele>
        <time>2021-12-24T08:17:02Z</time>
      </trkpt>
      <trkpt lat="46.96014" lon="-1.71891">
        <ele>18.8</ele>
        <time>2021-12-24T08:17:03Z</time>
      </trkpt>
      <trkpt lat="46.96005" lon="-1.71883">
        <ele>19</ele>
        <time>2021-12-24T08:17:05Z</time>
      </trkpt>
      <trkpt lat="46.95997" lon="-1.71875">
        <ele>19</ele>
        <time>2021-12-24T08:17:07Z</time>
      </trkpt>
      <trkpt lat="46.95989" lon="-1.71867">
        <ele>19.2</ele>
        <time>2021-12-24T08:17:09Z</time>
      </trkpt>
      <trkpt lat="46.95981" lon="-1.71858">
        <ele>19.2</ele>
        <time>2021-12-24T08:17:11Z</time>
      </trkpt>
      <trkpt lat="46.95972" lon="-1.71848">
        <ele>19.2</ele>
        <time>2021-12-24T08:17:13Z</time>
      </trkpt>
      <trkpt lat="46.95963" lon="-1.71839">
        <ele>19.4</ele>
        <time>2021-12-24T08:17:15Z</time>
      </trkpt>
      <trkpt lat="46.95955" lon="-1.7183">
        <ele>19.4</ele>
        <time>2021-12-24T08:17:17Z</time>
      </trkpt>
      <trkpt lat="46.95946" lon="-1.71821">
        <ele>19.4</ele>
        <time>2021-12-24T08:17:19Z</time>
      </trkpt>
      <trkpt lat="46.95936" lon="-1.71812">
        <ele>19.6</ele>
        <time>2021-12-24T08:17:21Z</time>
      </trkpt>
      <trkpt lat="46.95927" lon="-1.71803">
        <ele>19.6</ele>
        <time>2021-12-24T08:17:23Z</time>
      </trkpt>
      <trkpt lat="46.95918" lon="-1.71796">
        <ele>19.8</ele>
        <time>2021-12-24T08:17:25Z</time>
      </trkpt>
      <trkpt lat="46.95913" lon="-1.71792">
        <ele>19.8</ele>
        <time>2021-12-24T08:17:26Z</time>
      </trkpt>
      <trkpt lat="46.95908" lon="-1.71788">
        <ele>19.8</ele>
        <time>2021-12-24T08:17:27Z</time>
      </trkpt>
      <trkpt lat="46.95898" lon="-1.71781">
        <ele>19.8</ele>
        <time>2021-12-24T08:17:29Z</time>
      </trkpt>
      <trkpt lat="46.95889" lon="-1.71773">
        <ele>20</ele>
        <time>2021-12-24T08:17:31Z</time>
      </trkpt>
      <trkpt lat="46.95879" lon="-1.71766">
        <ele>20</ele>
        <time>2021-12-24T08:17:33Z</time>
      </trkpt>
      <trkpt lat="46.95869" lon="-1.7176">
        <ele>20</ele>
        <time>2021-12-24T08:17:35Z</time>
      </trkpt>
      <trkpt lat="46.95859" lon="-1.71753">
        <ele>20</ele>
        <time>2021-12-24T08:17:37Z</time>
      </trkpt>
      <trkpt lat="46.9585" lon="-1.71747">
        <ele>20</ele>
        <time>2021-12-24T08:17:39Z</time>
      </trkpt>
      <trkpt lat="46.9584" lon="-1.7174">
        <ele>20</ele>
        <time>2021-12-24T08:17:41Z</time>
      </trkpt>
      <trkpt lat="46.95831" lon="-1.71734">
        <ele>20</ele>
        <time>2021-12-24T08:17:43Z</time>
      </trkpt>
      <trkpt lat="46.95822" lon="-1.71727">
        <ele>20</ele>
        <time>2021-12-24T08:17:45Z</time>
      </trkpt>
      <trkpt lat="46.95812" lon="-1.7172">
        <ele>20</ele>
        <time>2021-12-24T08:17:47Z</time>
      </trkpt>
      <trkpt lat="46.95803" lon="-1.71713">
        <ele>20</ele>
        <time>2021-12-24T08:17:49Z</time>
      </trkpt>
      <trkpt lat="46.95794" lon="-1.71706">
        <ele>20</ele>
        <time>2021-12-24T08:17:51Z</time>
      </trkpt>
      <trkpt lat="46.9579" lon="-1.71703">
        <ele>20</ele>
        <time>2021-12-24T08:17:52Z</time>
      </trkpt>
      <trkpt lat="46.95785" lon="-1.717">
        <ele>20.2</ele>
        <time>2021-12-24T08:17:53Z</time>
      </trkpt>
      <trkpt lat="46.95776" lon="-1.71694">
        <ele>20.2</ele>
        <time>2021-12-24T08:17:55Z</time>
      </trkpt>
      <trkpt lat="46.95766" lon="-1.71688">
        <ele>20.2</ele>
        <time>2021-12-24T08:17:57Z</time>
      </trkpt>
      <trkpt lat="46.95757" lon="-1.71682">
        <ele>20.2</ele>
        <time>2021-12-24T08:17:59Z</time>
      </trkpt>
      <trkpt lat="46.95747" lon="-1.71679">
        <ele>20.4</ele>
        <time>2021-12-24T08:18:01Z</time>
      </trkpt>
      <trkpt lat="46.95736" lon="-1.7168">
        <ele>20.4</ele>
        <time>2021-12-24T08:18:03Z</time>
      </trkpt>
      <trkpt lat="46.95731" lon="-1.71682">
        <ele>20.4</ele>
        <time>2021-12-24T08:18:04Z</time>
      </trkpt>
      <trkpt lat="46.95726" lon="-1.71685">
        <ele>20.4</ele>
        <time>2021-12-24T08:18:05Z</time>
      </trkpt>
      <trkpt lat="46.95717" lon="-1.71691">
        <ele>20.4</ele>
        <time>2021-12-24T08:18:07Z</time>
      </trkpt>
      <trkpt lat="46.95708" lon="-1.7169">
        <ele>20.4</ele>
        <time>2021-12-24T08:18:09Z</time>
      </trkpt>
      <trkpt lat="46.95701" lon="-1.71681">
        <ele>20.6</ele>
        <time>2021-12-24T08:18:11Z</time>
      </trkpt>
      <trkpt lat="46.95698" lon="-1.71674">
        <ele>20.6</ele>
        <time>2021-12-24T08:18:12Z</time>
      </trkpt>
      <trkpt lat="46.95696" lon="-1.71667">
        <ele>20.6</ele>
        <time>2021-12-24T08:18:13Z</time>
      </trkpt>
      <trkpt lat="46.9569" lon="-1.71654">
        <ele>20.8</ele>
        <time>2021-12-24T08:18:15Z</time>
      </trkpt>
      <trkpt lat="46.95685" lon="-1.71641">
        <ele>20.8</ele>
        <time>2021-12-24T08:18:17Z</time>
      </trkpt>
      <trkpt lat="46.9568" lon="-1.71628">
        <ele>20.8</ele>
        <time>2021-12-24T08:18:19Z</time>
      </trkpt>
      <trkpt lat="46.95675" lon="-1.71615">
        <ele>20.8</ele>
        <time>2021-12-24T08:18:21Z</time>
      </trkpt>
      <trkpt lat="46.9567" lon="-1.71602">
        <ele>21</ele>
        <time>2021-12-24T08:18:23Z</time>
      </trkpt>
      <trkpt lat="46.95666" lon="-1.71589">
        <ele>21</ele>
        <time>2021-12-24T08:18:25Z</time>
      </trkpt>
      <trkpt lat="46.95662" lon="-1.71576">
        <ele>21.2</ele>
        <time>2021-12-24T08:18:27Z</time>
      </trkpt>
      <trkpt lat="46.95657" lon="-1.71563">
        <ele>21.2</ele>
        <time>2021-12-24T08:18:29Z</time>
      </trkpt>
      <trkpt lat="46.95652" lon="-1.71551">
        <ele>21.4</ele>
        <time>2021-12-24T08:18:31Z</time>
      </trkpt>
      <trkpt lat="46.95649" lon="-1.7154">
        <ele>21.4</ele>
        <time>2021-12-24T08:18:33Z</time>
      </trkpt>
      <trkpt lat="46.95646" lon="-1.71536">
        <ele>21.4</ele>
        <time>2021-12-24T08:18:34Z</time>
      </trkpt>
      <trkpt lat="46.95643" lon="-1.71534">
        <ele>21.4</ele>
        <time>2021-12-24T08:18:35Z</time>
      </trkpt>
      <trkpt lat="46.95636" lon="-1.71538">
        <ele>21.6</ele>
        <time>2021-12-24T08:18:37Z</time>
      </trkpt>
      <trkpt lat="46.95629" lon="-1.71546">
        <ele>21.6</ele>
        <time>2021-12-24T08:18:39Z</time>
      </trkpt>
      <trkpt lat="46.95622" lon="-1.71554">
        <ele>21.6</ele>
        <time>2021-12-24T08:18:41Z</time>
      </trkpt>
      <trkpt lat="46.95614" lon="-1.71563">
        <ele>21.8</ele>
        <time>2021-12-24T08:18:43Z</time>
      </trkpt>
      <trkpt lat="46.95606" lon="-1.71572">
        <ele>21.8</ele>
        <time>2021-12-24T08:18:45Z</time>
      </trkpt>
      <trkpt lat="46.95598" lon="-1.71581">
        <ele>22</ele>
        <time>2021-12-24T08:18:47Z</time>
      </trkpt>
      <trkpt lat="46.95589" lon="-1.71591">
        <ele>22.2</ele>
        <time>2021-12-24T08:18:49Z</time>
      </trkpt>
      <trkpt lat="46.95581" lon="-1.71601">
        <ele>22.2</ele>
        <time>2021-12-24T08:18:51Z</time>
      </trkpt>
      <trkpt lat="46.95573" lon="-1.71612">
        <ele>22.4</ele>
        <time>2021-12-24T08:18:53Z</time>
      </trkpt>
      <trkpt lat="46.95564" lon="-1.71622">
        <ele>22.4</ele>
        <time>2021-12-24T08:18:55Z</time>
      </trkpt>
      <trkpt lat="46.95556" lon="-1.71632">
        <ele>22.6</ele>
        <time>2021-12-24T08:18:57Z</time>
      </trkpt>
      <trkpt lat="46.95552" lon="-1.71638">
        <ele>22.6</ele>
        <time>2021-12-24T08:18:58Z</time>
      </trkpt>
      <trkpt lat="46.95548" lon="-1.71643">
        <ele>22.8</ele>
        <time>2021-12-24T08:18:59Z</time>
      </trkpt>
      <trkpt lat="46.9554" lon="-1.71653">
        <ele>22.8</ele>
        <time>2021-12-24T08:19:01Z</time>
      </trkpt>
      <trkpt lat="46.95531" lon="-1.71663">
        <ele>23</ele>
        <time>2021-12-24T08:19:03Z</time>
      </trkpt>
      <trkpt lat="46.95522" lon="-1.71673">
        <ele>23</ele>
        <time>2021-12-24T08:19:05Z</time>
      </trkpt>
      <trkpt lat="46.95514" lon="-1.71683">
        <ele>23.2</ele>
        <time>2021-12-24T08:19:07Z</time>
      </trkpt>
      <trkpt lat="46.95505" lon="-1.71693">
        <ele>23.4</ele>
        <time>2021-12-24T08:19:09Z</time>
      </trkpt>
      <trkpt lat="46.95496" lon="-1.71703">
        <ele>23.6</ele>
        <time>2021-12-24T08:19:11Z</time>
      </trkpt>
      <trkpt lat="46.95488" lon="-1.71713">
        <ele>23.6</ele>
        <time>2021-12-24T08:19:13Z</time>
      </trkpt>
      <trkpt lat="46.95479" lon="-1.71723">
        <ele>23.8</ele>
        <time>2021-12-24T08:19:15Z</time>
      </trkpt>
      <trkpt lat="46.95471" lon="-1.71732">
        <ele>23.8</ele>
        <time>2021-12-24T08:19:17Z</time>
      </trkpt>
      <trkpt lat="46.95463" lon="-1.71742">
        <ele>24</ele>
        <time>2021-12-24T08:19:19Z</time>
      </trkpt>
      <trkpt lat="46.95455" lon="-1.71752">
        <ele>24.2</ele>
        <time>2021-12-24T08:19:21Z</time>
      </trkpt>
      <trkpt lat="46.95446" lon="-1.71761">
        <ele>24.4</ele>
        <time>2021-12-24T08:19:23Z</time>
      </trkpt>
      <trkpt lat="46.95438" lon="-1.71771">
        <ele>24.4</ele>
        <time>2021-12-24T08:19:25Z</time>
      </trkpt>
      <trkpt lat="46.9543" lon="-1.71781">
        <ele>24.6</ele>
        <time>2021-12-24T08:19:27Z</time>
      </trkpt>
      <trkpt lat="46.95422" lon="-1.71791">
        <ele>24.8</ele>
        <time>2021-12-24T08:19:29Z</time>
      </trkpt>
      <trkpt lat="46.95414" lon="-1.71801">
        <ele>25</ele>
        <time>2021-12-24T08:19:31Z</time>
      </trkpt>
      <trkpt lat="46.95406" lon="-1.71811">
        <ele>25</ele>
        <time>2021-12-24T08:19:33Z</time>
      </trkpt>
      <trkpt lat="46.95397" lon="-1.71821">
        <ele>25.2</ele>
        <time>2021-12-24T08:19:35Z</time>
      </trkpt>
      <trkpt lat="46.95389" lon="-1.71832">
        <ele>25.4</ele>
        <time>2021-12-24T08:19:37Z</time>
      </trkpt>
      <trkpt lat="46.9538" lon="-1.71842">
        <ele>25.4</ele>
        <time>2021-12-24T08:19:39Z</time>
      </trkpt>
      <trkpt lat="46.95371" lon="-1.71852">
        <ele>25.4</ele>
        <time>2021-12-24T08:19:41Z</time>
      </trkpt>
      <trkpt lat="46.95367" lon="-1.71857">
        <ele>25.6</ele>
        <time>2021-12-24T08:19:42Z</time>
      </trkpt>
      <trkpt lat="46.95363" lon="-1.71862">
        <ele>25.6</ele>
        <time>2021-12-24T08:19:43Z</time>
      </trkpt>
      <trkpt lat="46.95354" lon="-1.71872">
        <ele>25.6</ele>
        <time>2021-12-24T08:19:45Z</time>
      </trkpt>
      <trkpt lat="46.95345" lon="-1.71882">
        <ele>25.8</ele>
        <time>2021-12-24T08:19:47Z</time>
      </trkpt>
      <trkpt lat="46.95336" lon="-1.71892">
        <ele>25.8</ele>
        <time>2021-12-24T08:19:49Z</time>
      </trkpt>
      <trkpt lat="46.95332" lon="-1.71898">
        <ele>25.8</ele>
        <time>2021-12-24T08:19:50Z</time>
      </trkpt>
      <trkpt lat="46.95328" lon="-1.71903">
        <ele>26</ele>
        <time>2021-12-24T08:19:51Z</time>
      </trkpt>
      <trkpt lat="46.9532" lon="-1.71913">
        <ele>26</ele>
        <time>2021-12-24T08:19:53Z</time>
      </trkpt>
      <trkpt lat="46.95312" lon="-1.71923">
        <ele>26</ele>
        <time>2021-12-24T08:19:55Z</time>
      </trkpt>
      <trkpt lat="46.95303" lon="-1.71933">
        <ele>26.2</ele>
        <time>2021-12-24T08:19:57Z</time>
      </trkpt>
      <trkpt lat="46.95294" lon="-1.71944">
        <ele>26.4</ele>
        <time>2021-12-24T08:19:59Z</time>
      </trkpt>
      <trkpt lat="46.95285" lon="-1.71954">
        <ele>26.4</ele>
        <time>2021-12-24T08:20:01Z</time>
      </trkpt>
      <trkpt lat="46.95277" lon="-1.71964">
        <ele>26.6</ele>
        <time>2021-12-24T08:20:03Z</time>
      </trkpt>
      <trkpt lat="46.95272" lon="-1.71969">
        <ele>26.8</ele>
        <time>2021-12-24T08:20:04Z</time>
      </trkpt>
      <trkpt lat="46.95268" lon="-1.71975">
        <ele>26.8</ele>
        <time>2021-12-24T08:20:05Z</time>
      </trkpt>
      <trkpt lat="46.9526" lon="-1.71986">
        <ele>27</ele>
        <time>2021-12-24T08:20:07Z</time>
      </trkpt>
      <trkpt lat="46.9525" lon="-1.71997">
        <ele>27</ele>
        <time>2021-12-24T08:20:09Z</time>
      </trkpt>
      <trkpt lat="46.95241" lon="-1.72008">
        <ele>27</ele>
        <time>2021-12-24T08:20:11Z</time>
      </trkpt>
      <trkpt lat="46.95236" lon="-1.72013">
        <ele>27</ele>
        <time>2021-12-24T08:20:12Z</time>
      </trkpt>
      <trkpt lat="46.95232" lon="-1.72019">
        <ele>27</ele>
        <time>2021-12-24T08:20:13Z</time>
      </trkpt>
      <trkpt lat="46.95222" lon="-1.7203">
        <ele>27.2</ele>
        <time>2021-12-24T08:20:15Z</time>
      </trkpt>
      <trkpt lat="46.95212" lon="-1.72042">
        <ele>27.2</ele>
        <time>2021-12-24T08:20:17Z</time>
      </trkpt>
      <trkpt lat="46.95203" lon="-1.72053">
        <ele>27.2</ele>
        <time>2021-12-24T08:20:19Z</time>
      </trkpt>
      <trkpt lat="46.95198" lon="-1.72059">
        <ele>27.2</ele>
        <time>2021-12-24T08:20:20Z</time>
      </trkpt>
      <trkpt lat="46.95193" lon="-1.72065">
        <ele>27.2</ele>
        <time>2021-12-24T08:20:21Z</time>
      </trkpt>
      <trkpt lat="46.95183" lon="-1.72076">
        <ele>27</ele>
        <time>2021-12-24T08:20:23Z</time>
      </trkpt>
      <trkpt lat="46.95174" lon="-1.72087">
        <ele>27</ele>
        <time>2021-12-24T08:20:25Z</time>
      </trkpt>
      <trkpt lat="46.95164" lon="-1.72099">
        <ele>27.4</ele>
        <time>2021-12-24T08:20:27Z</time>
      </trkpt>
      <trkpt lat="46.95155" lon="-1.7211">
        <ele>27</ele>
        <time>2021-12-24T08:20:29Z</time>
      </trkpt>
      <trkpt lat="46.95145" lon="-1.72121">
        <ele>26.4</ele>
        <time>2021-12-24T08:20:31Z</time>
      </trkpt>
      <trkpt lat="46.95136" lon="-1.72132">
        <ele>26.6</ele>
        <time>2021-12-24T08:20:33Z</time>
      </trkpt>
      <trkpt lat="46.95126" lon="-1.72144">
        <ele>26.6</ele>
        <time>2021-12-24T08:20:35Z</time>
      </trkpt>
      <trkpt lat="46.95116" lon="-1.72155">
        <ele>26.4</ele>
        <time>2021-12-24T08:20:37Z</time>
      </trkpt>
      <trkpt lat="46.95106" lon="-1.72167">
        <ele>26.2</ele>
        <time>2021-12-24T08:20:39Z</time>
      </trkpt>
      <trkpt lat="46.95096" lon="-1.72179">
        <ele>26</ele>
        <time>2021-12-24T08:20:41Z</time>
      </trkpt>
      <trkpt lat="46.95086" lon="-1.72192">
        <ele>25.8</ele>
        <time>2021-12-24T08:20:43Z</time>
      </trkpt>
      <trkpt lat="46.95075" lon="-1.72205">
        <ele>25.6</ele>
        <time>2021-12-24T08:20:45Z</time>
      </trkpt>
      <trkpt lat="46.95065" lon="-1.72218">
        <ele>25.4</ele>
        <time>2021-12-24T08:20:47Z</time>
      </trkpt>
      <trkpt lat="46.95054" lon="-1.72231">
        <ele>25</ele>
        <time>2021-12-24T08:20:49Z</time>
      </trkpt>
      <trkpt lat="46.95043" lon="-1.72244">
        <ele>24.8</ele>
        <time>2021-12-24T08:20:51Z</time>
      </trkpt>
      <trkpt lat="46.95032" lon="-1.72258">
        <ele>24.6</ele>
        <time>2021-12-24T08:20:53Z</time>
      </trkpt>
      <trkpt lat="46.95021" lon="-1.72271">
        <ele>24.6</ele>
        <time>2021-12-24T08:20:55Z</time>
      </trkpt>
      <trkpt lat="46.95009" lon="-1.72285">
        <ele>24.4</ele>
        <time>2021-12-24T08:20:57Z</time>
      </trkpt>
      <trkpt lat="46.94997" lon="-1.72299">
        <ele>24.2</ele>
        <time>2021-12-24T08:20:59Z</time>
      </trkpt>
      <trkpt lat="46.94985" lon="-1.72312">
        <ele>24.2</ele>
        <time>2021-12-24T08:21:01Z</time>
      </trkpt>
      <trkpt lat="46.94973" lon="-1.72326">
        <ele>24.2</ele>
        <time>2021-12-24T08:21:03Z</time>
      </trkpt>
      <trkpt lat="46.94967" lon="-1.72333">
        <ele>24</ele>
        <time>2021-12-24T08:21:04Z</time>
      </trkpt>
      <trkpt lat="46.94961" lon="-1.7234">
        <ele>24</ele>
        <time>2021-12-24T08:21:05Z</time>
      </trkpt>
      <trkpt lat="46.94949" lon="-1.72355">
        <ele>24</ele>
        <time>2021-12-24T08:21:07Z</time>
      </trkpt>
      <trkpt lat="46.94937" lon="-1.72369">
        <ele>23.8</ele>
        <time>2021-12-24T08:21:09Z</time>
      </trkpt>
      <trkpt lat="46.94925" lon="-1.72384">
        <ele>23.8</ele>
        <time>2021-12-24T08:21:11Z</time>
      </trkpt>
      <trkpt lat="46.94914" lon="-1.72399">
        <ele>23.6</ele>
        <time>2021-12-24T08:21:13Z</time>
      </trkpt>
      <trkpt lat="46.94902" lon="-1.72413">
        <ele>23.6</ele>
        <time>2021-12-24T08:21:15Z</time>
      </trkpt>
      <trkpt lat="46.94889" lon="-1.72427">
        <ele>23.4</ele>
        <time>2021-12-24T08:21:17Z</time>
      </trkpt>
      <trkpt lat="46.94877" lon="-1.72441">
        <ele>23.2</ele>
        <time>2021-12-24T08:21:19Z</time>
      </trkpt>
      <trkpt lat="46.94871" lon="-1.72447">
        <ele>23.2</ele>
        <time>2021-12-24T08:21:20Z</time>
      </trkpt>
      <trkpt lat="46.94865" lon="-1.72454">
        <ele>23</ele>
        <time>2021-12-24T08:21:21Z</time>
      </trkpt>
      <trkpt lat="46.94852" lon="-1.72467">
        <ele>22.8</ele>
        <time>2021-12-24T08:21:23Z</time>
      </trkpt>
      <trkpt lat="46.9484" lon="-1.7248">
        <ele>22.6</ele>
        <time>2021-12-24T08:21:25Z</time>
      </trkpt>
      <trkpt lat="46.94826" lon="-1.72492">
        <ele>22.4</ele>
        <time>2021-12-24T08:21:27Z</time>
      </trkpt>
      <trkpt lat="46.94813" lon="-1.72504">
        <ele>22.2</ele>
        <time>2021-12-24T08:21:29Z</time>
      </trkpt>
      <trkpt lat="46.948" lon="-1.72517">
        <ele>22</ele>
        <time>2021-12-24T08:21:31Z</time>
      </trkpt>
      <trkpt lat="46.94786" lon="-1.7253">
        <ele>21.6</ele>
        <time>2021-12-24T08:21:33Z</time>
      </trkpt>
      <trkpt lat="46.94773" lon="-1.72542">
        <ele>21.4</ele>
        <time>2021-12-24T08:21:35Z</time>
      </trkpt>
      <trkpt lat="46.9476" lon="-1.72556">
        <ele>21</ele>
        <time>2021-12-24T08:21:37Z</time>
      </trkpt>
      <trkpt lat="46.94754" lon="-1.72562">
        <ele>20.8</ele>
        <time>2021-12-24T08:21:38Z</time>
      </trkpt>
      <trkpt lat="46.94747" lon="-1.72569">
        <ele>20.8</ele>
        <time>2021-12-24T08:21:39Z</time>
      </trkpt>
      <trkpt lat="46.94734" lon="-1.72581">
        <ele>20.4</ele>
        <time>2021-12-24T08:21:41Z</time>
      </trkpt>
      <trkpt lat="46.94721" lon="-1.72594">
        <ele>20.2</ele>
        <time>2021-12-24T08:21:43Z</time>
      </trkpt>
      <trkpt lat="46.94709" lon="-1.72605">
        <ele>20.2</ele>
        <time>2021-12-24T08:21:45Z</time>
      </trkpt>
      <trkpt lat="46.94696" lon="-1.72617">
        <ele>20.2</ele>
        <time>2021-12-24T08:21:47Z</time>
      </trkpt>
      <trkpt lat="46.94685" lon="-1.72628">
        <ele>20.2</ele>
        <time>2021-12-24T08:21:49Z</time>
      </trkpt>
      <trkpt lat="46.94674" lon="-1.72639">
        <ele>20.2</ele>
        <time>2021-12-24T08:21:51Z</time>
      </trkpt>
      <trkpt lat="46.94668" lon="-1.72645">
        <ele>20.2</ele>
        <time>2021-12-24T08:21:52Z</time>
      </trkpt>
      <trkpt lat="46.94663" lon="-1.7265">
        <ele>20.2</ele>
        <time>2021-12-24T08:21:53Z</time>
      </trkpt>
      <trkpt lat="46.94653" lon="-1.7266">
        <ele>20.2</ele>
        <time>2021-12-24T08:21:55Z</time>
      </trkpt>
      <trkpt lat="46.94643" lon="-1.7267">
        <ele>20</ele>
        <time>2021-12-24T08:21:57Z</time>
      </trkpt>
      <trkpt lat="46.94634" lon="-1.7268">
        <ele>20</ele>
        <time>2021-12-24T08:21:59Z</time>
      </trkpt>
      <trkpt lat="46.94625" lon="-1.72689">
        <ele>20</ele>
        <time>2021-12-24T08:22:01Z</time>
      </trkpt>
      <trkpt lat="46.94615" lon="-1.72698">
        <ele>19.8</ele>
        <time>2021-12-24T08:22:03Z</time>
      </trkpt>
      <trkpt lat="46.94607" lon="-1.72706">
        <ele>19.8</ele>
        <time>2021-12-24T08:22:05Z</time>
      </trkpt>
      <trkpt lat="46.94597" lon="-1.72714">
        <ele>19.8</ele>
        <time>2021-12-24T08:22:07Z</time>
      </trkpt>
      <trkpt lat="46.94588" lon="-1.72722">
        <ele>19.6</ele>
        <time>2021-12-24T08:22:09Z</time>
      </trkpt>
      <trkpt lat="46.94579" lon="-1.72729">
        <ele>19.6</ele>
        <time>2021-12-24T08:22:11Z</time>
      </trkpt>
      <trkpt lat="46.94569" lon="-1.72737">
        <ele>19.4</ele>
        <time>2021-12-24T08:22:13Z</time>
      </trkpt>
      <trkpt lat="46.9456" lon="-1.72744">
        <ele>19.4</ele>
        <time>2021-12-24T08:22:15Z</time>
      </trkpt>
      <trkpt lat="46.94555" lon="-1.72747">
        <ele>19.4</ele>
        <time>2021-12-24T08:22:16Z</time>
      </trkpt>
      <trkpt lat="46.94551" lon="-1.7275">
        <ele>19.4</ele>
        <time>2021-12-24T08:22:17Z</time>
      </trkpt>
      <trkpt lat="46.94542" lon="-1.72757">
        <ele>19.4</ele>
        <time>2021-12-24T08:22:19Z</time>
      </trkpt>
      <trkpt lat="46.94533" lon="-1.72763">
        <ele>19.6</ele>
        <time>2021-12-24T08:22:21Z</time>
      </trkpt>
      <trkpt lat="46.94524" lon="-1.72769">
        <ele>19.6</ele>
        <time>2021-12-24T08:22:23Z</time>
      </trkpt>
      <trkpt lat="46.94515" lon="-1.72774">
        <ele>19.6</ele>
        <time>2021-12-24T08:22:25Z</time>
      </trkpt>
      <trkpt lat="46.94507" lon="-1.7278">
        <ele>20</ele>
        <time>2021-12-24T08:22:27Z</time>
      </trkpt>
      <trkpt lat="46.94498" lon="-1.72787">
        <ele>20</ele>
        <time>2021-12-24T08:22:29Z</time>
      </trkpt>
      <trkpt lat="46.9449" lon="-1.72796">
        <ele>19.8</ele>
        <time>2021-12-24T08:22:31Z</time>
      </trkpt>
      <trkpt lat="46.94482" lon="-1.72804">
        <ele>20.2</ele>
        <time>2021-12-24T08:22:33Z</time>
      </trkpt>
      <trkpt lat="46.94474" lon="-1.72812">
        <ele>19.8</ele>
        <time>2021-12-24T08:22:35Z</time>
      </trkpt>
      <trkpt lat="46.94469" lon="-1.72817">
        <ele>19.8</ele>
        <time>2021-12-24T08:22:36Z</time>
      </trkpt>
      <trkpt lat="46.94466" lon="-1.72822">
        <ele>20</ele>
        <time>2021-12-24T08:22:37Z</time>
      </trkpt>
      <trkpt lat="46.94457" lon="-1.7283">
        <ele>20</ele>
        <time>2021-12-24T08:22:39Z</time>
      </trkpt>
      <trkpt lat="46.94449" lon="-1.72839">
        <ele>20</ele>
        <time>2021-12-24T08:22:41Z</time>
      </trkpt>
      <trkpt lat="46.94445" lon="-1.72844">
        <ele>20</ele>
        <time>2021-12-24T08:22:42Z</time>
      </trkpt>
      <trkpt lat="46.94441" lon="-1.72849">
        <ele>20</ele>
        <time>2021-12-24T08:22:43Z</time>
      </trkpt>
      <trkpt lat="46.94433" lon="-1.72858">
        <ele>20</ele>
        <time>2021-12-24T08:22:45Z</time>
      </trkpt>
      <trkpt lat="46.94425" lon="-1.72867">
        <ele>20.2</ele>
        <time>2021-12-24T08:22:47Z</time>
      </trkpt>
      <trkpt lat="46.94416" lon="-1.72876">
        <ele>20.2</ele>
        <time>2021-12-24T08:22:49Z</time>
      </trkpt>
      <trkpt lat="46.94412" lon="-1.7288">
        <ele>20.2</ele>
        <time>2021-12-24T08:22:50Z</time>
      </trkpt>
      <trkpt lat="46.94408" lon="-1.72885">
        <ele>20.2</ele>
        <time>2021-12-24T08:22:51Z</time>
      </trkpt>
      <trkpt lat="46.944" lon="-1.72895">
        <ele>20.4</ele>
        <time>2021-12-24T08:22:53Z</time>
      </trkpt>
      <trkpt lat="46.94392" lon="-1.72904">
        <ele>20.4</ele>
        <time>2021-12-24T08:22:55Z</time>
      </trkpt>
      <trkpt lat="46.94384" lon="-1.72914">
        <ele>20.6</ele>
        <time>2021-12-24T08:22:57Z</time>
      </trkpt>
      <trkpt lat="46.94379" lon="-1.72918">
        <ele>20.6</ele>
        <time>2021-12-24T08:22:58Z</time>
      </trkpt>
      <trkpt lat="46.94375" lon="-1.72923">
        <ele>20.6</ele>
        <time>2021-12-24T08:22:59Z</time>
      </trkpt>
      <trkpt lat="46.94367" lon="-1.72933">
        <ele>20.8</ele>
        <time>2021-12-24T08:23:01Z</time>
      </trkpt>
      <trkpt lat="46.94359" lon="-1.72942">
        <ele>20.8</ele>
        <time>2021-12-24T08:23:03Z</time>
      </trkpt>
      <trkpt lat="46.94351" lon="-1.72951">
        <ele>21</ele>
        <time>2021-12-24T08:23:05Z</time>
      </trkpt>
      <trkpt lat="46.94344" lon="-1.7296">
        <ele>21</ele>
        <time>2021-12-24T08:23:07Z</time>
      </trkpt>
      <trkpt lat="46.94336" lon="-1.7297">
        <ele>21</ele>
        <time>2021-12-24T08:23:09Z</time>
      </trkpt>
      <trkpt lat="46.94328" lon="-1.72978">
        <ele>21.2</ele>
        <time>2021-12-24T08:23:11Z</time>
      </trkpt>
      <trkpt lat="46.9432" lon="-1.72988">
        <ele>21.2</ele>
        <time>2021-12-24T08:23:13Z</time>
      </trkpt>
      <trkpt lat="46.94316" lon="-1.72992">
        <ele>21.4</ele>
        <time>2021-12-24T08:23:14Z</time>
      </trkpt>
      <trkpt lat="46.94312" lon="-1.72997">
        <ele>21.4</ele>
        <time>2021-12-24T08:23:15Z</time>
      </trkpt>
      <trkpt lat="46.94303" lon="-1.73006">
        <ele>21.4</ele>
        <time>2021-12-24T08:23:17Z</time>
      </trkpt>
      <trkpt lat="46.94295" lon="-1.73015">
        <ele>21.6</ele>
        <time>2021-12-24T08:23:19Z</time>
      </trkpt>
      <trkpt lat="46.94287" lon="-1.73025">
        <ele>21.6</ele>
        <time>2021-12-24T08:23:21Z</time>
      </trkpt>
      <trkpt lat="46.94279" lon="-1.73034">
        <ele>21.6</ele>
        <time>2021-12-24T08:23:23Z</time>
      </trkpt>
      <trkpt lat="46.9427" lon="-1.73044">
        <ele>21.8</ele>
        <time>2021-12-24T08:23:25Z</time>
      </trkpt>
      <trkpt lat="46.94262" lon="-1.73053">
        <ele>21.8</ele>
        <time>2021-12-24T08:23:27Z</time>
      </trkpt>
      <trkpt lat="46.94254" lon="-1.73064">
        <ele>21.8</ele>
        <time>2021-12-24T08:23:29Z</time>
      </trkpt>
      <trkpt lat="46.94248" lon="-1.73075">
        <ele>22</ele>
        <time>2021-12-24T08:23:31Z</time>
      </trkpt>
      <trkpt lat="46.94243" lon="-1.73086">
        <ele>22</ele>
        <time>2021-12-24T08:23:33Z</time>
      </trkpt>
      <trkpt lat="46.94239" lon="-1.73096">
        <ele>22</ele>
        <time>2021-12-24T08:23:35Z</time>
      </trkpt>
      <trkpt lat="46.94237" lon="-1.73103">
        <ele>22</ele>
        <time>2021-12-24T08:23:37Z</time>
      </trkpt>
      <trkpt lat="46.94235" lon="-1.73109">
        <ele>22</ele>
        <time>2021-12-24T08:23:39Z</time>
      </trkpt>
      <trkpt lat="46.94234" lon="-1.73111">
        <ele>22.2</ele>
        <time>2021-12-24T08:23:40Z</time>
      </trkpt>
      <trkpt lat="46.94234" lon="-1.73112">
        <ele>22.2</ele>
        <time>2021-12-24T08:23:41Z</time>
      </trkpt>
      <trkpt lat="46.94234" lon="-1.73112">
        <ele>22.2</ele>
        <time>2021-12-24T08:23:42Z</time>
      </trkpt>
      <trkpt lat="46.94233" lon="-1.73114">
        <ele>22.2</ele>
        <time>2021-12-24T08:23:46Z</time>
      </trkpt>
      <trkpt lat="46.94231" lon="-1.73116">
        <ele>22.4</ele>
        <time>2021-12-24T08:23:47Z</time>
      </trkpt>
      <trkpt lat="46.94226" lon="-1.73121">
        <ele>22.4</ele>
        <time>2021-12-24T08:23:49Z</time>
      </trkpt>
      <trkpt lat="46.94223" lon="-1.73123">
        <ele>22.4</ele>
        <time>2021-12-24T08:23:50Z</time>
      </trkpt>
      <trkpt lat="46.94219" lon="-1.73126">
        <ele>22.6</ele>
        <time>2021-12-24T08:23:51Z</time>
      </trkpt>
      <trkpt lat="46.94215" lon="-1.73129">
        <ele>22.4</ele>
        <time>2021-12-24T08:23:52Z</time>
      </trkpt>
      <trkpt lat="46.94211" lon="-1.73132">
        <ele>22.6</ele>
        <time>2021-12-24T08:23:53Z</time>
      </trkpt>
      <trkpt lat="46.94203" lon="-1.7314">
        <ele>22.6</ele>
        <time>2021-12-24T08:23:55Z</time>
      </trkpt>
      <trkpt lat="46.94199" lon="-1.73145">
        <ele>22.6</ele>
        <time>2021-12-24T08:23:56Z</time>
      </trkpt>
      <trkpt lat="46.94195" lon="-1.73149">
        <ele>22.6</ele>
        <time>2021-12-24T08:23:57Z</time>
      </trkpt>
      <trkpt lat="46.94186" lon="-1.73158">
        <ele>22.6</ele>
        <time>2021-12-24T08:23:59Z</time>
      </trkpt>
      <trkpt lat="46.94183" lon="-1.73163">
        <ele>22.6</ele>
        <time>2021-12-24T08:24:00Z</time>
      </trkpt>
      <trkpt lat="46.94179" lon="-1.73168">
        <ele>22.6</ele>
        <time>2021-12-24T08:24:01Z</time>
      </trkpt>
      <trkpt lat="46.94173" lon="-1.7318">
        <ele>22.6</ele>
        <time>2021-12-24T08:24:03Z</time>
      </trkpt>
      <trkpt lat="46.94168" lon="-1.73191">
        <ele>22.6</ele>
        <time>2021-12-24T08:24:05Z</time>
      </trkpt>
      <trkpt lat="46.94161" lon="-1.73202">
        <ele>22.6</ele>
        <time>2021-12-24T08:24:07Z</time>
      </trkpt>
      <trkpt lat="46.94155" lon="-1.73213">
        <ele>22.6</ele>
        <time>2021-12-24T08:24:09Z</time>
      </trkpt>
      <trkpt lat="46.94149" lon="-1.73225">
        <ele>22.6</ele>
        <time>2021-12-24T08:24:11Z</time>
      </trkpt>
      <trkpt lat="46.94142" lon="-1.73237">
        <ele>22.6</ele>
        <time>2021-12-24T08:24:13Z</time>
      </trkpt>
      <trkpt lat="46.94136" lon="-1.73249">
        <ele>22.6</ele>
        <time>2021-12-24T08:24:15Z</time>
      </trkpt>
      <trkpt lat="46.9413" lon="-1.73261">
        <ele>22.6</ele>
        <time>2021-12-24T08:24:17Z</time>
      </trkpt>
      <trkpt lat="46.94125" lon="-1.73273">
        <ele>22.6</ele>
        <time>2021-12-24T08:24:19Z</time>
      </trkpt>
      <trkpt lat="46.94121" lon="-1.73278">
        <ele>22.8</ele>
        <time>2021-12-24T08:24:20Z</time>
      </trkpt>
      <trkpt lat="46.94118" lon="-1.73284">
        <ele>22.8</ele>
        <time>2021-12-24T08:24:21Z</time>
      </trkpt>
      <trkpt lat="46.94112" lon="-1.73295">
        <ele>22.8</ele>
        <time>2021-12-24T08:24:23Z</time>
      </trkpt>
      <trkpt lat="46.94106" lon="-1.73307">
        <ele>22.8</ele>
        <time>2021-12-24T08:24:25Z</time>
      </trkpt>
      <trkpt lat="46.941" lon="-1.73318">
        <ele>22.8</ele>
        <time>2021-12-24T08:24:27Z</time>
      </trkpt>
      <trkpt lat="46.94094" lon="-1.7333">
        <ele>22.8</ele>
        <time>2021-12-24T08:24:29Z</time>
      </trkpt>
      <trkpt lat="46.94088" lon="-1.73342">
        <ele>22.8</ele>
        <time>2021-12-24T08:24:31Z</time>
      </trkpt>
      <trkpt lat="46.94085" lon="-1.73348">
        <ele>23</ele>
        <time>2021-12-24T08:24:32Z</time>
      </trkpt>
      <trkpt lat="46.94081" lon="-1.73354">
        <ele>23</ele>
        <time>2021-12-24T08:24:33Z</time>
      </trkpt>
      <trkpt lat="46.94075" lon="-1.73366">
        <ele>23</ele>
        <time>2021-12-24T08:24:35Z</time>
      </trkpt>
      <trkpt lat="46.94069" lon="-1.73377">
        <ele>23</ele>
        <time>2021-12-24T08:24:37Z</time>
      </trkpt>
      <trkpt lat="46.94062" lon="-1.73389">
        <ele>23</ele>
        <time>2021-12-24T08:24:39Z</time>
      </trkpt>
      <trkpt lat="46.94055" lon="-1.734">
        <ele>23.2</ele>
        <time>2021-12-24T08:24:41Z</time>
      </trkpt>
      <trkpt lat="46.94051" lon="-1.73405">
        <ele>23.2</ele>
        <time>2021-12-24T08:24:42Z</time>
      </trkpt>
      <trkpt lat="46.94048" lon="-1.7341">
        <ele>23.2</ele>
        <time>2021-12-24T08:24:43Z</time>
      </trkpt>
      <trkpt lat="46.94041" lon="-1.73419">
        <ele>23.4</ele>
        <time>2021-12-24T08:24:45Z</time>
      </trkpt>
      <trkpt lat="46.94033" lon="-1.73428">
        <ele>23.6</ele>
        <time>2021-12-24T08:24:47Z</time>
      </trkpt>
      <trkpt lat="46.94025" lon="-1.73437">
        <ele>23.8</ele>
        <time>2021-12-24T08:24:49Z</time>
      </trkpt>
      <trkpt lat="46.94017" lon="-1.73446">
        <ele>24</ele>
        <time>2021-12-24T08:24:51Z</time>
      </trkpt>
      <trkpt lat="46.94013" lon="-1.7345">
        <ele>24</ele>
        <time>2021-12-24T08:24:52Z</time>
      </trkpt>
      <trkpt lat="46.94008" lon="-1.73453">
        <ele>24</ele>
        <time>2021-12-24T08:24:53Z</time>
      </trkpt>
      <trkpt lat="46.94" lon="-1.73461">
        <ele>24.2</ele>
        <time>2021-12-24T08:24:55Z</time>
      </trkpt>
      <trkpt lat="46.93992" lon="-1.73469">
        <ele>24.4</ele>
        <time>2021-12-24T08:24:57Z</time>
      </trkpt>
      <trkpt lat="46.93983" lon="-1.73477">
        <ele>24.4</ele>
        <time>2021-12-24T08:24:59Z</time>
      </trkpt>
      <trkpt lat="46.93975" lon="-1.73485">
        <ele>24.6</ele>
        <time>2021-12-24T08:25:01Z</time>
      </trkpt>
      <trkpt lat="46.93967" lon="-1.73493">
        <ele>24.6</ele>
        <time>2021-12-24T08:25:03Z</time>
      </trkpt>
      <trkpt lat="46.93959" lon="-1.73502">
        <ele>24.8</ele>
        <time>2021-12-24T08:25:05Z</time>
      </trkpt>
      <trkpt lat="46.9395" lon="-1.7351">
        <ele>25</ele>
        <time>2021-12-24T08:25:07Z</time>
      </trkpt>
      <trkpt lat="46.93946" lon="-1.73514">
        <ele>25</ele>
        <time>2021-12-24T08:25:08Z</time>
      </trkpt>
      <trkpt lat="46.93941" lon="-1.73518">
        <ele>25</ele>
        <time>2021-12-24T08:25:09Z</time>
      </trkpt>
      <trkpt lat="46.93932" lon="-1.73526">
        <ele>25.2</ele>
        <time>2021-12-24T08:25:11Z</time>
      </trkpt>
      <trkpt lat="46.93923" lon="-1.73534">
        <ele>25.4</ele>
        <time>2021-12-24T08:25:13Z</time>
      </trkpt>
      <trkpt lat="46.93915" lon="-1.73541">
        <ele>25.4</ele>
        <time>2021-12-24T08:25:15Z</time>
      </trkpt>
      <trkpt lat="46.93907" lon="-1.73549">
        <ele>25.6</ele>
        <time>2021-12-24T08:25:17Z</time>
      </trkpt>
      <trkpt lat="46.93899" lon="-1.73557">
        <ele>25.8</ele>
        <time>2021-12-24T08:25:19Z</time>
      </trkpt>
      <trkpt lat="46.9389" lon="-1.73556">
        <ele>26</ele>
        <time>2021-12-24T08:25:21Z</time>
      </trkpt>
      <trkpt lat="46.93884" lon="-1.73547">
        <ele>26.2</ele>
        <time>2021-12-24T08:25:23Z</time>
      </trkpt>
      <trkpt lat="46.93877" lon="-1.73536">
        <ele>26.4</ele>
        <time>2021-12-24T08:25:25Z</time>
      </trkpt>
      <trkpt lat="46.9387" lon="-1.73526">
        <ele>26.6</ele>
        <time>2021-12-24T08:25:27Z</time>
      </trkpt>
      <trkpt lat="46.93862" lon="-1.73516">
        <ele>26.8</ele>
        <time>2021-12-24T08:25:29Z</time>
      </trkpt>
      <trkpt lat="46.93854" lon="-1.73506">
        <ele>27</ele>
        <time>2021-12-24T08:25:31Z</time>
      </trkpt>
      <trkpt lat="46.93845" lon="-1.73495">
        <ele>27</ele>
        <time>2021-12-24T08:25:33Z</time>
      </trkpt>
      <trkpt lat="46.93838" lon="-1.73484">
        <ele>27.2</ele>
        <time>2021-12-24T08:25:35Z</time>
      </trkpt>
      <trkpt lat="46.93829" lon="-1.73474">
        <ele>27.2</ele>
        <time>2021-12-24T08:25:37Z</time>
      </trkpt>
      <trkpt lat="46.9382" lon="-1.73463">
        <ele>27.4</ele>
        <time>2021-12-24T08:25:39Z</time>
      </trkpt>
      <trkpt lat="46.93811" lon="-1.73452">
        <ele>27.6</ele>
        <time>2021-12-24T08:25:41Z</time>
      </trkpt>
      <trkpt lat="46.93802" lon="-1.73442">
        <ele>27.6</ele>
        <time>2021-12-24T08:25:43Z</time>
      </trkpt>
      <trkpt lat="46.93792" lon="-1.73432">
        <ele>27.8</ele>
        <time>2021-12-24T08:25:45Z</time>
      </trkpt>
      <trkpt lat="46.93783" lon="-1.73422">
        <ele>28</ele>
        <time>2021-12-24T08:25:47Z</time>
      </trkpt>
      <trkpt lat="46.93774" lon="-1.73412">
        <ele>28.2</ele>
        <time>2021-12-24T08:25:49Z</time>
      </trkpt>
      <trkpt lat="46.93764" lon="-1.73402">
        <ele>28.2</ele>
        <time>2021-12-24T08:25:51Z</time>
      </trkpt>
      <trkpt lat="46.93754" lon="-1.73392">
        <ele>28.4</ele>
        <time>2021-12-24T08:25:53Z</time>
      </trkpt>
      <trkpt lat="46.93744" lon="-1.73383">
        <ele>28.4</ele>
        <time>2021-12-24T08:25:55Z</time>
      </trkpt>
      <trkpt lat="46.93734" lon="-1.73374">
        <ele>28.6</ele>
        <time>2021-12-24T08:25:57Z</time>
      </trkpt>
      <trkpt lat="46.93723" lon="-1.73365">
        <ele>28.8</ele>
        <time>2021-12-24T08:25:59Z</time>
      </trkpt>
      <trkpt lat="46.93713" lon="-1.73357">
        <ele>28.8</ele>
        <time>2021-12-24T08:26:01Z</time>
      </trkpt>
      <trkpt lat="46.93702" lon="-1.7335">
        <ele>28.8</ele>
        <time>2021-12-24T08:26:03Z</time>
      </trkpt>
      <trkpt lat="46.93691" lon="-1.73342">
        <ele>29</ele>
        <time>2021-12-24T08:26:05Z</time>
      </trkpt>
      <trkpt lat="46.9368" lon="-1.73334">
        <ele>29</ele>
        <time>2021-12-24T08:26:07Z</time>
      </trkpt>
      <trkpt lat="46.93669" lon="-1.73327">
        <ele>29.2</ele>
        <time>2021-12-24T08:26:09Z</time>
      </trkpt>
      <trkpt lat="46.93659" lon="-1.7332">
        <ele>29.4</ele>
        <time>2021-12-24T08:26:11Z</time>
      </trkpt>
      <trkpt lat="46.93648" lon="-1.73312">
        <ele>29.4</ele>
        <time>2021-12-24T08:26:13Z</time>
      </trkpt>
      <trkpt lat="46.93637" lon="-1.73304">
        <ele>29.6</ele>
        <time>2021-12-24T08:26:15Z</time>
      </trkpt>
      <trkpt lat="46.93627" lon="-1.73295">
        <ele>29.6</ele>
        <time>2021-12-24T08:26:17Z</time>
      </trkpt>
      <trkpt lat="46.93617" lon="-1.73286">
        <ele>29.8</ele>
        <time>2021-12-24T08:26:19Z</time>
      </trkpt>
      <trkpt lat="46.93606" lon="-1.73277">
        <ele>30</ele>
        <time>2021-12-24T08:26:21Z</time>
      </trkpt>
      <trkpt lat="46.93597" lon="-1.73267">
        <ele>30.2</ele>
        <time>2021-12-24T08:26:23Z</time>
      </trkpt>
      <trkpt lat="46.93587" lon="-1.73257">
        <ele>30.2</ele>
        <time>2021-12-24T08:26:25Z</time>
      </trkpt>
      <trkpt lat="46.93576" lon="-1.73247">
        <ele>30.2</ele>
        <time>2021-12-24T08:26:27Z</time>
      </trkpt>
      <trkpt lat="46.93565" lon="-1.73238">
        <ele>30.2</ele>
        <time>2021-12-24T08:26:29Z</time>
      </trkpt>
      <trkpt lat="46.9356" lon="-1.73233">
        <ele>30.2</ele>
        <time>2021-12-24T08:26:30Z</time>
      </trkpt>
      <trkpt lat="46.93555" lon="-1.73229">
        <ele>30.2</ele>
        <time>2021-12-24T08:26:31Z</time>
      </trkpt>
      <trkpt lat="46.93544" lon="-1.73222">
        <ele>30.2</ele>
        <time>2021-12-24T08:26:33Z</time>
      </trkpt>
      <trkpt lat="46.93533" lon="-1.73214">
        <ele>30.4</ele>
        <time>2021-12-24T08:26:35Z</time>
      </trkpt>
      <trkpt lat="46.93523" lon="-1.73207">
        <ele>30.4</ele>
        <time>2021-12-24T08:26:37Z</time>
      </trkpt>
      <trkpt lat="46.93517" lon="-1.73204">
        <ele>30.4</ele>
        <time>2021-12-24T08:26:38Z</time>
      </trkpt>
      <trkpt lat="46.93512" lon="-1.732">
        <ele>30.6</ele>
        <time>2021-12-24T08:26:39Z</time>
      </trkpt>
      <trkpt lat="46.93501" lon="-1.73194">
        <ele>30.6</ele>
        <time>2021-12-24T08:26:41Z</time>
      </trkpt>
      <trkpt lat="46.93491" lon="-1.73187">
        <ele>30.8</ele>
        <time>2021-12-24T08:26:43Z</time>
      </trkpt>
      <trkpt lat="46.93481" lon="-1.73181">
        <ele>30.8</ele>
        <time>2021-12-24T08:26:45Z</time>
      </trkpt>
      <trkpt lat="46.9347" lon="-1.73174">
        <ele>31</ele>
        <time>2021-12-24T08:26:47Z</time>
      </trkpt>
      <trkpt lat="46.9346" lon="-1.73167">
        <ele>31</ele>
        <time>2021-12-24T08:26:49Z</time>
      </trkpt>
      <trkpt lat="46.9345" lon="-1.7316">
        <ele>31.2</ele>
        <time>2021-12-24T08:26:51Z</time>
      </trkpt>
      <trkpt lat="46.93445" lon="-1.73157">
        <ele>31.2</ele>
        <time>2021-12-24T08:26:52Z</time>
      </trkpt>
      <trkpt lat="46.93441" lon="-1.73154">
        <ele>31.2</ele>
        <time>2021-12-24T08:26:53Z</time>
      </trkpt>
      <trkpt lat="46.93432" lon="-1.73148">
        <ele>31.4</ele>
        <time>2021-12-24T08:26:55Z</time>
      </trkpt>
      <trkpt lat="46.93425" lon="-1.73143">
        <ele>31.4</ele>
        <time>2021-12-24T08:26:57Z</time>
      </trkpt>
      <trkpt lat="46.93417" lon="-1.73138">
        <ele>31.4</ele>
        <time>2021-12-24T08:26:59Z</time>
      </trkpt>
      <trkpt lat="46.93409" lon="-1.73132">
        <ele>31.4</ele>
        <time>2021-12-24T08:27:01Z</time>
      </trkpt>
      <trkpt lat="46.93404" lon="-1.73129">
        <ele>31.4</ele>
        <time>2021-12-24T08:27:02Z</time>
      </trkpt>
      <trkpt lat="46.934" lon="-1.73127">
        <ele>31.4</ele>
        <time>2021-12-24T08:27:03Z</time>
      </trkpt>
      <trkpt lat="46.93391" lon="-1.7312">
        <ele>31.4</ele>
        <time>2021-12-24T08:27:05Z</time>
      </trkpt>
      <trkpt lat="46.93381" lon="-1.73114">
        <ele>31.6</ele>
        <time>2021-12-24T08:27:07Z</time>
      </trkpt>
      <trkpt lat="46.93371" lon="-1.73107">
        <ele>31.8</ele>
        <time>2021-12-24T08:27:09Z</time>
      </trkpt>
      <trkpt lat="46.93361" lon="-1.73098">
        <ele>31.8</ele>
        <time>2021-12-24T08:27:11Z</time>
      </trkpt>
      <trkpt lat="46.93351" lon="-1.73089">
        <ele>31.8</ele>
        <time>2021-12-24T08:27:13Z</time>
      </trkpt>
      <trkpt lat="46.93341" lon="-1.7308">
        <ele>32</ele>
        <time>2021-12-24T08:27:15Z</time>
      </trkpt>
      <trkpt lat="46.93331" lon="-1.73071">
        <ele>32</ele>
        <time>2021-12-24T08:27:17Z</time>
      </trkpt>
      <trkpt lat="46.93326" lon="-1.73066">
        <ele>32</ele>
        <time>2021-12-24T08:27:18Z</time>
      </trkpt>
      <trkpt lat="46.9332" lon="-1.73061">
        <ele>32.2</ele>
        <time>2021-12-24T08:27:19Z</time>
      </trkpt>
      <trkpt lat="46.9331" lon="-1.7305">
        <ele>32.2</ele>
        <time>2021-12-24T08:27:21Z</time>
      </trkpt>
      <trkpt lat="46.93298" lon="-1.73041">
        <ele>32.2</ele>
        <time>2021-12-24T08:27:23Z</time>
      </trkpt>
      <trkpt lat="46.93286" lon="-1.73032">
        <ele>32.2</ele>
        <time>2021-12-24T08:27:25Z</time>
      </trkpt>
      <trkpt lat="46.9328" lon="-1.73028">
        <ele>32.4</ele>
        <time>2021-12-24T08:27:26Z</time>
      </trkpt>
      <trkpt lat="46.93274" lon="-1.73024">
        <ele>32.2</ele>
        <time>2021-12-24T08:27:27Z</time>
      </trkpt>
      <trkpt lat="46.93261" lon="-1.73017">
        <ele>32.4</ele>
        <time>2021-12-24T08:27:29Z</time>
      </trkpt>
      <trkpt lat="46.93248" lon="-1.73009">
        <ele>32.4</ele>
        <time>2021-12-24T08:27:31Z</time>
      </trkpt>
      <trkpt lat="46.93242" lon="-1.73005">
        <ele>32.4</ele>
        <time>2021-12-24T08:27:32Z</time>
      </trkpt>
      <trkpt lat="46.93236" lon="-1.73002">
        <ele>32.4</ele>
        <time>2021-12-24T08:27:33Z</time>
      </trkpt>
      <trkpt lat="46.93223" lon="-1.72995">
        <ele>32.4</ele>
        <time>2021-12-24T08:27:35Z</time>
      </trkpt>
      <trkpt lat="46.93211" lon="-1.72987">
        <ele>32.4</ele>
        <time>2021-12-24T08:27:37Z</time>
      </trkpt>
      <trkpt lat="46.93198" lon="-1.72981">
        <ele>32.4</ele>
        <time>2021-12-24T08:27:39Z</time>
      </trkpt>
      <trkpt lat="46.93185" lon="-1.72977">
        <ele>32.4</ele>
        <time>2021-12-24T08:27:41Z</time>
      </trkpt>
      <trkpt lat="46.93171" lon="-1.72973">
        <ele>32.4</ele>
        <time>2021-12-24T08:27:43Z</time>
      </trkpt>
      <trkpt lat="46.93158" lon="-1.7297">
        <ele>32.2</ele>
        <time>2021-12-24T08:27:45Z</time>
      </trkpt>
      <trkpt lat="46.93144" lon="-1.72968">
        <ele>32.4</ele>
        <time>2021-12-24T08:27:47Z</time>
      </trkpt>
      <trkpt lat="46.9313" lon="-1.72966">
        <ele>32.2</ele>
        <time>2021-12-24T08:27:49Z</time>
      </trkpt>
      <trkpt lat="46.93117" lon="-1.72962">
        <ele>32.2</ele>
        <time>2021-12-24T08:27:51Z</time>
      </trkpt>
      <trkpt lat="46.9311" lon="-1.7296">
        <ele>32.2</ele>
        <time>2021-12-24T08:27:52Z</time>
      </trkpt>
      <trkpt lat="46.93103" lon="-1.72957">
        <ele>32</ele>
        <time>2021-12-24T08:27:53Z</time>
      </trkpt>
      <trkpt lat="46.9309" lon="-1.72948">
        <ele>32</ele>
        <time>2021-12-24T08:27:55Z</time>
      </trkpt>
      <trkpt lat="46.93084" lon="-1.72943">
        <ele>32</ele>
        <time>2021-12-24T08:27:56Z</time>
      </trkpt>
      <trkpt lat="46.93079" lon="-1.72937">
        <ele>31.8</ele>
        <time>2021-12-24T08:27:57Z</time>
      </trkpt>
      <trkpt lat="46.93067" lon="-1.72925">
        <ele>31.8</ele>
        <time>2021-12-24T08:27:59Z</time>
      </trkpt>
      <trkpt lat="46.93054" lon="-1.72915">
        <ele>31.6</ele>
        <time>2021-12-24T08:28:01Z</time>
      </trkpt>
      <trkpt lat="46.93048" lon="-1.72912">
        <ele>31.6</ele>
        <time>2021-12-24T08:28:02Z</time>
      </trkpt>
      <trkpt lat="46.93042" lon="-1.72908">
        <ele>31.6</ele>
        <time>2021-12-24T08:28:03Z</time>
      </trkpt>
      <trkpt lat="46.93029" lon="-1.72903">
        <ele>31.6</ele>
        <time>2021-12-24T08:28:05Z</time>
      </trkpt>
      <trkpt lat="46.93017" lon="-1.72898">
        <ele>31.6</ele>
        <time>2021-12-24T08:28:07Z</time>
      </trkpt>
      <trkpt lat="46.93004" lon="-1.72894">
        <ele>31.6</ele>
        <time>2021-12-24T08:28:09Z</time>
      </trkpt>
      <trkpt lat="46.92993" lon="-1.7289">
        <ele>31.8</ele>
        <time>2021-12-24T08:28:11Z</time>
      </trkpt>
      <trkpt lat="46.92981" lon="-1.72884">
        <ele>31.8</ele>
        <time>2021-12-24T08:28:13Z</time>
      </trkpt>
      <trkpt lat="46.92969" lon="-1.72879">
        <ele>31.8</ele>
        <time>2021-12-24T08:28:15Z</time>
      </trkpt>
      <trkpt lat="46.92963" lon="-1.72876">
        <ele>31.8</ele>
        <time>2021-12-24T08:28:16Z</time>
      </trkpt>
      <trkpt lat="46.92958" lon="-1.72874">
        <ele>32</ele>
        <time>2021-12-24T08:28:17Z</time>
      </trkpt>
      <trkpt lat="46.92946" lon="-1.72869">
        <ele>32.2</ele>
        <time>2021-12-24T08:28:19Z</time>
      </trkpt>
      <trkpt lat="46.92935" lon="-1.72863">
        <ele>32.2</ele>
        <time>2021-12-24T08:28:21Z</time>
      </trkpt>
      <trkpt lat="46.92925" lon="-1.72857">
        <ele>32.4</ele>
        <time>2021-12-24T08:28:23Z</time>
      </trkpt>
      <trkpt lat="46.92914" lon="-1.72851">
        <ele>32</ele>
        <time>2021-12-24T08:28:25Z</time>
      </trkpt>
      <trkpt lat="46.92904" lon="-1.72846">
        <ele>32</ele>
        <time>2021-12-24T08:28:27Z</time>
      </trkpt>
      <trkpt lat="46.92893" lon="-1.7284">
        <ele>32.2</ele>
        <time>2021-12-24T08:28:29Z</time>
      </trkpt>
      <trkpt lat="46.92883" lon="-1.72834">
        <ele>32.2</ele>
        <time>2021-12-24T08:28:31Z</time>
      </trkpt>
      <trkpt lat="46.92872" lon="-1.72828">
        <ele>32.2</ele>
        <time>2021-12-24T08:28:33Z</time>
      </trkpt>
      <trkpt lat="46.92862" lon="-1.72822">
        <ele>32.2</ele>
        <time>2021-12-24T08:28:35Z</time>
      </trkpt>
      <trkpt lat="46.92853" lon="-1.72817">
        <ele>32.4</ele>
        <time>2021-12-24T08:28:37Z</time>
      </trkpt>
      <trkpt lat="46.92843" lon="-1.72812">
        <ele>32.4</ele>
        <time>2021-12-24T08:28:39Z</time>
      </trkpt>
      <trkpt lat="46.92835" lon="-1.72808">
        <ele>32.4</ele>
        <time>2021-12-24T08:28:41Z</time>
      </trkpt>
      <trkpt lat="46.92828" lon="-1.72806">
        <ele>32.4</ele>
        <time>2021-12-24T08:28:43Z</time>
      </trkpt>
      <trkpt lat="46.92825" lon="-1.72805">
        <ele>32.4</ele>
        <time>2021-12-24T08:28:44Z</time>
      </trkpt>
      <trkpt lat="46.92823" lon="-1.72803">
        <ele>32.4</ele>
        <time>2021-12-24T08:28:45Z</time>
      </trkpt>
      <trkpt lat="46.92818" lon="-1.728">
        <ele>32.4</ele>
        <time>2021-12-24T08:28:47Z</time>
      </trkpt>
      <trkpt lat="46.9281" lon="-1.72796">
        <ele>32.4</ele>
        <time>2021-12-24T08:28:49Z</time>
      </trkpt>
      <trkpt lat="46.92806" lon="-1.72794">
        <ele>32.4</ele>
        <time>2021-12-24T08:28:50Z</time>
      </trkpt>
      <trkpt lat="46.92802" lon="-1.72792">
        <ele>32.4</ele>
        <time>2021-12-24T08:28:51Z</time>
      </trkpt>
      <trkpt lat="46.92793" lon="-1.7279">
        <ele>32.4</ele>
        <time>2021-12-24T08:28:53Z</time>
      </trkpt>
      <trkpt lat="46.92788" lon="-1.72788">
        <ele>32.6</ele>
        <time>2021-12-24T08:28:54Z</time>
      </trkpt>
      <trkpt lat="46.92784" lon="-1.72787">
        <ele>32.6</ele>
        <time>2021-12-24T08:28:55Z</time>
      </trkpt>
      <trkpt lat="46.92774" lon="-1.72785">
        <ele>32.6</ele>
        <time>2021-12-24T08:28:57Z</time>
      </trkpt>
      <trkpt lat="46.92764" lon="-1.72783">
        <ele>32.6</ele>
        <time>2021-12-24T08:28:59Z</time>
      </trkpt>
      <trkpt lat="46.92754" lon="-1.72782">
        <ele>32.8</ele>
        <time>2021-12-24T08:29:01Z</time>
      </trkpt>
      <trkpt lat="46.92744" lon="-1.72781">
        <ele>33</ele>
        <time>2021-12-24T08:29:03Z</time>
      </trkpt>
      <trkpt lat="46.92733" lon="-1.72781">
        <ele>33</ele>
        <time>2021-12-24T08:29:05Z</time>
      </trkpt>
      <trkpt lat="46.92723" lon="-1.72781">
        <ele>33.2</ele>
        <time>2021-12-24T08:29:07Z</time>
      </trkpt>
      <trkpt lat="46.92713" lon="-1.72781">
        <ele>33.4</ele>
        <time>2021-12-24T08:29:09Z</time>
      </trkpt>
      <trkpt lat="46.92708" lon="-1.72781">
        <ele>33.4</ele>
        <time>2021-12-24T08:29:10Z</time>
      </trkpt>
      <trkpt lat="46.92703" lon="-1.72781">
        <ele>33.4</ele>
        <time>2021-12-24T08:29:11Z</time>
      </trkpt>
      <trkpt lat="46.92693" lon="-1.72781">
        <ele>33.6</ele>
        <time>2021-12-24T08:29:13Z</time>
      </trkpt>
      <trkpt lat="46.92683" lon="-1.7278">
        <ele>33.8</ele>
        <time>2021-12-24T08:29:15Z</time>
      </trkpt>
      <trkpt lat="46.92673" lon="-1.7278">
        <ele>34</ele>
        <time>2021-12-24T08:29:17Z</time>
      </trkpt>
      <trkpt lat="46.92664" lon="-1.72781">
        <ele>34</ele>
        <time>2021-12-24T08:29:19Z</time>
      </trkpt>
      <trkpt lat="46.92654" lon="-1.72781">
        <ele>34.4</ele>
        <time>2021-12-24T08:29:21Z</time>
      </trkpt>
      <trkpt lat="46.92645" lon="-1.7278">
        <ele>34.6</ele>
        <time>2021-12-24T08:29:23Z</time>
      </trkpt>
      <trkpt lat="46.92641" lon="-1.72779">
        <ele>34.8</ele>
        <time>2021-12-24T08:29:24Z</time>
      </trkpt>
      <trkpt lat="46.92637" lon="-1.72779">
        <ele>34.8</ele>
        <time>2021-12-24T08:29:25Z</time>
      </trkpt>
      <trkpt lat="46.92629" lon="-1.72778">
        <ele>35.2</ele>
        <time>2021-12-24T08:29:27Z</time>
      </trkpt>
      <trkpt lat="46.92621" lon="-1.72776">
        <ele>35.4</ele>
        <time>2021-12-24T08:29:29Z</time>
      </trkpt>
      <trkpt lat="46.92613" lon="-1.72774">
        <ele>35.6</ele>
        <time>2021-12-24T08:29:31Z</time>
      </trkpt>
      <trkpt lat="46.92609" lon="-1.72773">
        <ele>35.8</ele>
        <time>2021-12-24T08:29:32Z</time>
      </trkpt>
      <trkpt lat="46.92606" lon="-1.72771">
        <ele>35.8</ele>
        <time>2021-12-24T08:29:33Z</time>
      </trkpt>
      <trkpt lat="46.92598" lon="-1.72769">
        <ele>36</ele>
        <time>2021-12-24T08:29:35Z</time>
      </trkpt>
      <trkpt lat="46.92591" lon="-1.72765">
        <ele>36.2</ele>
        <time>2021-12-24T08:29:37Z</time>
      </trkpt>
      <trkpt lat="46.92583" lon="-1.72762">
        <ele>36.4</ele>
        <time>2021-12-24T08:29:39Z</time>
      </trkpt>
      <trkpt lat="46.92576" lon="-1.72761">
        <ele>36.6</ele>
        <time>2021-12-24T08:29:41Z</time>
      </trkpt>
      <trkpt lat="46.92568" lon="-1.72759">
        <ele>37</ele>
        <time>2021-12-24T08:29:43Z</time>
      </trkpt>
      <trkpt lat="46.92559" lon="-1.72755">
        <ele>37.4</ele>
        <time>2021-12-24T08:29:45Z</time>
      </trkpt>
      <trkpt lat="46.9255" lon="-1.72751">
        <ele>37.8</ele>
        <time>2021-12-24T08:29:47Z</time>
      </trkpt>
      <trkpt lat="46.92546" lon="-1.7275">
        <ele>38</ele>
        <time>2021-12-24T08:29:48Z</time>
      </trkpt>
      <trkpt lat="46.92541" lon="-1.72747">
        <ele>38</ele>
        <time>2021-12-24T08:29:49Z</time>
      </trkpt>
      <trkpt lat="46.92531" lon="-1.72741">
        <ele>38.4</ele>
        <time>2021-12-24T08:29:51Z</time>
      </trkpt>
      <trkpt lat="46.92521" lon="-1.72733">
        <ele>38.8</ele>
        <time>2021-12-24T08:29:53Z</time>
      </trkpt>
      <trkpt lat="46.92516" lon="-1.72729">
        <ele>39</ele>
        <time>2021-12-24T08:29:54Z</time>
      </trkpt>
      <trkpt lat="46.92511" lon="-1.72724">
        <ele>39.2</ele>
        <time>2021-12-24T08:29:55Z</time>
      </trkpt>
      <trkpt lat="46.92502" lon="-1.72714">
        <ele>39.4</ele>
        <time>2021-12-24T08:29:57Z</time>
      </trkpt>
      <trkpt lat="46.92493" lon="-1.72702">
        <ele>39.8</ele>
        <time>2021-12-24T08:29:59Z</time>
      </trkpt>
      <trkpt lat="46.92488" lon="-1.72696">
        <ele>39.8</ele>
        <time>2021-12-24T08:30:00Z</time>
      </trkpt>
      <trkpt lat="46.92484" lon="-1.7269">
        <ele>40</ele>
        <time>2021-12-24T08:30:01Z</time>
      </trkpt>
      <trkpt lat="46.92475" lon="-1.72679">
        <ele>40</ele>
        <time>2021-12-24T08:30:03Z</time>
      </trkpt>
      <trkpt lat="46.92465" lon="-1.72667">
        <ele>40.2</ele>
        <time>2021-12-24T08:30:05Z</time>
      </trkpt>
      <trkpt lat="46.92456" lon="-1.72654">
        <ele>40.2</ele>
        <time>2021-12-24T08:30:07Z</time>
      </trkpt>
      <trkpt lat="46.92447" lon="-1.72642">
        <ele>40.2</ele>
        <time>2021-12-24T08:30:09Z</time>
      </trkpt>
      <trkpt lat="46.92438" lon="-1.72631">
        <ele>40.4</ele>
        <time>2021-12-24T08:30:11Z</time>
      </trkpt>
      <trkpt lat="46.92433" lon="-1.72624">
        <ele>40.4</ele>
        <time>2021-12-24T08:30:12Z</time>
      </trkpt>
      <trkpt lat="46.92428" lon="-1.72619">
        <ele>40.6</ele>
        <time>2021-12-24T08:30:13Z</time>
      </trkpt>
      <trkpt lat="46.92419" lon="-1.7261">
        <ele>40.8</ele>
        <time>2021-12-24T08:30:15Z</time>
      </trkpt>
      <trkpt lat="46.92408" lon="-1.72604">
        <ele>40.8</ele>
        <time>2021-12-24T08:30:17Z</time>
      </trkpt>
      <trkpt lat="46.92397" lon="-1.72598">
        <ele>40.8</ele>
        <time>2021-12-24T08:30:19Z</time>
      </trkpt>
      <trkpt lat="46.92389" lon="-1.7259">
        <ele>40.8</ele>
        <time>2021-12-24T08:30:21Z</time>
      </trkpt>
      <trkpt lat="46.92381" lon="-1.72579">
        <ele>41</ele>
        <time>2021-12-24T08:30:23Z</time>
      </trkpt>
      <trkpt lat="46.92372" lon="-1.72568">
        <ele>41</ele>
        <time>2021-12-24T08:30:25Z</time>
      </trkpt>
      <trkpt lat="46.92363" lon="-1.72556">
        <ele>41.2</ele>
        <time>2021-12-24T08:30:27Z</time>
      </trkpt>
      <trkpt lat="46.92358" lon="-1.7255">
        <ele>41.2</ele>
        <time>2021-12-24T08:30:28Z</time>
      </trkpt>
      <trkpt lat="46.92354" lon="-1.72545">
        <ele>41.2</ele>
        <time>2021-12-24T08:30:29Z</time>
      </trkpt>
      <trkpt lat="46.92345" lon="-1.72533">
        <ele>41.4</ele>
        <time>2021-12-24T08:30:31Z</time>
      </trkpt>
      <trkpt lat="46.92336" lon="-1.72522">
        <ele>41.2</ele>
        <time>2021-12-24T08:30:33Z</time>
      </trkpt>
      <trkpt lat="46.92328" lon="-1.7251">
        <ele>41.4</ele>
        <time>2021-12-24T08:30:35Z</time>
      </trkpt>
      <trkpt lat="46.92323" lon="-1.72503">
        <ele>41.2</ele>
        <time>2021-12-24T08:30:36Z</time>
      </trkpt>
      <trkpt lat="46.92318" lon="-1.72497">
        <ele>41.2</ele>
        <time>2021-12-24T08:30:37Z</time>
      </trkpt>
      <trkpt lat="46.9231" lon="-1.72486">
        <ele>41.2</ele>
        <time>2021-12-24T08:30:39Z</time>
      </trkpt>
      <trkpt lat="46.92301" lon="-1.72474">
        <ele>41.2</ele>
        <time>2021-12-24T08:30:41Z</time>
      </trkpt>
      <trkpt lat="46.92291" lon="-1.72461">
        <ele>41.2</ele>
        <time>2021-12-24T08:30:43Z</time>
      </trkpt>
      <trkpt lat="46.92282" lon="-1.72448">
        <ele>41.4</ele>
        <time>2021-12-24T08:30:45Z</time>
      </trkpt>
      <trkpt lat="46.92273" lon="-1.72437">
        <ele>40.8</ele>
        <time>2021-12-24T08:30:47Z</time>
      </trkpt>
      <trkpt lat="46.92264" lon="-1.72424">
        <ele>40.8</ele>
        <time>2021-12-24T08:30:49Z</time>
      </trkpt>
      <trkpt lat="46.92255" lon="-1.72411">
        <ele>40.8</ele>
        <time>2021-12-24T08:30:51Z</time>
      </trkpt>
      <trkpt lat="46.92247" lon="-1.72397">
        <ele>40.6</ele>
        <time>2021-12-24T08:30:53Z</time>
      </trkpt>
      <trkpt lat="46.92238" lon="-1.72384">
        <ele>40.4</ele>
        <time>2021-12-24T08:30:55Z</time>
      </trkpt>
      <trkpt lat="46.92229" lon="-1.72371">
        <ele>40.4</ele>
        <time>2021-12-24T08:30:57Z</time>
      </trkpt>
      <trkpt lat="46.92225" lon="-1.72365">
        <ele>40.4</ele>
        <time>2021-12-24T08:30:58Z</time>
      </trkpt>
      <trkpt lat="46.92221" lon="-1.72359">
        <ele>40.2</ele>
        <time>2021-12-24T08:30:59Z</time>
      </trkpt>
      <trkpt lat="46.92212" lon="-1.72347">
        <ele>40.2</ele>
        <time>2021-12-24T08:31:01Z</time>
      </trkpt>
      <trkpt lat="46.92204" lon="-1.72335">
        <ele>40.2</ele>
        <time>2021-12-24T08:31:03Z</time>
      </trkpt>
      <trkpt lat="46.92196" lon="-1.72323">
        <ele>40</ele>
        <time>2021-12-24T08:31:05Z</time>
      </trkpt>
      <trkpt lat="46.92189" lon="-1.72311">
        <ele>40</ele>
        <time>2021-12-24T08:31:07Z</time>
      </trkpt>
      <trkpt lat="46.92181" lon="-1.72299">
        <ele>39.8</ele>
        <time>2021-12-24T08:31:09Z</time>
      </trkpt>
      <trkpt lat="46.92173" lon="-1.72287">
        <ele>39.8</ele>
        <time>2021-12-24T08:31:11Z</time>
      </trkpt>
      <trkpt lat="46.9217" lon="-1.72282">
        <ele>39.6</ele>
        <time>2021-12-24T08:31:12Z</time>
      </trkpt>
      <trkpt lat="46.92166" lon="-1.72276">
        <ele>39.6</ele>
        <time>2021-12-24T08:31:13Z</time>
      </trkpt>
      <trkpt lat="46.92159" lon="-1.72265">
        <ele>39.4</ele>
        <time>2021-12-24T08:31:15Z</time>
      </trkpt>
      <trkpt lat="46.92151" lon="-1.72253">
        <ele>39.2</ele>
        <time>2021-12-24T08:31:17Z</time>
      </trkpt>
      <trkpt lat="46.92143" lon="-1.72243">
        <ele>39.2</ele>
        <time>2021-12-24T08:31:19Z</time>
      </trkpt>
      <trkpt lat="46.92135" lon="-1.72233">
        <ele>39.2</ele>
        <time>2021-12-24T08:31:21Z</time>
      </trkpt>
      <trkpt lat="46.92127" lon="-1.72222">
        <ele>39</ele>
        <time>2021-12-24T08:31:23Z</time>
      </trkpt>
      <trkpt lat="46.92119" lon="-1.72212">
        <ele>39</ele>
        <time>2021-12-24T08:31:25Z</time>
      </trkpt>
      <trkpt lat="46.92111" lon="-1.72202">
        <ele>38.8</ele>
        <time>2021-12-24T08:31:27Z</time>
      </trkpt>
      <trkpt lat="46.92102" lon="-1.72194">
        <ele>38.8</ele>
        <time>2021-12-24T08:31:29Z</time>
      </trkpt>
      <trkpt lat="46.92094" lon="-1.72187">
        <ele>38.6</ele>
        <time>2021-12-24T08:31:31Z</time>
      </trkpt>
      <trkpt lat="46.92089" lon="-1.72183">
        <ele>38.6</ele>
        <time>2021-12-24T08:31:32Z</time>
      </trkpt>
      <trkpt lat="46.92085" lon="-1.72181">
        <ele>38.6</ele>
        <time>2021-12-24T08:31:33Z</time>
      </trkpt>
      <trkpt lat="46.92076" lon="-1.72175">
        <ele>38.4</ele>
        <time>2021-12-24T08:31:35Z</time>
      </trkpt>
      <trkpt lat="46.92067" lon="-1.7217">
        <ele>38.4</ele>
        <time>2021-12-24T08:31:37Z</time>
      </trkpt>
      <trkpt lat="46.92058" lon="-1.72166">
        <ele>38.4</ele>
        <time>2021-12-24T08:31:39Z</time>
      </trkpt>
      <trkpt lat="46.92048" lon="-1.72162">
        <ele>38.4</ele>
        <time>2021-12-24T08:31:41Z</time>
      </trkpt>
      <trkpt lat="46.92043" lon="-1.72161">
        <ele>38.4</ele>
        <time>2021-12-24T08:31:42Z</time>
      </trkpt>
      <trkpt lat="46.92038" lon="-1.7216">
        <ele>38.2</ele>
        <time>2021-12-24T08:31:43Z</time>
      </trkpt>
      <trkpt lat="46.92029" lon="-1.72157">
        <ele>38.2</ele>
        <time>2021-12-24T08:31:45Z</time>
      </trkpt>
      <trkpt lat="46.92019" lon="-1.72156">
        <ele>38</ele>
        <time>2021-12-24T08:31:47Z</time>
      </trkpt>
      <trkpt lat="46.92014" lon="-1.72156">
        <ele>38</ele>
        <time>2021-12-24T08:31:48Z</time>
      </trkpt>
      <trkpt lat="46.92009" lon="-1.72156">
        <ele>38</ele>
        <time>2021-12-24T08:31:49Z</time>
      </trkpt>
      <trkpt lat="46.91999" lon="-1.72156">
        <ele>38</ele>
        <time>2021-12-24T08:31:51Z</time>
      </trkpt>
      <trkpt lat="46.91989" lon="-1.72157">
        <ele>38</ele>
        <time>2021-12-24T08:31:53Z</time>
      </trkpt>
      <trkpt lat="46.91979" lon="-1.72157">
        <ele>38</ele>
        <time>2021-12-24T08:31:55Z</time>
      </trkpt>
      <trkpt lat="46.91975" lon="-1.72158">
        <ele>38.2</ele>
        <time>2021-12-24T08:31:56Z</time>
      </trkpt>
      <trkpt lat="46.9197" lon="-1.72158">
        <ele>38.2</ele>
        <time>2021-12-24T08:31:57Z</time>
      </trkpt>
      <trkpt lat="46.91959" lon="-1.7216">
        <ele>38</ele>
        <time>2021-12-24T08:31:59Z</time>
      </trkpt>
      <trkpt lat="46.9195" lon="-1.72161">
        <ele>38.2</ele>
        <time>2021-12-24T08:32:01Z</time>
      </trkpt>
      <trkpt lat="46.9194" lon="-1.72163">
        <ele>38.2</ele>
        <time>2021-12-24T08:32:03Z</time>
      </trkpt>
      <trkpt lat="46.9193" lon="-1.72165">
        <ele>37.8</ele>
        <time>2021-12-24T08:32:05Z</time>
      </trkpt>
      <trkpt lat="46.9192" lon="-1.72167">
        <ele>38.2</ele>
        <time>2021-12-24T08:32:07Z</time>
      </trkpt>
      <trkpt lat="46.9191" lon="-1.72169">
        <ele>38.4</ele>
        <time>2021-12-24T08:32:09Z</time>
      </trkpt>
      <trkpt lat="46.919" lon="-1.7217">
        <ele>38.4</ele>
        <time>2021-12-24T08:32:11Z</time>
      </trkpt>
      <trkpt lat="46.9189" lon="-1.72172">
        <ele>38.2</ele>
        <time>2021-12-24T08:32:13Z</time>
      </trkpt>
      <trkpt lat="46.91879" lon="-1.72173">
        <ele>38.2</ele>
        <time>2021-12-24T08:32:15Z</time>
      </trkpt>
      <trkpt lat="46.9187" lon="-1.72175">
        <ele>38.2</ele>
        <time>2021-12-24T08:32:17Z</time>
      </trkpt>
      <trkpt lat="46.9186" lon="-1.72177">
        <ele>38.4</ele>
        <time>2021-12-24T08:32:19Z</time>
      </trkpt>
      <trkpt lat="46.9185" lon="-1.72179">
        <ele>38.2</ele>
        <time>2021-12-24T08:32:21Z</time>
      </trkpt>
      <trkpt lat="46.91841" lon="-1.72182">
        <ele>38.4</ele>
        <time>2021-12-24T08:32:23Z</time>
      </trkpt>
      <trkpt lat="46.91837" lon="-1.72184">
        <ele>38.4</ele>
        <time>2021-12-24T08:32:24Z</time>
      </trkpt>
      <trkpt lat="46.91833" lon="-1.72187">
        <ele>38.4</ele>
        <time>2021-12-24T08:32:25Z</time>
      </trkpt>
      <trkpt lat="46.91826" lon="-1.72194">
        <ele>38.4</ele>
        <time>2021-12-24T08:32:27Z</time>
      </trkpt>
      <trkpt lat="46.9182" lon="-1.72202">
        <ele>38.4</ele>
        <time>2021-12-24T08:32:29Z</time>
      </trkpt>
      <trkpt lat="46.91815" lon="-1.72211">
        <ele>38.4</ele>
        <time>2021-12-24T08:32:31Z</time>
      </trkpt>
      <trkpt lat="46.91812" lon="-1.72215">
        <ele>38.4</ele>
        <time>2021-12-24T08:32:33Z</time>
      </trkpt>
      <trkpt lat="46.91813" lon="-1.7221">
        <ele>38.2</ele>
        <time>2021-12-24T08:32:35Z</time>
      </trkpt>
      <trkpt lat="46.91815" lon="-1.72206">
        <ele>38.4</ele>
        <time>2021-12-24T08:32:36Z</time>
      </trkpt>
      <trkpt lat="46.91817" lon="-1.72202">
        <ele>38.2</ele>
        <time>2021-12-24T08:32:37Z</time>
      </trkpt>
      <trkpt lat="46.91819" lon="-1.72197">
        <ele>38.2</ele>
        <time>2021-12-24T08:32:38Z</time>
      </trkpt>
      <trkpt lat="46.91819" lon="-1.72191">
        <ele>38.2</ele>
        <time>2021-12-24T08:32:39Z</time>
      </trkpt>
      <trkpt lat="46.91812" lon="-1.72183">
        <ele>38.2</ele>
        <time>2021-12-24T08:32:41Z</time>
      </trkpt>
      <trkpt lat="46.91802" lon="-1.72183">
        <ele>38.2</ele>
        <time>2021-12-24T08:32:43Z</time>
      </trkpt>
      <trkpt lat="46.91791" lon="-1.72184">
        <ele>38.2</ele>
        <time>2021-12-24T08:32:45Z</time>
      </trkpt>
      <trkpt lat="46.91786" lon="-1.72184">
        <ele>38</ele>
        <time>2021-12-24T08:32:46Z</time>
      </trkpt>
      <trkpt lat="46.91781" lon="-1.72184">
        <ele>38</ele>
        <time>2021-12-24T08:32:47Z</time>
      </trkpt>
      <trkpt lat="46.9177" lon="-1.72183">
        <ele>38</ele>
        <time>2021-12-24T08:32:49Z</time>
      </trkpt>
      <trkpt lat="46.91758" lon="-1.72183">
        <ele>38.2</ele>
        <time>2021-12-24T08:32:51Z</time>
      </trkpt>
      <trkpt lat="46.91747" lon="-1.72183">
        <ele>38.2</ele>
        <time>2021-12-24T08:32:53Z</time>
      </trkpt>
      <trkpt lat="46.91741" lon="-1.72183">
        <ele>38</ele>
        <time>2021-12-24T08:32:54Z</time>
      </trkpt>
      <trkpt lat="46.91736" lon="-1.72182">
        <ele>38</ele>
        <time>2021-12-24T08:32:55Z</time>
      </trkpt>
      <trkpt lat="46.91724" lon="-1.72182">
        <ele>38</ele>
        <time>2021-12-24T08:32:57Z</time>
      </trkpt>
      <trkpt lat="46.91712" lon="-1.72183">
        <ele>38</ele>
        <time>2021-12-24T08:32:59Z</time>
      </trkpt>
      <trkpt lat="46.917" lon="-1.72186">
        <ele>38</ele>
        <time>2021-12-24T08:33:01Z</time>
      </trkpt>
      <trkpt lat="46.91695" lon="-1.72188">
        <ele>38</ele>
        <time>2021-12-24T08:33:02Z</time>
      </trkpt>
      <trkpt lat="46.91689" lon="-1.72191">
        <ele>38</ele>
        <time>2021-12-24T08:33:03Z</time>
      </trkpt>
      <trkpt lat="46.91678" lon="-1.72196">
        <ele>38</ele>
        <time>2021-12-24T08:33:05Z</time>
      </trkpt>
      <trkpt lat="46.91667" lon="-1.72202">
        <ele>38.2</ele>
        <time>2021-12-24T08:33:07Z</time>
      </trkpt>
      <trkpt lat="46.91662" lon="-1.72205">
        <ele>38.2</ele>
        <time>2021-12-24T08:33:08Z</time>
      </trkpt>
      <trkpt lat="46.91656" lon="-1.72208">
        <ele>38.2</ele>
        <time>2021-12-24T08:33:09Z</time>
      </trkpt>
      <trkpt lat="46.91646" lon="-1.72215">
        <ele>38.2</ele>
        <time>2021-12-24T08:33:11Z</time>
      </trkpt>
      <trkpt lat="46.91635" lon="-1.72221">
        <ele>38.2</ele>
        <time>2021-12-24T08:33:13Z</time>
      </trkpt>
      <trkpt lat="46.91624" lon="-1.72228">
        <ele>38.2</ele>
        <time>2021-12-24T08:33:15Z</time>
      </trkpt>
      <trkpt lat="46.91612" lon="-1.72234">
        <ele>38.4</ele>
        <time>2021-12-24T08:33:17Z</time>
      </trkpt>
      <trkpt lat="46.91601" lon="-1.7224">
        <ele>38.4</ele>
        <time>2021-12-24T08:33:19Z</time>
      </trkpt>
      <trkpt lat="46.91591" lon="-1.72245">
        <ele>38.4</ele>
        <time>2021-12-24T08:33:21Z</time>
      </trkpt>
      <trkpt lat="46.9158" lon="-1.72249">
        <ele>38.6</ele>
        <time>2021-12-24T08:33:23Z</time>
      </trkpt>
      <trkpt lat="46.91569" lon="-1.72252">
        <ele>38.6</ele>
        <time>2021-12-24T08:33:25Z</time>
      </trkpt>
      <trkpt lat="46.91558" lon="-1.72255">
        <ele>38.8</ele>
        <time>2021-12-24T08:33:27Z</time>
      </trkpt>
      <trkpt lat="46.91547" lon="-1.72257">
        <ele>38.8</ele>
        <time>2021-12-24T08:33:29Z</time>
      </trkpt>
      <trkpt lat="46.91537" lon="-1.7226">
        <ele>38.8</ele>
        <time>2021-12-24T08:33:31Z</time>
      </trkpt>
      <trkpt lat="46.91526" lon="-1.72262">
        <ele>39</ele>
        <time>2021-12-24T08:33:33Z</time>
      </trkpt>
      <trkpt lat="46.91517" lon="-1.72263">
        <ele>39.2</ele>
        <time>2021-12-24T08:33:35Z</time>
      </trkpt>
      <trkpt lat="46.91507" lon="-1.72265">
        <ele>39.2</ele>
        <time>2021-12-24T08:33:37Z</time>
      </trkpt>
      <trkpt lat="46.91497" lon="-1.72267">
        <ele>39.2</ele>
        <time>2021-12-24T08:33:39Z</time>
      </trkpt>
      <trkpt lat="46.91487" lon="-1.72269">
        <ele>39.4</ele>
        <time>2021-12-24T08:33:41Z</time>
      </trkpt>
      <trkpt lat="46.91482" lon="-1.7227">
        <ele>39.4</ele>
        <time>2021-12-24T08:33:42Z</time>
      </trkpt>
      <trkpt lat="46.91477" lon="-1.72271">
        <ele>39.6</ele>
        <time>2021-12-24T08:33:43Z</time>
      </trkpt>
      <trkpt lat="46.91467" lon="-1.72273">
        <ele>39.6</ele>
        <time>2021-12-24T08:33:45Z</time>
      </trkpt>
      <trkpt lat="46.91458" lon="-1.72275">
        <ele>39.8</ele>
        <time>2021-12-24T08:33:47Z</time>
      </trkpt>
      <trkpt lat="46.91448" lon="-1.72277">
        <ele>39.8</ele>
        <time>2021-12-24T08:33:49Z</time>
      </trkpt>
      <trkpt lat="46.91439" lon="-1.72279">
        <ele>40</ele>
        <time>2021-12-24T08:33:51Z</time>
      </trkpt>
      <trkpt lat="46.9143" lon="-1.72281">
        <ele>40</ele>
        <time>2021-12-24T08:33:53Z</time>
      </trkpt>
      <trkpt lat="46.91425" lon="-1.72283">
        <ele>40.2</ele>
        <time>2021-12-24T08:33:54Z</time>
      </trkpt>
      <trkpt lat="46.91421" lon="-1.72283">
        <ele>40.2</ele>
        <time>2021-12-24T08:33:55Z</time>
      </trkpt>
      <trkpt lat="46.91416" lon="-1.72283">
        <ele>40.4</ele>
        <time>2021-12-24T08:33:56Z</time>
      </trkpt>
      <trkpt lat="46.91412" lon="-1.72283">
        <ele>40.4</ele>
        <time>2021-12-24T08:33:57Z</time>
      </trkpt>
      <trkpt lat="46.91404" lon="-1.72281">
        <ele>40.6</ele>
        <time>2021-12-24T08:33:59Z</time>
      </trkpt>
      <trkpt lat="46.91395" lon="-1.72278">
        <ele>40.8</ele>
        <time>2021-12-24T08:34:01Z</time>
      </trkpt>
      <trkpt lat="46.91391" lon="-1.72277">
        <ele>40.8</ele>
        <time>2021-12-24T08:34:02Z</time>
      </trkpt>
      <trkpt lat="46.91387" lon="-1.72275">
        <ele>41</ele>
        <time>2021-12-24T08:34:03Z</time>
      </trkpt>
      <trkpt lat="46.91378" lon="-1.72272">
        <ele>41.2</ele>
        <time>2021-12-24T08:34:05Z</time>
      </trkpt>
      <trkpt lat="46.91373" lon="-1.72271">
        <ele>41.2</ele>
        <time>2021-12-24T08:34:06Z</time>
      </trkpt>
      <trkpt lat="46.91368" lon="-1.72269">
        <ele>41.2</ele>
        <time>2021-12-24T08:34:07Z</time>
      </trkpt>
      <trkpt lat="46.91358" lon="-1.72265">
        <ele>41.2</ele>
        <time>2021-12-24T08:34:09Z</time>
      </trkpt>
      <trkpt lat="46.91348" lon="-1.72261">
        <ele>41.2</ele>
        <time>2021-12-24T08:34:11Z</time>
      </trkpt>
      <trkpt lat="46.91339" lon="-1.72258">
        <ele>41.4</ele>
        <time>2021-12-24T08:34:13Z</time>
      </trkpt>
      <trkpt lat="46.91329" lon="-1.72255">
        <ele>41.6</ele>
        <time>2021-12-24T08:34:15Z</time>
      </trkpt>
      <trkpt lat="46.91319" lon="-1.72252">
        <ele>41.6</ele>
        <time>2021-12-24T08:34:17Z</time>
      </trkpt>
      <trkpt lat="46.91309" lon="-1.7225">
        <ele>41.8</ele>
        <time>2021-12-24T08:34:19Z</time>
      </trkpt>
      <trkpt lat="46.91304" lon="-1.72248">
        <ele>41.8</ele>
        <time>2021-12-24T08:34:20Z</time>
      </trkpt>
      <trkpt lat="46.91299" lon="-1.72247">
        <ele>41.8</ele>
        <time>2021-12-24T08:34:21Z</time>
      </trkpt>
      <trkpt lat="46.91289" lon="-1.72245">
        <ele>41.8</ele>
        <time>2021-12-24T08:34:23Z</time>
      </trkpt>
      <trkpt lat="46.91284" lon="-1.72243">
        <ele>41.8</ele>
        <time>2021-12-24T08:34:24Z</time>
      </trkpt>
      <trkpt lat="46.91279" lon="-1.72242">
        <ele>41.8</ele>
        <time>2021-12-24T08:34:25Z</time>
      </trkpt>
      <trkpt lat="46.91268" lon="-1.72239">
        <ele>42</ele>
        <time>2021-12-24T08:34:27Z</time>
      </trkpt>
      <trkpt lat="46.91257" lon="-1.72236">
        <ele>42</ele>
        <time>2021-12-24T08:34:29Z</time>
      </trkpt>
      <trkpt lat="46.91247" lon="-1.72233">
        <ele>42.2</ele>
        <time>2021-12-24T08:34:31Z</time>
      </trkpt>
      <trkpt lat="46.91237" lon="-1.7223">
        <ele>42.2</ele>
        <time>2021-12-24T08:34:33Z</time>
      </trkpt>
      <trkpt lat="46.91226" lon="-1.72228">
        <ele>42.4</ele>
        <time>2021-12-24T08:34:35Z</time>
      </trkpt>
      <trkpt lat="46.91221" lon="-1.72226">
        <ele>42.4</ele>
        <time>2021-12-24T08:34:36Z</time>
      </trkpt>
      <trkpt lat="46.91216" lon="-1.72225">
        <ele>42.4</ele>
        <time>2021-12-24T08:34:37Z</time>
      </trkpt>
      <trkpt lat="46.91205" lon="-1.72223">
        <ele>42.6</ele>
        <time>2021-12-24T08:34:39Z</time>
      </trkpt>
      <trkpt lat="46.91195" lon="-1.72221">
        <ele>42.6</ele>
        <time>2021-12-24T08:34:41Z</time>
      </trkpt>
      <trkpt lat="46.91189" lon="-1.72219">
        <ele>42.8</ele>
        <time>2021-12-24T08:34:42Z</time>
      </trkpt>
      <trkpt lat="46.91183" lon="-1.72218">
        <ele>42.8</ele>
        <time>2021-12-24T08:34:43Z</time>
      </trkpt>
      <trkpt lat="46.91172" lon="-1.72214">
        <ele>42.8</ele>
        <time>2021-12-24T08:34:45Z</time>
      </trkpt>
      <trkpt lat="46.9116" lon="-1.72211">
        <ele>43</ele>
        <time>2021-12-24T08:34:47Z</time>
      </trkpt>
      <trkpt lat="46.91149" lon="-1.72208">
        <ele>43</ele>
        <time>2021-12-24T08:34:49Z</time>
      </trkpt>
      <trkpt lat="46.91137" lon="-1.72205">
        <ele>43</ele>
        <time>2021-12-24T08:34:51Z</time>
      </trkpt>
      <trkpt lat="46.91126" lon="-1.72202">
        <ele>43</ele>
        <time>2021-12-24T08:34:53Z</time>
      </trkpt>
      <trkpt lat="46.91115" lon="-1.72199">
        <ele>43.2</ele>
        <time>2021-12-24T08:34:55Z</time>
      </trkpt>
      <trkpt lat="46.91104" lon="-1.72195">
        <ele>43.2</ele>
        <time>2021-12-24T08:34:57Z</time>
      </trkpt>
      <trkpt lat="46.91093" lon="-1.72193">
        <ele>43.4</ele>
        <time>2021-12-24T08:34:59Z</time>
      </trkpt>
      <trkpt lat="46.91082" lon="-1.72189">
        <ele>43.4</ele>
        <time>2021-12-24T08:35:01Z</time>
      </trkpt>
      <trkpt lat="46.91071" lon="-1.72187">
        <ele>43.4</ele>
        <time>2021-12-24T08:35:03Z</time>
      </trkpt>
      <trkpt lat="46.91061" lon="-1.72185">
        <ele>43.6</ele>
        <time>2021-12-24T08:35:05Z</time>
      </trkpt>
      <trkpt lat="46.91052" lon="-1.72184">
        <ele>43.8</ele>
        <time>2021-12-24T08:35:07Z</time>
      </trkpt>
      <trkpt lat="46.91046" lon="-1.72179">
        <ele>43.8</ele>
        <time>2021-12-24T08:35:09Z</time>
      </trkpt>
      <trkpt lat="46.91044" lon="-1.72174">
        <ele>43.8</ele>
        <time>2021-12-24T08:35:10Z</time>
      </trkpt>
      <trkpt lat="46.91044" lon="-1.72167">
        <ele>43.8</ele>
        <time>2021-12-24T08:35:11Z</time>
      </trkpt>
      <trkpt lat="46.9104" lon="-1.72154">
        <ele>43.8</ele>
        <time>2021-12-24T08:35:13Z</time>
      </trkpt>
      <trkpt lat="46.91033" lon="-1.72149">
        <ele>43.8</ele>
        <time>2021-12-24T08:35:15Z</time>
      </trkpt>
      <trkpt lat="46.91026" lon="-1.72147">
        <ele>43.8</ele>
        <time>2021-12-24T08:35:17Z</time>
      </trkpt>
      <trkpt lat="46.91021" lon="-1.72146">
        <ele>43.8</ele>
        <time>2021-12-24T08:35:19Z</time>
      </trkpt>
      <trkpt lat="46.91013" lon="-1.72144">
        <ele>43.6</ele>
        <time>2021-12-24T08:35:21Z</time>
      </trkpt>
      <trkpt lat="46.91009" lon="-1.72143">
        <ele>43.6</ele>
        <time>2021-12-24T08:35:22Z</time>
      </trkpt>
      <trkpt lat="46.91006" lon="-1.72141">
        <ele>43.6</ele>
        <time>2021-12-24T08:35:23Z</time>
      </trkpt>
      <trkpt lat="46.90999" lon="-1.72139">
        <ele>43.6</ele>
        <time>2021-12-24T08:35:25Z</time>
      </trkpt>
      <trkpt lat="46.90991" lon="-1.72138">
        <ele>43.6</ele>
        <time>2021-12-24T08:35:27Z</time>
      </trkpt>
      <trkpt lat="46.90988" lon="-1.72136">
        <ele>43.2</ele>
        <time>2021-12-24T08:35:28Z</time>
      </trkpt>
      <trkpt lat="46.90984" lon="-1.72135">
        <ele>43.4</ele>
        <time>2021-12-24T08:35:29Z</time>
      </trkpt>
      <trkpt lat="46.90976" lon="-1.72133">
        <ele>43.2</ele>
        <time>2021-12-24T08:35:31Z</time>
      </trkpt>
      <trkpt lat="46.90968" lon="-1.72132">
        <ele>43.2</ele>
        <time>2021-12-24T08:35:33Z</time>
      </trkpt>
      <trkpt lat="46.90963" lon="-1.72131">
        <ele>43</ele>
        <time>2021-12-24T08:35:34Z</time>
      </trkpt>
      <trkpt lat="46.90959" lon="-1.7213">
        <ele>43</ele>
        <time>2021-12-24T08:35:35Z</time>
      </trkpt>
      <trkpt lat="46.90951" lon="-1.72129">
        <ele>43</ele>
        <time>2021-12-24T08:35:37Z</time>
      </trkpt>
      <trkpt lat="46.90943" lon="-1.72127">
        <ele>43</ele>
        <time>2021-12-24T08:35:39Z</time>
      </trkpt>
      <trkpt lat="46.90934" lon="-1.72126">
        <ele>43</ele>
        <time>2021-12-24T08:35:41Z</time>
      </trkpt>
      <trkpt lat="46.90926" lon="-1.72124">
        <ele>43</ele>
        <time>2021-12-24T08:35:43Z</time>
      </trkpt>
      <trkpt lat="46.90922" lon="-1.72123">
        <ele>43</ele>
        <time>2021-12-24T08:35:44Z</time>
      </trkpt>
      <trkpt lat="46.90917" lon="-1.72122">
        <ele>43.2</ele>
        <time>2021-12-24T08:35:45Z</time>
      </trkpt>
      <trkpt lat="46.90913" lon="-1.72121">
        <ele>43</ele>
        <time>2021-12-24T08:35:46Z</time>
      </trkpt>
      <trkpt lat="46.90909" lon="-1.72119">
        <ele>43</ele>
        <time>2021-12-24T08:35:47Z</time>
      </trkpt>
      <trkpt lat="46.90904" lon="-1.72118">
        <ele>43.2</ele>
        <time>2021-12-24T08:35:48Z</time>
      </trkpt>
      <trkpt lat="46.90899" lon="-1.72117">
        <ele>43.2</ele>
        <time>2021-12-24T08:35:49Z</time>
      </trkpt>
      <trkpt lat="46.9089" lon="-1.72114">
        <ele>42.8</ele>
        <time>2021-12-24T08:35:51Z</time>
      </trkpt>
      <trkpt lat="46.90886" lon="-1.72113">
        <ele>43.2</ele>
        <time>2021-12-24T08:35:52Z</time>
      </trkpt>
      <trkpt lat="46.90882" lon="-1.72112">
        <ele>43.6</ele>
        <time>2021-12-24T08:35:53Z</time>
      </trkpt>
      <trkpt lat="46.90873" lon="-1.72111">
        <ele>43.6</ele>
        <time>2021-12-24T08:35:55Z</time>
      </trkpt>
      <trkpt lat="46.90864" lon="-1.7211">
        <ele>43.8</ele>
        <time>2021-12-24T08:35:57Z</time>
      </trkpt>
      <trkpt lat="46.90859" lon="-1.7211">
        <ele>43.8</ele>
        <time>2021-12-24T08:35:58Z</time>
      </trkpt>
      <trkpt lat="46.90855" lon="-1.72111">
        <ele>43.8</ele>
        <time>2021-12-24T08:35:59Z</time>
      </trkpt>
      <trkpt lat="46.90851" lon="-1.72111">
        <ele>44</ele>
        <time>2021-12-24T08:36:00Z</time>
      </trkpt>
      <trkpt lat="46.90846" lon="-1.7211">
        <ele>44</ele>
        <time>2021-12-24T08:36:01Z</time>
      </trkpt>
      <trkpt lat="46.90837" lon="-1.72108">
        <ele>44.2</ele>
        <time>2021-12-24T08:36:03Z</time>
      </trkpt>
      <trkpt lat="46.90829" lon="-1.72108">
        <ele>44.2</ele>
        <time>2021-12-24T08:36:05Z</time>
      </trkpt>
      <trkpt lat="46.90821" lon="-1.72107">
        <ele>44.4</ele>
        <time>2021-12-24T08:36:07Z</time>
      </trkpt>
      <trkpt lat="46.90817" lon="-1.72106">
        <ele>44.4</ele>
        <time>2021-12-24T08:36:08Z</time>
      </trkpt>
      <trkpt lat="46.90813" lon="-1.72106">
        <ele>44.4</ele>
        <time>2021-12-24T08:36:09Z</time>
      </trkpt>
      <trkpt lat="46.90805" lon="-1.72105">
        <ele>44.8</ele>
        <time>2021-12-24T08:36:11Z</time>
      </trkpt>
      <trkpt lat="46.90797" lon="-1.72105">
        <ele>44.8</ele>
        <time>2021-12-24T08:36:13Z</time>
      </trkpt>
      <trkpt lat="46.90788" lon="-1.72104">
        <ele>45</ele>
        <time>2021-12-24T08:36:15Z</time>
      </trkpt>
      <trkpt lat="46.90779" lon="-1.72103">
        <ele>45.2</ele>
        <time>2021-12-24T08:36:17Z</time>
      </trkpt>
      <trkpt lat="46.9077" lon="-1.72102">
        <ele>45.4</ele>
        <time>2021-12-24T08:36:19Z</time>
      </trkpt>
      <trkpt lat="46.90766" lon="-1.72102">
        <ele>45.4</ele>
        <time>2021-12-24T08:36:20Z</time>
      </trkpt>
      <trkpt lat="46.90761" lon="-1.72101">
        <ele>45.6</ele>
        <time>2021-12-24T08:36:21Z</time>
      </trkpt>
      <trkpt lat="46.90752" lon="-1.72099">
        <ele>45.8</ele>
        <time>2021-12-24T08:36:23Z</time>
      </trkpt>
      <trkpt lat="46.90743" lon="-1.72097">
        <ele>46</ele>
        <time>2021-12-24T08:36:25Z</time>
      </trkpt>
      <trkpt lat="46.90739" lon="-1.72096">
        <ele>46</ele>
        <time>2021-12-24T08:36:26Z</time>
      </trkpt>
      <trkpt lat="46.90734" lon="-1.72094">
        <ele>46.2</ele>
        <time>2021-12-24T08:36:27Z</time>
      </trkpt>
      <trkpt lat="46.90725" lon="-1.72092">
        <ele>46.4</ele>
        <time>2021-12-24T08:36:29Z</time>
      </trkpt>
      <trkpt lat="46.90716" lon="-1.7209">
        <ele>46.6</ele>
        <time>2021-12-24T08:36:31Z</time>
      </trkpt>
      <trkpt lat="46.90711" lon="-1.72088">
        <ele>46.6</ele>
        <time>2021-12-24T08:36:32Z</time>
      </trkpt>
      <trkpt lat="46.90706" lon="-1.72086">
        <ele>46.6</ele>
        <time>2021-12-24T08:36:33Z</time>
      </trkpt>
      <trkpt lat="46.90697" lon="-1.72084">
        <ele>46.8</ele>
        <time>2021-12-24T08:36:35Z</time>
      </trkpt>
      <trkpt lat="46.90689" lon="-1.72082">
        <ele>47</ele>
        <time>2021-12-24T08:36:37Z</time>
      </trkpt>
      <trkpt lat="46.90681" lon="-1.7208">
        <ele>47</ele>
        <time>2021-12-24T08:36:39Z</time>
      </trkpt>
      <trkpt lat="46.90673" lon="-1.72078">
        <ele>47.4</ele>
        <time>2021-12-24T08:36:41Z</time>
      </trkpt>
      <trkpt lat="46.90669" lon="-1.72077">
        <ele>47.4</ele>
        <time>2021-12-24T08:36:42Z</time>
      </trkpt>
      <trkpt lat="46.90664" lon="-1.72076">
        <ele>47.6</ele>
        <time>2021-12-24T08:36:43Z</time>
      </trkpt>
      <trkpt lat="46.90655" lon="-1.72074">
        <ele>48</ele>
        <time>2021-12-24T08:36:45Z</time>
      </trkpt>
      <trkpt lat="46.90647" lon="-1.72072">
        <ele>48.2</ele>
        <time>2021-12-24T08:36:47Z</time>
      </trkpt>
      <trkpt lat="46.90638" lon="-1.72069">
        <ele>48.6</ele>
        <time>2021-12-24T08:36:49Z</time>
      </trkpt>
      <trkpt lat="46.90629" lon="-1.72069">
        <ele>49</ele>
        <time>2021-12-24T08:36:51Z</time>
      </trkpt>
      <trkpt lat="46.9062" lon="-1.72066">
        <ele>49.2</ele>
        <time>2021-12-24T08:36:53Z</time>
      </trkpt>
      <trkpt lat="46.90611" lon="-1.72063">
        <ele>49.6</ele>
        <time>2021-12-24T08:36:55Z</time>
      </trkpt>
      <trkpt lat="46.90603" lon="-1.72061">
        <ele>50</ele>
        <time>2021-12-24T08:36:57Z</time>
      </trkpt>
      <trkpt lat="46.90596" lon="-1.7206">
        <ele>50.4</ele>
        <time>2021-12-24T08:36:59Z</time>
      </trkpt>
      <trkpt lat="46.90588" lon="-1.72057">
        <ele>50.8</ele>
        <time>2021-12-24T08:37:01Z</time>
      </trkpt>
      <trkpt lat="46.9058" lon="-1.72053">
        <ele>51.2</ele>
        <time>2021-12-24T08:37:03Z</time>
      </trkpt>
      <trkpt lat="46.90571" lon="-1.72048">
        <ele>51.6</ele>
        <time>2021-12-24T08:37:05Z</time>
      </trkpt>
      <trkpt lat="46.90561" lon="-1.72043">
        <ele>51.6</ele>
        <time>2021-12-24T08:37:07Z</time>
      </trkpt>
      <trkpt lat="46.90557" lon="-1.72041">
        <ele>51.8</ele>
        <time>2021-12-24T08:37:08Z</time>
      </trkpt>
      <trkpt lat="46.90552" lon="-1.72038">
        <ele>51.8</ele>
        <time>2021-12-24T08:37:09Z</time>
      </trkpt>
      <trkpt lat="46.90544" lon="-1.72033">
        <ele>52</ele>
        <time>2021-12-24T08:37:11Z</time>
      </trkpt>
      <trkpt lat="46.90536" lon="-1.72027">
        <ele>52.2</ele>
        <time>2021-12-24T08:37:13Z</time>
      </trkpt>
      <trkpt lat="46.90531" lon="-1.7202">
        <ele>52.2</ele>
        <time>2021-12-24T08:37:15Z</time>
      </trkpt>
      <trkpt lat="46.90526" lon="-1.72016">
        <ele>52.6</ele>
        <time>2021-12-24T08:37:17Z</time>
      </trkpt>
      <trkpt lat="46.90518" lon="-1.72012">
        <ele>52.6</ele>
        <time>2021-12-24T08:37:19Z</time>
      </trkpt>
      <trkpt lat="46.90511" lon="-1.72006">
        <ele>52.8</ele>
        <time>2021-12-24T08:37:21Z</time>
      </trkpt>
      <trkpt lat="46.90503" lon="-1.72">
        <ele>53</ele>
        <time>2021-12-24T08:37:23Z</time>
      </trkpt>
      <trkpt lat="46.90493" lon="-1.71992">
        <ele>53.2</ele>
        <time>2021-12-24T08:37:25Z</time>
      </trkpt>
      <trkpt lat="46.90485" lon="-1.71984">
        <ele>53.2</ele>
        <time>2021-12-24T08:37:27Z</time>
      </trkpt>
      <trkpt lat="46.90477" lon="-1.71977">
        <ele>53.4</ele>
        <time>2021-12-24T08:37:29Z</time>
      </trkpt>
      <trkpt lat="46.90467" lon="-1.71969">
        <ele>53.6</ele>
        <time>2021-12-24T08:37:31Z</time>
      </trkpt>
      <trkpt lat="46.90458" lon="-1.7196">
        <ele>53.8</ele>
        <time>2021-12-24T08:37:33Z</time>
      </trkpt>
      <trkpt lat="46.90449" lon="-1.71954">
        <ele>54</ele>
        <time>2021-12-24T08:37:35Z</time>
      </trkpt>
      <trkpt lat="46.90444" lon="-1.7195">
        <ele>54.2</ele>
        <time>2021-12-24T08:37:36Z</time>
      </trkpt>
      <trkpt lat="46.9044" lon="-1.71947">
        <ele>54.4</ele>
        <time>2021-12-24T08:37:37Z</time>
      </trkpt>
      <trkpt lat="46.90435" lon="-1.71943">
        <ele>54.6</ele>
        <time>2021-12-24T08:37:38Z</time>
      </trkpt>
      <trkpt lat="46.90431" lon="-1.7194">
        <ele>54.6</ele>
        <time>2021-12-24T08:37:39Z</time>
      </trkpt>
      <trkpt lat="46.90422" lon="-1.71934">
        <ele>55</ele>
        <time>2021-12-24T08:37:41Z</time>
      </trkpt>
      <trkpt lat="46.90418" lon="-1.71931">
        <ele>55.2</ele>
        <time>2021-12-24T08:37:42Z</time>
      </trkpt>
      <trkpt lat="46.90413" lon="-1.71927">
        <ele>55.4</ele>
        <time>2021-12-24T08:37:43Z</time>
      </trkpt>
      <trkpt lat="46.90404" lon="-1.7192">
        <ele>55.8</ele>
        <time>2021-12-24T08:37:45Z</time>
      </trkpt>
      <trkpt lat="46.90395" lon="-1.71914">
        <ele>56.2</ele>
        <time>2021-12-24T08:37:47Z</time>
      </trkpt>
      <trkpt lat="46.90391" lon="-1.7191">
        <ele>56.4</ele>
        <time>2021-12-24T08:37:48Z</time>
      </trkpt>
      <trkpt lat="46.90386" lon="-1.71907">
        <ele>56.6</ele>
        <time>2021-12-24T08:37:49Z</time>
      </trkpt>
      <trkpt lat="46.90376" lon="-1.719">
        <ele>57</ele>
        <time>2021-12-24T08:37:51Z</time>
      </trkpt>
      <trkpt lat="46.90366" lon="-1.71893">
        <ele>57.4</ele>
        <time>2021-12-24T08:37:53Z</time>
      </trkpt>
      <trkpt lat="46.90357" lon="-1.71885">
        <ele>57.8</ele>
        <time>2021-12-24T08:37:55Z</time>
      </trkpt>
      <trkpt lat="46.90347" lon="-1.71876">
        <ele>58</ele>
        <time>2021-12-24T08:37:57Z</time>
      </trkpt>
      <trkpt lat="46.90342" lon="-1.71871">
        <ele>58.2</ele>
        <time>2021-12-24T08:37:58Z</time>
      </trkpt>
      <trkpt lat="46.90337" lon="-1.71865">
        <ele>58.2</ele>
        <time>2021-12-24T08:37:59Z</time>
      </trkpt>
      <trkpt lat="46.90327" lon="-1.71857">
        <ele>58.6</ele>
        <time>2021-12-24T08:38:01Z</time>
      </trkpt>
      <trkpt lat="46.90321" lon="-1.71853">
        <ele>58.6</ele>
        <time>2021-12-24T08:38:02Z</time>
      </trkpt>
      <trkpt lat="46.90316" lon="-1.71848">
        <ele>58.8</ele>
        <time>2021-12-24T08:38:03Z</time>
      </trkpt>
      <trkpt lat="46.90307" lon="-1.7184">
        <ele>58.8</ele>
        <time>2021-12-24T08:38:05Z</time>
      </trkpt>
      <trkpt lat="46.90297" lon="-1.71832">
        <ele>59.2</ele>
        <time>2021-12-24T08:38:07Z</time>
      </trkpt>
      <trkpt lat="46.90287" lon="-1.71824">
        <ele>59.4</ele>
        <time>2021-12-24T08:38:09Z</time>
      </trkpt>
      <trkpt lat="46.90282" lon="-1.71819">
        <ele>59.6</ele>
        <time>2021-12-24T08:38:10Z</time>
      </trkpt>
      <trkpt lat="46.90278" lon="-1.71815">
        <ele>59.8</ele>
        <time>2021-12-24T08:38:11Z</time>
      </trkpt>
      <trkpt lat="46.90269" lon="-1.71807">
        <ele>60</ele>
        <time>2021-12-24T08:38:13Z</time>
      </trkpt>
      <trkpt lat="46.9026" lon="-1.718">
        <ele>60.2</ele>
        <time>2021-12-24T08:38:15Z</time>
      </trkpt>
      <trkpt lat="46.90255" lon="-1.71795">
        <ele>60.2</ele>
        <time>2021-12-24T08:38:16Z</time>
      </trkpt>
      <trkpt lat="46.90249" lon="-1.71789">
        <ele>60.2</ele>
        <time>2021-12-24T08:38:17Z</time>
      </trkpt>
      <trkpt lat="46.90239" lon="-1.71778">
        <ele>60.2</ele>
        <time>2021-12-24T08:38:19Z</time>
      </trkpt>
      <trkpt lat="46.90229" lon="-1.71768">
        <ele>60.2</ele>
        <time>2021-12-24T08:38:21Z</time>
      </trkpt>
      <trkpt lat="46.90221" lon="-1.71759">
        <ele>60.4</ele>
        <time>2021-12-24T08:38:23Z</time>
      </trkpt>
      <trkpt lat="46.90213" lon="-1.71751">
        <ele>60.6</ele>
        <time>2021-12-24T08:38:25Z</time>
      </trkpt>
      <trkpt lat="46.90204" lon="-1.71742">
        <ele>60.6</ele>
        <time>2021-12-24T08:38:27Z</time>
      </trkpt>
      <trkpt lat="46.90199" lon="-1.71737">
        <ele>60.6</ele>
        <time>2021-12-24T08:38:28Z</time>
      </trkpt>
      <trkpt lat="46.90195" lon="-1.71732">
        <ele>60.6</ele>
        <time>2021-12-24T08:38:29Z</time>
      </trkpt>
      <trkpt lat="46.90186" lon="-1.71723">
        <ele>60.6</ele>
        <time>2021-12-24T08:38:31Z</time>
      </trkpt>
      <trkpt lat="46.90177" lon="-1.71713">
        <ele>60.6</ele>
        <time>2021-12-24T08:38:33Z</time>
      </trkpt>
      <trkpt lat="46.90173" lon="-1.71708">
        <ele>60.6</ele>
        <time>2021-12-24T08:38:34Z</time>
      </trkpt>
      <trkpt lat="46.90169" lon="-1.71702">
        <ele>60.6</ele>
        <time>2021-12-24T08:38:35Z</time>
      </trkpt>
      <trkpt lat="46.9016" lon="-1.71693">
        <ele>60.6</ele>
        <time>2021-12-24T08:38:37Z</time>
      </trkpt>
      <trkpt lat="46.90152" lon="-1.71683">
        <ele>60.6</ele>
        <time>2021-12-24T08:38:39Z</time>
      </trkpt>
      <trkpt lat="46.90143" lon="-1.71672">
        <ele>60.6</ele>
        <time>2021-12-24T08:38:41Z</time>
      </trkpt>
      <trkpt lat="46.90139" lon="-1.71667">
        <ele>60.6</ele>
        <time>2021-12-24T08:38:42Z</time>
      </trkpt>
      <trkpt lat="46.90135" lon="-1.71661">
        <ele>60.6</ele>
        <time>2021-12-24T08:38:43Z</time>
      </trkpt>
      <trkpt lat="46.90127" lon="-1.7165">
        <ele>60.6</ele>
        <time>2021-12-24T08:38:45Z</time>
      </trkpt>
      <trkpt lat="46.90118" lon="-1.71639">
        <ele>60.2</ele>
        <time>2021-12-24T08:38:47Z</time>
      </trkpt>
      <trkpt lat="46.90114" lon="-1.71634">
        <ele>60.2</ele>
        <time>2021-12-24T08:38:48Z</time>
      </trkpt>
      <trkpt lat="46.90109" lon="-1.71628">
        <ele>60.2</ele>
        <time>2021-12-24T08:38:49Z</time>
      </trkpt>
      <trkpt lat="46.901" lon="-1.71617">
        <ele>60</ele>
        <time>2021-12-24T08:38:51Z</time>
      </trkpt>
      <trkpt lat="46.9009" lon="-1.71606">
        <ele>59.8</ele>
        <time>2021-12-24T08:38:53Z</time>
      </trkpt>
      <trkpt lat="46.9008" lon="-1.71595">
        <ele>59.6</ele>
        <time>2021-12-24T08:38:55Z</time>
      </trkpt>
      <trkpt lat="46.90075" lon="-1.7159">
        <ele>59.4</ele>
        <time>2021-12-24T08:38:56Z</time>
      </trkpt>
      <trkpt lat="46.9007" lon="-1.71585">
        <ele>59.4</ele>
        <time>2021-12-24T08:38:57Z</time>
      </trkpt>
      <trkpt lat="46.9006" lon="-1.71575">
        <ele>59.2</ele>
        <time>2021-12-24T08:38:59Z</time>
      </trkpt>
      <trkpt lat="46.9005" lon="-1.71565">
        <ele>59</ele>
        <time>2021-12-24T08:39:01Z</time>
      </trkpt>
      <trkpt lat="46.9004" lon="-1.71555">
        <ele>59</ele>
        <time>2021-12-24T08:39:03Z</time>
      </trkpt>
      <trkpt lat="46.9003" lon="-1.71546">
        <ele>58.8</ele>
        <time>2021-12-24T08:39:05Z</time>
      </trkpt>
      <trkpt lat="46.9002" lon="-1.71536">
        <ele>58.6</ele>
        <time>2021-12-24T08:39:07Z</time>
      </trkpt>
      <trkpt lat="46.9001" lon="-1.71527">
        <ele>58.6</ele>
        <time>2021-12-24T08:39:09Z</time>
      </trkpt>
      <trkpt lat="46.9" lon="-1.71518">
        <ele>58.4</ele>
        <time>2021-12-24T08:39:11Z</time>
      </trkpt>
      <trkpt lat="46.8999" lon="-1.71509">
        <ele>58.2</ele>
        <time>2021-12-24T08:39:13Z</time>
      </trkpt>
      <trkpt lat="46.8998" lon="-1.715">
        <ele>58</ele>
        <time>2021-12-24T08:39:15Z</time>
      </trkpt>
      <trkpt lat="46.8997" lon="-1.71491">
        <ele>57.8</ele>
        <time>2021-12-24T08:39:17Z</time>
      </trkpt>
      <trkpt lat="46.8996" lon="-1.71482">
        <ele>57.8</ele>
        <time>2021-12-24T08:39:19Z</time>
      </trkpt>
      <trkpt lat="46.89955" lon="-1.71478">
        <ele>57.6</ele>
        <time>2021-12-24T08:39:20Z</time>
      </trkpt>
      <trkpt lat="46.89951" lon="-1.71473">
        <ele>57.6</ele>
        <time>2021-12-24T08:39:21Z</time>
      </trkpt>
      <trkpt lat="46.89941" lon="-1.71465">
        <ele>57.4</ele>
        <time>2021-12-24T08:39:23Z</time>
      </trkpt>
      <trkpt lat="46.89932" lon="-1.71456">
        <ele>57</ele>
        <time>2021-12-24T08:39:25Z</time>
      </trkpt>
      <trkpt lat="46.89922" lon="-1.71447">
        <ele>56.8</ele>
        <time>2021-12-24T08:39:27Z</time>
      </trkpt>
      <trkpt lat="46.89913" lon="-1.71439">
        <ele>56.6</ele>
        <time>2021-12-24T08:39:29Z</time>
      </trkpt>
      <trkpt lat="46.89903" lon="-1.71431">
        <ele>56.6</ele>
        <time>2021-12-24T08:39:31Z</time>
      </trkpt>
      <trkpt lat="46.89893" lon="-1.71422">
        <ele>56.4</ele>
        <time>2021-12-24T08:39:33Z</time>
      </trkpt>
      <trkpt lat="46.89883" lon="-1.71414">
        <ele>56.2</ele>
        <time>2021-12-24T08:39:35Z</time>
      </trkpt>
      <trkpt lat="46.89873" lon="-1.71406">
        <ele>56</ele>
        <time>2021-12-24T08:39:37Z</time>
      </trkpt>
      <trkpt lat="46.89864" lon="-1.71398">
        <ele>55.8</ele>
        <time>2021-12-24T08:39:39Z</time>
      </trkpt>
      <trkpt lat="46.89854" lon="-1.7139">
        <ele>55.6</ele>
        <time>2021-12-24T08:39:41Z</time>
      </trkpt>
      <trkpt lat="46.89844" lon="-1.71382">
        <ele>55.4</ele>
        <time>2021-12-24T08:39:43Z</time>
      </trkpt>
      <trkpt lat="46.89835" lon="-1.71374">
        <ele>55.2</ele>
        <time>2021-12-24T08:39:45Z</time>
      </trkpt>
      <trkpt lat="46.89825" lon="-1.71366">
        <ele>54.8</ele>
        <time>2021-12-24T08:39:47Z</time>
      </trkpt>
      <trkpt lat="46.89816" lon="-1.71359">
        <ele>54.6</ele>
        <time>2021-12-24T08:39:49Z</time>
      </trkpt>
      <trkpt lat="46.89807" lon="-1.71352">
        <ele>54.4</ele>
        <time>2021-12-24T08:39:51Z</time>
      </trkpt>
      <trkpt lat="46.89798" lon="-1.71345">
        <ele>54.2</ele>
        <time>2021-12-24T08:39:53Z</time>
      </trkpt>
      <trkpt lat="46.89794" lon="-1.71342">
        <ele>54.2</ele>
        <time>2021-12-24T08:39:54Z</time>
      </trkpt>
      <trkpt lat="46.89789" lon="-1.7134">
        <ele>54</ele>
        <time>2021-12-24T08:39:55Z</time>
      </trkpt>
      <trkpt lat="46.89782" lon="-1.71336">
        <ele>53.8</ele>
        <time>2021-12-24T08:39:57Z</time>
      </trkpt>
      <trkpt lat="46.89777" lon="-1.71333">
        <ele>53.8</ele>
        <time>2021-12-24T08:39:59Z</time>
      </trkpt>
      <trkpt lat="46.89775" lon="-1.71329">
        <ele>53.6</ele>
        <time>2021-12-24T08:40:00Z</time>
      </trkpt>
      <trkpt lat="46.89775" lon="-1.71324">
        <ele>53.4</ele>
        <time>2021-12-24T08:40:01Z</time>
      </trkpt>
      <trkpt lat="46.89774" lon="-1.71317">
        <ele>53.4</ele>
        <time>2021-12-24T08:40:02Z</time>
      </trkpt>
      <trkpt lat="46.89774" lon="-1.7131">
        <ele>53.2</ele>
        <time>2021-12-24T08:40:03Z</time>
      </trkpt>
      <trkpt lat="46.89773" lon="-1.71296">
        <ele>53</ele>
        <time>2021-12-24T08:40:05Z</time>
      </trkpt>
      <trkpt lat="46.89772" lon="-1.7128">
        <ele>52.8</ele>
        <time>2021-12-24T08:40:07Z</time>
      </trkpt>
      <trkpt lat="46.89772" lon="-1.71272">
        <ele>52.8</ele>
        <time>2021-12-24T08:40:08Z</time>
      </trkpt>
      <trkpt lat="46.89772" lon="-1.71264">
        <ele>52.6</ele>
        <time>2021-12-24T08:40:09Z</time>
      </trkpt>
      <trkpt lat="46.89771" lon="-1.71247">
        <ele>52.4</ele>
        <time>2021-12-24T08:40:11Z</time>
      </trkpt>
      <trkpt lat="46.89771" lon="-1.71229">
        <ele>52.4</ele>
        <time>2021-12-24T08:40:13Z</time>
      </trkpt>
      <trkpt lat="46.8977" lon="-1.71211">
        <ele>52.2</ele>
        <time>2021-12-24T08:40:15Z</time>
      </trkpt>
      <trkpt lat="46.89769" lon="-1.71193">
        <ele>52.2</ele>
        <time>2021-12-24T08:40:17Z</time>
      </trkpt>
      <trkpt lat="46.89769" lon="-1.71175">
        <ele>52</ele>
        <time>2021-12-24T08:40:19Z</time>
      </trkpt>
      <trkpt lat="46.89768" lon="-1.71157">
        <ele>51.8</ele>
        <time>2021-12-24T08:40:21Z</time>
      </trkpt>
      <trkpt lat="46.89767" lon="-1.71139">
        <ele>51.6</ele>
        <time>2021-12-24T08:40:23Z</time>
      </trkpt>
      <trkpt lat="46.89766" lon="-1.7112">
        <ele>51.6</ele>
        <time>2021-12-24T08:40:25Z</time>
      </trkpt>
      <trkpt lat="46.89765" lon="-1.71102">
        <ele>51.4</ele>
        <time>2021-12-24T08:40:27Z</time>
      </trkpt>
      <trkpt lat="46.89765" lon="-1.71084">
        <ele>51.4</ele>
        <time>2021-12-24T08:40:29Z</time>
      </trkpt>
      <trkpt lat="46.89764" lon="-1.71066">
        <ele>51.2</ele>
        <time>2021-12-24T08:40:31Z</time>
      </trkpt>
      <trkpt lat="46.89763" lon="-1.71047">
        <ele>51</ele>
        <time>2021-12-24T08:40:33Z</time>
      </trkpt>
      <trkpt lat="46.89762" lon="-1.71028">
        <ele>51</ele>
        <time>2021-12-24T08:40:35Z</time>
      </trkpt>
      <trkpt lat="46.89762" lon="-1.71018">
        <ele>50.8</ele>
        <time>2021-12-24T08:40:36Z</time>
      </trkpt>
      <trkpt lat="46.89762" lon="-1.71009">
        <ele>50.8</ele>
        <time>2021-12-24T08:40:37Z</time>
      </trkpt>
      <trkpt lat="46.89761" lon="-1.7099">
        <ele>50.6</ele>
        <time>2021-12-24T08:40:39Z</time>
      </trkpt>
      <trkpt lat="46.8976" lon="-1.70971">
        <ele>50.4</ele>
        <time>2021-12-24T08:40:41Z</time>
      </trkpt>
      <trkpt lat="46.89759" lon="-1.70952">
        <ele>50.2</ele>
        <time>2021-12-24T08:40:43Z</time>
      </trkpt>
      <trkpt lat="46.89759" lon="-1.70932">
        <ele>50</ele>
        <time>2021-12-24T08:40:45Z</time>
      </trkpt>
      <trkpt lat="46.89758" lon="-1.70922">
        <ele>50</ele>
        <time>2021-12-24T08:40:46Z</time>
      </trkpt>
      <trkpt lat="46.89758" lon="-1.70913">
        <ele>49.8</ele>
        <time>2021-12-24T08:40:47Z</time>
      </trkpt>
      <trkpt lat="46.89757" lon="-1.70893">
        <ele>49.6</ele>
        <time>2021-12-24T08:40:49Z</time>
      </trkpt>
      <trkpt lat="46.89756" lon="-1.70872">
        <ele>49.4</ele>
        <time>2021-12-24T08:40:51Z</time>
      </trkpt>
      <trkpt lat="46.89755" lon="-1.70852">
        <ele>49.2</ele>
        <time>2021-12-24T08:40:53Z</time>
      </trkpt>
      <trkpt lat="46.89754" lon="-1.70831">
        <ele>48.8</ele>
        <time>2021-12-24T08:40:55Z</time>
      </trkpt>
      <trkpt lat="46.89753" lon="-1.7081">
        <ele>48.6</ele>
        <time>2021-12-24T08:40:57Z</time>
      </trkpt>
      <trkpt lat="46.89753" lon="-1.70789">
        <ele>48.4</ele>
        <time>2021-12-24T08:40:59Z</time>
      </trkpt>
      <trkpt lat="46.89752" lon="-1.70767">
        <ele>48.2</ele>
        <time>2021-12-24T08:41:01Z</time>
      </trkpt>
      <trkpt lat="46.89751" lon="-1.70746">
        <ele>48</ele>
        <time>2021-12-24T08:41:03Z</time>
      </trkpt>
      <trkpt lat="46.89751" lon="-1.70725">
        <ele>47.8</ele>
        <time>2021-12-24T08:41:05Z</time>
      </trkpt>
      <trkpt lat="46.89751" lon="-1.70714">
        <ele>47.8</ele>
        <time>2021-12-24T08:41:06Z</time>
      </trkpt>
      <trkpt lat="46.8975" lon="-1.70703">
        <ele>47.6</ele>
        <time>2021-12-24T08:41:07Z</time>
      </trkpt>
      <trkpt lat="46.8975" lon="-1.70683">
        <ele>47.4</ele>
        <time>2021-12-24T08:41:09Z</time>
      </trkpt>
      <trkpt lat="46.89749" lon="-1.70663">
        <ele>47.2</ele>
        <time>2021-12-24T08:41:11Z</time>
      </trkpt>
      <trkpt lat="46.89748" lon="-1.70643">
        <ele>47</ele>
        <time>2021-12-24T08:41:13Z</time>
      </trkpt>
      <trkpt lat="46.89748" lon="-1.70624">
        <ele>47</ele>
        <time>2021-12-24T08:41:15Z</time>
      </trkpt>
      <trkpt lat="46.89747" lon="-1.70605">
        <ele>46.6</ele>
        <time>2021-12-24T08:41:17Z</time>
      </trkpt>
      <trkpt lat="46.89746" lon="-1.70586">
        <ele>46.4</ele>
        <time>2021-12-24T08:41:19Z</time>
      </trkpt>
      <trkpt lat="46.89743" lon="-1.70577">
        <ele>46.4</ele>
        <time>2021-12-24T08:41:20Z</time>
      </trkpt>
      <trkpt lat="46.89738" lon="-1.70569">
        <ele>46.2</ele>
        <time>2021-12-24T08:41:21Z</time>
      </trkpt>
      <trkpt lat="46.89726" lon="-1.70558">
        <ele>46.2</ele>
        <time>2021-12-24T08:41:23Z</time>
      </trkpt>
      <trkpt lat="46.89714" lon="-1.70549">
        <ele>46</ele>
        <time>2021-12-24T08:41:25Z</time>
      </trkpt>
      <trkpt lat="46.89702" lon="-1.70539">
        <ele>46</ele>
        <time>2021-12-24T08:41:27Z</time>
      </trkpt>
      <trkpt lat="46.8969" lon="-1.7053">
        <ele>45.8</ele>
        <time>2021-12-24T08:41:29Z</time>
      </trkpt>
      <trkpt lat="46.89684" lon="-1.70525">
        <ele>45.6</ele>
        <time>2021-12-24T08:41:30Z</time>
      </trkpt>
      <trkpt lat="46.89678" lon="-1.70521">
        <ele>45.6</ele>
        <time>2021-12-24T08:41:31Z</time>
      </trkpt>
      <trkpt lat="46.89671" lon="-1.70518">
        <ele>45.4</ele>
        <time>2021-12-24T08:41:32Z</time>
      </trkpt>
      <trkpt lat="46.89665" lon="-1.70516">
        <ele>45.4</ele>
        <time>2021-12-24T08:41:33Z</time>
      </trkpt>
      <trkpt lat="46.89658" lon="-1.70515">
        <ele>45.4</ele>
        <time>2021-12-24T08:41:34Z</time>
      </trkpt>
      <trkpt lat="46.89651" lon="-1.70514">
        <ele>45.2</ele>
        <time>2021-12-24T08:41:35Z</time>
      </trkpt>
      <trkpt lat="46.89644" lon="-1.70514">
        <ele>45.2</ele>
        <time>2021-12-24T08:41:36Z</time>
      </trkpt>
      <trkpt lat="46.89638" lon="-1.70515">
        <ele>45.2</ele>
        <time>2021-12-24T08:41:37Z</time>
      </trkpt>
      <trkpt lat="46.89625" lon="-1.70518">
        <ele>45</ele>
        <time>2021-12-24T08:41:39Z</time>
      </trkpt>
      <trkpt lat="46.89618" lon="-1.7052">
        <ele>45</ele>
        <time>2021-12-24T08:41:40Z</time>
      </trkpt>
      <trkpt lat="46.89611" lon="-1.70521">
        <ele>44.8</ele>
        <time>2021-12-24T08:41:41Z</time>
      </trkpt>
      <trkpt lat="46.89598" lon="-1.70524">
        <ele>44.8</ele>
        <time>2021-12-24T08:41:43Z</time>
      </trkpt>
      <trkpt lat="46.89585" lon="-1.70527">
        <ele>44.8</ele>
        <time>2021-12-24T08:41:45Z</time>
      </trkpt>
      <trkpt lat="46.89571" lon="-1.7053">
        <ele>44.6</ele>
        <time>2021-12-24T08:41:47Z</time>
      </trkpt>
      <trkpt lat="46.89557" lon="-1.70532">
        <ele>44.6</ele>
        <time>2021-12-24T08:41:49Z</time>
      </trkpt>
      <trkpt lat="46.89544" lon="-1.70535">
        <ele>44.4</ele>
        <time>2021-12-24T08:41:51Z</time>
      </trkpt>
      <trkpt lat="46.8953" lon="-1.70539">
        <ele>44.2</ele>
        <time>2021-12-24T08:41:53Z</time>
      </trkpt>
      <trkpt lat="46.89516" lon="-1.70542">
        <ele>44</ele>
        <time>2021-12-24T08:41:55Z</time>
      </trkpt>
      <trkpt lat="46.89502" lon="-1.70545">
        <ele>43.8</ele>
        <time>2021-12-24T08:41:57Z</time>
      </trkpt>
      <trkpt lat="46.89488" lon="-1.70548">
        <ele>43.6</ele>
        <time>2021-12-24T08:41:59Z</time>
      </trkpt>
      <trkpt lat="46.89474" lon="-1.70551">
        <ele>43.4</ele>
        <time>2021-12-24T08:42:01Z</time>
      </trkpt>
      <trkpt lat="46.89466" lon="-1.70553">
        <ele>43.4</ele>
        <time>2021-12-24T08:42:02Z</time>
      </trkpt>
      <trkpt lat="46.8946" lon="-1.70555">
        <ele>43.2</ele>
        <time>2021-12-24T08:42:03Z</time>
      </trkpt>
      <trkpt lat="46.89446" lon="-1.70558">
        <ele>43.2</ele>
        <time>2021-12-24T08:42:05Z</time>
      </trkpt>
      <trkpt lat="46.89432" lon="-1.70561">
        <ele>42.8</ele>
        <time>2021-12-24T08:42:07Z</time>
      </trkpt>
      <trkpt lat="46.89418" lon="-1.70564">
        <ele>42.6</ele>
        <time>2021-12-24T08:42:09Z</time>
      </trkpt>
      <trkpt lat="46.89404" lon="-1.70566">
        <ele>42.4</ele>
        <time>2021-12-24T08:42:11Z</time>
      </trkpt>
      <trkpt lat="46.89398" lon="-1.70568">
        <ele>42.4</ele>
        <time>2021-12-24T08:42:12Z</time>
      </trkpt>
      <trkpt lat="46.89392" lon="-1.70569">
        <ele>42.2</ele>
        <time>2021-12-24T08:42:13Z</time>
      </trkpt>
      <trkpt lat="46.89379" lon="-1.70571">
        <ele>42.2</ele>
        <time>2021-12-24T08:42:15Z</time>
      </trkpt>
      <trkpt lat="46.89372" lon="-1.70572">
        <ele>42</ele>
        <time>2021-12-24T08:42:16Z</time>
      </trkpt>
      <trkpt lat="46.89366" lon="-1.70573">
        <ele>42</ele>
        <time>2021-12-24T08:42:17Z</time>
      </trkpt>
      <trkpt lat="46.89359" lon="-1.70574">
        <ele>42</ele>
        <time>2021-12-24T08:42:18Z</time>
      </trkpt>
      <trkpt lat="46.89353" lon="-1.70575">
        <ele>41.8</ele>
        <time>2021-12-24T08:42:19Z</time>
      </trkpt>
      <trkpt lat="46.89339" lon="-1.70579">
        <ele>41.8</ele>
        <time>2021-12-24T08:42:21Z</time>
      </trkpt>
      <trkpt lat="46.89325" lon="-1.70583">
        <ele>41.6</ele>
        <time>2021-12-24T08:42:23Z</time>
      </trkpt>
      <trkpt lat="46.89312" lon="-1.70586">
        <ele>41.4</ele>
        <time>2021-12-24T08:42:25Z</time>
      </trkpt>
      <trkpt lat="46.89305" lon="-1.70587">
        <ele>41.4</ele>
        <time>2021-12-24T08:42:26Z</time>
      </trkpt>
      <trkpt lat="46.89299" lon="-1.70589">
        <ele>41.2</ele>
        <time>2021-12-24T08:42:27Z</time>
      </trkpt>
      <trkpt lat="46.89292" lon="-1.70592">
        <ele>41.2</ele>
        <time>2021-12-24T08:42:28Z</time>
      </trkpt>
      <trkpt lat="46.89285" lon="-1.70595">
        <ele>41</ele>
        <time>2021-12-24T08:42:29Z</time>
      </trkpt>
      <trkpt lat="46.89272" lon="-1.70601">
        <ele>40.8</ele>
        <time>2021-12-24T08:42:31Z</time>
      </trkpt>
      <trkpt lat="46.89266" lon="-1.70605">
        <ele>40.8</ele>
        <time>2021-12-24T08:42:32Z</time>
      </trkpt>
      <trkpt lat="46.89261" lon="-1.70611">
        <ele>40.6</ele>
        <time>2021-12-24T08:42:33Z</time>
      </trkpt>
      <trkpt lat="46.89256" lon="-1.70617">
        <ele>40.6</ele>
        <time>2021-12-24T08:42:34Z</time>
      </trkpt>
      <trkpt lat="46.89252" lon="-1.70624">
        <ele>40.8</ele>
        <time>2021-12-24T08:42:35Z</time>
      </trkpt>
      <trkpt lat="46.89244" lon="-1.70638">
        <ele>40.8</ele>
        <time>2021-12-24T08:42:37Z</time>
      </trkpt>
      <trkpt lat="46.89237" lon="-1.70652">
        <ele>41</ele>
        <time>2021-12-24T08:42:39Z</time>
      </trkpt>
      <trkpt lat="46.89232" lon="-1.70657">
        <ele>41</ele>
        <time>2021-12-24T08:42:40Z</time>
      </trkpt>
      <trkpt lat="46.89227" lon="-1.70659">
        <ele>41</ele>
        <time>2021-12-24T08:42:41Z</time>
      </trkpt>
      <trkpt lat="46.89217" lon="-1.70653">
        <ele>41</ele>
        <time>2021-12-24T08:42:43Z</time>
      </trkpt>
      <trkpt lat="46.89209" lon="-1.70642">
        <ele>40.6</ele>
        <time>2021-12-24T08:42:45Z</time>
      </trkpt>
      <trkpt lat="46.892" lon="-1.70629">
        <ele>40.4</ele>
        <time>2021-12-24T08:42:47Z</time>
      </trkpt>
      <trkpt lat="46.89196" lon="-1.70624">
        <ele>40.2</ele>
        <time>2021-12-24T08:42:48Z</time>
      </trkpt>
      <trkpt lat="46.89191" lon="-1.70618">
        <ele>40</ele>
        <time>2021-12-24T08:42:49Z</time>
      </trkpt>
      <trkpt lat="46.89183" lon="-1.70606">
        <ele>39.8</ele>
        <time>2021-12-24T08:42:51Z</time>
      </trkpt>
      <trkpt lat="46.89175" lon="-1.70594">
        <ele>39.6</ele>
        <time>2021-12-24T08:42:53Z</time>
      </trkpt>
      <trkpt lat="46.89171" lon="-1.70587">
        <ele>39.4</ele>
        <time>2021-12-24T08:42:54Z</time>
      </trkpt>
      <trkpt lat="46.89168" lon="-1.7058">
        <ele>39.4</ele>
        <time>2021-12-24T08:42:55Z</time>
      </trkpt>
      <trkpt lat="46.8916" lon="-1.70565">
        <ele>39</ele>
        <time>2021-12-24T08:42:57Z</time>
      </trkpt>
      <trkpt lat="46.89156" lon="-1.70557">
        <ele>39</ele>
        <time>2021-12-24T08:42:58Z</time>
      </trkpt>
      <trkpt lat="46.89151" lon="-1.70551">
        <ele>38.8</ele>
        <time>2021-12-24T08:42:59Z</time>
      </trkpt>
      <trkpt lat="46.89146" lon="-1.70544">
        <ele>38.6</ele>
        <time>2021-12-24T08:43:00Z</time>
      </trkpt>
      <trkpt lat="46.89141" lon="-1.70539">
        <ele>38.4</ele>
        <time>2021-12-24T08:43:01Z</time>
      </trkpt>
      <trkpt lat="46.8913" lon="-1.70526">
        <ele>38.2</ele>
        <time>2021-12-24T08:43:03Z</time>
      </trkpt>
      <trkpt lat="46.89119" lon="-1.70516">
        <ele>38</ele>
        <time>2021-12-24T08:43:05Z</time>
      </trkpt>
      <trkpt lat="46.89113" lon="-1.70514">
        <ele>38</ele>
        <time>2021-12-24T08:43:06Z</time>
      </trkpt>
      <trkpt lat="46.89108" lon="-1.70515">
        <ele>38</ele>
        <time>2021-12-24T08:43:07Z</time>
      </trkpt>
      <trkpt lat="46.89098" lon="-1.70518">
        <ele>37.8</ele>
        <time>2021-12-24T08:43:09Z</time>
      </trkpt>
      <trkpt lat="46.89091" lon="-1.70511">
        <ele>37.6</ele>
        <time>2021-12-24T08:43:11Z</time>
      </trkpt>
      <trkpt lat="46.89087" lon="-1.70497">
        <ele>37.4</ele>
        <time>2021-12-24T08:43:13Z</time>
      </trkpt>
      <trkpt lat="46.89086" lon="-1.70489">
        <ele>37.2</ele>
        <time>2021-12-24T08:43:14Z</time>
      </trkpt>
      <trkpt lat="46.89085" lon="-1.70481">
        <ele>37</ele>
        <time>2021-12-24T08:43:15Z</time>
      </trkpt>
      <trkpt lat="46.89084" lon="-1.70462">
        <ele>36.8</ele>
        <time>2021-12-24T08:43:17Z</time>
      </trkpt>
      <trkpt lat="46.89083" lon="-1.70443">
        <ele>36.6</ele>
        <time>2021-12-24T08:43:19Z</time>
      </trkpt>
      <trkpt lat="46.89083" lon="-1.70434">
        <ele>36.4</ele>
        <time>2021-12-24T08:43:20Z</time>
      </trkpt>
      <trkpt lat="46.89083" lon="-1.70425">
        <ele>36.2</ele>
        <time>2021-12-24T08:43:21Z</time>
      </trkpt>
      <trkpt lat="46.89082" lon="-1.70409">
        <ele>35.8</ele>
        <time>2021-12-24T08:43:23Z</time>
      </trkpt>
      <trkpt lat="46.8908" lon="-1.70401">
        <ele>35.6</ele>
        <time>2021-12-24T08:43:24Z</time>
      </trkpt>
      <trkpt lat="46.89075" lon="-1.70397">
        <ele>35.4</ele>
        <time>2021-12-24T08:43:25Z</time>
      </trkpt>
      <trkpt lat="46.8907" lon="-1.70394">
        <ele>35.2</ele>
        <time>2021-12-24T08:43:26Z</time>
      </trkpt>
      <trkpt lat="46.89064" lon="-1.70394">
        <ele>35.2</ele>
        <time>2021-12-24T08:43:27Z</time>
      </trkpt>
      <trkpt lat="46.89051" lon="-1.70393">
        <ele>34.8</ele>
        <time>2021-12-24T08:43:29Z</time>
      </trkpt>
      <trkpt lat="46.89038" lon="-1.70392">
        <ele>34.6</ele>
        <time>2021-12-24T08:43:31Z</time>
      </trkpt>
      <trkpt lat="46.89024" lon="-1.7039">
        <ele>34.4</ele>
        <time>2021-12-24T08:43:33Z</time>
      </trkpt>
      <trkpt lat="46.8901" lon="-1.70388">
        <ele>34.4</ele>
        <time>2021-12-24T08:43:35Z</time>
      </trkpt>
      <trkpt lat="46.88996" lon="-1.70387">
        <ele>34.4</ele>
        <time>2021-12-24T08:43:37Z</time>
      </trkpt>
      <trkpt lat="46.88981" lon="-1.70385">
        <ele>34.2</ele>
        <time>2021-12-24T08:43:39Z</time>
      </trkpt>
      <trkpt lat="46.88965" lon="-1.70382">
        <ele>34.2</ele>
        <time>2021-12-24T08:43:41Z</time>
      </trkpt>
      <trkpt lat="46.8895" lon="-1.7038">
        <ele>34</ele>
        <time>2021-12-24T08:43:43Z</time>
      </trkpt>
      <trkpt lat="46.88942" lon="-1.70378">
        <ele>34</ele>
        <time>2021-12-24T08:43:44Z</time>
      </trkpt>
      <trkpt lat="46.88934" lon="-1.70377">
        <ele>34</ele>
        <time>2021-12-24T08:43:45Z</time>
      </trkpt>
      <trkpt lat="46.88918" lon="-1.70375">
        <ele>33.6</ele>
        <time>2021-12-24T08:43:47Z</time>
      </trkpt>
      <trkpt lat="46.88901" lon="-1.70372">
        <ele>33.4</ele>
        <time>2021-12-24T08:43:49Z</time>
      </trkpt>
      <trkpt lat="46.88884" lon="-1.70369">
        <ele>33</ele>
        <time>2021-12-24T08:43:51Z</time>
      </trkpt>
      <trkpt lat="46.88876" lon="-1.70367">
        <ele>33</ele>
        <time>2021-12-24T08:43:52Z</time>
      </trkpt>
      <trkpt lat="46.88868" lon="-1.70366">
        <ele>32.8</ele>
        <time>2021-12-24T08:43:53Z</time>
      </trkpt>
      <trkpt lat="46.88851" lon="-1.70364">
        <ele>32.6</ele>
        <time>2021-12-24T08:43:55Z</time>
      </trkpt>
      <trkpt lat="46.88836" lon="-1.70361">
        <ele>32.2</ele>
        <time>2021-12-24T08:43:57Z</time>
      </trkpt>
      <trkpt lat="46.8882" lon="-1.70358">
        <ele>32</ele>
        <time>2021-12-24T08:43:59Z</time>
      </trkpt>
      <trkpt lat="46.88813" lon="-1.70357">
        <ele>32</ele>
        <time>2021-12-24T08:44:00Z</time>
      </trkpt>
      <trkpt lat="46.88806" lon="-1.70356">
        <ele>32</ele>
        <time>2021-12-24T08:44:01Z</time>
      </trkpt>
      <trkpt lat="46.88792" lon="-1.70353">
        <ele>31.8</ele>
        <time>2021-12-24T08:44:03Z</time>
      </trkpt>
      <trkpt lat="46.88778" lon="-1.70351">
        <ele>31.8</ele>
        <time>2021-12-24T08:44:05Z</time>
      </trkpt>
      <trkpt lat="46.88771" lon="-1.7035">
        <ele>31.8</ele>
        <time>2021-12-24T08:44:06Z</time>
      </trkpt>
      <trkpt lat="46.88764" lon="-1.70349">
        <ele>31.6</ele>
        <time>2021-12-24T08:44:07Z</time>
      </trkpt>
      <trkpt lat="46.8875" lon="-1.70346">
        <ele>31.6</ele>
        <time>2021-12-24T08:44:09Z</time>
      </trkpt>
      <trkpt lat="46.88737" lon="-1.70345">
        <ele>31.6</ele>
        <time>2021-12-24T08:44:11Z</time>
      </trkpt>
      <trkpt lat="46.88724" lon="-1.70343">
        <ele>31.6</ele>
        <time>2021-12-24T08:44:13Z</time>
      </trkpt>
      <trkpt lat="46.88711" lon="-1.70341">
        <ele>31.6</ele>
        <time>2021-12-24T08:44:15Z</time>
      </trkpt>
      <trkpt lat="46.88704" lon="-1.7034">
        <ele>31.6</ele>
        <time>2021-12-24T08:44:16Z</time>
      </trkpt>
      <trkpt lat="46.88698" lon="-1.70339">
        <ele>31.6</ele>
        <time>2021-12-24T08:44:17Z</time>
      </trkpt>
      <trkpt lat="46.88685" lon="-1.70337">
        <ele>31.6</ele>
        <time>2021-12-24T08:44:19Z</time>
      </trkpt>
      <trkpt lat="46.88673" lon="-1.70335">
        <ele>31.6</ele>
        <time>2021-12-24T08:44:21Z</time>
      </trkpt>
      <trkpt lat="46.88661" lon="-1.70333">
        <ele>31.6</ele>
        <time>2021-12-24T08:44:23Z</time>
      </trkpt>
      <trkpt lat="46.8865" lon="-1.7033">
        <ele>31.6</ele>
        <time>2021-12-24T08:44:25Z</time>
      </trkpt>
      <trkpt lat="46.88639" lon="-1.70328">
        <ele>31.6</ele>
        <time>2021-12-24T08:44:27Z</time>
      </trkpt>
      <trkpt lat="46.88628" lon="-1.70326">
        <ele>31.2</ele>
        <time>2021-12-24T08:44:29Z</time>
      </trkpt>
      <trkpt lat="46.88622" lon="-1.70326">
        <ele>31.4</ele>
        <time>2021-12-24T08:44:30Z</time>
      </trkpt>
      <trkpt lat="46.88617" lon="-1.70326">
        <ele>31.4</ele>
        <time>2021-12-24T08:44:31Z</time>
      </trkpt>
      <trkpt lat="46.88605" lon="-1.70324">
        <ele>31.6</ele>
        <time>2021-12-24T08:44:33Z</time>
      </trkpt>
      <trkpt lat="46.88594" lon="-1.70322">
        <ele>31.4</ele>
        <time>2021-12-24T08:44:35Z</time>
      </trkpt>
      <trkpt lat="46.88583" lon="-1.70321">
        <ele>31.4</ele>
        <time>2021-12-24T08:44:37Z</time>
      </trkpt>
      <trkpt lat="46.88572" lon="-1.70319">
        <ele>31.6</ele>
        <time>2021-12-24T08:44:39Z</time>
      </trkpt>
      <trkpt lat="46.88561" lon="-1.70316">
        <ele>31.6</ele>
        <time>2021-12-24T08:44:41Z</time>
      </trkpt>
      <trkpt lat="46.88549" lon="-1.70315">
        <ele>31.8</ele>
        <time>2021-12-24T08:44:43Z</time>
      </trkpt>
      <trkpt lat="46.88538" lon="-1.70313">
        <ele>31.6</ele>
        <time>2021-12-24T08:44:45Z</time>
      </trkpt>
      <trkpt lat="46.88533" lon="-1.70312">
        <ele>31.4</ele>
        <time>2021-12-24T08:44:46Z</time>
      </trkpt>
      <trkpt lat="46.88527" lon="-1.70311">
        <ele>31.2</ele>
        <time>2021-12-24T08:44:47Z</time>
      </trkpt>
      <trkpt lat="46.88516" lon="-1.70309">
        <ele>31.4</ele>
        <time>2021-12-24T08:44:49Z</time>
      </trkpt>
      <trkpt lat="46.88504" lon="-1.70307">
        <ele>31.4</ele>
        <time>2021-12-24T08:44:51Z</time>
      </trkpt>
      <trkpt lat="46.88498" lon="-1.70306">
        <ele>31.4</ele>
        <time>2021-12-24T08:44:52Z</time>
      </trkpt>
      <trkpt lat="46.88493" lon="-1.70305">
        <ele>31.4</ele>
        <time>2021-12-24T08:44:53Z</time>
      </trkpt>
      <trkpt lat="46.88481" lon="-1.70303">
        <ele>31.4</ele>
        <time>2021-12-24T08:44:55Z</time>
      </trkpt>
      <trkpt lat="46.88469" lon="-1.70301">
        <ele>31.6</ele>
        <time>2021-12-24T08:44:57Z</time>
      </trkpt>
      <trkpt lat="46.88457" lon="-1.70299">
        <ele>31.6</ele>
        <time>2021-12-24T08:44:59Z</time>
      </trkpt>
      <trkpt lat="46.88451" lon="-1.70297">
        <ele>31.6</ele>
        <time>2021-12-24T08:45:00Z</time>
      </trkpt>
      <trkpt lat="46.88445" lon="-1.70296">
        <ele>31.8</ele>
        <time>2021-12-24T08:45:01Z</time>
      </trkpt>
      <trkpt lat="46.88433" lon="-1.70294">
        <ele>31.8</ele>
        <time>2021-12-24T08:45:03Z</time>
      </trkpt>
      <trkpt lat="46.88421" lon="-1.70293">
        <ele>31.8</ele>
        <time>2021-12-24T08:45:05Z</time>
      </trkpt>
      <trkpt lat="46.8841" lon="-1.70291">
        <ele>32</ele>
        <time>2021-12-24T08:45:07Z</time>
      </trkpt>
      <trkpt lat="46.88398" lon="-1.70289">
        <ele>32</ele>
        <time>2021-12-24T08:45:09Z</time>
      </trkpt>
      <trkpt lat="46.88387" lon="-1.70288">
        <ele>32.2</ele>
        <time>2021-12-24T08:45:11Z</time>
      </trkpt>
      <trkpt lat="46.88375" lon="-1.70287">
        <ele>32.2</ele>
        <time>2021-12-24T08:45:13Z</time>
      </trkpt>
      <trkpt lat="46.88363" lon="-1.70287">
        <ele>32.2</ele>
        <time>2021-12-24T08:45:15Z</time>
      </trkpt>
      <trkpt lat="46.88353" lon="-1.70288">
        <ele>32.2</ele>
        <time>2021-12-24T08:45:17Z</time>
      </trkpt>
      <trkpt lat="46.88349" lon="-1.70287">
        <ele>32.2</ele>
        <time>2021-12-24T08:45:18Z</time>
      </trkpt>
      <trkpt lat="46.88346" lon="-1.70284">
        <ele>32.4</ele>
        <time>2021-12-24T08:45:19Z</time>
      </trkpt>
      <trkpt lat="46.88344" lon="-1.70277">
        <ele>32.4</ele>
        <time>2021-12-24T08:45:20Z</time>
      </trkpt>
      <trkpt lat="46.88342" lon="-1.70267">
        <ele>32.2</ele>
        <time>2021-12-24T08:45:21Z</time>
      </trkpt>
      <trkpt lat="46.88338" lon="-1.70251">
        <ele>32.2</ele>
        <time>2021-12-24T08:45:23Z</time>
      </trkpt>
      <trkpt lat="46.88331" lon="-1.70236">
        <ele>32.4</ele>
        <time>2021-12-24T08:45:25Z</time>
      </trkpt>
      <trkpt lat="46.88324" lon="-1.70222">
        <ele>32.2</ele>
        <time>2021-12-24T08:45:27Z</time>
      </trkpt>
      <trkpt lat="46.88317" lon="-1.70209">
        <ele>32</ele>
        <time>2021-12-24T08:45:29Z</time>
      </trkpt>
      <trkpt lat="46.8831" lon="-1.70195">
        <ele>31.8</ele>
        <time>2021-12-24T08:45:31Z</time>
      </trkpt>
      <trkpt lat="46.88304" lon="-1.7018">
        <ele>32</ele>
        <time>2021-12-24T08:45:33Z</time>
      </trkpt>
      <trkpt lat="46.88298" lon="-1.70166">
        <ele>32</ele>
        <time>2021-12-24T08:45:35Z</time>
      </trkpt>
      <trkpt lat="46.88293" lon="-1.70152">
        <ele>32</ele>
        <time>2021-12-24T08:45:37Z</time>
      </trkpt>
      <trkpt lat="46.88288" lon="-1.70137">
        <ele>31.8</ele>
        <time>2021-12-24T08:45:39Z</time>
      </trkpt>
      <trkpt lat="46.88284" lon="-1.70123">
        <ele>32</ele>
        <time>2021-12-24T08:45:41Z</time>
      </trkpt>
      <trkpt lat="46.8828" lon="-1.70108">
        <ele>31.6</ele>
        <time>2021-12-24T08:45:43Z</time>
      </trkpt>
      <trkpt lat="46.88277" lon="-1.70093">
        <ele>31.4</ele>
        <time>2021-12-24T08:45:45Z</time>
      </trkpt>
      <trkpt lat="46.88273" lon="-1.70078">
        <ele>31.4</ele>
        <time>2021-12-24T08:45:47Z</time>
      </trkpt>
      <trkpt lat="46.8827" lon="-1.70063">
        <ele>31.2</ele>
        <time>2021-12-24T08:45:49Z</time>
      </trkpt>
      <trkpt lat="46.88266" lon="-1.70048">
        <ele>31.2</ele>
        <time>2021-12-24T08:45:51Z</time>
      </trkpt>
      <trkpt lat="46.88262" lon="-1.70033">
        <ele>31.2</ele>
        <time>2021-12-24T08:45:53Z</time>
      </trkpt>
      <trkpt lat="46.88258" lon="-1.70019">
        <ele>31</ele>
        <time>2021-12-24T08:45:55Z</time>
      </trkpt>
      <trkpt lat="46.88255" lon="-1.70012">
        <ele>31</ele>
        <time>2021-12-24T08:45:56Z</time>
      </trkpt>
      <trkpt lat="46.88252" lon="-1.70005">
        <ele>31</ele>
        <time>2021-12-24T08:45:57Z</time>
      </trkpt>
      <trkpt lat="46.88247" lon="-1.69993">
        <ele>30.8</ele>
        <time>2021-12-24T08:45:59Z</time>
      </trkpt>
      <trkpt lat="46.88241" lon="-1.69983">
        <ele>30.8</ele>
        <time>2021-12-24T08:46:01Z</time>
      </trkpt>
      <trkpt lat="46.88239" lon="-1.69978">
        <ele>30.8</ele>
        <time>2021-12-24T08:46:02Z</time>
      </trkpt>
      <trkpt lat="46.88237" lon="-1.69974">
        <ele>30.8</ele>
        <time>2021-12-24T08:46:03Z</time>
      </trkpt>
      <trkpt lat="46.88232" lon="-1.69969">
        <ele>30.6</ele>
        <time>2021-12-24T08:46:05Z</time>
      </trkpt>
      <trkpt lat="46.8823" lon="-1.69966">
        <ele>30.4</ele>
        <time>2021-12-24T08:46:06Z</time>
      </trkpt>
      <trkpt lat="46.88228" lon="-1.69962">
        <ele>30.4</ele>
        <time>2021-12-24T08:46:07Z</time>
      </trkpt>
      <trkpt lat="46.88224" lon="-1.69954">
        <ele>30.2</ele>
        <time>2021-12-24T08:46:09Z</time>
      </trkpt>
      <trkpt lat="46.88221" lon="-1.69949">
        <ele>30.2</ele>
        <time>2021-12-24T08:46:10Z</time>
      </trkpt>
      <trkpt lat="46.88218" lon="-1.69944">
        <ele>30.2</ele>
        <time>2021-12-24T08:46:11Z</time>
      </trkpt>
      <trkpt lat="46.88213" lon="-1.69933">
        <ele>30.4</ele>
        <time>2021-12-24T08:46:13Z</time>
      </trkpt>
      <trkpt lat="46.8821" lon="-1.69928">
        <ele>30.4</ele>
        <time>2021-12-24T08:46:14Z</time>
      </trkpt>
      <trkpt lat="46.88208" lon="-1.69921">
        <ele>30.4</ele>
        <time>2021-12-24T08:46:15Z</time>
      </trkpt>
      <trkpt lat="46.88206" lon="-1.69915">
        <ele>30.2</ele>
        <time>2021-12-24T08:46:16Z</time>
      </trkpt>
      <trkpt lat="46.88203" lon="-1.69908">
        <ele>30.2</ele>
        <time>2021-12-24T08:46:17Z</time>
      </trkpt>
      <trkpt lat="46.88198" lon="-1.69895">
        <ele>30.2</ele>
        <time>2021-12-24T08:46:19Z</time>
      </trkpt>
      <trkpt lat="46.88192" lon="-1.69881">
        <ele>30.2</ele>
        <time>2021-12-24T08:46:21Z</time>
      </trkpt>
      <trkpt lat="46.88186" lon="-1.69868">
        <ele>30</ele>
        <time>2021-12-24T08:46:23Z</time>
      </trkpt>
      <trkpt lat="46.88182" lon="-1.69861">
        <ele>30</ele>
        <time>2021-12-24T08:46:24Z</time>
      </trkpt>
      <trkpt lat="46.88178" lon="-1.69856">
        <ele>30</ele>
        <time>2021-12-24T08:46:25Z</time>
      </trkpt>
      <trkpt lat="46.88167" lon="-1.69848">
        <ele>29.8</ele>
        <time>2021-12-24T08:46:27Z</time>
      </trkpt>
      <trkpt lat="46.88161" lon="-1.69847">
        <ele>29.8</ele>
        <time>2021-12-24T08:46:28Z</time>
      </trkpt>
      <trkpt lat="46.88156" lon="-1.69847">
        <ele>29.8</ele>
        <time>2021-12-24T08:46:29Z</time>
      </trkpt>
      <trkpt lat="46.88144" lon="-1.69851">
        <ele>29.8</ele>
        <time>2021-12-24T08:46:31Z</time>
      </trkpt>
      <trkpt lat="46.88139" lon="-1.69853">
        <ele>29.8</ele>
        <time>2021-12-24T08:46:32Z</time>
      </trkpt>
      <trkpt lat="46.88133" lon="-1.69855">
        <ele>29.8</ele>
        <time>2021-12-24T08:46:33Z</time>
      </trkpt>
      <trkpt lat="46.88122" lon="-1.69861">
        <ele>29.8</ele>
        <time>2021-12-24T08:46:35Z</time>
      </trkpt>
      <trkpt lat="46.88111" lon="-1.69866">
        <ele>29.8</ele>
        <time>2021-12-24T08:46:37Z</time>
      </trkpt>
      <trkpt lat="46.881" lon="-1.69871">
        <ele>29.8</ele>
        <time>2021-12-24T08:46:39Z</time>
      </trkpt>
      <trkpt lat="46.88095" lon="-1.69873">
        <ele>29.8</ele>
        <time>2021-12-24T08:46:40Z</time>
      </trkpt>
      <trkpt lat="46.88089" lon="-1.69876">
        <ele>29.8</ele>
        <time>2021-12-24T08:46:41Z</time>
      </trkpt>
      <trkpt lat="46.88079" lon="-1.69881">
        <ele>29.6</ele>
        <time>2021-12-24T08:46:43Z</time>
      </trkpt>
      <trkpt lat="46.88068" lon="-1.69886">
        <ele>30.2</ele>
        <time>2021-12-24T08:46:45Z</time>
      </trkpt>
      <trkpt lat="46.88057" lon="-1.69891">
        <ele>30.2</ele>
        <time>2021-12-24T08:46:47Z</time>
      </trkpt>
      <trkpt lat="46.88052" lon="-1.69894">
        <ele>30.2</ele>
        <time>2021-12-24T08:46:48Z</time>
      </trkpt>
      <trkpt lat="46.88046" lon="-1.69897">
        <ele>30.4</ele>
        <time>2021-12-24T08:46:49Z</time>
      </trkpt>
      <trkpt lat="46.88036" lon="-1.69902">
        <ele>30.6</ele>
        <time>2021-12-24T08:46:51Z</time>
      </trkpt>
      <trkpt lat="46.88026" lon="-1.69908">
        <ele>30.8</ele>
        <time>2021-12-24T08:46:53Z</time>
      </trkpt>
      <trkpt lat="46.88016" lon="-1.69915">
        <ele>30.8</ele>
        <time>2021-12-24T08:46:55Z</time>
      </trkpt>
      <trkpt lat="46.88011" lon="-1.69918">
        <ele>30.8</ele>
        <time>2021-12-24T08:46:56Z</time>
      </trkpt>
      <trkpt lat="46.88006" lon="-1.69921">
        <ele>30.8</ele>
        <time>2021-12-24T08:46:57Z</time>
      </trkpt>
      <trkpt lat="46.87996" lon="-1.69928">
        <ele>31</ele>
        <time>2021-12-24T08:46:59Z</time>
      </trkpt>
      <trkpt lat="46.87985" lon="-1.69935">
        <ele>31</ele>
        <time>2021-12-24T08:47:01Z</time>
      </trkpt>
      <trkpt lat="46.87975" lon="-1.69942">
        <ele>31.2</ele>
        <time>2021-12-24T08:47:03Z</time>
      </trkpt>
      <trkpt lat="46.87965" lon="-1.69949">
        <ele>31.2</ele>
        <time>2021-12-24T08:47:05Z</time>
      </trkpt>
      <trkpt lat="46.87955" lon="-1.69955">
        <ele>31.2</ele>
        <time>2021-12-24T08:47:07Z</time>
      </trkpt>
      <trkpt lat="46.87946" lon="-1.69961">
        <ele>31.4</ele>
        <time>2021-12-24T08:47:09Z</time>
      </trkpt>
      <trkpt lat="46.87936" lon="-1.69968">
        <ele>31.6</ele>
        <time>2021-12-24T08:47:11Z</time>
      </trkpt>
      <trkpt lat="46.87926" lon="-1.69976">
        <ele>31.6</ele>
        <time>2021-12-24T08:47:13Z</time>
      </trkpt>
      <trkpt lat="46.87915" lon="-1.69983">
        <ele>31.6</ele>
        <time>2021-12-24T08:47:15Z</time>
      </trkpt>
      <trkpt lat="46.87904" lon="-1.6999">
        <ele>31.6</ele>
        <time>2021-12-24T08:47:17Z</time>
      </trkpt>
      <trkpt lat="46.87893" lon="-1.69997">
        <ele>31.8</ele>
        <time>2021-12-24T08:47:19Z</time>
      </trkpt>
      <trkpt lat="46.87882" lon="-1.70004">
        <ele>32</ele>
        <time>2021-12-24T08:47:21Z</time>
      </trkpt>
      <trkpt lat="46.87873" lon="-1.70011">
        <ele>32</ele>
        <time>2021-12-24T08:47:23Z</time>
      </trkpt>
      <trkpt lat="46.87867" lon="-1.70018">
        <ele>32.2</ele>
        <time>2021-12-24T08:47:25Z</time>
      </trkpt>
      <trkpt lat="46.87864" lon="-1.7002">
        <ele>32.2</ele>
        <time>2021-12-24T08:47:26Z</time>
      </trkpt>
      <trkpt lat="46.8786" lon="-1.7002">
        <ele>32.2</ele>
        <time>2021-12-24T08:47:27Z</time>
      </trkpt>
      <trkpt lat="46.87854" lon="-1.70014">
        <ele>32.2</ele>
        <time>2021-12-24T08:47:29Z</time>
      </trkpt>
      <trkpt lat="46.87847" lon="-1.70008">
        <ele>32.2</ele>
        <time>2021-12-24T08:47:31Z</time>
      </trkpt>
      <trkpt lat="46.8784" lon="-1.70001">
        <ele>32.2</ele>
        <time>2021-12-24T08:47:33Z</time>
      </trkpt>
      <trkpt lat="46.87833" lon="-1.69995">
        <ele>32.4</ele>
        <time>2021-12-24T08:47:35Z</time>
      </trkpt>
      <trkpt lat="46.87825" lon="-1.69989">
        <ele>32.4</ele>
        <time>2021-12-24T08:47:37Z</time>
      </trkpt>
      <trkpt lat="46.87818" lon="-1.69982">
        <ele>32.6</ele>
        <time>2021-12-24T08:47:39Z</time>
      </trkpt>
      <trkpt lat="46.8781" lon="-1.69977">
        <ele>32.6</ele>
        <time>2021-12-24T08:47:41Z</time>
      </trkpt>
      <trkpt lat="46.87802" lon="-1.6997">
        <ele>32.8</ele>
        <time>2021-12-24T08:47:43Z</time>
      </trkpt>
      <trkpt lat="46.87794" lon="-1.69964">
        <ele>32.8</ele>
        <time>2021-12-24T08:47:45Z</time>
      </trkpt>
      <trkpt lat="46.87786" lon="-1.69959">
        <ele>33</ele>
        <time>2021-12-24T08:47:47Z</time>
      </trkpt>
      <trkpt lat="46.87782" lon="-1.69956">
        <ele>33</ele>
        <time>2021-12-24T08:47:48Z</time>
      </trkpt>
      <trkpt lat="46.87778" lon="-1.69954">
        <ele>33.2</ele>
        <time>2021-12-24T08:47:49Z</time>
      </trkpt>
      <trkpt lat="46.87774" lon="-1.69951">
        <ele>33.2</ele>
        <time>2021-12-24T08:47:50Z</time>
      </trkpt>
      <trkpt lat="46.87771" lon="-1.69948">
        <ele>33.2</ele>
        <time>2021-12-24T08:47:51Z</time>
      </trkpt>
      <trkpt lat="46.87767" lon="-1.69945">
        <ele>33.2</ele>
        <time>2021-12-24T08:47:52Z</time>
      </trkpt>
      <trkpt lat="46.87763" lon="-1.69942">
        <ele>33.2</ele>
        <time>2021-12-24T08:47:53Z</time>
      </trkpt>
      <trkpt lat="46.87755" lon="-1.69936">
        <ele>33.4</ele>
        <time>2021-12-24T08:47:55Z</time>
      </trkpt>
      <trkpt lat="46.87752" lon="-1.69934">
        <ele>33.4</ele>
        <time>2021-12-24T08:47:56Z</time>
      </trkpt>
      <trkpt lat="46.87748" lon="-1.69932">
        <ele>33.4</ele>
        <time>2021-12-24T08:47:57Z</time>
      </trkpt>
      <trkpt lat="46.87741" lon="-1.69927">
        <ele>33.6</ele>
        <time>2021-12-24T08:47:59Z</time>
      </trkpt>
      <trkpt lat="46.87733" lon="-1.6992">
        <ele>33.6</ele>
        <time>2021-12-24T08:48:01Z</time>
      </trkpt>
      <trkpt lat="46.87729" lon="-1.69917">
        <ele>33.6</ele>
        <time>2021-12-24T08:48:02Z</time>
      </trkpt>
      <trkpt lat="46.87725" lon="-1.69914">
        <ele>33.8</ele>
        <time>2021-12-24T08:48:03Z</time>
      </trkpt>
      <trkpt lat="46.87717" lon="-1.6991">
        <ele>33.8</ele>
        <time>2021-12-24T08:48:05Z</time>
      </trkpt>
      <trkpt lat="46.87708" lon="-1.69906">
        <ele>34</ele>
        <time>2021-12-24T08:48:07Z</time>
      </trkpt>
      <trkpt lat="46.87699" lon="-1.69902">
        <ele>34.2</ele>
        <time>2021-12-24T08:48:09Z</time>
      </trkpt>
      <trkpt lat="46.8769" lon="-1.69898">
        <ele>34.4</ele>
        <time>2021-12-24T08:48:11Z</time>
      </trkpt>
      <trkpt lat="46.87681" lon="-1.69893">
        <ele>34.6</ele>
        <time>2021-12-24T08:48:13Z</time>
      </trkpt>
      <trkpt lat="46.87677" lon="-1.69891">
        <ele>34.6</ele>
        <time>2021-12-24T08:48:14Z</time>
      </trkpt>
      <trkpt lat="46.87673" lon="-1.69891">
        <ele>34.6</ele>
        <time>2021-12-24T08:48:15Z</time>
      </trkpt>
      <trkpt lat="46.87662" lon="-1.69889">
        <ele>34.8</ele>
        <time>2021-12-24T08:48:17Z</time>
      </trkpt>
      <trkpt lat="46.87657" lon="-1.69887">
        <ele>35</ele>
        <time>2021-12-24T08:48:18Z</time>
      </trkpt>
      <trkpt lat="46.87653" lon="-1.69885">
        <ele>35</ele>
        <time>2021-12-24T08:48:19Z</time>
      </trkpt>
      <trkpt lat="46.87643" lon="-1.69881">
        <ele>35.2</ele>
        <time>2021-12-24T08:48:21Z</time>
      </trkpt>
      <trkpt lat="46.87633" lon="-1.69877">
        <ele>35.4</ele>
        <time>2021-12-24T08:48:23Z</time>
      </trkpt>
      <trkpt lat="46.87623" lon="-1.69872">
        <ele>35.6</ele>
        <time>2021-12-24T08:48:25Z</time>
      </trkpt>
      <trkpt lat="46.87614" lon="-1.69867">
        <ele>35.8</ele>
        <time>2021-12-24T08:48:27Z</time>
      </trkpt>
      <trkpt lat="46.87605" lon="-1.69863">
        <ele>36</ele>
        <time>2021-12-24T08:48:29Z</time>
      </trkpt>
      <trkpt lat="46.87596" lon="-1.69859">
        <ele>36.2</ele>
        <time>2021-12-24T08:48:31Z</time>
      </trkpt>
      <trkpt lat="46.87587" lon="-1.69856">
        <ele>36.4</ele>
        <time>2021-12-24T08:48:33Z</time>
      </trkpt>
      <trkpt lat="46.87583" lon="-1.69855">
        <ele>36.6</ele>
        <time>2021-12-24T08:48:34Z</time>
      </trkpt>
      <trkpt lat="46.87579" lon="-1.69853">
        <ele>36.6</ele>
        <time>2021-12-24T08:48:35Z</time>
      </trkpt>
      <trkpt lat="46.8757" lon="-1.6985">
        <ele>36.8</ele>
        <time>2021-12-24T08:48:37Z</time>
      </trkpt>
      <trkpt lat="46.87561" lon="-1.69846">
        <ele>37</ele>
        <time>2021-12-24T08:48:39Z</time>
      </trkpt>
      <trkpt lat="46.87557" lon="-1.69844">
        <ele>37.2</ele>
        <time>2021-12-24T08:48:40Z</time>
      </trkpt>
      <trkpt lat="46.87552" lon="-1.69842">
        <ele>37.2</ele>
        <time>2021-12-24T08:48:41Z</time>
      </trkpt>
      <trkpt lat="46.87544" lon="-1.69839">
        <ele>37.4</ele>
        <time>2021-12-24T08:48:43Z</time>
      </trkpt>
      <trkpt lat="46.87539" lon="-1.69837">
        <ele>37.6</ele>
        <time>2021-12-24T08:48:44Z</time>
      </trkpt>
      <trkpt lat="46.87535" lon="-1.69835">
        <ele>37.6</ele>
        <time>2021-12-24T08:48:45Z</time>
      </trkpt>
      <trkpt lat="46.87527" lon="-1.69832">
        <ele>38</ele>
        <time>2021-12-24T08:48:47Z</time>
      </trkpt>
      <trkpt lat="46.87523" lon="-1.69831">
        <ele>38</ele>
        <time>2021-12-24T08:48:48Z</time>
      </trkpt>
      <trkpt lat="46.87519" lon="-1.69829">
        <ele>38</ele>
        <time>2021-12-24T08:48:49Z</time>
      </trkpt>
      <trkpt lat="46.8751" lon="-1.69825">
        <ele>38.4</ele>
        <time>2021-12-24T08:48:51Z</time>
      </trkpt>
      <trkpt lat="46.87505" lon="-1.69823">
        <ele>38.4</ele>
        <time>2021-12-24T08:48:52Z</time>
      </trkpt>
      <trkpt lat="46.87501" lon="-1.69821">
        <ele>38.4</ele>
        <time>2021-12-24T08:48:53Z</time>
      </trkpt>
      <trkpt lat="46.87492" lon="-1.69818">
        <ele>38.6</ele>
        <time>2021-12-24T08:48:55Z</time>
      </trkpt>
      <trkpt lat="46.87488" lon="-1.69817">
        <ele>38.8</ele>
        <time>2021-12-24T08:48:56Z</time>
      </trkpt>
      <trkpt lat="46.87484" lon="-1.69815">
        <ele>39</ele>
        <time>2021-12-24T08:48:57Z</time>
      </trkpt>
      <trkpt lat="46.87479" lon="-1.69813">
        <ele>39</ele>
        <time>2021-12-24T08:48:58Z</time>
      </trkpt>
      <trkpt lat="46.87475" lon="-1.69811">
        <ele>39.2</ele>
        <time>2021-12-24T08:48:59Z</time>
      </trkpt>
      <trkpt lat="46.87466" lon="-1.69807">
        <ele>39.4</ele>
        <time>2021-12-24T08:49:01Z</time>
      </trkpt>
      <trkpt lat="46.87457" lon="-1.69804">
        <ele>39.6</ele>
        <time>2021-12-24T08:49:03Z</time>
      </trkpt>
      <trkpt lat="46.87453" lon="-1.69802">
        <ele>39.8</ele>
        <time>2021-12-24T08:49:04Z</time>
      </trkpt>
      <trkpt lat="46.87449" lon="-1.698">
        <ele>39.8</ele>
        <time>2021-12-24T08:49:05Z</time>
      </trkpt>
      <trkpt lat="46.87444" lon="-1.69798">
        <ele>40</ele>
        <time>2021-12-24T08:49:06Z</time>
      </trkpt>
      <trkpt lat="46.8744" lon="-1.69796">
        <ele>40</ele>
        <time>2021-12-24T08:49:07Z</time>
      </trkpt>
      <trkpt lat="46.87431" lon="-1.69792">
        <ele>40.4</ele>
        <time>2021-12-24T08:49:09Z</time>
      </trkpt>
      <trkpt lat="46.87423" lon="-1.69788">
        <ele>40.6</ele>
        <time>2021-12-24T08:49:11Z</time>
      </trkpt>
      <trkpt lat="46.87414" lon="-1.69785">
        <ele>40.6</ele>
        <time>2021-12-24T08:49:13Z</time>
      </trkpt>
      <trkpt lat="46.87406" lon="-1.69781">
        <ele>40.8</ele>
        <time>2021-12-24T08:49:15Z</time>
      </trkpt>
      <trkpt lat="46.87398" lon="-1.69777">
        <ele>41</ele>
        <time>2021-12-24T08:49:17Z</time>
      </trkpt>
      <trkpt lat="46.87389" lon="-1.69773">
        <ele>41.2</ele>
        <time>2021-12-24T08:49:19Z</time>
      </trkpt>
      <trkpt lat="46.8738" lon="-1.69769">
        <ele>41.4</ele>
        <time>2021-12-24T08:49:21Z</time>
      </trkpt>
      <trkpt lat="46.87376" lon="-1.69767">
        <ele>41.4</ele>
        <time>2021-12-24T08:49:22Z</time>
      </trkpt>
      <trkpt lat="46.87371" lon="-1.69763">
        <ele>41.6</ele>
        <time>2021-12-24T08:49:23Z</time>
      </trkpt>
      <trkpt lat="46.87361" lon="-1.69758">
        <ele>41.6</ele>
        <time>2021-12-24T08:49:25Z</time>
      </trkpt>
      <trkpt lat="46.87351" lon="-1.69757">
        <ele>41.8</ele>
        <time>2021-12-24T08:49:27Z</time>
      </trkpt>
      <trkpt lat="46.87344" lon="-1.69756">
        <ele>42</ele>
        <time>2021-12-24T08:49:29Z</time>
      </trkpt>
      <trkpt lat="46.87335" lon="-1.69751">
        <ele>42.4</ele>
        <time>2021-12-24T08:49:31Z</time>
      </trkpt>
      <trkpt lat="46.8733" lon="-1.69748">
        <ele>42.4</ele>
        <time>2021-12-24T08:49:32Z</time>
      </trkpt>
      <trkpt lat="46.87326" lon="-1.69745">
        <ele>42.6</ele>
        <time>2021-12-24T08:49:33Z</time>
      </trkpt>
      <trkpt lat="46.87317" lon="-1.69739">
        <ele>42.8</ele>
        <time>2021-12-24T08:49:35Z</time>
      </trkpt>
      <trkpt lat="46.87308" lon="-1.69734">
        <ele>43</ele>
        <time>2021-12-24T08:49:37Z</time>
      </trkpt>
      <trkpt lat="46.87303" lon="-1.69731">
        <ele>43.2</ele>
        <time>2021-12-24T08:49:38Z</time>
      </trkpt>
      <trkpt lat="46.87299" lon="-1.69728">
        <ele>43.4</ele>
        <time>2021-12-24T08:49:39Z</time>
      </trkpt>
      <trkpt lat="46.8729" lon="-1.69724">
        <ele>43.6</ele>
        <time>2021-12-24T08:49:41Z</time>
      </trkpt>
      <trkpt lat="46.87285" lon="-1.69721">
        <ele>43.6</ele>
        <time>2021-12-24T08:49:42Z</time>
      </trkpt>
      <trkpt lat="46.87281" lon="-1.69718">
        <ele>43.8</ele>
        <time>2021-12-24T08:49:43Z</time>
      </trkpt>
      <trkpt lat="46.87272" lon="-1.69712">
        <ele>44</ele>
        <time>2021-12-24T08:49:45Z</time>
      </trkpt>
      <trkpt lat="46.87262" lon="-1.69706">
        <ele>44.2</ele>
        <time>2021-12-24T08:49:47Z</time>
      </trkpt>
      <trkpt lat="46.87252" lon="-1.69701">
        <ele>44.2</ele>
        <time>2021-12-24T08:49:49Z</time>
      </trkpt>
      <trkpt lat="46.87243" lon="-1.69696">
        <ele>44.4</ele>
        <time>2021-12-24T08:49:51Z</time>
      </trkpt>
      <trkpt lat="46.87234" lon="-1.69691">
        <ele>44.6</ele>
        <time>2021-12-24T08:49:53Z</time>
      </trkpt>
      <trkpt lat="46.87225" lon="-1.69686">
        <ele>44.8</ele>
        <time>2021-12-24T08:49:55Z</time>
      </trkpt>
      <trkpt lat="46.87217" lon="-1.69681">
        <ele>45</ele>
        <time>2021-12-24T08:49:57Z</time>
      </trkpt>
      <trkpt lat="46.87208" lon="-1.69676">
        <ele>45.2</ele>
        <time>2021-12-24T08:49:59Z</time>
      </trkpt>
      <trkpt lat="46.872" lon="-1.69672">
        <ele>45.4</ele>
        <time>2021-12-24T08:50:01Z</time>
      </trkpt>
      <trkpt lat="46.87191" lon="-1.69667">
        <ele>45.6</ele>
        <time>2021-12-24T08:50:03Z</time>
      </trkpt>
      <trkpt lat="46.87183" lon="-1.69662">
        <ele>45.8</ele>
        <time>2021-12-24T08:50:05Z</time>
      </trkpt>
      <trkpt lat="46.87175" lon="-1.69659">
        <ele>46</ele>
        <time>2021-12-24T08:50:07Z</time>
      </trkpt>
      <trkpt lat="46.87171" lon="-1.69657">
        <ele>46.2</ele>
        <time>2021-12-24T08:50:08Z</time>
      </trkpt>
      <trkpt lat="46.87167" lon="-1.69655">
        <ele>46.2</ele>
        <time>2021-12-24T08:50:09Z</time>
      </trkpt>
      <trkpt lat="46.87159" lon="-1.6965">
        <ele>46.4</ele>
        <time>2021-12-24T08:50:11Z</time>
      </trkpt>
      <trkpt lat="46.87154" lon="-1.69648">
        <ele>46.4</ele>
        <time>2021-12-24T08:50:12Z</time>
      </trkpt>
      <trkpt lat="46.8715" lon="-1.69646">
        <ele>46.6</ele>
        <time>2021-12-24T08:50:13Z</time>
      </trkpt>
      <trkpt lat="46.87146" lon="-1.69644">
        <ele>46.6</ele>
        <time>2021-12-24T08:50:14Z</time>
      </trkpt>
      <trkpt lat="46.87142" lon="-1.69642">
        <ele>46.8</ele>
        <time>2021-12-24T08:50:15Z</time>
      </trkpt>
      <trkpt lat="46.87133" lon="-1.69636">
        <ele>47</ele>
        <time>2021-12-24T08:50:17Z</time>
      </trkpt>
      <trkpt lat="46.87124" lon="-1.69631">
        <ele>47.2</ele>
        <time>2021-12-24T08:50:19Z</time>
      </trkpt>
      <trkpt lat="46.87116" lon="-1.69625">
        <ele>47.4</ele>
        <time>2021-12-24T08:50:21Z</time>
      </trkpt>
      <trkpt lat="46.87106" lon="-1.69618">
        <ele>47.4</ele>
        <time>2021-12-24T08:50:23Z</time>
      </trkpt>
      <trkpt lat="46.87101" lon="-1.69615">
        <ele>47.6</ele>
        <time>2021-12-24T08:50:24Z</time>
      </trkpt>
      <trkpt lat="46.87096" lon="-1.69612">
        <ele>47.6</ele>
        <time>2021-12-24T08:50:25Z</time>
      </trkpt>
      <trkpt lat="46.87086" lon="-1.69605">
        <ele>47.6</ele>
        <time>2021-12-24T08:50:27Z</time>
      </trkpt>
      <trkpt lat="46.87076" lon="-1.69598">
        <ele>47.6</ele>
        <time>2021-12-24T08:50:29Z</time>
      </trkpt>
      <trkpt lat="46.87067" lon="-1.69591">
        <ele>47.8</ele>
        <time>2021-12-24T08:50:31Z</time>
      </trkpt>
      <trkpt lat="46.87057" lon="-1.69584">
        <ele>47.8</ele>
        <time>2021-12-24T08:50:33Z</time>
      </trkpt>
      <trkpt lat="46.87047" lon="-1.69577">
        <ele>48</ele>
        <time>2021-12-24T08:50:35Z</time>
      </trkpt>
      <trkpt lat="46.87038" lon="-1.69571">
        <ele>48</ele>
        <time>2021-12-24T08:50:37Z</time>
      </trkpt>
      <trkpt lat="46.87029" lon="-1.69566">
        <ele>48.2</ele>
        <time>2021-12-24T08:50:39Z</time>
      </trkpt>
      <trkpt lat="46.87022" lon="-1.69563">
        <ele>48.2</ele>
        <time>2021-12-24T08:50:41Z</time>
      </trkpt>
      <trkpt lat="46.87014" lon="-1.6956">
        <ele>48.4</ele>
        <time>2021-12-24T08:50:43Z</time>
      </trkpt>
      <trkpt lat="46.87005" lon="-1.69554">
        <ele>48.4</ele>
        <time>2021-12-24T08:50:45Z</time>
      </trkpt>
      <trkpt lat="46.87001" lon="-1.69551">
        <ele>48.4</ele>
        <time>2021-12-24T08:50:46Z</time>
      </trkpt>
      <trkpt lat="46.86996" lon="-1.69549">
        <ele>48.4</ele>
        <time>2021-12-24T08:50:47Z</time>
      </trkpt>
      <trkpt lat="46.86986" lon="-1.69542">
        <ele>48.6</ele>
        <time>2021-12-24T08:50:49Z</time>
      </trkpt>
      <trkpt lat="46.86975" lon="-1.69533">
        <ele>48.8</ele>
        <time>2021-12-24T08:50:51Z</time>
      </trkpt>
      <trkpt lat="46.86965" lon="-1.69525">
        <ele>48.8</ele>
        <time>2021-12-24T08:50:53Z</time>
      </trkpt>
      <trkpt lat="46.86954" lon="-1.69518">
        <ele>49</ele>
        <time>2021-12-24T08:50:55Z</time>
      </trkpt>
      <trkpt lat="46.86945" lon="-1.69512">
        <ele>49.2</ele>
        <time>2021-12-24T08:50:57Z</time>
      </trkpt>
      <trkpt lat="46.86935" lon="-1.69507">
        <ele>49.2</ele>
        <time>2021-12-24T08:50:59Z</time>
      </trkpt>
      <trkpt lat="46.86925" lon="-1.69502">
        <ele>49.4</ele>
        <time>2021-12-24T08:51:01Z</time>
      </trkpt>
      <trkpt lat="46.86915" lon="-1.69498">
        <ele>49.4</ele>
        <time>2021-12-24T08:51:03Z</time>
      </trkpt>
      <trkpt lat="46.86904" lon="-1.69493">
        <ele>49.4</ele>
        <time>2021-12-24T08:51:05Z</time>
      </trkpt>
      <trkpt lat="46.86894" lon="-1.6949">
        <ele>49.4</ele>
        <time>2021-12-24T08:51:07Z</time>
      </trkpt>
      <trkpt lat="46.86884" lon="-1.69486">
        <ele>49.6</ele>
        <time>2021-12-24T08:51:09Z</time>
      </trkpt>
      <trkpt lat="46.86875" lon="-1.69482">
        <ele>49.6</ele>
        <time>2021-12-24T08:51:11Z</time>
      </trkpt>
      <trkpt lat="46.86865" lon="-1.69479">
        <ele>49.8</ele>
        <time>2021-12-24T08:51:13Z</time>
      </trkpt>
      <trkpt lat="46.86855" lon="-1.69474">
        <ele>50</ele>
        <time>2021-12-24T08:51:15Z</time>
      </trkpt>
      <trkpt lat="46.8685" lon="-1.69472">
        <ele>50</ele>
        <time>2021-12-24T08:51:16Z</time>
      </trkpt>
      <trkpt lat="46.86846" lon="-1.6947">
        <ele>50</ele>
        <time>2021-12-24T08:51:17Z</time>
      </trkpt>
      <trkpt lat="46.86836" lon="-1.69467">
        <ele>50.2</ele>
        <time>2021-12-24T08:51:19Z</time>
      </trkpt>
      <trkpt lat="46.86826" lon="-1.69463">
        <ele>50.4</ele>
        <time>2021-12-24T08:51:21Z</time>
      </trkpt>
      <trkpt lat="46.86821" lon="-1.69461">
        <ele>50.4</ele>
        <time>2021-12-24T08:51:22Z</time>
      </trkpt>
      <trkpt lat="46.86816" lon="-1.69459">
        <ele>50.6</ele>
        <time>2021-12-24T08:51:23Z</time>
      </trkpt>
      <trkpt lat="46.86806" lon="-1.69455">
        <ele>50.8</ele>
        <time>2021-12-24T08:51:25Z</time>
      </trkpt>
      <trkpt lat="46.86796" lon="-1.69451">
        <ele>50.8</ele>
        <time>2021-12-24T08:51:27Z</time>
      </trkpt>
      <trkpt lat="46.86787" lon="-1.69446">
        <ele>51</ele>
        <time>2021-12-24T08:51:29Z</time>
      </trkpt>
      <trkpt lat="46.86777" lon="-1.69442">
        <ele>51.2</ele>
        <time>2021-12-24T08:51:31Z</time>
      </trkpt>
      <trkpt lat="46.86767" lon="-1.69438">
        <ele>51.2</ele>
        <time>2021-12-24T08:51:33Z</time>
      </trkpt>
      <trkpt lat="46.86762" lon="-1.69436">
        <ele>51.2</ele>
        <time>2021-12-24T08:51:34Z</time>
      </trkpt>
      <trkpt lat="46.86757" lon="-1.69434">
        <ele>51.2</ele>
        <time>2021-12-24T08:51:35Z</time>
      </trkpt>
      <trkpt lat="46.86753" lon="-1.69433">
        <ele>51.2</ele>
        <time>2021-12-24T08:51:36Z</time>
      </trkpt>
      <trkpt lat="46.86748" lon="-1.69431">
        <ele>51.2</ele>
        <time>2021-12-24T08:51:37Z</time>
      </trkpt>
      <trkpt lat="46.86737" lon="-1.69427">
        <ele>51.4</ele>
        <time>2021-12-24T08:51:39Z</time>
      </trkpt>
      <trkpt lat="46.86727" lon="-1.69423">
        <ele>51.6</ele>
        <time>2021-12-24T08:51:41Z</time>
      </trkpt>
      <trkpt lat="46.86716" lon="-1.69419">
        <ele>51.6</ele>
        <time>2021-12-24T08:51:43Z</time>
      </trkpt>
      <trkpt lat="46.86705" lon="-1.69415">
        <ele>51.8</ele>
        <time>2021-12-24T08:51:45Z</time>
      </trkpt>
      <trkpt lat="46.86695" lon="-1.69411">
        <ele>52</ele>
        <time>2021-12-24T08:51:47Z</time>
      </trkpt>
      <trkpt lat="46.86689" lon="-1.69409">
        <ele>52</ele>
        <time>2021-12-24T08:51:48Z</time>
      </trkpt>
      <trkpt lat="46.86684" lon="-1.69407">
        <ele>52</ele>
        <time>2021-12-24T08:51:49Z</time>
      </trkpt>
      <trkpt lat="46.86673" lon="-1.69402">
        <ele>52.2</ele>
        <time>2021-12-24T08:51:51Z</time>
      </trkpt>
      <trkpt lat="46.86662" lon="-1.69398">
        <ele>52.4</ele>
        <time>2021-12-24T08:51:53Z</time>
      </trkpt>
      <trkpt lat="46.8665" lon="-1.69393">
        <ele>52.4</ele>
        <time>2021-12-24T08:51:55Z</time>
      </trkpt>
      <trkpt lat="46.86638" lon="-1.69388">
        <ele>52.6</ele>
        <time>2021-12-24T08:51:57Z</time>
      </trkpt>
      <trkpt lat="46.86626" lon="-1.69383">
        <ele>52.8</ele>
        <time>2021-12-24T08:51:59Z</time>
      </trkpt>
      <trkpt lat="46.86614" lon="-1.69378">
        <ele>53</ele>
        <time>2021-12-24T08:52:01Z</time>
      </trkpt>
      <trkpt lat="46.86603" lon="-1.69374">
        <ele>53</ele>
        <time>2021-12-24T08:52:03Z</time>
      </trkpt>
      <trkpt lat="46.86591" lon="-1.69369">
        <ele>53.2</ele>
        <time>2021-12-24T08:52:05Z</time>
      </trkpt>
      <trkpt lat="46.8658" lon="-1.69365">
        <ele>53.4</ele>
        <time>2021-12-24T08:52:07Z</time>
      </trkpt>
      <trkpt lat="46.86568" lon="-1.6936">
        <ele>53.6</ele>
        <time>2021-12-24T08:52:09Z</time>
      </trkpt>
      <trkpt lat="46.86556" lon="-1.69356">
        <ele>53.6</ele>
        <time>2021-12-24T08:52:11Z</time>
      </trkpt>
      <trkpt lat="46.86545" lon="-1.69351">
        <ele>53.8</ele>
        <time>2021-12-24T08:52:13Z</time>
      </trkpt>
      <trkpt lat="46.86539" lon="-1.69348">
        <ele>53.8</ele>
        <time>2021-12-24T08:52:14Z</time>
      </trkpt>
      <trkpt lat="46.86533" lon="-1.69346">
        <ele>53.8</ele>
        <time>2021-12-24T08:52:15Z</time>
      </trkpt>
      <trkpt lat="46.86522" lon="-1.69342">
        <ele>53.8</ele>
        <time>2021-12-24T08:52:17Z</time>
      </trkpt>
      <trkpt lat="46.8651" lon="-1.69337">
        <ele>53.8</ele>
        <time>2021-12-24T08:52:19Z</time>
      </trkpt>
      <trkpt lat="46.86504" lon="-1.69335">
        <ele>53.8</ele>
        <time>2021-12-24T08:52:20Z</time>
      </trkpt>
      <trkpt lat="46.86499" lon="-1.69332">
        <ele>53.8</ele>
        <time>2021-12-24T08:52:21Z</time>
      </trkpt>
      <trkpt lat="46.86487" lon="-1.69328">
        <ele>54</ele>
        <time>2021-12-24T08:52:23Z</time>
      </trkpt>
      <trkpt lat="46.86475" lon="-1.69323">
        <ele>54</ele>
        <time>2021-12-24T08:52:25Z</time>
      </trkpt>
      <trkpt lat="46.86464" lon="-1.69319">
        <ele>54.2</ele>
        <time>2021-12-24T08:52:27Z</time>
      </trkpt>
      <trkpt lat="46.86453" lon="-1.69315">
        <ele>54.2</ele>
        <time>2021-12-24T08:52:29Z</time>
      </trkpt>
      <trkpt lat="46.86441" lon="-1.6931">
        <ele>54.2</ele>
        <time>2021-12-24T08:52:31Z</time>
      </trkpt>
      <trkpt lat="46.86435" lon="-1.69308">
        <ele>54.2</ele>
        <time>2021-12-24T08:52:32Z</time>
      </trkpt>
      <trkpt lat="46.86429" lon="-1.69305">
        <ele>54.2</ele>
        <time>2021-12-24T08:52:33Z</time>
      </trkpt>
      <trkpt lat="46.86417" lon="-1.693">
        <ele>54.2</ele>
        <time>2021-12-24T08:52:35Z</time>
      </trkpt>
      <trkpt lat="46.86405" lon="-1.69297">
        <ele>54.2</ele>
        <time>2021-12-24T08:52:37Z</time>
      </trkpt>
      <trkpt lat="46.86399" lon="-1.69295">
        <ele>54.2</ele>
        <time>2021-12-24T08:52:38Z</time>
      </trkpt>
      <trkpt lat="46.86393" lon="-1.69294">
        <ele>54.2</ele>
        <time>2021-12-24T08:52:39Z</time>
      </trkpt>
      <trkpt lat="46.86381" lon="-1.69293">
        <ele>54.4</ele>
        <time>2021-12-24T08:52:41Z</time>
      </trkpt>
      <trkpt lat="46.8637" lon="-1.69293">
        <ele>54.4</ele>
        <time>2021-12-24T08:52:43Z</time>
      </trkpt>
      <trkpt lat="46.86358" lon="-1.69293">
        <ele>54.4</ele>
        <time>2021-12-24T08:52:45Z</time>
      </trkpt>
      <trkpt lat="46.86346" lon="-1.69292">
        <ele>54.6</ele>
        <time>2021-12-24T08:52:47Z</time>
      </trkpt>
      <trkpt lat="46.86334" lon="-1.69292">
        <ele>54.6</ele>
        <time>2021-12-24T08:52:49Z</time>
      </trkpt>
      <trkpt lat="46.86323" lon="-1.69293">
        <ele>54.6</ele>
        <time>2021-12-24T08:52:51Z</time>
      </trkpt>
      <trkpt lat="46.86312" lon="-1.69293">
        <ele>54.6</ele>
        <time>2021-12-24T08:52:53Z</time>
      </trkpt>
      <trkpt lat="46.863" lon="-1.69294">
        <ele>54.6</ele>
        <time>2021-12-24T08:52:55Z</time>
      </trkpt>
      <trkpt lat="46.86294" lon="-1.69294">
        <ele>54.6</ele>
        <time>2021-12-24T08:52:56Z</time>
      </trkpt>
      <trkpt lat="46.86288" lon="-1.69295">
        <ele>54.8</ele>
        <time>2021-12-24T08:52:57Z</time>
      </trkpt>
      <trkpt lat="46.86282" lon="-1.69295">
        <ele>54.8</ele>
        <time>2021-12-24T08:52:58Z</time>
      </trkpt>
      <trkpt lat="46.86276" lon="-1.69295">
        <ele>54.8</ele>
        <time>2021-12-24T08:52:59Z</time>
      </trkpt>
      <trkpt lat="46.86264" lon="-1.69296">
        <ele>54.8</ele>
        <time>2021-12-24T08:53:01Z</time>
      </trkpt>
      <trkpt lat="46.86252" lon="-1.69296">
        <ele>54.8</ele>
        <time>2021-12-24T08:53:03Z</time>
      </trkpt>
      <trkpt lat="46.8624" lon="-1.69296">
        <ele>54.8</ele>
        <time>2021-12-24T08:53:05Z</time>
      </trkpt>
      <trkpt lat="46.86228" lon="-1.69296">
        <ele>54.8</ele>
        <time>2021-12-24T08:53:07Z</time>
      </trkpt>
      <trkpt lat="46.86216" lon="-1.69297">
        <ele>55</ele>
        <time>2021-12-24T08:53:09Z</time>
      </trkpt>
      <trkpt lat="46.86205" lon="-1.69297">
        <ele>55</ele>
        <time>2021-12-24T08:53:11Z</time>
      </trkpt>
      <trkpt lat="46.86192" lon="-1.69297">
        <ele>55.2</ele>
        <time>2021-12-24T08:53:13Z</time>
      </trkpt>
      <trkpt lat="46.8618" lon="-1.69297">
        <ele>55.2</ele>
        <time>2021-12-24T08:53:15Z</time>
      </trkpt>
      <trkpt lat="46.86168" lon="-1.69298">
        <ele>55.2</ele>
        <time>2021-12-24T08:53:17Z</time>
      </trkpt>
      <trkpt lat="46.86161" lon="-1.693">
        <ele>55.2</ele>
        <time>2021-12-24T08:53:18Z</time>
      </trkpt>
      <trkpt lat="46.86155" lon="-1.69301">
        <ele>55.4</ele>
        <time>2021-12-24T08:53:19Z</time>
      </trkpt>
      <trkpt lat="46.86143" lon="-1.69301">
        <ele>55.4</ele>
        <time>2021-12-24T08:53:21Z</time>
      </trkpt>
      <trkpt lat="46.86129" lon="-1.69301">
        <ele>55.4</ele>
        <time>2021-12-24T08:53:23Z</time>
      </trkpt>
      <trkpt lat="46.86116" lon="-1.69302">
        <ele>55.4</ele>
        <time>2021-12-24T08:53:25Z</time>
      </trkpt>
      <trkpt lat="46.86103" lon="-1.69303">
        <ele>55.4</ele>
        <time>2021-12-24T08:53:27Z</time>
      </trkpt>
      <trkpt lat="46.86089" lon="-1.69303">
        <ele>55.4</ele>
        <time>2021-12-24T08:53:29Z</time>
      </trkpt>
      <trkpt lat="46.86082" lon="-1.69303">
        <ele>55.4</ele>
        <time>2021-12-24T08:53:30Z</time>
      </trkpt>
      <trkpt lat="46.86075" lon="-1.69303">
        <ele>55.2</ele>
        <time>2021-12-24T08:53:31Z</time>
      </trkpt>
      <trkpt lat="46.86061" lon="-1.69303">
        <ele>55.2</ele>
        <time>2021-12-24T08:53:33Z</time>
      </trkpt>
      <trkpt lat="46.86046" lon="-1.69303">
        <ele>55.2</ele>
        <time>2021-12-24T08:53:35Z</time>
      </trkpt>
      <trkpt lat="46.86031" lon="-1.69303">
        <ele>55</ele>
        <time>2021-12-24T08:53:37Z</time>
      </trkpt>
      <trkpt lat="46.86016" lon="-1.69303">
        <ele>55</ele>
        <time>2021-12-24T08:53:39Z</time>
      </trkpt>
      <trkpt lat="46.86002" lon="-1.69304">
        <ele>55</ele>
        <time>2021-12-24T08:53:41Z</time>
      </trkpt>
      <trkpt lat="46.85988" lon="-1.69304">
        <ele>55</ele>
        <time>2021-12-24T08:53:43Z</time>
      </trkpt>
      <trkpt lat="46.85974" lon="-1.69304">
        <ele>55.2</ele>
        <time>2021-12-24T08:53:45Z</time>
      </trkpt>
      <trkpt lat="46.85967" lon="-1.69304">
        <ele>55.2</ele>
        <time>2021-12-24T08:53:46Z</time>
      </trkpt>
      <trkpt lat="46.8596" lon="-1.69304">
        <ele>55.2</ele>
        <time>2021-12-24T08:53:47Z</time>
      </trkpt>
      <trkpt lat="46.85946" lon="-1.69304">
        <ele>55.4</ele>
        <time>2021-12-24T08:53:49Z</time>
      </trkpt>
      <trkpt lat="46.85933" lon="-1.69305">
        <ele>55.4</ele>
        <time>2021-12-24T08:53:51Z</time>
      </trkpt>
      <trkpt lat="46.85926" lon="-1.69305">
        <ele>55.4</ele>
        <time>2021-12-24T08:53:52Z</time>
      </trkpt>
      <trkpt lat="46.8592" lon="-1.69305">
        <ele>55.4</ele>
        <time>2021-12-24T08:53:53Z</time>
      </trkpt>
      <trkpt lat="46.85906" lon="-1.69305">
        <ele>55.4</ele>
        <time>2021-12-24T08:53:55Z</time>
      </trkpt>
      <trkpt lat="46.85893" lon="-1.69305">
        <ele>55.4</ele>
        <time>2021-12-24T08:53:57Z</time>
      </trkpt>
      <trkpt lat="46.85886" lon="-1.69305">
        <ele>55.6</ele>
        <time>2021-12-24T08:53:58Z</time>
      </trkpt>
      <trkpt lat="46.85879" lon="-1.69305">
        <ele>55.6</ele>
        <time>2021-12-24T08:53:59Z</time>
      </trkpt>
      <trkpt lat="46.85866" lon="-1.69306">
        <ele>55.4</ele>
        <time>2021-12-24T08:54:01Z</time>
      </trkpt>
      <trkpt lat="46.85853" lon="-1.69306">
        <ele>55.6</ele>
        <time>2021-12-24T08:54:03Z</time>
      </trkpt>
      <trkpt lat="46.8584" lon="-1.69307">
        <ele>55.6</ele>
        <time>2021-12-24T08:54:05Z</time>
      </trkpt>
      <trkpt lat="46.85827" lon="-1.69308">
        <ele>55.8</ele>
        <time>2021-12-24T08:54:07Z</time>
      </trkpt>
      <trkpt lat="46.85815" lon="-1.69309">
        <ele>56</ele>
        <time>2021-12-24T08:54:09Z</time>
      </trkpt>
      <trkpt lat="46.85808" lon="-1.69309">
        <ele>56</ele>
        <time>2021-12-24T08:54:10Z</time>
      </trkpt>
      <trkpt lat="46.85801" lon="-1.69309">
        <ele>56</ele>
        <time>2021-12-24T08:54:11Z</time>
      </trkpt>
      <trkpt lat="46.85789" lon="-1.6931">
        <ele>56.2</ele>
        <time>2021-12-24T08:54:13Z</time>
      </trkpt>
      <trkpt lat="46.85776" lon="-1.69312">
        <ele>56.4</ele>
        <time>2021-12-24T08:54:15Z</time>
      </trkpt>
      <trkpt lat="46.8577" lon="-1.69312">
        <ele>56.4</ele>
        <time>2021-12-24T08:54:16Z</time>
      </trkpt>
      <trkpt lat="46.85764" lon="-1.69313">
        <ele>56.6</ele>
        <time>2021-12-24T08:54:17Z</time>
      </trkpt>
      <trkpt lat="46.85752" lon="-1.69313">
        <ele>56.6</ele>
        <time>2021-12-24T08:54:19Z</time>
      </trkpt>
      <trkpt lat="46.85739" lon="-1.69313">
        <ele>56.8</ele>
        <time>2021-12-24T08:54:21Z</time>
      </trkpt>
      <trkpt lat="46.85727" lon="-1.69314">
        <ele>56.8</ele>
        <time>2021-12-24T08:54:23Z</time>
      </trkpt>
      <trkpt lat="46.85715" lon="-1.69313">
        <ele>56.8</ele>
        <time>2021-12-24T08:54:25Z</time>
      </trkpt>
      <trkpt lat="46.85703" lon="-1.69313">
        <ele>56.8</ele>
        <time>2021-12-24T08:54:27Z</time>
      </trkpt>
      <trkpt lat="46.85692" lon="-1.69313">
        <ele>56.8</ele>
        <time>2021-12-24T08:54:29Z</time>
      </trkpt>
      <trkpt lat="46.8568" lon="-1.69313">
        <ele>56.8</ele>
        <time>2021-12-24T08:54:31Z</time>
      </trkpt>
      <trkpt lat="46.85669" lon="-1.69313">
        <ele>56.8</ele>
        <time>2021-12-24T08:54:33Z</time>
      </trkpt>
      <trkpt lat="46.85659" lon="-1.69314">
        <ele>56.8</ele>
        <time>2021-12-24T08:54:35Z</time>
      </trkpt>
      <trkpt lat="46.85653" lon="-1.69314">
        <ele>56.8</ele>
        <time>2021-12-24T08:54:36Z</time>
      </trkpt>
      <trkpt lat="46.85648" lon="-1.69314">
        <ele>56.8</ele>
        <time>2021-12-24T08:54:37Z</time>
      </trkpt>
      <trkpt lat="46.85637" lon="-1.69315">
        <ele>56.8</ele>
        <time>2021-12-24T08:54:39Z</time>
      </trkpt>
      <trkpt lat="46.85627" lon="-1.69315">
        <ele>56.8</ele>
        <time>2021-12-24T08:54:41Z</time>
      </trkpt>
      <trkpt lat="46.85617" lon="-1.69316">
        <ele>56.8</ele>
        <time>2021-12-24T08:54:43Z</time>
      </trkpt>
      <trkpt lat="46.85607" lon="-1.69315">
        <ele>56.8</ele>
        <time>2021-12-24T08:54:45Z</time>
      </trkpt>
      <trkpt lat="46.85596" lon="-1.69315">
        <ele>56.8</ele>
        <time>2021-12-24T08:54:47Z</time>
      </trkpt>
      <trkpt lat="46.85586" lon="-1.69313">
        <ele>57</ele>
        <time>2021-12-24T08:54:49Z</time>
      </trkpt>
      <trkpt lat="46.85581" lon="-1.69311">
        <ele>57</ele>
        <time>2021-12-24T08:54:50Z</time>
      </trkpt>
      <trkpt lat="46.85576" lon="-1.69308">
        <ele>57</ele>
        <time>2021-12-24T08:54:51Z</time>
      </trkpt>
      <trkpt lat="46.85567" lon="-1.69299">
        <ele>57</ele>
        <time>2021-12-24T08:54:53Z</time>
      </trkpt>
      <trkpt lat="46.85559" lon="-1.6929">
        <ele>57</ele>
        <time>2021-12-24T08:54:55Z</time>
      </trkpt>
      <trkpt lat="46.8555" lon="-1.69281">
        <ele>57</ele>
        <time>2021-12-24T08:54:57Z</time>
      </trkpt>
      <trkpt lat="46.85542" lon="-1.6927">
        <ele>56.8</ele>
        <time>2021-12-24T08:54:59Z</time>
      </trkpt>
      <trkpt lat="46.85533" lon="-1.69258">
        <ele>56.8</ele>
        <time>2021-12-24T08:55:01Z</time>
      </trkpt>
      <trkpt lat="46.85524" lon="-1.69246">
        <ele>56.8</ele>
        <time>2021-12-24T08:55:03Z</time>
      </trkpt>
      <trkpt lat="46.85514" lon="-1.69233">
        <ele>56.6</ele>
        <time>2021-12-24T08:55:05Z</time>
      </trkpt>
      <trkpt lat="46.85505" lon="-1.69222">
        <ele>56.4</ele>
        <time>2021-12-24T08:55:07Z</time>
      </trkpt>
      <trkpt lat="46.85497" lon="-1.69212">
        <ele>56.4</ele>
        <time>2021-12-24T08:55:09Z</time>
      </trkpt>
      <trkpt lat="46.85489" lon="-1.69204">
        <ele>56.4</ele>
        <time>2021-12-24T08:55:11Z</time>
      </trkpt>
      <trkpt lat="46.8548" lon="-1.69193">
        <ele>56.4</ele>
        <time>2021-12-24T08:55:13Z</time>
      </trkpt>
      <trkpt lat="46.85476" lon="-1.69187">
        <ele>56.2</ele>
        <time>2021-12-24T08:55:14Z</time>
      </trkpt>
      <trkpt lat="46.85472" lon="-1.69182">
        <ele>56.2</ele>
        <time>2021-12-24T08:55:15Z</time>
      </trkpt>
      <trkpt lat="46.85463" lon="-1.69171">
        <ele>56.2</ele>
        <time>2021-12-24T08:55:17Z</time>
      </trkpt>
      <trkpt lat="46.85455" lon="-1.6916">
        <ele>56</ele>
        <time>2021-12-24T08:55:19Z</time>
      </trkpt>
      <trkpt lat="46.85447" lon="-1.69148">
        <ele>55.8</ele>
        <time>2021-12-24T08:55:21Z</time>
      </trkpt>
      <trkpt lat="46.85438" lon="-1.69136">
        <ele>55.6</ele>
        <time>2021-12-24T08:55:23Z</time>
      </trkpt>
      <trkpt lat="46.8543" lon="-1.69126">
        <ele>55.4</ele>
        <time>2021-12-24T08:55:25Z</time>
      </trkpt>
      <trkpt lat="46.85421" lon="-1.69116">
        <ele>55</ele>
        <time>2021-12-24T08:55:27Z</time>
      </trkpt>
      <trkpt lat="46.85417" lon="-1.69111">
        <ele>55</ele>
        <time>2021-12-24T08:55:28Z</time>
      </trkpt>
      <trkpt lat="46.85413" lon="-1.69107">
        <ele>54.8</ele>
        <time>2021-12-24T08:55:29Z</time>
      </trkpt>
      <trkpt lat="46.85405" lon="-1.69097">
        <ele>54.6</ele>
        <time>2021-12-24T08:55:31Z</time>
      </trkpt>
      <trkpt lat="46.85402" lon="-1.69093">
        <ele>54.6</ele>
        <time>2021-12-24T08:55:32Z</time>
      </trkpt>
      <trkpt lat="46.85398" lon="-1.69089">
        <ele>54.4</ele>
        <time>2021-12-24T08:55:33Z</time>
      </trkpt>
      <trkpt lat="46.85395" lon="-1.69086">
        <ele>54.4</ele>
        <time>2021-12-24T08:55:34Z</time>
      </trkpt>
      <trkpt lat="46.85392" lon="-1.69082">
        <ele>54.2</ele>
        <time>2021-12-24T08:55:35Z</time>
      </trkpt>
      <trkpt lat="46.85383" lon="-1.69073">
        <ele>54.2</ele>
        <time>2021-12-24T08:55:37Z</time>
      </trkpt>
      <trkpt lat="46.8537" lon="-1.69058">
        <ele>54.2</ele>
        <time>2021-12-24T08:55:39Z</time>
      </trkpt>
      <trkpt lat="46.85357" lon="-1.69047">
        <ele>54.2</ele>
        <time>2021-12-24T08:55:41Z</time>
      </trkpt>
      <trkpt lat="46.85345" lon="-1.69042">
        <ele>54.2</ele>
        <time>2021-12-24T08:55:43Z</time>
      </trkpt>
      <trkpt lat="46.85339" lon="-1.6904">
        <ele>54.2</ele>
        <time>2021-12-24T08:55:44Z</time>
      </trkpt>
      <trkpt lat="46.85333" lon="-1.69039">
        <ele>54.2</ele>
        <time>2021-12-24T08:55:45Z</time>
      </trkpt>
      <trkpt lat="46.85323" lon="-1.69038">
        <ele>54.2</ele>
        <time>2021-12-24T08:55:47Z</time>
      </trkpt>
      <trkpt lat="46.85318" lon="-1.69037">
        <ele>54.4</ele>
        <time>2021-12-24T08:55:48Z</time>
      </trkpt>
      <trkpt lat="46.85312" lon="-1.69036">
        <ele>54.4</ele>
        <time>2021-12-24T08:55:49Z</time>
      </trkpt>
      <trkpt lat="46.853" lon="-1.69036">
        <ele>53.6</ele>
        <time>2021-12-24T08:55:51Z</time>
      </trkpt>
      <trkpt lat="46.85295" lon="-1.69036">
        <ele>53.8</ele>
        <time>2021-12-24T08:55:52Z</time>
      </trkpt>
      <trkpt lat="46.85289" lon="-1.69035">
        <ele>54</ele>
        <time>2021-12-24T08:55:53Z</time>
      </trkpt>
      <trkpt lat="46.85277" lon="-1.69033">
        <ele>54</ele>
        <time>2021-12-24T08:55:55Z</time>
      </trkpt>
      <trkpt lat="46.85265" lon="-1.69032">
        <ele>53.8</ele>
        <time>2021-12-24T08:55:57Z</time>
      </trkpt>
      <trkpt lat="46.85254" lon="-1.6903">
        <ele>53.8</ele>
        <time>2021-12-24T08:55:59Z</time>
      </trkpt>
      <trkpt lat="46.85243" lon="-1.6903">
        <ele>54.2</ele>
        <time>2021-12-24T08:56:01Z</time>
      </trkpt>
      <trkpt lat="46.85237" lon="-1.6903">
        <ele>54.6</ele>
        <time>2021-12-24T08:56:02Z</time>
      </trkpt>
      <trkpt lat="46.85231" lon="-1.6903">
        <ele>54.8</ele>
        <time>2021-12-24T08:56:03Z</time>
      </trkpt>
      <trkpt lat="46.8522" lon="-1.69029">
        <ele>54.4</ele>
        <time>2021-12-24T08:56:05Z</time>
      </trkpt>
      <trkpt lat="46.85215" lon="-1.69029">
        <ele>54.4</ele>
        <time>2021-12-24T08:56:06Z</time>
      </trkpt>
      <trkpt lat="46.85209" lon="-1.69029">
        <ele>54.4</ele>
        <time>2021-12-24T08:56:07Z</time>
      </trkpt>
      <trkpt lat="46.85204" lon="-1.69029">
        <ele>54.4</ele>
        <time>2021-12-24T08:56:08Z</time>
      </trkpt>
      <trkpt lat="46.85198" lon="-1.69029">
        <ele>54.6</ele>
        <time>2021-12-24T08:56:09Z</time>
      </trkpt>
      <trkpt lat="46.85187" lon="-1.69028">
        <ele>54.6</ele>
        <time>2021-12-24T08:56:11Z</time>
      </trkpt>
      <trkpt lat="46.85176" lon="-1.69028">
        <ele>54.6</ele>
        <time>2021-12-24T08:56:13Z</time>
      </trkpt>
      <trkpt lat="46.85165" lon="-1.69026">
        <ele>54.6</ele>
        <time>2021-12-24T08:56:15Z</time>
      </trkpt>
      <trkpt lat="46.85153" lon="-1.69023">
        <ele>54.8</ele>
        <time>2021-12-24T08:56:17Z</time>
      </trkpt>
      <trkpt lat="46.85141" lon="-1.69019">
        <ele>55</ele>
        <time>2021-12-24T08:56:19Z</time>
      </trkpt>
      <trkpt lat="46.85131" lon="-1.69015">
        <ele>55.2</ele>
        <time>2021-12-24T08:56:21Z</time>
      </trkpt>
      <trkpt lat="46.85125" lon="-1.69012">
        <ele>55.2</ele>
        <time>2021-12-24T08:56:22Z</time>
      </trkpt>
      <trkpt lat="46.85121" lon="-1.6901">
        <ele>55.2</ele>
        <time>2021-12-24T08:56:23Z</time>
      </trkpt>
      <trkpt lat="46.85116" lon="-1.69011">
        <ele>55.2</ele>
        <time>2021-12-24T08:56:24Z</time>
      </trkpt>
      <trkpt lat="46.85112" lon="-1.69012">
        <ele>55.2</ele>
        <time>2021-12-24T08:56:25Z</time>
      </trkpt>
      <trkpt lat="46.85103" lon="-1.69014">
        <ele>55</ele>
        <time>2021-12-24T08:56:27Z</time>
      </trkpt>
      <trkpt lat="46.85099" lon="-1.69015">
        <ele>55</ele>
        <time>2021-12-24T08:56:28Z</time>
      </trkpt>
      <trkpt lat="46.85095" lon="-1.69016">
        <ele>55</ele>
        <time>2021-12-24T08:56:29Z</time>
      </trkpt>
      <trkpt lat="46.85087" lon="-1.6902">
        <ele>55</ele>
        <time>2021-12-24T08:56:31Z</time>
      </trkpt>
      <trkpt lat="46.85079" lon="-1.69021">
        <ele>55</ele>
        <time>2021-12-24T08:56:33Z</time>
      </trkpt>
      <trkpt lat="46.85068" lon="-1.69014">
        <ele>55</ele>
        <time>2021-12-24T08:56:35Z</time>
      </trkpt>
      <trkpt lat="46.85057" lon="-1.69007">
        <ele>55</ele>
        <time>2021-12-24T08:56:37Z</time>
      </trkpt>
      <trkpt lat="46.85045" lon="-1.68997">
        <ele>55.2</ele>
        <time>2021-12-24T08:56:39Z</time>
      </trkpt>
      <trkpt lat="46.85033" lon="-1.68987">
        <ele>55</ele>
        <time>2021-12-24T08:56:41Z</time>
      </trkpt>
      <trkpt lat="46.85027" lon="-1.68982">
        <ele>54.6</ele>
        <time>2021-12-24T08:56:42Z</time>
      </trkpt>
      <trkpt lat="46.85022" lon="-1.68979">
        <ele>54.8</ele>
        <time>2021-12-24T08:56:43Z</time>
      </trkpt>
      <trkpt lat="46.85011" lon="-1.68971">
        <ele>55.2</ele>
        <time>2021-12-24T08:56:45Z</time>
      </trkpt>
      <trkpt lat="46.85006" lon="-1.68966">
        <ele>55</ele>
        <time>2021-12-24T08:56:46Z</time>
      </trkpt>
      <trkpt lat="46.85" lon="-1.68961">
        <ele>54.8</ele>
        <time>2021-12-24T08:56:47Z</time>
      </trkpt>
      <trkpt lat="46.84987" lon="-1.68952">
        <ele>54.8</ele>
        <time>2021-12-24T08:56:49Z</time>
      </trkpt>
      <trkpt lat="46.84975" lon="-1.68943">
        <ele>54.8</ele>
        <time>2021-12-24T08:56:51Z</time>
      </trkpt>
      <trkpt lat="46.84969" lon="-1.6894">
        <ele>54.8</ele>
        <time>2021-12-24T08:56:52Z</time>
      </trkpt>
      <trkpt lat="46.84963" lon="-1.68937">
        <ele>54.6</ele>
        <time>2021-12-24T08:56:53Z</time>
      </trkpt>
      <trkpt lat="46.84954" lon="-1.68934">
        <ele>54.8</ele>
        <time>2021-12-24T08:56:55Z</time>
      </trkpt>
      <trkpt lat="46.84951" lon="-1.68934">
        <ele>54.8</ele>
        <time>2021-12-24T08:56:56Z</time>
      </trkpt>
      <trkpt lat="46.84947" lon="-1.68935">
        <ele>54.6</ele>
        <time>2021-12-24T08:56:57Z</time>
      </trkpt>
      <trkpt lat="46.84938" lon="-1.68934">
        <ele>55</ele>
        <time>2021-12-24T08:56:59Z</time>
      </trkpt>
      <trkpt lat="46.84929" lon="-1.68929">
        <ele>55</ele>
        <time>2021-12-24T08:57:01Z</time>
      </trkpt>
      <trkpt lat="46.84924" lon="-1.68927">
        <ele>55.2</ele>
        <time>2021-12-24T08:57:02Z</time>
      </trkpt>
      <trkpt lat="46.84919" lon="-1.68925">
        <ele>55.2</ele>
        <time>2021-12-24T08:57:03Z</time>
      </trkpt>
      <trkpt lat="46.84914" lon="-1.68922">
        <ele>55.2</ele>
        <time>2021-12-24T08:57:04Z</time>
      </trkpt>
      <trkpt lat="46.84908" lon="-1.68919">
        <ele>55.2</ele>
        <time>2021-12-24T08:57:05Z</time>
      </trkpt>
      <trkpt lat="46.849" lon="-1.68919">
        <ele>55.2</ele>
        <time>2021-12-24T08:57:07Z</time>
      </trkpt>
      <trkpt lat="46.84892" lon="-1.68917">
        <ele>55.2</ele>
        <time>2021-12-24T08:57:09Z</time>
      </trkpt>
      <trkpt lat="46.84888" lon="-1.68916">
        <ele>55.2</ele>
        <time>2021-12-24T08:57:10Z</time>
      </trkpt>
      <trkpt lat="46.84884" lon="-1.68914">
        <ele>55.2</ele>
        <time>2021-12-24T08:57:11Z</time>
      </trkpt>
      <trkpt lat="46.84873" lon="-1.68906">
        <ele>55.2</ele>
        <time>2021-12-24T08:57:13Z</time>
      </trkpt>
      <trkpt lat="46.84867" lon="-1.68901">
        <ele>55.2</ele>
        <time>2021-12-24T08:57:14Z</time>
      </trkpt>
      <trkpt lat="46.8486" lon="-1.68892">
        <ele>54.6</ele>
        <time>2021-12-24T08:57:15Z</time>
      </trkpt>
      <trkpt lat="46.84847" lon="-1.68882">
        <ele>54.8</ele>
        <time>2021-12-24T08:57:17Z</time>
      </trkpt>
      <trkpt lat="46.84835" lon="-1.68873">
        <ele>54.8</ele>
        <time>2021-12-24T08:57:19Z</time>
      </trkpt>
      <trkpt lat="46.84823" lon="-1.68863">
        <ele>54.8</ele>
        <time>2021-12-24T08:57:21Z</time>
      </trkpt>
      <trkpt lat="46.84812" lon="-1.68857">
        <ele>54.8</ele>
        <time>2021-12-24T08:57:23Z</time>
      </trkpt>
      <trkpt lat="46.84805" lon="-1.68855">
        <ele>54.8</ele>
        <time>2021-12-24T08:57:25Z</time>
      </trkpt>
      <trkpt lat="46.84798" lon="-1.68848">
        <ele>54.8</ele>
        <time>2021-12-24T08:57:26Z</time>
      </trkpt>
      <trkpt lat="46.84789" lon="-1.68838">
        <ele>54.6</ele>
        <time>2021-12-24T08:57:27Z</time>
      </trkpt>
      <trkpt lat="46.84775" lon="-1.68821">
        <ele>54.2</ele>
        <time>2021-12-24T08:57:29Z</time>
      </trkpt>
      <trkpt lat="46.84765" lon="-1.68814">
        <ele>54.2</ele>
        <time>2021-12-24T08:57:31Z</time>
      </trkpt>
      <trkpt lat="46.84761" lon="-1.68808">
        <ele>54.2</ele>
        <time>2021-12-24T08:57:33Z</time>
      </trkpt>
      <trkpt lat="46.8476" lon="-1.68806">
        <ele>54.4</ele>
        <time>2021-12-24T08:57:34Z</time>
      </trkpt>
      <trkpt lat="46.8476" lon="-1.68803">
        <ele>54.4</ele>
        <time>2021-12-24T08:57:35Z</time>
      </trkpt>
      <trkpt lat="46.84759" lon="-1.68798">
        <ele>54.6</ele>
        <time>2021-12-24T08:57:37Z</time>
      </trkpt>
      <trkpt lat="46.84758" lon="-1.68793">
        <ele>55.2</ele>
        <time>2021-12-24T08:57:39Z</time>
      </trkpt>
      <trkpt lat="46.84756" lon="-1.68788">
        <ele>55</ele>
        <time>2021-12-24T08:57:40Z</time>
      </trkpt>
      <trkpt lat="46.84754" lon="-1.68783">
        <ele>55</ele>
        <time>2021-12-24T08:57:41Z</time>
      </trkpt>
      <trkpt lat="46.84745" lon="-1.68759">
        <ele>55</ele>
        <time>2021-12-24T08:57:43Z</time>
      </trkpt>
      <trkpt lat="46.84736" lon="-1.68738">
        <ele>54.8</ele>
        <time>2021-12-24T08:57:45Z</time>
      </trkpt>
      <trkpt lat="46.84729" lon="-1.68721">
        <ele>54.8</ele>
        <time>2021-12-24T08:57:47Z</time>
      </trkpt>
      <trkpt lat="46.84726" lon="-1.68714">
        <ele>55</ele>
        <time>2021-12-24T08:57:48Z</time>
      </trkpt>
      <trkpt lat="46.84724" lon="-1.68708">
        <ele>54.8</ele>
        <time>2021-12-24T08:57:49Z</time>
      </trkpt>
      <trkpt lat="46.84718" lon="-1.68693">
        <ele>54.8</ele>
        <time>2021-12-24T08:57:51Z</time>
      </trkpt>
      <trkpt lat="46.84712" lon="-1.68678">
        <ele>55</ele>
        <time>2021-12-24T08:57:53Z</time>
      </trkpt>
      <trkpt lat="46.84706" lon="-1.68664">
        <ele>55.2</ele>
        <time>2021-12-24T08:57:55Z</time>
      </trkpt>
      <trkpt lat="46.847" lon="-1.6865">
        <ele>55.2</ele>
        <time>2021-12-24T08:57:57Z</time>
      </trkpt>
      <trkpt lat="46.84698" lon="-1.68644">
        <ele>55.2</ele>
        <time>2021-12-24T08:57:58Z</time>
      </trkpt>
      <trkpt lat="46.84695" lon="-1.68637">
        <ele>55.4</ele>
        <time>2021-12-24T08:57:59Z</time>
      </trkpt>
      <trkpt lat="46.84689" lon="-1.68626">
        <ele>55.4</ele>
        <time>2021-12-24T08:58:01Z</time>
      </trkpt>
      <trkpt lat="46.84683" lon="-1.68614">
        <ele>55.4</ele>
        <time>2021-12-24T08:58:03Z</time>
      </trkpt>
      <trkpt lat="46.84677" lon="-1.68602">
        <ele>55.6</ele>
        <time>2021-12-24T08:58:05Z</time>
      </trkpt>
      <trkpt lat="46.8467" lon="-1.6859">
        <ele>55.6</ele>
        <time>2021-12-24T08:58:07Z</time>
      </trkpt>
      <trkpt lat="46.84663" lon="-1.68577">
        <ele>55.8</ele>
        <time>2021-12-24T08:58:09Z</time>
      </trkpt>
      <trkpt lat="46.84657" lon="-1.68565">
        <ele>55.8</ele>
        <time>2021-12-24T08:58:11Z</time>
      </trkpt>
      <trkpt lat="46.8465" lon="-1.68554">
        <ele>55.8</ele>
        <time>2021-12-24T08:58:13Z</time>
      </trkpt>
      <trkpt lat="46.84646" lon="-1.68548">
        <ele>55.8</ele>
        <time>2021-12-24T08:58:14Z</time>
      </trkpt>
      <trkpt lat="46.84643" lon="-1.68543">
        <ele>56</ele>
        <time>2021-12-24T08:58:15Z</time>
      </trkpt>
      <trkpt lat="46.84636" lon="-1.68532">
        <ele>56</ele>
        <time>2021-12-24T08:58:17Z</time>
      </trkpt>
      <trkpt lat="46.84629" lon="-1.68523">
        <ele>56</ele>
        <time>2021-12-24T08:58:19Z</time>
      </trkpt>
      <trkpt lat="46.84621" lon="-1.68513">
        <ele>56</ele>
        <time>2021-12-24T08:58:21Z</time>
      </trkpt>
      <trkpt lat="46.84614" lon="-1.68504">
        <ele>56</ele>
        <time>2021-12-24T08:58:23Z</time>
      </trkpt>
      <trkpt lat="46.84605" lon="-1.68496">
        <ele>56</ele>
        <time>2021-12-24T08:58:25Z</time>
      </trkpt>
      <trkpt lat="46.846" lon="-1.68492">
        <ele>56</ele>
        <time>2021-12-24T08:58:26Z</time>
      </trkpt>
      <trkpt lat="46.84596" lon="-1.68489">
        <ele>56.2</ele>
        <time>2021-12-24T08:58:27Z</time>
      </trkpt>
      <trkpt lat="46.84586" lon="-1.68483">
        <ele>56.2</ele>
        <time>2021-12-24T08:58:29Z</time>
      </trkpt>
      <trkpt lat="46.84576" lon="-1.68478">
        <ele>56.2</ele>
        <time>2021-12-24T08:58:31Z</time>
      </trkpt>
      <trkpt lat="46.84571" lon="-1.68476">
        <ele>56.4</ele>
        <time>2021-12-24T08:58:32Z</time>
      </trkpt>
      <trkpt lat="46.84565" lon="-1.68475">
        <ele>56.4</ele>
        <time>2021-12-24T08:58:33Z</time>
      </trkpt>
      <trkpt lat="46.84555" lon="-1.68472">
        <ele>56.8</ele>
        <time>2021-12-24T08:58:35Z</time>
      </trkpt>
      <trkpt lat="46.84544" lon="-1.6847">
        <ele>57</ele>
        <time>2021-12-24T08:58:37Z</time>
      </trkpt>
      <trkpt lat="46.84534" lon="-1.68467">
        <ele>57.2</ele>
        <time>2021-12-24T08:58:39Z</time>
      </trkpt>
      <trkpt lat="46.84529" lon="-1.68466">
        <ele>57.2</ele>
        <time>2021-12-24T08:58:40Z</time>
      </trkpt>
      <trkpt lat="46.84523" lon="-1.68465">
        <ele>57.2</ele>
        <time>2021-12-24T08:58:41Z</time>
      </trkpt>
      <trkpt lat="46.84513" lon="-1.68464">
        <ele>57.4</ele>
        <time>2021-12-24T08:58:43Z</time>
      </trkpt>
      <trkpt lat="46.84504" lon="-1.68461">
        <ele>57.4</ele>
        <time>2021-12-24T08:58:45Z</time>
      </trkpt>
      <trkpt lat="46.84494" lon="-1.68455">
        <ele>57.6</ele>
        <time>2021-12-24T08:58:47Z</time>
      </trkpt>
      <trkpt lat="46.8449" lon="-1.68452">
        <ele>57.6</ele>
        <time>2021-12-24T08:58:48Z</time>
      </trkpt>
      <trkpt lat="46.84486" lon="-1.68449">
        <ele>57.6</ele>
        <time>2021-12-24T08:58:49Z</time>
      </trkpt>
      <trkpt lat="46.84476" lon="-1.68447">
        <ele>57.8</ele>
        <time>2021-12-24T08:58:51Z</time>
      </trkpt>
      <trkpt lat="46.84472" lon="-1.68447">
        <ele>57.8</ele>
        <time>2021-12-24T08:58:52Z</time>
      </trkpt>
      <trkpt lat="46.84467" lon="-1.68447">
        <ele>57.8</ele>
        <time>2021-12-24T08:58:53Z</time>
      </trkpt>
      <trkpt lat="46.84462" lon="-1.68448">
        <ele>58</ele>
        <time>2021-12-24T08:58:54Z</time>
      </trkpt>
      <trkpt lat="46.84457" lon="-1.68449">
        <ele>58</ele>
        <time>2021-12-24T08:58:55Z</time>
      </trkpt>
      <trkpt lat="46.84447" lon="-1.68451">
        <ele>58</ele>
        <time>2021-12-24T08:58:57Z</time>
      </trkpt>
      <trkpt lat="46.84437" lon="-1.68453">
        <ele>58.2</ele>
        <time>2021-12-24T08:58:59Z</time>
      </trkpt>
      <trkpt lat="46.84427" lon="-1.68455">
        <ele>58.4</ele>
        <time>2021-12-24T08:59:01Z</time>
      </trkpt>
      <trkpt lat="46.84418" lon="-1.68458">
        <ele>58.4</ele>
        <time>2021-12-24T08:59:03Z</time>
      </trkpt>
      <trkpt lat="46.84408" lon="-1.6846">
        <ele>58.4</ele>
        <time>2021-12-24T08:59:05Z</time>
      </trkpt>
      <trkpt lat="46.84398" lon="-1.68462">
        <ele>58.2</ele>
        <time>2021-12-24T08:59:07Z</time>
      </trkpt>
      <trkpt lat="46.84393" lon="-1.68463">
        <ele>58.2</ele>
        <time>2021-12-24T08:59:08Z</time>
      </trkpt>
      <trkpt lat="46.84388" lon="-1.68464">
        <ele>58.2</ele>
        <time>2021-12-24T08:59:09Z</time>
      </trkpt>
      <trkpt lat="46.84377" lon="-1.68465">
        <ele>58</ele>
        <time>2021-12-24T08:59:11Z</time>
      </trkpt>
      <trkpt lat="46.84366" lon="-1.68466">
        <ele>58.4</ele>
        <time>2021-12-24T08:59:13Z</time>
      </trkpt>
      <trkpt lat="46.8436" lon="-1.68467">
        <ele>58</ele>
        <time>2021-12-24T08:59:14Z</time>
      </trkpt>
      <trkpt lat="46.84355" lon="-1.68467">
        <ele>57.6</ele>
        <time>2021-12-24T08:59:15Z</time>
      </trkpt>
      <trkpt lat="46.84344" lon="-1.68469">
        <ele>57.6</ele>
        <time>2021-12-24T08:59:17Z</time>
      </trkpt>
      <trkpt lat="46.84333" lon="-1.68471">
        <ele>57.6</ele>
        <time>2021-12-24T08:59:19Z</time>
      </trkpt>
      <trkpt lat="46.84321" lon="-1.68473">
        <ele>57.6</ele>
        <time>2021-12-24T08:59:21Z</time>
      </trkpt>
      <trkpt lat="46.8431" lon="-1.68474">
        <ele>57.6</ele>
        <time>2021-12-24T08:59:23Z</time>
      </trkpt>
      <trkpt lat="46.84299" lon="-1.68474">
        <ele>57.8</ele>
        <time>2021-12-24T08:59:25Z</time>
      </trkpt>
      <trkpt lat="46.84286" lon="-1.68474">
        <ele>57.8</ele>
        <time>2021-12-24T08:59:27Z</time>
      </trkpt>
      <trkpt lat="46.84275" lon="-1.68474">
        <ele>57.6</ele>
        <time>2021-12-24T08:59:29Z</time>
      </trkpt>
      <trkpt lat="46.84263" lon="-1.68472">
        <ele>58</ele>
        <time>2021-12-24T08:59:31Z</time>
      </trkpt>
      <trkpt lat="46.84251" lon="-1.6847">
        <ele>58.2</ele>
        <time>2021-12-24T08:59:33Z</time>
      </trkpt>
      <trkpt lat="46.8424" lon="-1.68468">
        <ele>58.2</ele>
        <time>2021-12-24T08:59:35Z</time>
      </trkpt>
      <trkpt lat="46.84228" lon="-1.68466">
        <ele>58.6</ele>
        <time>2021-12-24T08:59:37Z</time>
      </trkpt>
      <trkpt lat="46.84216" lon="-1.68465">
        <ele>58.2</ele>
        <time>2021-12-24T08:59:39Z</time>
      </trkpt>
      <trkpt lat="46.84204" lon="-1.68462">
        <ele>58.4</ele>
        <time>2021-12-24T08:59:41Z</time>
      </trkpt>
      <trkpt lat="46.84192" lon="-1.68459">
        <ele>58.4</ele>
        <time>2021-12-24T08:59:43Z</time>
      </trkpt>
      <trkpt lat="46.8418" lon="-1.68456">
        <ele>58.4</ele>
        <time>2021-12-24T08:59:45Z</time>
      </trkpt>
      <trkpt lat="46.84169" lon="-1.68453">
        <ele>58.4</ele>
        <time>2021-12-24T08:59:47Z</time>
      </trkpt>
      <trkpt lat="46.84163" lon="-1.68451">
        <ele>58.4</ele>
        <time>2021-12-24T08:59:48Z</time>
      </trkpt>
      <trkpt lat="46.84157" lon="-1.68449">
        <ele>58.4</ele>
        <time>2021-12-24T08:59:49Z</time>
      </trkpt>
      <trkpt lat="46.84146" lon="-1.68445">
        <ele>58.4</ele>
        <time>2021-12-24T08:59:51Z</time>
      </trkpt>
      <trkpt lat="46.84135" lon="-1.68441">
        <ele>58.2</ele>
        <time>2021-12-24T08:59:53Z</time>
      </trkpt>
      <trkpt lat="46.84124" lon="-1.68436">
        <ele>58.4</ele>
        <time>2021-12-24T08:59:55Z</time>
      </trkpt>
      <trkpt lat="46.84119" lon="-1.68435">
        <ele>58.4</ele>
        <time>2021-12-24T08:59:56Z</time>
      </trkpt>
      <trkpt lat="46.84114" lon="-1.68433">
        <ele>58.4</ele>
        <time>2021-12-24T08:59:57Z</time>
      </trkpt>
      <trkpt lat="46.84104" lon="-1.68428">
        <ele>58.4</ele>
        <time>2021-12-24T08:59:59Z</time>
      </trkpt>
      <trkpt lat="46.84098" lon="-1.68425">
        <ele>58.2</ele>
        <time>2021-12-24T09:00:00Z</time>
      </trkpt>
      <trkpt lat="46.84093" lon="-1.68423">
        <ele>58</ele>
        <time>2021-12-24T09:00:01Z</time>
      </trkpt>
      <trkpt lat="46.84083" lon="-1.68418">
        <ele>58</ele>
        <time>2021-12-24T09:00:03Z</time>
      </trkpt>
      <trkpt lat="46.84073" lon="-1.68413">
        <ele>58</ele>
        <time>2021-12-24T09:00:05Z</time>
      </trkpt>
      <trkpt lat="46.84067" lon="-1.68409">
        <ele>58</ele>
        <time>2021-12-24T09:00:06Z</time>
      </trkpt>
      <trkpt lat="46.84062" lon="-1.68405">
        <ele>58</ele>
        <time>2021-12-24T09:00:07Z</time>
      </trkpt>
      <trkpt lat="46.84058" lon="-1.68401">
        <ele>58</ele>
        <time>2021-12-24T09:00:08Z</time>
      </trkpt>
      <trkpt lat="46.84053" lon="-1.68396">
        <ele>58</ele>
        <time>2021-12-24T09:00:09Z</time>
      </trkpt>
      <trkpt lat="46.84046" lon="-1.68387">
        <ele>57.8</ele>
        <time>2021-12-24T09:00:11Z</time>
      </trkpt>
      <trkpt lat="46.8404" lon="-1.6838">
        <ele>57.8</ele>
        <time>2021-12-24T09:00:13Z</time>
      </trkpt>
      <trkpt lat="46.84035" lon="-1.68376">
        <ele>57.8</ele>
        <time>2021-12-24T09:00:14Z</time>
      </trkpt>
      <trkpt lat="46.84031" lon="-1.68371">
        <ele>57.8</ele>
        <time>2021-12-24T09:00:15Z</time>
      </trkpt>
      <trkpt lat="46.84027" lon="-1.68367">
        <ele>57.8</ele>
        <time>2021-12-24T09:00:16Z</time>
      </trkpt>
      <trkpt lat="46.84022" lon="-1.68364">
        <ele>57.8</ele>
        <time>2021-12-24T09:00:17Z</time>
      </trkpt>
      <trkpt lat="46.84012" lon="-1.68356">
        <ele>57.8</ele>
        <time>2021-12-24T09:00:19Z</time>
      </trkpt>
      <trkpt lat="46.84002" lon="-1.68348">
        <ele>57.8</ele>
        <time>2021-12-24T09:00:21Z</time>
      </trkpt>
      <trkpt lat="46.83992" lon="-1.6834">
        <ele>57.8</ele>
        <time>2021-12-24T09:00:23Z</time>
      </trkpt>
      <trkpt lat="46.83981" lon="-1.68332">
        <ele>57.6</ele>
        <time>2021-12-24T09:00:25Z</time>
      </trkpt>
      <trkpt lat="46.83971" lon="-1.68322">
        <ele>57.8</ele>
        <time>2021-12-24T09:00:27Z</time>
      </trkpt>
      <trkpt lat="46.8396" lon="-1.68314">
        <ele>57.8</ele>
        <time>2021-12-24T09:00:29Z</time>
      </trkpt>
      <trkpt lat="46.8395" lon="-1.68306">
        <ele>58</ele>
        <time>2021-12-24T09:00:31Z</time>
      </trkpt>
      <trkpt lat="46.83939" lon="-1.68299">
        <ele>58.2</ele>
        <time>2021-12-24T09:00:33Z</time>
      </trkpt>
      <trkpt lat="46.83929" lon="-1.68291">
        <ele>58</ele>
        <time>2021-12-24T09:00:35Z</time>
      </trkpt>
      <trkpt lat="46.83918" lon="-1.68283">
        <ele>58.2</ele>
        <time>2021-12-24T09:00:37Z</time>
      </trkpt>
      <trkpt lat="46.83907" lon="-1.68277">
        <ele>58.2</ele>
        <time>2021-12-24T09:00:39Z</time>
      </trkpt>
      <trkpt lat="46.83896" lon="-1.68271">
        <ele>58.4</ele>
        <time>2021-12-24T09:00:41Z</time>
      </trkpt>
      <trkpt lat="46.83885" lon="-1.68266">
        <ele>58.6</ele>
        <time>2021-12-24T09:00:43Z</time>
      </trkpt>
      <trkpt lat="46.8388" lon="-1.68263">
        <ele>58.6</ele>
        <time>2021-12-24T09:00:44Z</time>
      </trkpt>
      <trkpt lat="46.83875" lon="-1.68261">
        <ele>58.6</ele>
        <time>2021-12-24T09:00:45Z</time>
      </trkpt>
      <trkpt lat="46.83864" lon="-1.68254">
        <ele>58.8</ele>
        <time>2021-12-24T09:00:47Z</time>
      </trkpt>
      <trkpt lat="46.83853" lon="-1.68246">
        <ele>58.8</ele>
        <time>2021-12-24T09:00:49Z</time>
      </trkpt>
      <trkpt lat="46.83848" lon="-1.68242">
        <ele>58.8</ele>
        <time>2021-12-24T09:00:50Z</time>
      </trkpt>
      <trkpt lat="46.83843" lon="-1.68238">
        <ele>58.8</ele>
        <time>2021-12-24T09:00:51Z</time>
      </trkpt>
      <trkpt lat="46.83833" lon="-1.68229">
        <ele>58.8</ele>
        <time>2021-12-24T09:00:53Z</time>
      </trkpt>
      <trkpt lat="46.83823" lon="-1.6822">
        <ele>58.8</ele>
        <time>2021-12-24T09:00:55Z</time>
      </trkpt>
      <trkpt lat="46.83813" lon="-1.68211">
        <ele>58.8</ele>
        <time>2021-12-24T09:00:57Z</time>
      </trkpt>
      <trkpt lat="46.83803" lon="-1.68203">
        <ele>58.8</ele>
        <time>2021-12-24T09:00:59Z</time>
      </trkpt>
      <trkpt lat="46.83793" lon="-1.68194">
        <ele>58.8</ele>
        <time>2021-12-24T09:01:01Z</time>
      </trkpt>
      <trkpt lat="46.83783" lon="-1.68185">
        <ele>58.8</ele>
        <time>2021-12-24T09:01:03Z</time>
      </trkpt>
      <trkpt lat="46.83772" lon="-1.68176">
        <ele>58.8</ele>
        <time>2021-12-24T09:01:05Z</time>
      </trkpt>
      <trkpt lat="46.83767" lon="-1.68172">
        <ele>58.8</ele>
        <time>2021-12-24T09:01:06Z</time>
      </trkpt>
      <trkpt lat="46.83761" lon="-1.68167">
        <ele>58.8</ele>
        <time>2021-12-24T09:01:07Z</time>
      </trkpt>
      <trkpt lat="46.83751" lon="-1.6816">
        <ele>58.8</ele>
        <time>2021-12-24T09:01:09Z</time>
      </trkpt>
      <trkpt lat="46.83741" lon="-1.68152">
        <ele>59</ele>
        <time>2021-12-24T09:01:11Z</time>
      </trkpt>
      <trkpt lat="46.8373" lon="-1.68143">
        <ele>58.6</ele>
        <time>2021-12-24T09:01:13Z</time>
      </trkpt>
      <trkpt lat="46.83719" lon="-1.68134">
        <ele>58.6</ele>
        <time>2021-12-24T09:01:15Z</time>
      </trkpt>
      <trkpt lat="46.83707" lon="-1.68125">
        <ele>58.8</ele>
        <time>2021-12-24T09:01:17Z</time>
      </trkpt>
      <trkpt lat="46.83701" lon="-1.6812">
        <ele>58.6</ele>
        <time>2021-12-24T09:01:18Z</time>
      </trkpt>
      <trkpt lat="46.83694" lon="-1.68116">
        <ele>58.6</ele>
        <time>2021-12-24T09:01:19Z</time>
      </trkpt>
      <trkpt lat="46.83681" lon="-1.6811">
        <ele>58.8</ele>
        <time>2021-12-24T09:01:21Z</time>
      </trkpt>
      <trkpt lat="46.83668" lon="-1.68107">
        <ele>59</ele>
        <time>2021-12-24T09:01:23Z</time>
      </trkpt>
      <trkpt lat="46.83655" lon="-1.68106">
        <ele>59</ele>
        <time>2021-12-24T09:01:25Z</time>
      </trkpt>
      <trkpt lat="46.83643" lon="-1.68104">
        <ele>59.2</ele>
        <time>2021-12-24T09:01:27Z</time>
      </trkpt>
      <trkpt lat="46.8363" lon="-1.68102">
        <ele>59.4</ele>
        <time>2021-12-24T09:01:29Z</time>
      </trkpt>
      <trkpt lat="46.83623" lon="-1.68101">
        <ele>59.4</ele>
        <time>2021-12-24T09:01:30Z</time>
      </trkpt>
      <trkpt lat="46.83617" lon="-1.68099">
        <ele>59.4</ele>
        <time>2021-12-24T09:01:31Z</time>
      </trkpt>
      <trkpt lat="46.83611" lon="-1.68098">
        <ele>59.4</ele>
        <time>2021-12-24T09:01:32Z</time>
      </trkpt>
      <trkpt lat="46.83605" lon="-1.68096">
        <ele>59.4</ele>
        <time>2021-12-24T09:01:33Z</time>
      </trkpt>
      <trkpt lat="46.83592" lon="-1.68092">
        <ele>59.6</ele>
        <time>2021-12-24T09:01:35Z</time>
      </trkpt>
      <trkpt lat="46.8358" lon="-1.68088">
        <ele>59.6</ele>
        <time>2021-12-24T09:01:37Z</time>
      </trkpt>
      <trkpt lat="46.83568" lon="-1.68083">
        <ele>59.6</ele>
        <time>2021-12-24T09:01:39Z</time>
      </trkpt>
      <trkpt lat="46.83556" lon="-1.68077">
        <ele>59.6</ele>
        <time>2021-12-24T09:01:41Z</time>
      </trkpt>
      <trkpt lat="46.83545" lon="-1.6807">
        <ele>59.6</ele>
        <time>2021-12-24T09:01:43Z</time>
      </trkpt>
      <trkpt lat="46.83535" lon="-1.68061">
        <ele>59.8</ele>
        <time>2021-12-24T09:01:45Z</time>
      </trkpt>
      <trkpt lat="46.83529" lon="-1.68057">
        <ele>59.8</ele>
        <time>2021-12-24T09:01:46Z</time>
      </trkpt>
      <trkpt lat="46.83524" lon="-1.68052">
        <ele>59.6</ele>
        <time>2021-12-24T09:01:47Z</time>
      </trkpt>
      <trkpt lat="46.83514" lon="-1.68043">
        <ele>59.6</ele>
        <time>2021-12-24T09:01:49Z</time>
      </trkpt>
      <trkpt lat="46.83503" lon="-1.68034">
        <ele>59.6</ele>
        <time>2021-12-24T09:01:51Z</time>
      </trkpt>
      <trkpt lat="46.83494" lon="-1.68024">
        <ele>59.8</ele>
        <time>2021-12-24T09:01:53Z</time>
      </trkpt>
      <trkpt lat="46.83489" lon="-1.6802">
        <ele>59.8</ele>
        <time>2021-12-24T09:01:54Z</time>
      </trkpt>
      <trkpt lat="46.83484" lon="-1.68015">
        <ele>59.8</ele>
        <time>2021-12-24T09:01:55Z</time>
      </trkpt>
      <trkpt lat="46.83474" lon="-1.68006">
        <ele>60</ele>
        <time>2021-12-24T09:01:57Z</time>
      </trkpt>
      <trkpt lat="46.83464" lon="-1.67998">
        <ele>60</ele>
        <time>2021-12-24T09:01:59Z</time>
      </trkpt>
      <trkpt lat="46.8346" lon="-1.67995">
        <ele>60</ele>
        <time>2021-12-24T09:02:00Z</time>
      </trkpt>
      <trkpt lat="46.83455" lon="-1.6799">
        <ele>60</ele>
        <time>2021-12-24T09:02:01Z</time>
      </trkpt>
      <trkpt lat="46.83446" lon="-1.67981">
        <ele>60.2</ele>
        <time>2021-12-24T09:02:03Z</time>
      </trkpt>
      <trkpt lat="46.83437" lon="-1.67974">
        <ele>60.2</ele>
        <time>2021-12-24T09:02:05Z</time>
      </trkpt>
      <trkpt lat="46.83432" lon="-1.67969">
        <ele>60.2</ele>
        <time>2021-12-24T09:02:06Z</time>
      </trkpt>
      <trkpt lat="46.83427" lon="-1.67965">
        <ele>60.2</ele>
        <time>2021-12-24T09:02:07Z</time>
      </trkpt>
      <trkpt lat="46.83418" lon="-1.67957">
        <ele>60.2</ele>
        <time>2021-12-24T09:02:09Z</time>
      </trkpt>
      <trkpt lat="46.83414" lon="-1.67952">
        <ele>60.2</ele>
        <time>2021-12-24T09:02:10Z</time>
      </trkpt>
      <trkpt lat="46.83409" lon="-1.67948">
        <ele>60.2</ele>
        <time>2021-12-24T09:02:11Z</time>
      </trkpt>
      <trkpt lat="46.83398" lon="-1.67939">
        <ele>60.2</ele>
        <time>2021-12-24T09:02:13Z</time>
      </trkpt>
      <trkpt lat="46.83388" lon="-1.67929">
        <ele>60.2</ele>
        <time>2021-12-24T09:02:15Z</time>
      </trkpt>
      <trkpt lat="46.83378" lon="-1.6792">
        <ele>60.2</ele>
        <time>2021-12-24T09:02:17Z</time>
      </trkpt>
      <trkpt lat="46.83367" lon="-1.67909">
        <ele>60.2</ele>
        <time>2021-12-24T09:02:19Z</time>
      </trkpt>
      <trkpt lat="46.83356" lon="-1.67899">
        <ele>60.2</ele>
        <time>2021-12-24T09:02:21Z</time>
      </trkpt>
      <trkpt lat="46.83347" lon="-1.67889">
        <ele>60.4</ele>
        <time>2021-12-24T09:02:23Z</time>
      </trkpt>
      <trkpt lat="46.83338" lon="-1.67878">
        <ele>60.4</ele>
        <time>2021-12-24T09:02:25Z</time>
      </trkpt>
      <trkpt lat="46.83333" lon="-1.67872">
        <ele>60.4</ele>
        <time>2021-12-24T09:02:26Z</time>
      </trkpt>
      <trkpt lat="46.83329" lon="-1.67865">
        <ele>60.4</ele>
        <time>2021-12-24T09:02:27Z</time>
      </trkpt>
      <trkpt lat="46.8332" lon="-1.67852">
        <ele>60.2</ele>
        <time>2021-12-24T09:02:29Z</time>
      </trkpt>
      <trkpt lat="46.83311" lon="-1.67838">
        <ele>60.4</ele>
        <time>2021-12-24T09:02:31Z</time>
      </trkpt>
      <trkpt lat="46.83307" lon="-1.67831">
        <ele>60.2</ele>
        <time>2021-12-24T09:02:32Z</time>
      </trkpt>
      <trkpt lat="46.83302" lon="-1.67825">
        <ele>60</ele>
        <time>2021-12-24T09:02:33Z</time>
      </trkpt>
      <trkpt lat="46.83293" lon="-1.67811">
        <ele>60.2</ele>
        <time>2021-12-24T09:02:35Z</time>
      </trkpt>
      <trkpt lat="46.83285" lon="-1.67798">
        <ele>60</ele>
        <time>2021-12-24T09:02:37Z</time>
      </trkpt>
      <trkpt lat="46.83281" lon="-1.67792">
        <ele>60</ele>
        <time>2021-12-24T09:02:38Z</time>
      </trkpt>
      <trkpt lat="46.83277" lon="-1.67785">
        <ele>60</ele>
        <time>2021-12-24T09:02:39Z</time>
      </trkpt>
      <trkpt lat="46.83268" lon="-1.67772">
        <ele>60.2</ele>
        <time>2021-12-24T09:02:41Z</time>
      </trkpt>
      <trkpt lat="46.83263" lon="-1.67767">
        <ele>60.2</ele>
        <time>2021-12-24T09:02:42Z</time>
      </trkpt>
      <trkpt lat="46.83258" lon="-1.67761">
        <ele>60.2</ele>
        <time>2021-12-24T09:02:43Z</time>
      </trkpt>
      <trkpt lat="46.83253" lon="-1.67755">
        <ele>60.2</ele>
        <time>2021-12-24T09:02:44Z</time>
      </trkpt>
      <trkpt lat="46.83248" lon="-1.6775">
        <ele>60</ele>
        <time>2021-12-24T09:02:45Z</time>
      </trkpt>
      <trkpt lat="46.83238" lon="-1.6774">
        <ele>60.2</ele>
        <time>2021-12-24T09:02:47Z</time>
      </trkpt>
      <trkpt lat="46.83228" lon="-1.67731">
        <ele>60.2</ele>
        <time>2021-12-24T09:02:49Z</time>
      </trkpt>
      <trkpt lat="46.83218" lon="-1.67721">
        <ele>60.4</ele>
        <time>2021-12-24T09:02:51Z</time>
      </trkpt>
      <trkpt lat="46.83209" lon="-1.67714">
        <ele>60.6</ele>
        <time>2021-12-24T09:02:53Z</time>
      </trkpt>
      <trkpt lat="46.83204" lon="-1.6771">
        <ele>60.6</ele>
        <time>2021-12-24T09:02:54Z</time>
      </trkpt>
      <trkpt lat="46.832" lon="-1.67706">
        <ele>60.6</ele>
        <time>2021-12-24T09:02:55Z</time>
      </trkpt>
      <trkpt lat="46.8319" lon="-1.67698">
        <ele>60.6</ele>
        <time>2021-12-24T09:02:57Z</time>
      </trkpt>
      <trkpt lat="46.8318" lon="-1.67689">
        <ele>60.8</ele>
        <time>2021-12-24T09:02:59Z</time>
      </trkpt>
      <trkpt lat="46.83169" lon="-1.67681">
        <ele>60.8</ele>
        <time>2021-12-24T09:03:01Z</time>
      </trkpt>
      <trkpt lat="46.83157" lon="-1.67673">
        <ele>60.8</ele>
        <time>2021-12-24T09:03:03Z</time>
      </trkpt>
      <trkpt lat="46.83146" lon="-1.67667">
        <ele>60.8</ele>
        <time>2021-12-24T09:03:05Z</time>
      </trkpt>
      <trkpt lat="46.83134" lon="-1.6766">
        <ele>60.8</ele>
        <time>2021-12-24T09:03:07Z</time>
      </trkpt>
      <trkpt lat="46.83128" lon="-1.67656">
        <ele>61</ele>
        <time>2021-12-24T09:03:08Z</time>
      </trkpt>
      <trkpt lat="46.83123" lon="-1.67654">
        <ele>61</ele>
        <time>2021-12-24T09:03:09Z</time>
      </trkpt>
      <trkpt lat="46.83111" lon="-1.67647">
        <ele>61</ele>
        <time>2021-12-24T09:03:11Z</time>
      </trkpt>
      <trkpt lat="46.83105" lon="-1.67643">
        <ele>61</ele>
        <time>2021-12-24T09:03:12Z</time>
      </trkpt>
      <trkpt lat="46.83099" lon="-1.67639">
        <ele>61</ele>
        <time>2021-12-24T09:03:13Z</time>
      </trkpt>
      <trkpt lat="46.83086" lon="-1.67632">
        <ele>61.2</ele>
        <time>2021-12-24T09:03:15Z</time>
      </trkpt>
      <trkpt lat="46.83074" lon="-1.67627">
        <ele>61.2</ele>
        <time>2021-12-24T09:03:17Z</time>
      </trkpt>
      <trkpt lat="46.83068" lon="-1.67623">
        <ele>61.2</ele>
        <time>2021-12-24T09:03:18Z</time>
      </trkpt>
      <trkpt lat="46.83063" lon="-1.67619">
        <ele>61.2</ele>
        <time>2021-12-24T09:03:19Z</time>
      </trkpt>
      <trkpt lat="46.83053" lon="-1.6761">
        <ele>61.2</ele>
        <time>2021-12-24T09:03:21Z</time>
      </trkpt>
      <trkpt lat="46.83043" lon="-1.67598">
        <ele>61.2</ele>
        <time>2021-12-24T09:03:23Z</time>
      </trkpt>
      <trkpt lat="46.83034" lon="-1.67587">
        <ele>61.2</ele>
        <time>2021-12-24T09:03:25Z</time>
      </trkpt>
      <trkpt lat="46.83024" lon="-1.67574">
        <ele>61.2</ele>
        <time>2021-12-24T09:03:27Z</time>
      </trkpt>
      <trkpt lat="46.83015" lon="-1.67563">
        <ele>61.2</ele>
        <time>2021-12-24T09:03:29Z</time>
      </trkpt>
      <trkpt lat="46.8301" lon="-1.67557">
        <ele>61.2</ele>
        <time>2021-12-24T09:03:30Z</time>
      </trkpt>
      <trkpt lat="46.83005" lon="-1.67551">
        <ele>61.2</ele>
        <time>2021-12-24T09:03:31Z</time>
      </trkpt>
      <trkpt lat="46.82994" lon="-1.6754">
        <ele>61.4</ele>
        <time>2021-12-24T09:03:33Z</time>
      </trkpt>
      <trkpt lat="46.82984" lon="-1.67529">
        <ele>61.4</ele>
        <time>2021-12-24T09:03:35Z</time>
      </trkpt>
      <trkpt lat="46.82979" lon="-1.67524">
        <ele>61.4</ele>
        <time>2021-12-24T09:03:36Z</time>
      </trkpt>
      <trkpt lat="46.82974" lon="-1.6752">
        <ele>61.4</ele>
        <time>2021-12-24T09:03:37Z</time>
      </trkpt>
      <trkpt lat="46.82963" lon="-1.6751">
        <ele>61.4</ele>
        <time>2021-12-24T09:03:39Z</time>
      </trkpt>
      <trkpt lat="46.82952" lon="-1.675">
        <ele>61.2</ele>
        <time>2021-12-24T09:03:41Z</time>
      </trkpt>
      <trkpt lat="46.82941" lon="-1.67489">
        <ele>61.2</ele>
        <time>2021-12-24T09:03:43Z</time>
      </trkpt>
      <trkpt lat="46.82929" lon="-1.67479">
        <ele>61.2</ele>
        <time>2021-12-24T09:03:45Z</time>
      </trkpt>
      <trkpt lat="46.82917" lon="-1.67469">
        <ele>61.2</ele>
        <time>2021-12-24T09:03:47Z</time>
      </trkpt>
      <trkpt lat="46.82911" lon="-1.67464">
        <ele>61</ele>
        <time>2021-12-24T09:03:48Z</time>
      </trkpt>
      <trkpt lat="46.82905" lon="-1.67459">
        <ele>61</ele>
        <time>2021-12-24T09:03:49Z</time>
      </trkpt>
      <trkpt lat="46.82894" lon="-1.67449">
        <ele>61</ele>
        <time>2021-12-24T09:03:51Z</time>
      </trkpt>
      <trkpt lat="46.82881" lon="-1.67439">
        <ele>61</ele>
        <time>2021-12-24T09:03:53Z</time>
      </trkpt>
      <trkpt lat="46.82868" lon="-1.67429">
        <ele>60.8</ele>
        <time>2021-12-24T09:03:55Z</time>
      </trkpt>
      <trkpt lat="46.82855" lon="-1.6742">
        <ele>60.8</ele>
        <time>2021-12-24T09:03:57Z</time>
      </trkpt>
      <trkpt lat="46.82843" lon="-1.67411">
        <ele>60.8</ele>
        <time>2021-12-24T09:03:59Z</time>
      </trkpt>
      <trkpt lat="46.8283" lon="-1.67401">
        <ele>61</ele>
        <time>2021-12-24T09:04:01Z</time>
      </trkpt>
      <trkpt lat="46.82824" lon="-1.67396">
        <ele>61</ele>
        <time>2021-12-24T09:04:02Z</time>
      </trkpt>
      <trkpt lat="46.82818" lon="-1.67392">
        <ele>61</ele>
        <time>2021-12-24T09:04:03Z</time>
      </trkpt>
      <trkpt lat="46.82807" lon="-1.67383">
        <ele>61</ele>
        <time>2021-12-24T09:04:05Z</time>
      </trkpt>
      <trkpt lat="46.82794" lon="-1.67373">
        <ele>60.8</ele>
        <time>2021-12-24T09:04:07Z</time>
      </trkpt>
      <trkpt lat="46.82788" lon="-1.67368">
        <ele>60.8</ele>
        <time>2021-12-24T09:04:08Z</time>
      </trkpt>
      <trkpt lat="46.82782" lon="-1.67363">
        <ele>60.8</ele>
        <time>2021-12-24T09:04:09Z</time>
      </trkpt>
      <trkpt lat="46.82769" lon="-1.67353">
        <ele>60.8</ele>
        <time>2021-12-24T09:04:11Z</time>
      </trkpt>
      <trkpt lat="46.82756" lon="-1.67342">
        <ele>60.6</ele>
        <time>2021-12-24T09:04:13Z</time>
      </trkpt>
      <trkpt lat="46.82742" lon="-1.6733">
        <ele>60.6</ele>
        <time>2021-12-24T09:04:15Z</time>
      </trkpt>
      <trkpt lat="46.82729" lon="-1.67316">
        <ele>60.4</ele>
        <time>2021-12-24T09:04:17Z</time>
      </trkpt>
      <trkpt lat="46.82716" lon="-1.67302">
        <ele>60.2</ele>
        <time>2021-12-24T09:04:19Z</time>
      </trkpt>
      <trkpt lat="46.82704" lon="-1.67288">
        <ele>60</ele>
        <time>2021-12-24T09:04:21Z</time>
      </trkpt>
      <trkpt lat="46.8269" lon="-1.67274">
        <ele>59.8</ele>
        <time>2021-12-24T09:04:23Z</time>
      </trkpt>
      <trkpt lat="46.82678" lon="-1.67261">
        <ele>59.6</ele>
        <time>2021-12-24T09:04:25Z</time>
      </trkpt>
      <trkpt lat="46.82665" lon="-1.67248">
        <ele>59.6</ele>
        <time>2021-12-24T09:04:27Z</time>
      </trkpt>
      <trkpt lat="46.82658" lon="-1.67241">
        <ele>59.4</ele>
        <time>2021-12-24T09:04:28Z</time>
      </trkpt>
      <trkpt lat="46.82652" lon="-1.67236">
        <ele>59.4</ele>
        <time>2021-12-24T09:04:29Z</time>
      </trkpt>
      <trkpt lat="46.82644" lon="-1.67231">
        <ele>59.4</ele>
        <time>2021-12-24T09:04:30Z</time>
      </trkpt>
      <trkpt lat="46.82637" lon="-1.67227">
        <ele>59.2</ele>
        <time>2021-12-24T09:04:31Z</time>
      </trkpt>
      <trkpt lat="46.8263" lon="-1.67225">
        <ele>59.2</ele>
        <time>2021-12-24T09:04:32Z</time>
      </trkpt>
      <trkpt lat="46.82622" lon="-1.67223">
        <ele>59.2</ele>
        <time>2021-12-24T09:04:33Z</time>
      </trkpt>
      <trkpt lat="46.82607" lon="-1.67222">
        <ele>59.2</ele>
        <time>2021-12-24T09:04:35Z</time>
      </trkpt>
      <trkpt lat="46.826" lon="-1.67223">
        <ele>59.2</ele>
        <time>2021-12-24T09:04:36Z</time>
      </trkpt>
      <trkpt lat="46.82593" lon="-1.67224">
        <ele>59</ele>
        <time>2021-12-24T09:04:37Z</time>
      </trkpt>
      <trkpt lat="46.82578" lon="-1.67228">
        <ele>59</ele>
        <time>2021-12-24T09:04:39Z</time>
      </trkpt>
      <trkpt lat="46.82565" lon="-1.67232">
        <ele>59</ele>
        <time>2021-12-24T09:04:41Z</time>
      </trkpt>
      <trkpt lat="46.82559" lon="-1.67233">
        <ele>59</ele>
        <time>2021-12-24T09:04:42Z</time>
      </trkpt>
      <trkpt lat="46.82553" lon="-1.67232">
        <ele>59</ele>
        <time>2021-12-24T09:04:43Z</time>
      </trkpt>
      <trkpt lat="46.82549" lon="-1.67226">
        <ele>59</ele>
        <time>2021-12-24T09:04:44Z</time>
      </trkpt>
      <trkpt lat="46.82547" lon="-1.67219">
        <ele>58.8</ele>
        <time>2021-12-24T09:04:45Z</time>
      </trkpt>
      <trkpt lat="46.82546" lon="-1.67209">
        <ele>58.8</ele>
        <time>2021-12-24T09:04:46Z</time>
      </trkpt>
      <trkpt lat="46.82546" lon="-1.672">
        <ele>58.8</ele>
        <time>2021-12-24T09:04:47Z</time>
      </trkpt>
      <trkpt lat="46.82545" lon="-1.67182">
        <ele>58.6</ele>
        <time>2021-12-24T09:04:49Z</time>
      </trkpt>
      <trkpt lat="46.82543" lon="-1.67162">
        <ele>58.6</ele>
        <time>2021-12-24T09:04:51Z</time>
      </trkpt>
      <trkpt lat="46.82541" lon="-1.67142">
        <ele>58.4</ele>
        <time>2021-12-24T09:04:53Z</time>
      </trkpt>
      <trkpt lat="46.82539" lon="-1.67122">
        <ele>58.2</ele>
        <time>2021-12-24T09:04:55Z</time>
      </trkpt>
      <trkpt lat="46.82537" lon="-1.67102">
        <ele>58.2</ele>
        <time>2021-12-24T09:04:57Z</time>
      </trkpt>
      <trkpt lat="46.82534" lon="-1.67082">
        <ele>58</ele>
        <time>2021-12-24T09:04:59Z</time>
      </trkpt>
      <trkpt lat="46.8253" lon="-1.67062">
        <ele>57.8</ele>
        <time>2021-12-24T09:05:01Z</time>
      </trkpt>
      <trkpt lat="46.82524" lon="-1.67043">
        <ele>57.8</ele>
        <time>2021-12-24T09:05:03Z</time>
      </trkpt>
      <trkpt lat="46.82517" lon="-1.67024">
        <ele>57.6</ele>
        <time>2021-12-24T09:05:05Z</time>
      </trkpt>
      <trkpt lat="46.8251" lon="-1.67005">
        <ele>57.6</ele>
        <time>2021-12-24T09:05:07Z</time>
      </trkpt>
      <trkpt lat="46.82503" lon="-1.66986">
        <ele>57.6</ele>
        <time>2021-12-24T09:05:09Z</time>
      </trkpt>
      <trkpt lat="46.82497" lon="-1.66968">
        <ele>57.4</ele>
        <time>2021-12-24T09:05:11Z</time>
      </trkpt>
      <trkpt lat="46.82492" lon="-1.66949">
        <ele>57.2</ele>
        <time>2021-12-24T09:05:13Z</time>
      </trkpt>
      <trkpt lat="46.82487" lon="-1.66931">
        <ele>57.2</ele>
        <time>2021-12-24T09:05:15Z</time>
      </trkpt>
      <trkpt lat="46.82485" lon="-1.66913">
        <ele>57.2</ele>
        <time>2021-12-24T09:05:17Z</time>
      </trkpt>
      <trkpt lat="46.82485" lon="-1.66905">
        <ele>57.2</ele>
        <time>2021-12-24T09:05:18Z</time>
      </trkpt>
      <trkpt lat="46.82485" lon="-1.66896">
        <ele>57.2</ele>
        <time>2021-12-24T09:05:19Z</time>
      </trkpt>
      <trkpt lat="46.82485" lon="-1.66879">
        <ele>57.2</ele>
        <time>2021-12-24T09:05:21Z</time>
      </trkpt>
      <trkpt lat="46.82485" lon="-1.66863">
        <ele>57.2</ele>
        <time>2021-12-24T09:05:23Z</time>
      </trkpt>
      <trkpt lat="46.82486" lon="-1.66848">
        <ele>57.2</ele>
        <time>2021-12-24T09:05:25Z</time>
      </trkpt>
      <trkpt lat="46.82487" lon="-1.66832">
        <ele>57.2</ele>
        <time>2021-12-24T09:05:27Z</time>
      </trkpt>
      <trkpt lat="46.82488" lon="-1.66816">
        <ele>57.2</ele>
        <time>2021-12-24T09:05:29Z</time>
      </trkpt>
      <trkpt lat="46.82489" lon="-1.66799">
        <ele>57</ele>
        <time>2021-12-24T09:05:31Z</time>
      </trkpt>
      <trkpt lat="46.8249" lon="-1.66783">
        <ele>57.2</ele>
        <time>2021-12-24T09:05:33Z</time>
      </trkpt>
      <trkpt lat="46.82491" lon="-1.66767">
        <ele>57.8</ele>
        <time>2021-12-24T09:05:35Z</time>
      </trkpt>
      <trkpt lat="46.82492" lon="-1.66751">
        <ele>57.4</ele>
        <time>2021-12-24T09:05:37Z</time>
      </trkpt>
      <trkpt lat="46.82493" lon="-1.66735">
        <ele>57.6</ele>
        <time>2021-12-24T09:05:39Z</time>
      </trkpt>
      <trkpt lat="46.82494" lon="-1.66727">
        <ele>57.6</ele>
        <time>2021-12-24T09:05:40Z</time>
      </trkpt>
      <trkpt lat="46.82494" lon="-1.66719">
        <ele>57.6</ele>
        <time>2021-12-24T09:05:41Z</time>
      </trkpt>
      <trkpt lat="46.82495" lon="-1.66703">
        <ele>57.6</ele>
        <time>2021-12-24T09:05:43Z</time>
      </trkpt>
      <trkpt lat="46.82494" lon="-1.66686">
        <ele>57.6</ele>
        <time>2021-12-24T09:05:45Z</time>
      </trkpt>
      <trkpt lat="46.82492" lon="-1.6667">
        <ele>57.6</ele>
        <time>2021-12-24T09:05:47Z</time>
      </trkpt>
      <trkpt lat="46.8249" lon="-1.66653">
        <ele>57.6</ele>
        <time>2021-12-24T09:05:49Z</time>
      </trkpt>
      <trkpt lat="46.82487" lon="-1.66636">
        <ele>57.8</ele>
        <time>2021-12-24T09:05:51Z</time>
      </trkpt>
      <trkpt lat="46.82485" lon="-1.66618">
        <ele>57.8</ele>
        <time>2021-12-24T09:05:53Z</time>
      </trkpt>
      <trkpt lat="46.82483" lon="-1.66601">
        <ele>57.8</ele>
        <time>2021-12-24T09:05:55Z</time>
      </trkpt>
      <trkpt lat="46.82481" lon="-1.66582">
        <ele>57.8</ele>
        <time>2021-12-24T09:05:57Z</time>
      </trkpt>
      <trkpt lat="46.82478" lon="-1.66564">
        <ele>57.8</ele>
        <time>2021-12-24T09:05:59Z</time>
      </trkpt>
      <trkpt lat="46.82476" lon="-1.66545">
        <ele>57.8</ele>
        <time>2021-12-24T09:06:01Z</time>
      </trkpt>
      <trkpt lat="46.82473" lon="-1.66526">
        <ele>57.8</ele>
        <time>2021-12-24T09:06:03Z</time>
      </trkpt>
      <trkpt lat="46.82471" lon="-1.66507">
        <ele>58</ele>
        <time>2021-12-24T09:06:05Z</time>
      </trkpt>
      <trkpt lat="46.82468" lon="-1.66488">
        <ele>57.8</ele>
        <time>2021-12-24T09:06:07Z</time>
      </trkpt>
      <trkpt lat="46.82465" lon="-1.66468">
        <ele>57.8</ele>
        <time>2021-12-24T09:06:09Z</time>
      </trkpt>
      <trkpt lat="46.8246" lon="-1.66449">
        <ele>57.8</ele>
        <time>2021-12-24T09:06:11Z</time>
      </trkpt>
      <trkpt lat="46.82454" lon="-1.66429">
        <ele>57.8</ele>
        <time>2021-12-24T09:06:13Z</time>
      </trkpt>
      <trkpt lat="46.82446" lon="-1.66412">
        <ele>57.6</ele>
        <time>2021-12-24T09:06:15Z</time>
      </trkpt>
      <trkpt lat="46.82438" lon="-1.66395">
        <ele>57.6</ele>
        <time>2021-12-24T09:06:17Z</time>
      </trkpt>
      <trkpt lat="46.82428" lon="-1.66378">
        <ele>57.6</ele>
        <time>2021-12-24T09:06:19Z</time>
      </trkpt>
      <trkpt lat="46.82419" lon="-1.66362">
        <ele>57.4</ele>
        <time>2021-12-24T09:06:21Z</time>
      </trkpt>
      <trkpt lat="46.8241" lon="-1.66345">
        <ele>57.4</ele>
        <time>2021-12-24T09:06:23Z</time>
      </trkpt>
      <trkpt lat="46.82405" lon="-1.66337">
        <ele>57.2</ele>
        <time>2021-12-24T09:06:24Z</time>
      </trkpt>
      <trkpt lat="46.82401" lon="-1.66328">
        <ele>57.2</ele>
        <time>2021-12-24T09:06:25Z</time>
      </trkpt>
      <trkpt lat="46.82392" lon="-1.6631">
        <ele>57</ele>
        <time>2021-12-24T09:06:27Z</time>
      </trkpt>
      <trkpt lat="46.82384" lon="-1.66293">
        <ele>57</ele>
        <time>2021-12-24T09:06:29Z</time>
      </trkpt>
      <trkpt lat="46.82377" lon="-1.66273">
        <ele>56.8</ele>
        <time>2021-12-24T09:06:31Z</time>
      </trkpt>
      <trkpt lat="46.82374" lon="-1.66263">
        <ele>56.8</ele>
        <time>2021-12-24T09:06:32Z</time>
      </trkpt>
      <trkpt lat="46.82372" lon="-1.66253">
        <ele>56.8</ele>
        <time>2021-12-24T09:06:33Z</time>
      </trkpt>
      <trkpt lat="46.82369" lon="-1.66233">
        <ele>56.8</ele>
        <time>2021-12-24T09:06:35Z</time>
      </trkpt>
      <trkpt lat="46.82367" lon="-1.66224">
        <ele>56.8</ele>
        <time>2021-12-24T09:06:36Z</time>
      </trkpt>
      <trkpt lat="46.82365" lon="-1.66215">
        <ele>56.8</ele>
        <time>2021-12-24T09:06:37Z</time>
      </trkpt>
      <trkpt lat="46.82362" lon="-1.66197">
        <ele>56.8</ele>
        <time>2021-12-24T09:06:39Z</time>
      </trkpt>
      <trkpt lat="46.82359" lon="-1.66181">
        <ele>56.8</ele>
        <time>2021-12-24T09:06:41Z</time>
      </trkpt>
      <trkpt lat="46.82356" lon="-1.66165">
        <ele>56.8</ele>
        <time>2021-12-24T09:06:43Z</time>
      </trkpt>
      <trkpt lat="46.82353" lon="-1.66149">
        <ele>57</ele>
        <time>2021-12-24T09:06:45Z</time>
      </trkpt>
      <trkpt lat="46.8235" lon="-1.66134">
        <ele>56.6</ele>
        <time>2021-12-24T09:06:47Z</time>
      </trkpt>
      <trkpt lat="46.82347" lon="-1.6612">
        <ele>56.6</ele>
        <time>2021-12-24T09:06:49Z</time>
      </trkpt>
      <trkpt lat="46.82346" lon="-1.66112">
        <ele>56.8</ele>
        <time>2021-12-24T09:06:50Z</time>
      </trkpt>
      <trkpt lat="46.82344" lon="-1.66105">
        <ele>57</ele>
        <time>2021-12-24T09:06:51Z</time>
      </trkpt>
      <trkpt lat="46.82342" lon="-1.66089">
        <ele>57</ele>
        <time>2021-12-24T09:06:53Z</time>
      </trkpt>
      <trkpt lat="46.8234" lon="-1.66074">
        <ele>57</ele>
        <time>2021-12-24T09:06:55Z</time>
      </trkpt>
      <trkpt lat="46.82339" lon="-1.66066">
        <ele>57</ele>
        <time>2021-12-24T09:06:56Z</time>
      </trkpt>
      <trkpt lat="46.82338" lon="-1.66058">
        <ele>57</ele>
        <time>2021-12-24T09:06:57Z</time>
      </trkpt>
      <trkpt lat="46.82335" lon="-1.6604">
        <ele>57</ele>
        <time>2021-12-24T09:06:59Z</time>
      </trkpt>
      <trkpt lat="46.82333" lon="-1.66023">
        <ele>57</ele>
        <time>2021-12-24T09:07:01Z</time>
      </trkpt>
      <trkpt lat="46.8233" lon="-1.66005">
        <ele>57</ele>
        <time>2021-12-24T09:07:03Z</time>
      </trkpt>
      <trkpt lat="46.82329" lon="-1.65996">
        <ele>57</ele>
        <time>2021-12-24T09:07:04Z</time>
      </trkpt>
      <trkpt lat="46.82328" lon="-1.65987">
        <ele>56.8</ele>
        <time>2021-12-24T09:07:05Z</time>
      </trkpt>
      <trkpt lat="46.82325" lon="-1.65968">
        <ele>57</ele>
        <time>2021-12-24T09:07:07Z</time>
      </trkpt>
      <trkpt lat="46.82322" lon="-1.65949">
        <ele>56.8</ele>
        <time>2021-12-24T09:07:09Z</time>
      </trkpt>
      <trkpt lat="46.8232" lon="-1.6593">
        <ele>56.6</ele>
        <time>2021-12-24T09:07:11Z</time>
      </trkpt>
      <trkpt lat="46.82318" lon="-1.6592">
        <ele>56.8</ele>
        <time>2021-12-24T09:07:12Z</time>
      </trkpt>
      <trkpt lat="46.82317" lon="-1.6591">
        <ele>56.8</ele>
        <time>2021-12-24T09:07:13Z</time>
      </trkpt>
      <trkpt lat="46.82314" lon="-1.65889">
        <ele>56.6</ele>
        <time>2021-12-24T09:07:15Z</time>
      </trkpt>
      <trkpt lat="46.82311" lon="-1.65867">
        <ele>56.6</ele>
        <time>2021-12-24T09:07:17Z</time>
      </trkpt>
      <trkpt lat="46.82307" lon="-1.65846">
        <ele>56.4</ele>
        <time>2021-12-24T09:07:19Z</time>
      </trkpt>
      <trkpt lat="46.82306" lon="-1.65835">
        <ele>56.4</ele>
        <time>2021-12-24T09:07:20Z</time>
      </trkpt>
      <trkpt lat="46.82304" lon="-1.65824">
        <ele>56.2</ele>
        <time>2021-12-24T09:07:21Z</time>
      </trkpt>
      <trkpt lat="46.82301" lon="-1.65802">
        <ele>56</ele>
        <time>2021-12-24T09:07:23Z</time>
      </trkpt>
      <trkpt lat="46.82298" lon="-1.6578">
        <ele>55.8</ele>
        <time>2021-12-24T09:07:25Z</time>
      </trkpt>
      <trkpt lat="46.82296" lon="-1.65757">
        <ele>55.8</ele>
        <time>2021-12-24T09:07:27Z</time>
      </trkpt>
      <trkpt lat="46.82293" lon="-1.65735">
        <ele>55.6</ele>
        <time>2021-12-24T09:07:29Z</time>
      </trkpt>
      <trkpt lat="46.82292" lon="-1.65713">
        <ele>55.6</ele>
        <time>2021-12-24T09:07:31Z</time>
      </trkpt>
      <trkpt lat="46.82291" lon="-1.6569">
        <ele>55.4</ele>
        <time>2021-12-24T09:07:33Z</time>
      </trkpt>
      <trkpt lat="46.82291" lon="-1.65667">
        <ele>55.2</ele>
        <time>2021-12-24T09:07:35Z</time>
      </trkpt>
      <trkpt lat="46.82291" lon="-1.65644">
        <ele>55.2</ele>
        <time>2021-12-24T09:07:37Z</time>
      </trkpt>
      <trkpt lat="46.82289" lon="-1.65621">
        <ele>55</ele>
        <time>2021-12-24T09:07:39Z</time>
      </trkpt>
      <trkpt lat="46.82286" lon="-1.65598">
        <ele>55</ele>
        <time>2021-12-24T09:07:41Z</time>
      </trkpt>
      <trkpt lat="46.82284" lon="-1.65587">
        <ele>55</ele>
        <time>2021-12-24T09:07:42Z</time>
      </trkpt>
      <trkpt lat="46.82282" lon="-1.65576">
        <ele>55</ele>
        <time>2021-12-24T09:07:43Z</time>
      </trkpt>
      <trkpt lat="46.82275" lon="-1.65556">
        <ele>54.8</ele>
        <time>2021-12-24T09:07:45Z</time>
      </trkpt>
      <trkpt lat="46.82271" lon="-1.65547">
        <ele>54.8</ele>
        <time>2021-12-24T09:07:46Z</time>
      </trkpt>
      <trkpt lat="46.82268" lon="-1.65538">
        <ele>54.8</ele>
        <time>2021-12-24T09:07:47Z</time>
      </trkpt>
      <trkpt lat="46.82264" lon="-1.65521">
        <ele>54.8</ele>
        <time>2021-12-24T09:07:49Z</time>
      </trkpt>
      <trkpt lat="46.82261" lon="-1.65504">
        <ele>55</ele>
        <time>2021-12-24T09:07:51Z</time>
      </trkpt>
      <trkpt lat="46.82259" lon="-1.65497">
        <ele>55</ele>
        <time>2021-12-24T09:07:52Z</time>
      </trkpt>
      <trkpt lat="46.82258" lon="-1.65489">
        <ele>55</ele>
        <time>2021-12-24T09:07:53Z</time>
      </trkpt>
      <trkpt lat="46.82258" lon="-1.65481">
        <ele>55</ele>
        <time>2021-12-24T09:07:54Z</time>
      </trkpt>
      <trkpt lat="46.82258" lon="-1.65474">
        <ele>55</ele>
        <time>2021-12-24T09:07:55Z</time>
      </trkpt>
      <trkpt lat="46.82258" lon="-1.65467">
        <ele>55</ele>
        <time>2021-12-24T09:07:56Z</time>
      </trkpt>
      <trkpt lat="46.82259" lon="-1.6546">
        <ele>55</ele>
        <time>2021-12-24T09:07:57Z</time>
      </trkpt>
      <trkpt lat="46.82259" lon="-1.65446">
        <ele>54.6</ele>
        <time>2021-12-24T09:07:59Z</time>
      </trkpt>
      <trkpt lat="46.82259" lon="-1.65434">
        <ele>55</ele>
        <time>2021-12-24T09:08:01Z</time>
      </trkpt>
      <trkpt lat="46.82261" lon="-1.6542">
        <ele>55.4</ele>
        <time>2021-12-24T09:08:03Z</time>
      </trkpt>
      <trkpt lat="46.82261" lon="-1.65414">
        <ele>55.2</ele>
        <time>2021-12-24T09:08:04Z</time>
      </trkpt>
      <trkpt lat="46.82262" lon="-1.65408">
        <ele>55.2</ele>
        <time>2021-12-24T09:08:05Z</time>
      </trkpt>
      <trkpt lat="46.82263" lon="-1.65395">
        <ele>55.2</ele>
        <time>2021-12-24T09:08:07Z</time>
      </trkpt>
      <trkpt lat="46.82265" lon="-1.65382">
        <ele>55.4</ele>
        <time>2021-12-24T09:08:09Z</time>
      </trkpt>
      <trkpt lat="46.82266" lon="-1.65376">
        <ele>55.4</ele>
        <time>2021-12-24T09:08:10Z</time>
      </trkpt>
      <trkpt lat="46.82267" lon="-1.65369">
        <ele>55.4</ele>
        <time>2021-12-24T09:08:11Z</time>
      </trkpt>
      <trkpt lat="46.82269" lon="-1.65355">
        <ele>55.4</ele>
        <time>2021-12-24T09:08:13Z</time>
      </trkpt>
      <trkpt lat="46.82272" lon="-1.65341">
        <ele>55.4</ele>
        <time>2021-12-24T09:08:15Z</time>
      </trkpt>
      <trkpt lat="46.82275" lon="-1.65326">
        <ele>55.4</ele>
        <time>2021-12-24T09:08:17Z</time>
      </trkpt>
      <trkpt lat="46.82279" lon="-1.65313">
        <ele>55.4</ele>
        <time>2021-12-24T09:08:19Z</time>
      </trkpt>
      <trkpt lat="46.82281" lon="-1.65306">
        <ele>55.4</ele>
        <time>2021-12-24T09:08:20Z</time>
      </trkpt>
      <trkpt lat="46.82282" lon="-1.653">
        <ele>55.4</ele>
        <time>2021-12-24T09:08:21Z</time>
      </trkpt>
      <trkpt lat="46.82283" lon="-1.65293">
        <ele>55.4</ele>
        <time>2021-12-24T09:08:22Z</time>
      </trkpt>
      <trkpt lat="46.82284" lon="-1.65286">
        <ele>55.2</ele>
        <time>2021-12-24T09:08:23Z</time>
      </trkpt>
      <trkpt lat="46.82288" lon="-1.65272">
        <ele>55.4</ele>
        <time>2021-12-24T09:08:25Z</time>
      </trkpt>
      <trkpt lat="46.8229" lon="-1.65265">
        <ele>55.6</ele>
        <time>2021-12-24T09:08:26Z</time>
      </trkpt>
      <trkpt lat="46.82292" lon="-1.65259">
        <ele>55.4</ele>
        <time>2021-12-24T09:08:27Z</time>
      </trkpt>
      <trkpt lat="46.82294" lon="-1.65254">
        <ele>55.4</ele>
        <time>2021-12-24T09:08:28Z</time>
      </trkpt>
      <trkpt lat="46.82295" lon="-1.65249">
        <ele>55</ele>
        <time>2021-12-24T09:08:29Z</time>
      </trkpt>
      <trkpt lat="46.8229" lon="-1.65242">
        <ele>55.2</ele>
        <time>2021-12-24T09:08:31Z</time>
      </trkpt>
      <trkpt lat="46.82282" lon="-1.65238">
        <ele>55</ele>
        <time>2021-12-24T09:08:33Z</time>
      </trkpt>
      <trkpt lat="46.82273" lon="-1.65232">
        <ele>55</ele>
        <time>2021-12-24T09:08:35Z</time>
      </trkpt>
      <trkpt lat="46.82269" lon="-1.65229">
        <ele>54.8</ele>
        <time>2021-12-24T09:08:36Z</time>
      </trkpt>
      <trkpt lat="46.82265" lon="-1.65225">
        <ele>54.8</ele>
        <time>2021-12-24T09:08:37Z</time>
      </trkpt>
      <trkpt lat="46.82256" lon="-1.65219">
        <ele>54.6</ele>
        <time>2021-12-24T09:08:39Z</time>
      </trkpt>
      <trkpt lat="46.82246" lon="-1.65212">
        <ele>54.4</ele>
        <time>2021-12-24T09:08:41Z</time>
      </trkpt>
      <trkpt lat="46.82241" lon="-1.65208">
        <ele>54.4</ele>
        <time>2021-12-24T09:08:42Z</time>
      </trkpt>
      <trkpt lat="46.82236" lon="-1.65204">
        <ele>54.2</ele>
        <time>2021-12-24T09:08:43Z</time>
      </trkpt>
      <trkpt lat="46.82225" lon="-1.65196">
        <ele>54.2</ele>
        <time>2021-12-24T09:08:45Z</time>
      </trkpt>
      <trkpt lat="46.82215" lon="-1.65186">
        <ele>54</ele>
        <time>2021-12-24T09:08:47Z</time>
      </trkpt>
      <trkpt lat="46.8221" lon="-1.65181">
        <ele>53.8</ele>
        <time>2021-12-24T09:08:48Z</time>
      </trkpt>
      <trkpt lat="46.82204" lon="-1.65176">
        <ele>53.8</ele>
        <time>2021-12-24T09:08:49Z</time>
      </trkpt>
      <trkpt lat="46.82193" lon="-1.65164">
        <ele>53.4</ele>
        <time>2021-12-24T09:08:51Z</time>
      </trkpt>
      <trkpt lat="46.82183" lon="-1.65151">
        <ele>53.2</ele>
        <time>2021-12-24T09:08:53Z</time>
      </trkpt>
      <trkpt lat="46.82173" lon="-1.65138">
        <ele>53</ele>
        <time>2021-12-24T09:08:55Z</time>
      </trkpt>
      <trkpt lat="46.82163" lon="-1.65125">
        <ele>52.8</ele>
        <time>2021-12-24T09:08:57Z</time>
      </trkpt>
      <trkpt lat="46.82153" lon="-1.65111">
        <ele>52.6</ele>
        <time>2021-12-24T09:08:59Z</time>
      </trkpt>
      <trkpt lat="46.82148" lon="-1.65104">
        <ele>52.4</ele>
        <time>2021-12-24T09:09:00Z</time>
      </trkpt>
      <trkpt lat="46.82143" lon="-1.65097">
        <ele>52.4</ele>
        <time>2021-12-24T09:09:01Z</time>
      </trkpt>
      <trkpt lat="46.82138" lon="-1.6509">
        <ele>52.2</ele>
        <time>2021-12-24T09:09:02Z</time>
      </trkpt>
      <trkpt lat="46.82134" lon="-1.65083">
        <ele>52.2</ele>
        <time>2021-12-24T09:09:03Z</time>
      </trkpt>
      <trkpt lat="46.82126" lon="-1.65066">
        <ele>52</ele>
        <time>2021-12-24T09:09:05Z</time>
      </trkpt>
      <trkpt lat="46.82119" lon="-1.6505">
        <ele>51.8</ele>
        <time>2021-12-24T09:09:07Z</time>
      </trkpt>
      <trkpt lat="46.82111" lon="-1.65033">
        <ele>51.6</ele>
        <time>2021-12-24T09:09:09Z</time>
      </trkpt>
      <trkpt lat="46.82103" lon="-1.65017">
        <ele>51.4</ele>
        <time>2021-12-24T09:09:11Z</time>
      </trkpt>
      <trkpt lat="46.82099" lon="-1.65009">
        <ele>51.2</ele>
        <time>2021-12-24T09:09:12Z</time>
      </trkpt>
      <trkpt lat="46.82094" lon="-1.65002">
        <ele>51.2</ele>
        <time>2021-12-24T09:09:13Z</time>
      </trkpt>
      <trkpt lat="46.82081" lon="-1.64991">
        <ele>50.8</ele>
        <time>2021-12-24T09:09:15Z</time>
      </trkpt>
      <trkpt lat="46.82067" lon="-1.64981">
        <ele>50.8</ele>
        <time>2021-12-24T09:09:17Z</time>
      </trkpt>
      <trkpt lat="46.82054" lon="-1.64971">
        <ele>50.4</ele>
        <time>2021-12-24T09:09:19Z</time>
      </trkpt>
      <trkpt lat="46.82048" lon="-1.64965">
        <ele>50.2</ele>
        <time>2021-12-24T09:09:20Z</time>
      </trkpt>
      <trkpt lat="46.82041" lon="-1.64959">
        <ele>50.2</ele>
        <time>2021-12-24T09:09:21Z</time>
      </trkpt>
      <trkpt lat="46.82029" lon="-1.64947">
        <ele>50</ele>
        <time>2021-12-24T09:09:23Z</time>
      </trkpt>
      <trkpt lat="46.82017" lon="-1.64936">
        <ele>49.8</ele>
        <time>2021-12-24T09:09:25Z</time>
      </trkpt>
      <trkpt lat="46.82005" lon="-1.64925">
        <ele>49.6</ele>
        <time>2021-12-24T09:09:27Z</time>
      </trkpt>
      <trkpt lat="46.81993" lon="-1.64914">
        <ele>49.4</ele>
        <time>2021-12-24T09:09:29Z</time>
      </trkpt>
      <trkpt lat="46.81981" lon="-1.64903">
        <ele>49.4</ele>
        <time>2021-12-24T09:09:31Z</time>
      </trkpt>
      <trkpt lat="46.81969" lon="-1.64892">
        <ele>49.2</ele>
        <time>2021-12-24T09:09:33Z</time>
      </trkpt>
      <trkpt lat="46.81957" lon="-1.64879">
        <ele>49</ele>
        <time>2021-12-24T09:09:35Z</time>
      </trkpt>
      <trkpt lat="46.81946" lon="-1.64866">
        <ele>48.8</ele>
        <time>2021-12-24T09:09:37Z</time>
      </trkpt>
      <trkpt lat="46.81935" lon="-1.64853">
        <ele>48.6</ele>
        <time>2021-12-24T09:09:39Z</time>
      </trkpt>
      <trkpt lat="46.81924" lon="-1.64841">
        <ele>48.6</ele>
        <time>2021-12-24T09:09:41Z</time>
      </trkpt>
      <trkpt lat="46.81913" lon="-1.64828">
        <ele>48.4</ele>
        <time>2021-12-24T09:09:43Z</time>
      </trkpt>
      <trkpt lat="46.81903" lon="-1.64814">
        <ele>48.2</ele>
        <time>2021-12-24T09:09:45Z</time>
      </trkpt>
      <trkpt lat="46.81893" lon="-1.648">
        <ele>48</ele>
        <time>2021-12-24T09:09:47Z</time>
      </trkpt>
      <trkpt lat="46.81883" lon="-1.64784">
        <ele>47.8</ele>
        <time>2021-12-24T09:09:49Z</time>
      </trkpt>
      <trkpt lat="46.81873" lon="-1.64768">
        <ele>47.6</ele>
        <time>2021-12-24T09:09:51Z</time>
      </trkpt>
      <trkpt lat="46.81863" lon="-1.64752">
        <ele>47.4</ele>
        <time>2021-12-24T09:09:53Z</time>
      </trkpt>
      <trkpt lat="46.81853" lon="-1.64735">
        <ele>47.2</ele>
        <time>2021-12-24T09:09:55Z</time>
      </trkpt>
      <trkpt lat="46.81842" lon="-1.64718">
        <ele>47</ele>
        <time>2021-12-24T09:09:57Z</time>
      </trkpt>
      <trkpt lat="46.81833" lon="-1.64701">
        <ele>46.8</ele>
        <time>2021-12-24T09:09:59Z</time>
      </trkpt>
      <trkpt lat="46.81828" lon="-1.64692">
        <ele>46.6</ele>
        <time>2021-12-24T09:10:00Z</time>
      </trkpt>
      <trkpt lat="46.81823" lon="-1.64683">
        <ele>46.6</ele>
        <time>2021-12-24T09:10:01Z</time>
      </trkpt>
      <trkpt lat="46.81814" lon="-1.64666">
        <ele>46.4</ele>
        <time>2021-12-24T09:10:03Z</time>
      </trkpt>
      <trkpt lat="46.81804" lon="-1.64651">
        <ele>46.2</ele>
        <time>2021-12-24T09:10:05Z</time>
      </trkpt>
      <trkpt lat="46.81793" lon="-1.64637">
        <ele>46.2</ele>
        <time>2021-12-24T09:10:07Z</time>
      </trkpt>
      <trkpt lat="46.81782" lon="-1.64625">
        <ele>46</ele>
        <time>2021-12-24T09:10:09Z</time>
      </trkpt>
      <trkpt lat="46.81771" lon="-1.64612">
        <ele>46</ele>
        <time>2021-12-24T09:10:11Z</time>
      </trkpt>
      <trkpt lat="46.81759" lon="-1.64599">
        <ele>45.8</ele>
        <time>2021-12-24T09:10:13Z</time>
      </trkpt>
      <trkpt lat="46.81746" lon="-1.64585">
        <ele>45.6</ele>
        <time>2021-12-24T09:10:15Z</time>
      </trkpt>
      <trkpt lat="46.81732" lon="-1.64573">
        <ele>45.4</ele>
        <time>2021-12-24T09:10:17Z</time>
      </trkpt>
      <trkpt lat="46.81719" lon="-1.6456">
        <ele>45.2</ele>
        <time>2021-12-24T09:10:19Z</time>
      </trkpt>
      <trkpt lat="46.81712" lon="-1.64554">
        <ele>45.2</ele>
        <time>2021-12-24T09:10:20Z</time>
      </trkpt>
      <trkpt lat="46.81705" lon="-1.64547">
        <ele>45</ele>
        <time>2021-12-24T09:10:21Z</time>
      </trkpt>
      <trkpt lat="46.81692" lon="-1.64533">
        <ele>44.8</ele>
        <time>2021-12-24T09:10:23Z</time>
      </trkpt>
      <trkpt lat="46.8168" lon="-1.64519">
        <ele>44.6</ele>
        <time>2021-12-24T09:10:25Z</time>
      </trkpt>
      <trkpt lat="46.81667" lon="-1.64505">
        <ele>44.2</ele>
        <time>2021-12-24T09:10:27Z</time>
      </trkpt>
      <trkpt lat="46.81653" lon="-1.64493">
        <ele>44</ele>
        <time>2021-12-24T09:10:29Z</time>
      </trkpt>
      <trkpt lat="46.8164" lon="-1.64481">
        <ele>43.6</ele>
        <time>2021-12-24T09:10:31Z</time>
      </trkpt>
      <trkpt lat="46.81632" lon="-1.64475">
        <ele>43.4</ele>
        <time>2021-12-24T09:10:32Z</time>
      </trkpt>
      <trkpt lat="46.81625" lon="-1.64469">
        <ele>43.4</ele>
        <time>2021-12-24T09:10:33Z</time>
      </trkpt>
      <trkpt lat="46.81611" lon="-1.64457">
        <ele>43.2</ele>
        <time>2021-12-24T09:10:35Z</time>
      </trkpt>
      <trkpt lat="46.81597" lon="-1.64445">
        <ele>43</ele>
        <time>2021-12-24T09:10:37Z</time>
      </trkpt>
      <trkpt lat="46.81583" lon="-1.64432">
        <ele>42.8</ele>
        <time>2021-12-24T09:10:39Z</time>
      </trkpt>
      <trkpt lat="46.81568" lon="-1.6442">
        <ele>42.6</ele>
        <time>2021-12-24T09:10:41Z</time>
      </trkpt>
      <trkpt lat="46.81554" lon="-1.64408">
        <ele>42.2</ele>
        <time>2021-12-24T09:10:43Z</time>
      </trkpt>
      <trkpt lat="46.8154" lon="-1.64396">
        <ele>42</ele>
        <time>2021-12-24T09:10:45Z</time>
      </trkpt>
      <trkpt lat="46.81526" lon="-1.64385">
        <ele>41.8</ele>
        <time>2021-12-24T09:10:47Z</time>
      </trkpt>
      <trkpt lat="46.81519" lon="-1.64379">
        <ele>41.8</ele>
        <time>2021-12-24T09:10:48Z</time>
      </trkpt>
      <trkpt lat="46.81511" lon="-1.64373">
        <ele>41.6</ele>
        <time>2021-12-24T09:10:49Z</time>
      </trkpt>
      <trkpt lat="46.81498" lon="-1.64361">
        <ele>41.4</ele>
        <time>2021-12-24T09:10:51Z</time>
      </trkpt>
      <trkpt lat="46.81484" lon="-1.6435">
        <ele>41.2</ele>
        <time>2021-12-24T09:10:53Z</time>
      </trkpt>
      <trkpt lat="46.8147" lon="-1.64339">
        <ele>41</ele>
        <time>2021-12-24T09:10:55Z</time>
      </trkpt>
      <trkpt lat="46.81456" lon="-1.64328">
        <ele>40.6</ele>
        <time>2021-12-24T09:10:57Z</time>
      </trkpt>
      <trkpt lat="46.81443" lon="-1.64316">
        <ele>40.2</ele>
        <time>2021-12-24T09:10:59Z</time>
      </trkpt>
      <trkpt lat="46.81429" lon="-1.64305">
        <ele>40</ele>
        <time>2021-12-24T09:11:01Z</time>
      </trkpt>
      <trkpt lat="46.81415" lon="-1.64294">
        <ele>39.6</ele>
        <time>2021-12-24T09:11:03Z</time>
      </trkpt>
      <trkpt lat="46.81401" lon="-1.64283">
        <ele>39.4</ele>
        <time>2021-12-24T09:11:05Z</time>
      </trkpt>
      <trkpt lat="46.81388" lon="-1.64273">
        <ele>39</ele>
        <time>2021-12-24T09:11:07Z</time>
      </trkpt>
      <trkpt lat="46.81375" lon="-1.64264">
        <ele>38.6</ele>
        <time>2021-12-24T09:11:09Z</time>
      </trkpt>
      <trkpt lat="46.81369" lon="-1.64258">
        <ele>38.4</ele>
        <time>2021-12-24T09:11:10Z</time>
      </trkpt>
      <trkpt lat="46.81361" lon="-1.64252">
        <ele>38.2</ele>
        <time>2021-12-24T09:11:11Z</time>
      </trkpt>
      <trkpt lat="46.81347" lon="-1.64239">
        <ele>38</ele>
        <time>2021-12-24T09:11:13Z</time>
      </trkpt>
      <trkpt lat="46.81333" lon="-1.64225">
        <ele>37.6</ele>
        <time>2021-12-24T09:11:15Z</time>
      </trkpt>
      <trkpt lat="46.81319" lon="-1.6421">
        <ele>37.2</ele>
        <time>2021-12-24T09:11:17Z</time>
      </trkpt>
      <trkpt lat="46.81306" lon="-1.64196">
        <ele>36.6</ele>
        <time>2021-12-24T09:11:19Z</time>
      </trkpt>
      <trkpt lat="46.81292" lon="-1.64182">
        <ele>36.2</ele>
        <time>2021-12-24T09:11:21Z</time>
      </trkpt>
      <trkpt lat="46.81278" lon="-1.64167">
        <ele>35.6</ele>
        <time>2021-12-24T09:11:23Z</time>
      </trkpt>
      <trkpt lat="46.81264" lon="-1.64152">
        <ele>35.2</ele>
        <time>2021-12-24T09:11:25Z</time>
      </trkpt>
      <trkpt lat="46.8125" lon="-1.64137">
        <ele>34.8</ele>
        <time>2021-12-24T09:11:27Z</time>
      </trkpt>
      <trkpt lat="46.81243" lon="-1.64129">
        <ele>34.4</ele>
        <time>2021-12-24T09:11:28Z</time>
      </trkpt>
      <trkpt lat="46.81236" lon="-1.64122">
        <ele>34.2</ele>
        <time>2021-12-24T09:11:29Z</time>
      </trkpt>
      <trkpt lat="46.81223" lon="-1.64107">
        <ele>33.6</ele>
        <time>2021-12-24T09:11:31Z</time>
      </trkpt>
      <trkpt lat="46.81211" lon="-1.64093">
        <ele>33</ele>
        <time>2021-12-24T09:11:33Z</time>
      </trkpt>
      <trkpt lat="46.81204" lon="-1.64086">
        <ele>32.8</ele>
        <time>2021-12-24T09:11:34Z</time>
      </trkpt>
      <trkpt lat="46.81197" lon="-1.64078">
        <ele>32.6</ele>
        <time>2021-12-24T09:11:35Z</time>
      </trkpt>
      <trkpt lat="46.81183" lon="-1.64064">
        <ele>32</ele>
        <time>2021-12-24T09:11:37Z</time>
      </trkpt>
      <trkpt lat="46.8117" lon="-1.64048">
        <ele>31.8</ele>
        <time>2021-12-24T09:11:39Z</time>
      </trkpt>
      <trkpt lat="46.81163" lon="-1.64041">
        <ele>31.4</ele>
        <time>2021-12-24T09:11:40Z</time>
      </trkpt>
      <trkpt lat="46.81156" lon="-1.64034">
        <ele>31.2</ele>
        <time>2021-12-24T09:11:41Z</time>
      </trkpt>
      <trkpt lat="46.81143" lon="-1.6402">
        <ele>31</ele>
        <time>2021-12-24T09:11:43Z</time>
      </trkpt>
      <trkpt lat="46.8113" lon="-1.64006">
        <ele>30.6</ele>
        <time>2021-12-24T09:11:45Z</time>
      </trkpt>
      <trkpt lat="46.81118" lon="-1.63991">
        <ele>30.2</ele>
        <time>2021-12-24T09:11:47Z</time>
      </trkpt>
      <trkpt lat="46.81112" lon="-1.63984">
        <ele>30</ele>
        <time>2021-12-24T09:11:48Z</time>
      </trkpt>
      <trkpt lat="46.81106" lon="-1.63977">
        <ele>30</ele>
        <time>2021-12-24T09:11:49Z</time>
      </trkpt>
      <trkpt lat="46.81094" lon="-1.63962">
        <ele>29.6</ele>
        <time>2021-12-24T09:11:51Z</time>
      </trkpt>
      <trkpt lat="46.81082" lon="-1.63947">
        <ele>29.2</ele>
        <time>2021-12-24T09:11:53Z</time>
      </trkpt>
      <trkpt lat="46.81076" lon="-1.6394">
        <ele>29</ele>
        <time>2021-12-24T09:11:54Z</time>
      </trkpt>
      <trkpt lat="46.8107" lon="-1.63933">
        <ele>28.8</ele>
        <time>2021-12-24T09:11:55Z</time>
      </trkpt>
      <trkpt lat="46.8106" lon="-1.63919">
        <ele>28.4</ele>
        <time>2021-12-24T09:11:57Z</time>
      </trkpt>
      <trkpt lat="46.81049" lon="-1.63905">
        <ele>28</ele>
        <time>2021-12-24T09:11:59Z</time>
      </trkpt>
      <trkpt lat="46.81043" lon="-1.63898">
        <ele>27.8</ele>
        <time>2021-12-24T09:12:00Z</time>
      </trkpt>
      <trkpt lat="46.81037" lon="-1.6389">
        <ele>27.8</ele>
        <time>2021-12-24T09:12:01Z</time>
      </trkpt>
      <trkpt lat="46.81025" lon="-1.63876">
        <ele>27.2</ele>
        <time>2021-12-24T09:12:03Z</time>
      </trkpt>
      <trkpt lat="46.81013" lon="-1.63861">
        <ele>27</ele>
        <time>2021-12-24T09:12:05Z</time>
      </trkpt>
      <trkpt lat="46.81001" lon="-1.63846">
        <ele>26.6</ele>
        <time>2021-12-24T09:12:07Z</time>
      </trkpt>
      <trkpt lat="46.80989" lon="-1.63831">
        <ele>26.2</ele>
        <time>2021-12-24T09:12:09Z</time>
      </trkpt>
      <trkpt lat="46.80978" lon="-1.63817">
        <ele>25.8</ele>
        <time>2021-12-24T09:12:11Z</time>
      </trkpt>
      <trkpt lat="46.80967" lon="-1.63804">
        <ele>25.4</ele>
        <time>2021-12-24T09:12:13Z</time>
      </trkpt>
      <trkpt lat="46.80957" lon="-1.6379">
        <ele>25.2</ele>
        <time>2021-12-24T09:12:15Z</time>
      </trkpt>
      <trkpt lat="46.80947" lon="-1.63777">
        <ele>24.8</ele>
        <time>2021-12-24T09:12:17Z</time>
      </trkpt>
      <trkpt lat="46.80936" lon="-1.63763">
        <ele>24.4</ele>
        <time>2021-12-24T09:12:19Z</time>
      </trkpt>
      <trkpt lat="46.8093" lon="-1.63756">
        <ele>24.2</ele>
        <time>2021-12-24T09:12:20Z</time>
      </trkpt>
      <trkpt lat="46.80924" lon="-1.63749">
        <ele>24</ele>
        <time>2021-12-24T09:12:21Z</time>
      </trkpt>
      <trkpt lat="46.80913" lon="-1.63735">
        <ele>23.6</ele>
        <time>2021-12-24T09:12:23Z</time>
      </trkpt>
      <trkpt lat="46.80907" lon="-1.63728">
        <ele>23.4</ele>
        <time>2021-12-24T09:12:24Z</time>
      </trkpt>
      <trkpt lat="46.80901" lon="-1.63721">
        <ele>23.2</ele>
        <time>2021-12-24T09:12:25Z</time>
      </trkpt>
      <trkpt lat="46.80889" lon="-1.63706">
        <ele>22.8</ele>
        <time>2021-12-24T09:12:27Z</time>
      </trkpt>
      <trkpt lat="46.80878" lon="-1.63692">
        <ele>22.4</ele>
        <time>2021-12-24T09:12:29Z</time>
      </trkpt>
      <trkpt lat="46.80864" lon="-1.63675">
        <ele>21.8</ele>
        <time>2021-12-24T09:12:31Z</time>
      </trkpt>
      <trkpt lat="46.80852" lon="-1.63652">
        <ele>21.4</ele>
        <time>2021-12-24T09:12:33Z</time>
      </trkpt>
      <trkpt lat="46.80841" lon="-1.63626">
        <ele>21</ele>
        <time>2021-12-24T09:12:35Z</time>
      </trkpt>
      <trkpt lat="46.8083" lon="-1.63597">
        <ele>20.6</ele>
        <time>2021-12-24T09:12:37Z</time>
      </trkpt>
      <trkpt lat="46.8082" lon="-1.63568">
        <ele>20</ele>
        <time>2021-12-24T09:12:39Z</time>
      </trkpt>
      <trkpt lat="46.8081" lon="-1.63539">
        <ele>19.2</ele>
        <time>2021-12-24T09:12:41Z</time>
      </trkpt>
      <trkpt lat="46.80799" lon="-1.6351">
        <ele>18.6</ele>
        <time>2021-12-24T09:12:43Z</time>
      </trkpt>
      <trkpt lat="46.80788" lon="-1.63483">
        <ele>18</ele>
        <time>2021-12-24T09:12:45Z</time>
      </trkpt>
      <trkpt lat="46.80782" lon="-1.63472">
        <ele>17.8</ele>
        <time>2021-12-24T09:12:46Z</time>
      </trkpt>
      <trkpt lat="46.80775" lon="-1.63462">
        <ele>17.4</ele>
        <time>2021-12-24T09:12:47Z</time>
      </trkpt>
      <trkpt lat="46.80761" lon="-1.63445">
        <ele>16.8</ele>
        <time>2021-12-24T09:12:49Z</time>
      </trkpt>
      <trkpt lat="46.80755" lon="-1.63439">
        <ele>16.6</ele>
        <time>2021-12-24T09:12:50Z</time>
      </trkpt>
      <trkpt lat="46.80748" lon="-1.63434">
        <ele>16.4</ele>
        <time>2021-12-24T09:12:51Z</time>
      </trkpt>
      <trkpt lat="46.80736" lon="-1.63425">
        <ele>16.2</ele>
        <time>2021-12-24T09:12:53Z</time>
      </trkpt>
      <trkpt lat="46.8073" lon="-1.6342">
        <ele>16</ele>
        <time>2021-12-24T09:12:54Z</time>
      </trkpt>
      <trkpt lat="46.80724" lon="-1.63416">
        <ele>16</ele>
        <time>2021-12-24T09:12:55Z</time>
      </trkpt>
      <trkpt lat="46.80714" lon="-1.63408">
        <ele>16</ele>
        <time>2021-12-24T09:12:57Z</time>
      </trkpt>
      <trkpt lat="46.80709" lon="-1.63403">
        <ele>15.8</ele>
        <time>2021-12-24T09:12:58Z</time>
      </trkpt>
      <trkpt lat="46.80704" lon="-1.63397">
        <ele>15.8</ele>
        <time>2021-12-24T09:12:59Z</time>
      </trkpt>
      <trkpt lat="46.80693" lon="-1.63385">
        <ele>15.6</ele>
        <time>2021-12-24T09:13:01Z</time>
      </trkpt>
      <trkpt lat="46.80682" lon="-1.63373">
        <ele>15.4</ele>
        <time>2021-12-24T09:13:03Z</time>
      </trkpt>
      <trkpt lat="46.80671" lon="-1.63358">
        <ele>15.4</ele>
        <time>2021-12-24T09:13:05Z</time>
      </trkpt>
      <trkpt lat="46.8066" lon="-1.63343">
        <ele>15.6</ele>
        <time>2021-12-24T09:13:07Z</time>
      </trkpt>
      <trkpt lat="46.80649" lon="-1.63328">
        <ele>15.4</ele>
        <time>2021-12-24T09:13:09Z</time>
      </trkpt>
      <trkpt lat="46.80644" lon="-1.63319">
        <ele>15.4</ele>
        <time>2021-12-24T09:13:10Z</time>
      </trkpt>
      <trkpt lat="46.80639" lon="-1.63311">
        <ele>15.4</ele>
        <time>2021-12-24T09:13:11Z</time>
      </trkpt>
      <trkpt lat="46.80629" lon="-1.63294">
        <ele>15</ele>
        <time>2021-12-24T09:13:13Z</time>
      </trkpt>
      <trkpt lat="46.80622" lon="-1.6328">
        <ele>14.8</ele>
        <time>2021-12-24T09:13:15Z</time>
      </trkpt>
      <trkpt lat="46.80615" lon="-1.63269">
        <ele>14.6</ele>
        <time>2021-12-24T09:13:17Z</time>
      </trkpt>
      <trkpt lat="46.80612" lon="-1.63266">
        <ele>14.4</ele>
        <time>2021-12-24T09:13:18Z</time>
      </trkpt>
      <trkpt lat="46.80609" lon="-1.63265">
        <ele>14.2</ele>
        <time>2021-12-24T09:13:19Z</time>
      </trkpt>
      <trkpt lat="46.80607" lon="-1.63264">
        <ele>14.2</ele>
        <time>2021-12-24T09:13:20Z</time>
      </trkpt>
      <trkpt lat="46.80606" lon="-1.63263">
        <ele>14.4</ele>
        <time>2021-12-24T09:13:21Z</time>
      </trkpt>
      <trkpt lat="46.80606" lon="-1.63263">
        <ele>14.2</ele>
        <time>2021-12-24T09:13:22Z</time>
      </trkpt>
      <trkpt lat="46.80602" lon="-1.63261">
        <ele>14</ele>
        <time>2021-12-24T09:13:27Z</time>
      </trkpt>
      <trkpt lat="46.806" lon="-1.63258">
        <ele>14</ele>
        <time>2021-12-24T09:13:28Z</time>
      </trkpt>
      <trkpt lat="46.80599" lon="-1.63253">
        <ele>14</ele>
        <time>2021-12-24T09:13:29Z</time>
      </trkpt>
      <trkpt lat="46.80595" lon="-1.6324">
        <ele>13.8</ele>
        <time>2021-12-24T09:13:31Z</time>
      </trkpt>
      <trkpt lat="46.80589" lon="-1.63223">
        <ele>13.6</ele>
        <time>2021-12-24T09:13:33Z</time>
      </trkpt>
      <trkpt lat="46.80585" lon="-1.63214">
        <ele>13.4</ele>
        <time>2021-12-24T09:13:34Z</time>
      </trkpt>
      <trkpt lat="46.80581" lon="-1.63205">
        <ele>13.4</ele>
        <time>2021-12-24T09:13:35Z</time>
      </trkpt>
      <trkpt lat="46.8057" lon="-1.63188">
        <ele>13.2</ele>
        <time>2021-12-24T09:13:37Z</time>
      </trkpt>
      <trkpt lat="46.8056" lon="-1.6317">
        <ele>13.2</ele>
        <time>2021-12-24T09:13:39Z</time>
      </trkpt>
      <trkpt lat="46.80554" lon="-1.63161">
        <ele>13</ele>
        <time>2021-12-24T09:13:40Z</time>
      </trkpt>
      <trkpt lat="46.80549" lon="-1.63153">
        <ele>13</ele>
        <time>2021-12-24T09:13:41Z</time>
      </trkpt>
      <trkpt lat="46.80538" lon="-1.63135">
        <ele>13</ele>
        <time>2021-12-24T09:13:43Z</time>
      </trkpt>
      <trkpt lat="46.80527" lon="-1.63118">
        <ele>13</ele>
        <time>2021-12-24T09:13:45Z</time>
      </trkpt>
      <trkpt lat="46.80516" lon="-1.63101">
        <ele>13</ele>
        <time>2021-12-24T09:13:47Z</time>
      </trkpt>
      <trkpt lat="46.80505" lon="-1.63084">
        <ele>13</ele>
        <time>2021-12-24T09:13:49Z</time>
      </trkpt>
      <trkpt lat="46.80494" lon="-1.63066">
        <ele>12.8</ele>
        <time>2021-12-24T09:13:51Z</time>
      </trkpt>
      <trkpt lat="46.80484" lon="-1.63048">
        <ele>12.8</ele>
        <time>2021-12-24T09:13:53Z</time>
      </trkpt>
      <trkpt lat="46.8048" lon="-1.63039">
        <ele>12.8</ele>
        <time>2021-12-24T09:13:54Z</time>
      </trkpt>
      <trkpt lat="46.80475" lon="-1.6303">
        <ele>12.8</ele>
        <time>2021-12-24T09:13:55Z</time>
      </trkpt>
      <trkpt lat="46.80467" lon="-1.63012">
        <ele>12.6</ele>
        <time>2021-12-24T09:13:57Z</time>
      </trkpt>
      <trkpt lat="46.8046" lon="-1.62994">
        <ele>12.6</ele>
        <time>2021-12-24T09:13:59Z</time>
      </trkpt>
      <trkpt lat="46.80457" lon="-1.62984">
        <ele>12.4</ele>
        <time>2021-12-24T09:14:00Z</time>
      </trkpt>
      <trkpt lat="46.80454" lon="-1.62975">
        <ele>12.4</ele>
        <time>2021-12-24T09:14:01Z</time>
      </trkpt>
      <trkpt lat="46.80448" lon="-1.62955">
        <ele>12.4</ele>
        <time>2021-12-24T09:14:03Z</time>
      </trkpt>
      <trkpt lat="46.80441" lon="-1.62935">
        <ele>12.2</ele>
        <time>2021-12-24T09:14:05Z</time>
      </trkpt>
      <trkpt lat="46.80434" lon="-1.62914">
        <ele>12.2</ele>
        <time>2021-12-24T09:14:07Z</time>
      </trkpt>
      <trkpt lat="46.80427" lon="-1.62894">
        <ele>12.2</ele>
        <time>2021-12-24T09:14:09Z</time>
      </trkpt>
      <trkpt lat="46.80421" lon="-1.62874">
        <ele>12.2</ele>
        <time>2021-12-24T09:14:11Z</time>
      </trkpt>
      <trkpt lat="46.80415" lon="-1.62856">
        <ele>12.2</ele>
        <time>2021-12-24T09:14:13Z</time>
      </trkpt>
      <trkpt lat="46.80412" lon="-1.62847">
        <ele>12.2</ele>
        <time>2021-12-24T09:14:14Z</time>
      </trkpt>
      <trkpt lat="46.8041" lon="-1.62839">
        <ele>12.4</ele>
        <time>2021-12-24T09:14:15Z</time>
      </trkpt>
      <trkpt lat="46.80405" lon="-1.62822">
        <ele>12.4</ele>
        <time>2021-12-24T09:14:17Z</time>
      </trkpt>
      <trkpt lat="46.80399" lon="-1.62806">
        <ele>12</ele>
        <time>2021-12-24T09:14:19Z</time>
      </trkpt>
      <trkpt lat="46.80394" lon="-1.62791">
        <ele>12.4</ele>
        <time>2021-12-24T09:14:21Z</time>
      </trkpt>
      <trkpt lat="46.80392" lon="-1.62783">
        <ele>12.8</ele>
        <time>2021-12-24T09:14:22Z</time>
      </trkpt>
      <trkpt lat="46.8039" lon="-1.62776">
        <ele>13</ele>
        <time>2021-12-24T09:14:23Z</time>
      </trkpt>
      <trkpt lat="46.80385" lon="-1.62761">
        <ele>12.6</ele>
        <time>2021-12-24T09:14:25Z</time>
      </trkpt>
      <trkpt lat="46.80381" lon="-1.62747">
        <ele>12.8</ele>
        <time>2021-12-24T09:14:27Z</time>
      </trkpt>
      <trkpt lat="46.80376" lon="-1.62732">
        <ele>12.8</ele>
        <time>2021-12-24T09:14:29Z</time>
      </trkpt>
      <trkpt lat="46.80374" lon="-1.62725">
        <ele>12.8</ele>
        <time>2021-12-24T09:14:30Z</time>
      </trkpt>
      <trkpt lat="46.80372" lon="-1.62718">
        <ele>13</ele>
        <time>2021-12-24T09:14:31Z</time>
      </trkpt>
      <trkpt lat="46.80368" lon="-1.62704">
        <ele>13</ele>
        <time>2021-12-24T09:14:33Z</time>
      </trkpt>
      <trkpt lat="46.80364" lon="-1.6269">
        <ele>13.2</ele>
        <time>2021-12-24T09:14:35Z</time>
      </trkpt>
      <trkpt lat="46.8036" lon="-1.62675">
        <ele>13.2</ele>
        <time>2021-12-24T09:14:37Z</time>
      </trkpt>
      <trkpt lat="46.80357" lon="-1.62669">
        <ele>13.4</ele>
        <time>2021-12-24T09:14:38Z</time>
      </trkpt>
      <trkpt lat="46.80355" lon="-1.62662">
        <ele>13.4</ele>
        <time>2021-12-24T09:14:39Z</time>
      </trkpt>
      <trkpt lat="46.80351" lon="-1.62648">
        <ele>13.6</ele>
        <time>2021-12-24T09:14:41Z</time>
      </trkpt>
      <trkpt lat="46.80347" lon="-1.62634">
        <ele>13.6</ele>
        <time>2021-12-24T09:14:43Z</time>
      </trkpt>
      <trkpt lat="46.80343" lon="-1.62621">
        <ele>13.8</ele>
        <time>2021-12-24T09:14:45Z</time>
      </trkpt>
      <trkpt lat="46.80341" lon="-1.62614">
        <ele>13.8</ele>
        <time>2021-12-24T09:14:46Z</time>
      </trkpt>
      <trkpt lat="46.80339" lon="-1.62607">
        <ele>14</ele>
        <time>2021-12-24T09:14:47Z</time>
      </trkpt>
      <trkpt lat="46.80335" lon="-1.62593">
        <ele>14</ele>
        <time>2021-12-24T09:14:49Z</time>
      </trkpt>
      <trkpt lat="46.80331" lon="-1.62581">
        <ele>14.2</ele>
        <time>2021-12-24T09:14:51Z</time>
      </trkpt>
      <trkpt lat="46.80326" lon="-1.62568">
        <ele>14.4</ele>
        <time>2021-12-24T09:14:53Z</time>
      </trkpt>
      <trkpt lat="46.80322" lon="-1.62555">
        <ele>14.6</ele>
        <time>2021-12-24T09:14:55Z</time>
      </trkpt>
      <trkpt lat="46.80318" lon="-1.62542">
        <ele>14.8</ele>
        <time>2021-12-24T09:14:57Z</time>
      </trkpt>
      <trkpt lat="46.80313" lon="-1.62529">
        <ele>15</ele>
        <time>2021-12-24T09:14:59Z</time>
      </trkpt>
      <trkpt lat="46.8031" lon="-1.62522">
        <ele>15</ele>
        <time>2021-12-24T09:15:00Z</time>
      </trkpt>
      <trkpt lat="46.80308" lon="-1.62515">
        <ele>15.2</ele>
        <time>2021-12-24T09:15:01Z</time>
      </trkpt>
      <trkpt lat="46.80305" lon="-1.62508">
        <ele>15.2</ele>
        <time>2021-12-24T09:15:02Z</time>
      </trkpt>
      <trkpt lat="46.80303" lon="-1.62501">
        <ele>15.2</ele>
        <time>2021-12-24T09:15:03Z</time>
      </trkpt>
      <trkpt lat="46.803" lon="-1.62494">
        <ele>15.4</ele>
        <time>2021-12-24T09:15:04Z</time>
      </trkpt>
      <trkpt lat="46.80299" lon="-1.62488">
        <ele>15.4</ele>
        <time>2021-12-24T09:15:05Z</time>
      </trkpt>
      <trkpt lat="46.80299" lon="-1.62482">
        <ele>15.4</ele>
        <time>2021-12-24T09:15:07Z</time>
      </trkpt>
      <trkpt lat="46.803" lon="-1.62479">
        <ele>15.4</ele>
        <time>2021-12-24T09:15:08Z</time>
      </trkpt>
      <trkpt lat="46.80301" lon="-1.62476">
        <ele>15.4</ele>
        <time>2021-12-24T09:15:09Z</time>
      </trkpt>
      <trkpt lat="46.80305" lon="-1.62468">
        <ele>15.2</ele>
        <time>2021-12-24T09:15:11Z</time>
      </trkpt>
      <trkpt lat="46.80308" lon="-1.62464">
        <ele>15.2</ele>
        <time>2021-12-24T09:15:12Z</time>
      </trkpt>
      <trkpt lat="46.8031" lon="-1.6246">
        <ele>15.2</ele>
        <time>2021-12-24T09:15:13Z</time>
      </trkpt>
      <trkpt lat="46.80312" lon="-1.6245">
        <ele>15.2</ele>
        <time>2021-12-24T09:15:15Z</time>
      </trkpt>
      <trkpt lat="46.80305" lon="-1.62444">
        <ele>15.2</ele>
        <time>2021-12-24T09:15:17Z</time>
      </trkpt>
      <trkpt lat="46.80301" lon="-1.62444">
        <ele>15.2</ele>
        <time>2021-12-24T09:15:18Z</time>
      </trkpt>
      <trkpt lat="46.80297" lon="-1.62443">
        <ele>15.2</ele>
        <time>2021-12-24T09:15:19Z</time>
      </trkpt>
      <trkpt lat="46.80289" lon="-1.62444">
        <ele>15.2</ele>
        <time>2021-12-24T09:15:21Z</time>
      </trkpt>
      <trkpt lat="46.80281" lon="-1.62443">
        <ele>15.2</ele>
        <time>2021-12-24T09:15:23Z</time>
      </trkpt>
      <trkpt lat="46.80273" lon="-1.62441">
        <ele>15.6</ele>
        <time>2021-12-24T09:15:25Z</time>
      </trkpt>
      <trkpt lat="46.80265" lon="-1.62438">
        <ele>15.4</ele>
        <time>2021-12-24T09:15:27Z</time>
      </trkpt>
      <trkpt lat="46.80256" lon="-1.62434">
        <ele>15.4</ele>
        <time>2021-12-24T09:15:29Z</time>
      </trkpt>
      <trkpt lat="46.80252" lon="-1.62432">
        <ele>15.4</ele>
        <time>2021-12-24T09:15:30Z</time>
      </trkpt>
      <trkpt lat="46.80248" lon="-1.62428">
        <ele>15.6</ele>
        <time>2021-12-24T09:15:31Z</time>
      </trkpt>
      <trkpt lat="46.80245" lon="-1.62424">
        <ele>15.6</ele>
        <time>2021-12-24T09:15:32Z</time>
      </trkpt>
      <trkpt lat="46.80242" lon="-1.62419">
        <ele>15.6</ele>
        <time>2021-12-24T09:15:33Z</time>
      </trkpt>
      <trkpt lat="46.80239" lon="-1.62415">
        <ele>15.4</ele>
        <time>2021-12-24T09:15:34Z</time>
      </trkpt>
      <trkpt lat="46.80236" lon="-1.62411">
        <ele>15.4</ele>
        <time>2021-12-24T09:15:35Z</time>
      </trkpt>
      <trkpt lat="46.80232" lon="-1.62408">
        <ele>15.4</ele>
        <time>2021-12-24T09:15:36Z</time>
      </trkpt>
      <trkpt lat="46.80227" lon="-1.62406">
        <ele>15.4</ele>
        <time>2021-12-24T09:15:37Z</time>
      </trkpt>
      <trkpt lat="46.80223" lon="-1.62406">
        <ele>15.6</ele>
        <time>2021-12-24T09:15:38Z</time>
      </trkpt>
      <trkpt lat="46.80218" lon="-1.62406">
        <ele>15.6</ele>
        <time>2021-12-24T09:15:39Z</time>
      </trkpt>
      <trkpt lat="46.80209" lon="-1.62408">
        <ele>15.6</ele>
        <time>2021-12-24T09:15:41Z</time>
      </trkpt>
      <trkpt lat="46.80204" lon="-1.62408">
        <ele>15.8</ele>
        <time>2021-12-24T09:15:42Z</time>
      </trkpt>
      <trkpt lat="46.80199" lon="-1.62408">
        <ele>15.8</ele>
        <time>2021-12-24T09:15:43Z</time>
      </trkpt>
      <trkpt lat="46.80195" lon="-1.62409">
        <ele>15.8</ele>
        <time>2021-12-24T09:15:44Z</time>
      </trkpt>
      <trkpt lat="46.8019" lon="-1.6241">
        <ele>16</ele>
        <time>2021-12-24T09:15:45Z</time>
      </trkpt>
      <trkpt lat="46.80181" lon="-1.62413">
        <ele>16.2</ele>
        <time>2021-12-24T09:15:47Z</time>
      </trkpt>
      <trkpt lat="46.80176" lon="-1.62415">
        <ele>16.2</ele>
        <time>2021-12-24T09:15:48Z</time>
      </trkpt>
      <trkpt lat="46.80171" lon="-1.62417">
        <ele>16.4</ele>
        <time>2021-12-24T09:15:49Z</time>
      </trkpt>
      <trkpt lat="46.80161" lon="-1.6242">
        <ele>16.4</ele>
        <time>2021-12-24T09:15:51Z</time>
      </trkpt>
      <trkpt lat="46.80151" lon="-1.62423">
        <ele>16.6</ele>
        <time>2021-12-24T09:15:53Z</time>
      </trkpt>
      <trkpt lat="46.80145" lon="-1.62424">
        <ele>16.6</ele>
        <time>2021-12-24T09:15:54Z</time>
      </trkpt>
      <trkpt lat="46.8014" lon="-1.62426">
        <ele>16.6</ele>
        <time>2021-12-24T09:15:55Z</time>
      </trkpt>
      <trkpt lat="46.80129" lon="-1.6243">
        <ele>16.8</ele>
        <time>2021-12-24T09:15:57Z</time>
      </trkpt>
      <trkpt lat="46.80117" lon="-1.62434">
        <ele>17</ele>
        <time>2021-12-24T09:15:59Z</time>
      </trkpt>
      <trkpt lat="46.80106" lon="-1.62437">
        <ele>17</ele>
        <time>2021-12-24T09:16:01Z</time>
      </trkpt>
      <trkpt lat="46.801" lon="-1.62439">
        <ele>17</ele>
        <time>2021-12-24T09:16:02Z</time>
      </trkpt>
      <trkpt lat="46.80095" lon="-1.6244">
        <ele>17.2</ele>
        <time>2021-12-24T09:16:03Z</time>
      </trkpt>
      <trkpt lat="46.80084" lon="-1.62443">
        <ele>17.2</ele>
        <time>2021-12-24T09:16:05Z</time>
      </trkpt>
      <trkpt lat="46.80073" lon="-1.62447">
        <ele>17.4</ele>
        <time>2021-12-24T09:16:07Z</time>
      </trkpt>
      <trkpt lat="46.80062" lon="-1.6245">
        <ele>17.6</ele>
        <time>2021-12-24T09:16:09Z</time>
      </trkpt>
      <trkpt lat="46.80052" lon="-1.62453">
        <ele>17.8</ele>
        <time>2021-12-24T09:16:11Z</time>
      </trkpt>
      <trkpt lat="46.80042" lon="-1.62456">
        <ele>17.8</ele>
        <time>2021-12-24T09:16:13Z</time>
      </trkpt>
      <trkpt lat="46.80037" lon="-1.62458">
        <ele>18</ele>
        <time>2021-12-24T09:16:14Z</time>
      </trkpt>
      <trkpt lat="46.80032" lon="-1.62461">
        <ele>18</ele>
        <time>2021-12-24T09:16:15Z</time>
      </trkpt>
      <trkpt lat="46.80027" lon="-1.62463">
        <ele>18</ele>
        <time>2021-12-24T09:16:16Z</time>
      </trkpt>
      <trkpt lat="46.80022" lon="-1.62464">
        <ele>18.2</ele>
        <time>2021-12-24T09:16:17Z</time>
      </trkpt>
      <trkpt lat="46.80012" lon="-1.62467">
        <ele>18.4</ele>
        <time>2021-12-24T09:16:19Z</time>
      </trkpt>
      <trkpt lat="46.80002" lon="-1.6247">
        <ele>18.6</ele>
        <time>2021-12-24T09:16:21Z</time>
      </trkpt>
      <trkpt lat="46.79992" lon="-1.62472">
        <ele>18.8</ele>
        <time>2021-12-24T09:16:23Z</time>
      </trkpt>
      <trkpt lat="46.79987" lon="-1.62473">
        <ele>18.8</ele>
        <time>2021-12-24T09:16:24Z</time>
      </trkpt>
      <trkpt lat="46.79982" lon="-1.62474">
        <ele>19</ele>
        <time>2021-12-24T09:16:25Z</time>
      </trkpt>
      <trkpt lat="46.79972" lon="-1.62475">
        <ele>19.2</ele>
        <time>2021-12-24T09:16:27Z</time>
      </trkpt>
      <trkpt lat="46.79963" lon="-1.62475">
        <ele>19.4</ele>
        <time>2021-12-24T09:16:29Z</time>
      </trkpt>
      <trkpt lat="46.79954" lon="-1.62475">
        <ele>19.6</ele>
        <time>2021-12-24T09:16:31Z</time>
      </trkpt>
      <trkpt lat="46.7995" lon="-1.62475">
        <ele>19.6</ele>
        <time>2021-12-24T09:16:32Z</time>
      </trkpt>
      <trkpt lat="46.79946" lon="-1.62475">
        <ele>19.8</ele>
        <time>2021-12-24T09:16:33Z</time>
      </trkpt>
      <trkpt lat="46.79937" lon="-1.62474">
        <ele>20</ele>
        <time>2021-12-24T09:16:35Z</time>
      </trkpt>
      <trkpt lat="46.79929" lon="-1.62473">
        <ele>20.2</ele>
        <time>2021-12-24T09:16:37Z</time>
      </trkpt>
      <trkpt lat="46.79921" lon="-1.62472">
        <ele>20.4</ele>
        <time>2021-12-24T09:16:39Z</time>
      </trkpt>
      <trkpt lat="46.79917" lon="-1.62472">
        <ele>20.4</ele>
        <time>2021-12-24T09:16:40Z</time>
      </trkpt>
      <trkpt lat="46.79914" lon="-1.62472">
        <ele>20.6</ele>
        <time>2021-12-24T09:16:41Z</time>
      </trkpt>
      <trkpt lat="46.79906" lon="-1.62471">
        <ele>20.8</ele>
        <time>2021-12-24T09:16:43Z</time>
      </trkpt>
      <trkpt lat="46.79898" lon="-1.6247">
        <ele>21</ele>
        <time>2021-12-24T09:16:45Z</time>
      </trkpt>
      <trkpt lat="46.79891" lon="-1.62469">
        <ele>21.2</ele>
        <time>2021-12-24T09:16:47Z</time>
      </trkpt>
      <trkpt lat="46.79887" lon="-1.62468">
        <ele>21.4</ele>
        <time>2021-12-24T09:16:48Z</time>
      </trkpt>
      <trkpt lat="46.79883" lon="-1.62468">
        <ele>21.4</ele>
        <time>2021-12-24T09:16:49Z</time>
      </trkpt>
      <trkpt lat="46.79876" lon="-1.62468">
        <ele>21.6</ele>
        <time>2021-12-24T09:16:51Z</time>
      </trkpt>
      <trkpt lat="46.79869" lon="-1.62467">
        <ele>21.8</ele>
        <time>2021-12-24T09:16:53Z</time>
      </trkpt>
      <trkpt lat="46.79862" lon="-1.62466">
        <ele>22.2</ele>
        <time>2021-12-24T09:16:55Z</time>
      </trkpt>
      <trkpt lat="46.79854" lon="-1.62465">
        <ele>22.2</ele>
        <time>2021-12-24T09:16:57Z</time>
      </trkpt>
      <trkpt lat="46.79851" lon="-1.62465">
        <ele>22.4</ele>
        <time>2021-12-24T09:16:58Z</time>
      </trkpt>
      <trkpt lat="46.79847" lon="-1.62464">
        <ele>22.4</ele>
        <time>2021-12-24T09:16:59Z</time>
      </trkpt>
      <trkpt lat="46.7984" lon="-1.62464">
        <ele>22.6</ele>
        <time>2021-12-24T09:17:01Z</time>
      </trkpt>
      <trkpt lat="46.79833" lon="-1.62463">
        <ele>22.8</ele>
        <time>2021-12-24T09:17:03Z</time>
      </trkpt>
      <trkpt lat="46.79826" lon="-1.62462">
        <ele>23.2</ele>
        <time>2021-12-24T09:17:05Z</time>
      </trkpt>
      <trkpt lat="46.79819" lon="-1.62462">
        <ele>23.4</ele>
        <time>2021-12-24T09:17:07Z</time>
      </trkpt>
      <trkpt lat="46.79811" lon="-1.62461">
        <ele>23.6</ele>
        <time>2021-12-24T09:17:09Z</time>
      </trkpt>
      <trkpt lat="46.79803" lon="-1.6246">
        <ele>24</ele>
        <time>2021-12-24T09:17:11Z</time>
      </trkpt>
      <trkpt lat="46.79795" lon="-1.62458">
        <ele>24.2</ele>
        <time>2021-12-24T09:17:13Z</time>
      </trkpt>
      <trkpt lat="46.79787" lon="-1.62457">
        <ele>24.4</ele>
        <time>2021-12-24T09:17:15Z</time>
      </trkpt>
      <trkpt lat="46.79779" lon="-1.62457">
        <ele>24.8</ele>
        <time>2021-12-24T09:17:17Z</time>
      </trkpt>
      <trkpt lat="46.79771" lon="-1.62456">
        <ele>25</ele>
        <time>2021-12-24T09:17:19Z</time>
      </trkpt>
      <trkpt lat="46.79762" lon="-1.62456">
        <ele>25.2</ele>
        <time>2021-12-24T09:17:21Z</time>
      </trkpt>
      <trkpt lat="46.79753" lon="-1.62455">
        <ele>25.6</ele>
        <time>2021-12-24T09:17:23Z</time>
      </trkpt>
      <trkpt lat="46.79748" lon="-1.62455">
        <ele>25.6</ele>
        <time>2021-12-24T09:17:24Z</time>
      </trkpt>
      <trkpt lat="46.79744" lon="-1.62454">
        <ele>25.8</ele>
        <time>2021-12-24T09:17:25Z</time>
      </trkpt>
      <trkpt lat="46.79733" lon="-1.62453">
        <ele>26</ele>
        <time>2021-12-24T09:17:27Z</time>
      </trkpt>
      <trkpt lat="46.79723" lon="-1.62451">
        <ele>26.2</ele>
        <time>2021-12-24T09:17:29Z</time>
      </trkpt>
      <trkpt lat="46.79712" lon="-1.6245">
        <ele>26.6</ele>
        <time>2021-12-24T09:17:31Z</time>
      </trkpt>
      <trkpt lat="46.79702" lon="-1.62449">
        <ele>26.8</ele>
        <time>2021-12-24T09:17:33Z</time>
      </trkpt>
      <trkpt lat="46.79691" lon="-1.62447">
        <ele>27</ele>
        <time>2021-12-24T09:17:35Z</time>
      </trkpt>
      <trkpt lat="46.7968" lon="-1.62446">
        <ele>27.2</ele>
        <time>2021-12-24T09:17:37Z</time>
      </trkpt>
      <trkpt lat="46.79669" lon="-1.62445">
        <ele>27.4</ele>
        <time>2021-12-24T09:17:39Z</time>
      </trkpt>
      <trkpt lat="46.79657" lon="-1.62444">
        <ele>27.8</ele>
        <time>2021-12-24T09:17:41Z</time>
      </trkpt>
      <trkpt lat="46.79645" lon="-1.62443">
        <ele>28</ele>
        <time>2021-12-24T09:17:43Z</time>
      </trkpt>
      <trkpt lat="46.79632" lon="-1.62441">
        <ele>28</ele>
        <time>2021-12-24T09:17:45Z</time>
      </trkpt>
      <trkpt lat="46.79618" lon="-1.62438">
        <ele>28.2</ele>
        <time>2021-12-24T09:17:47Z</time>
      </trkpt>
      <trkpt lat="46.79604" lon="-1.62436">
        <ele>28.2</ele>
        <time>2021-12-24T09:17:49Z</time>
      </trkpt>
      <trkpt lat="46.7959" lon="-1.62434">
        <ele>28.4</ele>
        <time>2021-12-24T09:17:51Z</time>
      </trkpt>
      <trkpt lat="46.79577" lon="-1.62433">
        <ele>28.4</ele>
        <time>2021-12-24T09:17:53Z</time>
      </trkpt>
      <trkpt lat="46.79563" lon="-1.6243">
        <ele>28.6</ele>
        <time>2021-12-24T09:17:55Z</time>
      </trkpt>
      <trkpt lat="46.7955" lon="-1.62428">
        <ele>28.8</ele>
        <time>2021-12-24T09:17:57Z</time>
      </trkpt>
      <trkpt lat="46.79537" lon="-1.62427">
        <ele>28.8</ele>
        <time>2021-12-24T09:17:59Z</time>
      </trkpt>
      <trkpt lat="46.79523" lon="-1.62425">
        <ele>29</ele>
        <time>2021-12-24T09:18:01Z</time>
      </trkpt>
      <trkpt lat="46.7951" lon="-1.62423">
        <ele>29</ele>
        <time>2021-12-24T09:18:03Z</time>
      </trkpt>
      <trkpt lat="46.79503" lon="-1.62422">
        <ele>29.2</ele>
        <time>2021-12-24T09:18:04Z</time>
      </trkpt>
      <trkpt lat="46.79496" lon="-1.62421">
        <ele>29.2</ele>
        <time>2021-12-24T09:18:05Z</time>
      </trkpt>
      <trkpt lat="46.79483" lon="-1.62419">
        <ele>29.2</ele>
        <time>2021-12-24T09:18:07Z</time>
      </trkpt>
      <trkpt lat="46.79469" lon="-1.62418">
        <ele>29.4</ele>
        <time>2021-12-24T09:18:09Z</time>
      </trkpt>
      <trkpt lat="46.79456" lon="-1.62416">
        <ele>29.4</ele>
        <time>2021-12-24T09:18:11Z</time>
      </trkpt>
      <trkpt lat="46.7945" lon="-1.62416">
        <ele>29.6</ele>
        <time>2021-12-24T09:18:12Z</time>
      </trkpt>
      <trkpt lat="46.79443" lon="-1.62415">
        <ele>29.6</ele>
        <time>2021-12-24T09:18:13Z</time>
      </trkpt>
      <trkpt lat="46.7943" lon="-1.62413">
        <ele>29.8</ele>
        <time>2021-12-24T09:18:15Z</time>
      </trkpt>
      <trkpt lat="46.79418" lon="-1.62412">
        <ele>29.8</ele>
        <time>2021-12-24T09:18:17Z</time>
      </trkpt>
      <trkpt lat="46.79406" lon="-1.6241">
        <ele>30</ele>
        <time>2021-12-24T09:18:19Z</time>
      </trkpt>
      <trkpt lat="46.79394" lon="-1.62409">
        <ele>30.2</ele>
        <time>2021-12-24T09:18:21Z</time>
      </trkpt>
      <trkpt lat="46.79382" lon="-1.62407">
        <ele>30.2</ele>
        <time>2021-12-24T09:18:23Z</time>
      </trkpt>
      <trkpt lat="46.79371" lon="-1.62406">
        <ele>30.4</ele>
        <time>2021-12-24T09:18:25Z</time>
      </trkpt>
      <trkpt lat="46.79366" lon="-1.62405">
        <ele>30.4</ele>
        <time>2021-12-24T09:18:26Z</time>
      </trkpt>
      <trkpt lat="46.7936" lon="-1.62405">
        <ele>30.6</ele>
        <time>2021-12-24T09:18:27Z</time>
      </trkpt>
      <trkpt lat="46.79349" lon="-1.62403">
        <ele>30.8</ele>
        <time>2021-12-24T09:18:29Z</time>
      </trkpt>
      <trkpt lat="46.79339" lon="-1.62402">
        <ele>31</ele>
        <time>2021-12-24T09:18:31Z</time>
      </trkpt>
      <trkpt lat="46.79328" lon="-1.62401">
        <ele>31.2</ele>
        <time>2021-12-24T09:18:33Z</time>
      </trkpt>
      <trkpt lat="46.79323" lon="-1.624">
        <ele>31.2</ele>
        <time>2021-12-24T09:18:34Z</time>
      </trkpt>
      <trkpt lat="46.79318" lon="-1.624">
        <ele>31.4</ele>
        <time>2021-12-24T09:18:35Z</time>
      </trkpt>
      <trkpt lat="46.79307" lon="-1.62398">
        <ele>31.4</ele>
        <time>2021-12-24T09:18:37Z</time>
      </trkpt>
      <trkpt lat="46.79297" lon="-1.62397">
        <ele>31.6</ele>
        <time>2021-12-24T09:18:39Z</time>
      </trkpt>
      <trkpt lat="46.79287" lon="-1.62396">
        <ele>31.8</ele>
        <time>2021-12-24T09:18:41Z</time>
      </trkpt>
      <trkpt lat="46.79281" lon="-1.62395">
        <ele>31.8</ele>
        <time>2021-12-24T09:18:42Z</time>
      </trkpt>
      <trkpt lat="46.79276" lon="-1.62394">
        <ele>32</ele>
        <time>2021-12-24T09:18:43Z</time>
      </trkpt>
      <trkpt lat="46.79265" lon="-1.62393">
        <ele>32.2</ele>
        <time>2021-12-24T09:18:45Z</time>
      </trkpt>
      <trkpt lat="46.79255" lon="-1.62392">
        <ele>32.2</ele>
        <time>2021-12-24T09:18:47Z</time>
      </trkpt>
      <trkpt lat="46.79244" lon="-1.62391">
        <ele>32.4</ele>
        <time>2021-12-24T09:18:49Z</time>
      </trkpt>
      <trkpt lat="46.79234" lon="-1.62389">
        <ele>32.6</ele>
        <time>2021-12-24T09:18:51Z</time>
      </trkpt>
      <trkpt lat="46.79223" lon="-1.62388">
        <ele>32.8</ele>
        <time>2021-12-24T09:18:53Z</time>
      </trkpt>
      <trkpt lat="46.79213" lon="-1.62387">
        <ele>33</ele>
        <time>2021-12-24T09:18:55Z</time>
      </trkpt>
      <trkpt lat="46.79203" lon="-1.62386">
        <ele>33.2</ele>
        <time>2021-12-24T09:18:57Z</time>
      </trkpt>
      <trkpt lat="46.79193" lon="-1.62385">
        <ele>33.4</ele>
        <time>2021-12-24T09:18:59Z</time>
      </trkpt>
      <trkpt lat="46.79188" lon="-1.62385">
        <ele>33.4</ele>
        <time>2021-12-24T09:19:00Z</time>
      </trkpt>
      <trkpt lat="46.79183" lon="-1.62385">
        <ele>33.6</ele>
        <time>2021-12-24T09:19:01Z</time>
      </trkpt>
      <trkpt lat="46.79174" lon="-1.62384">
        <ele>33.8</ele>
        <time>2021-12-24T09:19:03Z</time>
      </trkpt>
      <trkpt lat="46.79164" lon="-1.62383">
        <ele>34</ele>
        <time>2021-12-24T09:19:05Z</time>
      </trkpt>
      <trkpt lat="46.79154" lon="-1.62381">
        <ele>34.2</ele>
        <time>2021-12-24T09:19:07Z</time>
      </trkpt>
      <trkpt lat="46.79144" lon="-1.62379">
        <ele>34.4</ele>
        <time>2021-12-24T09:19:09Z</time>
      </trkpt>
      <trkpt lat="46.79135" lon="-1.62378">
        <ele>34.4</ele>
        <time>2021-12-24T09:19:11Z</time>
      </trkpt>
      <trkpt lat="46.79126" lon="-1.62376">
        <ele>34.6</ele>
        <time>2021-12-24T09:19:13Z</time>
      </trkpt>
      <trkpt lat="46.79122" lon="-1.62375">
        <ele>34.6</ele>
        <time>2021-12-24T09:19:14Z</time>
      </trkpt>
      <trkpt lat="46.79117" lon="-1.62375">
        <ele>34.8</ele>
        <time>2021-12-24T09:19:15Z</time>
      </trkpt>
      <trkpt lat="46.79108" lon="-1.62374">
        <ele>35</ele>
        <time>2021-12-24T09:19:17Z</time>
      </trkpt>
      <trkpt lat="46.79099" lon="-1.62373">
        <ele>35</ele>
        <time>2021-12-24T09:19:19Z</time>
      </trkpt>
      <trkpt lat="46.79091" lon="-1.62371">
        <ele>35.2</ele>
        <time>2021-12-24T09:19:21Z</time>
      </trkpt>
      <trkpt lat="46.79086" lon="-1.6237">
        <ele>35.2</ele>
        <time>2021-12-24T09:19:22Z</time>
      </trkpt>
      <trkpt lat="46.79082" lon="-1.62369">
        <ele>35.4</ele>
        <time>2021-12-24T09:19:23Z</time>
      </trkpt>
      <trkpt lat="46.79073" lon="-1.62367">
        <ele>35.4</ele>
        <time>2021-12-24T09:19:25Z</time>
      </trkpt>
      <trkpt lat="46.79064" lon="-1.62366">
        <ele>35.6</ele>
        <time>2021-12-24T09:19:27Z</time>
      </trkpt>
      <trkpt lat="46.79056" lon="-1.62365">
        <ele>35.8</ele>
        <time>2021-12-24T09:19:29Z</time>
      </trkpt>
      <trkpt lat="46.79051" lon="-1.62365">
        <ele>35.8</ele>
        <time>2021-12-24T09:19:30Z</time>
      </trkpt>
      <trkpt lat="46.79047" lon="-1.62364">
        <ele>35.8</ele>
        <time>2021-12-24T09:19:31Z</time>
      </trkpt>
      <trkpt lat="46.79038" lon="-1.62362">
        <ele>36</ele>
        <time>2021-12-24T09:19:33Z</time>
      </trkpt>
      <trkpt lat="46.7903" lon="-1.62361">
        <ele>36.2</ele>
        <time>2021-12-24T09:19:35Z</time>
      </trkpt>
      <trkpt lat="46.79022" lon="-1.62361">
        <ele>36.2</ele>
        <time>2021-12-24T09:19:37Z</time>
      </trkpt>
      <trkpt lat="46.79013" lon="-1.62361">
        <ele>36.4</ele>
        <time>2021-12-24T09:19:39Z</time>
      </trkpt>
      <trkpt lat="46.79005" lon="-1.62361">
        <ele>36.6</ele>
        <time>2021-12-24T09:19:41Z</time>
      </trkpt>
      <trkpt lat="46.78996" lon="-1.6236">
        <ele>36.8</ele>
        <time>2021-12-24T09:19:43Z</time>
      </trkpt>
      <trkpt lat="46.78988" lon="-1.62358">
        <ele>36.8</ele>
        <time>2021-12-24T09:19:45Z</time>
      </trkpt>
      <trkpt lat="46.78983" lon="-1.62356">
        <ele>37</ele>
        <time>2021-12-24T09:19:46Z</time>
      </trkpt>
      <trkpt lat="46.78979" lon="-1.62355">
        <ele>37</ele>
        <time>2021-12-24T09:19:47Z</time>
      </trkpt>
      <trkpt lat="46.7897" lon="-1.62354">
        <ele>37.2</ele>
        <time>2021-12-24T09:19:49Z</time>
      </trkpt>
      <trkpt lat="46.78962" lon="-1.62353">
        <ele>37.4</ele>
        <time>2021-12-24T09:19:51Z</time>
      </trkpt>
      <trkpt lat="46.78953" lon="-1.62352">
        <ele>37.4</ele>
        <time>2021-12-24T09:19:53Z</time>
      </trkpt>
      <trkpt lat="46.78944" lon="-1.62351">
        <ele>37.6</ele>
        <time>2021-12-24T09:19:55Z</time>
      </trkpt>
      <trkpt lat="46.78935" lon="-1.6235">
        <ele>37.6</ele>
        <time>2021-12-24T09:19:57Z</time>
      </trkpt>
      <trkpt lat="46.78925" lon="-1.62349">
        <ele>37.6</ele>
        <time>2021-12-24T09:19:59Z</time>
      </trkpt>
      <trkpt lat="46.7892" lon="-1.62348">
        <ele>37.8</ele>
        <time>2021-12-24T09:20:00Z</time>
      </trkpt>
      <trkpt lat="46.78915" lon="-1.62347">
        <ele>37.8</ele>
        <time>2021-12-24T09:20:01Z</time>
      </trkpt>
      <trkpt lat="46.78903" lon="-1.62346">
        <ele>37.8</ele>
        <time>2021-12-24T09:20:03Z</time>
      </trkpt>
      <trkpt lat="46.78891" lon="-1.62344">
        <ele>37.8</ele>
        <time>2021-12-24T09:20:05Z</time>
      </trkpt>
      <trkpt lat="46.78885" lon="-1.62344">
        <ele>37.8</ele>
        <time>2021-12-24T09:20:06Z</time>
      </trkpt>
      <trkpt lat="46.78879" lon="-1.62343">
        <ele>37.8</ele>
        <time>2021-12-24T09:20:07Z</time>
      </trkpt>
      <trkpt lat="46.78866" lon="-1.62343">
        <ele>37.8</ele>
        <time>2021-12-24T09:20:09Z</time>
      </trkpt>
      <trkpt lat="46.78853" lon="-1.62343">
        <ele>37.8</ele>
        <time>2021-12-24T09:20:11Z</time>
      </trkpt>
      <trkpt lat="46.78848" lon="-1.62342">
        <ele>37.8</ele>
        <time>2021-12-24T09:20:12Z</time>
      </trkpt>
      <trkpt lat="46.78841" lon="-1.62341">
        <ele>37.8</ele>
        <time>2021-12-24T09:20:13Z</time>
      </trkpt>
      <trkpt lat="46.78828" lon="-1.62338">
        <ele>37.8</ele>
        <time>2021-12-24T09:20:15Z</time>
      </trkpt>
      <trkpt lat="46.78814" lon="-1.62336">
        <ele>37.8</ele>
        <time>2021-12-24T09:20:17Z</time>
      </trkpt>
      <trkpt lat="46.78799" lon="-1.62334">
        <ele>37.8</ele>
        <time>2021-12-24T09:20:19Z</time>
      </trkpt>
      <trkpt lat="46.78785" lon="-1.62331">
        <ele>37.8</ele>
        <time>2021-12-24T09:20:21Z</time>
      </trkpt>
      <trkpt lat="46.78772" lon="-1.62329">
        <ele>37.8</ele>
        <time>2021-12-24T09:20:23Z</time>
      </trkpt>
      <trkpt lat="46.78758" lon="-1.62327">
        <ele>37.8</ele>
        <time>2021-12-24T09:20:25Z</time>
      </trkpt>
      <trkpt lat="46.78752" lon="-1.62326">
        <ele>37.6</ele>
        <time>2021-12-24T09:20:26Z</time>
      </trkpt>
      <trkpt lat="46.78745" lon="-1.62325">
        <ele>37.6</ele>
        <time>2021-12-24T09:20:27Z</time>
      </trkpt>
      <trkpt lat="46.78731" lon="-1.62324">
        <ele>37.6</ele>
        <time>2021-12-24T09:20:29Z</time>
      </trkpt>
      <trkpt lat="46.78718" lon="-1.62321">
        <ele>37.8</ele>
        <time>2021-12-24T09:20:31Z</time>
      </trkpt>
      <trkpt lat="46.78705" lon="-1.6232">
        <ele>37.8</ele>
        <time>2021-12-24T09:20:33Z</time>
      </trkpt>
      <trkpt lat="46.78693" lon="-1.62318">
        <ele>37.6</ele>
        <time>2021-12-24T09:20:35Z</time>
      </trkpt>
      <trkpt lat="46.78681" lon="-1.62317">
        <ele>37.6</ele>
        <time>2021-12-24T09:20:37Z</time>
      </trkpt>
      <trkpt lat="46.78668" lon="-1.62316">
        <ele>37.8</ele>
        <time>2021-12-24T09:20:39Z</time>
      </trkpt>
      <trkpt lat="46.78662" lon="-1.62316">
        <ele>37.8</ele>
        <time>2021-12-24T09:20:40Z</time>
      </trkpt>
      <trkpt lat="46.78656" lon="-1.62315">
        <ele>37.8</ele>
        <time>2021-12-24T09:20:41Z</time>
      </trkpt>
      <trkpt lat="46.78644" lon="-1.62314">
        <ele>37.8</ele>
        <time>2021-12-24T09:20:43Z</time>
      </trkpt>
      <trkpt lat="46.78632" lon="-1.62313">
        <ele>37.6</ele>
        <time>2021-12-24T09:20:45Z</time>
      </trkpt>
      <trkpt lat="46.78619" lon="-1.62312">
        <ele>37.8</ele>
        <time>2021-12-24T09:20:47Z</time>
      </trkpt>
      <trkpt lat="46.78608" lon="-1.6231">
        <ele>37.8</ele>
        <time>2021-12-24T09:20:49Z</time>
      </trkpt>
      <trkpt lat="46.78602" lon="-1.6231">
        <ele>37.8</ele>
        <time>2021-12-24T09:20:50Z</time>
      </trkpt>
      <trkpt lat="46.78596" lon="-1.6231">
        <ele>37.8</ele>
        <time>2021-12-24T09:20:51Z</time>
      </trkpt>
      <trkpt lat="46.78584" lon="-1.62308">
        <ele>37.8</ele>
        <time>2021-12-24T09:20:53Z</time>
      </trkpt>
      <trkpt lat="46.78579" lon="-1.62308">
        <ele>37.8</ele>
        <time>2021-12-24T09:20:54Z</time>
      </trkpt>
      <trkpt lat="46.78572" lon="-1.62307">
        <ele>37.8</ele>
        <time>2021-12-24T09:20:55Z</time>
      </trkpt>
      <trkpt lat="46.78561" lon="-1.62305">
        <ele>37.8</ele>
        <time>2021-12-24T09:20:57Z</time>
      </trkpt>
      <trkpt lat="46.7855" lon="-1.62303">
        <ele>37.8</ele>
        <time>2021-12-24T09:20:59Z</time>
      </trkpt>
      <trkpt lat="46.78544" lon="-1.62303">
        <ele>37.8</ele>
        <time>2021-12-24T09:21:00Z</time>
      </trkpt>
      <trkpt lat="46.78539" lon="-1.62302">
        <ele>37.8</ele>
        <time>2021-12-24T09:21:01Z</time>
      </trkpt>
      <trkpt lat="46.78529" lon="-1.623">
        <ele>38</ele>
        <time>2021-12-24T09:21:03Z</time>
      </trkpt>
      <trkpt lat="46.78518" lon="-1.62299">
        <ele>38</ele>
        <time>2021-12-24T09:21:05Z</time>
      </trkpt>
      <trkpt lat="46.78513" lon="-1.62298">
        <ele>38</ele>
        <time>2021-12-24T09:21:06Z</time>
      </trkpt>
      <trkpt lat="46.78508" lon="-1.62298">
        <ele>38</ele>
        <time>2021-12-24T09:21:07Z</time>
      </trkpt>
      <trkpt lat="46.78498" lon="-1.62296">
        <ele>38</ele>
        <time>2021-12-24T09:21:09Z</time>
      </trkpt>
      <trkpt lat="46.78488" lon="-1.62294">
        <ele>38.2</ele>
        <time>2021-12-24T09:21:11Z</time>
      </trkpt>
      <trkpt lat="46.78479" lon="-1.62294">
        <ele>38.2</ele>
        <time>2021-12-24T09:21:13Z</time>
      </trkpt>
      <trkpt lat="46.7847" lon="-1.62293">
        <ele>38.4</ele>
        <time>2021-12-24T09:21:15Z</time>
      </trkpt>
      <trkpt lat="46.7846" lon="-1.62292">
        <ele>38.4</ele>
        <time>2021-12-24T09:21:17Z</time>
      </trkpt>
      <trkpt lat="46.7845" lon="-1.62291">
        <ele>38.4</ele>
        <time>2021-12-24T09:21:19Z</time>
      </trkpt>
      <trkpt lat="46.78439" lon="-1.62289">
        <ele>38.4</ele>
        <time>2021-12-24T09:21:21Z</time>
      </trkpt>
      <trkpt lat="46.78428" lon="-1.62289">
        <ele>38.4</ele>
        <time>2021-12-24T09:21:23Z</time>
      </trkpt>
      <trkpt lat="46.78422" lon="-1.62288">
        <ele>38.4</ele>
        <time>2021-12-24T09:21:24Z</time>
      </trkpt>
      <trkpt lat="46.78417" lon="-1.62288">
        <ele>38.4</ele>
        <time>2021-12-24T09:21:25Z</time>
      </trkpt>
      <trkpt lat="46.78406" lon="-1.62288">
        <ele>38.4</ele>
        <time>2021-12-24T09:21:27Z</time>
      </trkpt>
      <trkpt lat="46.78395" lon="-1.62288">
        <ele>38.4</ele>
        <time>2021-12-24T09:21:29Z</time>
      </trkpt>
      <trkpt lat="46.78385" lon="-1.62282">
        <ele>38.4</ele>
        <time>2021-12-24T09:21:31Z</time>
      </trkpt>
      <trkpt lat="46.78382" lon="-1.62269">
        <ele>38.4</ele>
        <time>2021-12-24T09:21:33Z</time>
      </trkpt>
      <trkpt lat="46.78382" lon="-1.62261">
        <ele>38.4</ele>
        <time>2021-12-24T09:21:34Z</time>
      </trkpt>
      <trkpt lat="46.78382" lon="-1.62252">
        <ele>38.4</ele>
        <time>2021-12-24T09:21:35Z</time>
      </trkpt>
      <trkpt lat="46.78383" lon="-1.62236">
        <ele>38.6</ele>
        <time>2021-12-24T09:21:37Z</time>
      </trkpt>
      <trkpt lat="46.78385" lon="-1.62219">
        <ele>38.4</ele>
        <time>2021-12-24T09:21:39Z</time>
      </trkpt>
      <trkpt lat="46.78385" lon="-1.62211">
        <ele>38.4</ele>
        <time>2021-12-24T09:21:40Z</time>
      </trkpt>
      <trkpt lat="46.78386" lon="-1.62202">
        <ele>38.6</ele>
        <time>2021-12-24T09:21:41Z</time>
      </trkpt>
      <trkpt lat="46.78387" lon="-1.62185">
        <ele>38.2</ele>
        <time>2021-12-24T09:21:43Z</time>
      </trkpt>
      <trkpt lat="46.78386" lon="-1.62176">
        <ele>38.2</ele>
        <time>2021-12-24T09:21:44Z</time>
      </trkpt>
      <trkpt lat="46.78384" lon="-1.62167">
        <ele>38.2</ele>
        <time>2021-12-24T09:21:45Z</time>
      </trkpt>
      <trkpt lat="46.7838" lon="-1.62161">
        <ele>38.2</ele>
        <time>2021-12-24T09:21:46Z</time>
      </trkpt>
      <trkpt lat="46.78375" lon="-1.62157">
        <ele>38.2</ele>
        <time>2021-12-24T09:21:47Z</time>
      </trkpt>
      <trkpt lat="46.78368" lon="-1.62157">
        <ele>38</ele>
        <time>2021-12-24T09:21:48Z</time>
      </trkpt>
      <trkpt lat="46.78362" lon="-1.62158">
        <ele>38</ele>
        <time>2021-12-24T09:21:49Z</time>
      </trkpt>
      <trkpt lat="46.78355" lon="-1.6216">
        <ele>37.8</ele>
        <time>2021-12-24T09:21:50Z</time>
      </trkpt>
      <trkpt lat="46.78348" lon="-1.62162">
        <ele>37.8</ele>
        <time>2021-12-24T09:21:51Z</time>
      </trkpt>
      <trkpt lat="46.78336" lon="-1.62168">
        <ele>37.4</ele>
        <time>2021-12-24T09:21:53Z</time>
      </trkpt>
      <trkpt lat="46.78329" lon="-1.62172">
        <ele>37.4</ele>
        <time>2021-12-24T09:21:54Z</time>
      </trkpt>
      <trkpt lat="46.78322" lon="-1.62175">
        <ele>37.4</ele>
        <time>2021-12-24T09:21:55Z</time>
      </trkpt>
      <trkpt lat="46.78309" lon="-1.62181">
        <ele>37.2</ele>
        <time>2021-12-24T09:21:57Z</time>
      </trkpt>
      <trkpt lat="46.78296" lon="-1.62186">
        <ele>37.2</ele>
        <time>2021-12-24T09:21:59Z</time>
      </trkpt>
      <trkpt lat="46.78283" lon="-1.62189">
        <ele>37</ele>
        <time>2021-12-24T09:22:01Z</time>
      </trkpt>
      <trkpt lat="46.78271" lon="-1.6219">
        <ele>37</ele>
        <time>2021-12-24T09:22:03Z</time>
      </trkpt>
      <trkpt lat="46.78259" lon="-1.62191">
        <ele>37</ele>
        <time>2021-12-24T09:22:05Z</time>
      </trkpt>
      <trkpt lat="46.78247" lon="-1.62191">
        <ele>36.8</ele>
        <time>2021-12-24T09:22:07Z</time>
      </trkpt>
      <trkpt lat="46.78235" lon="-1.62191">
        <ele>36.8</ele>
        <time>2021-12-24T09:22:09Z</time>
      </trkpt>
      <trkpt lat="46.78224" lon="-1.6219">
        <ele>36.8</ele>
        <time>2021-12-24T09:22:11Z</time>
      </trkpt>
      <trkpt lat="46.78218" lon="-1.62191">
        <ele>36.8</ele>
        <time>2021-12-24T09:22:12Z</time>
      </trkpt>
      <trkpt lat="46.78213" lon="-1.62192">
        <ele>36.8</ele>
        <time>2021-12-24T09:22:13Z</time>
      </trkpt>
      <trkpt lat="46.78207" lon="-1.62192">
        <ele>36.6</ele>
        <time>2021-12-24T09:22:14Z</time>
      </trkpt>
      <trkpt lat="46.78201" lon="-1.62192">
        <ele>36.6</ele>
        <time>2021-12-24T09:22:15Z</time>
      </trkpt>
      <trkpt lat="46.7819" lon="-1.62191">
        <ele>36.6</ele>
        <time>2021-12-24T09:22:17Z</time>
      </trkpt>
      <trkpt lat="46.78178" lon="-1.6219">
        <ele>36.4</ele>
        <time>2021-12-24T09:22:19Z</time>
      </trkpt>
      <trkpt lat="46.78167" lon="-1.62185">
        <ele>36.2</ele>
        <time>2021-12-24T09:22:21Z</time>
      </trkpt>
      <trkpt lat="46.78155" lon="-1.62181">
        <ele>36.2</ele>
        <time>2021-12-24T09:22:23Z</time>
      </trkpt>
      <trkpt lat="46.78143" lon="-1.62177">
        <ele>35.8</ele>
        <time>2021-12-24T09:22:25Z</time>
      </trkpt>
      <trkpt lat="46.78131" lon="-1.62173">
        <ele>35.6</ele>
        <time>2021-12-24T09:22:27Z</time>
      </trkpt>
      <trkpt lat="46.78119" lon="-1.62168">
        <ele>35.4</ele>
        <time>2021-12-24T09:22:29Z</time>
      </trkpt>
      <trkpt lat="46.78106" lon="-1.62163">
        <ele>35.2</ele>
        <time>2021-12-24T09:22:31Z</time>
      </trkpt>
      <trkpt lat="46.78093" lon="-1.62159">
        <ele>35</ele>
        <time>2021-12-24T09:22:33Z</time>
      </trkpt>
      <trkpt lat="46.78079" lon="-1.62154">
        <ele>34.8</ele>
        <time>2021-12-24T09:22:35Z</time>
      </trkpt>
      <trkpt lat="46.78065" lon="-1.62148">
        <ele>34.6</ele>
        <time>2021-12-24T09:22:37Z</time>
      </trkpt>
      <trkpt lat="46.78049" lon="-1.62143">
        <ele>34.2</ele>
        <time>2021-12-24T09:22:39Z</time>
      </trkpt>
      <trkpt lat="46.78033" lon="-1.62138">
        <ele>33.8</ele>
        <time>2021-12-24T09:22:41Z</time>
      </trkpt>
      <trkpt lat="46.78025" lon="-1.62135">
        <ele>33.6</ele>
        <time>2021-12-24T09:22:42Z</time>
      </trkpt>
      <trkpt lat="46.78016" lon="-1.62131">
        <ele>33.4</ele>
        <time>2021-12-24T09:22:43Z</time>
      </trkpt>
      <trkpt lat="46.77999" lon="-1.62124">
        <ele>33</ele>
        <time>2021-12-24T09:22:45Z</time>
      </trkpt>
      <trkpt lat="46.77982" lon="-1.62117">
        <ele>32.6</ele>
        <time>2021-12-24T09:22:47Z</time>
      </trkpt>
      <trkpt lat="46.77965" lon="-1.6211">
        <ele>32.4</ele>
        <time>2021-12-24T09:22:49Z</time>
      </trkpt>
      <trkpt lat="46.77956" lon="-1.62106">
        <ele>32</ele>
        <time>2021-12-24T09:22:50Z</time>
      </trkpt>
      <trkpt lat="46.77948" lon="-1.62102">
        <ele>32</ele>
        <time>2021-12-24T09:22:51Z</time>
      </trkpt>
      <trkpt lat="46.7793" lon="-1.62096">
        <ele>31.4</ele>
        <time>2021-12-24T09:22:53Z</time>
      </trkpt>
      <trkpt lat="46.77915" lon="-1.6209">
        <ele>31</ele>
        <time>2021-12-24T09:22:55Z</time>
      </trkpt>
      <trkpt lat="46.77907" lon="-1.62089">
        <ele>30.8</ele>
        <time>2021-12-24T09:22:56Z</time>
      </trkpt>
      <trkpt lat="46.779" lon="-1.62089">
        <ele>30.6</ele>
        <time>2021-12-24T09:22:57Z</time>
      </trkpt>
      <trkpt lat="46.77892" lon="-1.62089">
        <ele>30.6</ele>
        <time>2021-12-24T09:22:58Z</time>
      </trkpt>
      <trkpt lat="46.77884" lon="-1.62087">
        <ele>30.4</ele>
        <time>2021-12-24T09:22:59Z</time>
      </trkpt>
      <trkpt lat="46.77878" lon="-1.62082">
        <ele>30</ele>
        <time>2021-12-24T09:23:00Z</time>
      </trkpt>
      <trkpt lat="46.77871" lon="-1.62076">
        <ele>30</ele>
        <time>2021-12-24T09:23:01Z</time>
      </trkpt>
      <trkpt lat="46.77864" lon="-1.62071">
        <ele>29.8</ele>
        <time>2021-12-24T09:23:02Z</time>
      </trkpt>
      <trkpt lat="46.77856" lon="-1.62066">
        <ele>29.6</ele>
        <time>2021-12-24T09:23:03Z</time>
      </trkpt>
      <trkpt lat="46.7784" lon="-1.62056">
        <ele>29.2</ele>
        <time>2021-12-24T09:23:05Z</time>
      </trkpt>
      <trkpt lat="46.77823" lon="-1.62045">
        <ele>28.8</ele>
        <time>2021-12-24T09:23:07Z</time>
      </trkpt>
      <trkpt lat="46.77814" lon="-1.62039">
        <ele>28.6</ele>
        <time>2021-12-24T09:23:08Z</time>
      </trkpt>
      <trkpt lat="46.77806" lon="-1.62033">
        <ele>28.2</ele>
        <time>2021-12-24T09:23:09Z</time>
      </trkpt>
      <trkpt lat="46.77789" lon="-1.6202">
        <ele>27.8</ele>
        <time>2021-12-24T09:23:11Z</time>
      </trkpt>
      <trkpt lat="46.77772" lon="-1.62006">
        <ele>27.4</ele>
        <time>2021-12-24T09:23:13Z</time>
      </trkpt>
      <trkpt lat="46.77764" lon="-1.61999">
        <ele>27</ele>
        <time>2021-12-24T09:23:14Z</time>
      </trkpt>
      <trkpt lat="46.77755" lon="-1.61991">
        <ele>26.8</ele>
        <time>2021-12-24T09:23:15Z</time>
      </trkpt>
      <trkpt lat="46.77738" lon="-1.61975">
        <ele>26.2</ele>
        <time>2021-12-24T09:23:17Z</time>
      </trkpt>
      <trkpt lat="46.77721" lon="-1.6196">
        <ele>25.6</ele>
        <time>2021-12-24T09:23:19Z</time>
      </trkpt>
      <trkpt lat="46.77703" lon="-1.61944">
        <ele>25</ele>
        <time>2021-12-24T09:23:21Z</time>
      </trkpt>
      <trkpt lat="46.77686" lon="-1.61929">
        <ele>24.6</ele>
        <time>2021-12-24T09:23:23Z</time>
      </trkpt>
      <trkpt lat="46.77669" lon="-1.61914">
        <ele>24</ele>
        <time>2021-12-24T09:23:25Z</time>
      </trkpt>
      <trkpt lat="46.77653" lon="-1.619">
        <ele>23.6</ele>
        <time>2021-12-24T09:23:27Z</time>
      </trkpt>
      <trkpt lat="46.77638" lon="-1.61886">
        <ele>23.2</ele>
        <time>2021-12-24T09:23:29Z</time>
      </trkpt>
      <trkpt lat="46.77622" lon="-1.61873">
        <ele>23</ele>
        <time>2021-12-24T09:23:31Z</time>
      </trkpt>
      <trkpt lat="46.77607" lon="-1.61862">
        <ele>22.8</ele>
        <time>2021-12-24T09:23:33Z</time>
      </trkpt>
      <trkpt lat="46.776" lon="-1.61857">
        <ele>22.6</ele>
        <time>2021-12-24T09:23:34Z</time>
      </trkpt>
      <trkpt lat="46.77593" lon="-1.61852">
        <ele>22.4</ele>
        <time>2021-12-24T09:23:35Z</time>
      </trkpt>
      <trkpt lat="46.7758" lon="-1.61844">
        <ele>22.2</ele>
        <time>2021-12-24T09:23:37Z</time>
      </trkpt>
      <trkpt lat="46.77567" lon="-1.61837">
        <ele>22</ele>
        <time>2021-12-24T09:23:39Z</time>
      </trkpt>
      <trkpt lat="46.77561" lon="-1.61834">
        <ele>22</ele>
        <time>2021-12-24T09:23:40Z</time>
      </trkpt>
      <trkpt lat="46.77555" lon="-1.61831">
        <ele>21.8</ele>
        <time>2021-12-24T09:23:41Z</time>
      </trkpt>
      <trkpt lat="46.77543" lon="-1.61825">
        <ele>21.4</ele>
        <time>2021-12-24T09:23:43Z</time>
      </trkpt>
      <trkpt lat="46.77532" lon="-1.6182">
        <ele>21.2</ele>
        <time>2021-12-24T09:23:45Z</time>
      </trkpt>
      <trkpt lat="46.77527" lon="-1.61818">
        <ele>21.2</ele>
        <time>2021-12-24T09:23:46Z</time>
      </trkpt>
      <trkpt lat="46.77522" lon="-1.61816">
        <ele>21</ele>
        <time>2021-12-24T09:23:47Z</time>
      </trkpt>
      <trkpt lat="46.77512" lon="-1.61812">
        <ele>20.6</ele>
        <time>2021-12-24T09:23:49Z</time>
      </trkpt>
      <trkpt lat="46.77501" lon="-1.61809">
        <ele>20.4</ele>
        <time>2021-12-24T09:23:51Z</time>
      </trkpt>
      <trkpt lat="46.77492" lon="-1.61807">
        <ele>20</ele>
        <time>2021-12-24T09:23:53Z</time>
      </trkpt>
      <trkpt lat="46.77482" lon="-1.61805">
        <ele>19.8</ele>
        <time>2021-12-24T09:23:55Z</time>
      </trkpt>
      <trkpt lat="46.77472" lon="-1.61803">
        <ele>19.6</ele>
        <time>2021-12-24T09:23:57Z</time>
      </trkpt>
      <trkpt lat="46.77463" lon="-1.61801">
        <ele>19.6</ele>
        <time>2021-12-24T09:23:59Z</time>
      </trkpt>
      <trkpt lat="46.77458" lon="-1.618">
        <ele>19.6</ele>
        <time>2021-12-24T09:24:00Z</time>
      </trkpt>
      <trkpt lat="46.77453" lon="-1.618">
        <ele>19.6</ele>
        <time>2021-12-24T09:24:01Z</time>
      </trkpt>
      <trkpt lat="46.77443" lon="-1.61799">
        <ele>19.6</ele>
        <time>2021-12-24T09:24:03Z</time>
      </trkpt>
      <trkpt lat="46.77433" lon="-1.61797">
        <ele>19.8</ele>
        <time>2021-12-24T09:24:05Z</time>
      </trkpt>
      <trkpt lat="46.77423" lon="-1.61796">
        <ele>20</ele>
        <time>2021-12-24T09:24:07Z</time>
      </trkpt>
      <trkpt lat="46.77418" lon="-1.61795">
        <ele>20</ele>
        <time>2021-12-24T09:24:08Z</time>
      </trkpt>
      <trkpt lat="46.77414" lon="-1.61794">
        <ele>20</ele>
        <time>2021-12-24T09:24:09Z</time>
      </trkpt>
      <trkpt lat="46.77404" lon="-1.61793">
        <ele>20</ele>
        <time>2021-12-24T09:24:11Z</time>
      </trkpt>
      <trkpt lat="46.77395" lon="-1.61791">
        <ele>20</ele>
        <time>2021-12-24T09:24:13Z</time>
      </trkpt>
      <trkpt lat="46.77386" lon="-1.6179">
        <ele>19</ele>
        <time>2021-12-24T09:24:15Z</time>
      </trkpt>
      <trkpt lat="46.77377" lon="-1.61788">
        <ele>19</ele>
        <time>2021-12-24T09:24:17Z</time>
      </trkpt>
      <trkpt lat="46.77372" lon="-1.61787">
        <ele>19.4</ele>
        <time>2021-12-24T09:24:18Z</time>
      </trkpt>
      <trkpt lat="46.77368" lon="-1.61787">
        <ele>19.4</ele>
        <time>2021-12-24T09:24:19Z</time>
      </trkpt>
      <trkpt lat="46.77359" lon="-1.61785">
        <ele>19.6</ele>
        <time>2021-12-24T09:24:21Z</time>
      </trkpt>
      <trkpt lat="46.7735" lon="-1.61784">
        <ele>19.8</ele>
        <time>2021-12-24T09:24:23Z</time>
      </trkpt>
      <trkpt lat="46.77341" lon="-1.61783">
        <ele>20</ele>
        <time>2021-12-24T09:24:25Z</time>
      </trkpt>
      <trkpt lat="46.77332" lon="-1.61782">
        <ele>20.2</ele>
        <time>2021-12-24T09:24:27Z</time>
      </trkpt>
      <trkpt lat="46.77327" lon="-1.61781">
        <ele>20.4</ele>
        <time>2021-12-24T09:24:28Z</time>
      </trkpt>
      <trkpt lat="46.77323" lon="-1.61781">
        <ele>19.8</ele>
        <time>2021-12-24T09:24:29Z</time>
      </trkpt>
      <trkpt lat="46.77314" lon="-1.6178">
        <ele>20</ele>
        <time>2021-12-24T09:24:31Z</time>
      </trkpt>
      <trkpt lat="46.77305" lon="-1.61779">
        <ele>20</ele>
        <time>2021-12-24T09:24:33Z</time>
      </trkpt>
      <trkpt lat="46.77296" lon="-1.61778">
        <ele>20</ele>
        <time>2021-12-24T09:24:35Z</time>
      </trkpt>
      <trkpt lat="46.77287" lon="-1.61777">
        <ele>20</ele>
        <time>2021-12-24T09:24:37Z</time>
      </trkpt>
      <trkpt lat="46.77279" lon="-1.61776">
        <ele>20.2</ele>
        <time>2021-12-24T09:24:39Z</time>
      </trkpt>
      <trkpt lat="46.77269" lon="-1.61774">
        <ele>20.4</ele>
        <time>2021-12-24T09:24:41Z</time>
      </trkpt>
      <trkpt lat="46.7726" lon="-1.61773">
        <ele>20.4</ele>
        <time>2021-12-24T09:24:43Z</time>
      </trkpt>
      <trkpt lat="46.77251" lon="-1.61772">
        <ele>20.6</ele>
        <time>2021-12-24T09:24:45Z</time>
      </trkpt>
      <trkpt lat="46.77242" lon="-1.61771">
        <ele>20.8</ele>
        <time>2021-12-24T09:24:47Z</time>
      </trkpt>
      <trkpt lat="46.77233" lon="-1.6177">
        <ele>20.8</ele>
        <time>2021-12-24T09:24:49Z</time>
      </trkpt>
      <trkpt lat="46.77228" lon="-1.61769">
        <ele>20.8</ele>
        <time>2021-12-24T09:24:50Z</time>
      </trkpt>
      <trkpt lat="46.77224" lon="-1.61768">
        <ele>20.8</ele>
        <time>2021-12-24T09:24:51Z</time>
      </trkpt>
      <trkpt lat="46.77214" lon="-1.61767">
        <ele>21</ele>
        <time>2021-12-24T09:24:53Z</time>
      </trkpt>
      <trkpt lat="46.77205" lon="-1.61765">
        <ele>21.2</ele>
        <time>2021-12-24T09:24:55Z</time>
      </trkpt>
      <trkpt lat="46.77196" lon="-1.61764">
        <ele>21.2</ele>
        <time>2021-12-24T09:24:57Z</time>
      </trkpt>
      <trkpt lat="46.77187" lon="-1.61762">
        <ele>21.4</ele>
        <time>2021-12-24T09:24:59Z</time>
      </trkpt>
      <trkpt lat="46.77177" lon="-1.61761">
        <ele>21.4</ele>
        <time>2021-12-24T09:25:01Z</time>
      </trkpt>
      <trkpt lat="46.77168" lon="-1.6176">
        <ele>21.6</ele>
        <time>2021-12-24T09:25:03Z</time>
      </trkpt>
      <trkpt lat="46.77158" lon="-1.61759">
        <ele>21.8</ele>
        <time>2021-12-24T09:25:05Z</time>
      </trkpt>
      <trkpt lat="46.77149" lon="-1.61757">
        <ele>22</ele>
        <time>2021-12-24T09:25:07Z</time>
      </trkpt>
      <trkpt lat="46.77145" lon="-1.61756">
        <ele>22</ele>
        <time>2021-12-24T09:25:08Z</time>
      </trkpt>
      <trkpt lat="46.7714" lon="-1.61756">
        <ele>22.2</ele>
        <time>2021-12-24T09:25:09Z</time>
      </trkpt>
      <trkpt lat="46.77132" lon="-1.61755">
        <ele>22.2</ele>
        <time>2021-12-24T09:25:11Z</time>
      </trkpt>
      <trkpt lat="46.77123" lon="-1.61754">
        <ele>22.4</ele>
        <time>2021-12-24T09:25:13Z</time>
      </trkpt>
      <trkpt lat="46.77119" lon="-1.61753">
        <ele>22.4</ele>
        <time>2021-12-24T09:25:14Z</time>
      </trkpt>
      <trkpt lat="46.77115" lon="-1.61753">
        <ele>22.4</ele>
        <time>2021-12-24T09:25:15Z</time>
      </trkpt>
      <trkpt lat="46.77106" lon="-1.61751">
        <ele>22.6</ele>
        <time>2021-12-24T09:25:17Z</time>
      </trkpt>
      <trkpt lat="46.77098" lon="-1.6175">
        <ele>22.6</ele>
        <time>2021-12-24T09:25:19Z</time>
      </trkpt>
      <trkpt lat="46.7709" lon="-1.61749">
        <ele>22.6</ele>
        <time>2021-12-24T09:25:21Z</time>
      </trkpt>
      <trkpt lat="46.77082" lon="-1.61749">
        <ele>22.8</ele>
        <time>2021-12-24T09:25:23Z</time>
      </trkpt>
      <trkpt lat="46.77074" lon="-1.61748">
        <ele>23</ele>
        <time>2021-12-24T09:25:25Z</time>
      </trkpt>
      <trkpt lat="46.77066" lon="-1.61747">
        <ele>23</ele>
        <time>2021-12-24T09:25:27Z</time>
      </trkpt>
      <trkpt lat="46.77058" lon="-1.61746">
        <ele>23.2</ele>
        <time>2021-12-24T09:25:29Z</time>
      </trkpt>
      <trkpt lat="46.7705" lon="-1.61744">
        <ele>23.4</ele>
        <time>2021-12-24T09:25:31Z</time>
      </trkpt>
      <trkpt lat="46.77042" lon="-1.61743">
        <ele>23.6</ele>
        <time>2021-12-24T09:25:33Z</time>
      </trkpt>
      <trkpt lat="46.77034" lon="-1.61742">
        <ele>24</ele>
        <time>2021-12-24T09:25:35Z</time>
      </trkpt>
      <trkpt lat="46.77026" lon="-1.61741">
        <ele>24.2</ele>
        <time>2021-12-24T09:25:37Z</time>
      </trkpt>
      <trkpt lat="46.77018" lon="-1.6174">
        <ele>24.4</ele>
        <time>2021-12-24T09:25:39Z</time>
      </trkpt>
      <trkpt lat="46.7701" lon="-1.61739">
        <ele>24.8</ele>
        <time>2021-12-24T09:25:41Z</time>
      </trkpt>
      <trkpt lat="46.77003" lon="-1.61738">
        <ele>25</ele>
        <time>2021-12-24T09:25:43Z</time>
      </trkpt>
      <trkpt lat="46.76995" lon="-1.61737">
        <ele>25.2</ele>
        <time>2021-12-24T09:25:45Z</time>
      </trkpt>
      <trkpt lat="46.76987" lon="-1.61735">
        <ele>25.4</ele>
        <time>2021-12-24T09:25:47Z</time>
      </trkpt>
      <trkpt lat="46.7698" lon="-1.61734">
        <ele>25.6</ele>
        <time>2021-12-24T09:25:49Z</time>
      </trkpt>
      <trkpt lat="46.76972" lon="-1.61733">
        <ele>26</ele>
        <time>2021-12-24T09:25:51Z</time>
      </trkpt>
      <trkpt lat="46.76965" lon="-1.61732">
        <ele>26.2</ele>
        <time>2021-12-24T09:25:53Z</time>
      </trkpt>
      <trkpt lat="46.76957" lon="-1.61731">
        <ele>26.4</ele>
        <time>2021-12-24T09:25:55Z</time>
      </trkpt>
      <trkpt lat="46.76953" lon="-1.6173">
        <ele>26.6</ele>
        <time>2021-12-24T09:25:56Z</time>
      </trkpt>
      <trkpt lat="46.76949" lon="-1.6173">
        <ele>26.6</ele>
        <time>2021-12-24T09:25:57Z</time>
      </trkpt>
      <trkpt lat="46.76942" lon="-1.61729">
        <ele>26.8</ele>
        <time>2021-12-24T09:25:59Z</time>
      </trkpt>
      <trkpt lat="46.76934" lon="-1.61728">
        <ele>27</ele>
        <time>2021-12-24T09:26:01Z</time>
      </trkpt>
      <trkpt lat="46.76926" lon="-1.61727">
        <ele>27.4</ele>
        <time>2021-12-24T09:26:03Z</time>
      </trkpt>
      <trkpt lat="46.76918" lon="-1.61726">
        <ele>27.6</ele>
        <time>2021-12-24T09:26:05Z</time>
      </trkpt>
      <trkpt lat="46.76911" lon="-1.61725">
        <ele>28</ele>
        <time>2021-12-24T09:26:07Z</time>
      </trkpt>
      <trkpt lat="46.76903" lon="-1.61724">
        <ele>28.2</ele>
        <time>2021-12-24T09:26:09Z</time>
      </trkpt>
      <trkpt lat="46.76895" lon="-1.61722">
        <ele>28.6</ele>
        <time>2021-12-24T09:26:11Z</time>
      </trkpt>
      <trkpt lat="46.76887" lon="-1.61721">
        <ele>28.8</ele>
        <time>2021-12-24T09:26:13Z</time>
      </trkpt>
      <trkpt lat="46.76879" lon="-1.6172">
        <ele>29</ele>
        <time>2021-12-24T09:26:15Z</time>
      </trkpt>
      <trkpt lat="46.76872" lon="-1.61719">
        <ele>29.4</ele>
        <time>2021-12-24T09:26:17Z</time>
      </trkpt>
      <trkpt lat="46.76864" lon="-1.61718">
        <ele>29.6</ele>
        <time>2021-12-24T09:26:19Z</time>
      </trkpt>
      <trkpt lat="46.76857" lon="-1.61717">
        <ele>29.8</ele>
        <time>2021-12-24T09:26:21Z</time>
      </trkpt>
      <trkpt lat="46.76849" lon="-1.61716">
        <ele>30.2</ele>
        <time>2021-12-24T09:26:23Z</time>
      </trkpt>
      <trkpt lat="46.76841" lon="-1.61715">
        <ele>30.4</ele>
        <time>2021-12-24T09:26:25Z</time>
      </trkpt>
      <trkpt lat="46.76834" lon="-1.61715">
        <ele>30.6</ele>
        <time>2021-12-24T09:26:27Z</time>
      </trkpt>
      <trkpt lat="46.76826" lon="-1.61713">
        <ele>31</ele>
        <time>2021-12-24T09:26:29Z</time>
      </trkpt>
      <trkpt lat="46.76819" lon="-1.61712">
        <ele>31.2</ele>
        <time>2021-12-24T09:26:31Z</time>
      </trkpt>
      <trkpt lat="46.76812" lon="-1.61711">
        <ele>31.4</ele>
        <time>2021-12-24T09:26:33Z</time>
      </trkpt>
      <trkpt lat="46.76804" lon="-1.6171">
        <ele>31.8</ele>
        <time>2021-12-24T09:26:35Z</time>
      </trkpt>
      <trkpt lat="46.768" lon="-1.6171">
        <ele>31.8</ele>
        <time>2021-12-24T09:26:36Z</time>
      </trkpt>
      <trkpt lat="46.76797" lon="-1.61709">
        <ele>32</ele>
        <time>2021-12-24T09:26:37Z</time>
      </trkpt>
      <trkpt lat="46.76789" lon="-1.61708">
        <ele>32.2</ele>
        <time>2021-12-24T09:26:39Z</time>
      </trkpt>
      <trkpt lat="46.76781" lon="-1.61707">
        <ele>32.4</ele>
        <time>2021-12-24T09:26:41Z</time>
      </trkpt>
      <trkpt lat="46.76773" lon="-1.61706">
        <ele>32.6</ele>
        <time>2021-12-24T09:26:43Z</time>
      </trkpt>
      <trkpt lat="46.76765" lon="-1.61705">
        <ele>33</ele>
        <time>2021-12-24T09:26:45Z</time>
      </trkpt>
      <trkpt lat="46.76757" lon="-1.61704">
        <ele>33.2</ele>
        <time>2021-12-24T09:26:47Z</time>
      </trkpt>
      <trkpt lat="46.76749" lon="-1.61703">
        <ele>33.4</ele>
        <time>2021-12-24T09:26:49Z</time>
      </trkpt>
      <trkpt lat="46.7674" lon="-1.61702">
        <ele>33.6</ele>
        <time>2021-12-24T09:26:51Z</time>
      </trkpt>
      <trkpt lat="46.76732" lon="-1.61702">
        <ele>33.8</ele>
        <time>2021-12-24T09:26:53Z</time>
      </trkpt>
      <trkpt lat="46.76723" lon="-1.61701">
        <ele>34.2</ele>
        <time>2021-12-24T09:26:55Z</time>
      </trkpt>
      <trkpt lat="46.76714" lon="-1.617">
        <ele>34.4</ele>
        <time>2021-12-24T09:26:57Z</time>
      </trkpt>
      <trkpt lat="46.76705" lon="-1.617">
        <ele>34.8</ele>
        <time>2021-12-24T09:26:59Z</time>
      </trkpt>
      <trkpt lat="46.76696" lon="-1.617">
        <ele>35</ele>
        <time>2021-12-24T09:27:01Z</time>
      </trkpt>
      <trkpt lat="46.76688" lon="-1.617">
        <ele>35.2</ele>
        <time>2021-12-24T09:27:03Z</time>
      </trkpt>
      <trkpt lat="46.76679" lon="-1.617">
        <ele>35.6</ele>
        <time>2021-12-24T09:27:05Z</time>
      </trkpt>
      <trkpt lat="46.7667" lon="-1.61701">
        <ele>35.8</ele>
        <time>2021-12-24T09:27:07Z</time>
      </trkpt>
      <trkpt lat="46.7666" lon="-1.61702">
        <ele>36</ele>
        <time>2021-12-24T09:27:09Z</time>
      </trkpt>
      <trkpt lat="46.76651" lon="-1.61703">
        <ele>36.2</ele>
        <time>2021-12-24T09:27:11Z</time>
      </trkpt>
      <trkpt lat="46.76641" lon="-1.61703">
        <ele>36.4</ele>
        <time>2021-12-24T09:27:13Z</time>
      </trkpt>
      <trkpt lat="46.76631" lon="-1.61704">
        <ele>36.6</ele>
        <time>2021-12-24T09:27:15Z</time>
      </trkpt>
      <trkpt lat="46.76626" lon="-1.61704">
        <ele>36.8</ele>
        <time>2021-12-24T09:27:16Z</time>
      </trkpt>
      <trkpt lat="46.76621" lon="-1.61704">
        <ele>36.8</ele>
        <time>2021-12-24T09:27:17Z</time>
      </trkpt>
      <trkpt lat="46.76616" lon="-1.61705">
        <ele>37</ele>
        <time>2021-12-24T09:27:18Z</time>
      </trkpt>
      <trkpt lat="46.76612" lon="-1.61705">
        <ele>37</ele>
        <time>2021-12-24T09:27:19Z</time>
      </trkpt>
      <trkpt lat="46.76601" lon="-1.61706">
        <ele>37.2</ele>
        <time>2021-12-24T09:27:21Z</time>
      </trkpt>
      <trkpt lat="46.7659" lon="-1.61707">
        <ele>37.4</ele>
        <time>2021-12-24T09:27:23Z</time>
      </trkpt>
      <trkpt lat="46.7658" lon="-1.61708">
        <ele>37.6</ele>
        <time>2021-12-24T09:27:25Z</time>
      </trkpt>
      <trkpt lat="46.76569" lon="-1.61709">
        <ele>37.8</ele>
        <time>2021-12-24T09:27:27Z</time>
      </trkpt>
      <trkpt lat="46.76563" lon="-1.61709">
        <ele>37.8</ele>
        <time>2021-12-24T09:27:28Z</time>
      </trkpt>
      <trkpt lat="46.76557" lon="-1.6171">
        <ele>37.8</ele>
        <time>2021-12-24T09:27:29Z</time>
      </trkpt>
      <trkpt lat="46.76546" lon="-1.61711">
        <ele>38</ele>
        <time>2021-12-24T09:27:31Z</time>
      </trkpt>
      <trkpt lat="46.76534" lon="-1.61713">
        <ele>38.2</ele>
        <time>2021-12-24T09:27:33Z</time>
      </trkpt>
      <trkpt lat="46.76522" lon="-1.61716">
        <ele>38.4</ele>
        <time>2021-12-24T09:27:35Z</time>
      </trkpt>
      <trkpt lat="46.76515" lon="-1.61717">
        <ele>38.4</ele>
        <time>2021-12-24T09:27:36Z</time>
      </trkpt>
      <trkpt lat="46.76509" lon="-1.61719">
        <ele>38.4</ele>
        <time>2021-12-24T09:27:37Z</time>
      </trkpt>
      <trkpt lat="46.76497" lon="-1.61722">
        <ele>38.6</ele>
        <time>2021-12-24T09:27:39Z</time>
      </trkpt>
      <trkpt lat="46.76484" lon="-1.61726">
        <ele>38.6</ele>
        <time>2021-12-24T09:27:41Z</time>
      </trkpt>
      <trkpt lat="46.76471" lon="-1.61729">
        <ele>38.8</ele>
        <time>2021-12-24T09:27:43Z</time>
      </trkpt>
      <trkpt lat="46.76458" lon="-1.61732">
        <ele>38.8</ele>
        <time>2021-12-24T09:27:45Z</time>
      </trkpt>
      <trkpt lat="46.76446" lon="-1.61735">
        <ele>39</ele>
        <time>2021-12-24T09:27:47Z</time>
      </trkpt>
      <trkpt lat="46.76433" lon="-1.6174">
        <ele>39</ele>
        <time>2021-12-24T09:27:49Z</time>
      </trkpt>
      <trkpt lat="46.76422" lon="-1.61746">
        <ele>39</ele>
        <time>2021-12-24T09:27:51Z</time>
      </trkpt>
      <trkpt lat="46.76416" lon="-1.61748">
        <ele>39</ele>
        <time>2021-12-24T09:27:52Z</time>
      </trkpt>
      <trkpt lat="46.76411" lon="-1.61746">
        <ele>39</ele>
        <time>2021-12-24T09:27:53Z</time>
      </trkpt>
      <trkpt lat="46.76408" lon="-1.61742">
        <ele>39</ele>
        <time>2021-12-24T09:27:54Z</time>
      </trkpt>
      <trkpt lat="46.76407" lon="-1.61736">
        <ele>39</ele>
        <time>2021-12-24T09:27:55Z</time>
      </trkpt>
      <trkpt lat="46.76405" lon="-1.6172">
        <ele>39</ele>
        <time>2021-12-24T09:27:57Z</time>
      </trkpt>
      <trkpt lat="46.76403" lon="-1.61701">
        <ele>39</ele>
        <time>2021-12-24T09:27:59Z</time>
      </trkpt>
      <trkpt lat="46.76403" lon="-1.61682">
        <ele>38.8</ele>
        <time>2021-12-24T09:28:01Z</time>
      </trkpt>
      <trkpt lat="46.76403" lon="-1.61664">
        <ele>39</ele>
        <time>2021-12-24T09:28:03Z</time>
      </trkpt>
      <trkpt lat="46.76402" lon="-1.61645">
        <ele>38.2</ele>
        <time>2021-12-24T09:28:05Z</time>
      </trkpt>
      <trkpt lat="46.764" lon="-1.61636">
        <ele>38.6</ele>
        <time>2021-12-24T09:28:06Z</time>
      </trkpt>
      <trkpt lat="46.76398" lon="-1.61627">
        <ele>38.4</ele>
        <time>2021-12-24T09:28:07Z</time>
      </trkpt>
      <trkpt lat="46.76396" lon="-1.61619">
        <ele>38.4</ele>
        <time>2021-12-24T09:28:08Z</time>
      </trkpt>
      <trkpt lat="46.76393" lon="-1.61612">
        <ele>38.4</ele>
        <time>2021-12-24T09:28:09Z</time>
      </trkpt>
      <trkpt lat="46.76386" lon="-1.61598">
        <ele>38.2</ele>
        <time>2021-12-24T09:28:11Z</time>
      </trkpt>
      <trkpt lat="46.76379" lon="-1.61585">
        <ele>38.2</ele>
        <time>2021-12-24T09:28:13Z</time>
      </trkpt>
      <trkpt lat="46.76371" lon="-1.61573">
        <ele>38.2</ele>
        <time>2021-12-24T09:28:15Z</time>
      </trkpt>
      <trkpt lat="46.76367" lon="-1.61567">
        <ele>38</ele>
        <time>2021-12-24T09:28:16Z</time>
      </trkpt>
      <trkpt lat="46.76363" lon="-1.61562">
        <ele>38</ele>
        <time>2021-12-24T09:28:17Z</time>
      </trkpt>
      <trkpt lat="46.76355" lon="-1.61551">
        <ele>38</ele>
        <time>2021-12-24T09:28:19Z</time>
      </trkpt>
      <trkpt lat="46.76347" lon="-1.6154">
        <ele>37.8</ele>
        <time>2021-12-24T09:28:21Z</time>
      </trkpt>
      <trkpt lat="46.76342" lon="-1.61534">
        <ele>37.8</ele>
        <time>2021-12-24T09:28:22Z</time>
      </trkpt>
      <trkpt lat="46.76338" lon="-1.61529">
        <ele>37.6</ele>
        <time>2021-12-24T09:28:23Z</time>
      </trkpt>
      <trkpt lat="46.7633" lon="-1.61519">
        <ele>37.4</ele>
        <time>2021-12-24T09:28:25Z</time>
      </trkpt>
      <trkpt lat="46.76321" lon="-1.61508">
        <ele>37.2</ele>
        <time>2021-12-24T09:28:27Z</time>
      </trkpt>
      <trkpt lat="46.76313" lon="-1.61497">
        <ele>37</ele>
        <time>2021-12-24T09:28:29Z</time>
      </trkpt>
      <trkpt lat="46.76305" lon="-1.61487">
        <ele>36.6</ele>
        <time>2021-12-24T09:28:31Z</time>
      </trkpt>
      <trkpt lat="46.76297" lon="-1.61477">
        <ele>36.4</ele>
        <time>2021-12-24T09:28:33Z</time>
      </trkpt>
      <trkpt lat="46.7629" lon="-1.61466">
        <ele>36.2</ele>
        <time>2021-12-24T09:28:35Z</time>
      </trkpt>
      <trkpt lat="46.76286" lon="-1.61461">
        <ele>36.2</ele>
        <time>2021-12-24T09:28:36Z</time>
      </trkpt>
      <trkpt lat="46.76282" lon="-1.61455">
        <ele>36.2</ele>
        <time>2021-12-24T09:28:37Z</time>
      </trkpt>
      <trkpt lat="46.76274" lon="-1.61443">
        <ele>36</ele>
        <time>2021-12-24T09:28:39Z</time>
      </trkpt>
      <trkpt lat="46.76266" lon="-1.61432">
        <ele>35.8</ele>
        <time>2021-12-24T09:28:41Z</time>
      </trkpt>
      <trkpt lat="46.76257" lon="-1.61421">
        <ele>35.8</ele>
        <time>2021-12-24T09:28:43Z</time>
      </trkpt>
      <trkpt lat="46.76248" lon="-1.61409">
        <ele>35.8</ele>
        <time>2021-12-24T09:28:45Z</time>
      </trkpt>
      <trkpt lat="46.7624" lon="-1.61398">
        <ele>35.6</ele>
        <time>2021-12-24T09:28:47Z</time>
      </trkpt>
      <trkpt lat="46.76233" lon="-1.61385">
        <ele>35.6</ele>
        <time>2021-12-24T09:28:49Z</time>
      </trkpt>
      <trkpt lat="46.7623" lon="-1.61378">
        <ele>35.6</ele>
        <time>2021-12-24T09:28:50Z</time>
      </trkpt>
      <trkpt lat="46.76227" lon="-1.61372">
        <ele>35.4</ele>
        <time>2021-12-24T09:28:51Z</time>
      </trkpt>
      <trkpt lat="46.76221" lon="-1.61358">
        <ele>35.6</ele>
        <time>2021-12-24T09:28:53Z</time>
      </trkpt>
      <trkpt lat="46.76218" lon="-1.61351">
        <ele>35.6</ele>
        <time>2021-12-24T09:28:54Z</time>
      </trkpt>
      <trkpt lat="46.76216" lon="-1.61344">
        <ele>35.6</ele>
        <time>2021-12-24T09:28:55Z</time>
      </trkpt>
      <trkpt lat="46.76214" lon="-1.61336">
        <ele>35.6</ele>
        <time>2021-12-24T09:28:56Z</time>
      </trkpt>
      <trkpt lat="46.76213" lon="-1.61329">
        <ele>35.6</ele>
        <time>2021-12-24T09:28:57Z</time>
      </trkpt>
      <trkpt lat="46.76211" lon="-1.61321">
        <ele>35.6</ele>
        <time>2021-12-24T09:28:58Z</time>
      </trkpt>
      <trkpt lat="46.7621" lon="-1.61314">
        <ele>35.8</ele>
        <time>2021-12-24T09:28:59Z</time>
      </trkpt>
      <trkpt lat="46.76209" lon="-1.61298">
        <ele>35.2</ele>
        <time>2021-12-24T09:29:01Z</time>
      </trkpt>
      <trkpt lat="46.76209" lon="-1.61291">
        <ele>35.6</ele>
        <time>2021-12-24T09:29:02Z</time>
      </trkpt>
      <trkpt lat="46.76208" lon="-1.61283">
        <ele>36</ele>
        <time>2021-12-24T09:29:03Z</time>
      </trkpt>
      <trkpt lat="46.76208" lon="-1.61269">
        <ele>36.6</ele>
        <time>2021-12-24T09:29:05Z</time>
      </trkpt>
      <trkpt lat="46.76209" lon="-1.61256">
        <ele>36</ele>
        <time>2021-12-24T09:29:07Z</time>
      </trkpt>
      <trkpt lat="46.76209" lon="-1.61249">
        <ele>36.2</ele>
        <time>2021-12-24T09:29:08Z</time>
      </trkpt>
      <trkpt lat="46.76209" lon="-1.61242">
        <ele>36.2</ele>
        <time>2021-12-24T09:29:09Z</time>
      </trkpt>
      <trkpt lat="46.7621" lon="-1.61228">
        <ele>36.2</ele>
        <time>2021-12-24T09:29:11Z</time>
      </trkpt>
      <trkpt lat="46.7621" lon="-1.61213">
        <ele>36.4</ele>
        <time>2021-12-24T09:29:13Z</time>
      </trkpt>
      <trkpt lat="46.76211" lon="-1.61197">
        <ele>36.4</ele>
        <time>2021-12-24T09:29:15Z</time>
      </trkpt>
      <trkpt lat="46.76212" lon="-1.61182">
        <ele>36.6</ele>
        <time>2021-12-24T09:29:17Z</time>
      </trkpt>
      <trkpt lat="46.76213" lon="-1.61166">
        <ele>36.8</ele>
        <time>2021-12-24T09:29:19Z</time>
      </trkpt>
      <trkpt lat="46.76214" lon="-1.61151">
        <ele>36.8</ele>
        <time>2021-12-24T09:29:21Z</time>
      </trkpt>
      <trkpt lat="46.76214" lon="-1.61143">
        <ele>37</ele>
        <time>2021-12-24T09:29:22Z</time>
      </trkpt>
      <trkpt lat="46.76214" lon="-1.61136">
        <ele>37</ele>
        <time>2021-12-24T09:29:23Z</time>
      </trkpt>
      <trkpt lat="46.76215" lon="-1.61121">
        <ele>37.2</ele>
        <time>2021-12-24T09:29:25Z</time>
      </trkpt>
      <trkpt lat="46.76216" lon="-1.61105">
        <ele>37.4</ele>
        <time>2021-12-24T09:29:27Z</time>
      </trkpt>
      <trkpt lat="46.76216" lon="-1.61088">
        <ele>37.6</ele>
        <time>2021-12-24T09:29:29Z</time>
      </trkpt>
      <trkpt lat="46.76217" lon="-1.61071">
        <ele>37.8</ele>
        <time>2021-12-24T09:29:31Z</time>
      </trkpt>
      <trkpt lat="46.76218" lon="-1.61053">
        <ele>37.8</ele>
        <time>2021-12-24T09:29:33Z</time>
      </trkpt>
      <trkpt lat="46.76219" lon="-1.61036">
        <ele>38</ele>
        <time>2021-12-24T09:29:35Z</time>
      </trkpt>
      <trkpt lat="46.7622" lon="-1.61018">
        <ele>38</ele>
        <time>2021-12-24T09:29:37Z</time>
      </trkpt>
      <trkpt lat="46.76221" lon="-1.61001">
        <ele>38.2</ele>
        <time>2021-12-24T09:29:39Z</time>
      </trkpt>
      <trkpt lat="46.76222" lon="-1.60984">
        <ele>38.2</ele>
        <time>2021-12-24T09:29:41Z</time>
      </trkpt>
      <trkpt lat="46.76221" lon="-1.60966">
        <ele>38.4</ele>
        <time>2021-12-24T09:29:43Z</time>
      </trkpt>
      <trkpt lat="46.76212" lon="-1.60956">
        <ele>38.6</ele>
        <time>2021-12-24T09:29:45Z</time>
      </trkpt>
      <trkpt lat="46.762" lon="-1.60954">
        <ele>38.6</ele>
        <time>2021-12-24T09:29:47Z</time>
      </trkpt>
      <trkpt lat="46.76188" lon="-1.60953">
        <ele>38.6</ele>
        <time>2021-12-24T09:29:49Z</time>
      </trkpt>
      <trkpt lat="46.76176" lon="-1.60951">
        <ele>38.8</ele>
        <time>2021-12-24T09:29:51Z</time>
      </trkpt>
      <trkpt lat="46.76164" lon="-1.6095">
        <ele>38.8</ele>
        <time>2021-12-24T09:29:53Z</time>
      </trkpt>
      <trkpt lat="46.76153" lon="-1.60947">
        <ele>39</ele>
        <time>2021-12-24T09:29:55Z</time>
      </trkpt>
      <trkpt lat="46.76148" lon="-1.60945">
        <ele>39</ele>
        <time>2021-12-24T09:29:56Z</time>
      </trkpt>
      <trkpt lat="46.76142" lon="-1.60942">
        <ele>39.2</ele>
        <time>2021-12-24T09:29:57Z</time>
      </trkpt>
      <trkpt lat="46.76137" lon="-1.60938">
        <ele>39.2</ele>
        <time>2021-12-24T09:29:58Z</time>
      </trkpt>
      <trkpt lat="46.76132" lon="-1.60934">
        <ele>39.4</ele>
        <time>2021-12-24T09:29:59Z</time>
      </trkpt>
      <trkpt lat="46.76123" lon="-1.60926">
        <ele>39.4</ele>
        <time>2021-12-24T09:30:01Z</time>
      </trkpt>
      <trkpt lat="46.76115" lon="-1.60917">
        <ele>39.6</ele>
        <time>2021-12-24T09:30:03Z</time>
      </trkpt>
      <trkpt lat="46.76109" lon="-1.60911">
        <ele>39.6</ele>
        <time>2021-12-24T09:30:05Z</time>
      </trkpt>
      <trkpt lat="46.76104" lon="-1.60906">
        <ele>39.6</ele>
        <time>2021-12-24T09:30:07Z</time>
      </trkpt>
      <trkpt lat="46.76101" lon="-1.60905">
        <ele>39.6</ele>
        <time>2021-12-24T09:30:08Z</time>
      </trkpt>
      <trkpt lat="46.76097" lon="-1.60905">
        <ele>39.8</ele>
        <time>2021-12-24T09:30:09Z</time>
      </trkpt>
      <trkpt lat="46.7609" lon="-1.60909">
        <ele>39.8</ele>
        <time>2021-12-24T09:30:11Z</time>
      </trkpt>
      <trkpt lat="46.76083" lon="-1.60913">
        <ele>40</ele>
        <time>2021-12-24T09:30:13Z</time>
      </trkpt>
      <trkpt lat="46.76077" lon="-1.60916">
        <ele>40</ele>
        <time>2021-12-24T09:30:15Z</time>
      </trkpt>
      <trkpt lat="46.7607" lon="-1.6092">
        <ele>40</ele>
        <time>2021-12-24T09:30:17Z</time>
      </trkpt>
      <trkpt lat="46.76064" lon="-1.60924">
        <ele>40</ele>
        <time>2021-12-24T09:30:19Z</time>
      </trkpt>
      <trkpt lat="46.76057" lon="-1.60928">
        <ele>40</ele>
        <time>2021-12-24T09:30:21Z</time>
      </trkpt>
      <trkpt lat="46.76054" lon="-1.6093">
        <ele>40</ele>
        <time>2021-12-24T09:30:22Z</time>
      </trkpt>
      <trkpt lat="46.76051" lon="-1.60932">
        <ele>40</ele>
        <time>2021-12-24T09:30:23Z</time>
      </trkpt>
      <trkpt lat="46.76045" lon="-1.60936">
        <ele>40</ele>
        <time>2021-12-24T09:30:25Z</time>
      </trkpt>
      <trkpt lat="46.76038" lon="-1.60938">
        <ele>40</ele>
        <time>2021-12-24T09:30:27Z</time>
      </trkpt>
      <trkpt lat="46.76031" lon="-1.60941">
        <ele>40.2</ele>
        <time>2021-12-24T09:30:29Z</time>
      </trkpt>
      <trkpt lat="46.76024" lon="-1.60944">
        <ele>40.4</ele>
        <time>2021-12-24T09:30:31Z</time>
      </trkpt>
      <trkpt lat="46.76017" lon="-1.60946">
        <ele>40.8</ele>
        <time>2021-12-24T09:30:33Z</time>
      </trkpt>
      <trkpt lat="46.76014" lon="-1.60946">
        <ele>40.8</ele>
        <time>2021-12-24T09:30:34Z</time>
      </trkpt>
      <trkpt lat="46.76011" lon="-1.60946">
        <ele>40.8</ele>
        <time>2021-12-24T09:30:35Z</time>
      </trkpt>
      <trkpt lat="46.76004" lon="-1.60947">
        <ele>41.2</ele>
        <time>2021-12-24T09:30:37Z</time>
      </trkpt>
      <trkpt lat="46.75996" lon="-1.60946">
        <ele>41.4</ele>
        <time>2021-12-24T09:30:39Z</time>
      </trkpt>
      <trkpt lat="46.75989" lon="-1.60946">
        <ele>41.4</ele>
        <time>2021-12-24T09:30:41Z</time>
      </trkpt>
      <trkpt lat="46.75982" lon="-1.60944">
        <ele>41.6</ele>
        <time>2021-12-24T09:30:43Z</time>
      </trkpt>
      <trkpt lat="46.75976" lon="-1.60942">
        <ele>41.8</ele>
        <time>2021-12-24T09:30:45Z</time>
      </trkpt>
      <trkpt lat="46.75969" lon="-1.60939">
        <ele>42</ele>
        <time>2021-12-24T09:30:47Z</time>
      </trkpt>
      <trkpt lat="46.75963" lon="-1.60938">
        <ele>42</ele>
        <time>2021-12-24T09:30:49Z</time>
      </trkpt>
      <trkpt lat="46.75955" lon="-1.60935">
        <ele>42.2</ele>
        <time>2021-12-24T09:30:51Z</time>
      </trkpt>
      <trkpt lat="46.75948" lon="-1.60933">
        <ele>42.4</ele>
        <time>2021-12-24T09:30:53Z</time>
      </trkpt>
      <trkpt lat="46.7594" lon="-1.6093">
        <ele>42.6</ele>
        <time>2021-12-24T09:30:55Z</time>
      </trkpt>
      <trkpt lat="46.75933" lon="-1.60927">
        <ele>42.6</ele>
        <time>2021-12-24T09:30:57Z</time>
      </trkpt>
      <trkpt lat="46.7593" lon="-1.60925">
        <ele>42.8</ele>
        <time>2021-12-24T09:30:58Z</time>
      </trkpt>
      <trkpt lat="46.75926" lon="-1.60924">
        <ele>43</ele>
        <time>2021-12-24T09:30:59Z</time>
      </trkpt>
      <trkpt lat="46.75918" lon="-1.60921">
        <ele>43.2</ele>
        <time>2021-12-24T09:31:01Z</time>
      </trkpt>
      <trkpt lat="46.75911" lon="-1.60918">
        <ele>43.4</ele>
        <time>2021-12-24T09:31:03Z</time>
      </trkpt>
      <trkpt lat="46.75903" lon="-1.60915">
        <ele>43.8</ele>
        <time>2021-12-24T09:31:05Z</time>
      </trkpt>
      <trkpt lat="46.759" lon="-1.60913">
        <ele>44</ele>
        <time>2021-12-24T09:31:06Z</time>
      </trkpt>
      <trkpt lat="46.75896" lon="-1.60912">
        <ele>44</ele>
        <time>2021-12-24T09:31:07Z</time>
      </trkpt>
      <trkpt lat="46.75888" lon="-1.6091">
        <ele>44.4</ele>
        <time>2021-12-24T09:31:09Z</time>
      </trkpt>
      <trkpt lat="46.75881" lon="-1.60908">
        <ele>44.8</ele>
        <time>2021-12-24T09:31:11Z</time>
      </trkpt>
      <trkpt lat="46.75874" lon="-1.60906">
        <ele>45</ele>
        <time>2021-12-24T09:31:13Z</time>
      </trkpt>
      <trkpt lat="46.75866" lon="-1.60905">
        <ele>45.4</ele>
        <time>2021-12-24T09:31:15Z</time>
      </trkpt>
      <trkpt lat="46.75859" lon="-1.60902">
        <ele>45.6</ele>
        <time>2021-12-24T09:31:17Z</time>
      </trkpt>
      <trkpt lat="46.75852" lon="-1.609">
        <ele>45.8</ele>
        <time>2021-12-24T09:31:19Z</time>
      </trkpt>
      <trkpt lat="46.75848" lon="-1.609">
        <ele>46</ele>
        <time>2021-12-24T09:31:20Z</time>
      </trkpt>
      <trkpt lat="46.75844" lon="-1.60899">
        <ele>46.2</ele>
        <time>2021-12-24T09:31:21Z</time>
      </trkpt>
      <trkpt lat="46.75837" lon="-1.60896">
        <ele>46.4</ele>
        <time>2021-12-24T09:31:23Z</time>
      </trkpt>
      <trkpt lat="46.7583" lon="-1.60893">
        <ele>46.8</ele>
        <time>2021-12-24T09:31:25Z</time>
      </trkpt>
      <trkpt lat="46.75822" lon="-1.60889">
        <ele>47</ele>
        <time>2021-12-24T09:31:27Z</time>
      </trkpt>
      <trkpt lat="46.75814" lon="-1.60886">
        <ele>47.2</ele>
        <time>2021-12-24T09:31:29Z</time>
      </trkpt>
      <trkpt lat="46.75806" lon="-1.60884">
        <ele>47.4</ele>
        <time>2021-12-24T09:31:31Z</time>
      </trkpt>
      <trkpt lat="46.75798" lon="-1.60881">
        <ele>47.8</ele>
        <time>2021-12-24T09:31:33Z</time>
      </trkpt>
      <trkpt lat="46.75791" lon="-1.60878">
        <ele>48</ele>
        <time>2021-12-24T09:31:35Z</time>
      </trkpt>
      <trkpt lat="46.75783" lon="-1.60876">
        <ele>48.2</ele>
        <time>2021-12-24T09:31:37Z</time>
      </trkpt>
      <trkpt lat="46.75775" lon="-1.60873">
        <ele>48.4</ele>
        <time>2021-12-24T09:31:39Z</time>
      </trkpt>
      <trkpt lat="46.75766" lon="-1.6087">
        <ele>48.6</ele>
        <time>2021-12-24T09:31:41Z</time>
      </trkpt>
      <trkpt lat="46.75757" lon="-1.60868">
        <ele>48.8</ele>
        <time>2021-12-24T09:31:43Z</time>
      </trkpt>
      <trkpt lat="46.75753" lon="-1.60866">
        <ele>48.8</ele>
        <time>2021-12-24T09:31:44Z</time>
      </trkpt>
      <trkpt lat="46.75748" lon="-1.60865">
        <ele>48.8</ele>
        <time>2021-12-24T09:31:45Z</time>
      </trkpt>
      <trkpt lat="46.75739" lon="-1.60862">
        <ele>49</ele>
        <time>2021-12-24T09:31:47Z</time>
      </trkpt>
      <trkpt lat="46.75729" lon="-1.6086">
        <ele>49.2</ele>
        <time>2021-12-24T09:31:49Z</time>
      </trkpt>
      <trkpt lat="46.75718" lon="-1.60857">
        <ele>49.2</ele>
        <time>2021-12-24T09:31:51Z</time>
      </trkpt>
      <trkpt lat="46.75708" lon="-1.60855">
        <ele>49.4</ele>
        <time>2021-12-24T09:31:53Z</time>
      </trkpt>
      <trkpt lat="46.75698" lon="-1.60853">
        <ele>49.6</ele>
        <time>2021-12-24T09:31:55Z</time>
      </trkpt>
      <trkpt lat="46.75687" lon="-1.6085">
        <ele>49.6</ele>
        <time>2021-12-24T09:31:57Z</time>
      </trkpt>
      <trkpt lat="46.75675" lon="-1.60848">
        <ele>49.6</ele>
        <time>2021-12-24T09:31:59Z</time>
      </trkpt>
      <trkpt lat="46.75663" lon="-1.60847">
        <ele>49.8</ele>
        <time>2021-12-24T09:32:01Z</time>
      </trkpt>
      <trkpt lat="46.75651" lon="-1.60846">
        <ele>49.8</ele>
        <time>2021-12-24T09:32:03Z</time>
      </trkpt>
      <trkpt lat="46.75639" lon="-1.60845">
        <ele>50</ele>
        <time>2021-12-24T09:32:05Z</time>
      </trkpt>
      <trkpt lat="46.75626" lon="-1.60844">
        <ele>50</ele>
        <time>2021-12-24T09:32:07Z</time>
      </trkpt>
      <trkpt lat="46.75619" lon="-1.60844">
        <ele>50</ele>
        <time>2021-12-24T09:32:08Z</time>
      </trkpt>
      <trkpt lat="46.75612" lon="-1.60844">
        <ele>50.2</ele>
        <time>2021-12-24T09:32:09Z</time>
      </trkpt>
      <trkpt lat="46.75599" lon="-1.60844">
        <ele>50.2</ele>
        <time>2021-12-24T09:32:11Z</time>
      </trkpt>
      <trkpt lat="46.75586" lon="-1.60841">
        <ele>50.2</ele>
        <time>2021-12-24T09:32:13Z</time>
      </trkpt>
      <trkpt lat="46.75574" lon="-1.60836">
        <ele>50.4</ele>
        <time>2021-12-24T09:32:15Z</time>
      </trkpt>
      <trkpt lat="46.75563" lon="-1.60832">
        <ele>50.6</ele>
        <time>2021-12-24T09:32:17Z</time>
      </trkpt>
      <trkpt lat="46.75552" lon="-1.60828">
        <ele>50.6</ele>
        <time>2021-12-24T09:32:19Z</time>
      </trkpt>
      <trkpt lat="46.75542" lon="-1.60823">
        <ele>50.8</ele>
        <time>2021-12-24T09:32:21Z</time>
      </trkpt>
      <trkpt lat="46.75532" lon="-1.60818">
        <ele>50.8</ele>
        <time>2021-12-24T09:32:23Z</time>
      </trkpt>
      <trkpt lat="46.75522" lon="-1.60813">
        <ele>50.8</ele>
        <time>2021-12-24T09:32:25Z</time>
      </trkpt>
      <trkpt lat="46.75513" lon="-1.60809">
        <ele>51</ele>
        <time>2021-12-24T09:32:27Z</time>
      </trkpt>
      <trkpt lat="46.75508" lon="-1.60807">
        <ele>51</ele>
        <time>2021-12-24T09:32:28Z</time>
      </trkpt>
      <trkpt lat="46.75503" lon="-1.60805">
        <ele>51</ele>
        <time>2021-12-24T09:32:29Z</time>
      </trkpt>
      <trkpt lat="46.75494" lon="-1.60803">
        <ele>51</ele>
        <time>2021-12-24T09:32:31Z</time>
      </trkpt>
      <trkpt lat="46.75484" lon="-1.60799">
        <ele>51</ele>
        <time>2021-12-24T09:32:33Z</time>
      </trkpt>
      <trkpt lat="46.75479" lon="-1.60797">
        <ele>51</ele>
        <time>2021-12-24T09:32:34Z</time>
      </trkpt>
      <trkpt lat="46.75474" lon="-1.60796">
        <ele>51.2</ele>
        <time>2021-12-24T09:32:35Z</time>
      </trkpt>
      <trkpt lat="46.75463" lon="-1.60792">
        <ele>51.2</ele>
        <time>2021-12-24T09:32:37Z</time>
      </trkpt>
      <trkpt lat="46.75452" lon="-1.60789">
        <ele>51.4</ele>
        <time>2021-12-24T09:32:39Z</time>
      </trkpt>
      <trkpt lat="46.75442" lon="-1.60786">
        <ele>51.4</ele>
        <time>2021-12-24T09:32:41Z</time>
      </trkpt>
      <trkpt lat="46.75431" lon="-1.60784">
        <ele>51.6</ele>
        <time>2021-12-24T09:32:43Z</time>
      </trkpt>
      <trkpt lat="46.75421" lon="-1.60783">
        <ele>51.6</ele>
        <time>2021-12-24T09:32:45Z</time>
      </trkpt>
      <trkpt lat="46.75411" lon="-1.60782">
        <ele>51.6</ele>
        <time>2021-12-24T09:32:47Z</time>
      </trkpt>
      <trkpt lat="46.75401" lon="-1.60782">
        <ele>51.8</ele>
        <time>2021-12-24T09:32:49Z</time>
      </trkpt>
      <trkpt lat="46.75391" lon="-1.60781">
        <ele>52</ele>
        <time>2021-12-24T09:32:51Z</time>
      </trkpt>
      <trkpt lat="46.7538" lon="-1.60778">
        <ele>52.2</ele>
        <time>2021-12-24T09:32:53Z</time>
      </trkpt>
      <trkpt lat="46.75368" lon="-1.60777">
        <ele>52.6</ele>
        <time>2021-12-24T09:32:55Z</time>
      </trkpt>
      <trkpt lat="46.75362" lon="-1.60777">
        <ele>52.6</ele>
        <time>2021-12-24T09:32:56Z</time>
      </trkpt>
      <trkpt lat="46.75356" lon="-1.60777">
        <ele>52.6</ele>
        <time>2021-12-24T09:32:57Z</time>
      </trkpt>
      <trkpt lat="46.75345" lon="-1.60776">
        <ele>52.6</ele>
        <time>2021-12-24T09:32:59Z</time>
      </trkpt>
      <trkpt lat="46.75334" lon="-1.60775">
        <ele>52.8</ele>
        <time>2021-12-24T09:33:01Z</time>
      </trkpt>
      <trkpt lat="46.75322" lon="-1.60775">
        <ele>52.8</ele>
        <time>2021-12-24T09:33:03Z</time>
      </trkpt>
      <trkpt lat="46.75311" lon="-1.60774">
        <ele>53</ele>
        <time>2021-12-24T09:33:05Z</time>
      </trkpt>
      <trkpt lat="46.75299" lon="-1.60773">
        <ele>53</ele>
        <time>2021-12-24T09:33:07Z</time>
      </trkpt>
      <trkpt lat="46.75287" lon="-1.60771">
        <ele>53.2</ele>
        <time>2021-12-24T09:33:09Z</time>
      </trkpt>
      <trkpt lat="46.75275" lon="-1.6077">
        <ele>53.4</ele>
        <time>2021-12-24T09:33:11Z</time>
      </trkpt>
      <trkpt lat="46.75263" lon="-1.60769">
        <ele>53.6</ele>
        <time>2021-12-24T09:33:13Z</time>
      </trkpt>
      <trkpt lat="46.75257" lon="-1.60769">
        <ele>53.6</ele>
        <time>2021-12-24T09:33:14Z</time>
      </trkpt>
      <trkpt lat="46.75251" lon="-1.60767">
        <ele>53.6</ele>
        <time>2021-12-24T09:33:15Z</time>
      </trkpt>
      <trkpt lat="46.75238" lon="-1.60765">
        <ele>53.6</ele>
        <time>2021-12-24T09:33:17Z</time>
      </trkpt>
      <trkpt lat="46.75226" lon="-1.60763">
        <ele>53.8</ele>
        <time>2021-12-24T09:33:19Z</time>
      </trkpt>
      <trkpt lat="46.75213" lon="-1.60761">
        <ele>53.8</ele>
        <time>2021-12-24T09:33:21Z</time>
      </trkpt>
      <trkpt lat="46.75201" lon="-1.60759">
        <ele>53.8</ele>
        <time>2021-12-24T09:33:23Z</time>
      </trkpt>
      <trkpt lat="46.75189" lon="-1.60756">
        <ele>54</ele>
        <time>2021-12-24T09:33:25Z</time>
      </trkpt>
      <trkpt lat="46.75183" lon="-1.60755">
        <ele>54</ele>
        <time>2021-12-24T09:33:26Z</time>
      </trkpt>
      <trkpt lat="46.75177" lon="-1.60754">
        <ele>54</ele>
        <time>2021-12-24T09:33:27Z</time>
      </trkpt>
      <trkpt lat="46.75165" lon="-1.60752">
        <ele>53.8</ele>
        <time>2021-12-24T09:33:29Z</time>
      </trkpt>
      <trkpt lat="46.75153" lon="-1.6075">
        <ele>53.8</ele>
        <time>2021-12-24T09:33:31Z</time>
      </trkpt>
      <trkpt lat="46.75148" lon="-1.60749">
        <ele>53.8</ele>
        <time>2021-12-24T09:33:32Z</time>
      </trkpt>
      <trkpt lat="46.75143" lon="-1.60747">
        <ele>53.8</ele>
        <time>2021-12-24T09:33:33Z</time>
      </trkpt>
      <trkpt lat="46.75131" lon="-1.60746">
        <ele>53.8</ele>
        <time>2021-12-24T09:33:35Z</time>
      </trkpt>
      <trkpt lat="46.75119" lon="-1.60745">
        <ele>53.8</ele>
        <time>2021-12-24T09:33:37Z</time>
      </trkpt>
      <trkpt lat="46.75107" lon="-1.60744">
        <ele>53.8</ele>
        <time>2021-12-24T09:33:39Z</time>
      </trkpt>
      <trkpt lat="46.75095" lon="-1.60744">
        <ele>53.8</ele>
        <time>2021-12-24T09:33:41Z</time>
      </trkpt>
      <trkpt lat="46.75084" lon="-1.60743">
        <ele>54</ele>
        <time>2021-12-24T09:33:43Z</time>
      </trkpt>
      <trkpt lat="46.75072" lon="-1.60742">
        <ele>54.2</ele>
        <time>2021-12-24T09:33:45Z</time>
      </trkpt>
      <trkpt lat="46.75061" lon="-1.60742">
        <ele>54.2</ele>
        <time>2021-12-24T09:33:47Z</time>
      </trkpt>
      <trkpt lat="46.7505" lon="-1.60741">
        <ele>54.4</ele>
        <time>2021-12-24T09:33:49Z</time>
      </trkpt>
      <trkpt lat="46.75038" lon="-1.60741">
        <ele>54.6</ele>
        <time>2021-12-24T09:33:51Z</time>
      </trkpt>
      <trkpt lat="46.75026" lon="-1.60741">
        <ele>54.8</ele>
        <time>2021-12-24T09:33:53Z</time>
      </trkpt>
      <trkpt lat="46.75015" lon="-1.6074">
        <ele>54.8</ele>
        <time>2021-12-24T09:33:55Z</time>
      </trkpt>
      <trkpt lat="46.75003" lon="-1.60739">
        <ele>54.8</ele>
        <time>2021-12-24T09:33:57Z</time>
      </trkpt>
      <trkpt lat="46.7499" lon="-1.60739">
        <ele>55</ele>
        <time>2021-12-24T09:33:59Z</time>
      </trkpt>
      <trkpt lat="46.74978" lon="-1.60737">
        <ele>55</ele>
        <time>2021-12-24T09:34:01Z</time>
      </trkpt>
      <trkpt lat="46.74966" lon="-1.60735">
        <ele>55</ele>
        <time>2021-12-24T09:34:03Z</time>
      </trkpt>
      <trkpt lat="46.74954" lon="-1.60733">
        <ele>55.2</ele>
        <time>2021-12-24T09:34:05Z</time>
      </trkpt>
      <trkpt lat="46.74942" lon="-1.60731">
        <ele>55.2</ele>
        <time>2021-12-24T09:34:07Z</time>
      </trkpt>
      <trkpt lat="46.74929" lon="-1.60729">
        <ele>55.2</ele>
        <time>2021-12-24T09:34:09Z</time>
      </trkpt>
      <trkpt lat="46.74917" lon="-1.60727">
        <ele>55.2</ele>
        <time>2021-12-24T09:34:11Z</time>
      </trkpt>
      <trkpt lat="46.74906" lon="-1.60725">
        <ele>55.4</ele>
        <time>2021-12-24T09:34:13Z</time>
      </trkpt>
      <trkpt lat="46.74894" lon="-1.60723">
        <ele>55.4</ele>
        <time>2021-12-24T09:34:15Z</time>
      </trkpt>
      <trkpt lat="46.74882" lon="-1.60722">
        <ele>55.6</ele>
        <time>2021-12-24T09:34:17Z</time>
      </trkpt>
      <trkpt lat="46.7487" lon="-1.60722">
        <ele>55.6</ele>
        <time>2021-12-24T09:34:19Z</time>
      </trkpt>
      <trkpt lat="46.7486" lon="-1.60722">
        <ele>55.6</ele>
        <time>2021-12-24T09:34:21Z</time>
      </trkpt>
      <trkpt lat="46.74855" lon="-1.60722">
        <ele>55.8</ele>
        <time>2021-12-24T09:34:22Z</time>
      </trkpt>
      <trkpt lat="46.7485" lon="-1.60722">
        <ele>55.8</ele>
        <time>2021-12-24T09:34:23Z</time>
      </trkpt>
      <trkpt lat="46.74842" lon="-1.6072">
        <ele>56</ele>
        <time>2021-12-24T09:34:25Z</time>
      </trkpt>
      <trkpt lat="46.74839" lon="-1.60717">
        <ele>56</ele>
        <time>2021-12-24T09:34:26Z</time>
      </trkpt>
      <trkpt lat="46.74838" lon="-1.60712">
        <ele>56.2</ele>
        <time>2021-12-24T09:34:27Z</time>
      </trkpt>
      <trkpt lat="46.74839" lon="-1.60706">
        <ele>56.2</ele>
        <time>2021-12-24T09:34:28Z</time>
      </trkpt>
      <trkpt lat="46.74839" lon="-1.60699">
        <ele>56.2</ele>
        <time>2021-12-24T09:34:29Z</time>
      </trkpt>
      <trkpt lat="46.74841" lon="-1.60686">
        <ele>56.2</ele>
        <time>2021-12-24T09:34:31Z</time>
      </trkpt>
      <trkpt lat="46.74843" lon="-1.60672">
        <ele>56.4</ele>
        <time>2021-12-24T09:34:33Z</time>
      </trkpt>
      <trkpt lat="46.74844" lon="-1.60657">
        <ele>56.4</ele>
        <time>2021-12-24T09:34:35Z</time>
      </trkpt>
      <trkpt lat="46.74845" lon="-1.6065">
        <ele>56.4</ele>
        <time>2021-12-24T09:34:36Z</time>
      </trkpt>
      <trkpt lat="46.74846" lon="-1.60642">
        <ele>56.4</ele>
        <time>2021-12-24T09:34:37Z</time>
      </trkpt>
      <trkpt lat="46.74848" lon="-1.60627">
        <ele>56.4</ele>
        <time>2021-12-24T09:34:39Z</time>
      </trkpt>
      <trkpt lat="46.74849" lon="-1.6062">
        <ele>56.6</ele>
        <time>2021-12-24T09:34:40Z</time>
      </trkpt>
      <trkpt lat="46.7485" lon="-1.60614">
        <ele>56.6</ele>
        <time>2021-12-24T09:34:41Z</time>
      </trkpt>
      <trkpt lat="46.74853" lon="-1.60601">
        <ele>56.8</ele>
        <time>2021-12-24T09:34:43Z</time>
      </trkpt>
      <trkpt lat="46.74857" lon="-1.60588">
        <ele>57.2</ele>
        <time>2021-12-24T09:34:45Z</time>
      </trkpt>
      <trkpt lat="46.7486" lon="-1.60574">
        <ele>57.2</ele>
        <time>2021-12-24T09:34:47Z</time>
      </trkpt>
      <trkpt lat="46.74864" lon="-1.6056">
        <ele>57.4</ele>
        <time>2021-12-24T09:34:49Z</time>
      </trkpt>
      <trkpt lat="46.74867" lon="-1.60545">
        <ele>57.6</ele>
        <time>2021-12-24T09:34:51Z</time>
      </trkpt>
      <trkpt lat="46.7487" lon="-1.60531">
        <ele>57.8</ele>
        <time>2021-12-24T09:34:53Z</time>
      </trkpt>
      <trkpt lat="46.74875" lon="-1.60518">
        <ele>58</ele>
        <time>2021-12-24T09:34:55Z</time>
      </trkpt>
      <trkpt lat="46.74877" lon="-1.60511">
        <ele>58</ele>
        <time>2021-12-24T09:34:56Z</time>
      </trkpt>
      <trkpt lat="46.7488" lon="-1.60505">
        <ele>58.2</ele>
        <time>2021-12-24T09:34:57Z</time>
      </trkpt>
      <trkpt lat="46.74884" lon="-1.60493">
        <ele>58.6</ele>
        <time>2021-12-24T09:34:59Z</time>
      </trkpt>
      <trkpt lat="46.74885" lon="-1.60485">
        <ele>58.8</ele>
        <time>2021-12-24T09:35:01Z</time>
      </trkpt>
      <trkpt lat="46.74886" lon="-1.60479">
        <ele>59</ele>
        <time>2021-12-24T09:35:03Z</time>
      </trkpt>
      <trkpt lat="46.74887" lon="-1.60479">
        <ele>59</ele>
        <time>2021-12-24T09:35:04Z</time>
      </trkpt>
      <trkpt lat="46.74888" lon="-1.60482">
        <ele>59</ele>
        <time>2021-12-24T09:35:05Z</time>
      </trkpt>
      <trkpt lat="46.74885" lon="-1.60491">
        <ele>59.2</ele>
        <time>2021-12-24T09:35:07Z</time>
      </trkpt>
      <trkpt lat="46.74882" lon="-1.60502">
        <ele>59.2</ele>
        <time>2021-12-24T09:35:09Z</time>
      </trkpt>
      <trkpt lat="46.74877" lon="-1.60512">
        <ele>59.2</ele>
        <time>2021-12-24T09:35:11Z</time>
      </trkpt>
      <trkpt lat="46.74873" lon="-1.60516">
        <ele>59.4</ele>
        <time>2021-12-24T09:35:12Z</time>
      </trkpt>
      <trkpt lat="46.74869" lon="-1.60517">
        <ele>59.4</ele>
        <time>2021-12-24T09:35:13Z</time>
      </trkpt>
      <trkpt lat="46.74864" lon="-1.60515">
        <ele>59.2</ele>
        <time>2021-12-24T09:35:15Z</time>
      </trkpt>
      <trkpt lat="46.74863" lon="-1.60514">
        <ele>59.2</ele>
        <time>2021-12-24T09:35:16Z</time>
      </trkpt>
      <trkpt lat="46.74863" lon="-1.60512">
        <ele>59.2</ele>
        <time>2021-12-24T09:35:17Z</time>
      </trkpt>
      <trkpt lat="46.74863" lon="-1.6051">
        <ele>59.2</ele>
        <time>2021-12-24T09:35:18Z</time>
      </trkpt>
      <trkpt lat="46.74863" lon="-1.60508">
        <ele>59.2</ele>
        <time>2021-12-24T09:35:19Z</time>
      </trkpt>
      <trkpt lat="46.74861" lon="-1.60502">
        <ele>59.4</ele>
        <time>2021-12-24T09:35:21Z</time>
      </trkpt>
      <trkpt lat="46.7486" lon="-1.60492">
        <ele>59.6</ele>
        <time>2021-12-24T09:35:23Z</time>
      </trkpt>
      <trkpt lat="46.74859" lon="-1.60486">
        <ele>59.6</ele>
        <time>2021-12-24T09:35:24Z</time>
      </trkpt>
      <trkpt lat="46.74856" lon="-1.60481">
        <ele>59.6</ele>
        <time>2021-12-24T09:35:25Z</time>
      </trkpt>
      <trkpt lat="46.74853" lon="-1.60477">
        <ele>59.6</ele>
        <time>2021-12-24T09:35:26Z</time>
      </trkpt>
      <trkpt lat="46.74849" lon="-1.60473">
        <ele>59.6</ele>
        <time>2021-12-24T09:35:27Z</time>
      </trkpt>
      <trkpt lat="46.74841" lon="-1.60466">
        <ele>59.6</ele>
        <time>2021-12-24T09:35:29Z</time>
      </trkpt>
      <trkpt lat="46.74834" lon="-1.60458">
        <ele>59.6</ele>
        <time>2021-12-24T09:35:31Z</time>
      </trkpt>
      <trkpt lat="46.74831" lon="-1.60452">
        <ele>59.6</ele>
        <time>2021-12-24T09:35:32Z</time>
      </trkpt>
      <trkpt lat="46.74827" lon="-1.60446">
        <ele>59.6</ele>
        <time>2021-12-24T09:35:33Z</time>
      </trkpt>
      <trkpt lat="46.74824" lon="-1.60441">
        <ele>59.6</ele>
        <time>2021-12-24T09:35:34Z</time>
      </trkpt>
      <trkpt lat="46.7482" lon="-1.60436">
        <ele>59.6</ele>
        <time>2021-12-24T09:35:35Z</time>
      </trkpt>
      <trkpt lat="46.7481" lon="-1.6043">
        <ele>59.6</ele>
        <time>2021-12-24T09:35:37Z</time>
      </trkpt>
      <trkpt lat="46.74806" lon="-1.60428">
        <ele>59.6</ele>
        <time>2021-12-24T09:35:38Z</time>
      </trkpt>
      <trkpt lat="46.74802" lon="-1.60425">
        <ele>59.6</ele>
        <time>2021-12-24T09:35:39Z</time>
      </trkpt>
      <trkpt lat="46.74799" lon="-1.60423">
        <ele>59.8</ele>
        <time>2021-12-24T09:35:40Z</time>
      </trkpt>
      <trkpt lat="46.74796" lon="-1.6042">
        <ele>59.8</ele>
        <time>2021-12-24T09:35:41Z</time>
      </trkpt>
      <trkpt lat="46.74794" lon="-1.60413">
        <ele>59.8</ele>
        <time>2021-12-24T09:35:42Z</time>
      </trkpt>
      <trkpt lat="46.74792" lon="-1.60405">
        <ele>59.8</ele>
        <time>2021-12-24T09:35:43Z</time>
      </trkpt>
      <trkpt lat="46.74787" lon="-1.6039">
        <ele>59.8</ele>
        <time>2021-12-24T09:35:45Z</time>
      </trkpt>
      <trkpt lat="46.7478" lon="-1.60381">
        <ele>59.8</ele>
        <time>2021-12-24T09:35:47Z</time>
      </trkpt>
      <trkpt lat="46.7477" lon="-1.60375">
        <ele>60</ele>
        <time>2021-12-24T09:35:49Z</time>
      </trkpt>
      <trkpt lat="46.74765" lon="-1.6037">
        <ele>60</ele>
        <time>2021-12-24T09:35:51Z</time>
      </trkpt>
      <trkpt lat="46.74764" lon="-1.60365">
        <ele>60</ele>
        <time>2021-12-24T09:35:53Z</time>
      </trkpt>
      <trkpt lat="46.74763" lon="-1.60357">
        <ele>60</ele>
        <time>2021-12-24T09:35:55Z</time>
      </trkpt>
      <trkpt lat="46.74758" lon="-1.60348">
        <ele>60</ele>
        <time>2021-12-24T09:35:57Z</time>
      </trkpt>
      <trkpt lat="46.74754" lon="-1.60344">
        <ele>60</ele>
        <time>2021-12-24T09:35:58Z</time>
      </trkpt>
      <trkpt lat="46.7475" lon="-1.60342">
        <ele>60.2</ele>
        <time>2021-12-24T09:35:59Z</time>
      </trkpt>
      <trkpt lat="46.74746" lon="-1.60338">
        <ele>60.2</ele>
        <time>2021-12-24T09:36:00Z</time>
      </trkpt>
      <trkpt lat="46.74743" lon="-1.60334">
        <ele>60.2</ele>
        <time>2021-12-24T09:36:01Z</time>
      </trkpt>
      <trkpt lat="46.7474" lon="-1.60328">
        <ele>60.2</ele>
        <time>2021-12-24T09:36:02Z</time>
      </trkpt>
      <trkpt lat="46.74737" lon="-1.60321">
        <ele>60.2</ele>
        <time>2021-12-24T09:36:03Z</time>
      </trkpt>
      <trkpt lat="46.74732" lon="-1.60308">
        <ele>60.2</ele>
        <time>2021-12-24T09:36:05Z</time>
      </trkpt>
      <trkpt lat="46.74728" lon="-1.60303">
        <ele>60.4</ele>
        <time>2021-12-24T09:36:06Z</time>
      </trkpt>
      <trkpt lat="46.74724" lon="-1.60298">
        <ele>60.4</ele>
        <time>2021-12-24T09:36:07Z</time>
      </trkpt>
      <trkpt lat="46.74716" lon="-1.60289">
        <ele>60.4</ele>
        <time>2021-12-24T09:36:09Z</time>
      </trkpt>
      <trkpt lat="46.74715" lon="-1.60285">
        <ele>60.2</ele>
        <time>2021-12-24T09:36:10Z</time>
      </trkpt>
      <trkpt lat="46.74715" lon="-1.60279">
        <ele>60.2</ele>
        <time>2021-12-24T09:36:11Z</time>
      </trkpt>
      <trkpt lat="46.74718" lon="-1.60265">
        <ele>60</ele>
        <time>2021-12-24T09:36:13Z</time>
      </trkpt>
      <trkpt lat="46.7472" lon="-1.60259">
        <ele>59.8</ele>
        <time>2021-12-24T09:36:14Z</time>
      </trkpt>
      <trkpt lat="46.74721" lon="-1.60252">
        <ele>59.8</ele>
        <time>2021-12-24T09:36:15Z</time>
      </trkpt>
      <trkpt lat="46.74721" lon="-1.60246">
        <ele>59.8</ele>
        <time>2021-12-24T09:36:16Z</time>
      </trkpt>
      <trkpt lat="46.74723" lon="-1.6024">
        <ele>59.8</ele>
        <time>2021-12-24T09:36:17Z</time>
      </trkpt>
      <trkpt lat="46.74725" lon="-1.60226">
        <ele>59.8</ele>
        <time>2021-12-24T09:36:19Z</time>
      </trkpt>
      <trkpt lat="46.74727" lon="-1.60219">
        <ele>59.8</ele>
        <time>2021-12-24T09:36:20Z</time>
      </trkpt>
      <trkpt lat="46.74729" lon="-1.60212">
        <ele>59.6</ele>
        <time>2021-12-24T09:36:21Z</time>
      </trkpt>
      <trkpt lat="46.74732" lon="-1.60205">
        <ele>59.6</ele>
        <time>2021-12-24T09:36:22Z</time>
      </trkpt>
      <trkpt lat="46.74734" lon="-1.60198">
        <ele>59.6</ele>
        <time>2021-12-24T09:36:23Z</time>
      </trkpt>
      <trkpt lat="46.74735" lon="-1.60191">
        <ele>59.4</ele>
        <time>2021-12-24T09:36:24Z</time>
      </trkpt>
      <trkpt lat="46.74736" lon="-1.60185">
        <ele>59.4</ele>
        <time>2021-12-24T09:36:25Z</time>
      </trkpt>
      <trkpt lat="46.74736" lon="-1.60178">
        <ele>59.4</ele>
        <time>2021-12-24T09:36:26Z</time>
      </trkpt>
      <trkpt lat="46.74735" lon="-1.60171">
        <ele>59.2</ele>
        <time>2021-12-24T09:36:27Z</time>
      </trkpt>
      <trkpt lat="46.74732" lon="-1.60164">
        <ele>59.2</ele>
        <time>2021-12-24T09:36:28Z</time>
      </trkpt>
      <trkpt lat="46.74728" lon="-1.60157">
        <ele>59.4</ele>
        <time>2021-12-24T09:36:29Z</time>
      </trkpt>
      <trkpt lat="46.74725" lon="-1.6015">
        <ele>59.6</ele>
        <time>2021-12-24T09:36:30Z</time>
      </trkpt>
      <trkpt lat="46.74722" lon="-1.60143">
        <ele>59.8</ele>
        <time>2021-12-24T09:36:31Z</time>
      </trkpt>
      <trkpt lat="46.74715" lon="-1.6013">
        <ele>60.2</ele>
        <time>2021-12-24T09:36:33Z</time>
      </trkpt>
      <trkpt lat="46.74711" lon="-1.60125">
        <ele>60.2</ele>
        <time>2021-12-24T09:36:34Z</time>
      </trkpt>
      <trkpt lat="46.74706" lon="-1.6012">
        <ele>60.2</ele>
        <time>2021-12-24T09:36:35Z</time>
      </trkpt>
      <trkpt lat="46.74695" lon="-1.60111">
        <ele>60.2</ele>
        <time>2021-12-24T09:36:37Z</time>
      </trkpt>
      <trkpt lat="46.74685" lon="-1.60103">
        <ele>60.4</ele>
        <time>2021-12-24T09:36:39Z</time>
      </trkpt>
      <trkpt lat="46.74676" lon="-1.60093">
        <ele>60.4</ele>
        <time>2021-12-24T09:36:41Z</time>
      </trkpt>
      <trkpt lat="46.74668" lon="-1.60083">
        <ele>60.4</ele>
        <time>2021-12-24T09:36:43Z</time>
      </trkpt>
      <trkpt lat="46.74663" lon="-1.60078">
        <ele>60.6</ele>
        <time>2021-12-24T09:36:44Z</time>
      </trkpt>
      <trkpt lat="46.74658" lon="-1.60074">
        <ele>60.6</ele>
        <time>2021-12-24T09:36:45Z</time>
      </trkpt>
      <trkpt lat="46.74649" lon="-1.60065">
        <ele>60.6</ele>
        <time>2021-12-24T09:36:47Z</time>
      </trkpt>
      <trkpt lat="46.74646" lon="-1.60059">
        <ele>60.6</ele>
        <time>2021-12-24T09:36:48Z</time>
      </trkpt>
      <trkpt lat="46.74643" lon="-1.60052">
        <ele>60.6</ele>
        <time>2021-12-24T09:36:49Z</time>
      </trkpt>
      <trkpt lat="46.74635" lon="-1.60038">
        <ele>60.6</ele>
        <time>2021-12-24T09:36:51Z</time>
      </trkpt>
      <trkpt lat="46.74626" lon="-1.60025">
        <ele>60.6</ele>
        <time>2021-12-24T09:36:53Z</time>
      </trkpt>
      <trkpt lat="46.74616" lon="-1.60012">
        <ele>60.6</ele>
        <time>2021-12-24T09:36:55Z</time>
      </trkpt>
      <trkpt lat="46.74607" lon="-1.59998">
        <ele>60.6</ele>
        <time>2021-12-24T09:36:57Z</time>
      </trkpt>
      <trkpt lat="46.74597" lon="-1.59984">
        <ele>60.8</ele>
        <time>2021-12-24T09:36:59Z</time>
      </trkpt>
      <trkpt lat="46.74587" lon="-1.5997">
        <ele>60.8</ele>
        <time>2021-12-24T09:37:01Z</time>
      </trkpt>
      <trkpt lat="46.74578" lon="-1.59956">
        <ele>60.8</ele>
        <time>2021-12-24T09:37:03Z</time>
      </trkpt>
      <trkpt lat="46.74568" lon="-1.59942">
        <ele>60.8</ele>
        <time>2021-12-24T09:37:05Z</time>
      </trkpt>
      <trkpt lat="46.74563" lon="-1.59935">
        <ele>60.6</ele>
        <time>2021-12-24T09:37:06Z</time>
      </trkpt>
      <trkpt lat="46.74559" lon="-1.59927">
        <ele>60.6</ele>
        <time>2021-12-24T09:37:07Z</time>
      </trkpt>
      <trkpt lat="46.74549" lon="-1.59912">
        <ele>60.4</ele>
        <time>2021-12-24T09:37:09Z</time>
      </trkpt>
      <trkpt lat="46.74539" lon="-1.59897">
        <ele>60.4</ele>
        <time>2021-12-24T09:37:11Z</time>
      </trkpt>
      <trkpt lat="46.74535" lon="-1.59889">
        <ele>60.2</ele>
        <time>2021-12-24T09:37:12Z</time>
      </trkpt>
      <trkpt lat="46.7453" lon="-1.59881">
        <ele>60.2</ele>
        <time>2021-12-24T09:37:13Z</time>
      </trkpt>
      <trkpt lat="46.74522" lon="-1.59865">
        <ele>60.4</ele>
        <time>2021-12-24T09:37:15Z</time>
      </trkpt>
      <trkpt lat="46.74513" lon="-1.59848">
        <ele>60.4</ele>
        <time>2021-12-24T09:37:17Z</time>
      </trkpt>
      <trkpt lat="46.74504" lon="-1.59832">
        <ele>60.6</ele>
        <time>2021-12-24T09:37:19Z</time>
      </trkpt>
      <trkpt lat="46.74499" lon="-1.59824">
        <ele>60.6</ele>
        <time>2021-12-24T09:37:20Z</time>
      </trkpt>
      <trkpt lat="46.74494" lon="-1.59817">
        <ele>60.6</ele>
        <time>2021-12-24T09:37:21Z</time>
      </trkpt>
      <trkpt lat="46.74488" lon="-1.59812">
        <ele>60.8</ele>
        <time>2021-12-24T09:37:22Z</time>
      </trkpt>
      <trkpt lat="46.74481" lon="-1.59811">
        <ele>60.6</ele>
        <time>2021-12-24T09:37:23Z</time>
      </trkpt>
      <trkpt lat="46.74474" lon="-1.59812">
        <ele>60.8</ele>
        <time>2021-12-24T09:37:24Z</time>
      </trkpt>
      <trkpt lat="46.74467" lon="-1.59813">
        <ele>60.8</ele>
        <time>2021-12-24T09:37:25Z</time>
      </trkpt>
      <trkpt lat="46.74453" lon="-1.59815">
        <ele>60.8</ele>
        <time>2021-12-24T09:37:27Z</time>
      </trkpt>
      <trkpt lat="46.7444" lon="-1.59817">
        <ele>60.8</ele>
        <time>2021-12-24T09:37:29Z</time>
      </trkpt>
      <trkpt lat="46.74427" lon="-1.5982">
        <ele>60.8</ele>
        <time>2021-12-24T09:37:31Z</time>
      </trkpt>
      <trkpt lat="46.7442" lon="-1.59822">
        <ele>60.8</ele>
        <time>2021-12-24T09:37:32Z</time>
      </trkpt>
      <trkpt lat="46.74414" lon="-1.59823">
        <ele>60.8</ele>
        <time>2021-12-24T09:37:33Z</time>
      </trkpt>
      <trkpt lat="46.744" lon="-1.59826">
        <ele>61</ele>
        <time>2021-12-24T09:37:35Z</time>
      </trkpt>
      <trkpt lat="46.74387" lon="-1.59829">
        <ele>61</ele>
        <time>2021-12-24T09:37:37Z</time>
      </trkpt>
      <trkpt lat="46.74374" lon="-1.59831">
        <ele>61</ele>
        <time>2021-12-24T09:37:39Z</time>
      </trkpt>
      <trkpt lat="46.74368" lon="-1.59832">
        <ele>61.2</ele>
        <time>2021-12-24T09:37:40Z</time>
      </trkpt>
      <trkpt lat="46.74362" lon="-1.59831">
        <ele>61.2</ele>
        <time>2021-12-24T09:37:41Z</time>
      </trkpt>
      <trkpt lat="46.7435" lon="-1.5983">
        <ele>61.2</ele>
        <time>2021-12-24T09:37:43Z</time>
      </trkpt>
      <trkpt lat="46.74337" lon="-1.5983">
        <ele>61.2</ele>
        <time>2021-12-24T09:37:45Z</time>
      </trkpt>
      <trkpt lat="46.74324" lon="-1.59831">
        <ele>61.2</ele>
        <time>2021-12-24T09:37:47Z</time>
      </trkpt>
      <trkpt lat="46.74311" lon="-1.59831">
        <ele>61.2</ele>
        <time>2021-12-24T09:37:49Z</time>
      </trkpt>
      <trkpt lat="46.74298" lon="-1.59832">
        <ele>61.2</ele>
        <time>2021-12-24T09:37:51Z</time>
      </trkpt>
      <trkpt lat="46.74284" lon="-1.59832">
        <ele>61.2</ele>
        <time>2021-12-24T09:37:53Z</time>
      </trkpt>
      <trkpt lat="46.7427" lon="-1.59832">
        <ele>61.2</ele>
        <time>2021-12-24T09:37:55Z</time>
      </trkpt>
      <trkpt lat="46.74257" lon="-1.59833">
        <ele>61.2</ele>
        <time>2021-12-24T09:37:57Z</time>
      </trkpt>
      <trkpt lat="46.74244" lon="-1.59833">
        <ele>61.2</ele>
        <time>2021-12-24T09:37:59Z</time>
      </trkpt>
      <trkpt lat="46.74233" lon="-1.59834">
        <ele>61.2</ele>
        <time>2021-12-24T09:38:01Z</time>
      </trkpt>
      <trkpt lat="46.74227" lon="-1.59833">
        <ele>61.2</ele>
        <time>2021-12-24T09:38:02Z</time>
      </trkpt>
      <trkpt lat="46.74222" lon="-1.59833">
        <ele>61.2</ele>
        <time>2021-12-24T09:38:03Z</time>
      </trkpt>
      <trkpt lat="46.74211" lon="-1.59834">
        <ele>61.4</ele>
        <time>2021-12-24T09:38:05Z</time>
      </trkpt>
      <trkpt lat="46.74205" lon="-1.59834">
        <ele>61.4</ele>
        <time>2021-12-24T09:38:06Z</time>
      </trkpt>
      <trkpt lat="46.742" lon="-1.59833">
        <ele>61.4</ele>
        <time>2021-12-24T09:38:07Z</time>
      </trkpt>
      <trkpt lat="46.74188" lon="-1.59828">
        <ele>61.4</ele>
        <time>2021-12-24T09:38:09Z</time>
      </trkpt>
      <trkpt lat="46.74183" lon="-1.59825">
        <ele>61.4</ele>
        <time>2021-12-24T09:38:10Z</time>
      </trkpt>
      <trkpt lat="46.74177" lon="-1.59822">
        <ele>61.4</ele>
        <time>2021-12-24T09:38:11Z</time>
      </trkpt>
      <trkpt lat="46.74167" lon="-1.59814">
        <ele>61.6</ele>
        <time>2021-12-24T09:38:13Z</time>
      </trkpt>
      <trkpt lat="46.74157" lon="-1.59807">
        <ele>61.6</ele>
        <time>2021-12-24T09:38:15Z</time>
      </trkpt>
      <trkpt lat="46.74147" lon="-1.59801">
        <ele>61.6</ele>
        <time>2021-12-24T09:38:17Z</time>
      </trkpt>
      <trkpt lat="46.74138" lon="-1.59796">
        <ele>61.6</ele>
        <time>2021-12-24T09:38:19Z</time>
      </trkpt>
      <trkpt lat="46.74133" lon="-1.59794">
        <ele>61.6</ele>
        <time>2021-12-24T09:38:20Z</time>
      </trkpt>
      <trkpt lat="46.74128" lon="-1.59793">
        <ele>61.6</ele>
        <time>2021-12-24T09:38:21Z</time>
      </trkpt>
      <trkpt lat="46.74124" lon="-1.59791">
        <ele>61.8</ele>
        <time>2021-12-24T09:38:22Z</time>
      </trkpt>
      <trkpt lat="46.74121" lon="-1.59786">
        <ele>61.8</ele>
        <time>2021-12-24T09:38:23Z</time>
      </trkpt>
      <trkpt lat="46.74121" lon="-1.5978">
        <ele>61.8</ele>
        <time>2021-12-24T09:38:24Z</time>
      </trkpt>
      <trkpt lat="46.74123" lon="-1.59774">
        <ele>61.8</ele>
        <time>2021-12-24T09:38:25Z</time>
      </trkpt>
      <trkpt lat="46.74127" lon="-1.59769">
        <ele>61.8</ele>
        <time>2021-12-24T09:38:26Z</time>
      </trkpt>
      <trkpt lat="46.7413" lon="-1.59764">
        <ele>61.8</ele>
        <time>2021-12-24T09:38:27Z</time>
      </trkpt>
      <trkpt lat="46.74134" lon="-1.59758">
        <ele>61.8</ele>
        <time>2021-12-24T09:38:28Z</time>
      </trkpt>
      <trkpt lat="46.74137" lon="-1.59751">
        <ele>61.8</ele>
        <time>2021-12-24T09:38:29Z</time>
      </trkpt>
      <trkpt lat="46.74143" lon="-1.59739">
        <ele>61.8</ele>
        <time>2021-12-24T09:38:31Z</time>
      </trkpt>
      <trkpt lat="46.74148" lon="-1.59726">
        <ele>61.8</ele>
        <time>2021-12-24T09:38:33Z</time>
      </trkpt>
      <trkpt lat="46.74151" lon="-1.5972">
        <ele>61.8</ele>
        <time>2021-12-24T09:38:34Z</time>
      </trkpt>
      <trkpt lat="46.74154" lon="-1.59714">
        <ele>61.8</ele>
        <time>2021-12-24T09:38:35Z</time>
      </trkpt>
      <trkpt lat="46.74156" lon="-1.59708">
        <ele>61.8</ele>
        <time>2021-12-24T09:38:36Z</time>
      </trkpt>
      <trkpt lat="46.74159" lon="-1.59702">
        <ele>62</ele>
        <time>2021-12-24T09:38:37Z</time>
      </trkpt>
      <trkpt lat="46.74164" lon="-1.5969">
        <ele>61.8</ele>
        <time>2021-12-24T09:38:39Z</time>
      </trkpt>
      <trkpt lat="46.74165" lon="-1.59683">
        <ele>62</ele>
        <time>2021-12-24T09:38:40Z</time>
      </trkpt>
      <trkpt lat="46.74163" lon="-1.59677">
        <ele>62</ele>
        <time>2021-12-24T09:38:41Z</time>
      </trkpt>
      <trkpt lat="46.74159" lon="-1.59673">
        <ele>61.8</ele>
        <time>2021-12-24T09:38:42Z</time>
      </trkpt>
      <trkpt lat="46.74156" lon="-1.5967">
        <ele>61.8</ele>
        <time>2021-12-24T09:38:43Z</time>
      </trkpt>
      <trkpt lat="46.7415" lon="-1.59666">
        <ele>61.6</ele>
        <time>2021-12-24T09:38:45Z</time>
      </trkpt>
      <trkpt lat="46.74148" lon="-1.59664">
        <ele>61.6</ele>
        <time>2021-12-24T09:38:46Z</time>
      </trkpt>
      <trkpt lat="46.74148" lon="-1.59662">
        <ele>61.4</ele>
        <time>2021-12-24T09:38:47Z</time>
      </trkpt>
      <trkpt lat="46.74148" lon="-1.59659">
        <ele>61.4</ele>
        <time>2021-12-24T09:38:48Z</time>
      </trkpt>
      <trkpt lat="46.74148" lon="-1.59655">
        <ele>61.2</ele>
        <time>2021-12-24T09:38:49Z</time>
      </trkpt>
      <trkpt lat="46.74147" lon="-1.59652">
        <ele>61</ele>
        <time>2021-12-24T09:38:50Z</time>
      </trkpt>
      <trkpt lat="46.74145" lon="-1.59649">
        <ele>61</ele>
        <time>2021-12-24T09:38:51Z</time>
      </trkpt>
      <trkpt lat="46.74139" lon="-1.59642">
        <ele>60.8</ele>
        <time>2021-12-24T09:38:53Z</time>
      </trkpt>
      <trkpt lat="46.74136" lon="-1.59638">
        <ele>60.6</ele>
        <time>2021-12-24T09:38:54Z</time>
      </trkpt>
      <trkpt lat="46.74134" lon="-1.59633">
        <ele>60.4</ele>
        <time>2021-12-24T09:38:55Z</time>
      </trkpt>
      <trkpt lat="46.74131" lon="-1.59622">
        <ele>60</ele>
        <time>2021-12-24T09:38:57Z</time>
      </trkpt>
      <trkpt lat="46.7413" lon="-1.59617">
        <ele>60</ele>
        <time>2021-12-24T09:38:58Z</time>
      </trkpt>
      <trkpt lat="46.7413" lon="-1.59613">
        <ele>59.8</ele>
        <time>2021-12-24T09:38:59Z</time>
      </trkpt>
      <trkpt lat="46.74128" lon="-1.59606">
        <ele>59.8</ele>
        <time>2021-12-24T09:39:01Z</time>
      </trkpt>
      <trkpt lat="46.74127" lon="-1.59602">
        <ele>59.8</ele>
        <time>2021-12-24T09:39:02Z</time>
      </trkpt>
      <trkpt lat="46.74128" lon="-1.59599">
        <ele>59.6</ele>
        <time>2021-12-24T09:39:03Z</time>
      </trkpt>
      <trkpt lat="46.74128" lon="-1.59592">
        <ele>59.6</ele>
        <time>2021-12-24T09:39:05Z</time>
      </trkpt>
      <trkpt lat="46.74127" lon="-1.59589">
        <ele>59.4</ele>
        <time>2021-12-24T09:39:06Z</time>
      </trkpt>
      <trkpt lat="46.74125" lon="-1.59586">
        <ele>59.4</ele>
        <time>2021-12-24T09:39:07Z</time>
      </trkpt>
      <trkpt lat="46.74124" lon="-1.59576">
        <ele>59.2</ele>
        <time>2021-12-24T09:39:09Z</time>
      </trkpt>
      <trkpt lat="46.74124" lon="-1.5957">
        <ele>59.2</ele>
        <time>2021-12-24T09:39:10Z</time>
      </trkpt>
      <trkpt lat="46.74123" lon="-1.59564">
        <ele>59</ele>
        <time>2021-12-24T09:39:11Z</time>
      </trkpt>
      <trkpt lat="46.74122" lon="-1.59557">
        <ele>59</ele>
        <time>2021-12-24T09:39:12Z</time>
      </trkpt>
      <trkpt lat="46.74122" lon="-1.59551">
        <ele>58.8</ele>
        <time>2021-12-24T09:39:13Z</time>
      </trkpt>
      <trkpt lat="46.74121" lon="-1.59545">
        <ele>58.6</ele>
        <time>2021-12-24T09:39:14Z</time>
      </trkpt>
      <trkpt lat="46.74119" lon="-1.5954">
        <ele>58.4</ele>
        <time>2021-12-24T09:39:15Z</time>
      </trkpt>
      <trkpt lat="46.74118" lon="-1.59531">
        <ele>58.4</ele>
        <time>2021-12-24T09:39:17Z</time>
      </trkpt>
      <trkpt lat="46.74116" lon="-1.59527">
        <ele>58.4</ele>
        <time>2021-12-24T09:39:18Z</time>
      </trkpt>
      <trkpt lat="46.74113" lon="-1.59524">
        <ele>58.4</ele>
        <time>2021-12-24T09:39:19Z</time>
      </trkpt>
      <trkpt lat="46.74109" lon="-1.59522">
        <ele>58.2</ele>
        <time>2021-12-24T09:39:20Z</time>
      </trkpt>
      <trkpt lat="46.74105" lon="-1.5952">
        <ele>58.2</ele>
        <time>2021-12-24T09:39:21Z</time>
      </trkpt>
      <trkpt lat="46.74098" lon="-1.59517">
        <ele>58.2</ele>
        <time>2021-12-24T09:39:23Z</time>
      </trkpt>
      <trkpt lat="46.74092" lon="-1.59515">
        <ele>58.2</ele>
        <time>2021-12-24T09:39:25Z</time>
      </trkpt>
      <trkpt lat="46.7409" lon="-1.59514">
        <ele>58.4</ele>
        <time>2021-12-24T09:39:26Z</time>
      </trkpt>
      <trkpt lat="46.74089" lon="-1.59512">
        <ele>58.4</ele>
        <time>2021-12-24T09:39:27Z</time>
      </trkpt>
      <trkpt lat="46.74086" lon="-1.59509">
        <ele>58.4</ele>
        <time>2021-12-24T09:39:29Z</time>
      </trkpt>
      <trkpt lat="46.74085" lon="-1.59505">
        <ele>58.2</ele>
        <time>2021-12-24T09:39:30Z</time>
      </trkpt>
      <trkpt lat="46.74084" lon="-1.59501">
        <ele>58.2</ele>
        <time>2021-12-24T09:39:31Z</time>
      </trkpt>
      <trkpt lat="46.74085" lon="-1.59496">
        <ele>58.4</ele>
        <time>2021-12-24T09:39:32Z</time>
      </trkpt>
      <trkpt lat="46.74086" lon="-1.5949">
        <ele>58.4</ele>
        <time>2021-12-24T09:39:33Z</time>
      </trkpt>
      <trkpt lat="46.74087" lon="-1.59478">
        <ele>58.4</ele>
        <time>2021-12-24T09:39:35Z</time>
      </trkpt>
      <trkpt lat="46.74089" lon="-1.59466">
        <ele>58.4</ele>
        <time>2021-12-24T09:39:37Z</time>
      </trkpt>
      <trkpt lat="46.74091" lon="-1.59453">
        <ele>58.4</ele>
        <time>2021-12-24T09:39:39Z</time>
      </trkpt>
      <trkpt lat="46.74093" lon="-1.5944">
        <ele>58.4</ele>
        <time>2021-12-24T09:39:41Z</time>
      </trkpt>
      <trkpt lat="46.74097" lon="-1.59428">
        <ele>58.2</ele>
        <time>2021-12-24T09:39:43Z</time>
      </trkpt>
      <trkpt lat="46.741" lon="-1.59423">
        <ele>58.4</ele>
        <time>2021-12-24T09:39:44Z</time>
      </trkpt>
      <trkpt lat="46.74104" lon="-1.59421">
        <ele>58.8</ele>
        <time>2021-12-24T09:39:45Z</time>
      </trkpt>
      <trkpt lat="46.74108" lon="-1.5942">
        <ele>58.6</ele>
        <time>2021-12-24T09:39:46Z</time>
      </trkpt>
      <trkpt lat="46.74112" lon="-1.59422">
        <ele>58.8</ele>
        <time>2021-12-24T09:39:47Z</time>
      </trkpt>
      <trkpt lat="46.74118" lon="-1.59427">
        <ele>58.8</ele>
        <time>2021-12-24T09:39:49Z</time>
      </trkpt>
      <trkpt lat="46.74125" lon="-1.59429">
        <ele>59</ele>
        <time>2021-12-24T09:39:51Z</time>
      </trkpt>
      <trkpt lat="46.74131" lon="-1.59429">
        <ele>59</ele>
        <time>2021-12-24T09:39:53Z</time>
      </trkpt>
      <trkpt lat="46.74135" lon="-1.59429">
        <ele>59</ele>
        <time>2021-12-24T09:39:55Z</time>
      </trkpt>
      <trkpt lat="46.74137" lon="-1.59428">
        <ele>59.2</ele>
        <time>2021-12-24T09:39:56Z</time>
      </trkpt>
      <trkpt lat="46.74139" lon="-1.59426">
        <ele>59.2</ele>
        <time>2021-12-24T09:39:57Z</time>
      </trkpt>
      <trkpt lat="46.74142" lon="-1.59424">
        <ele>59.2</ele>
        <time>2021-12-24T09:39:59Z</time>
      </trkpt>
      <trkpt lat="46.74144" lon="-1.59424">
        <ele>59.2</ele>
        <time>2021-12-24T09:40:00Z</time>
      </trkpt>
      <trkpt lat="46.74146" lon="-1.59423">
        <ele>59.2</ele>
        <time>2021-12-24T09:40:01Z</time>
      </trkpt>
      <trkpt lat="46.74148" lon="-1.59421">
        <ele>59.2</ele>
        <time>2021-12-24T09:40:03Z</time>
      </trkpt>
      <trkpt lat="46.7415" lon="-1.59419">
        <ele>59.2</ele>
        <time>2021-12-24T09:40:05Z</time>
      </trkpt>
      <trkpt lat="46.74154" lon="-1.59416">
        <ele>59.2</ele>
        <time>2021-12-24T09:40:07Z</time>
      </trkpt>
      <trkpt lat="46.74158" lon="-1.59409">
        <ele>59</ele>
        <time>2021-12-24T09:40:09Z</time>
      </trkpt>
      <trkpt lat="46.74161" lon="-1.59402">
        <ele>58.2</ele>
        <time>2021-12-24T09:40:11Z</time>
      </trkpt>
      <trkpt lat="46.74163" lon="-1.59395">
        <ele>58.4</ele>
        <time>2021-12-24T09:40:13Z</time>
      </trkpt>
      <trkpt lat="46.74162" lon="-1.59387">
        <ele>58</ele>
        <time>2021-12-24T09:40:15Z</time>
      </trkpt>
      <trkpt lat="46.74162" lon="-1.59378">
        <ele>57.8</ele>
        <time>2021-12-24T09:40:17Z</time>
      </trkpt>
      <trkpt lat="46.74161" lon="-1.59372">
        <ele>57.6</ele>
        <time>2021-12-24T09:40:19Z</time>
      </trkpt>
      <trkpt lat="46.74155" lon="-1.59368">
        <ele>57</ele>
        <time>2021-12-24T09:40:21Z</time>
      </trkpt>
      <trkpt lat="46.74151" lon="-1.59362">
        <ele>56.4</ele>
        <time>2021-12-24T09:40:23Z</time>
      </trkpt>
      <trkpt lat="46.74149" lon="-1.59359">
        <ele>56.2</ele>
        <time>2021-12-24T09:40:24Z</time>
      </trkpt>
      <trkpt lat="46.74147" lon="-1.59357">
        <ele>55.8</ele>
        <time>2021-12-24T09:40:25Z</time>
      </trkpt>
      <trkpt lat="46.74146" lon="-1.59357">
        <ele>55.6</ele>
        <time>2021-12-24T09:40:26Z</time>
      </trkpt>
      <trkpt lat="46.74141" lon="-1.59346">
        <ele>70.4</ele>
        <time>2021-12-24T09:58:59Z</time>
      </trkpt>
      <trkpt lat="46.74141" lon="-1.59346">
        <ele>70.4</ele>
        <time>2021-12-24T09:59:00Z</time>
      </trkpt>
      <trkpt lat="46.74136" lon="-1.59349">
        <ele>68.2</ele>
        <time>2021-12-24T10:00:04Z</time>
      </trkpt>
      <trkpt lat="46.74131" lon="-1.59351">
        <ele>68.2</ele>
        <time>2021-12-24T10:00:06Z</time>
      </trkpt>
      <trkpt lat="46.74125" lon="-1.59354">
        <ele>68.4</ele>
        <time>2021-12-24T10:00:08Z</time>
      </trkpt>
      <trkpt lat="46.74122" lon="-1.59355">
        <ele>68</ele>
        <time>2021-12-24T10:00:09Z</time>
      </trkpt>
      <trkpt lat="46.74118" lon="-1.59356">
        <ele>68.4</ele>
        <time>2021-12-24T10:00:10Z</time>
      </trkpt>
      <trkpt lat="46.74111" lon="-1.59359">
        <ele>68.6</ele>
        <time>2021-12-24T10:00:12Z</time>
      </trkpt>
      <trkpt lat="46.74104" lon="-1.59362">
        <ele>68.8</ele>
        <time>2021-12-24T10:00:14Z</time>
      </trkpt>
      <trkpt lat="46.74097" lon="-1.59365">
        <ele>68.8</ele>
        <time>2021-12-24T10:00:16Z</time>
      </trkpt>
      <trkpt lat="46.7409" lon="-1.59368">
        <ele>69</ele>
        <time>2021-12-24T10:00:18Z</time>
      </trkpt>
      <trkpt lat="46.74087" lon="-1.59369">
        <ele>69</ele>
        <time>2021-12-24T10:00:19Z</time>
      </trkpt>
      <trkpt lat="46.74084" lon="-1.5937">
        <ele>69</ele>
        <time>2021-12-24T10:00:20Z</time>
      </trkpt>
      <trkpt lat="46.74079" lon="-1.59372">
        <ele>69</ele>
        <time>2021-12-24T10:00:22Z</time>
      </trkpt>
      <trkpt lat="46.74077" lon="-1.59372">
        <ele>69</ele>
        <time>2021-12-24T10:00:23Z</time>
      </trkpt>
      <trkpt lat="46.74076" lon="-1.5937">
        <ele>69</ele>
        <time>2021-12-24T10:00:24Z</time>
      </trkpt>
      <trkpt lat="46.74075" lon="-1.59363">
        <ele>69</ele>
        <time>2021-12-24T10:00:26Z</time>
      </trkpt>
      <trkpt lat="46.74075" lon="-1.59358">
        <ele>69</ele>
        <time>2021-12-24T10:00:27Z</time>
      </trkpt>
      <trkpt lat="46.74075" lon="-1.59354">
        <ele>69</ele>
        <time>2021-12-24T10:00:28Z</time>
      </trkpt>
      <trkpt lat="46.74076" lon="-1.59347">
        <ele>69.2</ele>
        <time>2021-12-24T10:00:30Z</time>
      </trkpt>
      <trkpt lat="46.74076" lon="-1.59345">
        <ele>69</ele>
        <time>2021-12-24T10:00:31Z</time>
      </trkpt>
      <trkpt lat="46.74077" lon="-1.59342">
        <ele>68.4</ele>
        <time>2021-12-24T10:00:32Z</time>
      </trkpt>
      <trkpt lat="46.74077" lon="-1.59336">
        <ele>68.4</ele>
        <time>2021-12-24T10:00:34Z</time>
      </trkpt>
      <trkpt lat="46.74077" lon="-1.59329">
        <ele>68</ele>
        <time>2021-12-24T10:00:36Z</time>
      </trkpt>
      <trkpt lat="46.74077" lon="-1.5932">
        <ele>67.8</ele>
        <time>2021-12-24T10:00:38Z</time>
      </trkpt>
      <trkpt lat="46.74077" lon="-1.59312">
        <ele>67.8</ele>
        <time>2021-12-24T10:00:40Z</time>
      </trkpt>
      <trkpt lat="46.74078" lon="-1.59301">
        <ele>67.6</ele>
        <time>2021-12-24T10:00:42Z</time>
      </trkpt>
      <trkpt lat="46.7408" lon="-1.59292">
        <ele>67.6</ele>
        <time>2021-12-24T10:00:44Z</time>
      </trkpt>
      <trkpt lat="46.74081" lon="-1.59284">
        <ele>67.6</ele>
        <time>2021-12-24T10:00:46Z</time>
      </trkpt>
      <trkpt lat="46.74082" lon="-1.59276">
        <ele>67.4</ele>
        <time>2021-12-24T10:00:48Z</time>
      </trkpt>
      <trkpt lat="46.74084" lon="-1.59268">
        <ele>67.4</ele>
        <time>2021-12-24T10:00:50Z</time>
      </trkpt>
      <trkpt lat="46.74085" lon="-1.59259">
        <ele>67.2</ele>
        <time>2021-12-24T10:00:52Z</time>
      </trkpt>
      <trkpt lat="46.74085" lon="-1.59255">
        <ele>67.2</ele>
        <time>2021-12-24T10:00:53Z</time>
      </trkpt>
      <trkpt lat="46.74085" lon="-1.59251">
        <ele>67.2</ele>
        <time>2021-12-24T10:00:54Z</time>
      </trkpt>
      <trkpt lat="46.74086" lon="-1.5924">
        <ele>67.2</ele>
        <time>2021-12-24T10:00:56Z</time>
      </trkpt>
      <trkpt lat="46.74087" lon="-1.59234">
        <ele>67.2</ele>
        <time>2021-12-24T10:00:57Z</time>
      </trkpt>
      <trkpt lat="46.74088" lon="-1.59228">
        <ele>67</ele>
        <time>2021-12-24T10:00:58Z</time>
      </trkpt>
      <trkpt lat="46.74088" lon="-1.59216">
        <ele>66.8</ele>
        <time>2021-12-24T10:01:00Z</time>
      </trkpt>
      <trkpt lat="46.74089" lon="-1.59209">
        <ele>66.6</ele>
        <time>2021-12-24T10:01:01Z</time>
      </trkpt>
      <trkpt lat="46.7409" lon="-1.59203">
        <ele>66.6</ele>
        <time>2021-12-24T10:01:02Z</time>
      </trkpt>
      <trkpt lat="46.7409" lon="-1.59197">
        <ele>66.4</ele>
        <time>2021-12-24T10:01:03Z</time>
      </trkpt>
      <trkpt lat="46.74091" lon="-1.59193">
        <ele>66.2</ele>
        <time>2021-12-24T10:01:04Z</time>
      </trkpt>
      <trkpt lat="46.74093" lon="-1.59185">
        <ele>66.2</ele>
        <time>2021-12-24T10:01:06Z</time>
      </trkpt>
      <trkpt lat="46.74091" lon="-1.59182">
        <ele>66.2</ele>
        <time>2021-12-24T10:01:07Z</time>
      </trkpt>
      <trkpt lat="46.74087" lon="-1.59181">
        <ele>66.4</ele>
        <time>2021-12-24T10:01:08Z</time>
      </trkpt>
      <trkpt lat="46.74079" lon="-1.59179">
        <ele>66.4</ele>
        <time>2021-12-24T10:01:10Z</time>
      </trkpt>
      <trkpt lat="46.74074" lon="-1.59177">
        <ele>66.4</ele>
        <time>2021-12-24T10:01:11Z</time>
      </trkpt>
      <trkpt lat="46.74069" lon="-1.59176">
        <ele>66.4</ele>
        <time>2021-12-24T10:01:12Z</time>
      </trkpt>
      <trkpt lat="46.74062" lon="-1.59174">
        <ele>66.4</ele>
        <time>2021-12-24T10:01:14Z</time>
      </trkpt>
      <trkpt lat="46.74058" lon="-1.59173">
        <ele>66.4</ele>
        <time>2021-12-24T10:01:15Z</time>
      </trkpt>
      <trkpt lat="46.74054" lon="-1.59172">
        <ele>66.4</ele>
        <time>2021-12-24T10:01:16Z</time>
      </trkpt>
      <trkpt lat="46.74046" lon="-1.5917">
        <ele>66.2</ele>
        <time>2021-12-24T10:01:18Z</time>
      </trkpt>
      <trkpt lat="46.7404" lon="-1.59166">
        <ele>66.2</ele>
        <time>2021-12-24T10:01:20Z</time>
      </trkpt>
      <trkpt lat="46.74038" lon="-1.59159">
        <ele>66.2</ele>
        <time>2021-12-24T10:01:22Z</time>
      </trkpt>
      <trkpt lat="46.74039" lon="-1.59152">
        <ele>65.8</ele>
        <time>2021-12-24T10:01:24Z</time>
      </trkpt>
      <trkpt lat="46.7404" lon="-1.59141">
        <ele>65.6</ele>
        <time>2021-12-24T10:01:26Z</time>
      </trkpt>
      <trkpt lat="46.7404" lon="-1.59129">
        <ele>65.6</ele>
        <time>2021-12-24T10:01:28Z</time>
      </trkpt>
      <trkpt lat="46.7404" lon="-1.59122">
        <ele>65.4</ele>
        <time>2021-12-24T10:01:29Z</time>
      </trkpt>
      <trkpt lat="46.7404" lon="-1.59116">
        <ele>65.4</ele>
        <time>2021-12-24T10:01:30Z</time>
      </trkpt>
      <trkpt lat="46.74041" lon="-1.59104">
        <ele>65.2</ele>
        <time>2021-12-24T10:01:32Z</time>
      </trkpt>
      <trkpt lat="46.74041" lon="-1.59094">
        <ele>65.2</ele>
        <time>2021-12-24T10:01:34Z</time>
      </trkpt>
      <trkpt lat="46.7404" lon="-1.59089">
        <ele>65</ele>
        <time>2021-12-24T10:01:35Z</time>
      </trkpt>
      <trkpt lat="46.74039" lon="-1.59085">
        <ele>65</ele>
        <time>2021-12-24T10:01:36Z</time>
      </trkpt>
      <trkpt lat="46.74037" lon="-1.59083">
        <ele>65</ele>
        <time>2021-12-24T10:01:38Z</time>
      </trkpt>
      <trkpt lat="46.74036" lon="-1.59083">
        <ele>64.8</ele>
        <time>2021-12-24T10:01:40Z</time>
      </trkpt>
      <trkpt lat="46.74032" lon="-1.59082">
        <ele>64.6</ele>
        <time>2021-12-24T10:01:48Z</time>
      </trkpt>
      <trkpt lat="46.74029" lon="-1.59081">
        <ele>64.8</ele>
        <time>2021-12-24T10:01:49Z</time>
      </trkpt>
      <trkpt lat="46.74026" lon="-1.59081">
        <ele>64.8</ele>
        <time>2021-12-24T10:01:50Z</time>
      </trkpt>
      <trkpt lat="46.7402" lon="-1.59079">
        <ele>64.8</ele>
        <time>2021-12-24T10:01:52Z</time>
      </trkpt>
      <trkpt lat="46.74016" lon="-1.59071">
        <ele>64.8</ele>
        <time>2021-12-24T10:01:54Z</time>
      </trkpt>
      <trkpt lat="46.74014" lon="-1.5906">
        <ele>64.6</ele>
        <time>2021-12-24T10:01:56Z</time>
      </trkpt>
      <trkpt lat="46.74013" lon="-1.59053">
        <ele>64.6</ele>
        <time>2021-12-24T10:01:57Z</time>
      </trkpt>
      <trkpt lat="46.74012" lon="-1.59047">
        <ele>64.4</ele>
        <time>2021-12-24T10:01:58Z</time>
      </trkpt>
      <trkpt lat="46.74013" lon="-1.59042">
        <ele>64.4</ele>
        <time>2021-12-24T10:01:59Z</time>
      </trkpt>
      <trkpt lat="46.74014" lon="-1.59036">
        <ele>64.2</ele>
        <time>2021-12-24T10:02:00Z</time>
      </trkpt>
      <trkpt lat="46.74015" lon="-1.5903">
        <ele>64</ele>
        <time>2021-12-24T10:02:01Z</time>
      </trkpt>
      <trkpt lat="46.74016" lon="-1.59023">
        <ele>64</ele>
        <time>2021-12-24T10:02:02Z</time>
      </trkpt>
      <trkpt lat="46.74016" lon="-1.59009">
        <ele>63.8</ele>
        <time>2021-12-24T10:02:04Z</time>
      </trkpt>
      <trkpt lat="46.74016" lon="-1.59002">
        <ele>63.8</ele>
        <time>2021-12-24T10:02:05Z</time>
      </trkpt>
      <trkpt lat="46.74017" lon="-1.58994">
        <ele>63.8</ele>
        <time>2021-12-24T10:02:06Z</time>
      </trkpt>
      <trkpt lat="46.74019" lon="-1.5898">
        <ele>63.8</ele>
        <time>2021-12-24T10:02:08Z</time>
      </trkpt>
      <trkpt lat="46.7402" lon="-1.58973">
        <ele>63.8</ele>
        <time>2021-12-24T10:02:09Z</time>
      </trkpt>
      <trkpt lat="46.74021" lon="-1.58966">
        <ele>63.8</ele>
        <time>2021-12-24T10:02:10Z</time>
      </trkpt>
      <trkpt lat="46.74021" lon="-1.58953">
        <ele>63.8</ele>
        <time>2021-12-24T10:02:12Z</time>
      </trkpt>
      <trkpt lat="46.74022" lon="-1.58946">
        <ele>63.8</ele>
        <time>2021-12-24T10:02:13Z</time>
      </trkpt>
      <trkpt lat="46.74023" lon="-1.5894">
        <ele>64</ele>
        <time>2021-12-24T10:02:14Z</time>
      </trkpt>
      <trkpt lat="46.74026" lon="-1.58927">
        <ele>64</ele>
        <time>2021-12-24T10:02:16Z</time>
      </trkpt>
      <trkpt lat="46.74027" lon="-1.5892">
        <ele>63.6</ele>
        <time>2021-12-24T10:02:17Z</time>
      </trkpt>
      <trkpt lat="46.74028" lon="-1.58913">
        <ele>63.8</ele>
        <time>2021-12-24T10:02:18Z</time>
      </trkpt>
      <trkpt lat="46.74029" lon="-1.58906">
        <ele>64.2</ele>
        <time>2021-12-24T10:02:19Z</time>
      </trkpt>
      <trkpt lat="46.74032" lon="-1.58899">
        <ele>65</ele>
        <time>2021-12-24T10:02:20Z</time>
      </trkpt>
      <trkpt lat="46.74034" lon="-1.58892">
        <ele>64.6</ele>
        <time>2021-12-24T10:02:21Z</time>
      </trkpt>
      <trkpt lat="46.74035" lon="-1.58886">
        <ele>64.8</ele>
        <time>2021-12-24T10:02:22Z</time>
      </trkpt>
      <trkpt lat="46.74039" lon="-1.58874">
        <ele>64.8</ele>
        <time>2021-12-24T10:02:24Z</time>
      </trkpt>
      <trkpt lat="46.74043" lon="-1.58863">
        <ele>65</ele>
        <time>2021-12-24T10:02:26Z</time>
      </trkpt>
      <trkpt lat="46.74046" lon="-1.58856">
        <ele>65.2</ele>
        <time>2021-12-24T10:02:27Z</time>
      </trkpt>
      <trkpt lat="46.74048" lon="-1.5885">
        <ele>65.2</ele>
        <time>2021-12-24T10:02:28Z</time>
      </trkpt>
      <trkpt lat="46.74054" lon="-1.58836">
        <ele>65.2</ele>
        <time>2021-12-24T10:02:30Z</time>
      </trkpt>
      <trkpt lat="46.74061" lon="-1.58823">
        <ele>65</ele>
        <time>2021-12-24T10:02:32Z</time>
      </trkpt>
      <trkpt lat="46.74069" lon="-1.58812">
        <ele>64.8</ele>
        <time>2021-12-24T10:02:34Z</time>
      </trkpt>
      <trkpt lat="46.74077" lon="-1.58803">
        <ele>64.8</ele>
        <time>2021-12-24T10:02:36Z</time>
      </trkpt>
      <trkpt lat="46.74081" lon="-1.58799">
        <ele>64.6</ele>
        <time>2021-12-24T10:02:37Z</time>
      </trkpt>
      <trkpt lat="46.74085" lon="-1.58793">
        <ele>65.4</ele>
        <time>2021-12-24T10:02:38Z</time>
      </trkpt>
      <trkpt lat="46.74089" lon="-1.58787">
        <ele>65</ele>
        <time>2021-12-24T10:02:39Z</time>
      </trkpt>
      <trkpt lat="46.74093" lon="-1.58781">
        <ele>64.6</ele>
        <time>2021-12-24T10:02:40Z</time>
      </trkpt>
      <trkpt lat="46.74097" lon="-1.58775">
        <ele>64</ele>
        <time>2021-12-24T10:02:41Z</time>
      </trkpt>
      <trkpt lat="46.74101" lon="-1.58768">
        <ele>63.4</ele>
        <time>2021-12-24T10:02:42Z</time>
      </trkpt>
      <trkpt lat="46.74107" lon="-1.58753">
        <ele>64</ele>
        <time>2021-12-24T10:02:44Z</time>
      </trkpt>
      <trkpt lat="46.74114" lon="-1.58738">
        <ele>63.8</ele>
        <time>2021-12-24T10:02:46Z</time>
      </trkpt>
      <trkpt lat="46.7412" lon="-1.58722">
        <ele>63.6</ele>
        <time>2021-12-24T10:02:48Z</time>
      </trkpt>
      <trkpt lat="46.74126" lon="-1.58707">
        <ele>63.4</ele>
        <time>2021-12-24T10:02:50Z</time>
      </trkpt>
      <trkpt lat="46.74133" lon="-1.58692">
        <ele>63.2</ele>
        <time>2021-12-24T10:02:52Z</time>
      </trkpt>
      <trkpt lat="46.7414" lon="-1.58677">
        <ele>62.6</ele>
        <time>2021-12-24T10:02:54Z</time>
      </trkpt>
      <trkpt lat="46.74144" lon="-1.5867">
        <ele>62.4</ele>
        <time>2021-12-24T10:02:55Z</time>
      </trkpt>
      <trkpt lat="46.74148" lon="-1.58664">
        <ele>62.2</ele>
        <time>2021-12-24T10:02:56Z</time>
      </trkpt>
      <trkpt lat="46.74155" lon="-1.58651">
        <ele>61.6</ele>
        <time>2021-12-24T10:02:58Z</time>
      </trkpt>
      <trkpt lat="46.74162" lon="-1.58638">
        <ele>61.2</ele>
        <time>2021-12-24T10:03:00Z</time>
      </trkpt>
      <trkpt lat="46.74166" lon="-1.5863">
        <ele>61.2</ele>
        <time>2021-12-24T10:03:01Z</time>
      </trkpt>
      <trkpt lat="46.7417" lon="-1.58623">
        <ele>61</ele>
        <time>2021-12-24T10:03:02Z</time>
      </trkpt>
      <trkpt lat="46.74178" lon="-1.58609">
        <ele>60.6</ele>
        <time>2021-12-24T10:03:04Z</time>
      </trkpt>
      <trkpt lat="46.74185" lon="-1.58593">
        <ele>60.2</ele>
        <time>2021-12-24T10:03:06Z</time>
      </trkpt>
      <trkpt lat="46.74194" lon="-1.58578">
        <ele>59.8</ele>
        <time>2021-12-24T10:03:08Z</time>
      </trkpt>
      <trkpt lat="46.74202" lon="-1.58562">
        <ele>59.4</ele>
        <time>2021-12-24T10:03:10Z</time>
      </trkpt>
      <trkpt lat="46.74206" lon="-1.58555">
        <ele>59.2</ele>
        <time>2021-12-24T10:03:11Z</time>
      </trkpt>
      <trkpt lat="46.74211" lon="-1.58548">
        <ele>59.2</ele>
        <time>2021-12-24T10:03:12Z</time>
      </trkpt>
      <trkpt lat="46.74221" lon="-1.58534">
        <ele>58.8</ele>
        <time>2021-12-24T10:03:14Z</time>
      </trkpt>
      <trkpt lat="46.74226" lon="-1.58527">
        <ele>58.6</ele>
        <time>2021-12-24T10:03:15Z</time>
      </trkpt>
      <trkpt lat="46.7423" lon="-1.58519">
        <ele>58.6</ele>
        <time>2021-12-24T10:03:16Z</time>
      </trkpt>
      <trkpt lat="46.74238" lon="-1.58503">
        <ele>58.2</ele>
        <time>2021-12-24T10:03:18Z</time>
      </trkpt>
      <trkpt lat="46.74241" lon="-1.58494">
        <ele>58.2</ele>
        <time>2021-12-24T10:03:19Z</time>
      </trkpt>
      <trkpt lat="46.74245" lon="-1.58486">
        <ele>58</ele>
        <time>2021-12-24T10:03:20Z</time>
      </trkpt>
      <trkpt lat="46.74248" lon="-1.58477">
        <ele>57.8</ele>
        <time>2021-12-24T10:03:21Z</time>
      </trkpt>
      <trkpt lat="46.74251" lon="-1.58468">
        <ele>57.6</ele>
        <time>2021-12-24T10:03:22Z</time>
      </trkpt>
      <trkpt lat="46.74254" lon="-1.58459">
        <ele>57.4</ele>
        <time>2021-12-24T10:03:23Z</time>
      </trkpt>
      <trkpt lat="46.74257" lon="-1.58451">
        <ele>57.2</ele>
        <time>2021-12-24T10:03:24Z</time>
      </trkpt>
      <trkpt lat="46.74262" lon="-1.58434">
        <ele>57</ele>
        <time>2021-12-24T10:03:26Z</time>
      </trkpt>
      <trkpt lat="46.74264" lon="-1.58427">
        <ele>56.8</ele>
        <time>2021-12-24T10:03:27Z</time>
      </trkpt>
      <trkpt lat="46.74266" lon="-1.58418">
        <ele>56.6</ele>
        <time>2021-12-24T10:03:28Z</time>
      </trkpt>
      <trkpt lat="46.74271" lon="-1.58402">
        <ele>56.4</ele>
        <time>2021-12-24T10:03:30Z</time>
      </trkpt>
      <trkpt lat="46.74275" lon="-1.58385">
        <ele>56</ele>
        <time>2021-12-24T10:03:32Z</time>
      </trkpt>
      <trkpt lat="46.74279" lon="-1.58369">
        <ele>55.8</ele>
        <time>2021-12-24T10:03:34Z</time>
      </trkpt>
      <trkpt lat="46.74284" lon="-1.58352">
        <ele>55.6</ele>
        <time>2021-12-24T10:03:36Z</time>
      </trkpt>
      <trkpt lat="46.74287" lon="-1.58345">
        <ele>55.6</ele>
        <time>2021-12-24T10:03:37Z</time>
      </trkpt>
      <trkpt lat="46.7429" lon="-1.58337">
        <ele>55.6</ele>
        <time>2021-12-24T10:03:38Z</time>
      </trkpt>
      <trkpt lat="46.74292" lon="-1.58329">
        <ele>55.6</ele>
        <time>2021-12-24T10:03:39Z</time>
      </trkpt>
      <trkpt lat="46.74294" lon="-1.58321">
        <ele>55.4</ele>
        <time>2021-12-24T10:03:40Z</time>
      </trkpt>
      <trkpt lat="46.74296" lon="-1.58313">
        <ele>55.2</ele>
        <time>2021-12-24T10:03:41Z</time>
      </trkpt>
      <trkpt lat="46.74299" lon="-1.58305">
        <ele>55.2</ele>
        <time>2021-12-24T10:03:42Z</time>
      </trkpt>
      <trkpt lat="46.74304" lon="-1.58289">
        <ele>55</ele>
        <time>2021-12-24T10:03:44Z</time>
      </trkpt>
      <trkpt lat="46.74305" lon="-1.58282">
        <ele>55</ele>
        <time>2021-12-24T10:03:45Z</time>
      </trkpt>
      <trkpt lat="46.74307" lon="-1.58276">
        <ele>55</ele>
        <time>2021-12-24T10:03:46Z</time>
      </trkpt>
      <trkpt lat="46.74312" lon="-1.58263">
        <ele>55</ele>
        <time>2021-12-24T10:03:48Z</time>
      </trkpt>
      <trkpt lat="46.74315" lon="-1.58251">
        <ele>55</ele>
        <time>2021-12-24T10:03:50Z</time>
      </trkpt>
      <trkpt lat="46.74318" lon="-1.58243">
        <ele>55</ele>
        <time>2021-12-24T10:03:52Z</time>
      </trkpt>
      <trkpt lat="46.7432" lon="-1.58243">
        <ele>55</ele>
        <time>2021-12-24T10:03:53Z</time>
      </trkpt>
      <trkpt lat="46.74323" lon="-1.58241">
        <ele>55.2</ele>
        <time>2021-12-24T10:03:54Z</time>
      </trkpt>
      <trkpt lat="46.74325" lon="-1.58238">
        <ele>54.2</ele>
        <time>2021-12-24T10:03:55Z</time>
      </trkpt>
      <trkpt lat="46.74327" lon="-1.58235">
        <ele>54.4</ele>
        <time>2021-12-24T10:03:56Z</time>
      </trkpt>
      <trkpt lat="46.74329" lon="-1.58231">
        <ele>55.4</ele>
        <time>2021-12-24T10:03:57Z</time>
      </trkpt>
      <trkpt lat="46.74331" lon="-1.58227">
        <ele>55.8</ele>
        <time>2021-12-24T10:03:58Z</time>
      </trkpt>
      <trkpt lat="46.74333" lon="-1.58216">
        <ele>55.8</ele>
        <time>2021-12-24T10:04:00Z</time>
      </trkpt>
      <trkpt lat="46.74334" lon="-1.58209">
        <ele>56</ele>
        <time>2021-12-24T10:04:01Z</time>
      </trkpt>
      <trkpt lat="46.74334" lon="-1.58203">
        <ele>56</ele>
        <time>2021-12-24T10:04:02Z</time>
      </trkpt>
      <trkpt lat="46.74333" lon="-1.58188">
        <ele>56.2</ele>
        <time>2021-12-24T10:04:04Z</time>
      </trkpt>
      <trkpt lat="46.7433" lon="-1.58172">
        <ele>56.2</ele>
        <time>2021-12-24T10:04:06Z</time>
      </trkpt>
      <trkpt lat="46.74327" lon="-1.58156">
        <ele>56.2</ele>
        <time>2021-12-24T10:04:08Z</time>
      </trkpt>
      <trkpt lat="46.74325" lon="-1.5814">
        <ele>56.2</ele>
        <time>2021-12-24T10:04:10Z</time>
      </trkpt>
      <trkpt lat="46.74322" lon="-1.58123">
        <ele>56</ele>
        <time>2021-12-24T10:04:12Z</time>
      </trkpt>
      <trkpt lat="46.7432" lon="-1.58106">
        <ele>55.8</ele>
        <time>2021-12-24T10:04:14Z</time>
      </trkpt>
      <trkpt lat="46.74318" lon="-1.5809">
        <ele>56.2</ele>
        <time>2021-12-24T10:04:16Z</time>
      </trkpt>
      <trkpt lat="46.74315" lon="-1.58074">
        <ele>55.4</ele>
        <time>2021-12-24T10:04:18Z</time>
      </trkpt>
      <trkpt lat="46.74313" lon="-1.58057">
        <ele>55</ele>
        <time>2021-12-24T10:04:20Z</time>
      </trkpt>
      <trkpt lat="46.74312" lon="-1.58048">
        <ele>54.8</ele>
        <time>2021-12-24T10:04:21Z</time>
      </trkpt>
      <trkpt lat="46.7431" lon="-1.58039">
        <ele>54.6</ele>
        <time>2021-12-24T10:04:22Z</time>
      </trkpt>
      <trkpt lat="46.74309" lon="-1.5803">
        <ele>54.6</ele>
        <time>2021-12-24T10:04:23Z</time>
      </trkpt>
      <trkpt lat="46.74308" lon="-1.58022">
        <ele>55.2</ele>
        <time>2021-12-24T10:04:24Z</time>
      </trkpt>
      <trkpt lat="46.74304" lon="-1.58003">
        <ele>55.2</ele>
        <time>2021-12-24T10:04:26Z</time>
      </trkpt>
      <trkpt lat="46.74302" lon="-1.57985">
        <ele>55.2</ele>
        <time>2021-12-24T10:04:28Z</time>
      </trkpt>
      <trkpt lat="46.743" lon="-1.57976">
        <ele>55.2</ele>
        <time>2021-12-24T10:04:29Z</time>
      </trkpt>
      <trkpt lat="46.74298" lon="-1.57967">
        <ele>55</ele>
        <time>2021-12-24T10:04:30Z</time>
      </trkpt>
      <trkpt lat="46.74297" lon="-1.57958">
        <ele>55</ele>
        <time>2021-12-24T10:04:31Z</time>
      </trkpt>
      <trkpt lat="46.74295" lon="-1.57949">
        <ele>55</ele>
        <time>2021-12-24T10:04:32Z</time>
      </trkpt>
      <trkpt lat="46.74292" lon="-1.5793">
        <ele>55</ele>
        <time>2021-12-24T10:04:34Z</time>
      </trkpt>
      <trkpt lat="46.74289" lon="-1.5791">
        <ele>55</ele>
        <time>2021-12-24T10:04:36Z</time>
      </trkpt>
      <trkpt lat="46.74286" lon="-1.57891">
        <ele>55.2</ele>
        <time>2021-12-24T10:04:38Z</time>
      </trkpt>
      <trkpt lat="46.74282" lon="-1.57871">
        <ele>55.2</ele>
        <time>2021-12-24T10:04:40Z</time>
      </trkpt>
      <trkpt lat="46.74278" lon="-1.57851">
        <ele>55.2</ele>
        <time>2021-12-24T10:04:42Z</time>
      </trkpt>
      <trkpt lat="46.74275" lon="-1.57832">
        <ele>54.8</ele>
        <time>2021-12-24T10:04:44Z</time>
      </trkpt>
      <trkpt lat="46.74272" lon="-1.57813">
        <ele>55</ele>
        <time>2021-12-24T10:04:46Z</time>
      </trkpt>
      <trkpt lat="46.74268" lon="-1.57793">
        <ele>55.4</ele>
        <time>2021-12-24T10:04:48Z</time>
      </trkpt>
      <trkpt lat="46.74266" lon="-1.57774">
        <ele>55.2</ele>
        <time>2021-12-24T10:04:50Z</time>
      </trkpt>
      <trkpt lat="46.74263" lon="-1.57756">
        <ele>55</ele>
        <time>2021-12-24T10:04:52Z</time>
      </trkpt>
      <trkpt lat="46.7426" lon="-1.57746">
        <ele>54.8</ele>
        <time>2021-12-24T10:04:53Z</time>
      </trkpt>
      <trkpt lat="46.74258" lon="-1.57736">
        <ele>54.6</ele>
        <time>2021-12-24T10:04:54Z</time>
      </trkpt>
      <trkpt lat="46.74256" lon="-1.57726">
        <ele>54.6</ele>
        <time>2021-12-24T10:04:55Z</time>
      </trkpt>
      <trkpt lat="46.74255" lon="-1.57717">
        <ele>54.6</ele>
        <time>2021-12-24T10:04:56Z</time>
      </trkpt>
      <trkpt lat="46.74251" lon="-1.57697">
        <ele>54.8</ele>
        <time>2021-12-24T10:04:58Z</time>
      </trkpt>
      <trkpt lat="46.74248" lon="-1.57678">
        <ele>54.8</ele>
        <time>2021-12-24T10:05:00Z</time>
      </trkpt>
      <trkpt lat="46.74244" lon="-1.57658">
        <ele>54.8</ele>
        <time>2021-12-24T10:05:02Z</time>
      </trkpt>
      <trkpt lat="46.74243" lon="-1.57648">
        <ele>54.8</ele>
        <time>2021-12-24T10:05:03Z</time>
      </trkpt>
      <trkpt lat="46.74241" lon="-1.57639">
        <ele>54.8</ele>
        <time>2021-12-24T10:05:04Z</time>
      </trkpt>
      <trkpt lat="46.74238" lon="-1.57619">
        <ele>54.8</ele>
        <time>2021-12-24T10:05:06Z</time>
      </trkpt>
      <trkpt lat="46.74236" lon="-1.5761">
        <ele>54.8</ele>
        <time>2021-12-24T10:05:07Z</time>
      </trkpt>
      <trkpt lat="46.74235" lon="-1.576">
        <ele>54.6</ele>
        <time>2021-12-24T10:05:08Z</time>
      </trkpt>
      <trkpt lat="46.74231" lon="-1.5758">
        <ele>54.8</ele>
        <time>2021-12-24T10:05:10Z</time>
      </trkpt>
      <trkpt lat="46.74227" lon="-1.57562">
        <ele>55</ele>
        <time>2021-12-24T10:05:12Z</time>
      </trkpt>
      <trkpt lat="46.74224" lon="-1.57543">
        <ele>55.2</ele>
        <time>2021-12-24T10:05:14Z</time>
      </trkpt>
      <trkpt lat="46.74221" lon="-1.57523">
        <ele>55.2</ele>
        <time>2021-12-24T10:05:16Z</time>
      </trkpt>
      <trkpt lat="46.74217" lon="-1.57504">
        <ele>55.4</ele>
        <time>2021-12-24T10:05:18Z</time>
      </trkpt>
      <trkpt lat="46.74213" lon="-1.57484">
        <ele>55.6</ele>
        <time>2021-12-24T10:05:20Z</time>
      </trkpt>
      <trkpt lat="46.7421" lon="-1.57465">
        <ele>55.8</ele>
        <time>2021-12-24T10:05:22Z</time>
      </trkpt>
      <trkpt lat="46.74209" lon="-1.57455">
        <ele>55.8</ele>
        <time>2021-12-24T10:05:23Z</time>
      </trkpt>
      <trkpt lat="46.74207" lon="-1.57446">
        <ele>55.8</ele>
        <time>2021-12-24T10:05:24Z</time>
      </trkpt>
      <trkpt lat="46.74204" lon="-1.57428">
        <ele>56</ele>
        <time>2021-12-24T10:05:26Z</time>
      </trkpt>
      <trkpt lat="46.74202" lon="-1.57419">
        <ele>56</ele>
        <time>2021-12-24T10:05:27Z</time>
      </trkpt>
      <trkpt lat="46.742" lon="-1.57408">
        <ele>56</ele>
        <time>2021-12-24T10:05:28Z</time>
      </trkpt>
      <trkpt lat="46.74196" lon="-1.57387">
        <ele>56</ele>
        <time>2021-12-24T10:05:30Z</time>
      </trkpt>
      <trkpt lat="46.74191" lon="-1.57366">
        <ele>56</ele>
        <time>2021-12-24T10:05:32Z</time>
      </trkpt>
      <trkpt lat="46.7419" lon="-1.57355">
        <ele>56</ele>
        <time>2021-12-24T10:05:33Z</time>
      </trkpt>
      <trkpt lat="46.74188" lon="-1.57344">
        <ele>56</ele>
        <time>2021-12-24T10:05:34Z</time>
      </trkpt>
      <trkpt lat="46.74184" lon="-1.57323">
        <ele>56</ele>
        <time>2021-12-24T10:05:36Z</time>
      </trkpt>
      <trkpt lat="46.7418" lon="-1.57301">
        <ele>56</ele>
        <time>2021-12-24T10:05:38Z</time>
      </trkpt>
      <trkpt lat="46.74176" lon="-1.57279">
        <ele>56</ele>
        <time>2021-12-24T10:05:40Z</time>
      </trkpt>
      <trkpt lat="46.74172" lon="-1.57256">
        <ele>56</ele>
        <time>2021-12-24T10:05:42Z</time>
      </trkpt>
      <trkpt lat="46.74168" lon="-1.57233">
        <ele>56.2</ele>
        <time>2021-12-24T10:05:44Z</time>
      </trkpt>
      <trkpt lat="46.74164" lon="-1.5721">
        <ele>56.2</ele>
        <time>2021-12-24T10:05:46Z</time>
      </trkpt>
      <trkpt lat="46.7416" lon="-1.57187">
        <ele>56.4</ele>
        <time>2021-12-24T10:05:48Z</time>
      </trkpt>
      <trkpt lat="46.74158" lon="-1.57176">
        <ele>56.4</ele>
        <time>2021-12-24T10:05:49Z</time>
      </trkpt>
      <trkpt lat="46.74156" lon="-1.57165">
        <ele>56.4</ele>
        <time>2021-12-24T10:05:50Z</time>
      </trkpt>
      <trkpt lat="46.74153" lon="-1.57143">
        <ele>56.6</ele>
        <time>2021-12-24T10:05:52Z</time>
      </trkpt>
      <trkpt lat="46.74149" lon="-1.57122">
        <ele>56.6</ele>
        <time>2021-12-24T10:05:54Z</time>
      </trkpt>
      <trkpt lat="46.74147" lon="-1.57102">
        <ele>56.6</ele>
        <time>2021-12-24T10:05:56Z</time>
      </trkpt>
      <trkpt lat="46.74143" lon="-1.57082">
        <ele>56.6</ele>
        <time>2021-12-24T10:05:58Z</time>
      </trkpt>
      <trkpt lat="46.74142" lon="-1.57073">
        <ele>56.6</ele>
        <time>2021-12-24T10:05:59Z</time>
      </trkpt>
      <trkpt lat="46.7414" lon="-1.57064">
        <ele>56.4</ele>
        <time>2021-12-24T10:06:00Z</time>
      </trkpt>
      <trkpt lat="46.74137" lon="-1.57043">
        <ele>56.6</ele>
        <time>2021-12-24T10:06:02Z</time>
      </trkpt>
      <trkpt lat="46.74133" lon="-1.57023">
        <ele>56.2</ele>
        <time>2021-12-24T10:06:04Z</time>
      </trkpt>
      <trkpt lat="46.7413" lon="-1.57003">
        <ele>55.8</ele>
        <time>2021-12-24T10:06:06Z</time>
      </trkpt>
      <trkpt lat="46.74129" lon="-1.56994">
        <ele>55.8</ele>
        <time>2021-12-24T10:06:07Z</time>
      </trkpt>
      <trkpt lat="46.74128" lon="-1.56985">
        <ele>55.6</ele>
        <time>2021-12-24T10:06:08Z</time>
      </trkpt>
      <trkpt lat="46.74125" lon="-1.56975">
        <ele>55.6</ele>
        <time>2021-12-24T10:06:09Z</time>
      </trkpt>
      <trkpt lat="46.74123" lon="-1.56965">
        <ele>55.4</ele>
        <time>2021-12-24T10:06:10Z</time>
      </trkpt>
      <trkpt lat="46.7412" lon="-1.56946">
        <ele>55.4</ele>
        <time>2021-12-24T10:06:12Z</time>
      </trkpt>
      <trkpt lat="46.74117" lon="-1.56928">
        <ele>55.2</ele>
        <time>2021-12-24T10:06:14Z</time>
      </trkpt>
      <trkpt lat="46.74114" lon="-1.5691">
        <ele>55</ele>
        <time>2021-12-24T10:06:16Z</time>
      </trkpt>
      <trkpt lat="46.74112" lon="-1.56891">
        <ele>54.8</ele>
        <time>2021-12-24T10:06:18Z</time>
      </trkpt>
      <trkpt lat="46.74108" lon="-1.56873">
        <ele>54.6</ele>
        <time>2021-12-24T10:06:20Z</time>
      </trkpt>
      <trkpt lat="46.74107" lon="-1.56863">
        <ele>54.6</ele>
        <time>2021-12-24T10:06:21Z</time>
      </trkpt>
      <trkpt lat="46.74105" lon="-1.56854">
        <ele>54.4</ele>
        <time>2021-12-24T10:06:22Z</time>
      </trkpt>
      <trkpt lat="46.74101" lon="-1.56835">
        <ele>54.4</ele>
        <time>2021-12-24T10:06:24Z</time>
      </trkpt>
      <trkpt lat="46.74098" lon="-1.56817">
        <ele>54.2</ele>
        <time>2021-12-24T10:06:26Z</time>
      </trkpt>
      <trkpt lat="46.74095" lon="-1.56808">
        <ele>54.2</ele>
        <time>2021-12-24T10:06:27Z</time>
      </trkpt>
      <trkpt lat="46.74093" lon="-1.56798">
        <ele>54</ele>
        <time>2021-12-24T10:06:28Z</time>
      </trkpt>
      <trkpt lat="46.74092" lon="-1.56789">
        <ele>54</ele>
        <time>2021-12-24T10:06:29Z</time>
      </trkpt>
      <trkpt lat="46.74091" lon="-1.5678">
        <ele>54</ele>
        <time>2021-12-24T10:06:30Z</time>
      </trkpt>
      <trkpt lat="46.74089" lon="-1.56764">
        <ele>54</ele>
        <time>2021-12-24T10:06:32Z</time>
      </trkpt>
      <trkpt lat="46.74087" lon="-1.56754">
        <ele>54</ele>
        <time>2021-12-24T10:06:33Z</time>
      </trkpt>
      <trkpt lat="46.74086" lon="-1.56745">
        <ele>54</ele>
        <time>2021-12-24T10:06:34Z</time>
      </trkpt>
      <trkpt lat="46.74083" lon="-1.56727">
        <ele>53.8</ele>
        <time>2021-12-24T10:06:36Z</time>
      </trkpt>
      <trkpt lat="46.7408" lon="-1.56711">
        <ele>53.8</ele>
        <time>2021-12-24T10:06:38Z</time>
      </trkpt>
      <trkpt lat="46.74077" lon="-1.56698">
        <ele>54.2</ele>
        <time>2021-12-24T10:06:40Z</time>
      </trkpt>
      <trkpt lat="46.74074" lon="-1.56685">
        <ele>54.6</ele>
        <time>2021-12-24T10:06:42Z</time>
      </trkpt>
      <trkpt lat="46.74071" lon="-1.5667">
        <ele>55.4</ele>
        <time>2021-12-24T10:06:44Z</time>
      </trkpt>
      <trkpt lat="46.74068" lon="-1.56653">
        <ele>54.8</ele>
        <time>2021-12-24T10:06:46Z</time>
      </trkpt>
      <trkpt lat="46.74066" lon="-1.56645">
        <ele>54.8</ele>
        <time>2021-12-24T10:06:47Z</time>
      </trkpt>
      <trkpt lat="46.74064" lon="-1.56637">
        <ele>55</ele>
        <time>2021-12-24T10:06:48Z</time>
      </trkpt>
      <trkpt lat="46.74062" lon="-1.5662">
        <ele>55</ele>
        <time>2021-12-24T10:06:50Z</time>
      </trkpt>
      <trkpt lat="46.7406" lon="-1.56611">
        <ele>55</ele>
        <time>2021-12-24T10:06:51Z</time>
      </trkpt>
      <trkpt lat="46.74058" lon="-1.56603">
        <ele>55.2</ele>
        <time>2021-12-24T10:06:52Z</time>
      </trkpt>
      <trkpt lat="46.74054" lon="-1.56585">
        <ele>55.2</ele>
        <time>2021-12-24T10:06:54Z</time>
      </trkpt>
      <trkpt lat="46.74051" lon="-1.56568">
        <ele>55.2</ele>
        <time>2021-12-24T10:06:56Z</time>
      </trkpt>
      <trkpt lat="46.74048" lon="-1.56551">
        <ele>55.2</ele>
        <time>2021-12-24T10:06:58Z</time>
      </trkpt>
      <trkpt lat="46.74047" lon="-1.56535">
        <ele>55.2</ele>
        <time>2021-12-24T10:07:00Z</time>
      </trkpt>
      <trkpt lat="46.74046" lon="-1.56527">
        <ele>55.2</ele>
        <time>2021-12-24T10:07:01Z</time>
      </trkpt>
      <trkpt lat="46.74044" lon="-1.56518">
        <ele>55.2</ele>
        <time>2021-12-24T10:07:02Z</time>
      </trkpt>
      <trkpt lat="46.74043" lon="-1.5651">
        <ele>55.2</ele>
        <time>2021-12-24T10:07:03Z</time>
      </trkpt>
      <trkpt lat="46.74042" lon="-1.56502">
        <ele>55.2</ele>
        <time>2021-12-24T10:07:04Z</time>
      </trkpt>
      <trkpt lat="46.7404" lon="-1.56494">
        <ele>55.2</ele>
        <time>2021-12-24T10:07:05Z</time>
      </trkpt>
      <trkpt lat="46.74038" lon="-1.56486">
        <ele>55.2</ele>
        <time>2021-12-24T10:07:06Z</time>
      </trkpt>
      <trkpt lat="46.74035" lon="-1.5647">
        <ele>55.4</ele>
        <time>2021-12-24T10:07:08Z</time>
      </trkpt>
      <trkpt lat="46.74033" lon="-1.56453">
        <ele>55.4</ele>
        <time>2021-12-24T10:07:10Z</time>
      </trkpt>
      <trkpt lat="46.74032" lon="-1.56445">
        <ele>55.4</ele>
        <time>2021-12-24T10:07:11Z</time>
      </trkpt>
      <trkpt lat="46.74031" lon="-1.56437">
        <ele>55.4</ele>
        <time>2021-12-24T10:07:12Z</time>
      </trkpt>
      <trkpt lat="46.74029" lon="-1.56429">
        <ele>55.4</ele>
        <time>2021-12-24T10:07:13Z</time>
      </trkpt>
      <trkpt lat="46.74027" lon="-1.56419">
        <ele>55.4</ele>
        <time>2021-12-24T10:07:14Z</time>
      </trkpt>
      <trkpt lat="46.74024" lon="-1.564">
        <ele>55.4</ele>
        <time>2021-12-24T10:07:16Z</time>
      </trkpt>
      <trkpt lat="46.7402" lon="-1.56381">
        <ele>55.6</ele>
        <time>2021-12-24T10:07:18Z</time>
      </trkpt>
      <trkpt lat="46.74019" lon="-1.56372">
        <ele>55.6</ele>
        <time>2021-12-24T10:07:19Z</time>
      </trkpt>
      <trkpt lat="46.74017" lon="-1.56363">
        <ele>55.6</ele>
        <time>2021-12-24T10:07:20Z</time>
      </trkpt>
      <trkpt lat="46.74014" lon="-1.56354">
        <ele>55.6</ele>
        <time>2021-12-24T10:07:21Z</time>
      </trkpt>
      <trkpt lat="46.74013" lon="-1.56345">
        <ele>55.6</ele>
        <time>2021-12-24T10:07:22Z</time>
      </trkpt>
      <trkpt lat="46.74011" lon="-1.56336">
        <ele>55.6</ele>
        <time>2021-12-24T10:07:23Z</time>
      </trkpt>
      <trkpt lat="46.74009" lon="-1.56326">
        <ele>55.6</ele>
        <time>2021-12-24T10:07:24Z</time>
      </trkpt>
      <trkpt lat="46.74008" lon="-1.56317">
        <ele>55.8</ele>
        <time>2021-12-24T10:07:25Z</time>
      </trkpt>
      <trkpt lat="46.74006" lon="-1.56307">
        <ele>55.6</ele>
        <time>2021-12-24T10:07:26Z</time>
      </trkpt>
      <trkpt lat="46.74003" lon="-1.56289">
        <ele>55.8</ele>
        <time>2021-12-24T10:07:28Z</time>
      </trkpt>
      <trkpt lat="46.74" lon="-1.56273">
        <ele>55.8</ele>
        <time>2021-12-24T10:07:30Z</time>
      </trkpt>
      <trkpt lat="46.73997" lon="-1.56256">
        <ele>56</ele>
        <time>2021-12-24T10:07:32Z</time>
      </trkpt>
      <trkpt lat="46.73994" lon="-1.5624">
        <ele>56</ele>
        <time>2021-12-24T10:07:34Z</time>
      </trkpt>
      <trkpt lat="46.73993" lon="-1.56231">
        <ele>56</ele>
        <time>2021-12-24T10:07:35Z</time>
      </trkpt>
      <trkpt lat="46.73992" lon="-1.56224">
        <ele>56</ele>
        <time>2021-12-24T10:07:36Z</time>
      </trkpt>
      <trkpt lat="46.73991" lon="-1.56215">
        <ele>56.2</ele>
        <time>2021-12-24T10:07:37Z</time>
      </trkpt>
      <trkpt lat="46.73989" lon="-1.56206">
        <ele>56.2</ele>
        <time>2021-12-24T10:07:38Z</time>
      </trkpt>
      <trkpt lat="46.73987" lon="-1.56197">
        <ele>56.2</ele>
        <time>2021-12-24T10:07:39Z</time>
      </trkpt>
      <trkpt lat="46.73985" lon="-1.56188">
        <ele>56.4</ele>
        <time>2021-12-24T10:07:40Z</time>
      </trkpt>
      <trkpt lat="46.73982" lon="-1.56171">
        <ele>56.4</ele>
        <time>2021-12-24T10:07:42Z</time>
      </trkpt>
      <trkpt lat="46.73981" lon="-1.56162">
        <ele>56.4</ele>
        <time>2021-12-24T10:07:43Z</time>
      </trkpt>
      <trkpt lat="46.73979" lon="-1.56154">
        <ele>56.4</ele>
        <time>2021-12-24T10:07:44Z</time>
      </trkpt>
      <trkpt lat="46.73975" lon="-1.56137">
        <ele>56.6</ele>
        <time>2021-12-24T10:07:46Z</time>
      </trkpt>
      <trkpt lat="46.73974" lon="-1.56128">
        <ele>56.8</ele>
        <time>2021-12-24T10:07:47Z</time>
      </trkpt>
      <trkpt lat="46.73973" lon="-1.56119">
        <ele>56.8</ele>
        <time>2021-12-24T10:07:48Z</time>
      </trkpt>
      <trkpt lat="46.73971" lon="-1.5611">
        <ele>57</ele>
        <time>2021-12-24T10:07:49Z</time>
      </trkpt>
      <trkpt lat="46.7397" lon="-1.56102">
        <ele>57.2</ele>
        <time>2021-12-24T10:07:50Z</time>
      </trkpt>
      <trkpt lat="46.73967" lon="-1.56083">
        <ele>57.2</ele>
        <time>2021-12-24T10:07:52Z</time>
      </trkpt>
      <trkpt lat="46.73964" lon="-1.56064">
        <ele>57.4</ele>
        <time>2021-12-24T10:07:54Z</time>
      </trkpt>
      <trkpt lat="46.7396" lon="-1.56045">
        <ele>57.6</ele>
        <time>2021-12-24T10:07:56Z</time>
      </trkpt>
      <trkpt lat="46.73959" lon="-1.56036">
        <ele>57.6</ele>
        <time>2021-12-24T10:07:57Z</time>
      </trkpt>
      <trkpt lat="46.73959" lon="-1.56027">
        <ele>57.8</ele>
        <time>2021-12-24T10:07:58Z</time>
      </trkpt>
      <trkpt lat="46.73957" lon="-1.56018">
        <ele>57.8</ele>
        <time>2021-12-24T10:07:59Z</time>
      </trkpt>
      <trkpt lat="46.73956" lon="-1.56009">
        <ele>57.8</ele>
        <time>2021-12-24T10:08:00Z</time>
      </trkpt>
      <trkpt lat="46.73954" lon="-1.56001">
        <ele>58</ele>
        <time>2021-12-24T10:08:01Z</time>
      </trkpt>
      <trkpt lat="46.73953" lon="-1.55992">
        <ele>58</ele>
        <time>2021-12-24T10:08:02Z</time>
      </trkpt>
      <trkpt lat="46.73951" lon="-1.55983">
        <ele>58</ele>
        <time>2021-12-24T10:08:03Z</time>
      </trkpt>
      <trkpt lat="46.7395" lon="-1.55973">
        <ele>58.2</ele>
        <time>2021-12-24T10:08:04Z</time>
      </trkpt>
      <trkpt lat="46.73949" lon="-1.55965">
        <ele>58.2</ele>
        <time>2021-12-24T10:08:05Z</time>
      </trkpt>
      <trkpt lat="46.73948" lon="-1.55957">
        <ele>58.4</ele>
        <time>2021-12-24T10:08:06Z</time>
      </trkpt>
      <trkpt lat="46.73945" lon="-1.55942">
        <ele>58.4</ele>
        <time>2021-12-24T10:08:08Z</time>
      </trkpt>
      <trkpt lat="46.73943" lon="-1.55933">
        <ele>58.4</ele>
        <time>2021-12-24T10:08:09Z</time>
      </trkpt>
      <trkpt lat="46.73942" lon="-1.55924">
        <ele>58.4</ele>
        <time>2021-12-24T10:08:10Z</time>
      </trkpt>
      <trkpt lat="46.73938" lon="-1.55906">
        <ele>58.2</ele>
        <time>2021-12-24T10:08:12Z</time>
      </trkpt>
      <trkpt lat="46.73935" lon="-1.55887">
        <ele>58.2</ele>
        <time>2021-12-24T10:08:14Z</time>
      </trkpt>
      <trkpt lat="46.73932" lon="-1.55869">
        <ele>58.4</ele>
        <time>2021-12-24T10:08:16Z</time>
      </trkpt>
      <trkpt lat="46.73929" lon="-1.55851">
        <ele>58.4</ele>
        <time>2021-12-24T10:08:18Z</time>
      </trkpt>
      <trkpt lat="46.73927" lon="-1.55842">
        <ele>58.4</ele>
        <time>2021-12-24T10:08:19Z</time>
      </trkpt>
      <trkpt lat="46.73926" lon="-1.55834">
        <ele>58.4</ele>
        <time>2021-12-24T10:08:20Z</time>
      </trkpt>
      <trkpt lat="46.73925" lon="-1.55826">
        <ele>58.4</ele>
        <time>2021-12-24T10:08:21Z</time>
      </trkpt>
      <trkpt lat="46.73923" lon="-1.55817">
        <ele>58.4</ele>
        <time>2021-12-24T10:08:22Z</time>
      </trkpt>
      <trkpt lat="46.73921" lon="-1.55808">
        <ele>58.2</ele>
        <time>2021-12-24T10:08:23Z</time>
      </trkpt>
      <trkpt lat="46.7392" lon="-1.55799">
        <ele>58.2</ele>
        <time>2021-12-24T10:08:24Z</time>
      </trkpt>
      <trkpt lat="46.73918" lon="-1.5579">
        <ele>58.8</ele>
        <time>2021-12-24T10:08:25Z</time>
      </trkpt>
      <trkpt lat="46.73916" lon="-1.55781">
        <ele>58.4</ele>
        <time>2021-12-24T10:08:26Z</time>
      </trkpt>
      <trkpt lat="46.73913" lon="-1.55764">
        <ele>58</ele>
        <time>2021-12-24T10:08:28Z</time>
      </trkpt>
      <trkpt lat="46.7391" lon="-1.55747">
        <ele>58</ele>
        <time>2021-12-24T10:08:30Z</time>
      </trkpt>
      <trkpt lat="46.73907" lon="-1.5573">
        <ele>58</ele>
        <time>2021-12-24T10:08:32Z</time>
      </trkpt>
      <trkpt lat="46.73904" lon="-1.55711">
        <ele>58</ele>
        <time>2021-12-24T10:08:34Z</time>
      </trkpt>
      <trkpt lat="46.73902" lon="-1.55694">
        <ele>57.8</ele>
        <time>2021-12-24T10:08:36Z</time>
      </trkpt>
      <trkpt lat="46.73898" lon="-1.55677">
        <ele>57.8</ele>
        <time>2021-12-24T10:08:38Z</time>
      </trkpt>
      <trkpt lat="46.73897" lon="-1.55668">
        <ele>57.8</ele>
        <time>2021-12-24T10:08:39Z</time>
      </trkpt>
      <trkpt lat="46.73896" lon="-1.55659">
        <ele>57.6</ele>
        <time>2021-12-24T10:08:40Z</time>
      </trkpt>
      <trkpt lat="46.73894" lon="-1.55642">
        <ele>57.6</ele>
        <time>2021-12-24T10:08:42Z</time>
      </trkpt>
      <trkpt lat="46.73892" lon="-1.55625">
        <ele>57.4</ele>
        <time>2021-12-24T10:08:44Z</time>
      </trkpt>
      <trkpt lat="46.73888" lon="-1.55606">
        <ele>57.2</ele>
        <time>2021-12-24T10:08:46Z</time>
      </trkpt>
      <trkpt lat="46.73887" lon="-1.55597">
        <ele>57.2</ele>
        <time>2021-12-24T10:08:47Z</time>
      </trkpt>
      <trkpt lat="46.73885" lon="-1.55588">
        <ele>57.2</ele>
        <time>2021-12-24T10:08:48Z</time>
      </trkpt>
      <trkpt lat="46.73882" lon="-1.5557">
        <ele>57</ele>
        <time>2021-12-24T10:08:50Z</time>
      </trkpt>
      <trkpt lat="46.7388" lon="-1.55561">
        <ele>57</ele>
        <time>2021-12-24T10:08:51Z</time>
      </trkpt>
      <trkpt lat="46.73878" lon="-1.55552">
        <ele>56.8</ele>
        <time>2021-12-24T10:08:52Z</time>
      </trkpt>
      <trkpt lat="46.73874" lon="-1.55533">
        <ele>56.8</ele>
        <time>2021-12-24T10:08:54Z</time>
      </trkpt>
      <trkpt lat="46.73872" lon="-1.55523">
        <ele>56.8</ele>
        <time>2021-12-24T10:08:55Z</time>
      </trkpt>
      <trkpt lat="46.73871" lon="-1.55514">
        <ele>56.8</ele>
        <time>2021-12-24T10:08:56Z</time>
      </trkpt>
      <trkpt lat="46.73867" lon="-1.55496">
        <ele>56.8</ele>
        <time>2021-12-24T10:08:58Z</time>
      </trkpt>
      <trkpt lat="46.73864" lon="-1.55477">
        <ele>56.8</ele>
        <time>2021-12-24T10:09:00Z</time>
      </trkpt>
      <trkpt lat="46.73862" lon="-1.55468">
        <ele>56.8</ele>
        <time>2021-12-24T10:09:01Z</time>
      </trkpt>
      <trkpt lat="46.73861" lon="-1.55458">
        <ele>57</ele>
        <time>2021-12-24T10:09:02Z</time>
      </trkpt>
      <trkpt lat="46.73857" lon="-1.5544">
        <ele>57</ele>
        <time>2021-12-24T10:09:04Z</time>
      </trkpt>
      <trkpt lat="46.73854" lon="-1.55423">
        <ele>56.8</ele>
        <time>2021-12-24T10:09:06Z</time>
      </trkpt>
      <trkpt lat="46.73851" lon="-1.55405">
        <ele>57.2</ele>
        <time>2021-12-24T10:09:08Z</time>
      </trkpt>
      <trkpt lat="46.7385" lon="-1.55396">
        <ele>58</ele>
        <time>2021-12-24T10:09:09Z</time>
      </trkpt>
      <trkpt lat="46.73848" lon="-1.55388">
        <ele>57.4</ele>
        <time>2021-12-24T10:09:10Z</time>
      </trkpt>
      <trkpt lat="46.73845" lon="-1.55372">
        <ele>57.6</ele>
        <time>2021-12-24T10:09:12Z</time>
      </trkpt>
      <trkpt lat="46.73843" lon="-1.55358">
        <ele>57.6</ele>
        <time>2021-12-24T10:09:14Z</time>
      </trkpt>
      <trkpt lat="46.73842" lon="-1.55351">
        <ele>57.6</ele>
        <time>2021-12-24T10:09:15Z</time>
      </trkpt>
      <trkpt lat="46.7384" lon="-1.55344">
        <ele>57.6</ele>
        <time>2021-12-24T10:09:16Z</time>
      </trkpt>
      <trkpt lat="46.73837" lon="-1.55332">
        <ele>57.6</ele>
        <time>2021-12-24T10:09:18Z</time>
      </trkpt>
      <trkpt lat="46.73834" lon="-1.55318">
        <ele>57.8</ele>
        <time>2021-12-24T10:09:20Z</time>
      </trkpt>
      <trkpt lat="46.73833" lon="-1.55311">
        <ele>57.8</ele>
        <time>2021-12-24T10:09:21Z</time>
      </trkpt>
      <trkpt lat="46.73832" lon="-1.55303">
        <ele>57.8</ele>
        <time>2021-12-24T10:09:22Z</time>
      </trkpt>
      <trkpt lat="46.73829" lon="-1.55287">
        <ele>58</ele>
        <time>2021-12-24T10:09:24Z</time>
      </trkpt>
      <trkpt lat="46.73826" lon="-1.55271">
        <ele>58</ele>
        <time>2021-12-24T10:09:26Z</time>
      </trkpt>
      <trkpt lat="46.73824" lon="-1.55263">
        <ele>58.2</ele>
        <time>2021-12-24T10:09:27Z</time>
      </trkpt>
      <trkpt lat="46.73823" lon="-1.55256">
        <ele>58.2</ele>
        <time>2021-12-24T10:09:28Z</time>
      </trkpt>
      <trkpt lat="46.7382" lon="-1.55241">
        <ele>58.2</ele>
        <time>2021-12-24T10:09:30Z</time>
      </trkpt>
      <trkpt lat="46.73817" lon="-1.55225">
        <ele>58.2</ele>
        <time>2021-12-24T10:09:32Z</time>
      </trkpt>
      <trkpt lat="46.73816" lon="-1.55217">
        <ele>58.2</ele>
        <time>2021-12-24T10:09:33Z</time>
      </trkpt>
      <trkpt lat="46.73815" lon="-1.55209">
        <ele>58.2</ele>
        <time>2021-12-24T10:09:34Z</time>
      </trkpt>
      <trkpt lat="46.73812" lon="-1.55193">
        <ele>58.2</ele>
        <time>2021-12-24T10:09:36Z</time>
      </trkpt>
      <trkpt lat="46.73809" lon="-1.55177">
        <ele>58.2</ele>
        <time>2021-12-24T10:09:38Z</time>
      </trkpt>
      <trkpt lat="46.73805" lon="-1.55161">
        <ele>58.2</ele>
        <time>2021-12-24T10:09:40Z</time>
      </trkpt>
      <trkpt lat="46.73804" lon="-1.55153">
        <ele>58.2</ele>
        <time>2021-12-24T10:09:41Z</time>
      </trkpt>
      <trkpt lat="46.73804" lon="-1.55146">
        <ele>58.2</ele>
        <time>2021-12-24T10:09:42Z</time>
      </trkpt>
      <trkpt lat="46.73801" lon="-1.55131">
        <ele>58.2</ele>
        <time>2021-12-24T10:09:44Z</time>
      </trkpt>
      <trkpt lat="46.738" lon="-1.55123">
        <ele>58.2</ele>
        <time>2021-12-24T10:09:45Z</time>
      </trkpt>
      <trkpt lat="46.73798" lon="-1.55115">
        <ele>58.2</ele>
        <time>2021-12-24T10:09:46Z</time>
      </trkpt>
      <trkpt lat="46.73796" lon="-1.551">
        <ele>58.2</ele>
        <time>2021-12-24T10:09:48Z</time>
      </trkpt>
      <trkpt lat="46.73794" lon="-1.55085">
        <ele>58.2</ele>
        <time>2021-12-24T10:09:50Z</time>
      </trkpt>
      <trkpt lat="46.73792" lon="-1.5507">
        <ele>58.2</ele>
        <time>2021-12-24T10:09:52Z</time>
      </trkpt>
      <trkpt lat="46.73791" lon="-1.55063">
        <ele>58</ele>
        <time>2021-12-24T10:09:53Z</time>
      </trkpt>
      <trkpt lat="46.7379" lon="-1.55054">
        <ele>57.8</ele>
        <time>2021-12-24T10:09:54Z</time>
      </trkpt>
      <trkpt lat="46.73786" lon="-1.55038">
        <ele>58</ele>
        <time>2021-12-24T10:09:56Z</time>
      </trkpt>
      <trkpt lat="46.73783" lon="-1.55022">
        <ele>58</ele>
        <time>2021-12-24T10:09:58Z</time>
      </trkpt>
      <trkpt lat="46.73781" lon="-1.55007">
        <ele>57.8</ele>
        <time>2021-12-24T10:10:00Z</time>
      </trkpt>
      <trkpt lat="46.7378" lon="-1.55">
        <ele>57.8</ele>
        <time>2021-12-24T10:10:01Z</time>
      </trkpt>
      <trkpt lat="46.73779" lon="-1.54992">
        <ele>57.6</ele>
        <time>2021-12-24T10:10:02Z</time>
      </trkpt>
      <trkpt lat="46.73777" lon="-1.54978">
        <ele>57.6</ele>
        <time>2021-12-24T10:10:04Z</time>
      </trkpt>
      <trkpt lat="46.73775" lon="-1.54963">
        <ele>57.6</ele>
        <time>2021-12-24T10:10:06Z</time>
      </trkpt>
      <trkpt lat="46.73774" lon="-1.54956">
        <ele>57.6</ele>
        <time>2021-12-24T10:10:07Z</time>
      </trkpt>
      <trkpt lat="46.73773" lon="-1.54949">
        <ele>57.6</ele>
        <time>2021-12-24T10:10:08Z</time>
      </trkpt>
      <trkpt lat="46.7377" lon="-1.54933">
        <ele>57.4</ele>
        <time>2021-12-24T10:10:10Z</time>
      </trkpt>
      <trkpt lat="46.73768" lon="-1.54925">
        <ele>57.4</ele>
        <time>2021-12-24T10:10:11Z</time>
      </trkpt>
      <trkpt lat="46.73766" lon="-1.54916">
        <ele>57.4</ele>
        <time>2021-12-24T10:10:12Z</time>
      </trkpt>
      <trkpt lat="46.73762" lon="-1.54901">
        <ele>57.6</ele>
        <time>2021-12-24T10:10:14Z</time>
      </trkpt>
      <trkpt lat="46.73759" lon="-1.54886">
        <ele>57.6</ele>
        <time>2021-12-24T10:10:16Z</time>
      </trkpt>
      <trkpt lat="46.73757" lon="-1.54871">
        <ele>57.4</ele>
        <time>2021-12-24T10:10:18Z</time>
      </trkpt>
      <trkpt lat="46.73756" lon="-1.54863">
        <ele>57.6</ele>
        <time>2021-12-24T10:10:19Z</time>
      </trkpt>
      <trkpt lat="46.73755" lon="-1.54855">
        <ele>57.8</ele>
        <time>2021-12-24T10:10:20Z</time>
      </trkpt>
      <trkpt lat="46.73755" lon="-1.54848">
        <ele>58.2</ele>
        <time>2021-12-24T10:10:21Z</time>
      </trkpt>
      <trkpt lat="46.73754" lon="-1.5484">
        <ele>58.2</ele>
        <time>2021-12-24T10:10:22Z</time>
      </trkpt>
      <trkpt lat="46.73752" lon="-1.54832">
        <ele>58</ele>
        <time>2021-12-24T10:10:23Z</time>
      </trkpt>
      <trkpt lat="46.73751" lon="-1.54824">
        <ele>58</ele>
        <time>2021-12-24T10:10:24Z</time>
      </trkpt>
      <trkpt lat="46.73748" lon="-1.54807">
        <ele>58</ele>
        <time>2021-12-24T10:10:26Z</time>
      </trkpt>
      <trkpt lat="46.73745" lon="-1.5479">
        <ele>58.2</ele>
        <time>2021-12-24T10:10:28Z</time>
      </trkpt>
      <trkpt lat="46.73743" lon="-1.54781">
        <ele>58.2</ele>
        <time>2021-12-24T10:10:29Z</time>
      </trkpt>
      <trkpt lat="46.73742" lon="-1.54772">
        <ele>58.2</ele>
        <time>2021-12-24T10:10:30Z</time>
      </trkpt>
      <trkpt lat="46.73739" lon="-1.54756">
        <ele>58.4</ele>
        <time>2021-12-24T10:10:32Z</time>
      </trkpt>
      <trkpt lat="46.73737" lon="-1.54747">
        <ele>58.6</ele>
        <time>2021-12-24T10:10:33Z</time>
      </trkpt>
      <trkpt lat="46.73735" lon="-1.54738">
        <ele>58.6</ele>
        <time>2021-12-24T10:10:34Z</time>
      </trkpt>
      <trkpt lat="46.73732" lon="-1.54721">
        <ele>58.8</ele>
        <time>2021-12-24T10:10:36Z</time>
      </trkpt>
      <trkpt lat="46.73729" lon="-1.54704">
        <ele>59</ele>
        <time>2021-12-24T10:10:38Z</time>
      </trkpt>
      <trkpt lat="46.73726" lon="-1.54686">
        <ele>59.4</ele>
        <time>2021-12-24T10:10:40Z</time>
      </trkpt>
      <trkpt lat="46.73724" lon="-1.54677">
        <ele>59.4</ele>
        <time>2021-12-24T10:10:41Z</time>
      </trkpt>
      <trkpt lat="46.73722" lon="-1.54668">
        <ele>59.6</ele>
        <time>2021-12-24T10:10:42Z</time>
      </trkpt>
      <trkpt lat="46.7372" lon="-1.54658">
        <ele>59.8</ele>
        <time>2021-12-24T10:10:43Z</time>
      </trkpt>
      <trkpt lat="46.73718" lon="-1.54649">
        <ele>59.8</ele>
        <time>2021-12-24T10:10:44Z</time>
      </trkpt>
      <trkpt lat="46.73716" lon="-1.54632">
        <ele>60.2</ele>
        <time>2021-12-24T10:10:46Z</time>
      </trkpt>
      <trkpt lat="46.73712" lon="-1.54614">
        <ele>60.4</ele>
        <time>2021-12-24T10:10:48Z</time>
      </trkpt>
      <trkpt lat="46.73709" lon="-1.54597">
        <ele>60.8</ele>
        <time>2021-12-24T10:10:50Z</time>
      </trkpt>
      <trkpt lat="46.73706" lon="-1.54579">
        <ele>61</ele>
        <time>2021-12-24T10:10:52Z</time>
      </trkpt>
      <trkpt lat="46.73703" lon="-1.54561">
        <ele>61.2</ele>
        <time>2021-12-24T10:10:54Z</time>
      </trkpt>
      <trkpt lat="46.737" lon="-1.54543">
        <ele>61.6</ele>
        <time>2021-12-24T10:10:56Z</time>
      </trkpt>
      <trkpt lat="46.73696" lon="-1.54524">
        <ele>61.8</ele>
        <time>2021-12-24T10:10:58Z</time>
      </trkpt>
      <trkpt lat="46.73693" lon="-1.54506">
        <ele>62</ele>
        <time>2021-12-24T10:11:00Z</time>
      </trkpt>
      <trkpt lat="46.73691" lon="-1.54497">
        <ele>62</ele>
        <time>2021-12-24T10:11:01Z</time>
      </trkpt>
      <trkpt lat="46.7369" lon="-1.54488">
        <ele>62</ele>
        <time>2021-12-24T10:11:02Z</time>
      </trkpt>
      <trkpt lat="46.73687" lon="-1.54471">
        <ele>62.2</ele>
        <time>2021-12-24T10:11:04Z</time>
      </trkpt>
      <trkpt lat="46.73683" lon="-1.54453">
        <ele>62.6</ele>
        <time>2021-12-24T10:11:06Z</time>
      </trkpt>
      <trkpt lat="46.73682" lon="-1.54437">
        <ele>62.8</ele>
        <time>2021-12-24T10:11:08Z</time>
      </trkpt>
      <trkpt lat="46.73679" lon="-1.54419">
        <ele>62.8</ele>
        <time>2021-12-24T10:11:10Z</time>
      </trkpt>
      <trkpt lat="46.73675" lon="-1.54401">
        <ele>63</ele>
        <time>2021-12-24T10:11:12Z</time>
      </trkpt>
      <trkpt lat="46.73673" lon="-1.54391">
        <ele>63</ele>
        <time>2021-12-24T10:11:13Z</time>
      </trkpt>
      <trkpt lat="46.73672" lon="-1.54382">
        <ele>63</ele>
        <time>2021-12-24T10:11:14Z</time>
      </trkpt>
      <trkpt lat="46.73668" lon="-1.54364">
        <ele>63.2</ele>
        <time>2021-12-24T10:11:16Z</time>
      </trkpt>
      <trkpt lat="46.73665" lon="-1.54345">
        <ele>63.2</ele>
        <time>2021-12-24T10:11:18Z</time>
      </trkpt>
      <trkpt lat="46.73662" lon="-1.54326">
        <ele>63.4</ele>
        <time>2021-12-24T10:11:20Z</time>
      </trkpt>
      <trkpt lat="46.73658" lon="-1.54308">
        <ele>63.4</ele>
        <time>2021-12-24T10:11:22Z</time>
      </trkpt>
      <trkpt lat="46.73655" lon="-1.54289">
        <ele>63.4</ele>
        <time>2021-12-24T10:11:24Z</time>
      </trkpt>
      <trkpt lat="46.73652" lon="-1.5427">
        <ele>63.4</ele>
        <time>2021-12-24T10:11:26Z</time>
      </trkpt>
      <trkpt lat="46.73648" lon="-1.54252">
        <ele>63.4</ele>
        <time>2021-12-24T10:11:28Z</time>
      </trkpt>
      <trkpt lat="46.73645" lon="-1.54234">
        <ele>63.4</ele>
        <time>2021-12-24T10:11:30Z</time>
      </trkpt>
      <trkpt lat="46.73642" lon="-1.54215">
        <ele>63.4</ele>
        <time>2021-12-24T10:11:32Z</time>
      </trkpt>
      <trkpt lat="46.73639" lon="-1.54196">
        <ele>63.4</ele>
        <time>2021-12-24T10:11:34Z</time>
      </trkpt>
      <trkpt lat="46.73637" lon="-1.54187">
        <ele>63.4</ele>
        <time>2021-12-24T10:11:35Z</time>
      </trkpt>
      <trkpt lat="46.73635" lon="-1.54177">
        <ele>63.4</ele>
        <time>2021-12-24T10:11:36Z</time>
      </trkpt>
      <trkpt lat="46.73632" lon="-1.54159">
        <ele>63.4</ele>
        <time>2021-12-24T10:11:38Z</time>
      </trkpt>
      <trkpt lat="46.73629" lon="-1.54141">
        <ele>63.4</ele>
        <time>2021-12-24T10:11:40Z</time>
      </trkpt>
      <trkpt lat="46.73626" lon="-1.54124">
        <ele>63.4</ele>
        <time>2021-12-24T10:11:42Z</time>
      </trkpt>
      <trkpt lat="46.73626" lon="-1.54113">
        <ele>63.4</ele>
        <time>2021-12-24T10:11:44Z</time>
      </trkpt>
      <trkpt lat="46.73625" lon="-1.54109">
        <ele>63.4</ele>
        <time>2021-12-24T10:11:45Z</time>
      </trkpt>
      <trkpt lat="46.73625" lon="-1.54106">
        <ele>63.4</ele>
        <time>2021-12-24T10:11:46Z</time>
      </trkpt>
      <trkpt lat="46.73623" lon="-1.54097">
        <ele>63.6</ele>
        <time>2021-12-24T10:11:48Z</time>
      </trkpt>
      <trkpt lat="46.73623" lon="-1.54091">
        <ele>63.6</ele>
        <time>2021-12-24T10:11:49Z</time>
      </trkpt>
      <trkpt lat="46.73622" lon="-1.54085">
        <ele>63.6</ele>
        <time>2021-12-24T10:11:50Z</time>
      </trkpt>
      <trkpt lat="46.73619" lon="-1.5407">
        <ele>63.8</ele>
        <time>2021-12-24T10:11:52Z</time>
      </trkpt>
      <trkpt lat="46.73617" lon="-1.54061">
        <ele>63.8</ele>
        <time>2021-12-24T10:11:53Z</time>
      </trkpt>
      <trkpt lat="46.73615" lon="-1.54053">
        <ele>63.8</ele>
        <time>2021-12-24T10:11:54Z</time>
      </trkpt>
      <trkpt lat="46.73612" lon="-1.54035">
        <ele>63.8</ele>
        <time>2021-12-24T10:11:56Z</time>
      </trkpt>
      <trkpt lat="46.73609" lon="-1.54017">
        <ele>63.8</ele>
        <time>2021-12-24T10:11:58Z</time>
      </trkpt>
      <trkpt lat="46.73608" lon="-1.54009">
        <ele>63.8</ele>
        <time>2021-12-24T10:11:59Z</time>
      </trkpt>
      <trkpt lat="46.73607" lon="-1.54001">
        <ele>63.8</ele>
        <time>2021-12-24T10:12:00Z</time>
      </trkpt>
      <trkpt lat="46.73603" lon="-1.53983">
        <ele>63.8</ele>
        <time>2021-12-24T10:12:02Z</time>
      </trkpt>
      <trkpt lat="46.736" lon="-1.53965">
        <ele>63.4</ele>
        <time>2021-12-24T10:12:04Z</time>
      </trkpt>
      <trkpt lat="46.73598" lon="-1.53957">
        <ele>63.4</ele>
        <time>2021-12-24T10:12:05Z</time>
      </trkpt>
      <trkpt lat="46.73596" lon="-1.53948">
        <ele>63.4</ele>
        <time>2021-12-24T10:12:06Z</time>
      </trkpt>
      <trkpt lat="46.73592" lon="-1.53929">
        <ele>63.2</ele>
        <time>2021-12-24T10:12:08Z</time>
      </trkpt>
      <trkpt lat="46.73589" lon="-1.5392">
        <ele>63.2</ele>
        <time>2021-12-24T10:12:09Z</time>
      </trkpt>
      <trkpt lat="46.73587" lon="-1.53911">
        <ele>63</ele>
        <time>2021-12-24T10:12:10Z</time>
      </trkpt>
      <trkpt lat="46.73582" lon="-1.53892">
        <ele>63</ele>
        <time>2021-12-24T10:12:12Z</time>
      </trkpt>
      <trkpt lat="46.73576" lon="-1.53874">
        <ele>62.8</ele>
        <time>2021-12-24T10:12:14Z</time>
      </trkpt>
      <trkpt lat="46.73571" lon="-1.53857">
        <ele>62.6</ele>
        <time>2021-12-24T10:12:16Z</time>
      </trkpt>
      <trkpt lat="46.73567" lon="-1.53839">
        <ele>62.4</ele>
        <time>2021-12-24T10:12:18Z</time>
      </trkpt>
      <trkpt lat="46.73562" lon="-1.53822">
        <ele>62.4</ele>
        <time>2021-12-24T10:12:20Z</time>
      </trkpt>
      <trkpt lat="46.73556" lon="-1.53804">
        <ele>62.2</ele>
        <time>2021-12-24T10:12:22Z</time>
      </trkpt>
      <trkpt lat="46.73549" lon="-1.53786">
        <ele>62.2</ele>
        <time>2021-12-24T10:12:24Z</time>
      </trkpt>
      <trkpt lat="46.73543" lon="-1.53769">
        <ele>62.2</ele>
        <time>2021-12-24T10:12:26Z</time>
      </trkpt>
      <trkpt lat="46.73537" lon="-1.53751">
        <ele>62</ele>
        <time>2021-12-24T10:12:28Z</time>
      </trkpt>
      <trkpt lat="46.7353" lon="-1.53733">
        <ele>62</ele>
        <time>2021-12-24T10:12:30Z</time>
      </trkpt>
      <trkpt lat="46.73523" lon="-1.53715">
        <ele>61.8</ele>
        <time>2021-12-24T10:12:32Z</time>
      </trkpt>
      <trkpt lat="46.73516" lon="-1.53698">
        <ele>61.8</ele>
        <time>2021-12-24T10:12:34Z</time>
      </trkpt>
      <trkpt lat="46.73507" lon="-1.5368">
        <ele>61.6</ele>
        <time>2021-12-24T10:12:36Z</time>
      </trkpt>
      <trkpt lat="46.73503" lon="-1.53672">
        <ele>61.6</ele>
        <time>2021-12-24T10:12:37Z</time>
      </trkpt>
      <trkpt lat="46.73499" lon="-1.53664">
        <ele>61.6</ele>
        <time>2021-12-24T10:12:38Z</time>
      </trkpt>
      <trkpt lat="46.73491" lon="-1.53647">
        <ele>61.6</ele>
        <time>2021-12-24T10:12:40Z</time>
      </trkpt>
      <trkpt lat="46.73483" lon="-1.53631">
        <ele>61.6</ele>
        <time>2021-12-24T10:12:42Z</time>
      </trkpt>
      <trkpt lat="46.73474" lon="-1.53614">
        <ele>61.6</ele>
        <time>2021-12-24T10:12:44Z</time>
      </trkpt>
      <trkpt lat="46.73465" lon="-1.53598">
        <ele>61.6</ele>
        <time>2021-12-24T10:12:46Z</time>
      </trkpt>
      <trkpt lat="46.73457" lon="-1.53583">
        <ele>61.6</ele>
        <time>2021-12-24T10:12:48Z</time>
      </trkpt>
      <trkpt lat="46.73448" lon="-1.53567">
        <ele>61.6</ele>
        <time>2021-12-24T10:12:50Z</time>
      </trkpt>
      <trkpt lat="46.73438" lon="-1.53552">
        <ele>61.6</ele>
        <time>2021-12-24T10:12:52Z</time>
      </trkpt>
      <trkpt lat="46.73429" lon="-1.53538">
        <ele>61.6</ele>
        <time>2021-12-24T10:12:54Z</time>
      </trkpt>
      <trkpt lat="46.73419" lon="-1.53523">
        <ele>61.6</ele>
        <time>2021-12-24T10:12:56Z</time>
      </trkpt>
      <trkpt lat="46.73409" lon="-1.53509">
        <ele>61.6</ele>
        <time>2021-12-24T10:12:58Z</time>
      </trkpt>
      <trkpt lat="46.73399" lon="-1.53494">
        <ele>62</ele>
        <time>2021-12-24T10:13:00Z</time>
      </trkpt>
      <trkpt lat="46.73394" lon="-1.53487">
        <ele>61.8</ele>
        <time>2021-12-24T10:13:01Z</time>
      </trkpt>
      <trkpt lat="46.73389" lon="-1.53481">
        <ele>61.8</ele>
        <time>2021-12-24T10:13:02Z</time>
      </trkpt>
      <trkpt lat="46.73379" lon="-1.53468">
        <ele>61.8</ele>
        <time>2021-12-24T10:13:04Z</time>
      </trkpt>
      <trkpt lat="46.73368" lon="-1.53455">
        <ele>62</ele>
        <time>2021-12-24T10:13:06Z</time>
      </trkpt>
      <trkpt lat="46.73363" lon="-1.53449">
        <ele>61.8</ele>
        <time>2021-12-24T10:13:07Z</time>
      </trkpt>
      <trkpt lat="46.73358" lon="-1.53443">
        <ele>61.8</ele>
        <time>2021-12-24T10:13:08Z</time>
      </trkpt>
      <trkpt lat="46.73348" lon="-1.53432">
        <ele>61.8</ele>
        <time>2021-12-24T10:13:10Z</time>
      </trkpt>
      <trkpt lat="46.73337" lon="-1.5342">
        <ele>61.8</ele>
        <time>2021-12-24T10:13:12Z</time>
      </trkpt>
      <trkpt lat="46.73326" lon="-1.53408">
        <ele>61.8</ele>
        <time>2021-12-24T10:13:14Z</time>
      </trkpt>
      <trkpt lat="46.73315" lon="-1.53396">
        <ele>62</ele>
        <time>2021-12-24T10:13:16Z</time>
      </trkpt>
      <trkpt lat="46.73304" lon="-1.53386">
        <ele>62</ele>
        <time>2021-12-24T10:13:18Z</time>
      </trkpt>
      <trkpt lat="46.73299" lon="-1.53381">
        <ele>62</ele>
        <time>2021-12-24T10:13:19Z</time>
      </trkpt>
      <trkpt lat="46.73294" lon="-1.53376">
        <ele>62</ele>
        <time>2021-12-24T10:13:20Z</time>
      </trkpt>
      <trkpt lat="46.73283" lon="-1.53366">
        <ele>62.2</ele>
        <time>2021-12-24T10:13:22Z</time>
      </trkpt>
      <trkpt lat="46.73272" lon="-1.53355">
        <ele>62.2</ele>
        <time>2021-12-24T10:13:24Z</time>
      </trkpt>
      <trkpt lat="46.73261" lon="-1.53345">
        <ele>62.2</ele>
        <time>2021-12-24T10:13:26Z</time>
      </trkpt>
      <trkpt lat="46.7325" lon="-1.53334">
        <ele>62.2</ele>
        <time>2021-12-24T10:13:28Z</time>
      </trkpt>
      <trkpt lat="46.73238" lon="-1.53323">
        <ele>62.2</ele>
        <time>2021-12-24T10:13:30Z</time>
      </trkpt>
      <trkpt lat="46.73233" lon="-1.53318">
        <ele>62.2</ele>
        <time>2021-12-24T10:13:31Z</time>
      </trkpt>
      <trkpt lat="46.73228" lon="-1.53313">
        <ele>62.2</ele>
        <time>2021-12-24T10:13:32Z</time>
      </trkpt>
      <trkpt lat="46.73217" lon="-1.53302">
        <ele>62.2</ele>
        <time>2021-12-24T10:13:34Z</time>
      </trkpt>
      <trkpt lat="46.73206" lon="-1.53291">
        <ele>62.2</ele>
        <time>2021-12-24T10:13:36Z</time>
      </trkpt>
      <trkpt lat="46.73196" lon="-1.53282">
        <ele>62.2</ele>
        <time>2021-12-24T10:13:38Z</time>
      </trkpt>
      <trkpt lat="46.73185" lon="-1.53271">
        <ele>62.2</ele>
        <time>2021-12-24T10:13:40Z</time>
      </trkpt>
      <trkpt lat="46.73179" lon="-1.53265">
        <ele>62.2</ele>
        <time>2021-12-24T10:13:41Z</time>
      </trkpt>
      <trkpt lat="46.73173" lon="-1.53259">
        <ele>62.2</ele>
        <time>2021-12-24T10:13:42Z</time>
      </trkpt>
      <trkpt lat="46.73162" lon="-1.53248">
        <ele>62.2</ele>
        <time>2021-12-24T10:13:44Z</time>
      </trkpt>
      <trkpt lat="46.73151" lon="-1.53238">
        <ele>62.2</ele>
        <time>2021-12-24T10:13:46Z</time>
      </trkpt>
      <trkpt lat="46.73141" lon="-1.53228">
        <ele>62.4</ele>
        <time>2021-12-24T10:13:48Z</time>
      </trkpt>
      <trkpt lat="46.73135" lon="-1.53223">
        <ele>62.4</ele>
        <time>2021-12-24T10:13:49Z</time>
      </trkpt>
      <trkpt lat="46.7313" lon="-1.53218">
        <ele>62.4</ele>
        <time>2021-12-24T10:13:50Z</time>
      </trkpt>
      <trkpt lat="46.73121" lon="-1.53209">
        <ele>62.4</ele>
        <time>2021-12-24T10:13:52Z</time>
      </trkpt>
      <trkpt lat="46.73109" lon="-1.53198">
        <ele>62.6</ele>
        <time>2021-12-24T10:13:54Z</time>
      </trkpt>
      <trkpt lat="46.73098" lon="-1.53187">
        <ele>62.6</ele>
        <time>2021-12-24T10:13:56Z</time>
      </trkpt>
      <trkpt lat="46.73086" lon="-1.53176">
        <ele>62.6</ele>
        <time>2021-12-24T10:13:58Z</time>
      </trkpt>
      <trkpt lat="46.73081" lon="-1.53171">
        <ele>62.6</ele>
        <time>2021-12-24T10:13:59Z</time>
      </trkpt>
      <trkpt lat="46.73075" lon="-1.53165">
        <ele>62.8</ele>
        <time>2021-12-24T10:14:00Z</time>
      </trkpt>
      <trkpt lat="46.73065" lon="-1.53156">
        <ele>62.8</ele>
        <time>2021-12-24T10:14:02Z</time>
      </trkpt>
      <trkpt lat="46.73059" lon="-1.53151">
        <ele>62.8</ele>
        <time>2021-12-24T10:14:03Z</time>
      </trkpt>
      <trkpt lat="46.73054" lon="-1.53146">
        <ele>62.8</ele>
        <time>2021-12-24T10:14:04Z</time>
      </trkpt>
      <trkpt lat="46.73043" lon="-1.53135">
        <ele>63</ele>
        <time>2021-12-24T10:14:06Z</time>
      </trkpt>
      <trkpt lat="46.73037" lon="-1.5313">
        <ele>63</ele>
        <time>2021-12-24T10:14:07Z</time>
      </trkpt>
      <trkpt lat="46.73031" lon="-1.53124">
        <ele>63</ele>
        <time>2021-12-24T10:14:08Z</time>
      </trkpt>
      <trkpt lat="46.7302" lon="-1.53113">
        <ele>63.2</ele>
        <time>2021-12-24T10:14:10Z</time>
      </trkpt>
      <trkpt lat="46.7301" lon="-1.53104">
        <ele>63.4</ele>
        <time>2021-12-24T10:14:12Z</time>
      </trkpt>
      <trkpt lat="46.72999" lon="-1.53092">
        <ele>63.4</ele>
        <time>2021-12-24T10:14:14Z</time>
      </trkpt>
      <trkpt lat="46.72989" lon="-1.53082">
        <ele>63.4</ele>
        <time>2021-12-24T10:14:16Z</time>
      </trkpt>
      <trkpt lat="46.72977" lon="-1.53071">
        <ele>63.6</ele>
        <time>2021-12-24T10:14:18Z</time>
      </trkpt>
      <trkpt lat="46.72967" lon="-1.53061">
        <ele>63.6</ele>
        <time>2021-12-24T10:14:20Z</time>
      </trkpt>
      <trkpt lat="46.72957" lon="-1.53051">
        <ele>63.8</ele>
        <time>2021-12-24T10:14:22Z</time>
      </trkpt>
      <trkpt lat="46.72947" lon="-1.53041">
        <ele>63.8</ele>
        <time>2021-12-24T10:14:24Z</time>
      </trkpt>
      <trkpt lat="46.72936" lon="-1.53032">
        <ele>64</ele>
        <time>2021-12-24T10:14:26Z</time>
      </trkpt>
      <trkpt lat="46.72931" lon="-1.53027">
        <ele>64</ele>
        <time>2021-12-24T10:14:27Z</time>
      </trkpt>
      <trkpt lat="46.72926" lon="-1.53023">
        <ele>64.2</ele>
        <time>2021-12-24T10:14:28Z</time>
      </trkpt>
      <trkpt lat="46.72915" lon="-1.53013">
        <ele>64.2</ele>
        <time>2021-12-24T10:14:30Z</time>
      </trkpt>
      <trkpt lat="46.72905" lon="-1.53002">
        <ele>64.4</ele>
        <time>2021-12-24T10:14:32Z</time>
      </trkpt>
      <trkpt lat="46.72894" lon="-1.52992">
        <ele>64.6</ele>
        <time>2021-12-24T10:14:34Z</time>
      </trkpt>
      <trkpt lat="46.72884" lon="-1.52982">
        <ele>64.6</ele>
        <time>2021-12-24T10:14:36Z</time>
      </trkpt>
      <trkpt lat="46.72879" lon="-1.52978">
        <ele>64.6</ele>
        <time>2021-12-24T10:14:37Z</time>
      </trkpt>
      <trkpt lat="46.72874" lon="-1.52973">
        <ele>64.8</ele>
        <time>2021-12-24T10:14:38Z</time>
      </trkpt>
      <trkpt lat="46.72864" lon="-1.52963">
        <ele>64.8</ele>
        <time>2021-12-24T10:14:40Z</time>
      </trkpt>
      <trkpt lat="46.72858" lon="-1.52958">
        <ele>65</ele>
        <time>2021-12-24T10:14:41Z</time>
      </trkpt>
      <trkpt lat="46.72853" lon="-1.52952">
        <ele>65</ele>
        <time>2021-12-24T10:14:42Z</time>
      </trkpt>
      <trkpt lat="46.72842" lon="-1.52942">
        <ele>65</ele>
        <time>2021-12-24T10:14:44Z</time>
      </trkpt>
      <trkpt lat="46.72837" lon="-1.52937">
        <ele>65.2</ele>
        <time>2021-12-24T10:14:45Z</time>
      </trkpt>
      <trkpt lat="46.72832" lon="-1.52933">
        <ele>65.2</ele>
        <time>2021-12-24T10:14:46Z</time>
      </trkpt>
      <trkpt lat="46.72823" lon="-1.52923">
        <ele>65.2</ele>
        <time>2021-12-24T10:14:48Z</time>
      </trkpt>
      <trkpt lat="46.72815" lon="-1.52915">
        <ele>65.4</ele>
        <time>2021-12-24T10:14:50Z</time>
      </trkpt>
      <trkpt lat="46.72804" lon="-1.52906">
        <ele>65.4</ele>
        <time>2021-12-24T10:14:52Z</time>
      </trkpt>
      <trkpt lat="46.72794" lon="-1.52895">
        <ele>65.6</ele>
        <time>2021-12-24T10:14:54Z</time>
      </trkpt>
      <trkpt lat="46.72788" lon="-1.5289">
        <ele>65.6</ele>
        <time>2021-12-24T10:14:55Z</time>
      </trkpt>
      <trkpt lat="46.72784" lon="-1.52886">
        <ele>65.6</ele>
        <time>2021-12-24T10:14:56Z</time>
      </trkpt>
      <trkpt lat="46.72773" lon="-1.52876">
        <ele>65.8</ele>
        <time>2021-12-24T10:14:58Z</time>
      </trkpt>
      <trkpt lat="46.72762" lon="-1.52866">
        <ele>66</ele>
        <time>2021-12-24T10:15:00Z</time>
      </trkpt>
      <trkpt lat="46.72757" lon="-1.52861">
        <ele>66</ele>
        <time>2021-12-24T10:15:01Z</time>
      </trkpt>
      <trkpt lat="46.72752" lon="-1.52856">
        <ele>66</ele>
        <time>2021-12-24T10:15:02Z</time>
      </trkpt>
      <trkpt lat="46.72742" lon="-1.52847">
        <ele>66</ele>
        <time>2021-12-24T10:15:04Z</time>
      </trkpt>
      <trkpt lat="46.72732" lon="-1.52838">
        <ele>66.2</ele>
        <time>2021-12-24T10:15:06Z</time>
      </trkpt>
      <trkpt lat="46.72723" lon="-1.52829">
        <ele>66.2</ele>
        <time>2021-12-24T10:15:08Z</time>
      </trkpt>
      <trkpt lat="46.72713" lon="-1.52819">
        <ele>66.2</ele>
        <time>2021-12-24T10:15:10Z</time>
      </trkpt>
      <trkpt lat="46.72703" lon="-1.52809">
        <ele>66.4</ele>
        <time>2021-12-24T10:15:12Z</time>
      </trkpt>
      <trkpt lat="46.72692" lon="-1.52798">
        <ele>66.4</ele>
        <time>2021-12-24T10:15:14Z</time>
      </trkpt>
      <trkpt lat="46.72681" lon="-1.52787">
        <ele>66.6</ele>
        <time>2021-12-24T10:15:16Z</time>
      </trkpt>
      <trkpt lat="46.7267" lon="-1.52777">
        <ele>66.6</ele>
        <time>2021-12-24T10:15:18Z</time>
      </trkpt>
      <trkpt lat="46.72662" lon="-1.52768">
        <ele>66.6</ele>
        <time>2021-12-24T10:15:20Z</time>
      </trkpt>
      <trkpt lat="46.72652" lon="-1.52758">
        <ele>66.6</ele>
        <time>2021-12-24T10:15:22Z</time>
      </trkpt>
      <trkpt lat="46.72642" lon="-1.52749">
        <ele>66.6</ele>
        <time>2021-12-24T10:15:24Z</time>
      </trkpt>
      <trkpt lat="46.72632" lon="-1.52739">
        <ele>66.8</ele>
        <time>2021-12-24T10:15:26Z</time>
      </trkpt>
      <trkpt lat="46.72621" lon="-1.52729">
        <ele>66.8</ele>
        <time>2021-12-24T10:15:28Z</time>
      </trkpt>
      <trkpt lat="46.72616" lon="-1.52723">
        <ele>66.8</ele>
        <time>2021-12-24T10:15:29Z</time>
      </trkpt>
      <trkpt lat="46.72611" lon="-1.52718">
        <ele>66.8</ele>
        <time>2021-12-24T10:15:30Z</time>
      </trkpt>
      <trkpt lat="46.726" lon="-1.52706">
        <ele>66.8</ele>
        <time>2021-12-24T10:15:32Z</time>
      </trkpt>
      <trkpt lat="46.7259" lon="-1.52694">
        <ele>66.8</ele>
        <time>2021-12-24T10:15:34Z</time>
      </trkpt>
      <trkpt lat="46.7258" lon="-1.52682">
        <ele>66.8</ele>
        <time>2021-12-24T10:15:36Z</time>
      </trkpt>
      <trkpt lat="46.72575" lon="-1.52676">
        <ele>66.8</ele>
        <time>2021-12-24T10:15:37Z</time>
      </trkpt>
      <trkpt lat="46.72571" lon="-1.5267">
        <ele>66.8</ele>
        <time>2021-12-24T10:15:38Z</time>
      </trkpt>
      <trkpt lat="46.72562" lon="-1.52658">
        <ele>66.8</ele>
        <time>2021-12-24T10:15:40Z</time>
      </trkpt>
      <trkpt lat="46.72553" lon="-1.52646">
        <ele>67</ele>
        <time>2021-12-24T10:15:42Z</time>
      </trkpt>
      <trkpt lat="46.72544" lon="-1.52633">
        <ele>67</ele>
        <time>2021-12-24T10:15:44Z</time>
      </trkpt>
      <trkpt lat="46.7254" lon="-1.52628">
        <ele>67</ele>
        <time>2021-12-24T10:15:45Z</time>
      </trkpt>
      <trkpt lat="46.72536" lon="-1.52622">
        <ele>67</ele>
        <time>2021-12-24T10:15:46Z</time>
      </trkpt>
      <trkpt lat="46.72531" lon="-1.52615">
        <ele>67</ele>
        <time>2021-12-24T10:15:47Z</time>
      </trkpt>
      <trkpt lat="46.72527" lon="-1.52608">
        <ele>67.2</ele>
        <time>2021-12-24T10:15:48Z</time>
      </trkpt>
      <trkpt lat="46.72523" lon="-1.52601">
        <ele>67.2</ele>
        <time>2021-12-24T10:15:49Z</time>
      </trkpt>
      <trkpt lat="46.72519" lon="-1.52594">
        <ele>67.2</ele>
        <time>2021-12-24T10:15:50Z</time>
      </trkpt>
      <trkpt lat="46.7251" lon="-1.5258">
        <ele>67.2</ele>
        <time>2021-12-24T10:15:52Z</time>
      </trkpt>
      <trkpt lat="46.72502" lon="-1.52567">
        <ele>67.4</ele>
        <time>2021-12-24T10:15:54Z</time>
      </trkpt>
      <trkpt lat="46.72495" lon="-1.52557">
        <ele>67.4</ele>
        <time>2021-12-24T10:15:56Z</time>
      </trkpt>
      <trkpt lat="46.72494" lon="-1.52555">
        <ele>67.4</ele>
        <time>2021-12-24T10:15:58Z</time>
      </trkpt>
      <trkpt lat="46.72494" lon="-1.52555">
        <ele>67.4</ele>
        <time>2021-12-24T10:15:59Z</time>
      </trkpt>
      <trkpt lat="46.7249" lon="-1.52549">
        <ele>67.4</ele>
        <time>2021-12-24T10:16:04Z</time>
      </trkpt>
      <trkpt lat="46.72488" lon="-1.52546">
        <ele>67.4</ele>
        <time>2021-12-24T10:16:05Z</time>
      </trkpt>
      <trkpt lat="46.72486" lon="-1.52543">
        <ele>67.4</ele>
        <time>2021-12-24T10:16:06Z</time>
      </trkpt>
      <trkpt lat="46.72484" lon="-1.52536">
        <ele>67.6</ele>
        <time>2021-12-24T10:16:08Z</time>
      </trkpt>
      <trkpt lat="46.72483" lon="-1.52532">
        <ele>67.4</ele>
        <time>2021-12-24T10:16:09Z</time>
      </trkpt>
      <trkpt lat="46.7248" lon="-1.52526">
        <ele>67.4</ele>
        <time>2021-12-24T10:16:10Z</time>
      </trkpt>
      <trkpt lat="46.72473" lon="-1.52512">
        <ele>67.4</ele>
        <time>2021-12-24T10:16:12Z</time>
      </trkpt>
      <trkpt lat="46.72465" lon="-1.52497">
        <ele>67.4</ele>
        <time>2021-12-24T10:16:14Z</time>
      </trkpt>
      <trkpt lat="46.72461" lon="-1.5249">
        <ele>67.6</ele>
        <time>2021-12-24T10:16:15Z</time>
      </trkpt>
      <trkpt lat="46.72458" lon="-1.52482">
        <ele>67.4</ele>
        <time>2021-12-24T10:16:16Z</time>
      </trkpt>
      <trkpt lat="46.72451" lon="-1.52467">
        <ele>67.2</ele>
        <time>2021-12-24T10:16:18Z</time>
      </trkpt>
      <trkpt lat="46.72443" lon="-1.52453">
        <ele>67.2</ele>
        <time>2021-12-24T10:16:20Z</time>
      </trkpt>
      <trkpt lat="46.7244" lon="-1.52445">
        <ele>67.2</ele>
        <time>2021-12-24T10:16:21Z</time>
      </trkpt>
      <trkpt lat="46.72437" lon="-1.52437">
        <ele>67.2</ele>
        <time>2021-12-24T10:16:22Z</time>
      </trkpt>
      <trkpt lat="46.7243" lon="-1.52422">
        <ele>67.2</ele>
        <time>2021-12-24T10:16:24Z</time>
      </trkpt>
      <trkpt lat="46.72424" lon="-1.52405">
        <ele>67</ele>
        <time>2021-12-24T10:16:26Z</time>
      </trkpt>
      <trkpt lat="46.72417" lon="-1.52388">
        <ele>67</ele>
        <time>2021-12-24T10:16:28Z</time>
      </trkpt>
      <trkpt lat="46.72411" lon="-1.52371">
        <ele>66.8</ele>
        <time>2021-12-24T10:16:30Z</time>
      </trkpt>
      <trkpt lat="46.72405" lon="-1.52355">
        <ele>66.6</ele>
        <time>2021-12-24T10:16:32Z</time>
      </trkpt>
      <trkpt lat="46.72399" lon="-1.52338">
        <ele>66.6</ele>
        <time>2021-12-24T10:16:34Z</time>
      </trkpt>
      <trkpt lat="46.72396" lon="-1.52329">
        <ele>66.4</ele>
        <time>2021-12-24T10:16:35Z</time>
      </trkpt>
      <trkpt lat="46.72394" lon="-1.5232">
        <ele>66.4</ele>
        <time>2021-12-24T10:16:36Z</time>
      </trkpt>
      <trkpt lat="46.72388" lon="-1.52302">
        <ele>66.2</ele>
        <time>2021-12-24T10:16:38Z</time>
      </trkpt>
      <trkpt lat="46.72386" lon="-1.52292">
        <ele>66.2</ele>
        <time>2021-12-24T10:16:39Z</time>
      </trkpt>
      <trkpt lat="46.72383" lon="-1.52283">
        <ele>66</ele>
        <time>2021-12-24T10:16:40Z</time>
      </trkpt>
      <trkpt lat="46.72377" lon="-1.52266">
        <ele>65.8</ele>
        <time>2021-12-24T10:16:42Z</time>
      </trkpt>
      <trkpt lat="46.72375" lon="-1.52257">
        <ele>65.6</ele>
        <time>2021-12-24T10:16:43Z</time>
      </trkpt>
      <trkpt lat="46.72373" lon="-1.52248">
        <ele>65.6</ele>
        <time>2021-12-24T10:16:44Z</time>
      </trkpt>
      <trkpt lat="46.72369" lon="-1.52229">
        <ele>65.4</ele>
        <time>2021-12-24T10:16:46Z</time>
      </trkpt>
      <trkpt lat="46.72363" lon="-1.52211">
        <ele>65.2</ele>
        <time>2021-12-24T10:16:48Z</time>
      </trkpt>
      <trkpt lat="46.72359" lon="-1.52193">
        <ele>64.8</ele>
        <time>2021-12-24T10:16:50Z</time>
      </trkpt>
      <trkpt lat="46.72354" lon="-1.52174">
        <ele>64.6</ele>
        <time>2021-12-24T10:16:52Z</time>
      </trkpt>
      <trkpt lat="46.72349" lon="-1.52156">
        <ele>64.6</ele>
        <time>2021-12-24T10:16:54Z</time>
      </trkpt>
      <trkpt lat="46.72344" lon="-1.52137">
        <ele>64.4</ele>
        <time>2021-12-24T10:16:56Z</time>
      </trkpt>
      <trkpt lat="46.72342" lon="-1.52128">
        <ele>64.4</ele>
        <time>2021-12-24T10:16:57Z</time>
      </trkpt>
      <trkpt lat="46.72339" lon="-1.52119">
        <ele>64.2</ele>
        <time>2021-12-24T10:16:58Z</time>
      </trkpt>
      <trkpt lat="46.72335" lon="-1.52101">
        <ele>64.2</ele>
        <time>2021-12-24T10:17:00Z</time>
      </trkpt>
      <trkpt lat="46.72332" lon="-1.52092">
        <ele>64.2</ele>
        <time>2021-12-24T10:17:01Z</time>
      </trkpt>
      <trkpt lat="46.7233" lon="-1.52082">
        <ele>64</ele>
        <time>2021-12-24T10:17:02Z</time>
      </trkpt>
      <trkpt lat="46.72326" lon="-1.52065">
        <ele>64</ele>
        <time>2021-12-24T10:17:04Z</time>
      </trkpt>
      <trkpt lat="46.72321" lon="-1.52047">
        <ele>64</ele>
        <time>2021-12-24T10:17:06Z</time>
      </trkpt>
      <trkpt lat="46.72317" lon="-1.5203">
        <ele>64</ele>
        <time>2021-12-24T10:17:08Z</time>
      </trkpt>
      <trkpt lat="46.72313" lon="-1.52013">
        <ele>63.8</ele>
        <time>2021-12-24T10:17:10Z</time>
      </trkpt>
      <trkpt lat="46.72309" lon="-1.51997">
        <ele>63.8</ele>
        <time>2021-12-24T10:17:12Z</time>
      </trkpt>
      <trkpt lat="46.72305" lon="-1.5198">
        <ele>63.6</ele>
        <time>2021-12-24T10:17:14Z</time>
      </trkpt>
      <trkpt lat="46.72301" lon="-1.51963">
        <ele>63.8</ele>
        <time>2021-12-24T10:17:16Z</time>
      </trkpt>
      <trkpt lat="46.72297" lon="-1.51947">
        <ele>63.8</ele>
        <time>2021-12-24T10:17:18Z</time>
      </trkpt>
      <trkpt lat="46.72295" lon="-1.51939">
        <ele>63.8</ele>
        <time>2021-12-24T10:17:19Z</time>
      </trkpt>
      <trkpt lat="46.72292" lon="-1.51931">
        <ele>63.8</ele>
        <time>2021-12-24T10:17:20Z</time>
      </trkpt>
      <trkpt lat="46.72289" lon="-1.51916">
        <ele>63.8</ele>
        <time>2021-12-24T10:17:22Z</time>
      </trkpt>
      <trkpt lat="46.72285" lon="-1.51901">
        <ele>63.8</ele>
        <time>2021-12-24T10:17:24Z</time>
      </trkpt>
      <trkpt lat="46.72283" lon="-1.51893">
        <ele>63.8</ele>
        <time>2021-12-24T10:17:25Z</time>
      </trkpt>
      <trkpt lat="46.72281" lon="-1.51886">
        <ele>63.8</ele>
        <time>2021-12-24T10:17:26Z</time>
      </trkpt>
      <trkpt lat="46.72277" lon="-1.5187">
        <ele>63.8</ele>
        <time>2021-12-24T10:17:28Z</time>
      </trkpt>
      <trkpt lat="46.72274" lon="-1.51855">
        <ele>63.6</ele>
        <time>2021-12-24T10:17:30Z</time>
      </trkpt>
      <trkpt lat="46.7227" lon="-1.51839">
        <ele>63.6</ele>
        <time>2021-12-24T10:17:32Z</time>
      </trkpt>
      <trkpt lat="46.72267" lon="-1.51823">
        <ele>63.6</ele>
        <time>2021-12-24T10:17:34Z</time>
      </trkpt>
      <trkpt lat="46.72265" lon="-1.51815">
        <ele>63.6</ele>
        <time>2021-12-24T10:17:35Z</time>
      </trkpt>
      <trkpt lat="46.72262" lon="-1.51807">
        <ele>63.6</ele>
        <time>2021-12-24T10:17:36Z</time>
      </trkpt>
      <trkpt lat="46.72258" lon="-1.51792">
        <ele>63.6</ele>
        <time>2021-12-24T10:17:38Z</time>
      </trkpt>
      <trkpt lat="46.72254" lon="-1.51776">
        <ele>64</ele>
        <time>2021-12-24T10:17:40Z</time>
      </trkpt>
      <trkpt lat="46.7225" lon="-1.5176">
        <ele>63.8</ele>
        <time>2021-12-24T10:17:42Z</time>
      </trkpt>
      <trkpt lat="46.72246" lon="-1.51745">
        <ele>63.8</ele>
        <time>2021-12-24T10:17:44Z</time>
      </trkpt>
      <trkpt lat="46.72243" lon="-1.5173">
        <ele>63.8</ele>
        <time>2021-12-24T10:17:46Z</time>
      </trkpt>
      <trkpt lat="46.7224" lon="-1.51716">
        <ele>64</ele>
        <time>2021-12-24T10:17:48Z</time>
      </trkpt>
      <trkpt lat="46.72237" lon="-1.51705">
        <ele>64</ele>
        <time>2021-12-24T10:17:50Z</time>
      </trkpt>
      <trkpt lat="46.72234" lon="-1.51689">
        <ele>64</ele>
        <time>2021-12-24T10:17:52Z</time>
      </trkpt>
      <trkpt lat="46.72229" lon="-1.51672">
        <ele>63.8</ele>
        <time>2021-12-24T10:17:54Z</time>
      </trkpt>
      <trkpt lat="46.72227" lon="-1.51664">
        <ele>63.8</ele>
        <time>2021-12-24T10:17:55Z</time>
      </trkpt>
      <trkpt lat="46.72224" lon="-1.51655">
        <ele>63.8</ele>
        <time>2021-12-24T10:17:56Z</time>
      </trkpt>
      <trkpt lat="46.7222" lon="-1.51638">
        <ele>63.8</ele>
        <time>2021-12-24T10:17:58Z</time>
      </trkpt>
      <trkpt lat="46.72216" lon="-1.51621">
        <ele>64</ele>
        <time>2021-12-24T10:18:00Z</time>
      </trkpt>
      <trkpt lat="46.72214" lon="-1.51613">
        <ele>63.8</ele>
        <time>2021-12-24T10:18:01Z</time>
      </trkpt>
      <trkpt lat="46.72212" lon="-1.51605">
        <ele>63.8</ele>
        <time>2021-12-24T10:18:02Z</time>
      </trkpt>
      <trkpt lat="46.72208" lon="-1.51588">
        <ele>63.8</ele>
        <time>2021-12-24T10:18:04Z</time>
      </trkpt>
      <trkpt lat="46.72203" lon="-1.51572">
        <ele>63.8</ele>
        <time>2021-12-24T10:18:06Z</time>
      </trkpt>
      <trkpt lat="46.72201" lon="-1.51564">
        <ele>63.8</ele>
        <time>2021-12-24T10:18:07Z</time>
      </trkpt>
      <trkpt lat="46.72199" lon="-1.51556">
        <ele>64</ele>
        <time>2021-12-24T10:18:08Z</time>
      </trkpt>
      <trkpt lat="46.72196" lon="-1.51541">
        <ele>64</ele>
        <time>2021-12-24T10:18:10Z</time>
      </trkpt>
      <trkpt lat="46.72192" lon="-1.51525">
        <ele>64</ele>
        <time>2021-12-24T10:18:12Z</time>
      </trkpt>
      <trkpt lat="46.72188" lon="-1.51508">
        <ele>64</ele>
        <time>2021-12-24T10:18:14Z</time>
      </trkpt>
      <trkpt lat="46.72185" lon="-1.51491">
        <ele>64</ele>
        <time>2021-12-24T10:18:16Z</time>
      </trkpt>
      <trkpt lat="46.72181" lon="-1.51476">
        <ele>64</ele>
        <time>2021-12-24T10:18:18Z</time>
      </trkpt>
      <trkpt lat="46.72176" lon="-1.5146">
        <ele>64</ele>
        <time>2021-12-24T10:18:20Z</time>
      </trkpt>
      <trkpt lat="46.72172" lon="-1.51443">
        <ele>64</ele>
        <time>2021-12-24T10:18:22Z</time>
      </trkpt>
      <trkpt lat="46.72167" lon="-1.51427">
        <ele>64</ele>
        <time>2021-12-24T10:18:24Z</time>
      </trkpt>
      <trkpt lat="46.72162" lon="-1.51411">
        <ele>64</ele>
        <time>2021-12-24T10:18:26Z</time>
      </trkpt>
      <trkpt lat="46.72158" lon="-1.51395">
        <ele>63.8</ele>
        <time>2021-12-24T10:18:28Z</time>
      </trkpt>
      <trkpt lat="46.72156" lon="-1.51387">
        <ele>63.8</ele>
        <time>2021-12-24T10:18:29Z</time>
      </trkpt>
      <trkpt lat="46.72154" lon="-1.51378">
        <ele>63.8</ele>
        <time>2021-12-24T10:18:30Z</time>
      </trkpt>
      <trkpt lat="46.7215" lon="-1.51362">
        <ele>63.8</ele>
        <time>2021-12-24T10:18:32Z</time>
      </trkpt>
      <trkpt lat="46.72147" lon="-1.51346">
        <ele>63.8</ele>
        <time>2021-12-24T10:18:34Z</time>
      </trkpt>
      <trkpt lat="46.72143" lon="-1.5133">
        <ele>63.6</ele>
        <time>2021-12-24T10:18:36Z</time>
      </trkpt>
      <trkpt lat="46.72139" lon="-1.51315">
        <ele>63.6</ele>
        <time>2021-12-24T10:18:38Z</time>
      </trkpt>
      <trkpt lat="46.72135" lon="-1.51298">
        <ele>63.6</ele>
        <time>2021-12-24T10:18:40Z</time>
      </trkpt>
      <trkpt lat="46.72131" lon="-1.51283">
        <ele>63.6</ele>
        <time>2021-12-24T10:18:42Z</time>
      </trkpt>
      <trkpt lat="46.72127" lon="-1.51271">
        <ele>63.6</ele>
        <time>2021-12-24T10:18:44Z</time>
      </trkpt>
      <trkpt lat="46.72126" lon="-1.51267">
        <ele>63.6</ele>
        <time>2021-12-24T10:18:45Z</time>
      </trkpt>
      <trkpt lat="46.72126" lon="-1.51264">
        <ele>63.4</ele>
        <time>2021-12-24T10:18:46Z</time>
      </trkpt>
      <trkpt lat="46.72126" lon="-1.51262">
        <ele>63.4</ele>
        <time>2021-12-24T10:18:47Z</time>
      </trkpt>
      <trkpt lat="46.72125" lon="-1.5126">
        <ele>63.6</ele>
        <time>2021-12-24T10:18:48Z</time>
      </trkpt>
      <trkpt lat="46.72124" lon="-1.51253">
        <ele>63.6</ele>
        <time>2021-12-24T10:18:50Z</time>
      </trkpt>
      <trkpt lat="46.72123" lon="-1.51249">
        <ele>63.8</ele>
        <time>2021-12-24T10:18:51Z</time>
      </trkpt>
      <trkpt lat="46.72121" lon="-1.51244">
        <ele>64</ele>
        <time>2021-12-24T10:18:52Z</time>
      </trkpt>
      <trkpt lat="46.72117" lon="-1.51232">
        <ele>63.8</ele>
        <time>2021-12-24T10:18:54Z</time>
      </trkpt>
      <trkpt lat="46.72116" lon="-1.51226">
        <ele>64</ele>
        <time>2021-12-24T10:18:55Z</time>
      </trkpt>
      <trkpt lat="46.72114" lon="-1.51219">
        <ele>63.8</ele>
        <time>2021-12-24T10:18:56Z</time>
      </trkpt>
      <trkpt lat="46.72112" lon="-1.51204">
        <ele>63.6</ele>
        <time>2021-12-24T10:18:58Z</time>
      </trkpt>
      <trkpt lat="46.72108" lon="-1.51189">
        <ele>63.6</ele>
        <time>2021-12-24T10:19:00Z</time>
      </trkpt>
      <trkpt lat="46.72107" lon="-1.51182">
        <ele>63.6</ele>
        <time>2021-12-24T10:19:01Z</time>
      </trkpt>
      <trkpt lat="46.72105" lon="-1.51174">
        <ele>63.6</ele>
        <time>2021-12-24T10:19:02Z</time>
      </trkpt>
      <trkpt lat="46.72101" lon="-1.51159">
        <ele>63.8</ele>
        <time>2021-12-24T10:19:04Z</time>
      </trkpt>
      <trkpt lat="46.72097" lon="-1.51142">
        <ele>63.8</ele>
        <time>2021-12-24T10:19:06Z</time>
      </trkpt>
      <trkpt lat="46.72093" lon="-1.51126">
        <ele>63.8</ele>
        <time>2021-12-24T10:19:08Z</time>
      </trkpt>
      <trkpt lat="46.72088" lon="-1.51109">
        <ele>63.8</ele>
        <time>2021-12-24T10:19:10Z</time>
      </trkpt>
      <trkpt lat="46.72084" lon="-1.51092">
        <ele>63.8</ele>
        <time>2021-12-24T10:19:12Z</time>
      </trkpt>
      <trkpt lat="46.72081" lon="-1.51075">
        <ele>63.8</ele>
        <time>2021-12-24T10:19:14Z</time>
      </trkpt>
      <trkpt lat="46.72079" lon="-1.51067">
        <ele>63.8</ele>
        <time>2021-12-24T10:19:15Z</time>
      </trkpt>
      <trkpt lat="46.72077" lon="-1.51058">
        <ele>63.8</ele>
        <time>2021-12-24T10:19:16Z</time>
      </trkpt>
      <trkpt lat="46.72072" lon="-1.51041">
        <ele>63.6</ele>
        <time>2021-12-24T10:19:18Z</time>
      </trkpt>
      <trkpt lat="46.72067" lon="-1.51023">
        <ele>63.6</ele>
        <time>2021-12-24T10:19:20Z</time>
      </trkpt>
      <trkpt lat="46.72063" lon="-1.51005">
        <ele>63.4</ele>
        <time>2021-12-24T10:19:22Z</time>
      </trkpt>
      <trkpt lat="46.72059" lon="-1.50987">
        <ele>63.4</ele>
        <time>2021-12-24T10:19:24Z</time>
      </trkpt>
      <trkpt lat="46.72054" lon="-1.50969">
        <ele>63.4</ele>
        <time>2021-12-24T10:19:26Z</time>
      </trkpt>
      <trkpt lat="46.72049" lon="-1.50951">
        <ele>63.2</ele>
        <time>2021-12-24T10:19:28Z</time>
      </trkpt>
      <trkpt lat="46.72045" lon="-1.50932">
        <ele>63</ele>
        <time>2021-12-24T10:19:30Z</time>
      </trkpt>
      <trkpt lat="46.7204" lon="-1.50914">
        <ele>63</ele>
        <time>2021-12-24T10:19:32Z</time>
      </trkpt>
      <trkpt lat="46.72038" lon="-1.50905">
        <ele>62.8</ele>
        <time>2021-12-24T10:19:33Z</time>
      </trkpt>
      <trkpt lat="46.72036" lon="-1.50896">
        <ele>62.8</ele>
        <time>2021-12-24T10:19:34Z</time>
      </trkpt>
      <trkpt lat="46.72032" lon="-1.50877">
        <ele>62.4</ele>
        <time>2021-12-24T10:19:36Z</time>
      </trkpt>
      <trkpt lat="46.72027" lon="-1.50859">
        <ele>62.4</ele>
        <time>2021-12-24T10:19:38Z</time>
      </trkpt>
      <trkpt lat="46.72022" lon="-1.50841">
        <ele>62.2</ele>
        <time>2021-12-24T10:19:40Z</time>
      </trkpt>
      <trkpt lat="46.72017" lon="-1.50824">
        <ele>62</ele>
        <time>2021-12-24T10:19:42Z</time>
      </trkpt>
      <trkpt lat="46.72015" lon="-1.50815">
        <ele>61.8</ele>
        <time>2021-12-24T10:19:43Z</time>
      </trkpt>
      <trkpt lat="46.72013" lon="-1.50806">
        <ele>61.8</ele>
        <time>2021-12-24T10:19:44Z</time>
      </trkpt>
      <trkpt lat="46.72011" lon="-1.50798">
        <ele>61.8</ele>
        <time>2021-12-24T10:19:45Z</time>
      </trkpt>
      <trkpt lat="46.72009" lon="-1.50789">
        <ele>61.6</ele>
        <time>2021-12-24T10:19:46Z</time>
      </trkpt>
      <trkpt lat="46.72005" lon="-1.50771">
        <ele>61.4</ele>
        <time>2021-12-24T10:19:48Z</time>
      </trkpt>
      <trkpt lat="46.72" lon="-1.50752">
        <ele>61.2</ele>
        <time>2021-12-24T10:19:50Z</time>
      </trkpt>
      <trkpt lat="46.71996" lon="-1.50734">
        <ele>61.2</ele>
        <time>2021-12-24T10:19:52Z</time>
      </trkpt>
      <trkpt lat="46.71994" lon="-1.50726">
        <ele>61</ele>
        <time>2021-12-24T10:19:53Z</time>
      </trkpt>
      <trkpt lat="46.71992" lon="-1.50717">
        <ele>61</ele>
        <time>2021-12-24T10:19:54Z</time>
      </trkpt>
      <trkpt lat="46.71988" lon="-1.507">
        <ele>60.8</ele>
        <time>2021-12-24T10:19:56Z</time>
      </trkpt>
      <trkpt lat="46.71984" lon="-1.50682">
        <ele>60.6</ele>
        <time>2021-12-24T10:19:58Z</time>
      </trkpt>
      <trkpt lat="46.71981" lon="-1.50673">
        <ele>60.6</ele>
        <time>2021-12-24T10:19:59Z</time>
      </trkpt>
      <trkpt lat="46.71979" lon="-1.50664">
        <ele>60.6</ele>
        <time>2021-12-24T10:20:00Z</time>
      </trkpt>
      <trkpt lat="46.71975" lon="-1.50646">
        <ele>60.4</ele>
        <time>2021-12-24T10:20:02Z</time>
      </trkpt>
      <trkpt lat="46.7197" lon="-1.50628">
        <ele>60.2</ele>
        <time>2021-12-24T10:20:04Z</time>
      </trkpt>
      <trkpt lat="46.71966" lon="-1.5061">
        <ele>60</ele>
        <time>2021-12-24T10:20:06Z</time>
      </trkpt>
      <trkpt lat="46.71962" lon="-1.50594">
        <ele>60</ele>
        <time>2021-12-24T10:20:08Z</time>
      </trkpt>
      <trkpt lat="46.71959" lon="-1.50578">
        <ele>60</ele>
        <time>2021-12-24T10:20:10Z</time>
      </trkpt>
      <trkpt lat="46.71957" lon="-1.50571">
        <ele>60</ele>
        <time>2021-12-24T10:20:11Z</time>
      </trkpt>
      <trkpt lat="46.71955" lon="-1.50565">
        <ele>60</ele>
        <time>2021-12-24T10:20:12Z</time>
      </trkpt>
      <trkpt lat="46.71951" lon="-1.50552">
        <ele>60</ele>
        <time>2021-12-24T10:20:14Z</time>
      </trkpt>
      <trkpt lat="46.71947" lon="-1.50537">
        <ele>60</ele>
        <time>2021-12-24T10:20:16Z</time>
      </trkpt>
      <trkpt lat="46.71945" lon="-1.50529">
        <ele>60</ele>
        <time>2021-12-24T10:20:17Z</time>
      </trkpt>
      <trkpt lat="46.71943" lon="-1.50522">
        <ele>60</ele>
        <time>2021-12-24T10:20:18Z</time>
      </trkpt>
      <trkpt lat="46.71941" lon="-1.50514">
        <ele>60</ele>
        <time>2021-12-24T10:20:19Z</time>
      </trkpt>
      <trkpt lat="46.71938" lon="-1.50507">
        <ele>59.8</ele>
        <time>2021-12-24T10:20:20Z</time>
      </trkpt>
      <trkpt lat="46.71935" lon="-1.50492">
        <ele>59.8</ele>
        <time>2021-12-24T10:20:22Z</time>
      </trkpt>
      <trkpt lat="46.71933" lon="-1.50484">
        <ele>59.8</ele>
        <time>2021-12-24T10:20:23Z</time>
      </trkpt>
      <trkpt lat="46.7193" lon="-1.50476">
        <ele>59.8</ele>
        <time>2021-12-24T10:20:24Z</time>
      </trkpt>
      <trkpt lat="46.71928" lon="-1.50468">
        <ele>59.8</ele>
        <time>2021-12-24T10:20:25Z</time>
      </trkpt>
      <trkpt lat="46.71925" lon="-1.5046">
        <ele>59.8</ele>
        <time>2021-12-24T10:20:26Z</time>
      </trkpt>
      <trkpt lat="46.71923" lon="-1.50452">
        <ele>59.6</ele>
        <time>2021-12-24T10:20:27Z</time>
      </trkpt>
      <trkpt lat="46.71921" lon="-1.50444">
        <ele>59.6</ele>
        <time>2021-12-24T10:20:28Z</time>
      </trkpt>
      <trkpt lat="46.71917" lon="-1.50427">
        <ele>59.6</ele>
        <time>2021-12-24T10:20:30Z</time>
      </trkpt>
      <trkpt lat="46.71913" lon="-1.50411">
        <ele>59.6</ele>
        <time>2021-12-24T10:20:32Z</time>
      </trkpt>
      <trkpt lat="46.71912" lon="-1.50403">
        <ele>59.6</ele>
        <time>2021-12-24T10:20:33Z</time>
      </trkpt>
      <trkpt lat="46.7191" lon="-1.50395">
        <ele>59.6</ele>
        <time>2021-12-24T10:20:34Z</time>
      </trkpt>
      <trkpt lat="46.71906" lon="-1.5038">
        <ele>59.6</ele>
        <time>2021-12-24T10:20:36Z</time>
      </trkpt>
      <trkpt lat="46.71904" lon="-1.50372">
        <ele>59.6</ele>
        <time>2021-12-24T10:20:37Z</time>
      </trkpt>
      <trkpt lat="46.71902" lon="-1.50364">
        <ele>59.6</ele>
        <time>2021-12-24T10:20:38Z</time>
      </trkpt>
      <trkpt lat="46.719" lon="-1.50356">
        <ele>59.6</ele>
        <time>2021-12-24T10:20:39Z</time>
      </trkpt>
      <trkpt lat="46.71898" lon="-1.50348">
        <ele>59.6</ele>
        <time>2021-12-24T10:20:40Z</time>
      </trkpt>
      <trkpt lat="46.71895" lon="-1.50333">
        <ele>59.6</ele>
        <time>2021-12-24T10:20:42Z</time>
      </trkpt>
      <trkpt lat="46.71891" lon="-1.50318">
        <ele>59.6</ele>
        <time>2021-12-24T10:20:44Z</time>
      </trkpt>
      <trkpt lat="46.7189" lon="-1.50312">
        <ele>59.4</ele>
        <time>2021-12-24T10:20:45Z</time>
      </trkpt>
      <trkpt lat="46.71889" lon="-1.50307">
        <ele>59.4</ele>
        <time>2021-12-24T10:20:46Z</time>
      </trkpt>
      <trkpt lat="46.71885" lon="-1.50291">
        <ele>59.2</ele>
        <time>2021-12-24T10:20:48Z</time>
      </trkpt>
      <trkpt lat="46.71881" lon="-1.50276">
        <ele>59</ele>
        <time>2021-12-24T10:20:50Z</time>
      </trkpt>
      <trkpt lat="46.71877" lon="-1.50261">
        <ele>59</ele>
        <time>2021-12-24T10:20:52Z</time>
      </trkpt>
      <trkpt lat="46.71873" lon="-1.50247">
        <ele>58.8</ele>
        <time>2021-12-24T10:20:54Z</time>
      </trkpt>
      <trkpt lat="46.71872" lon="-1.5024">
        <ele>58.8</ele>
        <time>2021-12-24T10:20:55Z</time>
      </trkpt>
      <trkpt lat="46.7187" lon="-1.50233">
        <ele>58.8</ele>
        <time>2021-12-24T10:20:56Z</time>
      </trkpt>
      <trkpt lat="46.71867" lon="-1.5022">
        <ele>58.8</ele>
        <time>2021-12-24T10:20:58Z</time>
      </trkpt>
      <trkpt lat="46.71863" lon="-1.50205">
        <ele>58.8</ele>
        <time>2021-12-24T10:21:00Z</time>
      </trkpt>
      <trkpt lat="46.71861" lon="-1.50198">
        <ele>58.8</ele>
        <time>2021-12-24T10:21:01Z</time>
      </trkpt>
      <trkpt lat="46.71859" lon="-1.5019">
        <ele>58.8</ele>
        <time>2021-12-24T10:21:02Z</time>
      </trkpt>
      <trkpt lat="46.71856" lon="-1.50175">
        <ele>58.8</ele>
        <time>2021-12-24T10:21:04Z</time>
      </trkpt>
      <trkpt lat="46.71854" lon="-1.50167">
        <ele>58.8</ele>
        <time>2021-12-24T10:21:05Z</time>
      </trkpt>
      <trkpt lat="46.71852" lon="-1.5016">
        <ele>58.8</ele>
        <time>2021-12-24T10:21:06Z</time>
      </trkpt>
      <trkpt lat="46.7185" lon="-1.50153">
        <ele>58.8</ele>
        <time>2021-12-24T10:21:07Z</time>
      </trkpt>
      <trkpt lat="46.71847" lon="-1.50145">
        <ele>58.8</ele>
        <time>2021-12-24T10:21:08Z</time>
      </trkpt>
      <trkpt lat="46.71843" lon="-1.5013">
        <ele>58.6</ele>
        <time>2021-12-24T10:21:10Z</time>
      </trkpt>
      <trkpt lat="46.71839" lon="-1.50116">
        <ele>58.6</ele>
        <time>2021-12-24T10:21:12Z</time>
      </trkpt>
      <trkpt lat="46.71837" lon="-1.50109">
        <ele>58.6</ele>
        <time>2021-12-24T10:21:13Z</time>
      </trkpt>
      <trkpt lat="46.71836" lon="-1.50102">
        <ele>58.6</ele>
        <time>2021-12-24T10:21:14Z</time>
      </trkpt>
      <trkpt lat="46.71832" lon="-1.50087">
        <ele>58.8</ele>
        <time>2021-12-24T10:21:16Z</time>
      </trkpt>
      <trkpt lat="46.71828" lon="-1.50074">
        <ele>58.4</ele>
        <time>2021-12-24T10:21:18Z</time>
      </trkpt>
      <trkpt lat="46.71825" lon="-1.5006">
        <ele>58.8</ele>
        <time>2021-12-24T10:21:20Z</time>
      </trkpt>
      <trkpt lat="46.71823" lon="-1.50046">
        <ele>59</ele>
        <time>2021-12-24T10:21:22Z</time>
      </trkpt>
      <trkpt lat="46.71821" lon="-1.50039">
        <ele>59</ele>
        <time>2021-12-24T10:21:23Z</time>
      </trkpt>
      <trkpt lat="46.7182" lon="-1.50031">
        <ele>59</ele>
        <time>2021-12-24T10:21:24Z</time>
      </trkpt>
      <trkpt lat="46.71818" lon="-1.50024">
        <ele>59.2</ele>
        <time>2021-12-24T10:21:25Z</time>
      </trkpt>
      <trkpt lat="46.71816" lon="-1.50018">
        <ele>59.2</ele>
        <time>2021-12-24T10:21:26Z</time>
      </trkpt>
      <trkpt lat="46.71815" lon="-1.50011">
        <ele>59.2</ele>
        <time>2021-12-24T10:21:27Z</time>
      </trkpt>
      <trkpt lat="46.71813" lon="-1.50004">
        <ele>59.2</ele>
        <time>2021-12-24T10:21:28Z</time>
      </trkpt>
      <trkpt lat="46.7181" lon="-1.4999">
        <ele>59.2</ele>
        <time>2021-12-24T10:21:30Z</time>
      </trkpt>
      <trkpt lat="46.71806" lon="-1.49977">
        <ele>59.2</ele>
        <time>2021-12-24T10:21:32Z</time>
      </trkpt>
      <trkpt lat="46.71805" lon="-1.4997">
        <ele>59.4</ele>
        <time>2021-12-24T10:21:33Z</time>
      </trkpt>
      <trkpt lat="46.71803" lon="-1.49963">
        <ele>59.4</ele>
        <time>2021-12-24T10:21:34Z</time>
      </trkpt>
      <trkpt lat="46.718" lon="-1.49948">
        <ele>59.4</ele>
        <time>2021-12-24T10:21:36Z</time>
      </trkpt>
      <trkpt lat="46.71796" lon="-1.49934">
        <ele>59.2</ele>
        <time>2021-12-24T10:21:38Z</time>
      </trkpt>
      <trkpt lat="46.71794" lon="-1.49927">
        <ele>59.2</ele>
        <time>2021-12-24T10:21:39Z</time>
      </trkpt>
      <trkpt lat="46.71793" lon="-1.4992">
        <ele>59.2</ele>
        <time>2021-12-24T10:21:40Z</time>
      </trkpt>
      <trkpt lat="46.71789" lon="-1.49905">
        <ele>59.2</ele>
        <time>2021-12-24T10:21:42Z</time>
      </trkpt>
      <trkpt lat="46.71785" lon="-1.49891">
        <ele>59.2</ele>
        <time>2021-12-24T10:21:44Z</time>
      </trkpt>
      <trkpt lat="46.71784" lon="-1.49884">
        <ele>59.4</ele>
        <time>2021-12-24T10:21:45Z</time>
      </trkpt>
      <trkpt lat="46.71782" lon="-1.49877">
        <ele>59.4</ele>
        <time>2021-12-24T10:21:46Z</time>
      </trkpt>
      <trkpt lat="46.71778" lon="-1.49863">
        <ele>59.4</ele>
        <time>2021-12-24T10:21:48Z</time>
      </trkpt>
      <trkpt lat="46.71775" lon="-1.49849">
        <ele>59.2</ele>
        <time>2021-12-24T10:21:50Z</time>
      </trkpt>
      <trkpt lat="46.71774" lon="-1.49841">
        <ele>59.4</ele>
        <time>2021-12-24T10:21:51Z</time>
      </trkpt>
      <trkpt lat="46.71772" lon="-1.49834">
        <ele>59.4</ele>
        <time>2021-12-24T10:21:52Z</time>
      </trkpt>
      <trkpt lat="46.71768" lon="-1.4982">
        <ele>59.6</ele>
        <time>2021-12-24T10:21:54Z</time>
      </trkpt>
      <trkpt lat="46.71765" lon="-1.49806">
        <ele>59.8</ele>
        <time>2021-12-24T10:21:56Z</time>
      </trkpt>
      <trkpt lat="46.71764" lon="-1.498">
        <ele>59.8</ele>
        <time>2021-12-24T10:21:57Z</time>
      </trkpt>
      <trkpt lat="46.71762" lon="-1.49793">
        <ele>60</ele>
        <time>2021-12-24T10:21:58Z</time>
      </trkpt>
      <trkpt lat="46.7176" lon="-1.49778">
        <ele>60</ele>
        <time>2021-12-24T10:22:00Z</time>
      </trkpt>
      <trkpt lat="46.71756" lon="-1.49764">
        <ele>60.2</ele>
        <time>2021-12-24T10:22:02Z</time>
      </trkpt>
      <trkpt lat="46.71754" lon="-1.49757">
        <ele>60.2</ele>
        <time>2021-12-24T10:22:03Z</time>
      </trkpt>
      <trkpt lat="46.71752" lon="-1.4975">
        <ele>60.4</ele>
        <time>2021-12-24T10:22:04Z</time>
      </trkpt>
      <trkpt lat="46.71748" lon="-1.49734">
        <ele>60.4</ele>
        <time>2021-12-24T10:22:06Z</time>
      </trkpt>
      <trkpt lat="46.71744" lon="-1.49719">
        <ele>60.4</ele>
        <time>2021-12-24T10:22:08Z</time>
      </trkpt>
      <trkpt lat="46.71742" lon="-1.49711">
        <ele>60.6</ele>
        <time>2021-12-24T10:22:09Z</time>
      </trkpt>
      <trkpt lat="46.71739" lon="-1.49703">
        <ele>60.6</ele>
        <time>2021-12-24T10:22:10Z</time>
      </trkpt>
      <trkpt lat="46.71735" lon="-1.49688">
        <ele>60.8</ele>
        <time>2021-12-24T10:22:12Z</time>
      </trkpt>
      <trkpt lat="46.71731" lon="-1.49673">
        <ele>61</ele>
        <time>2021-12-24T10:22:14Z</time>
      </trkpt>
      <trkpt lat="46.71729" lon="-1.49665">
        <ele>61</ele>
        <time>2021-12-24T10:22:15Z</time>
      </trkpt>
      <trkpt lat="46.71727" lon="-1.49657">
        <ele>61</ele>
        <time>2021-12-24T10:22:16Z</time>
      </trkpt>
      <trkpt lat="46.71724" lon="-1.49641">
        <ele>61.2</ele>
        <time>2021-12-24T10:22:18Z</time>
      </trkpt>
      <trkpt lat="46.7172" lon="-1.49625">
        <ele>61.2</ele>
        <time>2021-12-24T10:22:20Z</time>
      </trkpt>
      <trkpt lat="46.71716" lon="-1.4961">
        <ele>61.2</ele>
        <time>2021-12-24T10:22:22Z</time>
      </trkpt>
      <trkpt lat="46.71712" lon="-1.49593">
        <ele>61.2</ele>
        <time>2021-12-24T10:22:24Z</time>
      </trkpt>
      <trkpt lat="46.71709" lon="-1.49577">
        <ele>61.4</ele>
        <time>2021-12-24T10:22:26Z</time>
      </trkpt>
      <trkpt lat="46.71705" lon="-1.49561">
        <ele>61.4</ele>
        <time>2021-12-24T10:22:28Z</time>
      </trkpt>
      <trkpt lat="46.71703" lon="-1.49554">
        <ele>61.4</ele>
        <time>2021-12-24T10:22:29Z</time>
      </trkpt>
      <trkpt lat="46.71701" lon="-1.49546">
        <ele>61.6</ele>
        <time>2021-12-24T10:22:30Z</time>
      </trkpt>
      <trkpt lat="46.71696" lon="-1.4953">
        <ele>61.6</ele>
        <time>2021-12-24T10:22:32Z</time>
      </trkpt>
      <trkpt lat="46.71693" lon="-1.49514">
        <ele>61.8</ele>
        <time>2021-12-24T10:22:34Z</time>
      </trkpt>
      <trkpt lat="46.7169" lon="-1.49499">
        <ele>62</ele>
        <time>2021-12-24T10:22:36Z</time>
      </trkpt>
      <trkpt lat="46.71686" lon="-1.49484">
        <ele>62</ele>
        <time>2021-12-24T10:22:38Z</time>
      </trkpt>
      <trkpt lat="46.71682" lon="-1.49468">
        <ele>62.2</ele>
        <time>2021-12-24T10:22:40Z</time>
      </trkpt>
      <trkpt lat="46.7168" lon="-1.4946">
        <ele>62.2</ele>
        <time>2021-12-24T10:22:41Z</time>
      </trkpt>
      <trkpt lat="46.71678" lon="-1.49452">
        <ele>62.2</ele>
        <time>2021-12-24T10:22:42Z</time>
      </trkpt>
      <trkpt lat="46.71674" lon="-1.49437">
        <ele>62.2</ele>
        <time>2021-12-24T10:22:44Z</time>
      </trkpt>
      <trkpt lat="46.7167" lon="-1.49421">
        <ele>62.2</ele>
        <time>2021-12-24T10:22:46Z</time>
      </trkpt>
      <trkpt lat="46.71666" lon="-1.49405">
        <ele>62.2</ele>
        <time>2021-12-24T10:22:48Z</time>
      </trkpt>
      <trkpt lat="46.71662" lon="-1.49389">
        <ele>62.2</ele>
        <time>2021-12-24T10:22:50Z</time>
      </trkpt>
      <trkpt lat="46.71658" lon="-1.49373">
        <ele>62</ele>
        <time>2021-12-24T10:22:52Z</time>
      </trkpt>
      <trkpt lat="46.71655" lon="-1.49366">
        <ele>62</ele>
        <time>2021-12-24T10:22:53Z</time>
      </trkpt>
      <trkpt lat="46.71653" lon="-1.49359">
        <ele>62.2</ele>
        <time>2021-12-24T10:22:54Z</time>
      </trkpt>
      <trkpt lat="46.71651" lon="-1.49351">
        <ele>62.2</ele>
        <time>2021-12-24T10:22:55Z</time>
      </trkpt>
      <trkpt lat="46.71648" lon="-1.49343">
        <ele>62.2</ele>
        <time>2021-12-24T10:22:56Z</time>
      </trkpt>
      <trkpt lat="46.71647" lon="-1.49335">
        <ele>62.2</ele>
        <time>2021-12-24T10:22:57Z</time>
      </trkpt>
      <trkpt lat="46.71645" lon="-1.49326">
        <ele>62.2</ele>
        <time>2021-12-24T10:22:58Z</time>
      </trkpt>
      <trkpt lat="46.71642" lon="-1.4931">
        <ele>62.2</ele>
        <time>2021-12-24T10:23:00Z</time>
      </trkpt>
      <trkpt lat="46.7164" lon="-1.49302">
        <ele>62.2</ele>
        <time>2021-12-24T10:23:01Z</time>
      </trkpt>
      <trkpt lat="46.71637" lon="-1.49294">
        <ele>62.4</ele>
        <time>2021-12-24T10:23:02Z</time>
      </trkpt>
      <trkpt lat="46.71635" lon="-1.49286">
        <ele>62.4</ele>
        <time>2021-12-24T10:23:03Z</time>
      </trkpt>
      <trkpt lat="46.71632" lon="-1.49278">
        <ele>62.4</ele>
        <time>2021-12-24T10:23:04Z</time>
      </trkpt>
      <trkpt lat="46.71629" lon="-1.49262">
        <ele>62.6</ele>
        <time>2021-12-24T10:23:06Z</time>
      </trkpt>
      <trkpt lat="46.71627" lon="-1.49255">
        <ele>62.6</ele>
        <time>2021-12-24T10:23:07Z</time>
      </trkpt>
      <trkpt lat="46.71626" lon="-1.49247">
        <ele>62.8</ele>
        <time>2021-12-24T10:23:08Z</time>
      </trkpt>
      <trkpt lat="46.71621" lon="-1.49232">
        <ele>62.8</ele>
        <time>2021-12-24T10:23:10Z</time>
      </trkpt>
      <trkpt lat="46.71617" lon="-1.49216">
        <ele>62.8</ele>
        <time>2021-12-24T10:23:12Z</time>
      </trkpt>
      <trkpt lat="46.71614" lon="-1.49201">
        <ele>63</ele>
        <time>2021-12-24T10:23:14Z</time>
      </trkpt>
      <trkpt lat="46.71611" lon="-1.49185">
        <ele>63</ele>
        <time>2021-12-24T10:23:16Z</time>
      </trkpt>
      <trkpt lat="46.71607" lon="-1.49169">
        <ele>63</ele>
        <time>2021-12-24T10:23:18Z</time>
      </trkpt>
      <trkpt lat="46.71605" lon="-1.49162">
        <ele>63.2</ele>
        <time>2021-12-24T10:23:19Z</time>
      </trkpt>
      <trkpt lat="46.71603" lon="-1.49154">
        <ele>63.2</ele>
        <time>2021-12-24T10:23:20Z</time>
      </trkpt>
      <trkpt lat="46.716" lon="-1.49139">
        <ele>63.4</ele>
        <time>2021-12-24T10:23:22Z</time>
      </trkpt>
      <trkpt lat="46.71596" lon="-1.49125">
        <ele>63.6</ele>
        <time>2021-12-24T10:23:24Z</time>
      </trkpt>
      <trkpt lat="46.71594" lon="-1.49118">
        <ele>63.8</ele>
        <time>2021-12-24T10:23:25Z</time>
      </trkpt>
      <trkpt lat="46.71592" lon="-1.4911">
        <ele>63.8</ele>
        <time>2021-12-24T10:23:26Z</time>
      </trkpt>
      <trkpt lat="46.71589" lon="-1.49095">
        <ele>64.2</ele>
        <time>2021-12-24T10:23:28Z</time>
      </trkpt>
      <trkpt lat="46.71586" lon="-1.49088">
        <ele>64.2</ele>
        <time>2021-12-24T10:23:29Z</time>
      </trkpt>
      <trkpt lat="46.71584" lon="-1.49081">
        <ele>64.4</ele>
        <time>2021-12-24T10:23:30Z</time>
      </trkpt>
      <trkpt lat="46.71581" lon="-1.49065">
        <ele>64.8</ele>
        <time>2021-12-24T10:23:32Z</time>
      </trkpt>
      <trkpt lat="46.71577" lon="-1.49049">
        <ele>65.2</ele>
        <time>2021-12-24T10:23:34Z</time>
      </trkpt>
      <trkpt lat="46.71573" lon="-1.49033">
        <ele>65.4</ele>
        <time>2021-12-24T10:23:36Z</time>
      </trkpt>
      <trkpt lat="46.71569" lon="-1.49017">
        <ele>65.8</ele>
        <time>2021-12-24T10:23:38Z</time>
      </trkpt>
      <trkpt lat="46.71565" lon="-1.49">
        <ele>66</ele>
        <time>2021-12-24T10:23:40Z</time>
      </trkpt>
      <trkpt lat="46.71562" lon="-1.48984">
        <ele>66.2</ele>
        <time>2021-12-24T10:23:42Z</time>
      </trkpt>
      <trkpt lat="46.7156" lon="-1.48976">
        <ele>66.4</ele>
        <time>2021-12-24T10:23:43Z</time>
      </trkpt>
      <trkpt lat="46.71558" lon="-1.48968">
        <ele>66.4</ele>
        <time>2021-12-24T10:23:44Z</time>
      </trkpt>
      <trkpt lat="46.71554" lon="-1.48953">
        <ele>66.6</ele>
        <time>2021-12-24T10:23:46Z</time>
      </trkpt>
      <trkpt lat="46.7155" lon="-1.48938">
        <ele>66.8</ele>
        <time>2021-12-24T10:23:48Z</time>
      </trkpt>
      <trkpt lat="46.71546" lon="-1.48923">
        <ele>67</ele>
        <time>2021-12-24T10:23:50Z</time>
      </trkpt>
      <trkpt lat="46.71542" lon="-1.48907">
        <ele>67.2</ele>
        <time>2021-12-24T10:23:52Z</time>
      </trkpt>
      <trkpt lat="46.71537" lon="-1.48891">
        <ele>67.4</ele>
        <time>2021-12-24T10:23:54Z</time>
      </trkpt>
      <trkpt lat="46.71534" lon="-1.48875">
        <ele>67.6</ele>
        <time>2021-12-24T10:23:56Z</time>
      </trkpt>
      <trkpt lat="46.71532" lon="-1.48866">
        <ele>67.8</ele>
        <time>2021-12-24T10:23:57Z</time>
      </trkpt>
      <trkpt lat="46.7153" lon="-1.48858">
        <ele>68</ele>
        <time>2021-12-24T10:23:58Z</time>
      </trkpt>
      <trkpt lat="46.71525" lon="-1.48842">
        <ele>68.2</ele>
        <time>2021-12-24T10:24:00Z</time>
      </trkpt>
      <trkpt lat="46.71521" lon="-1.48827">
        <ele>68.6</ele>
        <time>2021-12-24T10:24:02Z</time>
      </trkpt>
      <trkpt lat="46.7152" lon="-1.48819">
        <ele>68.6</ele>
        <time>2021-12-24T10:24:03Z</time>
      </trkpt>
      <trkpt lat="46.71518" lon="-1.48811">
        <ele>68.8</ele>
        <time>2021-12-24T10:24:04Z</time>
      </trkpt>
      <trkpt lat="46.71514" lon="-1.48796">
        <ele>69</ele>
        <time>2021-12-24T10:24:06Z</time>
      </trkpt>
      <trkpt lat="46.7151" lon="-1.4878">
        <ele>69</ele>
        <time>2021-12-24T10:24:08Z</time>
      </trkpt>
      <trkpt lat="46.71506" lon="-1.48765">
        <ele>69.2</ele>
        <time>2021-12-24T10:24:10Z</time>
      </trkpt>
      <trkpt lat="46.71502" lon="-1.48749">
        <ele>69.4</ele>
        <time>2021-12-24T10:24:12Z</time>
      </trkpt>
      <trkpt lat="46.71498" lon="-1.48734">
        <ele>69.6</ele>
        <time>2021-12-24T10:24:14Z</time>
      </trkpt>
      <trkpt lat="46.71494" lon="-1.48719">
        <ele>69.6</ele>
        <time>2021-12-24T10:24:16Z</time>
      </trkpt>
      <trkpt lat="46.7149" lon="-1.48704">
        <ele>69.8</ele>
        <time>2021-12-24T10:24:18Z</time>
      </trkpt>
      <trkpt lat="46.71487" lon="-1.48689">
        <ele>69.8</ele>
        <time>2021-12-24T10:24:20Z</time>
      </trkpt>
      <trkpt lat="46.71484" lon="-1.48674">
        <ele>69.6</ele>
        <time>2021-12-24T10:24:22Z</time>
      </trkpt>
      <trkpt lat="46.7148" lon="-1.48659">
        <ele>69.6</ele>
        <time>2021-12-24T10:24:24Z</time>
      </trkpt>
      <trkpt lat="46.71476" lon="-1.48644">
        <ele>69.6</ele>
        <time>2021-12-24T10:24:26Z</time>
      </trkpt>
      <trkpt lat="46.71472" lon="-1.48628">
        <ele>69.6</ele>
        <time>2021-12-24T10:24:28Z</time>
      </trkpt>
      <trkpt lat="46.71467" lon="-1.48613">
        <ele>69.4</ele>
        <time>2021-12-24T10:24:30Z</time>
      </trkpt>
      <trkpt lat="46.71463" lon="-1.48598">
        <ele>69.8</ele>
        <time>2021-12-24T10:24:32Z</time>
      </trkpt>
      <trkpt lat="46.7146" lon="-1.48583">
        <ele>68.8</ele>
        <time>2021-12-24T10:24:34Z</time>
      </trkpt>
      <trkpt lat="46.71458" lon="-1.48575">
        <ele>68.4</ele>
        <time>2021-12-24T10:24:35Z</time>
      </trkpt>
      <trkpt lat="46.71456" lon="-1.48568">
        <ele>69.2</ele>
        <time>2021-12-24T10:24:36Z</time>
      </trkpt>
      <trkpt lat="46.71454" lon="-1.4856">
        <ele>69</ele>
        <time>2021-12-24T10:24:37Z</time>
      </trkpt>
      <trkpt lat="46.71452" lon="-1.48553">
        <ele>69</ele>
        <time>2021-12-24T10:24:38Z</time>
      </trkpt>
      <trkpt lat="46.71449" lon="-1.48537">
        <ele>68.8</ele>
        <time>2021-12-24T10:24:40Z</time>
      </trkpt>
      <trkpt lat="46.71445" lon="-1.48521">
        <ele>68.6</ele>
        <time>2021-12-24T10:24:42Z</time>
      </trkpt>
      <trkpt lat="46.71442" lon="-1.48505">
        <ele>68.6</ele>
        <time>2021-12-24T10:24:44Z</time>
      </trkpt>
      <trkpt lat="46.7144" lon="-1.48497">
        <ele>68.6</ele>
        <time>2021-12-24T10:24:45Z</time>
      </trkpt>
      <trkpt lat="46.71439" lon="-1.4849">
        <ele>68.6</ele>
        <time>2021-12-24T10:24:46Z</time>
      </trkpt>
      <trkpt lat="46.71434" lon="-1.48474">
        <ele>68.6</ele>
        <time>2021-12-24T10:24:48Z</time>
      </trkpt>
      <trkpt lat="46.71432" lon="-1.48467">
        <ele>68.6</ele>
        <time>2021-12-24T10:24:49Z</time>
      </trkpt>
      <trkpt lat="46.7143" lon="-1.48459">
        <ele>68.6</ele>
        <time>2021-12-24T10:24:50Z</time>
      </trkpt>
      <trkpt lat="46.71426" lon="-1.48444">
        <ele>68.6</ele>
        <time>2021-12-24T10:24:52Z</time>
      </trkpt>
      <trkpt lat="46.71423" lon="-1.4843">
        <ele>68.6</ele>
        <time>2021-12-24T10:24:54Z</time>
      </trkpt>
      <trkpt lat="46.71421" lon="-1.48421">
        <ele>68.6</ele>
        <time>2021-12-24T10:24:56Z</time>
      </trkpt>
      <trkpt lat="46.7142" lon="-1.48417">
        <ele>68.8</ele>
        <time>2021-12-24T10:24:57Z</time>
      </trkpt>
      <trkpt lat="46.71418" lon="-1.48412">
        <ele>68</ele>
        <time>2021-12-24T10:24:58Z</time>
      </trkpt>
      <trkpt lat="46.71416" lon="-1.48401">
        <ele>68.2</ele>
        <time>2021-12-24T10:25:00Z</time>
      </trkpt>
      <trkpt lat="46.71413" lon="-1.48388">
        <ele>68.6</ele>
        <time>2021-12-24T10:25:02Z</time>
      </trkpt>
      <trkpt lat="46.71409" lon="-1.48372">
        <ele>69.2</ele>
        <time>2021-12-24T10:25:04Z</time>
      </trkpt>
      <trkpt lat="46.71405" lon="-1.48357">
        <ele>69.4</ele>
        <time>2021-12-24T10:25:06Z</time>
      </trkpt>
      <trkpt lat="46.71403" lon="-1.48349">
        <ele>69.4</ele>
        <time>2021-12-24T10:25:07Z</time>
      </trkpt>
      <trkpt lat="46.71401" lon="-1.48341">
        <ele>68.8</ele>
        <time>2021-12-24T10:25:08Z</time>
      </trkpt>
      <trkpt lat="46.71397" lon="-1.48325">
        <ele>69</ele>
        <time>2021-12-24T10:25:10Z</time>
      </trkpt>
      <trkpt lat="46.71393" lon="-1.48309">
        <ele>68.4</ele>
        <time>2021-12-24T10:25:12Z</time>
      </trkpt>
      <trkpt lat="46.71391" lon="-1.48301">
        <ele>68.2</ele>
        <time>2021-12-24T10:25:13Z</time>
      </trkpt>
      <trkpt lat="46.71389" lon="-1.48294">
        <ele>68.2</ele>
        <time>2021-12-24T10:25:14Z</time>
      </trkpt>
      <trkpt lat="46.71384" lon="-1.48278">
        <ele>68.4</ele>
        <time>2021-12-24T10:25:16Z</time>
      </trkpt>
      <trkpt lat="46.7138" lon="-1.48263">
        <ele>68.4</ele>
        <time>2021-12-24T10:25:18Z</time>
      </trkpt>
      <trkpt lat="46.71377" lon="-1.48255">
        <ele>68.4</ele>
        <time>2021-12-24T10:25:19Z</time>
      </trkpt>
      <trkpt lat="46.71375" lon="-1.48247">
        <ele>68.4</ele>
        <time>2021-12-24T10:25:20Z</time>
      </trkpt>
      <trkpt lat="46.7137" lon="-1.48232">
        <ele>68.4</ele>
        <time>2021-12-24T10:25:22Z</time>
      </trkpt>
      <trkpt lat="46.71365" lon="-1.48215">
        <ele>68.4</ele>
        <time>2021-12-24T10:25:24Z</time>
      </trkpt>
      <trkpt lat="46.71362" lon="-1.48207">
        <ele>68.4</ele>
        <time>2021-12-24T10:25:25Z</time>
      </trkpt>
      <trkpt lat="46.71359" lon="-1.48199">
        <ele>68</ele>
        <time>2021-12-24T10:25:26Z</time>
      </trkpt>
      <trkpt lat="46.71354" lon="-1.48184">
        <ele>68.2</ele>
        <time>2021-12-24T10:25:28Z</time>
      </trkpt>
      <trkpt lat="46.71348" lon="-1.48168">
        <ele>68.8</ele>
        <time>2021-12-24T10:25:30Z</time>
      </trkpt>
      <trkpt lat="46.71343" lon="-1.48153">
        <ele>69</ele>
        <time>2021-12-24T10:25:32Z</time>
      </trkpt>
      <trkpt lat="46.71336" lon="-1.48137">
        <ele>69.4</ele>
        <time>2021-12-24T10:25:34Z</time>
      </trkpt>
      <trkpt lat="46.7133" lon="-1.48122">
        <ele>69</ele>
        <time>2021-12-24T10:25:36Z</time>
      </trkpt>
      <trkpt lat="46.71324" lon="-1.48108">
        <ele>69</ele>
        <time>2021-12-24T10:25:38Z</time>
      </trkpt>
      <trkpt lat="46.71318" lon="-1.48094">
        <ele>69</ele>
        <time>2021-12-24T10:25:40Z</time>
      </trkpt>
      <trkpt lat="46.71311" lon="-1.4808">
        <ele>69</ele>
        <time>2021-12-24T10:25:42Z</time>
      </trkpt>
      <trkpt lat="46.71305" lon="-1.48066">
        <ele>69.2</ele>
        <time>2021-12-24T10:25:44Z</time>
      </trkpt>
      <trkpt lat="46.71302" lon="-1.48059">
        <ele>69.2</ele>
        <time>2021-12-24T10:25:45Z</time>
      </trkpt>
      <trkpt lat="46.71298" lon="-1.48053">
        <ele>69.2</ele>
        <time>2021-12-24T10:25:46Z</time>
      </trkpt>
      <trkpt lat="46.71292" lon="-1.4804">
        <ele>69.4</ele>
        <time>2021-12-24T10:25:48Z</time>
      </trkpt>
      <trkpt lat="46.71285" lon="-1.48026">
        <ele>69.6</ele>
        <time>2021-12-24T10:25:50Z</time>
      </trkpt>
      <trkpt lat="46.71277" lon="-1.48013">
        <ele>69.8</ele>
        <time>2021-12-24T10:25:52Z</time>
      </trkpt>
      <trkpt lat="46.71273" lon="-1.48007">
        <ele>69.8</ele>
        <time>2021-12-24T10:25:53Z</time>
      </trkpt>
      <trkpt lat="46.7127" lon="-1.48">
        <ele>70</ele>
        <time>2021-12-24T10:25:54Z</time>
      </trkpt>
      <trkpt lat="46.71262" lon="-1.47987">
        <ele>70</ele>
        <time>2021-12-24T10:25:56Z</time>
      </trkpt>
      <trkpt lat="46.71254" lon="-1.47974">
        <ele>70</ele>
        <time>2021-12-24T10:25:58Z</time>
      </trkpt>
      <trkpt lat="46.71246" lon="-1.47962">
        <ele>70.2</ele>
        <time>2021-12-24T10:26:00Z</time>
      </trkpt>
      <trkpt lat="46.71238" lon="-1.4795">
        <ele>70.2</ele>
        <time>2021-12-24T10:26:02Z</time>
      </trkpt>
      <trkpt lat="46.7123" lon="-1.47938">
        <ele>70.4</ele>
        <time>2021-12-24T10:26:04Z</time>
      </trkpt>
      <trkpt lat="46.71222" lon="-1.47926">
        <ele>70.4</ele>
        <time>2021-12-24T10:26:06Z</time>
      </trkpt>
      <trkpt lat="46.71214" lon="-1.47914">
        <ele>70.4</ele>
        <time>2021-12-24T10:26:08Z</time>
      </trkpt>
      <trkpt lat="46.71206" lon="-1.47903">
        <ele>70.4</ele>
        <time>2021-12-24T10:26:10Z</time>
      </trkpt>
      <trkpt lat="46.71197" lon="-1.47892">
        <ele>70.6</ele>
        <time>2021-12-24T10:26:12Z</time>
      </trkpt>
      <trkpt lat="46.71188" lon="-1.47881">
        <ele>70.6</ele>
        <time>2021-12-24T10:26:14Z</time>
      </trkpt>
      <trkpt lat="46.71179" lon="-1.47871">
        <ele>70.8</ele>
        <time>2021-12-24T10:26:16Z</time>
      </trkpt>
      <trkpt lat="46.71171" lon="-1.4786">
        <ele>70.8</ele>
        <time>2021-12-24T10:26:18Z</time>
      </trkpt>
      <trkpt lat="46.71163" lon="-1.4785">
        <ele>71</ele>
        <time>2021-12-24T10:26:20Z</time>
      </trkpt>
      <trkpt lat="46.71154" lon="-1.47841">
        <ele>71.2</ele>
        <time>2021-12-24T10:26:22Z</time>
      </trkpt>
      <trkpt lat="46.7115" lon="-1.47836">
        <ele>71.4</ele>
        <time>2021-12-24T10:26:23Z</time>
      </trkpt>
      <trkpt lat="46.71145" lon="-1.47831">
        <ele>71.4</ele>
        <time>2021-12-24T10:26:24Z</time>
      </trkpt>
      <trkpt lat="46.71135" lon="-1.47822">
        <ele>71.4</ele>
        <time>2021-12-24T10:26:26Z</time>
      </trkpt>
      <trkpt lat="46.71125" lon="-1.47812">
        <ele>71.6</ele>
        <time>2021-12-24T10:26:28Z</time>
      </trkpt>
      <trkpt lat="46.71117" lon="-1.47804">
        <ele>71.6</ele>
        <time>2021-12-24T10:26:30Z</time>
      </trkpt>
      <trkpt lat="46.71113" lon="-1.47799">
        <ele>71.6</ele>
        <time>2021-12-24T10:26:31Z</time>
      </trkpt>
      <trkpt lat="46.71109" lon="-1.47796">
        <ele>71.8</ele>
        <time>2021-12-24T10:26:32Z</time>
      </trkpt>
      <trkpt lat="46.71106" lon="-1.47791">
        <ele>71.8</ele>
        <time>2021-12-24T10:26:34Z</time>
      </trkpt>
      <trkpt lat="46.71102" lon="-1.47788">
        <ele>71.8</ele>
        <time>2021-12-24T10:26:36Z</time>
      </trkpt>
      <trkpt lat="46.71097" lon="-1.47785">
        <ele>71.8</ele>
        <time>2021-12-24T10:26:38Z</time>
      </trkpt>
      <trkpt lat="46.71094" lon="-1.47782">
        <ele>71.8</ele>
        <time>2021-12-24T10:26:39Z</time>
      </trkpt>
      <trkpt lat="46.71091" lon="-1.47779">
        <ele>71.8</ele>
        <time>2021-12-24T10:26:40Z</time>
      </trkpt>
      <trkpt lat="46.71083" lon="-1.47772">
        <ele>71.6</ele>
        <time>2021-12-24T10:26:42Z</time>
      </trkpt>
      <trkpt lat="46.71075" lon="-1.47764">
        <ele>71.6</ele>
        <time>2021-12-24T10:26:44Z</time>
      </trkpt>
      <trkpt lat="46.7107" lon="-1.47761">
        <ele>71.6</ele>
        <time>2021-12-24T10:26:45Z</time>
      </trkpt>
      <trkpt lat="46.71066" lon="-1.47757">
        <ele>71.6</ele>
        <time>2021-12-24T10:26:46Z</time>
      </trkpt>
      <trkpt lat="46.71055" lon="-1.47749">
        <ele>72</ele>
        <time>2021-12-24T10:26:48Z</time>
      </trkpt>
      <trkpt lat="46.7105" lon="-1.47746">
        <ele>71.8</ele>
        <time>2021-12-24T10:26:49Z</time>
      </trkpt>
      <trkpt lat="46.71046" lon="-1.47743">
        <ele>71.6</ele>
        <time>2021-12-24T10:26:50Z</time>
      </trkpt>
      <trkpt lat="46.71036" lon="-1.47736">
        <ele>71.4</ele>
        <time>2021-12-24T10:26:52Z</time>
      </trkpt>
      <trkpt lat="46.71026" lon="-1.47729">
        <ele>71.4</ele>
        <time>2021-12-24T10:26:54Z</time>
      </trkpt>
      <trkpt lat="46.71021" lon="-1.47726">
        <ele>71.4</ele>
        <time>2021-12-24T10:26:55Z</time>
      </trkpt>
      <trkpt lat="46.71017" lon="-1.47723">
        <ele>71.2</ele>
        <time>2021-12-24T10:26:56Z</time>
      </trkpt>
      <trkpt lat="46.71012" lon="-1.47719">
        <ele>71.2</ele>
        <time>2021-12-24T10:26:57Z</time>
      </trkpt>
      <trkpt lat="46.71007" lon="-1.47714">
        <ele>71.2</ele>
        <time>2021-12-24T10:26:58Z</time>
      </trkpt>
      <trkpt lat="46.70995" lon="-1.47706">
        <ele>71.2</ele>
        <time>2021-12-24T10:27:00Z</time>
      </trkpt>
      <trkpt lat="46.70984" lon="-1.47698">
        <ele>71.4</ele>
        <time>2021-12-24T10:27:02Z</time>
      </trkpt>
      <trkpt lat="46.70979" lon="-1.47694">
        <ele>71.4</ele>
        <time>2021-12-24T10:27:03Z</time>
      </trkpt>
      <trkpt lat="46.70974" lon="-1.47691">
        <ele>71.6</ele>
        <time>2021-12-24T10:27:04Z</time>
      </trkpt>
      <trkpt lat="46.70964" lon="-1.47685">
        <ele>71.8</ele>
        <time>2021-12-24T10:27:06Z</time>
      </trkpt>
      <trkpt lat="46.70959" lon="-1.47681">
        <ele>71.8</ele>
        <time>2021-12-24T10:27:07Z</time>
      </trkpt>
      <trkpt lat="46.70954" lon="-1.47678">
        <ele>72</ele>
        <time>2021-12-24T10:27:08Z</time>
      </trkpt>
      <trkpt lat="46.70942" lon="-1.47669">
        <ele>71.6</ele>
        <time>2021-12-24T10:27:10Z</time>
      </trkpt>
      <trkpt lat="46.70936" lon="-1.47664">
        <ele>71.8</ele>
        <time>2021-12-24T10:27:11Z</time>
      </trkpt>
      <trkpt lat="46.7093" lon="-1.4766">
        <ele>71.6</ele>
        <time>2021-12-24T10:27:12Z</time>
      </trkpt>
      <trkpt lat="46.70919" lon="-1.47652">
        <ele>71.6</ele>
        <time>2021-12-24T10:27:14Z</time>
      </trkpt>
      <trkpt lat="46.70914" lon="-1.47648">
        <ele>71.6</ele>
        <time>2021-12-24T10:27:15Z</time>
      </trkpt>
      <trkpt lat="46.70909" lon="-1.47645">
        <ele>71.4</ele>
        <time>2021-12-24T10:27:16Z</time>
      </trkpt>
      <trkpt lat="46.709" lon="-1.47641">
        <ele>71.6</ele>
        <time>2021-12-24T10:27:18Z</time>
      </trkpt>
      <trkpt lat="46.70895" lon="-1.47637">
        <ele>71.4</ele>
        <time>2021-12-24T10:27:19Z</time>
      </trkpt>
      <trkpt lat="46.70889" lon="-1.47634">
        <ele>71.2</ele>
        <time>2021-12-24T10:27:20Z</time>
      </trkpt>
      <trkpt lat="46.70876" lon="-1.47623">
        <ele>71.2</ele>
        <time>2021-12-24T10:27:22Z</time>
      </trkpt>
      <trkpt lat="46.7087" lon="-1.47618">
        <ele>71.6</ele>
        <time>2021-12-24T10:27:23Z</time>
      </trkpt>
      <trkpt lat="46.70863" lon="-1.47614">
        <ele>71.6</ele>
        <time>2021-12-24T10:27:24Z</time>
      </trkpt>
      <trkpt lat="46.70857" lon="-1.47609">
        <ele>71.6</ele>
        <time>2021-12-24T10:27:25Z</time>
      </trkpt>
      <trkpt lat="46.7085" lon="-1.47603">
        <ele>71.8</ele>
        <time>2021-12-24T10:27:26Z</time>
      </trkpt>
      <trkpt lat="46.70838" lon="-1.47594">
        <ele>71.8</ele>
        <time>2021-12-24T10:27:28Z</time>
      </trkpt>
      <trkpt lat="46.70826" lon="-1.47585">
        <ele>71.6</ele>
        <time>2021-12-24T10:27:30Z</time>
      </trkpt>
      <trkpt lat="46.70813" lon="-1.47575">
        <ele>71.6</ele>
        <time>2021-12-24T10:27:32Z</time>
      </trkpt>
      <trkpt lat="46.70806" lon="-1.4757">
        <ele>71.6</ele>
        <time>2021-12-24T10:27:33Z</time>
      </trkpt>
      <trkpt lat="46.708" lon="-1.47565">
        <ele>71.6</ele>
        <time>2021-12-24T10:27:34Z</time>
      </trkpt>
      <trkpt lat="46.70786" lon="-1.47555">
        <ele>71.8</ele>
        <time>2021-12-24T10:27:36Z</time>
      </trkpt>
      <trkpt lat="46.7078" lon="-1.47551">
        <ele>71.8</ele>
        <time>2021-12-24T10:27:37Z</time>
      </trkpt>
      <trkpt lat="46.70773" lon="-1.47546">
        <ele>71.6</ele>
        <time>2021-12-24T10:27:38Z</time>
      </trkpt>
      <trkpt lat="46.7076" lon="-1.47537">
        <ele>71.6</ele>
        <time>2021-12-24T10:27:40Z</time>
      </trkpt>
      <trkpt lat="46.70748" lon="-1.47528">
        <ele>71.4</ele>
        <time>2021-12-24T10:27:42Z</time>
      </trkpt>
      <trkpt lat="46.70736" lon="-1.4752">
        <ele>71.4</ele>
        <time>2021-12-24T10:27:44Z</time>
      </trkpt>
      <trkpt lat="46.70723" lon="-1.47512">
        <ele>71.4</ele>
        <time>2021-12-24T10:27:46Z</time>
      </trkpt>
      <trkpt lat="46.70718" lon="-1.47508">
        <ele>71.2</ele>
        <time>2021-12-24T10:27:47Z</time>
      </trkpt>
      <trkpt lat="46.70711" lon="-1.47503">
        <ele>71.2</ele>
        <time>2021-12-24T10:27:48Z</time>
      </trkpt>
      <trkpt lat="46.70699" lon="-1.47494">
        <ele>71</ele>
        <time>2021-12-24T10:27:50Z</time>
      </trkpt>
      <trkpt lat="46.70692" lon="-1.47489">
        <ele>70.8</ele>
        <time>2021-12-24T10:27:51Z</time>
      </trkpt>
      <trkpt lat="46.70685" lon="-1.47484">
        <ele>70.8</ele>
        <time>2021-12-24T10:27:52Z</time>
      </trkpt>
      <trkpt lat="46.70671" lon="-1.47474">
        <ele>70.6</ele>
        <time>2021-12-24T10:27:54Z</time>
      </trkpt>
      <trkpt lat="46.70657" lon="-1.47463">
        <ele>70.4</ele>
        <time>2021-12-24T10:27:56Z</time>
      </trkpt>
      <trkpt lat="46.70651" lon="-1.47457">
        <ele>70.4</ele>
        <time>2021-12-24T10:27:57Z</time>
      </trkpt>
      <trkpt lat="46.70644" lon="-1.47452">
        <ele>70.4</ele>
        <time>2021-12-24T10:27:58Z</time>
      </trkpt>
      <trkpt lat="46.70631" lon="-1.47443">
        <ele>70.2</ele>
        <time>2021-12-24T10:28:00Z</time>
      </trkpt>
      <trkpt lat="46.70619" lon="-1.47434">
        <ele>70.2</ele>
        <time>2021-12-24T10:28:02Z</time>
      </trkpt>
      <trkpt lat="46.70613" lon="-1.47431">
        <ele>70</ele>
        <time>2021-12-24T10:28:03Z</time>
      </trkpt>
      <trkpt lat="46.70607" lon="-1.47427">
        <ele>70</ele>
        <time>2021-12-24T10:28:04Z</time>
      </trkpt>
      <trkpt lat="46.70594" lon="-1.47417">
        <ele>70</ele>
        <time>2021-12-24T10:28:06Z</time>
      </trkpt>
      <trkpt lat="46.70579" lon="-1.47405">
        <ele>70</ele>
        <time>2021-12-24T10:28:08Z</time>
      </trkpt>
      <trkpt lat="46.70573" lon="-1.47398">
        <ele>70</ele>
        <time>2021-12-24T10:28:09Z</time>
      </trkpt>
      <trkpt lat="46.70567" lon="-1.47392">
        <ele>70</ele>
        <time>2021-12-24T10:28:10Z</time>
      </trkpt>
      <trkpt lat="46.70554" lon="-1.47385">
        <ele>69.6</ele>
        <time>2021-12-24T10:28:12Z</time>
      </trkpt>
      <trkpt lat="46.70541" lon="-1.47376">
        <ele>69.4</ele>
        <time>2021-12-24T10:28:14Z</time>
      </trkpt>
      <trkpt lat="46.70528" lon="-1.47366">
        <ele>69.2</ele>
        <time>2021-12-24T10:28:16Z</time>
      </trkpt>
      <trkpt lat="46.70515" lon="-1.47357">
        <ele>69</ele>
        <time>2021-12-24T10:28:18Z</time>
      </trkpt>
      <trkpt lat="46.70502" lon="-1.47348">
        <ele>68.8</ele>
        <time>2021-12-24T10:28:20Z</time>
      </trkpt>
      <trkpt lat="46.70489" lon="-1.47339">
        <ele>68.4</ele>
        <time>2021-12-24T10:28:22Z</time>
      </trkpt>
      <trkpt lat="46.70475" lon="-1.47328">
        <ele>68.2</ele>
        <time>2021-12-24T10:28:24Z</time>
      </trkpt>
      <trkpt lat="46.70469" lon="-1.47324">
        <ele>68.2</ele>
        <time>2021-12-24T10:28:25Z</time>
      </trkpt>
      <trkpt lat="46.70462" lon="-1.4732">
        <ele>68.2</ele>
        <time>2021-12-24T10:28:26Z</time>
      </trkpt>
      <trkpt lat="46.70449" lon="-1.47311">
        <ele>68</ele>
        <time>2021-12-24T10:28:28Z</time>
      </trkpt>
      <trkpt lat="46.70444" lon="-1.47308">
        <ele>68</ele>
        <time>2021-12-24T10:28:29Z</time>
      </trkpt>
      <trkpt lat="46.70437" lon="-1.47303">
        <ele>68</ele>
        <time>2021-12-24T10:28:30Z</time>
      </trkpt>
      <trkpt lat="46.70425" lon="-1.47294">
        <ele>68</ele>
        <time>2021-12-24T10:28:32Z</time>
      </trkpt>
      <trkpt lat="46.70419" lon="-1.47291">
        <ele>68</ele>
        <time>2021-12-24T10:28:33Z</time>
      </trkpt>
      <trkpt lat="46.70414" lon="-1.47288">
        <ele>68</ele>
        <time>2021-12-24T10:28:34Z</time>
      </trkpt>
      <trkpt lat="46.70401" lon="-1.47278">
        <ele>68</ele>
        <time>2021-12-24T10:28:36Z</time>
      </trkpt>
      <trkpt lat="46.70394" lon="-1.47273">
        <ele>68</ele>
        <time>2021-12-24T10:28:37Z</time>
      </trkpt>
      <trkpt lat="46.70387" lon="-1.47267">
        <ele>68.2</ele>
        <time>2021-12-24T10:28:38Z</time>
      </trkpt>
      <trkpt lat="46.70372" lon="-1.47255">
        <ele>68.2</ele>
        <time>2021-12-24T10:28:40Z</time>
      </trkpt>
      <trkpt lat="46.70358" lon="-1.47244">
        <ele>68</ele>
        <time>2021-12-24T10:28:42Z</time>
      </trkpt>
      <trkpt lat="46.70351" lon="-1.47239">
        <ele>68</ele>
        <time>2021-12-24T10:28:43Z</time>
      </trkpt>
      <trkpt lat="46.70344" lon="-1.47235">
        <ele>68</ele>
        <time>2021-12-24T10:28:44Z</time>
      </trkpt>
      <trkpt lat="46.70331" lon="-1.47225">
        <ele>67.8</ele>
        <time>2021-12-24T10:28:46Z</time>
      </trkpt>
      <trkpt lat="46.70324" lon="-1.47221">
        <ele>67.6</ele>
        <time>2021-12-24T10:28:47Z</time>
      </trkpt>
      <trkpt lat="46.70318" lon="-1.47217">
        <ele>67.6</ele>
        <time>2021-12-24T10:28:48Z</time>
      </trkpt>
      <trkpt lat="46.70304" lon="-1.47207">
        <ele>67.2</ele>
        <time>2021-12-24T10:28:50Z</time>
      </trkpt>
      <trkpt lat="46.70298" lon="-1.47202">
        <ele>67.2</ele>
        <time>2021-12-24T10:28:51Z</time>
      </trkpt>
      <trkpt lat="46.70291" lon="-1.47197">
        <ele>67</ele>
        <time>2021-12-24T10:28:52Z</time>
      </trkpt>
      <trkpt lat="46.70278" lon="-1.47187">
        <ele>66.8</ele>
        <time>2021-12-24T10:28:54Z</time>
      </trkpt>
      <trkpt lat="46.70265" lon="-1.47177">
        <ele>66.6</ele>
        <time>2021-12-24T10:28:56Z</time>
      </trkpt>
      <trkpt lat="46.70251" lon="-1.47167">
        <ele>66.4</ele>
        <time>2021-12-24T10:28:58Z</time>
      </trkpt>
      <trkpt lat="46.70236" lon="-1.47156">
        <ele>66.4</ele>
        <time>2021-12-24T10:29:00Z</time>
      </trkpt>
      <trkpt lat="46.70222" lon="-1.47146">
        <ele>66.2</ele>
        <time>2021-12-24T10:29:02Z</time>
      </trkpt>
      <trkpt lat="46.70209" lon="-1.47137">
        <ele>66</ele>
        <time>2021-12-24T10:29:04Z</time>
      </trkpt>
      <trkpt lat="46.70195" lon="-1.47126">
        <ele>66</ele>
        <time>2021-12-24T10:29:06Z</time>
      </trkpt>
      <trkpt lat="46.70183" lon="-1.47118">
        <ele>65.8</ele>
        <time>2021-12-24T10:29:08Z</time>
      </trkpt>
      <trkpt lat="46.70171" lon="-1.4711">
        <ele>65.6</ele>
        <time>2021-12-24T10:29:10Z</time>
      </trkpt>
      <trkpt lat="46.70166" lon="-1.47107">
        <ele>65.4</ele>
        <time>2021-12-24T10:29:11Z</time>
      </trkpt>
      <trkpt lat="46.70161" lon="-1.47103">
        <ele>65.2</ele>
        <time>2021-12-24T10:29:12Z</time>
      </trkpt>
      <trkpt lat="46.70149" lon="-1.47095">
        <ele>65.2</ele>
        <time>2021-12-24T10:29:14Z</time>
      </trkpt>
      <trkpt lat="46.70143" lon="-1.47091">
        <ele>65</ele>
        <time>2021-12-24T10:29:15Z</time>
      </trkpt>
      <trkpt lat="46.70138" lon="-1.47087">
        <ele>64.8</ele>
        <time>2021-12-24T10:29:16Z</time>
      </trkpt>
      <trkpt lat="46.70128" lon="-1.4708">
        <ele>64.6</ele>
        <time>2021-12-24T10:29:18Z</time>
      </trkpt>
      <trkpt lat="46.70123" lon="-1.47078">
        <ele>64.6</ele>
        <time>2021-12-24T10:29:19Z</time>
      </trkpt>
      <trkpt lat="46.70117" lon="-1.47073">
        <ele>64.6</ele>
        <time>2021-12-24T10:29:20Z</time>
      </trkpt>
      <trkpt lat="46.70105" lon="-1.47063">
        <ele>64.4</ele>
        <time>2021-12-24T10:29:22Z</time>
      </trkpt>
      <trkpt lat="46.70093" lon="-1.47052">
        <ele>64.2</ele>
        <time>2021-12-24T10:29:24Z</time>
      </trkpt>
      <trkpt lat="46.70081" lon="-1.47041">
        <ele>64</ele>
        <time>2021-12-24T10:29:26Z</time>
      </trkpt>
      <trkpt lat="46.70068" lon="-1.47028">
        <ele>64</ele>
        <time>2021-12-24T10:29:28Z</time>
      </trkpt>
      <trkpt lat="46.70055" lon="-1.47014">
        <ele>63.8</ele>
        <time>2021-12-24T10:29:30Z</time>
      </trkpt>
      <trkpt lat="46.70048" lon="-1.47006">
        <ele>63.8</ele>
        <time>2021-12-24T10:29:31Z</time>
      </trkpt>
      <trkpt lat="46.70041" lon="-1.46998">
        <ele>63.8</ele>
        <time>2021-12-24T10:29:32Z</time>
      </trkpt>
      <trkpt lat="46.70035" lon="-1.4699">
        <ele>63.8</ele>
        <time>2021-12-24T10:29:33Z</time>
      </trkpt>
      <trkpt lat="46.70028" lon="-1.46981">
        <ele>63.8</ele>
        <time>2021-12-24T10:29:34Z</time>
      </trkpt>
      <trkpt lat="46.70015" lon="-1.46966">
        <ele>63.8</ele>
        <time>2021-12-24T10:29:36Z</time>
      </trkpt>
      <trkpt lat="46.70003" lon="-1.46951">
        <ele>63.8</ele>
        <time>2021-12-24T10:29:38Z</time>
      </trkpt>
      <trkpt lat="46.69997" lon="-1.46944">
        <ele>63.8</ele>
        <time>2021-12-24T10:29:39Z</time>
      </trkpt>
      <trkpt lat="46.69992" lon="-1.46936">
        <ele>63.8</ele>
        <time>2021-12-24T10:29:40Z</time>
      </trkpt>
      <trkpt lat="46.69982" lon="-1.46921">
        <ele>63.8</ele>
        <time>2021-12-24T10:29:42Z</time>
      </trkpt>
      <trkpt lat="46.69977" lon="-1.46914">
        <ele>63.6</ele>
        <time>2021-12-24T10:29:43Z</time>
      </trkpt>
      <trkpt lat="46.69971" lon="-1.46907">
        <ele>63.6</ele>
        <time>2021-12-24T10:29:44Z</time>
      </trkpt>
      <trkpt lat="46.69967" lon="-1.469">
        <ele>63.6</ele>
        <time>2021-12-24T10:29:45Z</time>
      </trkpt>
      <trkpt lat="46.69963" lon="-1.46893">
        <ele>63.6</ele>
        <time>2021-12-24T10:29:46Z</time>
      </trkpt>
      <trkpt lat="46.69954" lon="-1.46876">
        <ele>63.4</ele>
        <time>2021-12-24T10:29:48Z</time>
      </trkpt>
      <trkpt lat="46.69945" lon="-1.4686">
        <ele>63.2</ele>
        <time>2021-12-24T10:29:50Z</time>
      </trkpt>
      <trkpt lat="46.69936" lon="-1.46843">
        <ele>63.2</ele>
        <time>2021-12-24T10:29:52Z</time>
      </trkpt>
      <trkpt lat="46.69927" lon="-1.46826">
        <ele>63</ele>
        <time>2021-12-24T10:29:54Z</time>
      </trkpt>
      <trkpt lat="46.69923" lon="-1.46817">
        <ele>62.8</ele>
        <time>2021-12-24T10:29:55Z</time>
      </trkpt>
      <trkpt lat="46.69919" lon="-1.46808">
        <ele>62.8</ele>
        <time>2021-12-24T10:29:56Z</time>
      </trkpt>
      <trkpt lat="46.69911" lon="-1.46792">
        <ele>62.6</ele>
        <time>2021-12-24T10:29:58Z</time>
      </trkpt>
      <trkpt lat="46.69907" lon="-1.46783">
        <ele>62.4</ele>
        <time>2021-12-24T10:29:59Z</time>
      </trkpt>
      <trkpt lat="46.69903" lon="-1.46774">
        <ele>62.2</ele>
        <time>2021-12-24T10:30:00Z</time>
      </trkpt>
      <trkpt lat="46.69899" lon="-1.46765">
        <ele>62.2</ele>
        <time>2021-12-24T10:30:01Z</time>
      </trkpt>
      <trkpt lat="46.69895" lon="-1.46755">
        <ele>62</ele>
        <time>2021-12-24T10:30:02Z</time>
      </trkpt>
      <trkpt lat="46.69892" lon="-1.46746">
        <ele>62</ele>
        <time>2021-12-24T10:30:03Z</time>
      </trkpt>
      <trkpt lat="46.69888" lon="-1.46737">
        <ele>61.8</ele>
        <time>2021-12-24T10:30:04Z</time>
      </trkpt>
      <trkpt lat="46.69881" lon="-1.46718">
        <ele>61.6</ele>
        <time>2021-12-24T10:30:06Z</time>
      </trkpt>
      <trkpt lat="46.69875" lon="-1.46699">
        <ele>61.2</ele>
        <time>2021-12-24T10:30:08Z</time>
      </trkpt>
      <trkpt lat="46.69872" lon="-1.4669">
        <ele>61.2</ele>
        <time>2021-12-24T10:30:09Z</time>
      </trkpt>
      <trkpt lat="46.6987" lon="-1.46681">
        <ele>61</ele>
        <time>2021-12-24T10:30:10Z</time>
      </trkpt>
      <trkpt lat="46.69866" lon="-1.46671">
        <ele>60.8</ele>
        <time>2021-12-24T10:30:11Z</time>
      </trkpt>
      <trkpt lat="46.69863" lon="-1.46661">
        <ele>60.8</ele>
        <time>2021-12-24T10:30:12Z</time>
      </trkpt>
      <trkpt lat="46.69861" lon="-1.46651">
        <ele>60.8</ele>
        <time>2021-12-24T10:30:13Z</time>
      </trkpt>
      <trkpt lat="46.69858" lon="-1.46641">
        <ele>60.6</ele>
        <time>2021-12-24T10:30:14Z</time>
      </trkpt>
      <trkpt lat="46.69854" lon="-1.46621">
        <ele>60.4</ele>
        <time>2021-12-24T10:30:16Z</time>
      </trkpt>
      <trkpt lat="46.69852" lon="-1.46611">
        <ele>60.2</ele>
        <time>2021-12-24T10:30:17Z</time>
      </trkpt>
      <trkpt lat="46.69849" lon="-1.46601">
        <ele>60.2</ele>
        <time>2021-12-24T10:30:18Z</time>
      </trkpt>
      <trkpt lat="46.69845" lon="-1.46581">
        <ele>60</ele>
        <time>2021-12-24T10:30:20Z</time>
      </trkpt>
      <trkpt lat="46.69841" lon="-1.4656">
        <ele>59.8</ele>
        <time>2021-12-24T10:30:22Z</time>
      </trkpt>
      <trkpt lat="46.69838" lon="-1.46538">
        <ele>59.6</ele>
        <time>2021-12-24T10:30:24Z</time>
      </trkpt>
      <trkpt lat="46.69835" lon="-1.46516">
        <ele>59.2</ele>
        <time>2021-12-24T10:30:26Z</time>
      </trkpt>
      <trkpt lat="46.69833" lon="-1.46494">
        <ele>59.2</ele>
        <time>2021-12-24T10:30:28Z</time>
      </trkpt>
      <trkpt lat="46.69831" lon="-1.46471">
        <ele>59</ele>
        <time>2021-12-24T10:30:30Z</time>
      </trkpt>
      <trkpt lat="46.6983" lon="-1.4646">
        <ele>59</ele>
        <time>2021-12-24T10:30:31Z</time>
      </trkpt>
      <trkpt lat="46.69829" lon="-1.46449">
        <ele>58.8</ele>
        <time>2021-12-24T10:30:32Z</time>
      </trkpt>
      <trkpt lat="46.69829" lon="-1.46427">
        <ele>58.4</ele>
        <time>2021-12-24T10:30:34Z</time>
      </trkpt>
      <trkpt lat="46.69829" lon="-1.46416">
        <ele>58.4</ele>
        <time>2021-12-24T10:30:35Z</time>
      </trkpt>
      <trkpt lat="46.69828" lon="-1.46405">
        <ele>58.2</ele>
        <time>2021-12-24T10:30:36Z</time>
      </trkpt>
      <trkpt lat="46.69828" lon="-1.46384">
        <ele>57.8</ele>
        <time>2021-12-24T10:30:38Z</time>
      </trkpt>
      <trkpt lat="46.69828" lon="-1.46363">
        <ele>57.6</ele>
        <time>2021-12-24T10:30:40Z</time>
      </trkpt>
      <trkpt lat="46.69827" lon="-1.46342">
        <ele>57.2</ele>
        <time>2021-12-24T10:30:42Z</time>
      </trkpt>
      <trkpt lat="46.69827" lon="-1.46319">
        <ele>57</ele>
        <time>2021-12-24T10:30:44Z</time>
      </trkpt>
      <trkpt lat="46.69827" lon="-1.46297">
        <ele>57</ele>
        <time>2021-12-24T10:30:46Z</time>
      </trkpt>
      <trkpt lat="46.69827" lon="-1.46274">
        <ele>56.8</ele>
        <time>2021-12-24T10:30:48Z</time>
      </trkpt>
      <trkpt lat="46.69827" lon="-1.46253">
        <ele>56.4</ele>
        <time>2021-12-24T10:30:50Z</time>
      </trkpt>
      <trkpt lat="46.69826" lon="-1.46231">
        <ele>56.2</ele>
        <time>2021-12-24T10:30:52Z</time>
      </trkpt>
      <trkpt lat="46.69826" lon="-1.46211">
        <ele>56</ele>
        <time>2021-12-24T10:30:54Z</time>
      </trkpt>
      <trkpt lat="46.69825" lon="-1.46193">
        <ele>55.8</ele>
        <time>2021-12-24T10:30:56Z</time>
      </trkpt>
      <trkpt lat="46.69825" lon="-1.46179">
        <ele>55.4</ele>
        <time>2021-12-24T10:30:58Z</time>
      </trkpt>
      <trkpt lat="46.69825" lon="-1.46174">
        <ele>55.4</ele>
        <time>2021-12-24T10:30:59Z</time>
      </trkpt>
      <trkpt lat="46.69824" lon="-1.46169">
        <ele>55</ele>
        <time>2021-12-24T10:31:00Z</time>
      </trkpt>
      <trkpt lat="46.69824" lon="-1.46158">
        <ele>55</ele>
        <time>2021-12-24T10:31:02Z</time>
      </trkpt>
      <trkpt lat="46.69825" lon="-1.46142">
        <ele>55</ele>
        <time>2021-12-24T10:31:04Z</time>
      </trkpt>
      <trkpt lat="46.69824" lon="-1.46126">
        <ele>54.8</ele>
        <time>2021-12-24T10:31:06Z</time>
      </trkpt>
      <trkpt lat="46.69825" lon="-1.46117">
        <ele>54.6</ele>
        <time>2021-12-24T10:31:07Z</time>
      </trkpt>
      <trkpt lat="46.69826" lon="-1.46108">
        <ele>54.6</ele>
        <time>2021-12-24T10:31:08Z</time>
      </trkpt>
      <trkpt lat="46.69826" lon="-1.46099">
        <ele>54.4</ele>
        <time>2021-12-24T10:31:09Z</time>
      </trkpt>
      <trkpt lat="46.69826" lon="-1.46089">
        <ele>54.4</ele>
        <time>2021-12-24T10:31:10Z</time>
      </trkpt>
      <trkpt lat="46.69826" lon="-1.4607">
        <ele>54.4</ele>
        <time>2021-12-24T10:31:12Z</time>
      </trkpt>
      <trkpt lat="46.69825" lon="-1.46051">
        <ele>54</ele>
        <time>2021-12-24T10:31:14Z</time>
      </trkpt>
      <trkpt lat="46.69824" lon="-1.46041">
        <ele>53.8</ele>
        <time>2021-12-24T10:31:15Z</time>
      </trkpt>
      <trkpt lat="46.69824" lon="-1.46031">
        <ele>53.8</ele>
        <time>2021-12-24T10:31:16Z</time>
      </trkpt>
      <trkpt lat="46.69824" lon="-1.46011">
        <ele>53.6</ele>
        <time>2021-12-24T10:31:18Z</time>
      </trkpt>
      <trkpt lat="46.69824" lon="-1.45991">
        <ele>53.4</ele>
        <time>2021-12-24T10:31:20Z</time>
      </trkpt>
      <trkpt lat="46.69824" lon="-1.45981">
        <ele>53.4</ele>
        <time>2021-12-24T10:31:21Z</time>
      </trkpt>
      <trkpt lat="46.69823" lon="-1.45972">
        <ele>53.2</ele>
        <time>2021-12-24T10:31:22Z</time>
      </trkpt>
      <trkpt lat="46.69822" lon="-1.45952">
        <ele>53.2</ele>
        <time>2021-12-24T10:31:24Z</time>
      </trkpt>
      <trkpt lat="46.69822" lon="-1.45943">
        <ele>53</ele>
        <time>2021-12-24T10:31:25Z</time>
      </trkpt>
      <trkpt lat="46.69822" lon="-1.45933">
        <ele>53</ele>
        <time>2021-12-24T10:31:26Z</time>
      </trkpt>
      <trkpt lat="46.69822" lon="-1.45914">
        <ele>53</ele>
        <time>2021-12-24T10:31:28Z</time>
      </trkpt>
      <trkpt lat="46.69822" lon="-1.45895">
        <ele>52.8</ele>
        <time>2021-12-24T10:31:30Z</time>
      </trkpt>
      <trkpt lat="46.69821" lon="-1.45876">
        <ele>52.6</ele>
        <time>2021-12-24T10:31:32Z</time>
      </trkpt>
      <trkpt lat="46.69821" lon="-1.45858">
        <ele>52.4</ele>
        <time>2021-12-24T10:31:34Z</time>
      </trkpt>
      <trkpt lat="46.69821" lon="-1.45841">
        <ele>52.4</ele>
        <time>2021-12-24T10:31:36Z</time>
      </trkpt>
      <trkpt lat="46.69821" lon="-1.45832">
        <ele>52.2</ele>
        <time>2021-12-24T10:31:37Z</time>
      </trkpt>
      <trkpt lat="46.69821" lon="-1.45824">
        <ele>52.2</ele>
        <time>2021-12-24T10:31:38Z</time>
      </trkpt>
      <trkpt lat="46.6982" lon="-1.45815">
        <ele>52</ele>
        <time>2021-12-24T10:31:39Z</time>
      </trkpt>
      <trkpt lat="46.69819" lon="-1.45806">
        <ele>52</ele>
        <time>2021-12-24T10:31:40Z</time>
      </trkpt>
      <trkpt lat="46.69817" lon="-1.45797">
        <ele>51.8</ele>
        <time>2021-12-24T10:31:41Z</time>
      </trkpt>
      <trkpt lat="46.69816" lon="-1.45788">
        <ele>51.8</ele>
        <time>2021-12-24T10:31:42Z</time>
      </trkpt>
      <trkpt lat="46.69814" lon="-1.45771">
        <ele>51.8</ele>
        <time>2021-12-24T10:31:44Z</time>
      </trkpt>
      <trkpt lat="46.69812" lon="-1.45754">
        <ele>51.8</ele>
        <time>2021-12-24T10:31:46Z</time>
      </trkpt>
      <trkpt lat="46.6981" lon="-1.45745">
        <ele>51.8</ele>
        <time>2021-12-24T10:31:47Z</time>
      </trkpt>
      <trkpt lat="46.69809" lon="-1.45737">
        <ele>51.8</ele>
        <time>2021-12-24T10:31:48Z</time>
      </trkpt>
      <trkpt lat="46.69806" lon="-1.4572">
        <ele>51.8</ele>
        <time>2021-12-24T10:31:50Z</time>
      </trkpt>
      <trkpt lat="46.69802" lon="-1.45704">
        <ele>51.6</ele>
        <time>2021-12-24T10:31:52Z</time>
      </trkpt>
      <trkpt lat="46.69799" lon="-1.45688">
        <ele>51.8</ele>
        <time>2021-12-24T10:31:54Z</time>
      </trkpt>
      <trkpt lat="46.69797" lon="-1.4568">
        <ele>51.8</ele>
        <time>2021-12-24T10:31:55Z</time>
      </trkpt>
      <trkpt lat="46.69795" lon="-1.45673">
        <ele>51.8</ele>
        <time>2021-12-24T10:31:56Z</time>
      </trkpt>
      <trkpt lat="46.69791" lon="-1.45658">
        <ele>51.8</ele>
        <time>2021-12-24T10:31:58Z</time>
      </trkpt>
      <trkpt lat="46.69786" lon="-1.45642">
        <ele>51.4</ele>
        <time>2021-12-24T10:32:00Z</time>
      </trkpt>
      <trkpt lat="46.69784" lon="-1.45634">
        <ele>51.8</ele>
        <time>2021-12-24T10:32:01Z</time>
      </trkpt>
      <trkpt lat="46.69782" lon="-1.45626">
        <ele>52.4</ele>
        <time>2021-12-24T10:32:02Z</time>
      </trkpt>
      <trkpt lat="46.69777" lon="-1.45611">
        <ele>52.4</ele>
        <time>2021-12-24T10:32:04Z</time>
      </trkpt>
      <trkpt lat="46.69772" lon="-1.45596">
        <ele>52.6</ele>
        <time>2021-12-24T10:32:06Z</time>
      </trkpt>
      <trkpt lat="46.69767" lon="-1.45581">
        <ele>52.2</ele>
        <time>2021-12-24T10:32:08Z</time>
      </trkpt>
      <trkpt lat="46.69761" lon="-1.45567">
        <ele>52.2</ele>
        <time>2021-12-24T10:32:10Z</time>
      </trkpt>
      <trkpt lat="46.69758" lon="-1.4556">
        <ele>52.2</ele>
        <time>2021-12-24T10:32:11Z</time>
      </trkpt>
      <trkpt lat="46.69755" lon="-1.45553">
        <ele>52.2</ele>
        <time>2021-12-24T10:32:12Z</time>
      </trkpt>
      <trkpt lat="46.69752" lon="-1.45547">
        <ele>52</ele>
        <time>2021-12-24T10:32:13Z</time>
      </trkpt>
      <trkpt lat="46.6975" lon="-1.4554">
        <ele>52.2</ele>
        <time>2021-12-24T10:32:14Z</time>
      </trkpt>
      <trkpt lat="46.69743" lon="-1.45525">
        <ele>52.2</ele>
        <time>2021-12-24T10:32:16Z</time>
      </trkpt>
      <trkpt lat="46.6974" lon="-1.45519">
        <ele>52.2</ele>
        <time>2021-12-24T10:32:17Z</time>
      </trkpt>
      <trkpt lat="46.69737" lon="-1.45513">
        <ele>52.2</ele>
        <time>2021-12-24T10:32:18Z</time>
      </trkpt>
      <trkpt lat="46.69731" lon="-1.45501">
        <ele>52.4</ele>
        <time>2021-12-24T10:32:20Z</time>
      </trkpt>
      <trkpt lat="46.69725" lon="-1.45488">
        <ele>52.4</ele>
        <time>2021-12-24T10:32:22Z</time>
      </trkpt>
      <trkpt lat="46.69718" lon="-1.45476">
        <ele>52.6</ele>
        <time>2021-12-24T10:32:24Z</time>
      </trkpt>
      <trkpt lat="46.69711" lon="-1.45464">
        <ele>52.8</ele>
        <time>2021-12-24T10:32:26Z</time>
      </trkpt>
      <trkpt lat="46.69703" lon="-1.45453">
        <ele>53</ele>
        <time>2021-12-24T10:32:28Z</time>
      </trkpt>
      <trkpt lat="46.697" lon="-1.45447">
        <ele>53</ele>
        <time>2021-12-24T10:32:29Z</time>
      </trkpt>
      <trkpt lat="46.69696" lon="-1.45441">
        <ele>53</ele>
        <time>2021-12-24T10:32:30Z</time>
      </trkpt>
      <trkpt lat="46.69688" lon="-1.4543">
        <ele>53.2</ele>
        <time>2021-12-24T10:32:32Z</time>
      </trkpt>
      <trkpt lat="46.69681" lon="-1.4542">
        <ele>53.4</ele>
        <time>2021-12-24T10:32:34Z</time>
      </trkpt>
      <trkpt lat="46.69677" lon="-1.45416">
        <ele>53.4</ele>
        <time>2021-12-24T10:32:35Z</time>
      </trkpt>
      <trkpt lat="46.69674" lon="-1.45411">
        <ele>53.6</ele>
        <time>2021-12-24T10:32:36Z</time>
      </trkpt>
      <trkpt lat="46.69667" lon="-1.45401">
        <ele>53.6</ele>
        <time>2021-12-24T10:32:38Z</time>
      </trkpt>
      <trkpt lat="46.6966" lon="-1.45392">
        <ele>53.8</ele>
        <time>2021-12-24T10:32:40Z</time>
      </trkpt>
      <trkpt lat="46.69652" lon="-1.45383">
        <ele>54</ele>
        <time>2021-12-24T10:32:42Z</time>
      </trkpt>
      <trkpt lat="46.69643" lon="-1.45373">
        <ele>54.2</ele>
        <time>2021-12-24T10:32:44Z</time>
      </trkpt>
      <trkpt lat="46.69636" lon="-1.45365">
        <ele>54.2</ele>
        <time>2021-12-24T10:32:46Z</time>
      </trkpt>
      <trkpt lat="46.69632" lon="-1.45362">
        <ele>54.4</ele>
        <time>2021-12-24T10:32:47Z</time>
      </trkpt>
      <trkpt lat="46.69629" lon="-1.45357">
        <ele>54.4</ele>
        <time>2021-12-24T10:32:48Z</time>
      </trkpt>
      <trkpt lat="46.69621" lon="-1.4535">
        <ele>54.4</ele>
        <time>2021-12-24T10:32:50Z</time>
      </trkpt>
      <trkpt lat="46.69617" lon="-1.45346">
        <ele>54.6</ele>
        <time>2021-12-24T10:32:51Z</time>
      </trkpt>
      <trkpt lat="46.69613" lon="-1.45341">
        <ele>54.6</ele>
        <time>2021-12-24T10:32:52Z</time>
      </trkpt>
      <trkpt lat="46.69608" lon="-1.45336">
        <ele>54.6</ele>
        <time>2021-12-24T10:32:53Z</time>
      </trkpt>
      <trkpt lat="46.69604" lon="-1.45331">
        <ele>54.6</ele>
        <time>2021-12-24T10:32:54Z</time>
      </trkpt>
      <trkpt lat="46.69596" lon="-1.45321">
        <ele>54.8</ele>
        <time>2021-12-24T10:32:56Z</time>
      </trkpt>
      <trkpt lat="46.69588" lon="-1.45312">
        <ele>54.8</ele>
        <time>2021-12-24T10:32:58Z</time>
      </trkpt>
      <trkpt lat="46.69584" lon="-1.45307">
        <ele>55</ele>
        <time>2021-12-24T10:32:59Z</time>
      </trkpt>
      <trkpt lat="46.69579" lon="-1.45302">
        <ele>55</ele>
        <time>2021-12-24T10:33:00Z</time>
      </trkpt>
      <trkpt lat="46.69572" lon="-1.45293">
        <ele>55.2</ele>
        <time>2021-12-24T10:33:02Z</time>
      </trkpt>
      <trkpt lat="46.69565" lon="-1.45285">
        <ele>55.4</ele>
        <time>2021-12-24T10:33:04Z</time>
      </trkpt>
      <trkpt lat="46.69561" lon="-1.4528">
        <ele>55.6</ele>
        <time>2021-12-24T10:33:05Z</time>
      </trkpt>
      <trkpt lat="46.69557" lon="-1.45276">
        <ele>55.6</ele>
        <time>2021-12-24T10:33:06Z</time>
      </trkpt>
      <trkpt lat="46.69548" lon="-1.45266">
        <ele>55.8</ele>
        <time>2021-12-24T10:33:08Z</time>
      </trkpt>
      <trkpt lat="46.69539" lon="-1.45256">
        <ele>56.2</ele>
        <time>2021-12-24T10:33:10Z</time>
      </trkpt>
      <trkpt lat="46.69532" lon="-1.45247">
        <ele>56.4</ele>
        <time>2021-12-24T10:33:12Z</time>
      </trkpt>
      <trkpt lat="46.69523" lon="-1.45237">
        <ele>56.6</ele>
        <time>2021-12-24T10:33:14Z</time>
      </trkpt>
      <trkpt lat="46.69515" lon="-1.45228">
        <ele>56.8</ele>
        <time>2021-12-24T10:33:16Z</time>
      </trkpt>
      <trkpt lat="46.69511" lon="-1.45223">
        <ele>56.8</ele>
        <time>2021-12-24T10:33:17Z</time>
      </trkpt>
      <trkpt lat="46.69506" lon="-1.45218">
        <ele>56.8</ele>
        <time>2021-12-24T10:33:18Z</time>
      </trkpt>
      <trkpt lat="46.69498" lon="-1.45209">
        <ele>57</ele>
        <time>2021-12-24T10:33:20Z</time>
      </trkpt>
      <trkpt lat="46.6949" lon="-1.452">
        <ele>57.2</ele>
        <time>2021-12-24T10:33:22Z</time>
      </trkpt>
      <trkpt lat="46.69481" lon="-1.45189">
        <ele>57.4</ele>
        <time>2021-12-24T10:33:24Z</time>
      </trkpt>
      <trkpt lat="46.69473" lon="-1.4518">
        <ele>57.6</ele>
        <time>2021-12-24T10:33:26Z</time>
      </trkpt>
      <trkpt lat="46.69465" lon="-1.45169">
        <ele>57.8</ele>
        <time>2021-12-24T10:33:28Z</time>
      </trkpt>
      <trkpt lat="46.6946" lon="-1.45164">
        <ele>57.8</ele>
        <time>2021-12-24T10:33:29Z</time>
      </trkpt>
      <trkpt lat="46.69456" lon="-1.45159">
        <ele>57.8</ele>
        <time>2021-12-24T10:33:30Z</time>
      </trkpt>
      <trkpt lat="46.69449" lon="-1.4515">
        <ele>58</ele>
        <time>2021-12-24T10:33:32Z</time>
      </trkpt>
      <trkpt lat="46.69444" lon="-1.45145">
        <ele>58.2</ele>
        <time>2021-12-24T10:33:33Z</time>
      </trkpt>
      <trkpt lat="46.6944" lon="-1.4514">
        <ele>58.4</ele>
        <time>2021-12-24T10:33:34Z</time>
      </trkpt>
      <trkpt lat="46.69431" lon="-1.4513">
        <ele>58.4</ele>
        <time>2021-12-24T10:33:36Z</time>
      </trkpt>
      <trkpt lat="46.69424" lon="-1.45122">
        <ele>58.6</ele>
        <time>2021-12-24T10:33:38Z</time>
      </trkpt>
      <trkpt lat="46.6942" lon="-1.45118">
        <ele>58.6</ele>
        <time>2021-12-24T10:33:39Z</time>
      </trkpt>
      <trkpt lat="46.69416" lon="-1.45113">
        <ele>58.8</ele>
        <time>2021-12-24T10:33:40Z</time>
      </trkpt>
      <trkpt lat="46.69408" lon="-1.45103">
        <ele>58.8</ele>
        <time>2021-12-24T10:33:42Z</time>
      </trkpt>
      <trkpt lat="46.694" lon="-1.45094">
        <ele>59</ele>
        <time>2021-12-24T10:33:44Z</time>
      </trkpt>
      <trkpt lat="46.69396" lon="-1.45089">
        <ele>59.2</ele>
        <time>2021-12-24T10:33:45Z</time>
      </trkpt>
      <trkpt lat="46.69392" lon="-1.45086">
        <ele>59.2</ele>
        <time>2021-12-24T10:33:46Z</time>
      </trkpt>
      <trkpt lat="46.69389" lon="-1.45082">
        <ele>59.2</ele>
        <time>2021-12-24T10:33:47Z</time>
      </trkpt>
      <trkpt lat="46.69385" lon="-1.45079">
        <ele>59.4</ele>
        <time>2021-12-24T10:33:48Z</time>
      </trkpt>
      <trkpt lat="46.69379" lon="-1.45073">
        <ele>59.6</ele>
        <time>2021-12-24T10:33:50Z</time>
      </trkpt>
      <trkpt lat="46.6937" lon="-1.45063">
        <ele>59.6</ele>
        <time>2021-12-24T10:33:52Z</time>
      </trkpt>
      <trkpt lat="46.69363" lon="-1.45054">
        <ele>59.8</ele>
        <time>2021-12-24T10:33:54Z</time>
      </trkpt>
      <trkpt lat="46.69355" lon="-1.45045">
        <ele>60</ele>
        <time>2021-12-24T10:33:56Z</time>
      </trkpt>
      <trkpt lat="46.69346" lon="-1.45033">
        <ele>60.2</ele>
        <time>2021-12-24T10:33:58Z</time>
      </trkpt>
      <trkpt lat="46.69336" lon="-1.45023">
        <ele>60.4</ele>
        <time>2021-12-24T10:34:00Z</time>
      </trkpt>
      <trkpt lat="46.69332" lon="-1.45018">
        <ele>60.4</ele>
        <time>2021-12-24T10:34:01Z</time>
      </trkpt>
      <trkpt lat="46.69328" lon="-1.45013">
        <ele>60.4</ele>
        <time>2021-12-24T10:34:02Z</time>
      </trkpt>
      <trkpt lat="46.69319" lon="-1.45003">
        <ele>60.6</ele>
        <time>2021-12-24T10:34:04Z</time>
      </trkpt>
      <trkpt lat="46.6931" lon="-1.44993">
        <ele>60.6</ele>
        <time>2021-12-24T10:34:06Z</time>
      </trkpt>
      <trkpt lat="46.69302" lon="-1.44985">
        <ele>60.8</ele>
        <time>2021-12-24T10:34:08Z</time>
      </trkpt>
      <trkpt lat="46.69295" lon="-1.44977">
        <ele>60.8</ele>
        <time>2021-12-24T10:34:10Z</time>
      </trkpt>
      <trkpt lat="46.69287" lon="-1.44969">
        <ele>60.8</ele>
        <time>2021-12-24T10:34:12Z</time>
      </trkpt>
      <trkpt lat="46.6928" lon="-1.4496">
        <ele>60.8</ele>
        <time>2021-12-24T10:34:14Z</time>
      </trkpt>
      <trkpt lat="46.69272" lon="-1.44952">
        <ele>60.8</ele>
        <time>2021-12-24T10:34:16Z</time>
      </trkpt>
      <trkpt lat="46.69264" lon="-1.44944">
        <ele>60.6</ele>
        <time>2021-12-24T10:34:18Z</time>
      </trkpt>
      <trkpt lat="46.69259" lon="-1.44936">
        <ele>60.6</ele>
        <time>2021-12-24T10:34:20Z</time>
      </trkpt>
      <trkpt lat="46.69255" lon="-1.44932">
        <ele>60.6</ele>
        <time>2021-12-24T10:34:21Z</time>
      </trkpt>
      <trkpt lat="46.69251" lon="-1.44927">
        <ele>60.6</ele>
        <time>2021-12-24T10:34:22Z</time>
      </trkpt>
      <trkpt lat="46.69243" lon="-1.44917">
        <ele>60.6</ele>
        <time>2021-12-24T10:34:24Z</time>
      </trkpt>
      <trkpt lat="46.69235" lon="-1.44907">
        <ele>60.8</ele>
        <time>2021-12-24T10:34:26Z</time>
      </trkpt>
      <trkpt lat="46.69226" lon="-1.44896">
        <ele>60.8</ele>
        <time>2021-12-24T10:34:28Z</time>
      </trkpt>
      <trkpt lat="46.69217" lon="-1.44885">
        <ele>60.8</ele>
        <time>2021-12-24T10:34:30Z</time>
      </trkpt>
      <trkpt lat="46.69208" lon="-1.44876">
        <ele>61</ele>
        <time>2021-12-24T10:34:32Z</time>
      </trkpt>
      <trkpt lat="46.69203" lon="-1.44871">
        <ele>61</ele>
        <time>2021-12-24T10:34:33Z</time>
      </trkpt>
      <trkpt lat="46.69199" lon="-1.44866">
        <ele>61</ele>
        <time>2021-12-24T10:34:34Z</time>
      </trkpt>
      <trkpt lat="46.69196" lon="-1.44864">
        <ele>61</ele>
        <time>2021-12-24T10:34:35Z</time>
      </trkpt>
      <trkpt lat="46.69193" lon="-1.4486">
        <ele>61.2</ele>
        <time>2021-12-24T10:34:36Z</time>
      </trkpt>
      <trkpt lat="46.69185" lon="-1.44851">
        <ele>61.2</ele>
        <time>2021-12-24T10:34:38Z</time>
      </trkpt>
      <trkpt lat="46.69176" lon="-1.44842">
        <ele>61.2</ele>
        <time>2021-12-24T10:34:40Z</time>
      </trkpt>
      <trkpt lat="46.69167" lon="-1.44831">
        <ele>61.2</ele>
        <time>2021-12-24T10:34:42Z</time>
      </trkpt>
      <trkpt lat="46.69157" lon="-1.4482">
        <ele>61.2</ele>
        <time>2021-12-24T10:34:44Z</time>
      </trkpt>
      <trkpt lat="46.69147" lon="-1.44807">
        <ele>61.2</ele>
        <time>2021-12-24T10:34:46Z</time>
      </trkpt>
      <trkpt lat="46.69136" lon="-1.44794">
        <ele>61.2</ele>
        <time>2021-12-24T10:34:48Z</time>
      </trkpt>
      <trkpt lat="46.69131" lon="-1.44788">
        <ele>61.2</ele>
        <time>2021-12-24T10:34:49Z</time>
      </trkpt>
      <trkpt lat="46.69125" lon="-1.44782">
        <ele>61.2</ele>
        <time>2021-12-24T10:34:50Z</time>
      </trkpt>
      <trkpt lat="46.69115" lon="-1.4477">
        <ele>61.2</ele>
        <time>2021-12-24T10:34:52Z</time>
      </trkpt>
      <trkpt lat="46.69105" lon="-1.44759">
        <ele>61.2</ele>
        <time>2021-12-24T10:34:54Z</time>
      </trkpt>
      <trkpt lat="46.69096" lon="-1.44749">
        <ele>61.2</ele>
        <time>2021-12-24T10:34:56Z</time>
      </trkpt>
      <trkpt lat="46.69086" lon="-1.44737">
        <ele>61.6</ele>
        <time>2021-12-24T10:34:58Z</time>
      </trkpt>
      <trkpt lat="46.69081" lon="-1.44732">
        <ele>61.4</ele>
        <time>2021-12-24T10:34:59Z</time>
      </trkpt>
      <trkpt lat="46.69076" lon="-1.44726">
        <ele>61.2</ele>
        <time>2021-12-24T10:35:00Z</time>
      </trkpt>
      <trkpt lat="46.69067" lon="-1.44714">
        <ele>61</ele>
        <time>2021-12-24T10:35:02Z</time>
      </trkpt>
      <trkpt lat="46.69056" lon="-1.44702">
        <ele>61.4</ele>
        <time>2021-12-24T10:35:04Z</time>
      </trkpt>
      <trkpt lat="46.69047" lon="-1.4469">
        <ele>61.4</ele>
        <time>2021-12-24T10:35:06Z</time>
      </trkpt>
      <trkpt lat="46.69036" lon="-1.44678">
        <ele>61.4</ele>
        <time>2021-12-24T10:35:08Z</time>
      </trkpt>
      <trkpt lat="46.69027" lon="-1.44665">
        <ele>61.4</ele>
        <time>2021-12-24T10:35:10Z</time>
      </trkpt>
      <trkpt lat="46.69017" lon="-1.44654">
        <ele>61.4</ele>
        <time>2021-12-24T10:35:12Z</time>
      </trkpt>
      <trkpt lat="46.69007" lon="-1.44643">
        <ele>61.4</ele>
        <time>2021-12-24T10:35:14Z</time>
      </trkpt>
      <trkpt lat="46.68997" lon="-1.44632">
        <ele>61.4</ele>
        <time>2021-12-24T10:35:16Z</time>
      </trkpt>
      <trkpt lat="46.68987" lon="-1.44621">
        <ele>61.4</ele>
        <time>2021-12-24T10:35:18Z</time>
      </trkpt>
      <trkpt lat="46.68983" lon="-1.44617">
        <ele>61.2</ele>
        <time>2021-12-24T10:35:19Z</time>
      </trkpt>
      <trkpt lat="46.68979" lon="-1.44613">
        <ele>61.2</ele>
        <time>2021-12-24T10:35:20Z</time>
      </trkpt>
      <trkpt lat="46.6897" lon="-1.44603">
        <ele>61</ele>
        <time>2021-12-24T10:35:22Z</time>
      </trkpt>
      <trkpt lat="46.68965" lon="-1.44597">
        <ele>61</ele>
        <time>2021-12-24T10:35:23Z</time>
      </trkpt>
      <trkpt lat="46.68961" lon="-1.44591">
        <ele>61.2</ele>
        <time>2021-12-24T10:35:24Z</time>
      </trkpt>
      <trkpt lat="46.68951" lon="-1.44581">
        <ele>61</ele>
        <time>2021-12-24T10:35:26Z</time>
      </trkpt>
      <trkpt lat="46.68943" lon="-1.44572">
        <ele>61</ele>
        <time>2021-12-24T10:35:28Z</time>
      </trkpt>
      <trkpt lat="46.68935" lon="-1.44563">
        <ele>61</ele>
        <time>2021-12-24T10:35:30Z</time>
      </trkpt>
      <trkpt lat="46.68926" lon="-1.44553">
        <ele>60.8</ele>
        <time>2021-12-24T10:35:32Z</time>
      </trkpt>
      <trkpt lat="46.68921" lon="-1.44548">
        <ele>60.8</ele>
        <time>2021-12-24T10:35:33Z</time>
      </trkpt>
      <trkpt lat="46.68916" lon="-1.44543">
        <ele>60.6</ele>
        <time>2021-12-24T10:35:34Z</time>
      </trkpt>
      <trkpt lat="46.68907" lon="-1.44533">
        <ele>60.6</ele>
        <time>2021-12-24T10:35:36Z</time>
      </trkpt>
      <trkpt lat="46.68899" lon="-1.44523">
        <ele>60.6</ele>
        <time>2021-12-24T10:35:38Z</time>
      </trkpt>
      <trkpt lat="46.68891" lon="-1.44513">
        <ele>60.4</ele>
        <time>2021-12-24T10:35:40Z</time>
      </trkpt>
      <trkpt lat="46.68887" lon="-1.44509">
        <ele>60.6</ele>
        <time>2021-12-24T10:35:41Z</time>
      </trkpt>
      <trkpt lat="46.68883" lon="-1.44505">
        <ele>60.4</ele>
        <time>2021-12-24T10:35:42Z</time>
      </trkpt>
      <trkpt lat="46.68876" lon="-1.44496">
        <ele>60.4</ele>
        <time>2021-12-24T10:35:44Z</time>
      </trkpt>
      <trkpt lat="46.68868" lon="-1.44487">
        <ele>60.6</ele>
        <time>2021-12-24T10:35:46Z</time>
      </trkpt>
      <trkpt lat="46.68865" lon="-1.44482">
        <ele>60.6</ele>
        <time>2021-12-24T10:35:47Z</time>
      </trkpt>
      <trkpt lat="46.68861" lon="-1.44477">
        <ele>60.6</ele>
        <time>2021-12-24T10:35:48Z</time>
      </trkpt>
      <trkpt lat="46.68853" lon="-1.44469">
        <ele>60.4</ele>
        <time>2021-12-24T10:35:50Z</time>
      </trkpt>
      <trkpt lat="46.68846" lon="-1.4446">
        <ele>60.4</ele>
        <time>2021-12-24T10:35:52Z</time>
      </trkpt>
      <trkpt lat="46.68842" lon="-1.44456">
        <ele>60.4</ele>
        <time>2021-12-24T10:35:53Z</time>
      </trkpt>
      <trkpt lat="46.68839" lon="-1.44452">
        <ele>60.6</ele>
        <time>2021-12-24T10:35:54Z</time>
      </trkpt>
      <trkpt lat="46.6883" lon="-1.44443">
        <ele>60.8</ele>
        <time>2021-12-24T10:35:56Z</time>
      </trkpt>
      <trkpt lat="46.68821" lon="-1.44438">
        <ele>60.8</ele>
        <time>2021-12-24T10:35:58Z</time>
      </trkpt>
      <trkpt lat="46.68811" lon="-1.44435">
        <ele>61</ele>
        <time>2021-12-24T10:36:00Z</time>
      </trkpt>
      <trkpt lat="46.68803" lon="-1.44429">
        <ele>61</ele>
        <time>2021-12-24T10:36:02Z</time>
      </trkpt>
      <trkpt lat="46.68796" lon="-1.44421">
        <ele>61</ele>
        <time>2021-12-24T10:36:04Z</time>
      </trkpt>
      <trkpt lat="46.6879" lon="-1.44414">
        <ele>60.8</ele>
        <time>2021-12-24T10:36:06Z</time>
      </trkpt>
      <trkpt lat="46.68783" lon="-1.44406">
        <ele>60.8</ele>
        <time>2021-12-24T10:36:08Z</time>
      </trkpt>
      <trkpt lat="46.68776" lon="-1.44398">
        <ele>60.8</ele>
        <time>2021-12-24T10:36:10Z</time>
      </trkpt>
      <trkpt lat="46.68772" lon="-1.44393">
        <ele>60.8</ele>
        <time>2021-12-24T10:36:11Z</time>
      </trkpt>
      <trkpt lat="46.68768" lon="-1.44388">
        <ele>60.8</ele>
        <time>2021-12-24T10:36:12Z</time>
      </trkpt>
      <trkpt lat="46.68765" lon="-1.44384">
        <ele>60.8</ele>
        <time>2021-12-24T10:36:13Z</time>
      </trkpt>
      <trkpt lat="46.68761" lon="-1.4438">
        <ele>61.2</ele>
        <time>2021-12-24T10:36:14Z</time>
      </trkpt>
      <trkpt lat="46.68759" lon="-1.44376">
        <ele>61.2</ele>
        <time>2021-12-24T10:36:15Z</time>
      </trkpt>
      <trkpt lat="46.68755" lon="-1.44372">
        <ele>61</ele>
        <time>2021-12-24T10:36:16Z</time>
      </trkpt>
      <trkpt lat="46.68749" lon="-1.44364">
        <ele>60.6</ele>
        <time>2021-12-24T10:36:18Z</time>
      </trkpt>
      <trkpt lat="46.68746" lon="-1.44359">
        <ele>60.6</ele>
        <time>2021-12-24T10:36:19Z</time>
      </trkpt>
      <trkpt lat="46.68742" lon="-1.44353">
        <ele>60.6</ele>
        <time>2021-12-24T10:36:20Z</time>
      </trkpt>
      <trkpt lat="46.68738" lon="-1.44347">
        <ele>60.6</ele>
        <time>2021-12-24T10:36:22Z</time>
      </trkpt>
      <trkpt lat="46.68737" lon="-1.44346">
        <ele>60.6</ele>
        <time>2021-12-24T10:36:23Z</time>
      </trkpt>
      <trkpt lat="46.68728" lon="-1.44333">
        <ele>60.2</ele>
        <time>2021-12-24T10:36:26Z</time>
      </trkpt>
      <trkpt lat="46.68721" lon="-1.44322">
        <ele>60.2</ele>
        <time>2021-12-24T10:36:28Z</time>
      </trkpt>
      <trkpt lat="46.68714" lon="-1.44313">
        <ele>60.2</ele>
        <time>2021-12-24T10:36:30Z</time>
      </trkpt>
      <trkpt lat="46.6871" lon="-1.44308">
        <ele>60.2</ele>
        <time>2021-12-24T10:36:31Z</time>
      </trkpt>
      <trkpt lat="46.68705" lon="-1.44304">
        <ele>60.4</ele>
        <time>2021-12-24T10:36:32Z</time>
      </trkpt>
      <trkpt lat="46.68695" lon="-1.44292">
        <ele>60.8</ele>
        <time>2021-12-24T10:36:34Z</time>
      </trkpt>
      <trkpt lat="46.68686" lon="-1.44279">
        <ele>61</ele>
        <time>2021-12-24T10:36:36Z</time>
      </trkpt>
      <trkpt lat="46.68681" lon="-1.44273">
        <ele>61</ele>
        <time>2021-12-24T10:36:37Z</time>
      </trkpt>
      <trkpt lat="46.68676" lon="-1.44268">
        <ele>61</ele>
        <time>2021-12-24T10:36:38Z</time>
      </trkpt>
      <trkpt lat="46.68667" lon="-1.44257">
        <ele>61</ele>
        <time>2021-12-24T10:36:40Z</time>
      </trkpt>
      <trkpt lat="46.68658" lon="-1.44247">
        <ele>61</ele>
        <time>2021-12-24T10:36:42Z</time>
      </trkpt>
      <trkpt lat="46.68654" lon="-1.44242">
        <ele>61</ele>
        <time>2021-12-24T10:36:43Z</time>
      </trkpt>
      <trkpt lat="46.6865" lon="-1.44237">
        <ele>61</ele>
        <time>2021-12-24T10:36:44Z</time>
      </trkpt>
      <trkpt lat="46.68639" lon="-1.44225">
        <ele>61</ele>
        <time>2021-12-24T10:36:46Z</time>
      </trkpt>
      <trkpt lat="46.68628" lon="-1.44213">
        <ele>61</ele>
        <time>2021-12-24T10:36:48Z</time>
      </trkpt>
      <trkpt lat="46.68618" lon="-1.44202">
        <ele>61</ele>
        <time>2021-12-24T10:36:50Z</time>
      </trkpt>
      <trkpt lat="46.68612" lon="-1.44195">
        <ele>61</ele>
        <time>2021-12-24T10:36:51Z</time>
      </trkpt>
      <trkpt lat="46.68606" lon="-1.44189">
        <ele>61</ele>
        <time>2021-12-24T10:36:52Z</time>
      </trkpt>
      <trkpt lat="46.68595" lon="-1.44176">
        <ele>61</ele>
        <time>2021-12-24T10:36:54Z</time>
      </trkpt>
      <trkpt lat="46.68582" lon="-1.44163">
        <ele>60.8</ele>
        <time>2021-12-24T10:36:56Z</time>
      </trkpt>
      <trkpt lat="46.6857" lon="-1.44148">
        <ele>61</ele>
        <time>2021-12-24T10:36:58Z</time>
      </trkpt>
      <trkpt lat="46.68559" lon="-1.44134">
        <ele>61</ele>
        <time>2021-12-24T10:37:00Z</time>
      </trkpt>
      <trkpt lat="46.68546" lon="-1.4412">
        <ele>61</ele>
        <time>2021-12-24T10:37:02Z</time>
      </trkpt>
      <trkpt lat="46.68533" lon="-1.44106">
        <ele>61</ele>
        <time>2021-12-24T10:37:04Z</time>
      </trkpt>
      <trkpt lat="46.6852" lon="-1.44091">
        <ele>61</ele>
        <time>2021-12-24T10:37:06Z</time>
      </trkpt>
      <trkpt lat="46.68507" lon="-1.44076">
        <ele>61</ele>
        <time>2021-12-24T10:37:08Z</time>
      </trkpt>
      <trkpt lat="46.68493" lon="-1.4406">
        <ele>61</ele>
        <time>2021-12-24T10:37:10Z</time>
      </trkpt>
      <trkpt lat="46.6848" lon="-1.44046">
        <ele>61</ele>
        <time>2021-12-24T10:37:12Z</time>
      </trkpt>
      <trkpt lat="46.68468" lon="-1.44031">
        <ele>60.8</ele>
        <time>2021-12-24T10:37:14Z</time>
      </trkpt>
      <trkpt lat="46.68456" lon="-1.44019">
        <ele>60.8</ele>
        <time>2021-12-24T10:37:16Z</time>
      </trkpt>
      <trkpt lat="46.68452" lon="-1.44013">
        <ele>60.8</ele>
        <time>2021-12-24T10:37:17Z</time>
      </trkpt>
      <trkpt lat="46.68447" lon="-1.44009">
        <ele>60.6</ele>
        <time>2021-12-24T10:37:18Z</time>
      </trkpt>
      <trkpt lat="46.6844" lon="-1.44002">
        <ele>60.8</ele>
        <time>2021-12-24T10:37:20Z</time>
      </trkpt>
      <trkpt lat="46.68436" lon="-1.43995">
        <ele>61.2</ele>
        <time>2021-12-24T10:37:22Z</time>
      </trkpt>
      <trkpt lat="46.68434" lon="-1.43992">
        <ele>61</ele>
        <time>2021-12-24T10:37:23Z</time>
      </trkpt>
      <trkpt lat="46.68431" lon="-1.43989">
        <ele>61</ele>
        <time>2021-12-24T10:37:24Z</time>
      </trkpt>
      <trkpt lat="46.68426" lon="-1.43983">
        <ele>61</ele>
        <time>2021-12-24T10:37:26Z</time>
      </trkpt>
      <trkpt lat="46.68423" lon="-1.43978">
        <ele>61</ele>
        <time>2021-12-24T10:37:27Z</time>
      </trkpt>
      <trkpt lat="46.6842" lon="-1.43974">
        <ele>61.2</ele>
        <time>2021-12-24T10:37:28Z</time>
      </trkpt>
      <trkpt lat="46.68412" lon="-1.43964">
        <ele>61.2</ele>
        <time>2021-12-24T10:37:30Z</time>
      </trkpt>
      <trkpt lat="46.68408" lon="-1.4396">
        <ele>61</ele>
        <time>2021-12-24T10:37:31Z</time>
      </trkpt>
      <trkpt lat="46.68404" lon="-1.43955">
        <ele>61</ele>
        <time>2021-12-24T10:37:32Z</time>
      </trkpt>
      <trkpt lat="46.68394" lon="-1.43945">
        <ele>60.8</ele>
        <time>2021-12-24T10:37:34Z</time>
      </trkpt>
      <trkpt lat="46.68389" lon="-1.4394">
        <ele>60.8</ele>
        <time>2021-12-24T10:37:35Z</time>
      </trkpt>
      <trkpt lat="46.68383" lon="-1.43934">
        <ele>60.8</ele>
        <time>2021-12-24T10:37:36Z</time>
      </trkpt>
      <trkpt lat="46.68372" lon="-1.43923">
        <ele>60.6</ele>
        <time>2021-12-24T10:37:38Z</time>
      </trkpt>
      <trkpt lat="46.68362" lon="-1.43911">
        <ele>60.4</ele>
        <time>2021-12-24T10:37:40Z</time>
      </trkpt>
      <trkpt lat="46.68358" lon="-1.43906">
        <ele>60.4</ele>
        <time>2021-12-24T10:37:41Z</time>
      </trkpt>
      <trkpt lat="46.68353" lon="-1.43901">
        <ele>60.2</ele>
        <time>2021-12-24T10:37:42Z</time>
      </trkpt>
      <trkpt lat="46.68344" lon="-1.4389">
        <ele>60</ele>
        <time>2021-12-24T10:37:44Z</time>
      </trkpt>
      <trkpt lat="46.68339" lon="-1.43885">
        <ele>60</ele>
        <time>2021-12-24T10:37:45Z</time>
      </trkpt>
      <trkpt lat="46.68335" lon="-1.4388">
        <ele>59.8</ele>
        <time>2021-12-24T10:37:46Z</time>
      </trkpt>
      <trkpt lat="46.68324" lon="-1.43867">
        <ele>59.8</ele>
        <time>2021-12-24T10:37:48Z</time>
      </trkpt>
      <trkpt lat="46.68314" lon="-1.43855">
        <ele>59.6</ele>
        <time>2021-12-24T10:37:50Z</time>
      </trkpt>
      <trkpt lat="46.68304" lon="-1.43844">
        <ele>59.4</ele>
        <time>2021-12-24T10:37:52Z</time>
      </trkpt>
      <trkpt lat="46.68293" lon="-1.43832">
        <ele>59.2</ele>
        <time>2021-12-24T10:37:54Z</time>
      </trkpt>
      <trkpt lat="46.68288" lon="-1.43826">
        <ele>59.2</ele>
        <time>2021-12-24T10:37:55Z</time>
      </trkpt>
      <trkpt lat="46.68283" lon="-1.43821">
        <ele>59.2</ele>
        <time>2021-12-24T10:37:56Z</time>
      </trkpt>
      <trkpt lat="46.68273" lon="-1.43811">
        <ele>59</ele>
        <time>2021-12-24T10:37:58Z</time>
      </trkpt>
      <trkpt lat="46.68264" lon="-1.43801">
        <ele>58.8</ele>
        <time>2021-12-24T10:38:00Z</time>
      </trkpt>
      <trkpt lat="46.68253" lon="-1.4379">
        <ele>58.6</ele>
        <time>2021-12-24T10:38:02Z</time>
      </trkpt>
      <trkpt lat="46.68242" lon="-1.43778">
        <ele>58.6</ele>
        <time>2021-12-24T10:38:04Z</time>
      </trkpt>
      <trkpt lat="46.68232" lon="-1.43767">
        <ele>58.6</ele>
        <time>2021-12-24T10:38:06Z</time>
      </trkpt>
      <trkpt lat="46.68221" lon="-1.43757">
        <ele>58.8</ele>
        <time>2021-12-24T10:38:08Z</time>
      </trkpt>
      <trkpt lat="46.6821" lon="-1.43748">
        <ele>59</ele>
        <time>2021-12-24T10:38:10Z</time>
      </trkpt>
      <trkpt lat="46.682" lon="-1.43741">
        <ele>58.8</ele>
        <time>2021-12-24T10:38:12Z</time>
      </trkpt>
      <trkpt lat="46.6819" lon="-1.43733">
        <ele>58.2</ele>
        <time>2021-12-24T10:38:14Z</time>
      </trkpt>
      <trkpt lat="46.68179" lon="-1.43724">
        <ele>59.8</ele>
        <time>2021-12-24T10:38:16Z</time>
      </trkpt>
      <trkpt lat="46.68173" lon="-1.43719">
        <ele>60</ele>
        <time>2021-12-24T10:38:17Z</time>
      </trkpt>
      <trkpt lat="46.68167" lon="-1.43715">
        <ele>59.4</ele>
        <time>2021-12-24T10:38:18Z</time>
      </trkpt>
      <trkpt lat="46.68156" lon="-1.43707">
        <ele>59.6</ele>
        <time>2021-12-24T10:38:20Z</time>
      </trkpt>
      <trkpt lat="46.68145" lon="-1.43701">
        <ele>59.6</ele>
        <time>2021-12-24T10:38:22Z</time>
      </trkpt>
      <trkpt lat="46.68139" lon="-1.43698">
        <ele>59.6</ele>
        <time>2021-12-24T10:38:23Z</time>
      </trkpt>
      <trkpt lat="46.68134" lon="-1.43695">
        <ele>59.6</ele>
        <time>2021-12-24T10:38:24Z</time>
      </trkpt>
      <trkpt lat="46.68123" lon="-1.43689">
        <ele>59.6</ele>
        <time>2021-12-24T10:38:26Z</time>
      </trkpt>
      <trkpt lat="46.68114" lon="-1.43685">
        <ele>59.6</ele>
        <time>2021-12-24T10:38:28Z</time>
      </trkpt>
      <trkpt lat="46.68104" lon="-1.43681">
        <ele>59.6</ele>
        <time>2021-12-24T10:38:30Z</time>
      </trkpt>
      <trkpt lat="46.68092" lon="-1.43676">
        <ele>59.6</ele>
        <time>2021-12-24T10:38:32Z</time>
      </trkpt>
      <trkpt lat="46.68082" lon="-1.43673">
        <ele>59.6</ele>
        <time>2021-12-24T10:38:34Z</time>
      </trkpt>
      <trkpt lat="46.68075" lon="-1.43671">
        <ele>59.6</ele>
        <time>2021-12-24T10:38:35Z</time>
      </trkpt>
      <trkpt lat="46.6807" lon="-1.4367">
        <ele>59.6</ele>
        <time>2021-12-24T10:38:36Z</time>
      </trkpt>
      <trkpt lat="46.68058" lon="-1.43668">
        <ele>59.6</ele>
        <time>2021-12-24T10:38:38Z</time>
      </trkpt>
      <trkpt lat="46.68046" lon="-1.43667">
        <ele>59.8</ele>
        <time>2021-12-24T10:38:40Z</time>
      </trkpt>
      <trkpt lat="46.6804" lon="-1.43666">
        <ele>59.8</ele>
        <time>2021-12-24T10:38:41Z</time>
      </trkpt>
      <trkpt lat="46.68034" lon="-1.43665">
        <ele>59.8</ele>
        <time>2021-12-24T10:38:42Z</time>
      </trkpt>
      <trkpt lat="46.68024" lon="-1.43664">
        <ele>60</ele>
        <time>2021-12-24T10:38:44Z</time>
      </trkpt>
      <trkpt lat="46.6802" lon="-1.43665">
        <ele>60</ele>
        <time>2021-12-24T10:38:45Z</time>
      </trkpt>
      <trkpt lat="46.68016" lon="-1.43665">
        <ele>60</ele>
        <time>2021-12-24T10:38:46Z</time>
      </trkpt>
      <trkpt lat="46.68009" lon="-1.43664">
        <ele>60</ele>
        <time>2021-12-24T10:38:48Z</time>
      </trkpt>
      <trkpt lat="46.68001" lon="-1.43664">
        <ele>60</ele>
        <time>2021-12-24T10:38:50Z</time>
      </trkpt>
      <trkpt lat="46.67998" lon="-1.43663">
        <ele>60.2</ele>
        <time>2021-12-24T10:38:51Z</time>
      </trkpt>
      <trkpt lat="46.67994" lon="-1.43662">
        <ele>60.2</ele>
        <time>2021-12-24T10:38:52Z</time>
      </trkpt>
      <trkpt lat="46.67986" lon="-1.43662">
        <ele>60.4</ele>
        <time>2021-12-24T10:38:54Z</time>
      </trkpt>
      <trkpt lat="46.67979" lon="-1.43661">
        <ele>60.4</ele>
        <time>2021-12-24T10:38:56Z</time>
      </trkpt>
      <trkpt lat="46.67971" lon="-1.43659">
        <ele>60.6</ele>
        <time>2021-12-24T10:38:58Z</time>
      </trkpt>
      <trkpt lat="46.67963" lon="-1.43658">
        <ele>60.6</ele>
        <time>2021-12-24T10:39:00Z</time>
      </trkpt>
      <trkpt lat="46.67954" lon="-1.43658">
        <ele>60.8</ele>
        <time>2021-12-24T10:39:02Z</time>
      </trkpt>
      <trkpt lat="46.67945" lon="-1.43657">
        <ele>60.8</ele>
        <time>2021-12-24T10:39:04Z</time>
      </trkpt>
      <trkpt lat="46.67937" lon="-1.43657">
        <ele>60.6</ele>
        <time>2021-12-24T10:39:06Z</time>
      </trkpt>
      <trkpt lat="46.67931" lon="-1.43657">
        <ele>60.6</ele>
        <time>2021-12-24T10:39:08Z</time>
      </trkpt>
      <trkpt lat="46.67929" lon="-1.43657">
        <ele>60.6</ele>
        <time>2021-12-24T10:39:09Z</time>
      </trkpt>
      <trkpt lat="46.67928" lon="-1.43656">
        <ele>60.6</ele>
        <time>2021-12-24T10:39:10Z</time>
      </trkpt>
      <trkpt lat="46.67928" lon="-1.43654">
        <ele>60.6</ele>
        <time>2021-12-24T10:39:12Z</time>
      </trkpt>
      <trkpt lat="46.67932" lon="-1.43654">
        <ele>60</ele>
        <time>2021-12-24T10:39:14Z</time>
      </trkpt>
      <trkpt lat="46.67939" lon="-1.43655">
        <ele>60</ele>
        <time>2021-12-24T10:39:16Z</time>
      </trkpt>
      <trkpt lat="46.67945" lon="-1.43655">
        <ele>59.8</ele>
        <time>2021-12-24T10:39:18Z</time>
      </trkpt>
      <trkpt lat="46.6795" lon="-1.43655">
        <ele>59.6</ele>
        <time>2021-12-24T10:39:20Z</time>
      </trkpt>
      <trkpt lat="46.67952" lon="-1.43656">
        <ele>59.6</ele>
        <time>2021-12-24T10:39:21Z</time>
      </trkpt>
      <trkpt lat="46.67954" lon="-1.43656">
        <ele>59.4</ele>
        <time>2021-12-24T10:39:22Z</time>
      </trkpt>
      <trkpt lat="46.67956" lon="-1.43654">
        <ele>59.2</ele>
        <time>2021-12-24T10:39:23Z</time>
      </trkpt>
      <trkpt lat="46.67957" lon="-1.43651">
        <ele>59.2</ele>
        <time>2021-12-24T10:39:24Z</time>
      </trkpt>
      <trkpt lat="46.67959" lon="-1.43646">
        <ele>58.8</ele>
        <time>2021-12-24T10:39:26Z</time>
      </trkpt>
      <trkpt lat="46.6796" lon="-1.43639">
        <ele>58.6</ele>
        <time>2021-12-24T10:39:28Z</time>
      </trkpt>
      <trkpt lat="46.67961" lon="-1.43637">
        <ele>58.6</ele>
        <time>2021-12-24T10:39:29Z</time>
      </trkpt>
      <trkpt lat="46.67962" lon="-1.43637">
        <ele>58.6</ele>
        <time>2021-12-24T10:39:30Z</time>
      </trkpt>
      <trkpt lat="46.67966" lon="-1.43636">
        <ele>58.6</ele>
        <time>2021-12-24T10:39:32Z</time>
      </trkpt>
      <trkpt lat="46.67971" lon="-1.43636">
        <ele>58.4</ele>
        <time>2021-12-24T10:39:34Z</time>
      </trkpt>
      <trkpt lat="46.67977" lon="-1.43636">
        <ele>58.2</ele>
        <time>2021-12-24T10:39:36Z</time>
      </trkpt>
      <trkpt lat="46.67984" lon="-1.43636">
        <ele>58.2</ele>
        <time>2021-12-24T10:39:38Z</time>
      </trkpt>
      <trkpt lat="46.67991" lon="-1.43637">
        <ele>58.4</ele>
        <time>2021-12-24T10:39:40Z</time>
      </trkpt>
      <trkpt lat="46.67999" lon="-1.43636">
        <ele>58.6</ele>
        <time>2021-12-24T10:39:42Z</time>
      </trkpt>
      <trkpt lat="46.68005" lon="-1.43636">
        <ele>57.8</ele>
        <time>2021-12-24T10:39:44Z</time>
      </trkpt>
      <trkpt lat="46.68007" lon="-1.43635">
        <ele>59.2</ele>
        <time>2021-12-24T10:39:45Z</time>
      </trkpt>
      <trkpt lat="46.68007" lon="-1.43632">
        <ele>59.8</ele>
        <time>2021-12-24T10:39:46Z</time>
      </trkpt>
      <trkpt lat="46.68004" lon="-1.43631">
        <ele>59.4</ele>
        <time>2021-12-24T10:39:48Z</time>
      </trkpt>
      <trkpt lat="46.68002" lon="-1.43631">
        <ele>59.6</ele>
        <time>2021-12-24T10:39:49Z</time>
      </trkpt>
      <trkpt lat="46.67999" lon="-1.43631">
        <ele>59.8</ele>
        <time>2021-12-24T10:39:50Z</time>
      </trkpt>
      <trkpt lat="46.67992" lon="-1.4363">
        <ele>60</ele>
        <time>2021-12-24T10:39:52Z</time>
      </trkpt>
      <trkpt lat="46.67985" lon="-1.43629">
        <ele>60.2</ele>
        <time>2021-12-24T10:39:54Z</time>
      </trkpt>
      <trkpt lat="46.67979" lon="-1.43629">
        <ele>60.4</ele>
        <time>2021-12-24T10:39:56Z</time>
      </trkpt>
      <trkpt lat="46.67974" lon="-1.43627">
        <ele>60.4</ele>
        <time>2021-12-24T10:39:58Z</time>
      </trkpt>
      <trkpt lat="46.67971" lon="-1.43627">
        <ele>60.4</ele>
        <time>2021-12-24T10:39:59Z</time>
      </trkpt>
      <trkpt lat="46.67968" lon="-1.43627">
        <ele>60.6</ele>
        <time>2021-12-24T10:40:00Z</time>
      </trkpt>
      <trkpt lat="46.67962" lon="-1.43627">
        <ele>60.6</ele>
        <time>2021-12-24T10:40:02Z</time>
      </trkpt>
      <trkpt lat="46.67954" lon="-1.43626">
        <ele>60.8</ele>
        <time>2021-12-24T10:40:04Z</time>
      </trkpt>
      <trkpt lat="46.67946" lon="-1.43625">
        <ele>61</ele>
        <time>2021-12-24T10:40:06Z</time>
      </trkpt>
      <trkpt lat="46.67938" lon="-1.43625">
        <ele>61</ele>
        <time>2021-12-24T10:40:08Z</time>
      </trkpt>
      <trkpt lat="46.67929" lon="-1.43624">
        <ele>61.2</ele>
        <time>2021-12-24T10:40:10Z</time>
      </trkpt>
      <trkpt lat="46.6792" lon="-1.43623">
        <ele>61.4</ele>
        <time>2021-12-24T10:40:12Z</time>
      </trkpt>
      <trkpt lat="46.67911" lon="-1.43622">
        <ele>61.4</ele>
        <time>2021-12-24T10:40:14Z</time>
      </trkpt>
      <trkpt lat="46.67901" lon="-1.43621">
        <ele>61.6</ele>
        <time>2021-12-24T10:40:16Z</time>
      </trkpt>
      <trkpt lat="46.67896" lon="-1.4362">
        <ele>61.8</ele>
        <time>2021-12-24T10:40:17Z</time>
      </trkpt>
      <trkpt lat="46.67891" lon="-1.43619">
        <ele>61.8</ele>
        <time>2021-12-24T10:40:18Z</time>
      </trkpt>
      <trkpt lat="46.67881" lon="-1.43618">
        <ele>62</ele>
        <time>2021-12-24T10:40:20Z</time>
      </trkpt>
      <trkpt lat="46.67871" lon="-1.43617">
        <ele>62.2</ele>
        <time>2021-12-24T10:40:22Z</time>
      </trkpt>
      <trkpt lat="46.67861" lon="-1.43617">
        <ele>62.4</ele>
        <time>2021-12-24T10:40:24Z</time>
      </trkpt>
      <trkpt lat="46.67856" lon="-1.43616">
        <ele>62.4</ele>
        <time>2021-12-24T10:40:25Z</time>
      </trkpt>
      <trkpt lat="46.67851" lon="-1.43615">
        <ele>62.4</ele>
        <time>2021-12-24T10:40:26Z</time>
      </trkpt>
      <trkpt lat="46.67841" lon="-1.43614">
        <ele>62.6</ele>
        <time>2021-12-24T10:40:28Z</time>
      </trkpt>
      <trkpt lat="46.67832" lon="-1.43613">
        <ele>62.8</ele>
        <time>2021-12-24T10:40:30Z</time>
      </trkpt>
      <trkpt lat="46.67821" lon="-1.43612">
        <ele>63</ele>
        <time>2021-12-24T10:40:32Z</time>
      </trkpt>
      <trkpt lat="46.67809" lon="-1.43609">
        <ele>63</ele>
        <time>2021-12-24T10:40:34Z</time>
      </trkpt>
      <trkpt lat="46.67799" lon="-1.43606">
        <ele>63.2</ele>
        <time>2021-12-24T10:40:36Z</time>
      </trkpt>
      <trkpt lat="46.67788" lon="-1.43602">
        <ele>63.2</ele>
        <time>2021-12-24T10:40:38Z</time>
      </trkpt>
      <trkpt lat="46.67783" lon="-1.436">
        <ele>63.2</ele>
        <time>2021-12-24T10:40:39Z</time>
      </trkpt>
      <trkpt lat="46.67777" lon="-1.43599">
        <ele>63.2</ele>
        <time>2021-12-24T10:40:40Z</time>
      </trkpt>
      <trkpt lat="46.67767" lon="-1.43594">
        <ele>63.4</ele>
        <time>2021-12-24T10:40:42Z</time>
      </trkpt>
      <trkpt lat="46.67757" lon="-1.43589">
        <ele>63.6</ele>
        <time>2021-12-24T10:40:44Z</time>
      </trkpt>
      <trkpt lat="46.67752" lon="-1.43587">
        <ele>63.6</ele>
        <time>2021-12-24T10:40:45Z</time>
      </trkpt>
      <trkpt lat="46.67747" lon="-1.43584">
        <ele>63.8</ele>
        <time>2021-12-24T10:40:46Z</time>
      </trkpt>
      <trkpt lat="46.67742" lon="-1.43581">
        <ele>63.8</ele>
        <time>2021-12-24T10:40:47Z</time>
      </trkpt>
      <trkpt lat="46.67738" lon="-1.43578">
        <ele>63.8</ele>
        <time>2021-12-24T10:40:48Z</time>
      </trkpt>
      <trkpt lat="46.67733" lon="-1.43576">
        <ele>63.8</ele>
        <time>2021-12-24T10:40:49Z</time>
      </trkpt>
      <trkpt lat="46.67727" lon="-1.43574">
        <ele>63.8</ele>
        <time>2021-12-24T10:40:50Z</time>
      </trkpt>
      <trkpt lat="46.67718" lon="-1.4357">
        <ele>64</ele>
        <time>2021-12-24T10:40:52Z</time>
      </trkpt>
      <trkpt lat="46.67709" lon="-1.43565">
        <ele>64</ele>
        <time>2021-12-24T10:40:54Z</time>
      </trkpt>
      <trkpt lat="46.67699" lon="-1.43561">
        <ele>64.2</ele>
        <time>2021-12-24T10:40:56Z</time>
      </trkpt>
      <trkpt lat="46.67691" lon="-1.43556">
        <ele>64.4</ele>
        <time>2021-12-24T10:40:58Z</time>
      </trkpt>
      <trkpt lat="46.67686" lon="-1.43555">
        <ele>64.6</ele>
        <time>2021-12-24T10:40:59Z</time>
      </trkpt>
      <trkpt lat="46.67682" lon="-1.43556">
        <ele>64.6</ele>
        <time>2021-12-24T10:41:00Z</time>
      </trkpt>
      <trkpt lat="46.67677" lon="-1.43557">
        <ele>64.8</ele>
        <time>2021-12-24T10:41:01Z</time>
      </trkpt>
      <trkpt lat="46.67672" lon="-1.43558">
        <ele>64.8</ele>
        <time>2021-12-24T10:41:02Z</time>
      </trkpt>
      <trkpt lat="46.67663" lon="-1.43556">
        <ele>64.8</ele>
        <time>2021-12-24T10:41:04Z</time>
      </trkpt>
      <trkpt lat="46.67656" lon="-1.43547">
        <ele>65</ele>
        <time>2021-12-24T10:41:06Z</time>
      </trkpt>
      <trkpt lat="46.67652" lon="-1.43542">
        <ele>65</ele>
        <time>2021-12-24T10:41:07Z</time>
      </trkpt>
      <trkpt lat="46.67647" lon="-1.43539">
        <ele>65</ele>
        <time>2021-12-24T10:41:08Z</time>
      </trkpt>
      <trkpt lat="46.67642" lon="-1.43536">
        <ele>65.2</ele>
        <time>2021-12-24T10:41:09Z</time>
      </trkpt>
      <trkpt lat="46.67637" lon="-1.43535">
        <ele>65.2</ele>
        <time>2021-12-24T10:41:10Z</time>
      </trkpt>
      <trkpt lat="46.67627" lon="-1.43534">
        <ele>65.2</ele>
        <time>2021-12-24T10:41:12Z</time>
      </trkpt>
      <trkpt lat="46.67617" lon="-1.43533">
        <ele>65.4</ele>
        <time>2021-12-24T10:41:14Z</time>
      </trkpt>
      <trkpt lat="46.67608" lon="-1.43533">
        <ele>65.6</ele>
        <time>2021-12-24T10:41:16Z</time>
      </trkpt>
      <trkpt lat="46.67597" lon="-1.43532">
        <ele>65.6</ele>
        <time>2021-12-24T10:41:18Z</time>
      </trkpt>
      <trkpt lat="46.67587" lon="-1.43531">
        <ele>65.8</ele>
        <time>2021-12-24T10:41:20Z</time>
      </trkpt>
      <trkpt lat="46.67577" lon="-1.4353">
        <ele>65.8</ele>
        <time>2021-12-24T10:41:22Z</time>
      </trkpt>
      <trkpt lat="46.67566" lon="-1.43529">
        <ele>65.8</ele>
        <time>2021-12-24T10:41:24Z</time>
      </trkpt>
      <trkpt lat="46.67556" lon="-1.43528">
        <ele>66</ele>
        <time>2021-12-24T10:41:26Z</time>
      </trkpt>
      <trkpt lat="46.6755" lon="-1.43528">
        <ele>66.2</ele>
        <time>2021-12-24T10:41:27Z</time>
      </trkpt>
      <trkpt lat="46.67544" lon="-1.43527">
        <ele>66.2</ele>
        <time>2021-12-24T10:41:28Z</time>
      </trkpt>
      <trkpt lat="46.67532" lon="-1.43526">
        <ele>66.2</ele>
        <time>2021-12-24T10:41:30Z</time>
      </trkpt>
      <trkpt lat="46.67521" lon="-1.43525">
        <ele>66.2</ele>
        <time>2021-12-24T10:41:32Z</time>
      </trkpt>
      <trkpt lat="46.6751" lon="-1.43525">
        <ele>66.4</ele>
        <time>2021-12-24T10:41:34Z</time>
      </trkpt>
      <trkpt lat="46.67505" lon="-1.43524">
        <ele>66.4</ele>
        <time>2021-12-24T10:41:35Z</time>
      </trkpt>
      <trkpt lat="46.67499" lon="-1.43524">
        <ele>66.4</ele>
        <time>2021-12-24T10:41:36Z</time>
      </trkpt>
      <trkpt lat="46.67488" lon="-1.43524">
        <ele>66.6</ele>
        <time>2021-12-24T10:41:38Z</time>
      </trkpt>
      <trkpt lat="46.67479" lon="-1.43523">
        <ele>66.6</ele>
        <time>2021-12-24T10:41:40Z</time>
      </trkpt>
      <trkpt lat="46.67473" lon="-1.43523">
        <ele>66.6</ele>
        <time>2021-12-24T10:41:41Z</time>
      </trkpt>
      <trkpt lat="46.67468" lon="-1.43522">
        <ele>66.6</ele>
        <time>2021-12-24T10:41:42Z</time>
      </trkpt>
      <trkpt lat="46.67457" lon="-1.43521">
        <ele>66.6</ele>
        <time>2021-12-24T10:41:44Z</time>
      </trkpt>
      <trkpt lat="46.67447" lon="-1.4352">
        <ele>66.6</ele>
        <time>2021-12-24T10:41:46Z</time>
      </trkpt>
      <trkpt lat="46.67435" lon="-1.43519">
        <ele>66.6</ele>
        <time>2021-12-24T10:41:48Z</time>
      </trkpt>
      <trkpt lat="46.67424" lon="-1.43518">
        <ele>66.8</ele>
        <time>2021-12-24T10:41:50Z</time>
      </trkpt>
      <trkpt lat="46.67412" lon="-1.43517">
        <ele>66.8</ele>
        <time>2021-12-24T10:41:52Z</time>
      </trkpt>
      <trkpt lat="46.674" lon="-1.43516">
        <ele>66.8</ele>
        <time>2021-12-24T10:41:54Z</time>
      </trkpt>
      <trkpt lat="46.67388" lon="-1.43516">
        <ele>66.6</ele>
        <time>2021-12-24T10:41:56Z</time>
      </trkpt>
      <trkpt lat="46.67381" lon="-1.43515">
        <ele>66.6</ele>
        <time>2021-12-24T10:41:57Z</time>
      </trkpt>
      <trkpt lat="46.67376" lon="-1.43514">
        <ele>66.8</ele>
        <time>2021-12-24T10:41:58Z</time>
      </trkpt>
      <trkpt lat="46.67364" lon="-1.43513">
        <ele>66.8</ele>
        <time>2021-12-24T10:42:00Z</time>
      </trkpt>
      <trkpt lat="46.67351" lon="-1.43512">
        <ele>66.8</ele>
        <time>2021-12-24T10:42:02Z</time>
      </trkpt>
      <trkpt lat="46.67339" lon="-1.43512">
        <ele>67</ele>
        <time>2021-12-24T10:42:04Z</time>
      </trkpt>
      <trkpt lat="46.67334" lon="-1.43512">
        <ele>67</ele>
        <time>2021-12-24T10:42:05Z</time>
      </trkpt>
      <trkpt lat="46.67329" lon="-1.43512">
        <ele>66.8</ele>
        <time>2021-12-24T10:42:06Z</time>
      </trkpt>
      <trkpt lat="46.6732" lon="-1.43514">
        <ele>66.8</ele>
        <time>2021-12-24T10:42:08Z</time>
      </trkpt>
      <trkpt lat="46.67315" lon="-1.43513">
        <ele>66.8</ele>
        <time>2021-12-24T10:42:09Z</time>
      </trkpt>
      <trkpt lat="46.6731" lon="-1.4351">
        <ele>66.8</ele>
        <time>2021-12-24T10:42:10Z</time>
      </trkpt>
      <trkpt lat="46.67302" lon="-1.43507">
        <ele>66.6</ele>
        <time>2021-12-24T10:42:12Z</time>
      </trkpt>
      <trkpt lat="46.67297" lon="-1.43507">
        <ele>66.4</ele>
        <time>2021-12-24T10:42:13Z</time>
      </trkpt>
      <trkpt lat="46.67292" lon="-1.43508">
        <ele>66.4</ele>
        <time>2021-12-24T10:42:14Z</time>
      </trkpt>
      <trkpt lat="46.67282" lon="-1.43508">
        <ele>66.6</ele>
        <time>2021-12-24T10:42:16Z</time>
      </trkpt>
      <trkpt lat="46.67276" lon="-1.43508">
        <ele>66.4</ele>
        <time>2021-12-24T10:42:17Z</time>
      </trkpt>
      <trkpt lat="46.67271" lon="-1.43509">
        <ele>66.2</ele>
        <time>2021-12-24T10:42:18Z</time>
      </trkpt>
      <trkpt lat="46.67265" lon="-1.43508">
        <ele>66.2</ele>
        <time>2021-12-24T10:42:19Z</time>
      </trkpt>
      <trkpt lat="46.6726" lon="-1.43507">
        <ele>66.2</ele>
        <time>2021-12-24T10:42:20Z</time>
      </trkpt>
      <trkpt lat="46.67249" lon="-1.43504">
        <ele>66.2</ele>
        <time>2021-12-24T10:42:22Z</time>
      </trkpt>
      <trkpt lat="46.67238" lon="-1.43502">
        <ele>66</ele>
        <time>2021-12-24T10:42:24Z</time>
      </trkpt>
      <trkpt lat="46.67228" lon="-1.435">
        <ele>65.8</ele>
        <time>2021-12-24T10:42:26Z</time>
      </trkpt>
      <trkpt lat="46.67223" lon="-1.435">
        <ele>65.6</ele>
        <time>2021-12-24T10:42:27Z</time>
      </trkpt>
      <trkpt lat="46.67219" lon="-1.43499">
        <ele>65.4</ele>
        <time>2021-12-24T10:42:28Z</time>
      </trkpt>
      <trkpt lat="46.67215" lon="-1.43498">
        <ele>65.4</ele>
        <time>2021-12-24T10:42:29Z</time>
      </trkpt>
      <trkpt lat="46.67211" lon="-1.43495">
        <ele>65.2</ele>
        <time>2021-12-24T10:42:30Z</time>
      </trkpt>
      <trkpt lat="46.67209" lon="-1.4349">
        <ele>65.2</ele>
        <time>2021-12-24T10:42:31Z</time>
      </trkpt>
      <trkpt lat="46.67209" lon="-1.43485">
        <ele>65.2</ele>
        <time>2021-12-24T10:42:32Z</time>
      </trkpt>
      <trkpt lat="46.67209" lon="-1.43479">
        <ele>65</ele>
        <time>2021-12-24T10:42:33Z</time>
      </trkpt>
      <trkpt lat="46.6721" lon="-1.43473">
        <ele>64.8</ele>
        <time>2021-12-24T10:42:34Z</time>
      </trkpt>
      <trkpt lat="46.6721" lon="-1.4346">
        <ele>64.8</ele>
        <time>2021-12-24T10:42:36Z</time>
      </trkpt>
      <trkpt lat="46.6721" lon="-1.43447">
        <ele>64.8</ele>
        <time>2021-12-24T10:42:38Z</time>
      </trkpt>
      <trkpt lat="46.67211" lon="-1.43434">
        <ele>64.6</ele>
        <time>2021-12-24T10:42:40Z</time>
      </trkpt>
      <trkpt lat="46.67211" lon="-1.43428">
        <ele>64.4</ele>
        <time>2021-12-24T10:42:41Z</time>
      </trkpt>
      <trkpt lat="46.67211" lon="-1.43421">
        <ele>64.4</ele>
        <time>2021-12-24T10:42:42Z</time>
      </trkpt>
      <trkpt lat="46.67212" lon="-1.43409">
        <ele>64.2</ele>
        <time>2021-12-24T10:42:44Z</time>
      </trkpt>
      <trkpt lat="46.67213" lon="-1.43404">
        <ele>64.2</ele>
        <time>2021-12-24T10:42:45Z</time>
      </trkpt>
      <trkpt lat="46.67213" lon="-1.43397">
        <ele>64</ele>
        <time>2021-12-24T10:42:46Z</time>
      </trkpt>
      <trkpt lat="46.67214" lon="-1.43385">
        <ele>64</ele>
        <time>2021-12-24T10:42:48Z</time>
      </trkpt>
      <trkpt lat="46.67214" lon="-1.43372">
        <ele>64</ele>
        <time>2021-12-24T10:42:50Z</time>
      </trkpt>
      <trkpt lat="46.67215" lon="-1.43359">
        <ele>63.8</ele>
        <time>2021-12-24T10:42:52Z</time>
      </trkpt>
      <trkpt lat="46.67215" lon="-1.43348">
        <ele>63.8</ele>
        <time>2021-12-24T10:42:54Z</time>
      </trkpt>
      <trkpt lat="46.67215" lon="-1.43338">
        <ele>63.8</ele>
        <time>2021-12-24T10:42:56Z</time>
      </trkpt>
      <trkpt lat="46.67215" lon="-1.4333">
        <ele>63.6</ele>
        <time>2021-12-24T10:42:58Z</time>
      </trkpt>
      <trkpt lat="46.67214" lon="-1.43326">
        <ele>63.6</ele>
        <time>2021-12-24T10:42:59Z</time>
      </trkpt>
      <trkpt lat="46.67213" lon="-1.43325">
        <ele>63.6</ele>
        <time>2021-12-24T10:43:00Z</time>
      </trkpt>
      <trkpt lat="46.67211" lon="-1.43325">
        <ele>63.6</ele>
        <time>2021-12-24T10:43:01Z</time>
      </trkpt>
      <trkpt lat="46.67209" lon="-1.43325">
        <ele>63.6</ele>
        <time>2021-12-24T10:43:02Z</time>
      </trkpt>
      <trkpt lat="46.67208" lon="-1.43324">
        <ele>63.8</ele>
        <time>2021-12-24T10:43:03Z</time>
      </trkpt>
      <trkpt lat="46.67208" lon="-1.43324">
        <ele>63.6</ele>
        <time>2021-12-24T10:43:04Z</time>
      </trkpt>
      <trkpt lat="46.67208" lon="-1.43324">
        <ele>63.6</ele>
        <time>2021-12-24T10:43:05Z</time>
      </trkpt>
      <trkpt lat="46.67207" lon="-1.43335">
        <ele>68</ele>
        <time>2021-12-24T10:59:25Z</time>
      </trkpt>
      <trkpt lat="46.67207" lon="-1.43338">
        <ele>68</ele>
        <time>2021-12-24T10:59:26Z</time>
      </trkpt>
      <trkpt lat="46.67206" lon="-1.43344">
        <ele>68</ele>
        <time>2021-12-24T10:59:28Z</time>
      </trkpt>
      <trkpt lat="46.67206" lon="-1.43349">
        <ele>67.8</ele>
        <time>2021-12-24T10:59:30Z</time>
      </trkpt>
      <trkpt lat="46.67206" lon="-1.43351">
        <ele>67.8</ele>
        <time>2021-12-24T10:59:31Z</time>
      </trkpt>
      <trkpt lat="46.67206" lon="-1.43352">
        <ele>67.6</ele>
        <time>2021-12-24T10:59:32Z</time>
      </trkpt>
      <trkpt lat="46.67206" lon="-1.43356">
        <ele>67.4</ele>
        <time>2021-12-24T10:59:34Z</time>
      </trkpt>
      <trkpt lat="46.67206" lon="-1.4336">
        <ele>67.4</ele>
        <time>2021-12-24T10:59:35Z</time>
      </trkpt>
      <trkpt lat="46.67206" lon="-1.43365">
        <ele>67.2</ele>
        <time>2021-12-24T10:59:36Z</time>
      </trkpt>
      <trkpt lat="46.67205" lon="-1.43373">
        <ele>67.2</ele>
        <time>2021-12-24T10:59:38Z</time>
      </trkpt>
      <trkpt lat="46.67206" lon="-1.43382">
        <ele>67.2</ele>
        <time>2021-12-24T10:59:40Z</time>
      </trkpt>
      <trkpt lat="46.67205" lon="-1.43388">
        <ele>67.4</ele>
        <time>2021-12-24T10:59:41Z</time>
      </trkpt>
      <trkpt lat="46.67205" lon="-1.43393">
        <ele>68</ele>
        <time>2021-12-24T10:59:42Z</time>
      </trkpt>
      <trkpt lat="46.67205" lon="-1.43403">
        <ele>67.8</ele>
        <time>2021-12-24T10:59:44Z</time>
      </trkpt>
      <trkpt lat="46.67205" lon="-1.43408">
        <ele>68</ele>
        <time>2021-12-24T10:59:45Z</time>
      </trkpt>
      <trkpt lat="46.67205" lon="-1.43413">
        <ele>68.2</ele>
        <time>2021-12-24T10:59:46Z</time>
      </trkpt>
      <trkpt lat="46.67205" lon="-1.43425">
        <ele>68.2</ele>
        <time>2021-12-24T10:59:48Z</time>
      </trkpt>
      <trkpt lat="46.67204" lon="-1.4343">
        <ele>68.4</ele>
        <time>2021-12-24T10:59:49Z</time>
      </trkpt>
      <trkpt lat="46.67203" lon="-1.43436">
        <ele>68.4</ele>
        <time>2021-12-24T10:59:50Z</time>
      </trkpt>
      <trkpt lat="46.67203" lon="-1.43447">
        <ele>68.6</ele>
        <time>2021-12-24T10:59:52Z</time>
      </trkpt>
      <trkpt lat="46.67205" lon="-1.43456">
        <ele>68.8</ele>
        <time>2021-12-24T10:59:54Z</time>
      </trkpt>
      <trkpt lat="46.67205" lon="-1.43462">
        <ele>68.8</ele>
        <time>2021-12-24T10:59:55Z</time>
      </trkpt>
      <trkpt lat="46.67205" lon="-1.43468">
        <ele>68.8</ele>
        <time>2021-12-24T10:59:56Z</time>
      </trkpt>
      <trkpt lat="46.67205" lon="-1.4348">
        <ele>68.6</ele>
        <time>2021-12-24T10:59:58Z</time>
      </trkpt>
      <trkpt lat="46.67204" lon="-1.43489">
        <ele>68.8</ele>
        <time>2021-12-24T11:00:00Z</time>
      </trkpt>
      <trkpt lat="46.67203" lon="-1.43498">
        <ele>68.8</ele>
        <time>2021-12-24T11:00:02Z</time>
      </trkpt>
      <trkpt lat="46.67201" lon="-1.43507">
        <ele>69</ele>
        <time>2021-12-24T11:00:04Z</time>
      </trkpt>
      <trkpt lat="46.67201" lon="-1.43511">
        <ele>69</ele>
        <time>2021-12-24T11:00:05Z</time>
      </trkpt>
      <trkpt lat="46.672" lon="-1.43514">
        <ele>69</ele>
        <time>2021-12-24T11:00:06Z</time>
      </trkpt>
      <trkpt lat="46.67195" lon="-1.43518">
        <ele>69</ele>
        <time>2021-12-24T11:00:08Z</time>
      </trkpt>
      <trkpt lat="46.67191" lon="-1.43523">
        <ele>69.2</ele>
        <time>2021-12-24T11:00:10Z</time>
      </trkpt>
      <trkpt lat="46.67185" lon="-1.43523">
        <ele>69.4</ele>
        <time>2021-12-24T11:00:12Z</time>
      </trkpt>
      <trkpt lat="46.67179" lon="-1.43523">
        <ele>69.4</ele>
        <time>2021-12-24T11:00:14Z</time>
      </trkpt>
      <trkpt lat="46.67174" lon="-1.43523">
        <ele>69.2</ele>
        <time>2021-12-24T11:00:16Z</time>
      </trkpt>
      <trkpt lat="46.67172" lon="-1.43525">
        <ele>69.4</ele>
        <time>2021-12-24T11:00:17Z</time>
      </trkpt>
      <trkpt lat="46.67172" lon="-1.43527">
        <ele>69.2</ele>
        <time>2021-12-24T11:00:18Z</time>
      </trkpt>
      <trkpt lat="46.67171" lon="-1.43528">
        <ele>69.2</ele>
        <time>2021-12-24T11:00:20Z</time>
      </trkpt>
      <trkpt lat="46.67167" lon="-1.43534">
        <ele>71</ele>
        <time>2021-12-24T11:11:06Z</time>
      </trkpt>
      <trkpt lat="46.67163" lon="-1.43535">
        <ele>71</ele>
        <time>2021-12-24T11:11:08Z</time>
      </trkpt>
      <trkpt lat="46.67161" lon="-1.43535">
        <ele>71</ele>
        <time>2021-12-24T11:11:09Z</time>
      </trkpt>
      <trkpt lat="46.6716" lon="-1.43536">
        <ele>70.8</ele>
        <time>2021-12-24T11:11:10Z</time>
      </trkpt>
      <trkpt lat="46.67157" lon="-1.43536">
        <ele>70.6</ele>
        <time>2021-12-24T11:11:12Z</time>
      </trkpt>
      <trkpt lat="46.67156" lon="-1.43539">
        <ele>71</ele>
        <time>2021-12-24T11:11:14Z</time>
      </trkpt>
      <trkpt lat="46.67155" lon="-1.43539">
        <ele>70.6</ele>
        <time>2021-12-24T11:11:15Z</time>
      </trkpt>
      <trkpt lat="46.67155" lon="-1.43539">
        <ele>70.2</ele>
        <time>2021-12-24T11:11:16Z</time>
      </trkpt>
      <trkpt lat="46.67155" lon="-1.43537">
        <ele>70.2</ele>
        <time>2021-12-24T11:11:18Z</time>
      </trkpt>
      <trkpt lat="46.67155" lon="-1.43536">
        <ele>70</ele>
        <time>2021-12-24T11:11:19Z</time>
      </trkpt>
      <trkpt lat="46.67155" lon="-1.43534">
        <ele>69.8</ele>
        <time>2021-12-24T11:11:20Z</time>
      </trkpt>
      <trkpt lat="46.67157" lon="-1.4353">
        <ele>69.4</ele>
        <time>2021-12-24T11:11:22Z</time>
      </trkpt>
      <trkpt lat="46.67158" lon="-1.43523">
        <ele>69.2</ele>
        <time>2021-12-24T11:11:24Z</time>
      </trkpt>
      <trkpt lat="46.67157" lon="-1.43517">
        <ele>68.8</ele>
        <time>2021-12-24T11:11:26Z</time>
      </trkpt>
      <trkpt lat="46.67156" lon="-1.43509">
        <ele>68.4</ele>
        <time>2021-12-24T11:11:28Z</time>
      </trkpt>
      <trkpt lat="46.67156" lon="-1.43505">
        <ele>68.4</ele>
        <time>2021-12-24T11:11:29Z</time>
      </trkpt>
      <trkpt lat="46.67155" lon="-1.435">
        <ele>68.2</ele>
        <time>2021-12-24T11:11:30Z</time>
      </trkpt>
      <trkpt lat="46.67154" lon="-1.43494">
        <ele>68</ele>
        <time>2021-12-24T11:11:32Z</time>
      </trkpt>
      <trkpt lat="46.67152" lon="-1.43493">
        <ele>67.8</ele>
        <time>2021-12-24T11:11:33Z</time>
      </trkpt>
      <trkpt lat="46.67149" lon="-1.43492">
        <ele>67.8</ele>
        <time>2021-12-24T11:11:34Z</time>
      </trkpt>
      <trkpt lat="46.67141" lon="-1.43492">
        <ele>67.8</ele>
        <time>2021-12-24T11:11:36Z</time>
      </trkpt>
      <trkpt lat="46.67132" lon="-1.43491">
        <ele>67.6</ele>
        <time>2021-12-24T11:11:38Z</time>
      </trkpt>
      <trkpt lat="46.67128" lon="-1.43491">
        <ele>67.6</ele>
        <time>2021-12-24T11:11:39Z</time>
      </trkpt>
      <trkpt lat="46.67123" lon="-1.4349">
        <ele>67.6</ele>
        <time>2021-12-24T11:11:40Z</time>
      </trkpt>
      <trkpt lat="46.67113" lon="-1.43489">
        <ele>67.6</ele>
        <time>2021-12-24T11:11:42Z</time>
      </trkpt>
      <trkpt lat="46.67103" lon="-1.43489">
        <ele>67.4</ele>
        <time>2021-12-24T11:11:44Z</time>
      </trkpt>
      <trkpt lat="46.67092" lon="-1.43488">
        <ele>67.4</ele>
        <time>2021-12-24T11:11:46Z</time>
      </trkpt>
      <trkpt lat="46.67082" lon="-1.43487">
        <ele>67.4</ele>
        <time>2021-12-24T11:11:48Z</time>
      </trkpt>
      <trkpt lat="46.67072" lon="-1.43486">
        <ele>67.2</ele>
        <time>2021-12-24T11:11:50Z</time>
      </trkpt>
      <trkpt lat="46.67062" lon="-1.43485">
        <ele>67.2</ele>
        <time>2021-12-24T11:11:52Z</time>
      </trkpt>
      <trkpt lat="46.67051" lon="-1.43484">
        <ele>67.2</ele>
        <time>2021-12-24T11:11:54Z</time>
      </trkpt>
      <trkpt lat="46.6704" lon="-1.43483">
        <ele>67</ele>
        <time>2021-12-24T11:11:56Z</time>
      </trkpt>
      <trkpt lat="46.67029" lon="-1.43483">
        <ele>67</ele>
        <time>2021-12-24T11:11:58Z</time>
      </trkpt>
      <trkpt lat="46.67023" lon="-1.43482">
        <ele>66.8</ele>
        <time>2021-12-24T11:11:59Z</time>
      </trkpt>
      <trkpt lat="46.67018" lon="-1.43481">
        <ele>66.8</ele>
        <time>2021-12-24T11:12:00Z</time>
      </trkpt>
      <trkpt lat="46.67006" lon="-1.43481">
        <ele>66.6</ele>
        <time>2021-12-24T11:12:02Z</time>
      </trkpt>
      <trkpt lat="46.66995" lon="-1.43479">
        <ele>66.4</ele>
        <time>2021-12-24T11:12:04Z</time>
      </trkpt>
      <trkpt lat="46.66984" lon="-1.43478">
        <ele>66.4</ele>
        <time>2021-12-24T11:12:06Z</time>
      </trkpt>
      <trkpt lat="46.66972" lon="-1.43477">
        <ele>66.4</ele>
        <time>2021-12-24T11:12:08Z</time>
      </trkpt>
      <trkpt lat="46.66961" lon="-1.43476">
        <ele>66.2</ele>
        <time>2021-12-24T11:12:10Z</time>
      </trkpt>
      <trkpt lat="46.66949" lon="-1.43475">
        <ele>66.2</ele>
        <time>2021-12-24T11:12:12Z</time>
      </trkpt>
      <trkpt lat="46.66937" lon="-1.43474">
        <ele>66</ele>
        <time>2021-12-24T11:12:14Z</time>
      </trkpt>
      <trkpt lat="46.66926" lon="-1.43474">
        <ele>66.2</ele>
        <time>2021-12-24T11:12:16Z</time>
      </trkpt>
      <trkpt lat="46.66914" lon="-1.43472">
        <ele>66.2</ele>
        <time>2021-12-24T11:12:18Z</time>
      </trkpt>
      <trkpt lat="46.66904" lon="-1.43471">
        <ele>65.8</ele>
        <time>2021-12-24T11:12:20Z</time>
      </trkpt>
      <trkpt lat="46.66899" lon="-1.43471">
        <ele>65.8</ele>
        <time>2021-12-24T11:12:21Z</time>
      </trkpt>
      <trkpt lat="46.66894" lon="-1.4347">
        <ele>65.8</ele>
        <time>2021-12-24T11:12:22Z</time>
      </trkpt>
      <trkpt lat="46.66886" lon="-1.43469">
        <ele>65.8</ele>
        <time>2021-12-24T11:12:24Z</time>
      </trkpt>
      <trkpt lat="46.66882" lon="-1.43469">
        <ele>65.8</ele>
        <time>2021-12-24T11:12:25Z</time>
      </trkpt>
      <trkpt lat="46.66879" lon="-1.43469">
        <ele>65.8</ele>
        <time>2021-12-24T11:12:26Z</time>
      </trkpt>
      <trkpt lat="46.66876" lon="-1.43471">
        <ele>65.8</ele>
        <time>2021-12-24T11:12:27Z</time>
      </trkpt>
      <trkpt lat="46.66874" lon="-1.43475">
        <ele>65.8</ele>
        <time>2021-12-24T11:12:28Z</time>
      </trkpt>
      <trkpt lat="46.66871" lon="-1.4348">
        <ele>65.8</ele>
        <time>2021-12-24T11:12:29Z</time>
      </trkpt>
      <trkpt lat="46.66869" lon="-1.43486">
        <ele>65.8</ele>
        <time>2021-12-24T11:12:30Z</time>
      </trkpt>
      <trkpt lat="46.66866" lon="-1.435">
        <ele>65.6</ele>
        <time>2021-12-24T11:12:32Z</time>
      </trkpt>
      <trkpt lat="46.66865" lon="-1.43507">
        <ele>65.8</ele>
        <time>2021-12-24T11:12:33Z</time>
      </trkpt>
      <trkpt lat="46.66863" lon="-1.43514">
        <ele>65.8</ele>
        <time>2021-12-24T11:12:34Z</time>
      </trkpt>
      <trkpt lat="46.66858" lon="-1.43529">
        <ele>66</ele>
        <time>2021-12-24T11:12:36Z</time>
      </trkpt>
      <trkpt lat="46.66854" lon="-1.43545">
        <ele>66</ele>
        <time>2021-12-24T11:12:38Z</time>
      </trkpt>
      <trkpt lat="46.66852" lon="-1.43552">
        <ele>66</ele>
        <time>2021-12-24T11:12:39Z</time>
      </trkpt>
      <trkpt lat="46.66849" lon="-1.4356">
        <ele>66</ele>
        <time>2021-12-24T11:12:40Z</time>
      </trkpt>
      <trkpt lat="46.66845" lon="-1.43574">
        <ele>65.6</ele>
        <time>2021-12-24T11:12:42Z</time>
      </trkpt>
      <trkpt lat="46.66848" lon="-1.43589">
        <ele>65.4</ele>
        <time>2021-12-24T11:12:44Z</time>
      </trkpt>
      <trkpt lat="46.66848" lon="-1.43595">
        <ele>65.4</ele>
        <time>2021-12-24T11:12:45Z</time>
      </trkpt>
      <trkpt lat="46.66846" lon="-1.43601">
        <ele>65.4</ele>
        <time>2021-12-24T11:12:46Z</time>
      </trkpt>
      <trkpt lat="46.66839" lon="-1.43612">
        <ele>65.2</ele>
        <time>2021-12-24T11:12:48Z</time>
      </trkpt>
      <trkpt lat="46.66833" lon="-1.43627">
        <ele>65.4</ele>
        <time>2021-12-24T11:12:50Z</time>
      </trkpt>
      <trkpt lat="46.66829" lon="-1.43643">
        <ele>65.6</ele>
        <time>2021-12-24T11:12:52Z</time>
      </trkpt>
      <trkpt lat="46.66825" lon="-1.43658">
        <ele>66</ele>
        <time>2021-12-24T11:12:54Z</time>
      </trkpt>
      <trkpt lat="46.6682" lon="-1.43675">
        <ele>66.2</ele>
        <time>2021-12-24T11:12:56Z</time>
      </trkpt>
      <trkpt lat="46.66815" lon="-1.43693">
        <ele>66.4</ele>
        <time>2021-12-24T11:12:58Z</time>
      </trkpt>
      <trkpt lat="46.66811" lon="-1.43711">
        <ele>66.4</ele>
        <time>2021-12-24T11:13:00Z</time>
      </trkpt>
      <trkpt lat="46.66809" lon="-1.4372">
        <ele>66.4</ele>
        <time>2021-12-24T11:13:01Z</time>
      </trkpt>
      <trkpt lat="46.66807" lon="-1.43729">
        <ele>66.6</ele>
        <time>2021-12-24T11:13:02Z</time>
      </trkpt>
      <trkpt lat="46.66802" lon="-1.43746">
        <ele>66.6</ele>
        <time>2021-12-24T11:13:04Z</time>
      </trkpt>
      <trkpt lat="46.66798" lon="-1.43763">
        <ele>66.8</ele>
        <time>2021-12-24T11:13:06Z</time>
      </trkpt>
      <trkpt lat="46.66796" lon="-1.43771">
        <ele>66.8</ele>
        <time>2021-12-24T11:13:07Z</time>
      </trkpt>
      <trkpt lat="46.66794" lon="-1.43779">
        <ele>66.8</ele>
        <time>2021-12-24T11:13:08Z</time>
      </trkpt>
      <trkpt lat="46.66791" lon="-1.43786">
        <ele>67</ele>
        <time>2021-12-24T11:13:09Z</time>
      </trkpt>
      <trkpt lat="46.66787" lon="-1.43789">
        <ele>67</ele>
        <time>2021-12-24T11:13:10Z</time>
      </trkpt>
      <trkpt lat="46.66778" lon="-1.43783">
        <ele>66.8</ele>
        <time>2021-12-24T11:13:12Z</time>
      </trkpt>
      <trkpt lat="46.66774" lon="-1.43771">
        <ele>66.8</ele>
        <time>2021-12-24T11:13:14Z</time>
      </trkpt>
      <trkpt lat="46.66769" lon="-1.43758">
        <ele>66.8</ele>
        <time>2021-12-24T11:13:16Z</time>
      </trkpt>
      <trkpt lat="46.66766" lon="-1.43752">
        <ele>66.8</ele>
        <time>2021-12-24T11:13:17Z</time>
      </trkpt>
      <trkpt lat="46.66763" lon="-1.43747">
        <ele>66.8</ele>
        <time>2021-12-24T11:13:18Z</time>
      </trkpt>
      <trkpt lat="46.66758" lon="-1.43735">
        <ele>67</ele>
        <time>2021-12-24T11:13:20Z</time>
      </trkpt>
      <trkpt lat="46.66754" lon="-1.43723">
        <ele>67</ele>
        <time>2021-12-24T11:13:22Z</time>
      </trkpt>
      <trkpt lat="46.66751" lon="-1.43718">
        <ele>67</ele>
        <time>2021-12-24T11:13:23Z</time>
      </trkpt>
      <trkpt lat="46.66746" lon="-1.43716">
        <ele>67</ele>
        <time>2021-12-24T11:13:24Z</time>
      </trkpt>
      <trkpt lat="46.66742" lon="-1.43717">
        <ele>67</ele>
        <time>2021-12-24T11:13:25Z</time>
      </trkpt>
      <trkpt lat="46.66737" lon="-1.4372">
        <ele>67</ele>
        <time>2021-12-24T11:13:26Z</time>
      </trkpt>
      <trkpt lat="46.66727" lon="-1.43726">
        <ele>67.2</ele>
        <time>2021-12-24T11:13:28Z</time>
      </trkpt>
      <trkpt lat="46.66718" lon="-1.43732">
        <ele>67.2</ele>
        <time>2021-12-24T11:13:30Z</time>
      </trkpt>
      <trkpt lat="46.66709" lon="-1.43739">
        <ele>67.4</ele>
        <time>2021-12-24T11:13:32Z</time>
      </trkpt>
      <trkpt lat="46.66699" lon="-1.43746">
        <ele>67.6</ele>
        <time>2021-12-24T11:13:34Z</time>
      </trkpt>
      <trkpt lat="46.66689" lon="-1.43752">
        <ele>67.4</ele>
        <time>2021-12-24T11:13:36Z</time>
      </trkpt>
      <trkpt lat="46.66683" lon="-1.43755">
        <ele>67.6</ele>
        <time>2021-12-24T11:13:37Z</time>
      </trkpt>
      <trkpt lat="46.66678" lon="-1.43758">
        <ele>67.6</ele>
        <time>2021-12-24T11:13:38Z</time>
      </trkpt>
      <trkpt lat="46.66667" lon="-1.43765">
        <ele>67.6</ele>
        <time>2021-12-24T11:13:40Z</time>
      </trkpt>
      <trkpt lat="46.66656" lon="-1.43771">
        <ele>67.6</ele>
        <time>2021-12-24T11:13:42Z</time>
      </trkpt>
      <trkpt lat="46.66644" lon="-1.43777">
        <ele>67.8</ele>
        <time>2021-12-24T11:13:44Z</time>
      </trkpt>
      <trkpt lat="46.66639" lon="-1.4378">
        <ele>67.8</ele>
        <time>2021-12-24T11:13:45Z</time>
      </trkpt>
      <trkpt lat="46.66633" lon="-1.43782">
        <ele>67.8</ele>
        <time>2021-12-24T11:13:46Z</time>
      </trkpt>
      <trkpt lat="46.66622" lon="-1.43787">
        <ele>67.8</ele>
        <time>2021-12-24T11:13:48Z</time>
      </trkpt>
      <trkpt lat="46.6661" lon="-1.43793">
        <ele>67.6</ele>
        <time>2021-12-24T11:13:50Z</time>
      </trkpt>
      <trkpt lat="46.666" lon="-1.438">
        <ele>67.6</ele>
        <time>2021-12-24T11:13:52Z</time>
      </trkpt>
      <trkpt lat="46.66589" lon="-1.43806">
        <ele>67.6</ele>
        <time>2021-12-24T11:13:54Z</time>
      </trkpt>
      <trkpt lat="46.66579" lon="-1.43811">
        <ele>67.8</ele>
        <time>2021-12-24T11:13:56Z</time>
      </trkpt>
      <trkpt lat="46.66568" lon="-1.43815">
        <ele>68</ele>
        <time>2021-12-24T11:13:58Z</time>
      </trkpt>
      <trkpt lat="46.66557" lon="-1.43821">
        <ele>67.6</ele>
        <time>2021-12-24T11:14:00Z</time>
      </trkpt>
      <trkpt lat="46.66546" lon="-1.4383">
        <ele>67.4</ele>
        <time>2021-12-24T11:14:02Z</time>
      </trkpt>
      <trkpt lat="46.66541" lon="-1.43835">
        <ele>67.4</ele>
        <time>2021-12-24T11:14:03Z</time>
      </trkpt>
      <trkpt lat="46.66536" lon="-1.4384">
        <ele>67.4</ele>
        <time>2021-12-24T11:14:04Z</time>
      </trkpt>
      <trkpt lat="46.66527" lon="-1.43849">
        <ele>67.4</ele>
        <time>2021-12-24T11:14:06Z</time>
      </trkpt>
      <trkpt lat="46.66518" lon="-1.43857">
        <ele>67.4</ele>
        <time>2021-12-24T11:14:08Z</time>
      </trkpt>
      <trkpt lat="46.66514" lon="-1.4386">
        <ele>67.2</ele>
        <time>2021-12-24T11:14:09Z</time>
      </trkpt>
      <trkpt lat="46.6651" lon="-1.43863">
        <ele>67.2</ele>
        <time>2021-12-24T11:14:10Z</time>
      </trkpt>
      <trkpt lat="46.66503" lon="-1.4387">
        <ele>67.2</ele>
        <time>2021-12-24T11:14:12Z</time>
      </trkpt>
      <trkpt lat="46.66495" lon="-1.43876">
        <ele>67.2</ele>
        <time>2021-12-24T11:14:14Z</time>
      </trkpt>
      <trkpt lat="46.66491" lon="-1.4388">
        <ele>67.2</ele>
        <time>2021-12-24T11:14:15Z</time>
      </trkpt>
      <trkpt lat="46.66487" lon="-1.43883">
        <ele>67.2</ele>
        <time>2021-12-24T11:14:16Z</time>
      </trkpt>
      <trkpt lat="46.66479" lon="-1.43889">
        <ele>67.2</ele>
        <time>2021-12-24T11:14:18Z</time>
      </trkpt>
      <trkpt lat="46.66472" lon="-1.43896">
        <ele>67.2</ele>
        <time>2021-12-24T11:14:20Z</time>
      </trkpt>
      <trkpt lat="46.66466" lon="-1.43901">
        <ele>67</ele>
        <time>2021-12-24T11:14:22Z</time>
      </trkpt>
      <trkpt lat="46.6646" lon="-1.43906">
        <ele>66.8</ele>
        <time>2021-12-24T11:14:24Z</time>
      </trkpt>
      <trkpt lat="46.66454" lon="-1.43911">
        <ele>66.6</ele>
        <time>2021-12-24T11:14:26Z</time>
      </trkpt>
      <trkpt lat="46.66447" lon="-1.43916">
        <ele>66.6</ele>
        <time>2021-12-24T11:14:28Z</time>
      </trkpt>
      <trkpt lat="46.66441" lon="-1.43921">
        <ele>66.4</ele>
        <time>2021-12-24T11:14:30Z</time>
      </trkpt>
      <trkpt lat="46.66435" lon="-1.43927">
        <ele>66.6</ele>
        <time>2021-12-24T11:14:32Z</time>
      </trkpt>
      <trkpt lat="46.66429" lon="-1.43932">
        <ele>66.6</ele>
        <time>2021-12-24T11:14:34Z</time>
      </trkpt>
      <trkpt lat="46.66422" lon="-1.43939">
        <ele>66.6</ele>
        <time>2021-12-24T11:14:36Z</time>
      </trkpt>
      <trkpt lat="46.66419" lon="-1.43942">
        <ele>66.8</ele>
        <time>2021-12-24T11:14:37Z</time>
      </trkpt>
      <trkpt lat="46.66415" lon="-1.43946">
        <ele>66.4</ele>
        <time>2021-12-24T11:14:38Z</time>
      </trkpt>
      <trkpt lat="46.66407" lon="-1.43952">
        <ele>66.6</ele>
        <time>2021-12-24T11:14:40Z</time>
      </trkpt>
      <trkpt lat="46.66399" lon="-1.43958">
        <ele>66.6</ele>
        <time>2021-12-24T11:14:42Z</time>
      </trkpt>
      <trkpt lat="46.66391" lon="-1.43966">
        <ele>67</ele>
        <time>2021-12-24T11:14:44Z</time>
      </trkpt>
      <trkpt lat="46.66387" lon="-1.4397">
        <ele>66.8</ele>
        <time>2021-12-24T11:14:45Z</time>
      </trkpt>
      <trkpt lat="46.66382" lon="-1.43974">
        <ele>66.6</ele>
        <time>2021-12-24T11:14:46Z</time>
      </trkpt>
      <trkpt lat="46.66377" lon="-1.43978">
        <ele>66.4</ele>
        <time>2021-12-24T11:14:47Z</time>
      </trkpt>
      <trkpt lat="46.66374" lon="-1.43985">
        <ele>66.4</ele>
        <time>2021-12-24T11:14:48Z</time>
      </trkpt>
      <trkpt lat="46.66371" lon="-1.43992">
        <ele>66.4</ele>
        <time>2021-12-24T11:14:49Z</time>
      </trkpt>
      <trkpt lat="46.66369" lon="-1.44">
        <ele>66.4</ele>
        <time>2021-12-24T11:14:50Z</time>
      </trkpt>
      <trkpt lat="46.66366" lon="-1.44017">
        <ele>66.2</ele>
        <time>2021-12-24T11:14:52Z</time>
      </trkpt>
      <trkpt lat="46.66362" lon="-1.44033">
        <ele>66.4</ele>
        <time>2021-12-24T11:14:54Z</time>
      </trkpt>
      <trkpt lat="46.66359" lon="-1.44048">
        <ele>66.4</ele>
        <time>2021-12-24T11:14:56Z</time>
      </trkpt>
      <trkpt lat="46.66355" lon="-1.44063">
        <ele>66.6</ele>
        <time>2021-12-24T11:14:58Z</time>
      </trkpt>
      <trkpt lat="46.66352" lon="-1.44078">
        <ele>66.8</ele>
        <time>2021-12-24T11:15:00Z</time>
      </trkpt>
      <trkpt lat="46.66348" lon="-1.44093">
        <ele>66.8</ele>
        <time>2021-12-24T11:15:02Z</time>
      </trkpt>
      <trkpt lat="46.66345" lon="-1.44108">
        <ele>66.8</ele>
        <time>2021-12-24T11:15:04Z</time>
      </trkpt>
      <trkpt lat="46.66342" lon="-1.44122">
        <ele>67</ele>
        <time>2021-12-24T11:15:06Z</time>
      </trkpt>
      <trkpt lat="46.66339" lon="-1.44138">
        <ele>67</ele>
        <time>2021-12-24T11:15:08Z</time>
      </trkpt>
      <trkpt lat="46.66335" lon="-1.44154">
        <ele>67</ele>
        <time>2021-12-24T11:15:10Z</time>
      </trkpt>
      <trkpt lat="46.66332" lon="-1.4417">
        <ele>67.2</ele>
        <time>2021-12-24T11:15:12Z</time>
      </trkpt>
      <trkpt lat="46.66328" lon="-1.44186">
        <ele>67.2</ele>
        <time>2021-12-24T11:15:14Z</time>
      </trkpt>
      <trkpt lat="46.66325" lon="-1.44203">
        <ele>67.2</ele>
        <time>2021-12-24T11:15:16Z</time>
      </trkpt>
      <trkpt lat="46.66321" lon="-1.4422">
        <ele>67.2</ele>
        <time>2021-12-24T11:15:18Z</time>
      </trkpt>
      <trkpt lat="46.66319" lon="-1.44228">
        <ele>67.2</ele>
        <time>2021-12-24T11:15:19Z</time>
      </trkpt>
      <trkpt lat="46.66317" lon="-1.44237">
        <ele>67.2</ele>
        <time>2021-12-24T11:15:20Z</time>
      </trkpt>
      <trkpt lat="46.66313" lon="-1.44254">
        <ele>67.2</ele>
        <time>2021-12-24T11:15:22Z</time>
      </trkpt>
      <trkpt lat="46.66309" lon="-1.44272">
        <ele>67.2</ele>
        <time>2021-12-24T11:15:24Z</time>
      </trkpt>
      <trkpt lat="46.66306" lon="-1.4429">
        <ele>67.2</ele>
        <time>2021-12-24T11:15:26Z</time>
      </trkpt>
      <trkpt lat="46.66302" lon="-1.44306">
        <ele>67.2</ele>
        <time>2021-12-24T11:15:28Z</time>
      </trkpt>
      <trkpt lat="46.66301" lon="-1.44314">
        <ele>67.2</ele>
        <time>2021-12-24T11:15:29Z</time>
      </trkpt>
      <trkpt lat="46.66302" lon="-1.44322">
        <ele>67.2</ele>
        <time>2021-12-24T11:15:30Z</time>
      </trkpt>
      <trkpt lat="46.66304" lon="-1.4433">
        <ele>67.2</ele>
        <time>2021-12-24T11:15:31Z</time>
      </trkpt>
      <trkpt lat="46.66306" lon="-1.44337">
        <ele>67.4</ele>
        <time>2021-12-24T11:15:32Z</time>
      </trkpt>
      <trkpt lat="46.66307" lon="-1.44344">
        <ele>67.4</ele>
        <time>2021-12-24T11:15:33Z</time>
      </trkpt>
      <trkpt lat="46.66306" lon="-1.44351">
        <ele>67.2</ele>
        <time>2021-12-24T11:15:34Z</time>
      </trkpt>
      <trkpt lat="46.66304" lon="-1.44357">
        <ele>67.2</ele>
        <time>2021-12-24T11:15:35Z</time>
      </trkpt>
      <trkpt lat="46.663" lon="-1.44361">
        <ele>67.2</ele>
        <time>2021-12-24T11:15:36Z</time>
      </trkpt>
      <trkpt lat="46.66295" lon="-1.44362">
        <ele>67.2</ele>
        <time>2021-12-24T11:15:37Z</time>
      </trkpt>
      <trkpt lat="46.6629" lon="-1.44359">
        <ele>67.2</ele>
        <time>2021-12-24T11:15:38Z</time>
      </trkpt>
      <trkpt lat="46.66286" lon="-1.44353">
        <ele>67.4</ele>
        <time>2021-12-24T11:15:39Z</time>
      </trkpt>
      <trkpt lat="46.66283" lon="-1.44345">
        <ele>67.2</ele>
        <time>2021-12-24T11:15:40Z</time>
      </trkpt>
      <trkpt lat="46.6628" lon="-1.44338">
        <ele>67.2</ele>
        <time>2021-12-24T11:15:41Z</time>
      </trkpt>
      <trkpt lat="46.66275" lon="-1.44331">
        <ele>67.4</ele>
        <time>2021-12-24T11:15:42Z</time>
      </trkpt>
      <trkpt lat="46.6627" lon="-1.44326">
        <ele>67.2</ele>
        <time>2021-12-24T11:15:43Z</time>
      </trkpt>
      <trkpt lat="46.66265" lon="-1.44322">
        <ele>67.4</ele>
        <time>2021-12-24T11:15:44Z</time>
      </trkpt>
      <trkpt lat="46.66259" lon="-1.44319">
        <ele>67.2</ele>
        <time>2021-12-24T11:15:45Z</time>
      </trkpt>
      <trkpt lat="46.66254" lon="-1.44315">
        <ele>67.2</ele>
        <time>2021-12-24T11:15:46Z</time>
      </trkpt>
      <trkpt lat="46.66243" lon="-1.44308">
        <ele>67.2</ele>
        <time>2021-12-24T11:15:48Z</time>
      </trkpt>
      <trkpt lat="46.66233" lon="-1.44301">
        <ele>67.2</ele>
        <time>2021-12-24T11:15:50Z</time>
      </trkpt>
      <trkpt lat="46.66222" lon="-1.44293">
        <ele>67.2</ele>
        <time>2021-12-24T11:15:52Z</time>
      </trkpt>
      <trkpt lat="46.66217" lon="-1.44288">
        <ele>67.2</ele>
        <time>2021-12-24T11:15:53Z</time>
      </trkpt>
      <trkpt lat="46.66213" lon="-1.44284">
        <ele>67</ele>
        <time>2021-12-24T11:15:54Z</time>
      </trkpt>
      <trkpt lat="46.66203" lon="-1.44277">
        <ele>67.2</ele>
        <time>2021-12-24T11:15:56Z</time>
      </trkpt>
      <trkpt lat="46.66192" lon="-1.4427">
        <ele>67.2</ele>
        <time>2021-12-24T11:15:58Z</time>
      </trkpt>
      <trkpt lat="46.66182" lon="-1.44262">
        <ele>67.2</ele>
        <time>2021-12-24T11:16:00Z</time>
      </trkpt>
      <trkpt lat="46.6617" lon="-1.44253">
        <ele>67.2</ele>
        <time>2021-12-24T11:16:02Z</time>
      </trkpt>
      <trkpt lat="46.66158" lon="-1.44245">
        <ele>67.2</ele>
        <time>2021-12-24T11:16:04Z</time>
      </trkpt>
      <trkpt lat="46.66146" lon="-1.44236">
        <ele>67.2</ele>
        <time>2021-12-24T11:16:06Z</time>
      </trkpt>
      <trkpt lat="46.66139" lon="-1.44232">
        <ele>67.2</ele>
        <time>2021-12-24T11:16:07Z</time>
      </trkpt>
      <trkpt lat="46.66133" lon="-1.44228">
        <ele>67</ele>
        <time>2021-12-24T11:16:08Z</time>
      </trkpt>
      <trkpt lat="46.66119" lon="-1.44219">
        <ele>67</ele>
        <time>2021-12-24T11:16:10Z</time>
      </trkpt>
      <trkpt lat="46.66106" lon="-1.4421">
        <ele>67</ele>
        <time>2021-12-24T11:16:12Z</time>
      </trkpt>
      <trkpt lat="46.66093" lon="-1.44201">
        <ele>66.6</ele>
        <time>2021-12-24T11:16:14Z</time>
      </trkpt>
      <trkpt lat="46.66086" lon="-1.44197">
        <ele>66.6</ele>
        <time>2021-12-24T11:16:15Z</time>
      </trkpt>
      <trkpt lat="46.6608" lon="-1.44191">
        <ele>66.4</ele>
        <time>2021-12-24T11:16:16Z</time>
      </trkpt>
      <trkpt lat="46.66067" lon="-1.44181">
        <ele>66</ele>
        <time>2021-12-24T11:16:18Z</time>
      </trkpt>
      <trkpt lat="46.66054" lon="-1.4417">
        <ele>65.8</ele>
        <time>2021-12-24T11:16:20Z</time>
      </trkpt>
      <trkpt lat="46.66042" lon="-1.4416">
        <ele>65.6</ele>
        <time>2021-12-24T11:16:22Z</time>
      </trkpt>
      <trkpt lat="46.66036" lon="-1.44154">
        <ele>65.4</ele>
        <time>2021-12-24T11:16:23Z</time>
      </trkpt>
      <trkpt lat="46.6603" lon="-1.44148">
        <ele>65.2</ele>
        <time>2021-12-24T11:16:24Z</time>
      </trkpt>
      <trkpt lat="46.66018" lon="-1.44137">
        <ele>65</ele>
        <time>2021-12-24T11:16:26Z</time>
      </trkpt>
      <trkpt lat="46.66006" lon="-1.44125">
        <ele>64.8</ele>
        <time>2021-12-24T11:16:28Z</time>
      </trkpt>
      <trkpt lat="46.65995" lon="-1.44112">
        <ele>64.6</ele>
        <time>2021-12-24T11:16:30Z</time>
      </trkpt>
      <trkpt lat="46.6599" lon="-1.44106">
        <ele>64.4</ele>
        <time>2021-12-24T11:16:31Z</time>
      </trkpt>
      <trkpt lat="46.65986" lon="-1.44103">
        <ele>64.2</ele>
        <time>2021-12-24T11:16:32Z</time>
      </trkpt>
      <trkpt lat="46.65977" lon="-1.44101">
        <ele>64.2</ele>
        <time>2021-12-24T11:16:34Z</time>
      </trkpt>
      <trkpt lat="46.6597" lon="-1.44095">
        <ele>63.8</ele>
        <time>2021-12-24T11:16:36Z</time>
      </trkpt>
      <trkpt lat="46.65967" lon="-1.44091">
        <ele>63.4</ele>
        <time>2021-12-24T11:16:38Z</time>
      </trkpt>
      <trkpt lat="46.65965" lon="-1.44087">
        <ele>63.2</ele>
        <time>2021-12-24T11:16:40Z</time>
      </trkpt>
      <trkpt lat="46.65965" lon="-1.44084">
        <ele>63</ele>
        <time>2021-12-24T11:16:42Z</time>
      </trkpt>
      <trkpt lat="46.65965" lon="-1.44084">
        <ele>63</ele>
        <time>2021-12-24T11:16:43Z</time>
      </trkpt>
      <trkpt lat="46.65965" lon="-1.44076">
        <ele>61.2</ele>
        <time>2021-12-24T11:17:03Z</time>
      </trkpt>
      <trkpt lat="46.65965" lon="-1.44072">
        <ele>61</ele>
        <time>2021-12-24T11:17:04Z</time>
      </trkpt>
      <trkpt lat="46.65962" lon="-1.44062">
        <ele>60.8</ele>
        <time>2021-12-24T11:17:06Z</time>
      </trkpt>
      <trkpt lat="46.65958" lon="-1.44053">
        <ele>60.6</ele>
        <time>2021-12-24T11:17:08Z</time>
      </trkpt>
      <trkpt lat="46.65957" lon="-1.4405">
        <ele>60.2</ele>
        <time>2021-12-24T11:17:10Z</time>
      </trkpt>
      <trkpt lat="46.65956" lon="-1.44047">
        <ele>60.2</ele>
        <time>2021-12-24T11:17:12Z</time>
      </trkpt>
      <trkpt lat="46.65953" lon="-1.4404">
        <ele>60</ele>
        <time>2021-12-24T11:17:14Z</time>
      </trkpt>
      <trkpt lat="46.65951" lon="-1.44037">
        <ele>60</ele>
        <time>2021-12-24T11:17:15Z</time>
      </trkpt>
      <trkpt lat="46.65948" lon="-1.44035">
        <ele>60</ele>
        <time>2021-12-24T11:17:16Z</time>
      </trkpt>
      <trkpt lat="46.65944" lon="-1.44035">
        <ele>59.8</ele>
        <time>2021-12-24T11:17:17Z</time>
      </trkpt>
      <trkpt lat="46.65941" lon="-1.44036">
        <ele>59.8</ele>
        <time>2021-12-24T11:17:18Z</time>
      </trkpt>
      <trkpt lat="46.65933" lon="-1.44044">
        <ele>59.6</ele>
        <time>2021-12-24T11:17:20Z</time>
      </trkpt>
      <trkpt lat="46.65923" lon="-1.44052">
        <ele>59.4</ele>
        <time>2021-12-24T11:17:22Z</time>
      </trkpt>
      <trkpt lat="46.6591" lon="-1.44061">
        <ele>59.4</ele>
        <time>2021-12-24T11:17:24Z</time>
      </trkpt>
      <trkpt lat="46.65904" lon="-1.44064">
        <ele>59.4</ele>
        <time>2021-12-24T11:17:25Z</time>
      </trkpt>
      <trkpt lat="46.65898" lon="-1.44068">
        <ele>59.4</ele>
        <time>2021-12-24T11:17:26Z</time>
      </trkpt>
      <trkpt lat="46.65887" lon="-1.44075">
        <ele>59.2</ele>
        <time>2021-12-24T11:17:28Z</time>
      </trkpt>
      <trkpt lat="46.65878" lon="-1.44081">
        <ele>59.2</ele>
        <time>2021-12-24T11:17:30Z</time>
      </trkpt>
      <trkpt lat="46.65868" lon="-1.44079">
        <ele>59</ele>
        <time>2021-12-24T11:17:32Z</time>
      </trkpt>
      <trkpt lat="46.65863" lon="-1.44077">
        <ele>58.8</ele>
        <time>2021-12-24T11:17:33Z</time>
      </trkpt>
      <trkpt lat="46.65857" lon="-1.44075">
        <ele>58.8</ele>
        <time>2021-12-24T11:17:34Z</time>
      </trkpt>
      <trkpt lat="46.65846" lon="-1.4407">
        <ele>58.6</ele>
        <time>2021-12-24T11:17:36Z</time>
      </trkpt>
      <trkpt lat="46.65835" lon="-1.44064">
        <ele>58.2</ele>
        <time>2021-12-24T11:17:38Z</time>
      </trkpt>
      <trkpt lat="46.65829" lon="-1.44062">
        <ele>58.2</ele>
        <time>2021-12-24T11:17:39Z</time>
      </trkpt>
      <trkpt lat="46.65824" lon="-1.44061">
        <ele>58</ele>
        <time>2021-12-24T11:17:40Z</time>
      </trkpt>
      <trkpt lat="46.65818" lon="-1.44059">
        <ele>58</ele>
        <time>2021-12-24T11:17:41Z</time>
      </trkpt>
      <trkpt lat="46.65813" lon="-1.44057">
        <ele>57.8</ele>
        <time>2021-12-24T11:17:42Z</time>
      </trkpt>
      <trkpt lat="46.65807" lon="-1.44055">
        <ele>57.8</ele>
        <time>2021-12-24T11:17:43Z</time>
      </trkpt>
      <trkpt lat="46.65801" lon="-1.44054">
        <ele>57.6</ele>
        <time>2021-12-24T11:17:44Z</time>
      </trkpt>
      <trkpt lat="46.65794" lon="-1.44053">
        <ele>57.6</ele>
        <time>2021-12-24T11:17:45Z</time>
      </trkpt>
      <trkpt lat="46.65787" lon="-1.44051">
        <ele>57.6</ele>
        <time>2021-12-24T11:17:46Z</time>
      </trkpt>
      <trkpt lat="46.65774" lon="-1.44046">
        <ele>57.4</ele>
        <time>2021-12-24T11:17:48Z</time>
      </trkpt>
      <trkpt lat="46.65762" lon="-1.4404">
        <ele>57.2</ele>
        <time>2021-12-24T11:17:50Z</time>
      </trkpt>
      <trkpt lat="46.65756" lon="-1.44037">
        <ele>57.2</ele>
        <time>2021-12-24T11:17:51Z</time>
      </trkpt>
      <trkpt lat="46.6575" lon="-1.44034">
        <ele>57</ele>
        <time>2021-12-24T11:17:52Z</time>
      </trkpt>
      <trkpt lat="46.65737" lon="-1.44029">
        <ele>57</ele>
        <time>2021-12-24T11:17:54Z</time>
      </trkpt>
      <trkpt lat="46.65723" lon="-1.44023">
        <ele>56.8</ele>
        <time>2021-12-24T11:17:56Z</time>
      </trkpt>
      <trkpt lat="46.6571" lon="-1.44016">
        <ele>56.6</ele>
        <time>2021-12-24T11:17:58Z</time>
      </trkpt>
      <trkpt lat="46.65695" lon="-1.4401">
        <ele>56.6</ele>
        <time>2021-12-24T11:18:00Z</time>
      </trkpt>
      <trkpt lat="46.65682" lon="-1.44005">
        <ele>56.4</ele>
        <time>2021-12-24T11:18:02Z</time>
      </trkpt>
      <trkpt lat="46.65669" lon="-1.43999">
        <ele>56.4</ele>
        <time>2021-12-24T11:18:04Z</time>
      </trkpt>
      <trkpt lat="46.65656" lon="-1.43994">
        <ele>56.4</ele>
        <time>2021-12-24T11:18:06Z</time>
      </trkpt>
      <trkpt lat="46.65643" lon="-1.43988">
        <ele>56.4</ele>
        <time>2021-12-24T11:18:08Z</time>
      </trkpt>
      <trkpt lat="46.65637" lon="-1.43986">
        <ele>56.4</ele>
        <time>2021-12-24T11:18:09Z</time>
      </trkpt>
      <trkpt lat="46.65631" lon="-1.43983">
        <ele>56.4</ele>
        <time>2021-12-24T11:18:10Z</time>
      </trkpt>
      <trkpt lat="46.65619" lon="-1.43978">
        <ele>56.4</ele>
        <time>2021-12-24T11:18:12Z</time>
      </trkpt>
      <trkpt lat="46.65607" lon="-1.43973">
        <ele>56.4</ele>
        <time>2021-12-24T11:18:14Z</time>
      </trkpt>
      <trkpt lat="46.65595" lon="-1.43968">
        <ele>56.4</ele>
        <time>2021-12-24T11:18:16Z</time>
      </trkpt>
      <trkpt lat="46.65584" lon="-1.43963">
        <ele>56.2</ele>
        <time>2021-12-24T11:18:18Z</time>
      </trkpt>
      <trkpt lat="46.65578" lon="-1.43961">
        <ele>56.2</ele>
        <time>2021-12-24T11:18:19Z</time>
      </trkpt>
      <trkpt lat="46.65573" lon="-1.43958">
        <ele>56.4</ele>
        <time>2021-12-24T11:18:20Z</time>
      </trkpt>
      <trkpt lat="46.65562" lon="-1.43953">
        <ele>56.4</ele>
        <time>2021-12-24T11:18:22Z</time>
      </trkpt>
      <trkpt lat="46.6555" lon="-1.43947">
        <ele>56.2</ele>
        <time>2021-12-24T11:18:24Z</time>
      </trkpt>
      <trkpt lat="46.65539" lon="-1.43943">
        <ele>56.4</ele>
        <time>2021-12-24T11:18:26Z</time>
      </trkpt>
      <trkpt lat="46.65528" lon="-1.43938">
        <ele>56.6</ele>
        <time>2021-12-24T11:18:28Z</time>
      </trkpt>
      <trkpt lat="46.65523" lon="-1.43936">
        <ele>56.4</ele>
        <time>2021-12-24T11:18:29Z</time>
      </trkpt>
      <trkpt lat="46.65517" lon="-1.43934">
        <ele>56.6</ele>
        <time>2021-12-24T11:18:30Z</time>
      </trkpt>
      <trkpt lat="46.65507" lon="-1.43929">
        <ele>56.4</ele>
        <time>2021-12-24T11:18:32Z</time>
      </trkpt>
      <trkpt lat="46.65496" lon="-1.43924">
        <ele>56.4</ele>
        <time>2021-12-24T11:18:34Z</time>
      </trkpt>
      <trkpt lat="46.65484" lon="-1.43919">
        <ele>56.2</ele>
        <time>2021-12-24T11:18:36Z</time>
      </trkpt>
      <trkpt lat="46.65473" lon="-1.43914">
        <ele>56.2</ele>
        <time>2021-12-24T11:18:38Z</time>
      </trkpt>
      <trkpt lat="46.65461" lon="-1.43909">
        <ele>56.2</ele>
        <time>2021-12-24T11:18:40Z</time>
      </trkpt>
      <trkpt lat="46.6545" lon="-1.43904">
        <ele>56.2</ele>
        <time>2021-12-24T11:18:42Z</time>
      </trkpt>
      <trkpt lat="46.65438" lon="-1.43899">
        <ele>56</ele>
        <time>2021-12-24T11:18:44Z</time>
      </trkpt>
      <trkpt lat="46.65426" lon="-1.43894">
        <ele>56</ele>
        <time>2021-12-24T11:18:46Z</time>
      </trkpt>
      <trkpt lat="46.65414" lon="-1.4389">
        <ele>55.8</ele>
        <time>2021-12-24T11:18:48Z</time>
      </trkpt>
      <trkpt lat="46.65403" lon="-1.43885">
        <ele>55.6</ele>
        <time>2021-12-24T11:18:50Z</time>
      </trkpt>
      <trkpt lat="46.65392" lon="-1.4388">
        <ele>55.6</ele>
        <time>2021-12-24T11:18:52Z</time>
      </trkpt>
      <trkpt lat="46.6538" lon="-1.43875">
        <ele>55.4</ele>
        <time>2021-12-24T11:18:54Z</time>
      </trkpt>
      <trkpt lat="46.65368" lon="-1.4387">
        <ele>55.4</ele>
        <time>2021-12-24T11:18:56Z</time>
      </trkpt>
      <trkpt lat="46.65362" lon="-1.43867">
        <ele>55.4</ele>
        <time>2021-12-24T11:18:57Z</time>
      </trkpt>
      <trkpt lat="46.65356" lon="-1.43865">
        <ele>55.4</ele>
        <time>2021-12-24T11:18:58Z</time>
      </trkpt>
      <trkpt lat="46.65344" lon="-1.4386">
        <ele>55.2</ele>
        <time>2021-12-24T11:19:00Z</time>
      </trkpt>
      <trkpt lat="46.65332" lon="-1.43854">
        <ele>55.2</ele>
        <time>2021-12-24T11:19:02Z</time>
      </trkpt>
      <trkpt lat="46.6532" lon="-1.43848">
        <ele>55</ele>
        <time>2021-12-24T11:19:04Z</time>
      </trkpt>
      <trkpt lat="46.65308" lon="-1.43844">
        <ele>55</ele>
        <time>2021-12-24T11:19:06Z</time>
      </trkpt>
      <trkpt lat="46.65296" lon="-1.43838">
        <ele>55</ele>
        <time>2021-12-24T11:19:08Z</time>
      </trkpt>
      <trkpt lat="46.65283" lon="-1.43833">
        <ele>54.8</ele>
        <time>2021-12-24T11:19:10Z</time>
      </trkpt>
      <trkpt lat="46.65271" lon="-1.43828">
        <ele>54.6</ele>
        <time>2021-12-24T11:19:12Z</time>
      </trkpt>
      <trkpt lat="46.65258" lon="-1.43822">
        <ele>54.6</ele>
        <time>2021-12-24T11:19:14Z</time>
      </trkpt>
      <trkpt lat="46.65245" lon="-1.43817">
        <ele>54.4</ele>
        <time>2021-12-24T11:19:16Z</time>
      </trkpt>
      <trkpt lat="46.65233" lon="-1.43811">
        <ele>54.2</ele>
        <time>2021-12-24T11:19:18Z</time>
      </trkpt>
      <trkpt lat="46.6522" lon="-1.43806">
        <ele>54</ele>
        <time>2021-12-24T11:19:20Z</time>
      </trkpt>
      <trkpt lat="46.65207" lon="-1.438">
        <ele>53.8</ele>
        <time>2021-12-24T11:19:22Z</time>
      </trkpt>
      <trkpt lat="46.65194" lon="-1.43795">
        <ele>53.6</ele>
        <time>2021-12-24T11:19:24Z</time>
      </trkpt>
      <trkpt lat="46.65182" lon="-1.4379">
        <ele>53.4</ele>
        <time>2021-12-24T11:19:26Z</time>
      </trkpt>
      <trkpt lat="46.65169" lon="-1.43784">
        <ele>53.2</ele>
        <time>2021-12-24T11:19:28Z</time>
      </trkpt>
      <trkpt lat="46.65157" lon="-1.43779">
        <ele>53</ele>
        <time>2021-12-24T11:19:30Z</time>
      </trkpt>
      <trkpt lat="46.65145" lon="-1.43773">
        <ele>52.8</ele>
        <time>2021-12-24T11:19:32Z</time>
      </trkpt>
      <trkpt lat="46.65136" lon="-1.43769">
        <ele>52.6</ele>
        <time>2021-12-24T11:19:34Z</time>
      </trkpt>
      <trkpt lat="46.65127" lon="-1.43766">
        <ele>52.2</ele>
        <time>2021-12-24T11:19:36Z</time>
      </trkpt>
      <trkpt lat="46.65118" lon="-1.43762">
        <ele>52</ele>
        <time>2021-12-24T11:19:38Z</time>
      </trkpt>
      <trkpt lat="46.65109" lon="-1.43759">
        <ele>51.8</ele>
        <time>2021-12-24T11:19:40Z</time>
      </trkpt>
      <trkpt lat="46.65105" lon="-1.43757">
        <ele>51.8</ele>
        <time>2021-12-24T11:19:41Z</time>
      </trkpt>
      <trkpt lat="46.65101" lon="-1.43756">
        <ele>51.8</ele>
        <time>2021-12-24T11:19:42Z</time>
      </trkpt>
      <trkpt lat="46.65093" lon="-1.43753">
        <ele>51.6</ele>
        <time>2021-12-24T11:19:44Z</time>
      </trkpt>
      <trkpt lat="46.65089" lon="-1.43751">
        <ele>51.4</ele>
        <time>2021-12-24T11:19:45Z</time>
      </trkpt>
      <trkpt lat="46.65085" lon="-1.43749">
        <ele>51.4</ele>
        <time>2021-12-24T11:19:46Z</time>
      </trkpt>
      <trkpt lat="46.6508" lon="-1.43747">
        <ele>51.2</ele>
        <time>2021-12-24T11:19:47Z</time>
      </trkpt>
      <trkpt lat="46.65076" lon="-1.43745">
        <ele>51.2</ele>
        <time>2021-12-24T11:19:48Z</time>
      </trkpt>
      <trkpt lat="46.6507" lon="-1.43738">
        <ele>50.8</ele>
        <time>2021-12-24T11:19:50Z</time>
      </trkpt>
      <trkpt lat="46.65069" lon="-1.43735">
        <ele>50.8</ele>
        <time>2021-12-24T11:19:51Z</time>
      </trkpt>
      <trkpt lat="46.65067" lon="-1.43733">
        <ele>50.8</ele>
        <time>2021-12-24T11:19:52Z</time>
      </trkpt>
      <trkpt lat="46.65063" lon="-1.43729">
        <ele>50.6</ele>
        <time>2021-12-24T11:19:54Z</time>
      </trkpt>
      <trkpt lat="46.65057" lon="-1.43723">
        <ele>50.4</ele>
        <time>2021-12-24T11:19:56Z</time>
      </trkpt>
      <trkpt lat="46.6505" lon="-1.43719">
        <ele>50</ele>
        <time>2021-12-24T11:19:58Z</time>
      </trkpt>
      <trkpt lat="46.65042" lon="-1.43718">
        <ele>50</ele>
        <time>2021-12-24T11:20:00Z</time>
      </trkpt>
      <trkpt lat="46.65039" lon="-1.43719">
        <ele>49.8</ele>
        <time>2021-12-24T11:20:01Z</time>
      </trkpt>
      <trkpt lat="46.65035" lon="-1.4372">
        <ele>49.8</ele>
        <time>2021-12-24T11:20:02Z</time>
      </trkpt>
      <trkpt lat="46.65027" lon="-1.43716">
        <ele>49.6</ele>
        <time>2021-12-24T11:20:04Z</time>
      </trkpt>
      <trkpt lat="46.65018" lon="-1.43713">
        <ele>49.4</ele>
        <time>2021-12-24T11:20:06Z</time>
      </trkpt>
      <trkpt lat="46.6501" lon="-1.4371">
        <ele>49</ele>
        <time>2021-12-24T11:20:08Z</time>
      </trkpt>
      <trkpt lat="46.65006" lon="-1.43709">
        <ele>49</ele>
        <time>2021-12-24T11:20:09Z</time>
      </trkpt>
      <trkpt lat="46.65002" lon="-1.43707">
        <ele>48.8</ele>
        <time>2021-12-24T11:20:10Z</time>
      </trkpt>
      <trkpt lat="46.64994" lon="-1.43704">
        <ele>48.6</ele>
        <time>2021-12-24T11:20:12Z</time>
      </trkpt>
      <trkpt lat="46.64987" lon="-1.43697">
        <ele>48.6</ele>
        <time>2021-12-24T11:20:14Z</time>
      </trkpt>
      <trkpt lat="46.6498" lon="-1.43688">
        <ele>48.4</ele>
        <time>2021-12-24T11:20:16Z</time>
      </trkpt>
      <trkpt lat="46.64973" lon="-1.43679">
        <ele>48.6</ele>
        <time>2021-12-24T11:20:18Z</time>
      </trkpt>
      <trkpt lat="46.64967" lon="-1.4367">
        <ele>48.6</ele>
        <time>2021-12-24T11:20:20Z</time>
      </trkpt>
      <trkpt lat="46.64964" lon="-1.43664">
        <ele>48.6</ele>
        <time>2021-12-24T11:20:21Z</time>
      </trkpt>
      <trkpt lat="46.64961" lon="-1.4366">
        <ele>48.4</ele>
        <time>2021-12-24T11:20:22Z</time>
      </trkpt>
      <trkpt lat="46.64953" lon="-1.4365">
        <ele>48.4</ele>
        <time>2021-12-24T11:20:24Z</time>
      </trkpt>
      <trkpt lat="46.64947" lon="-1.4364">
        <ele>48.4</ele>
        <time>2021-12-24T11:20:26Z</time>
      </trkpt>
      <trkpt lat="46.64944" lon="-1.43635">
        <ele>48.4</ele>
        <time>2021-12-24T11:20:27Z</time>
      </trkpt>
      <trkpt lat="46.64941" lon="-1.4363">
        <ele>48.4</ele>
        <time>2021-12-24T11:20:28Z</time>
      </trkpt>
      <trkpt lat="46.64939" lon="-1.43625">
        <ele>48.4</ele>
        <time>2021-12-24T11:20:29Z</time>
      </trkpt>
      <trkpt lat="46.64936" lon="-1.43619">
        <ele>48.4</ele>
        <time>2021-12-24T11:20:30Z</time>
      </trkpt>
      <trkpt lat="46.64931" lon="-1.43609">
        <ele>48.4</ele>
        <time>2021-12-24T11:20:32Z</time>
      </trkpt>
      <trkpt lat="46.64928" lon="-1.43605">
        <ele>48.4</ele>
        <time>2021-12-24T11:20:33Z</time>
      </trkpt>
      <trkpt lat="46.64925" lon="-1.436">
        <ele>48.4</ele>
        <time>2021-12-24T11:20:34Z</time>
      </trkpt>
      <trkpt lat="46.64918" lon="-1.43593">
        <ele>48.4</ele>
        <time>2021-12-24T11:20:36Z</time>
      </trkpt>
      <trkpt lat="46.64911" lon="-1.43587">
        <ele>48.2</ele>
        <time>2021-12-24T11:20:38Z</time>
      </trkpt>
      <trkpt lat="46.64908" lon="-1.43582">
        <ele>48.6</ele>
        <time>2021-12-24T11:20:39Z</time>
      </trkpt>
      <trkpt lat="46.64905" lon="-1.43578">
        <ele>48.6</ele>
        <time>2021-12-24T11:20:40Z</time>
      </trkpt>
      <trkpt lat="46.64901" lon="-1.43568">
        <ele>48.6</ele>
        <time>2021-12-24T11:20:42Z</time>
      </trkpt>
      <trkpt lat="46.64896" lon="-1.4356">
        <ele>48.6</ele>
        <time>2021-12-24T11:20:44Z</time>
      </trkpt>
      <trkpt lat="46.64891" lon="-1.43552">
        <ele>48.8</ele>
        <time>2021-12-24T11:20:46Z</time>
      </trkpt>
      <trkpt lat="46.64885" lon="-1.43546">
        <ele>48.8</ele>
        <time>2021-12-24T11:20:48Z</time>
      </trkpt>
      <trkpt lat="46.64882" lon="-1.43543">
        <ele>48.6</ele>
        <time>2021-12-24T11:20:49Z</time>
      </trkpt>
      <trkpt lat="46.64879" lon="-1.4354">
        <ele>48.6</ele>
        <time>2021-12-24T11:20:50Z</time>
      </trkpt>
      <trkpt lat="46.64873" lon="-1.43534">
        <ele>48.6</ele>
        <time>2021-12-24T11:20:52Z</time>
      </trkpt>
      <trkpt lat="46.64866" lon="-1.43527">
        <ele>48.8</ele>
        <time>2021-12-24T11:20:54Z</time>
      </trkpt>
      <trkpt lat="46.64864" lon="-1.43524">
        <ele>48.8</ele>
        <time>2021-12-24T11:20:55Z</time>
      </trkpt>
      <trkpt lat="46.64861" lon="-1.43521">
        <ele>48.8</ele>
        <time>2021-12-24T11:20:56Z</time>
      </trkpt>
      <trkpt lat="46.64855" lon="-1.43514">
        <ele>48.8</ele>
        <time>2021-12-24T11:20:58Z</time>
      </trkpt>
      <trkpt lat="46.64849" lon="-1.43506">
        <ele>48.8</ele>
        <time>2021-12-24T11:21:00Z</time>
      </trkpt>
      <trkpt lat="46.64847" lon="-1.43497">
        <ele>48.8</ele>
        <time>2021-12-24T11:21:02Z</time>
      </trkpt>
      <trkpt lat="46.64845" lon="-1.43487">
        <ele>48.8</ele>
        <time>2021-12-24T11:21:04Z</time>
      </trkpt>
      <trkpt lat="46.64842" lon="-1.43479">
        <ele>49</ele>
        <time>2021-12-24T11:21:06Z</time>
      </trkpt>
      <trkpt lat="46.64837" lon="-1.43472">
        <ele>48.8</ele>
        <time>2021-12-24T11:21:08Z</time>
      </trkpt>
      <trkpt lat="46.6483" lon="-1.43466">
        <ele>49</ele>
        <time>2021-12-24T11:21:10Z</time>
      </trkpt>
      <trkpt lat="46.64824" lon="-1.43459">
        <ele>48.6</ele>
        <time>2021-12-24T11:21:12Z</time>
      </trkpt>
      <trkpt lat="46.64818" lon="-1.43452">
        <ele>48.6</ele>
        <time>2021-12-24T11:21:14Z</time>
      </trkpt>
      <trkpt lat="46.64811" lon="-1.43445">
        <ele>49</ele>
        <time>2021-12-24T11:21:16Z</time>
      </trkpt>
      <trkpt lat="46.64805" lon="-1.43438">
        <ele>48.8</ele>
        <time>2021-12-24T11:21:18Z</time>
      </trkpt>
      <trkpt lat="46.64798" lon="-1.43431">
        <ele>49</ele>
        <time>2021-12-24T11:21:20Z</time>
      </trkpt>
      <trkpt lat="46.64792" lon="-1.43424">
        <ele>49</ele>
        <time>2021-12-24T11:21:22Z</time>
      </trkpt>
      <trkpt lat="46.64786" lon="-1.43417">
        <ele>49.2</ele>
        <time>2021-12-24T11:21:24Z</time>
      </trkpt>
      <trkpt lat="46.64779" lon="-1.43411">
        <ele>49.2</ele>
        <time>2021-12-24T11:21:26Z</time>
      </trkpt>
      <trkpt lat="46.64772" lon="-1.43405">
        <ele>49.4</ele>
        <time>2021-12-24T11:21:28Z</time>
      </trkpt>
      <trkpt lat="46.64765" lon="-1.43402">
        <ele>49.6</ele>
        <time>2021-12-24T11:21:30Z</time>
      </trkpt>
      <trkpt lat="46.64759" lon="-1.43402">
        <ele>49.8</ele>
        <time>2021-12-24T11:21:32Z</time>
      </trkpt>
      <trkpt lat="46.64755" lon="-1.43403">
        <ele>50</ele>
        <time>2021-12-24T11:21:33Z</time>
      </trkpt>
      <trkpt lat="46.64751" lon="-1.43404">
        <ele>50</ele>
        <time>2021-12-24T11:21:34Z</time>
      </trkpt>
      <trkpt lat="46.64744" lon="-1.43405">
        <ele>50.2</ele>
        <time>2021-12-24T11:21:36Z</time>
      </trkpt>
      <trkpt lat="46.64739" lon="-1.43406">
        <ele>50.2</ele>
        <time>2021-12-24T11:21:38Z</time>
      </trkpt>
      <trkpt lat="46.64736" lon="-1.43405">
        <ele>50.2</ele>
        <time>2021-12-24T11:21:39Z</time>
      </trkpt>
      <trkpt lat="46.64732" lon="-1.43402">
        <ele>50.4</ele>
        <time>2021-12-24T11:21:40Z</time>
      </trkpt>
      <trkpt lat="46.64729" lon="-1.43399">
        <ele>50.4</ele>
        <time>2021-12-24T11:21:41Z</time>
      </trkpt>
      <trkpt lat="46.64724" lon="-1.43397">
        <ele>50.4</ele>
        <time>2021-12-24T11:21:42Z</time>
      </trkpt>
      <trkpt lat="46.64715" lon="-1.43395">
        <ele>50.6</ele>
        <time>2021-12-24T11:21:44Z</time>
      </trkpt>
      <trkpt lat="46.64709" lon="-1.43395">
        <ele>50.6</ele>
        <time>2021-12-24T11:21:45Z</time>
      </trkpt>
      <trkpt lat="46.64704" lon="-1.43394">
        <ele>50.6</ele>
        <time>2021-12-24T11:21:46Z</time>
      </trkpt>
      <trkpt lat="46.64694" lon="-1.43393">
        <ele>50.8</ele>
        <time>2021-12-24T11:21:48Z</time>
      </trkpt>
      <trkpt lat="46.64683" lon="-1.4339">
        <ele>50.8</ele>
        <time>2021-12-24T11:21:50Z</time>
      </trkpt>
      <trkpt lat="46.64672" lon="-1.4339">
        <ele>50.8</ele>
        <time>2021-12-24T11:21:52Z</time>
      </trkpt>
      <trkpt lat="46.64667" lon="-1.4339">
        <ele>50.8</ele>
        <time>2021-12-24T11:21:53Z</time>
      </trkpt>
      <trkpt lat="46.64661" lon="-1.4339">
        <ele>50.8</ele>
        <time>2021-12-24T11:21:54Z</time>
      </trkpt>
      <trkpt lat="46.64651" lon="-1.43389">
        <ele>50.8</ele>
        <time>2021-12-24T11:21:56Z</time>
      </trkpt>
      <trkpt lat="46.6464" lon="-1.43387">
        <ele>50.8</ele>
        <time>2021-12-24T11:21:58Z</time>
      </trkpt>
      <trkpt lat="46.64629" lon="-1.43384">
        <ele>50.6</ele>
        <time>2021-12-24T11:22:00Z</time>
      </trkpt>
      <trkpt lat="46.64617" lon="-1.43382">
        <ele>51.2</ele>
        <time>2021-12-24T11:22:02Z</time>
      </trkpt>
      <trkpt lat="46.64606" lon="-1.43381">
        <ele>50.2</ele>
        <time>2021-12-24T11:22:04Z</time>
      </trkpt>
      <trkpt lat="46.64595" lon="-1.4338">
        <ele>50.2</ele>
        <time>2021-12-24T11:22:06Z</time>
      </trkpt>
      <trkpt lat="46.64583" lon="-1.43379">
        <ele>50.2</ele>
        <time>2021-12-24T11:22:08Z</time>
      </trkpt>
      <trkpt lat="46.64574" lon="-1.43377">
        <ele>50.2</ele>
        <time>2021-12-24T11:22:10Z</time>
      </trkpt>
      <trkpt lat="46.64569" lon="-1.43375">
        <ele>50</ele>
        <time>2021-12-24T11:22:11Z</time>
      </trkpt>
      <trkpt lat="46.64564" lon="-1.43374">
        <ele>50</ele>
        <time>2021-12-24T11:22:12Z</time>
      </trkpt>
      <trkpt lat="46.64552" lon="-1.43372">
        <ele>50</ele>
        <time>2021-12-24T11:22:14Z</time>
      </trkpt>
      <trkpt lat="46.64541" lon="-1.4337">
        <ele>50</ele>
        <time>2021-12-24T11:22:16Z</time>
      </trkpt>
      <trkpt lat="46.6453" lon="-1.43368">
        <ele>50</ele>
        <time>2021-12-24T11:22:18Z</time>
      </trkpt>
      <trkpt lat="46.64519" lon="-1.43366">
        <ele>49.8</ele>
        <time>2021-12-24T11:22:20Z</time>
      </trkpt>
      <trkpt lat="46.64513" lon="-1.43367">
        <ele>49.8</ele>
        <time>2021-12-24T11:22:21Z</time>
      </trkpt>
      <trkpt lat="46.64507" lon="-1.43369">
        <ele>49.8</ele>
        <time>2021-12-24T11:22:22Z</time>
      </trkpt>
      <trkpt lat="46.64502" lon="-1.43371">
        <ele>50</ele>
        <time>2021-12-24T11:22:23Z</time>
      </trkpt>
      <trkpt lat="46.64496" lon="-1.43373">
        <ele>50</ele>
        <time>2021-12-24T11:22:24Z</time>
      </trkpt>
      <trkpt lat="46.64485" lon="-1.43376">
        <ele>49.8</ele>
        <time>2021-12-24T11:22:26Z</time>
      </trkpt>
      <trkpt lat="46.64475" lon="-1.43381">
        <ele>49.8</ele>
        <time>2021-12-24T11:22:28Z</time>
      </trkpt>
      <trkpt lat="46.64465" lon="-1.43386">
        <ele>49.8</ele>
        <time>2021-12-24T11:22:30Z</time>
      </trkpt>
      <trkpt lat="46.64453" lon="-1.4339">
        <ele>49.6</ele>
        <time>2021-12-24T11:22:32Z</time>
      </trkpt>
      <trkpt lat="46.64447" lon="-1.43393">
        <ele>49.6</ele>
        <time>2021-12-24T11:22:33Z</time>
      </trkpt>
      <trkpt lat="46.6444" lon="-1.43395">
        <ele>49.4</ele>
        <time>2021-12-24T11:22:34Z</time>
      </trkpt>
      <trkpt lat="46.64428" lon="-1.434">
        <ele>49.4</ele>
        <time>2021-12-24T11:22:36Z</time>
      </trkpt>
      <trkpt lat="46.64422" lon="-1.43403">
        <ele>49.4</ele>
        <time>2021-12-24T11:22:37Z</time>
      </trkpt>
      <trkpt lat="46.64416" lon="-1.43405">
        <ele>49.2</ele>
        <time>2021-12-24T11:22:38Z</time>
      </trkpt>
      <trkpt lat="46.64405" lon="-1.4341">
        <ele>49.2</ele>
        <time>2021-12-24T11:22:40Z</time>
      </trkpt>
      <trkpt lat="46.64393" lon="-1.43415">
        <ele>49</ele>
        <time>2021-12-24T11:22:42Z</time>
      </trkpt>
      <trkpt lat="46.6438" lon="-1.4342">
        <ele>49</ele>
        <time>2021-12-24T11:22:44Z</time>
      </trkpt>
      <trkpt lat="46.64368" lon="-1.43426">
        <ele>48.8</ele>
        <time>2021-12-24T11:22:46Z</time>
      </trkpt>
      <trkpt lat="46.64355" lon="-1.43431">
        <ele>48.6</ele>
        <time>2021-12-24T11:22:48Z</time>
      </trkpt>
      <trkpt lat="46.64343" lon="-1.43436">
        <ele>48.4</ele>
        <time>2021-12-24T11:22:50Z</time>
      </trkpt>
      <trkpt lat="46.64333" lon="-1.4344">
        <ele>48.4</ele>
        <time>2021-12-24T11:22:52Z</time>
      </trkpt>
      <trkpt lat="46.64326" lon="-1.43443">
        <ele>48.2</ele>
        <time>2021-12-24T11:22:54Z</time>
      </trkpt>
      <trkpt lat="46.6432" lon="-1.43445">
        <ele>48.2</ele>
        <time>2021-12-24T11:22:56Z</time>
      </trkpt>
      <trkpt lat="46.64319" lon="-1.43445">
        <ele>48</ele>
        <time>2021-12-24T11:22:57Z</time>
      </trkpt>
      <trkpt lat="46.64319" lon="-1.43444">
        <ele>48</ele>
        <time>2021-12-24T11:22:58Z</time>
      </trkpt>
      <trkpt lat="46.64319" lon="-1.43443">
        <ele>48</ele>
        <time>2021-12-24T11:22:59Z</time>
      </trkpt>
      <trkpt lat="46.6432" lon="-1.43443">
        <ele>48</ele>
        <time>2021-12-24T11:23:00Z</time>
      </trkpt>
      <trkpt lat="46.64321" lon="-1.43443">
        <ele>48</ele>
        <time>2021-12-24T11:23:01Z</time>
      </trkpt>
      <trkpt lat="46.64323" lon="-1.43442">
        <ele>48</ele>
        <time>2021-12-24T11:23:02Z</time>
      </trkpt>
      <trkpt lat="46.64329" lon="-1.4344">
        <ele>48</ele>
        <time>2021-12-24T11:23:04Z</time>
      </trkpt>
      <trkpt lat="46.64332" lon="-1.43438">
        <ele>47.8</ele>
        <time>2021-12-24T11:23:05Z</time>
      </trkpt>
      <trkpt lat="46.64335" lon="-1.43436">
        <ele>47.8</ele>
        <time>2021-12-24T11:23:06Z</time>
      </trkpt>
      <trkpt lat="46.64341" lon="-1.43434">
        <ele>47.8</ele>
        <time>2021-12-24T11:23:08Z</time>
      </trkpt>
      <trkpt lat="46.64349" lon="-1.43431">
        <ele>47.8</ele>
        <time>2021-12-24T11:23:10Z</time>
      </trkpt>
      <trkpt lat="46.64353" lon="-1.4343">
        <ele>47.8</ele>
        <time>2021-12-24T11:23:11Z</time>
      </trkpt>
      <trkpt lat="46.64356" lon="-1.43429">
        <ele>47.8</ele>
        <time>2021-12-24T11:23:12Z</time>
      </trkpt>
      <trkpt lat="46.64364" lon="-1.43426">
        <ele>47.8</ele>
        <time>2021-12-24T11:23:14Z</time>
      </trkpt>
      <trkpt lat="46.64372" lon="-1.43422">
        <ele>47.8</ele>
        <time>2021-12-24T11:23:16Z</time>
      </trkpt>
      <trkpt lat="46.64377" lon="-1.4342">
        <ele>47.8</ele>
        <time>2021-12-24T11:23:17Z</time>
      </trkpt>
      <trkpt lat="46.64381" lon="-1.43419">
        <ele>48</ele>
        <time>2021-12-24T11:23:18Z</time>
      </trkpt>
      <trkpt lat="46.6439" lon="-1.43414">
        <ele>47.8</ele>
        <time>2021-12-24T11:23:20Z</time>
      </trkpt>
      <trkpt lat="46.644" lon="-1.4341">
        <ele>48</ele>
        <time>2021-12-24T11:23:22Z</time>
      </trkpt>
      <trkpt lat="46.64405" lon="-1.43408">
        <ele>48.2</ele>
        <time>2021-12-24T11:23:23Z</time>
      </trkpt>
      <trkpt lat="46.6441" lon="-1.43406">
        <ele>48.2</ele>
        <time>2021-12-24T11:23:24Z</time>
      </trkpt>
      <trkpt lat="46.64419" lon="-1.43402">
        <ele>48</ele>
        <time>2021-12-24T11:23:26Z</time>
      </trkpt>
      <trkpt lat="46.64429" lon="-1.43397">
        <ele>48.2</ele>
        <time>2021-12-24T11:23:28Z</time>
      </trkpt>
      <trkpt lat="46.6444" lon="-1.43392">
        <ele>48.2</ele>
        <time>2021-12-24T11:23:30Z</time>
      </trkpt>
      <trkpt lat="46.64449" lon="-1.43388">
        <ele>48.2</ele>
        <time>2021-12-24T11:23:32Z</time>
      </trkpt>
      <trkpt lat="46.64458" lon="-1.43385">
        <ele>48.4</ele>
        <time>2021-12-24T11:23:34Z</time>
      </trkpt>
      <trkpt lat="46.64465" lon="-1.43381">
        <ele>48.4</ele>
        <time>2021-12-24T11:23:36Z</time>
      </trkpt>
      <trkpt lat="46.64468" lon="-1.43378">
        <ele>48.4</ele>
        <time>2021-12-24T11:23:37Z</time>
      </trkpt>
      <trkpt lat="46.6447" lon="-1.43374">
        <ele>48.4</ele>
        <time>2021-12-24T11:23:38Z</time>
      </trkpt>
      <trkpt lat="46.64469" lon="-1.4337">
        <ele>48.6</ele>
        <time>2021-12-24T11:23:39Z</time>
      </trkpt>
      <trkpt lat="46.64467" lon="-1.43366">
        <ele>48.6</ele>
        <time>2021-12-24T11:23:40Z</time>
      </trkpt>
      <trkpt lat="46.64461" lon="-1.43362">
        <ele>48.6</ele>
        <time>2021-12-24T11:23:42Z</time>
      </trkpt>
      <trkpt lat="46.64456" lon="-1.43361">
        <ele>48.6</ele>
        <time>2021-12-24T11:23:43Z</time>
      </trkpt>
      <trkpt lat="46.64452" lon="-1.4336">
        <ele>48.8</ele>
        <time>2021-12-24T11:23:44Z</time>
      </trkpt>
      <trkpt lat="46.64442" lon="-1.43358">
        <ele>48.8</ele>
        <time>2021-12-24T11:23:46Z</time>
      </trkpt>
      <trkpt lat="46.64432" lon="-1.43357">
        <ele>49</ele>
        <time>2021-12-24T11:23:48Z</time>
      </trkpt>
      <trkpt lat="46.64422" lon="-1.43356">
        <ele>49</ele>
        <time>2021-12-24T11:23:50Z</time>
      </trkpt>
      <trkpt lat="46.64412" lon="-1.43355">
        <ele>49.2</ele>
        <time>2021-12-24T11:23:52Z</time>
      </trkpt>
      <trkpt lat="46.64401" lon="-1.43354">
        <ele>49.2</ele>
        <time>2021-12-24T11:23:54Z</time>
      </trkpt>
      <trkpt lat="46.6439" lon="-1.43352">
        <ele>49.2</ele>
        <time>2021-12-24T11:23:56Z</time>
      </trkpt>
      <trkpt lat="46.64384" lon="-1.43351">
        <ele>49.2</ele>
        <time>2021-12-24T11:23:57Z</time>
      </trkpt>
      <trkpt lat="46.64378" lon="-1.43351">
        <ele>49.2</ele>
        <time>2021-12-24T11:23:58Z</time>
      </trkpt>
      <trkpt lat="46.64366" lon="-1.43349">
        <ele>49.4</ele>
        <time>2021-12-24T11:24:00Z</time>
      </trkpt>
      <trkpt lat="46.64353" lon="-1.43348">
        <ele>49.2</ele>
        <time>2021-12-24T11:24:02Z</time>
      </trkpt>
      <trkpt lat="46.64341" lon="-1.43346">
        <ele>49.2</ele>
        <time>2021-12-24T11:24:04Z</time>
      </trkpt>
      <trkpt lat="46.64334" lon="-1.43346">
        <ele>49.4</ele>
        <time>2021-12-24T11:24:05Z</time>
      </trkpt>
      <trkpt lat="46.64328" lon="-1.43345">
        <ele>49.4</ele>
        <time>2021-12-24T11:24:06Z</time>
      </trkpt>
      <trkpt lat="46.64314" lon="-1.43344">
        <ele>49.2</ele>
        <time>2021-12-24T11:24:08Z</time>
      </trkpt>
      <trkpt lat="46.64301" lon="-1.43342">
        <ele>49.2</ele>
        <time>2021-12-24T11:24:10Z</time>
      </trkpt>
      <trkpt lat="46.64287" lon="-1.4334">
        <ele>49.2</ele>
        <time>2021-12-24T11:24:12Z</time>
      </trkpt>
      <trkpt lat="46.64281" lon="-1.43339">
        <ele>49.2</ele>
        <time>2021-12-24T11:24:13Z</time>
      </trkpt>
      <trkpt lat="46.64274" lon="-1.43339">
        <ele>49.4</ele>
        <time>2021-12-24T11:24:14Z</time>
      </trkpt>
      <trkpt lat="46.64262" lon="-1.43337">
        <ele>49</ele>
        <time>2021-12-24T11:24:16Z</time>
      </trkpt>
      <trkpt lat="46.64251" lon="-1.43336">
        <ele>49</ele>
        <time>2021-12-24T11:24:18Z</time>
      </trkpt>
      <trkpt lat="46.6424" lon="-1.43335">
        <ele>49</ele>
        <time>2021-12-24T11:24:20Z</time>
      </trkpt>
      <trkpt lat="46.6423" lon="-1.43333">
        <ele>49</ele>
        <time>2021-12-24T11:24:22Z</time>
      </trkpt>
      <trkpt lat="46.64218" lon="-1.43332">
        <ele>48.8</ele>
        <time>2021-12-24T11:24:24Z</time>
      </trkpt>
      <trkpt lat="46.64206" lon="-1.43331">
        <ele>48.8</ele>
        <time>2021-12-24T11:24:26Z</time>
      </trkpt>
      <trkpt lat="46.64194" lon="-1.43331">
        <ele>48.4</ele>
        <time>2021-12-24T11:24:28Z</time>
      </trkpt>
      <trkpt lat="46.64181" lon="-1.4333">
        <ele>48.4</ele>
        <time>2021-12-24T11:24:30Z</time>
      </trkpt>
      <trkpt lat="46.64167" lon="-1.43329">
        <ele>48.2</ele>
        <time>2021-12-24T11:24:32Z</time>
      </trkpt>
      <trkpt lat="46.64153" lon="-1.43328">
        <ele>48</ele>
        <time>2021-12-24T11:24:34Z</time>
      </trkpt>
      <trkpt lat="46.64139" lon="-1.43327">
        <ele>47.8</ele>
        <time>2021-12-24T11:24:36Z</time>
      </trkpt>
      <trkpt lat="46.64126" lon="-1.43325">
        <ele>48</ele>
        <time>2021-12-24T11:24:38Z</time>
      </trkpt>
      <trkpt lat="46.64119" lon="-1.43324">
        <ele>48</ele>
        <time>2021-12-24T11:24:39Z</time>
      </trkpt>
      <trkpt lat="46.64113" lon="-1.43323">
        <ele>48</ele>
        <time>2021-12-24T11:24:40Z</time>
      </trkpt>
      <trkpt lat="46.64101" lon="-1.4332">
        <ele>47.8</ele>
        <time>2021-12-24T11:24:42Z</time>
      </trkpt>
      <trkpt lat="46.6409" lon="-1.43318">
        <ele>48</ele>
        <time>2021-12-24T11:24:44Z</time>
      </trkpt>
      <trkpt lat="46.64085" lon="-1.43317">
        <ele>48</ele>
        <time>2021-12-24T11:24:45Z</time>
      </trkpt>
      <trkpt lat="46.6408" lon="-1.43316">
        <ele>48</ele>
        <time>2021-12-24T11:24:46Z</time>
      </trkpt>
      <trkpt lat="46.6407" lon="-1.43314">
        <ele>48</ele>
        <time>2021-12-24T11:24:48Z</time>
      </trkpt>
      <trkpt lat="46.64061" lon="-1.43312">
        <ele>48</ele>
        <time>2021-12-24T11:24:50Z</time>
      </trkpt>
      <trkpt lat="46.64057" lon="-1.43311">
        <ele>48</ele>
        <time>2021-12-24T11:24:51Z</time>
      </trkpt>
      <trkpt lat="46.64053" lon="-1.4331">
        <ele>48</ele>
        <time>2021-12-24T11:24:52Z</time>
      </trkpt>
      <trkpt lat="46.64044" lon="-1.43307">
        <ele>47.6</ele>
        <time>2021-12-24T11:24:54Z</time>
      </trkpt>
      <trkpt lat="46.64036" lon="-1.43305">
        <ele>47.8</ele>
        <time>2021-12-24T11:24:56Z</time>
      </trkpt>
      <trkpt lat="46.64028" lon="-1.43303">
        <ele>48.6</ele>
        <time>2021-12-24T11:24:58Z</time>
      </trkpt>
      <trkpt lat="46.6402" lon="-1.43301">
        <ele>48.2</ele>
        <time>2021-12-24T11:25:00Z</time>
      </trkpt>
      <trkpt lat="46.64012" lon="-1.43298">
        <ele>48.4</ele>
        <time>2021-12-24T11:25:02Z</time>
      </trkpt>
      <trkpt lat="46.64003" lon="-1.43296">
        <ele>48.6</ele>
        <time>2021-12-24T11:25:04Z</time>
      </trkpt>
      <trkpt lat="46.63995" lon="-1.43294">
        <ele>48.8</ele>
        <time>2021-12-24T11:25:06Z</time>
      </trkpt>
      <trkpt lat="46.63986" lon="-1.43291">
        <ele>48.8</ele>
        <time>2021-12-24T11:25:08Z</time>
      </trkpt>
      <trkpt lat="46.63977" lon="-1.43288">
        <ele>49</ele>
        <time>2021-12-24T11:25:10Z</time>
      </trkpt>
      <trkpt lat="46.63969" lon="-1.43285">
        <ele>49</ele>
        <time>2021-12-24T11:25:12Z</time>
      </trkpt>
      <trkpt lat="46.6396" lon="-1.43282">
        <ele>49</ele>
        <time>2021-12-24T11:25:14Z</time>
      </trkpt>
      <trkpt lat="46.6395" lon="-1.43278">
        <ele>49</ele>
        <time>2021-12-24T11:25:16Z</time>
      </trkpt>
      <trkpt lat="46.63941" lon="-1.43273">
        <ele>49</ele>
        <time>2021-12-24T11:25:18Z</time>
      </trkpt>
      <trkpt lat="46.6393" lon="-1.43268">
        <ele>49</ele>
        <time>2021-12-24T11:25:20Z</time>
      </trkpt>
      <trkpt lat="46.63918" lon="-1.43263">
        <ele>49</ele>
        <time>2021-12-24T11:25:22Z</time>
      </trkpt>
      <trkpt lat="46.63906" lon="-1.43257">
        <ele>49</ele>
        <time>2021-12-24T11:25:24Z</time>
      </trkpt>
      <trkpt lat="46.63894" lon="-1.4325">
        <ele>49</ele>
        <time>2021-12-24T11:25:26Z</time>
      </trkpt>
      <trkpt lat="46.63882" lon="-1.43243">
        <ele>49</ele>
        <time>2021-12-24T11:25:28Z</time>
      </trkpt>
      <trkpt lat="46.6387" lon="-1.43235">
        <ele>49</ele>
        <time>2021-12-24T11:25:30Z</time>
      </trkpt>
      <trkpt lat="46.63859" lon="-1.43227">
        <ele>49.2</ele>
        <time>2021-12-24T11:25:32Z</time>
      </trkpt>
      <trkpt lat="46.63847" lon="-1.43219">
        <ele>48.8</ele>
        <time>2021-12-24T11:25:34Z</time>
      </trkpt>
      <trkpt lat="46.63835" lon="-1.43211">
        <ele>48.8</ele>
        <time>2021-12-24T11:25:36Z</time>
      </trkpt>
      <trkpt lat="46.63829" lon="-1.43208">
        <ele>48.8</ele>
        <time>2021-12-24T11:25:37Z</time>
      </trkpt>
      <trkpt lat="46.63822" lon="-1.43206">
        <ele>48.8</ele>
        <time>2021-12-24T11:25:38Z</time>
      </trkpt>
      <trkpt lat="46.63808" lon="-1.43203">
        <ele>48.6</ele>
        <time>2021-12-24T11:25:40Z</time>
      </trkpt>
      <trkpt lat="46.63793" lon="-1.43197">
        <ele>48.6</ele>
        <time>2021-12-24T11:25:42Z</time>
      </trkpt>
      <trkpt lat="46.63785" lon="-1.43195">
        <ele>48.4</ele>
        <time>2021-12-24T11:25:43Z</time>
      </trkpt>
      <trkpt lat="46.63778" lon="-1.43192">
        <ele>48.4</ele>
        <time>2021-12-24T11:25:44Z</time>
      </trkpt>
      <trkpt lat="46.63762" lon="-1.43186">
        <ele>48.2</ele>
        <time>2021-12-24T11:25:46Z</time>
      </trkpt>
      <trkpt lat="46.63747" lon="-1.4318">
        <ele>48</ele>
        <time>2021-12-24T11:25:48Z</time>
      </trkpt>
      <trkpt lat="46.63733" lon="-1.43174">
        <ele>47.8</ele>
        <time>2021-12-24T11:25:50Z</time>
      </trkpt>
      <trkpt lat="46.63719" lon="-1.43168">
        <ele>47.8</ele>
        <time>2021-12-24T11:25:52Z</time>
      </trkpt>
      <trkpt lat="46.63707" lon="-1.43161">
        <ele>47.8</ele>
        <time>2021-12-24T11:25:54Z</time>
      </trkpt>
      <trkpt lat="46.63702" lon="-1.43157">
        <ele>47.8</ele>
        <time>2021-12-24T11:25:55Z</time>
      </trkpt>
      <trkpt lat="46.63697" lon="-1.43152">
        <ele>48</ele>
        <time>2021-12-24T11:25:56Z</time>
      </trkpt>
      <trkpt lat="46.63688" lon="-1.43143">
        <ele>48</ele>
        <time>2021-12-24T11:25:58Z</time>
      </trkpt>
      <trkpt lat="46.6368" lon="-1.43135">
        <ele>48.2</ele>
        <time>2021-12-24T11:26:00Z</time>
      </trkpt>
      <trkpt lat="46.63676" lon="-1.4313">
        <ele>48.2</ele>
        <time>2021-12-24T11:26:01Z</time>
      </trkpt>
      <trkpt lat="46.63673" lon="-1.43126">
        <ele>47.6</ele>
        <time>2021-12-24T11:26:02Z</time>
      </trkpt>
      <trkpt lat="46.63665" lon="-1.43118">
        <ele>48.4</ele>
        <time>2021-12-24T11:26:04Z</time>
      </trkpt>
      <trkpt lat="46.63657" lon="-1.43108">
        <ele>49.2</ele>
        <time>2021-12-24T11:26:06Z</time>
      </trkpt>
      <trkpt lat="46.63654" lon="-1.43104">
        <ele>48.6</ele>
        <time>2021-12-24T11:26:07Z</time>
      </trkpt>
      <trkpt lat="46.6365" lon="-1.431">
        <ele>48.6</ele>
        <time>2021-12-24T11:26:08Z</time>
      </trkpt>
      <trkpt lat="46.63646" lon="-1.43097">
        <ele>48.6</ele>
        <time>2021-12-24T11:26:09Z</time>
      </trkpt>
      <trkpt lat="46.63642" lon="-1.43093">
        <ele>48.8</ele>
        <time>2021-12-24T11:26:10Z</time>
      </trkpt>
      <trkpt lat="46.63637" lon="-1.43089">
        <ele>48.8</ele>
        <time>2021-12-24T11:26:11Z</time>
      </trkpt>
      <trkpt lat="46.63633" lon="-1.43085">
        <ele>48.8</ele>
        <time>2021-12-24T11:26:12Z</time>
      </trkpt>
      <trkpt lat="46.63629" lon="-1.43081">
        <ele>48.8</ele>
        <time>2021-12-24T11:26:13Z</time>
      </trkpt>
      <trkpt lat="46.63625" lon="-1.43076">
        <ele>48.8</ele>
        <time>2021-12-24T11:26:14Z</time>
      </trkpt>
      <trkpt lat="46.63621" lon="-1.43072">
        <ele>48.8</ele>
        <time>2021-12-24T11:26:15Z</time>
      </trkpt>
      <trkpt lat="46.63618" lon="-1.43068">
        <ele>49</ele>
        <time>2021-12-24T11:26:16Z</time>
      </trkpt>
      <trkpt lat="46.63609" lon="-1.43059">
        <ele>49</ele>
        <time>2021-12-24T11:26:18Z</time>
      </trkpt>
      <trkpt lat="46.63605" lon="-1.43054">
        <ele>49</ele>
        <time>2021-12-24T11:26:19Z</time>
      </trkpt>
      <trkpt lat="46.63601" lon="-1.43049">
        <ele>49</ele>
        <time>2021-12-24T11:26:20Z</time>
      </trkpt>
      <trkpt lat="46.63597" lon="-1.43043">
        <ele>49</ele>
        <time>2021-12-24T11:26:21Z</time>
      </trkpt>
      <trkpt lat="46.63593" lon="-1.43038">
        <ele>49</ele>
        <time>2021-12-24T11:26:22Z</time>
      </trkpt>
      <trkpt lat="46.63585" lon="-1.43028">
        <ele>49.2</ele>
        <time>2021-12-24T11:26:24Z</time>
      </trkpt>
      <trkpt lat="46.63577" lon="-1.43017">
        <ele>49.2</ele>
        <time>2021-12-24T11:26:26Z</time>
      </trkpt>
      <trkpt lat="46.63573" lon="-1.43012">
        <ele>49.2</ele>
        <time>2021-12-24T11:26:27Z</time>
      </trkpt>
      <trkpt lat="46.63569" lon="-1.43006">
        <ele>49.2</ele>
        <time>2021-12-24T11:26:28Z</time>
      </trkpt>
      <trkpt lat="46.63562" lon="-1.42996">
        <ele>49.2</ele>
        <time>2021-12-24T11:26:30Z</time>
      </trkpt>
      <trkpt lat="46.63555" lon="-1.42985">
        <ele>49.4</ele>
        <time>2021-12-24T11:26:32Z</time>
      </trkpt>
      <trkpt lat="46.63549" lon="-1.42976">
        <ele>49.4</ele>
        <time>2021-12-24T11:26:34Z</time>
      </trkpt>
      <trkpt lat="46.63545" lon="-1.42971">
        <ele>49.4</ele>
        <time>2021-12-24T11:26:35Z</time>
      </trkpt>
      <trkpt lat="46.63542" lon="-1.42965">
        <ele>49.4</ele>
        <time>2021-12-24T11:26:36Z</time>
      </trkpt>
      <trkpt lat="46.63535" lon="-1.42955">
        <ele>49.4</ele>
        <time>2021-12-24T11:26:38Z</time>
      </trkpt>
      <trkpt lat="46.63529" lon="-1.42944">
        <ele>49.4</ele>
        <time>2021-12-24T11:26:40Z</time>
      </trkpt>
      <trkpt lat="46.63522" lon="-1.42933">
        <ele>49.4</ele>
        <time>2021-12-24T11:26:42Z</time>
      </trkpt>
      <trkpt lat="46.63516" lon="-1.42922">
        <ele>49.4</ele>
        <time>2021-12-24T11:26:44Z</time>
      </trkpt>
      <trkpt lat="46.63509" lon="-1.42911">
        <ele>49.4</ele>
        <time>2021-12-24T11:26:46Z</time>
      </trkpt>
      <trkpt lat="46.63505" lon="-1.42906">
        <ele>49.4</ele>
        <time>2021-12-24T11:26:47Z</time>
      </trkpt>
      <trkpt lat="46.63502" lon="-1.429">
        <ele>49.4</ele>
        <time>2021-12-24T11:26:48Z</time>
      </trkpt>
      <trkpt lat="46.63498" lon="-1.42895">
        <ele>49.2</ele>
        <time>2021-12-24T11:26:49Z</time>
      </trkpt>
      <trkpt lat="46.63494" lon="-1.4289">
        <ele>49</ele>
        <time>2021-12-24T11:26:50Z</time>
      </trkpt>
      <trkpt lat="46.63485" lon="-1.42879">
        <ele>49</ele>
        <time>2021-12-24T11:26:52Z</time>
      </trkpt>
      <trkpt lat="46.63475" lon="-1.42867">
        <ele>49</ele>
        <time>2021-12-24T11:26:54Z</time>
      </trkpt>
      <trkpt lat="46.6347" lon="-1.42862">
        <ele>49</ele>
        <time>2021-12-24T11:26:55Z</time>
      </trkpt>
      <trkpt lat="46.63465" lon="-1.42856">
        <ele>49</ele>
        <time>2021-12-24T11:26:56Z</time>
      </trkpt>
      <trkpt lat="46.63455" lon="-1.42845">
        <ele>48.8</ele>
        <time>2021-12-24T11:26:58Z</time>
      </trkpt>
      <trkpt lat="46.63445" lon="-1.42834">
        <ele>48.6</ele>
        <time>2021-12-24T11:27:00Z</time>
      </trkpt>
      <trkpt lat="46.63435" lon="-1.42823">
        <ele>48.6</ele>
        <time>2021-12-24T11:27:02Z</time>
      </trkpt>
      <trkpt lat="46.63424" lon="-1.42812">
        <ele>48.4</ele>
        <time>2021-12-24T11:27:04Z</time>
      </trkpt>
      <trkpt lat="46.63419" lon="-1.42806">
        <ele>48.4</ele>
        <time>2021-12-24T11:27:05Z</time>
      </trkpt>
      <trkpt lat="46.63415" lon="-1.428">
        <ele>48.4</ele>
        <time>2021-12-24T11:27:06Z</time>
      </trkpt>
      <trkpt lat="46.63406" lon="-1.42787">
        <ele>48.6</ele>
        <time>2021-12-24T11:27:08Z</time>
      </trkpt>
      <trkpt lat="46.63398" lon="-1.42773">
        <ele>48.6</ele>
        <time>2021-12-24T11:27:10Z</time>
      </trkpt>
      <trkpt lat="46.6339" lon="-1.42758">
        <ele>48.6</ele>
        <time>2021-12-24T11:27:12Z</time>
      </trkpt>
      <trkpt lat="46.63381" lon="-1.42743">
        <ele>48.4</ele>
        <time>2021-12-24T11:27:14Z</time>
      </trkpt>
      <trkpt lat="46.63377" lon="-1.42735">
        <ele>48.4</ele>
        <time>2021-12-24T11:27:15Z</time>
      </trkpt>
      <trkpt lat="46.63372" lon="-1.42727">
        <ele>48.4</ele>
        <time>2021-12-24T11:27:16Z</time>
      </trkpt>
      <trkpt lat="46.63364" lon="-1.4271">
        <ele>48.2</ele>
        <time>2021-12-24T11:27:18Z</time>
      </trkpt>
      <trkpt lat="46.63355" lon="-1.42694">
        <ele>48.2</ele>
        <time>2021-12-24T11:27:20Z</time>
      </trkpt>
      <trkpt lat="46.63345" lon="-1.42678">
        <ele>48</ele>
        <time>2021-12-24T11:27:22Z</time>
      </trkpt>
      <trkpt lat="46.63339" lon="-1.42672">
        <ele>47.8</ele>
        <time>2021-12-24T11:27:23Z</time>
      </trkpt>
      <trkpt lat="46.63333" lon="-1.42666">
        <ele>47.8</ele>
        <time>2021-12-24T11:27:24Z</time>
      </trkpt>
      <trkpt lat="46.6332" lon="-1.42659">
        <ele>47.8</ele>
        <time>2021-12-24T11:27:26Z</time>
      </trkpt>
      <trkpt lat="46.63313" lon="-1.42657">
        <ele>47.6</ele>
        <time>2021-12-24T11:27:27Z</time>
      </trkpt>
      <trkpt lat="46.63305" lon="-1.42655">
        <ele>47.6</ele>
        <time>2021-12-24T11:27:28Z</time>
      </trkpt>
      <trkpt lat="46.63291" lon="-1.42653">
        <ele>47.6</ele>
        <time>2021-12-24T11:27:30Z</time>
      </trkpt>
      <trkpt lat="46.63278" lon="-1.4265">
        <ele>47.4</ele>
        <time>2021-12-24T11:27:32Z</time>
      </trkpt>
      <trkpt lat="46.63265" lon="-1.42648">
        <ele>47.6</ele>
        <time>2021-12-24T11:27:34Z</time>
      </trkpt>
      <trkpt lat="46.63252" lon="-1.42646">
        <ele>47.6</ele>
        <time>2021-12-24T11:27:36Z</time>
      </trkpt>
      <trkpt lat="46.63241" lon="-1.42645">
        <ele>47.4</ele>
        <time>2021-12-24T11:27:38Z</time>
      </trkpt>
      <trkpt lat="46.63235" lon="-1.42644">
        <ele>47.4</ele>
        <time>2021-12-24T11:27:39Z</time>
      </trkpt>
      <trkpt lat="46.63229" lon="-1.42644">
        <ele>47.4</ele>
        <time>2021-12-24T11:27:40Z</time>
      </trkpt>
      <trkpt lat="46.63218" lon="-1.42642">
        <ele>47.4</ele>
        <time>2021-12-24T11:27:42Z</time>
      </trkpt>
      <trkpt lat="46.63207" lon="-1.4264">
        <ele>47.4</ele>
        <time>2021-12-24T11:27:44Z</time>
      </trkpt>
      <trkpt lat="46.63195" lon="-1.42637">
        <ele>47.4</ele>
        <time>2021-12-24T11:27:46Z</time>
      </trkpt>
      <trkpt lat="46.63183" lon="-1.42634">
        <ele>47.4</ele>
        <time>2021-12-24T11:27:48Z</time>
      </trkpt>
      <trkpt lat="46.63171" lon="-1.42632">
        <ele>47.4</ele>
        <time>2021-12-24T11:27:50Z</time>
      </trkpt>
      <trkpt lat="46.63159" lon="-1.4263">
        <ele>47.4</ele>
        <time>2021-12-24T11:27:52Z</time>
      </trkpt>
      <trkpt lat="46.63152" lon="-1.42629">
        <ele>47.4</ele>
        <time>2021-12-24T11:27:53Z</time>
      </trkpt>
      <trkpt lat="46.63146" lon="-1.42627">
        <ele>47.4</ele>
        <time>2021-12-24T11:27:54Z</time>
      </trkpt>
      <trkpt lat="46.6314" lon="-1.42624">
        <ele>47.4</ele>
        <time>2021-12-24T11:27:55Z</time>
      </trkpt>
      <trkpt lat="46.63133" lon="-1.4262">
        <ele>47.2</ele>
        <time>2021-12-24T11:27:56Z</time>
      </trkpt>
      <trkpt lat="46.63127" lon="-1.42615">
        <ele>47.2</ele>
        <time>2021-12-24T11:27:57Z</time>
      </trkpt>
      <trkpt lat="46.63121" lon="-1.42609">
        <ele>47.2</ele>
        <time>2021-12-24T11:27:58Z</time>
      </trkpt>
      <trkpt lat="46.6311" lon="-1.42595">
        <ele>47</ele>
        <time>2021-12-24T11:28:00Z</time>
      </trkpt>
      <trkpt lat="46.63104" lon="-1.42587">
        <ele>47</ele>
        <time>2021-12-24T11:28:01Z</time>
      </trkpt>
      <trkpt lat="46.63098" lon="-1.42578">
        <ele>46.8</ele>
        <time>2021-12-24T11:28:02Z</time>
      </trkpt>
      <trkpt lat="46.63085" lon="-1.42562">
        <ele>46.8</ele>
        <time>2021-12-24T11:28:04Z</time>
      </trkpt>
      <trkpt lat="46.63072" lon="-1.42545">
        <ele>46.4</ele>
        <time>2021-12-24T11:28:06Z</time>
      </trkpt>
      <trkpt lat="46.63065" lon="-1.42536">
        <ele>46.2</ele>
        <time>2021-12-24T11:28:07Z</time>
      </trkpt>
      <trkpt lat="46.63058" lon="-1.4253">
        <ele>46.2</ele>
        <time>2021-12-24T11:28:08Z</time>
      </trkpt>
      <trkpt lat="46.6305" lon="-1.42524">
        <ele>46</ele>
        <time>2021-12-24T11:28:09Z</time>
      </trkpt>
      <trkpt lat="46.63041" lon="-1.42519">
        <ele>45.8</ele>
        <time>2021-12-24T11:28:10Z</time>
      </trkpt>
      <trkpt lat="46.63025" lon="-1.42509">
        <ele>45.6</ele>
        <time>2021-12-24T11:28:12Z</time>
      </trkpt>
      <trkpt lat="46.63008" lon="-1.42499">
        <ele>45.2</ele>
        <time>2021-12-24T11:28:14Z</time>
      </trkpt>
      <trkpt lat="46.62991" lon="-1.4249">
        <ele>45</ele>
        <time>2021-12-24T11:28:16Z</time>
      </trkpt>
      <trkpt lat="46.62983" lon="-1.42486">
        <ele>44.8</ele>
        <time>2021-12-24T11:28:17Z</time>
      </trkpt>
      <trkpt lat="46.62974" lon="-1.42482">
        <ele>44.8</ele>
        <time>2021-12-24T11:28:18Z</time>
      </trkpt>
      <trkpt lat="46.62965" lon="-1.42481">
        <ele>44.6</ele>
        <time>2021-12-24T11:28:19Z</time>
      </trkpt>
      <trkpt lat="46.62956" lon="-1.42481">
        <ele>44.4</ele>
        <time>2021-12-24T11:28:20Z</time>
      </trkpt>
      <trkpt lat="46.62948" lon="-1.42482">
        <ele>44.4</ele>
        <time>2021-12-24T11:28:21Z</time>
      </trkpt>
      <trkpt lat="46.6294" lon="-1.42484">
        <ele>44.4</ele>
        <time>2021-12-24T11:28:22Z</time>
      </trkpt>
      <trkpt lat="46.62926" lon="-1.4249">
        <ele>44</ele>
        <time>2021-12-24T11:28:24Z</time>
      </trkpt>
      <trkpt lat="46.62913" lon="-1.42495">
        <ele>43.8</ele>
        <time>2021-12-24T11:28:26Z</time>
      </trkpt>
      <trkpt lat="46.62907" lon="-1.42498">
        <ele>43.8</ele>
        <time>2021-12-24T11:28:28Z</time>
      </trkpt>
      <trkpt lat="46.62906" lon="-1.42497">
        <ele>43.6</ele>
        <time>2021-12-24T11:28:29Z</time>
      </trkpt>
      <trkpt lat="46.62906" lon="-1.42495">
        <ele>43.6</ele>
        <time>2021-12-24T11:28:30Z</time>
      </trkpt>
      <trkpt lat="46.6291" lon="-1.42494">
        <ele>43.4</ele>
        <time>2021-12-24T11:28:32Z</time>
      </trkpt>
      <trkpt lat="46.62916" lon="-1.42492">
        <ele>43.2</ele>
        <time>2021-12-24T11:28:34Z</time>
      </trkpt>
      <trkpt lat="46.62924" lon="-1.42488">
        <ele>43</ele>
        <time>2021-12-24T11:28:36Z</time>
      </trkpt>
      <trkpt lat="46.62926" lon="-1.42484">
        <ele>42.8</ele>
        <time>2021-12-24T11:28:37Z</time>
      </trkpt>
      <trkpt lat="46.62926" lon="-1.4248">
        <ele>42.6</ele>
        <time>2021-12-24T11:28:38Z</time>
      </trkpt>
      <trkpt lat="46.62925" lon="-1.42477">
        <ele>42.4</ele>
        <time>2021-12-24T11:28:39Z</time>
      </trkpt>
      <trkpt lat="46.62923" lon="-1.42474">
        <ele>42.2</ele>
        <time>2021-12-24T11:28:40Z</time>
      </trkpt>
      <trkpt lat="46.62918" lon="-1.4247">
        <ele>41.8</ele>
        <time>2021-12-24T11:28:42Z</time>
      </trkpt>
      <trkpt lat="46.62915" lon="-1.42467">
        <ele>41.6</ele>
        <time>2021-12-24T11:28:43Z</time>
      </trkpt>
      <trkpt lat="46.62912" lon="-1.42463">
        <ele>41.4</ele>
        <time>2021-12-24T11:28:44Z</time>
      </trkpt>
      <trkpt lat="46.62905" lon="-1.42457">
        <ele>41</ele>
        <time>2021-12-24T11:28:46Z</time>
      </trkpt>
      <trkpt lat="46.62899" lon="-1.42451">
        <ele>40.6</ele>
        <time>2021-12-24T11:28:48Z</time>
      </trkpt>
      <trkpt lat="46.62893" lon="-1.42445">
        <ele>40.4</ele>
        <time>2021-12-24T11:28:50Z</time>
      </trkpt>
      <trkpt lat="46.62887" lon="-1.42439">
        <ele>40.2</ele>
        <time>2021-12-24T11:28:52Z</time>
      </trkpt>
      <trkpt lat="46.6288" lon="-1.42433">
        <ele>40</ele>
        <time>2021-12-24T11:28:54Z</time>
      </trkpt>
      <trkpt lat="46.62873" lon="-1.42427">
        <ele>39.8</ele>
        <time>2021-12-24T11:28:56Z</time>
      </trkpt>
      <trkpt lat="46.62866" lon="-1.42421">
        <ele>39.8</ele>
        <time>2021-12-24T11:28:58Z</time>
      </trkpt>
      <trkpt lat="46.62569" lon="-1.41996">
        <ele>42</ele>
        <time>2021-12-24T11:31:50Z</time>
      </trkpt>
      <trkpt lat="46.62568" lon="-1.41996">
        <ele>42.2</ele>
        <time>2021-12-24T11:31:51Z</time>
      </trkpt>
      <trkpt lat="46.62562" lon="-1.41976">
        <ele>27.4</ele>
        <time>2021-12-24T11:38:41Z</time>
      </trkpt>
      <trkpt lat="46.62558" lon="-1.41972">
        <ele>27.4</ele>
        <time>2021-12-24T11:38:43Z</time>
      </trkpt>
      <trkpt lat="46.62555" lon="-1.41968">
        <ele>27.4</ele>
        <time>2021-12-24T11:38:44Z</time>
      </trkpt>
      <trkpt lat="46.62555" lon="-1.41968">
        <ele>27.4</ele>
        <time>2021-12-24T11:38:45Z</time>
      </trkpt>
      <trkpt lat="46.6255" lon="-1.41962">
        <ele>27.2</ele>
        <time>2021-12-24T11:38:47Z</time>
      </trkpt>
      <trkpt lat="46.62544" lon="-1.41957">
        <ele>27.2</ele>
        <time>2021-12-24T11:38:49Z</time>
      </trkpt>
      <trkpt lat="46.62539" lon="-1.41951">
        <ele>27</ele>
        <time>2021-12-24T11:38:51Z</time>
      </trkpt>
      <trkpt lat="46.62536" lon="-1.41944">
        <ele>27</ele>
        <time>2021-12-24T11:38:53Z</time>
      </trkpt>
      <trkpt lat="46.62534" lon="-1.41936">
        <ele>27</ele>
        <time>2021-12-24T11:38:55Z</time>
      </trkpt>
      <trkpt lat="46.62532" lon="-1.41927">
        <ele>26.6</ele>
        <time>2021-12-24T11:38:57Z</time>
      </trkpt>
      <trkpt lat="46.6253" lon="-1.41918">
        <ele>26.6</ele>
        <time>2021-12-24T11:38:59Z</time>
      </trkpt>
      <trkpt lat="46.62529" lon="-1.41914">
        <ele>26.4</ele>
        <time>2021-12-24T11:39:00Z</time>
      </trkpt>
      <trkpt lat="46.62527" lon="-1.41909">
        <ele>26.4</ele>
        <time>2021-12-24T11:39:01Z</time>
      </trkpt>
      <trkpt lat="46.62522" lon="-1.41903">
        <ele>26.2</ele>
        <time>2021-12-24T11:39:03Z</time>
      </trkpt>
      <trkpt lat="46.6252" lon="-1.419">
        <ele>26.2</ele>
        <time>2021-12-24T11:39:04Z</time>
      </trkpt>
      <trkpt lat="46.62517" lon="-1.41898">
        <ele>26.2</ele>
        <time>2021-12-24T11:39:05Z</time>
      </trkpt>
      <trkpt lat="46.62512" lon="-1.41892">
        <ele>26.2</ele>
        <time>2021-12-24T11:39:07Z</time>
      </trkpt>
      <trkpt lat="46.62505" lon="-1.41885">
        <ele>26</ele>
        <time>2021-12-24T11:39:09Z</time>
      </trkpt>
      <trkpt lat="46.62498" lon="-1.41877">
        <ele>26</ele>
        <time>2021-12-24T11:39:11Z</time>
      </trkpt>
      <trkpt lat="46.62493" lon="-1.41869">
        <ele>25.8</ele>
        <time>2021-12-24T11:39:13Z</time>
      </trkpt>
      <trkpt lat="46.62487" lon="-1.41859">
        <ele>25.6</ele>
        <time>2021-12-24T11:39:15Z</time>
      </trkpt>
      <trkpt lat="46.62481" lon="-1.4185">
        <ele>25.6</ele>
        <time>2021-12-24T11:39:17Z</time>
      </trkpt>
      <trkpt lat="46.62478" lon="-1.41845">
        <ele>25.6</ele>
        <time>2021-12-24T11:39:18Z</time>
      </trkpt>
      <trkpt lat="46.62476" lon="-1.41839">
        <ele>25.6</ele>
        <time>2021-12-24T11:39:19Z</time>
      </trkpt>
      <trkpt lat="46.62474" lon="-1.41834">
        <ele>25.4</ele>
        <time>2021-12-24T11:39:20Z</time>
      </trkpt>
      <trkpt lat="46.62473" lon="-1.41828">
        <ele>25.4</ele>
        <time>2021-12-24T11:39:21Z</time>
      </trkpt>
      <trkpt lat="46.62469" lon="-1.41816">
        <ele>25.4</ele>
        <time>2021-12-24T11:39:23Z</time>
      </trkpt>
      <trkpt lat="46.62466" lon="-1.41805">
        <ele>25.4</ele>
        <time>2021-12-24T11:39:25Z</time>
      </trkpt>
      <trkpt lat="46.62459" lon="-1.41797">
        <ele>25.4</ele>
        <time>2021-12-24T11:39:27Z</time>
      </trkpt>
      <trkpt lat="46.62451" lon="-1.41792">
        <ele>25.4</ele>
        <time>2021-12-24T11:39:29Z</time>
      </trkpt>
      <trkpt lat="46.62442" lon="-1.41788">
        <ele>25.4</ele>
        <time>2021-12-24T11:39:31Z</time>
      </trkpt>
      <trkpt lat="46.62433" lon="-1.41783">
        <ele>25.4</ele>
        <time>2021-12-24T11:39:33Z</time>
      </trkpt>
      <trkpt lat="46.62424" lon="-1.41778">
        <ele>25.4</ele>
        <time>2021-12-24T11:39:35Z</time>
      </trkpt>
      <trkpt lat="46.62415" lon="-1.41772">
        <ele>25.4</ele>
        <time>2021-12-24T11:39:37Z</time>
      </trkpt>
      <trkpt lat="46.62406" lon="-1.41767">
        <ele>25.4</ele>
        <time>2021-12-24T11:39:39Z</time>
      </trkpt>
      <trkpt lat="46.62396" lon="-1.41761">
        <ele>25.4</ele>
        <time>2021-12-24T11:39:41Z</time>
      </trkpt>
      <trkpt lat="46.62388" lon="-1.41756">
        <ele>25.4</ele>
        <time>2021-12-24T11:39:43Z</time>
      </trkpt>
      <trkpt lat="46.62384" lon="-1.41753">
        <ele>25.2</ele>
        <time>2021-12-24T11:39:44Z</time>
      </trkpt>
      <trkpt lat="46.62382" lon="-1.41748">
        <ele>25.4</ele>
        <time>2021-12-24T11:39:45Z</time>
      </trkpt>
      <trkpt lat="46.62381" lon="-1.41742">
        <ele>25.2</ele>
        <time>2021-12-24T11:39:46Z</time>
      </trkpt>
      <trkpt lat="46.6238" lon="-1.41734">
        <ele>25.4</ele>
        <time>2021-12-24T11:39:47Z</time>
      </trkpt>
      <trkpt lat="46.62378" lon="-1.41721">
        <ele>25.2</ele>
        <time>2021-12-24T11:39:49Z</time>
      </trkpt>
      <trkpt lat="46.62373" lon="-1.41709">
        <ele>25.2</ele>
        <time>2021-12-24T11:39:51Z</time>
      </trkpt>
      <trkpt lat="46.62371" lon="-1.41703">
        <ele>25.2</ele>
        <time>2021-12-24T11:39:52Z</time>
      </trkpt>
      <trkpt lat="46.62368" lon="-1.41698">
        <ele>25.2</ele>
        <time>2021-12-24T11:39:53Z</time>
      </trkpt>
      <trkpt lat="46.62361" lon="-1.41689">
        <ele>25.2</ele>
        <time>2021-12-24T11:39:55Z</time>
      </trkpt>
      <trkpt lat="46.62353" lon="-1.41686">
        <ele>25.2</ele>
        <time>2021-12-24T11:39:57Z</time>
      </trkpt>
      <trkpt lat="46.62343" lon="-1.41685">
        <ele>25.4</ele>
        <time>2021-12-24T11:39:59Z</time>
      </trkpt>
      <trkpt lat="46.62333" lon="-1.41683">
        <ele>25.4</ele>
        <time>2021-12-24T11:40:01Z</time>
      </trkpt>
      <trkpt lat="46.62323" lon="-1.41682">
        <ele>25.4</ele>
        <time>2021-12-24T11:40:03Z</time>
      </trkpt>
      <trkpt lat="46.62319" lon="-1.41682">
        <ele>25.2</ele>
        <time>2021-12-24T11:40:04Z</time>
      </trkpt>
      <trkpt lat="46.62314" lon="-1.41681">
        <ele>25.2</ele>
        <time>2021-12-24T11:40:05Z</time>
      </trkpt>
      <trkpt lat="46.62304" lon="-1.41679">
        <ele>25.2</ele>
        <time>2021-12-24T11:40:07Z</time>
      </trkpt>
      <trkpt lat="46.62296" lon="-1.41674">
        <ele>25</ele>
        <time>2021-12-24T11:40:09Z</time>
      </trkpt>
      <trkpt lat="46.62293" lon="-1.41671">
        <ele>25</ele>
        <time>2021-12-24T11:40:10Z</time>
      </trkpt>
      <trkpt lat="46.62289" lon="-1.41668">
        <ele>25</ele>
        <time>2021-12-24T11:40:11Z</time>
      </trkpt>
      <trkpt lat="46.62282" lon="-1.4166">
        <ele>25</ele>
        <time>2021-12-24T11:40:13Z</time>
      </trkpt>
      <trkpt lat="46.62274" lon="-1.41653">
        <ele>24.8</ele>
        <time>2021-12-24T11:40:15Z</time>
      </trkpt>
      <trkpt lat="46.62267" lon="-1.41645">
        <ele>24.8</ele>
        <time>2021-12-24T11:40:17Z</time>
      </trkpt>
      <trkpt lat="46.62263" lon="-1.41642">
        <ele>24.8</ele>
        <time>2021-12-24T11:40:18Z</time>
      </trkpt>
      <trkpt lat="46.62258" lon="-1.41639">
        <ele>24.8</ele>
        <time>2021-12-24T11:40:19Z</time>
      </trkpt>
      <trkpt lat="46.62249" lon="-1.41634">
        <ele>24.6</ele>
        <time>2021-12-24T11:40:21Z</time>
      </trkpt>
      <trkpt lat="46.62241" lon="-1.4163">
        <ele>24.6</ele>
        <time>2021-12-24T11:40:23Z</time>
      </trkpt>
      <trkpt lat="46.62236" lon="-1.41628">
        <ele>24.6</ele>
        <time>2021-12-24T11:40:24Z</time>
      </trkpt>
      <trkpt lat="46.62232" lon="-1.41626">
        <ele>24.6</ele>
        <time>2021-12-24T11:40:25Z</time>
      </trkpt>
      <trkpt lat="46.62223" lon="-1.41621">
        <ele>24.4</ele>
        <time>2021-12-24T11:40:27Z</time>
      </trkpt>
      <trkpt lat="46.62214" lon="-1.41616">
        <ele>24.4</ele>
        <time>2021-12-24T11:40:29Z</time>
      </trkpt>
      <trkpt lat="46.62205" lon="-1.41611">
        <ele>24.4</ele>
        <time>2021-12-24T11:40:31Z</time>
      </trkpt>
      <trkpt lat="46.62201" lon="-1.4161">
        <ele>24.4</ele>
        <time>2021-12-24T11:40:32Z</time>
      </trkpt>
      <trkpt lat="46.62196" lon="-1.41609">
        <ele>24.4</ele>
        <time>2021-12-24T11:40:33Z</time>
      </trkpt>
      <trkpt lat="46.62186" lon="-1.41608">
        <ele>24.4</ele>
        <time>2021-12-24T11:40:35Z</time>
      </trkpt>
      <trkpt lat="46.62177" lon="-1.41607">
        <ele>24.4</ele>
        <time>2021-12-24T11:40:37Z</time>
      </trkpt>
      <trkpt lat="46.62172" lon="-1.41607">
        <ele>24.6</ele>
        <time>2021-12-24T11:40:38Z</time>
      </trkpt>
      <trkpt lat="46.62167" lon="-1.41607">
        <ele>24.6</ele>
        <time>2021-12-24T11:40:39Z</time>
      </trkpt>
      <trkpt lat="46.62158" lon="-1.41606">
        <ele>24.4</ele>
        <time>2021-12-24T11:40:41Z</time>
      </trkpt>
      <trkpt lat="46.62148" lon="-1.41605">
        <ele>24.6</ele>
        <time>2021-12-24T11:40:43Z</time>
      </trkpt>
      <trkpt lat="46.62138" lon="-1.41605">
        <ele>25</ele>
        <time>2021-12-24T11:40:45Z</time>
      </trkpt>
      <trkpt lat="46.62133" lon="-1.41604">
        <ele>24.6</ele>
        <time>2021-12-24T11:40:46Z</time>
      </trkpt>
      <trkpt lat="46.62129" lon="-1.41603">
        <ele>24.8</ele>
        <time>2021-12-24T11:40:47Z</time>
      </trkpt>
      <trkpt lat="46.62123" lon="-1.41593">
        <ele>24.4</ele>
        <time>2021-12-24T11:40:49Z</time>
      </trkpt>
      <trkpt lat="46.62122" lon="-1.41581">
        <ele>24.2</ele>
        <time>2021-12-24T11:40:51Z</time>
      </trkpt>
      <trkpt lat="46.62121" lon="-1.41568">
        <ele>24</ele>
        <time>2021-12-24T11:40:53Z</time>
      </trkpt>
      <trkpt lat="46.62121" lon="-1.41562">
        <ele>24</ele>
        <time>2021-12-24T11:40:54Z</time>
      </trkpt>
      <trkpt lat="46.6212" lon="-1.41555">
        <ele>23.8</ele>
        <time>2021-12-24T11:40:55Z</time>
      </trkpt>
      <trkpt lat="46.62119" lon="-1.41541">
        <ele>23.8</ele>
        <time>2021-12-24T11:40:57Z</time>
      </trkpt>
      <trkpt lat="46.62118" lon="-1.41528">
        <ele>23.6</ele>
        <time>2021-12-24T11:40:59Z</time>
      </trkpt>
      <trkpt lat="46.62117" lon="-1.41515">
        <ele>23.4</ele>
        <time>2021-12-24T11:41:01Z</time>
      </trkpt>
      <trkpt lat="46.62113" lon="-1.41506">
        <ele>23.4</ele>
        <time>2021-12-24T11:41:03Z</time>
      </trkpt>
      <trkpt lat="46.62106" lon="-1.41498">
        <ele>23.4</ele>
        <time>2021-12-24T11:41:05Z</time>
      </trkpt>
      <trkpt lat="46.62098" lon="-1.41493">
        <ele>23.6</ele>
        <time>2021-12-24T11:41:07Z</time>
      </trkpt>
      <trkpt lat="46.62089" lon="-1.41488">
        <ele>23.6</ele>
        <time>2021-12-24T11:41:09Z</time>
      </trkpt>
      <trkpt lat="46.62079" lon="-1.41483">
        <ele>23.8</ele>
        <time>2021-12-24T11:41:11Z</time>
      </trkpt>
      <trkpt lat="46.62074" lon="-1.41481">
        <ele>23.4</ele>
        <time>2021-12-24T11:41:12Z</time>
      </trkpt>
      <trkpt lat="46.62069" lon="-1.4148">
        <ele>23.6</ele>
        <time>2021-12-24T11:41:13Z</time>
      </trkpt>
      <trkpt lat="46.6206" lon="-1.41479">
        <ele>23.6</ele>
        <time>2021-12-24T11:41:15Z</time>
      </trkpt>
      <trkpt lat="46.62051" lon="-1.41478">
        <ele>23.6</ele>
        <time>2021-12-24T11:41:17Z</time>
      </trkpt>
      <trkpt lat="46.62046" lon="-1.41478">
        <ele>23.4</ele>
        <time>2021-12-24T11:41:18Z</time>
      </trkpt>
      <trkpt lat="46.62041" lon="-1.41478">
        <ele>23.4</ele>
        <time>2021-12-24T11:41:19Z</time>
      </trkpt>
      <trkpt lat="46.62031" lon="-1.41479">
        <ele>24</ele>
        <time>2021-12-24T11:41:21Z</time>
      </trkpt>
      <trkpt lat="46.6202" lon="-1.4148">
        <ele>23.4</ele>
        <time>2021-12-24T11:41:23Z</time>
      </trkpt>
      <trkpt lat="46.6201" lon="-1.41481">
        <ele>23.6</ele>
        <time>2021-12-24T11:41:25Z</time>
      </trkpt>
      <trkpt lat="46.62" lon="-1.41484">
        <ele>23.6</ele>
        <time>2021-12-24T11:41:27Z</time>
      </trkpt>
      <trkpt lat="46.6199" lon="-1.41489">
        <ele>23.4</ele>
        <time>2021-12-24T11:41:29Z</time>
      </trkpt>
      <trkpt lat="46.6198" lon="-1.41495">
        <ele>23.2</ele>
        <time>2021-12-24T11:41:31Z</time>
      </trkpt>
      <trkpt lat="46.61971" lon="-1.415">
        <ele>23.2</ele>
        <time>2021-12-24T11:41:33Z</time>
      </trkpt>
      <trkpt lat="46.61962" lon="-1.41501">
        <ele>23</ele>
        <time>2021-12-24T11:41:35Z</time>
      </trkpt>
      <trkpt lat="46.61958" lon="-1.41497">
        <ele>23</ele>
        <time>2021-12-24T11:41:36Z</time>
      </trkpt>
      <trkpt lat="46.61954" lon="-1.41494">
        <ele>23</ele>
        <time>2021-12-24T11:41:37Z</time>
      </trkpt>
      <trkpt lat="46.61946" lon="-1.41487">
        <ele>23</ele>
        <time>2021-12-24T11:41:39Z</time>
      </trkpt>
      <trkpt lat="46.61939" lon="-1.41479">
        <ele>23</ele>
        <time>2021-12-24T11:41:41Z</time>
      </trkpt>
      <trkpt lat="46.61937" lon="-1.41467">
        <ele>22.8</ele>
        <time>2021-12-24T11:41:43Z</time>
      </trkpt>
      <trkpt lat="46.61937" lon="-1.41462">
        <ele>22.8</ele>
        <time>2021-12-24T11:41:44Z</time>
      </trkpt>
      <trkpt lat="46.61937" lon="-1.41458">
        <ele>22.8</ele>
        <time>2021-12-24T11:41:45Z</time>
      </trkpt>
      <trkpt lat="46.61938" lon="-1.41449">
        <ele>22.6</ele>
        <time>2021-12-24T11:41:47Z</time>
      </trkpt>
      <trkpt lat="46.61939" lon="-1.41444">
        <ele>22.8</ele>
        <time>2021-12-24T11:41:48Z</time>
      </trkpt>
      <trkpt lat="46.6194" lon="-1.41439">
        <ele>22.8</ele>
        <time>2021-12-24T11:41:49Z</time>
      </trkpt>
      <trkpt lat="46.61941" lon="-1.41428">
        <ele>23</ele>
        <time>2021-12-24T11:41:51Z</time>
      </trkpt>
      <trkpt lat="46.6194" lon="-1.41423">
        <ele>23</ele>
        <time>2021-12-24T11:41:52Z</time>
      </trkpt>
      <trkpt lat="46.61939" lon="-1.41418">
        <ele>23</ele>
        <time>2021-12-24T11:41:53Z</time>
      </trkpt>
      <trkpt lat="46.61936" lon="-1.41413">
        <ele>22.8</ele>
        <time>2021-12-24T11:41:54Z</time>
      </trkpt>
      <trkpt lat="46.61933" lon="-1.4141">
        <ele>23</ele>
        <time>2021-12-24T11:41:55Z</time>
      </trkpt>
      <trkpt lat="46.61927" lon="-1.41402">
        <ele>23.2</ele>
        <time>2021-12-24T11:41:57Z</time>
      </trkpt>
      <trkpt lat="46.6192" lon="-1.41394">
        <ele>23.2</ele>
        <time>2021-12-24T11:41:59Z</time>
      </trkpt>
      <trkpt lat="46.61913" lon="-1.41386">
        <ele>23</ele>
        <time>2021-12-24T11:42:01Z</time>
      </trkpt>
      <trkpt lat="46.61909" lon="-1.41384">
        <ele>23</ele>
        <time>2021-12-24T11:42:02Z</time>
      </trkpt>
      <trkpt lat="46.61904" lon="-1.41381">
        <ele>23</ele>
        <time>2021-12-24T11:42:03Z</time>
      </trkpt>
      <trkpt lat="46.61896" lon="-1.41378">
        <ele>23</ele>
        <time>2021-12-24T11:42:05Z</time>
      </trkpt>
      <trkpt lat="46.61887" lon="-1.41374">
        <ele>22.8</ele>
        <time>2021-12-24T11:42:07Z</time>
      </trkpt>
      <trkpt lat="46.61882" lon="-1.41371">
        <ele>22.8</ele>
        <time>2021-12-24T11:42:08Z</time>
      </trkpt>
      <trkpt lat="46.61878" lon="-1.41367">
        <ele>22.8</ele>
        <time>2021-12-24T11:42:09Z</time>
      </trkpt>
      <trkpt lat="46.61875" lon="-1.41362">
        <ele>22.8</ele>
        <time>2021-12-24T11:42:10Z</time>
      </trkpt>
      <trkpt lat="46.61873" lon="-1.41357">
        <ele>22.6</ele>
        <time>2021-12-24T11:42:11Z</time>
      </trkpt>
      <trkpt lat="46.61868" lon="-1.41348">
        <ele>22.6</ele>
        <time>2021-12-24T11:42:13Z</time>
      </trkpt>
      <trkpt lat="46.61864" lon="-1.41339">
        <ele>22.6</ele>
        <time>2021-12-24T11:42:15Z</time>
      </trkpt>
      <trkpt lat="46.61861" lon="-1.41334">
        <ele>22.4</ele>
        <time>2021-12-24T11:42:16Z</time>
      </trkpt>
      <trkpt lat="46.61859" lon="-1.41329">
        <ele>22.6</ele>
        <time>2021-12-24T11:42:17Z</time>
      </trkpt>
      <trkpt lat="46.61855" lon="-1.41317">
        <ele>22.6</ele>
        <time>2021-12-24T11:42:19Z</time>
      </trkpt>
      <trkpt lat="46.61852" lon="-1.41305">
        <ele>22.6</ele>
        <time>2021-12-24T11:42:21Z</time>
      </trkpt>
      <trkpt lat="46.61852" lon="-1.41299">
        <ele>22.4</ele>
        <time>2021-12-24T11:42:22Z</time>
      </trkpt>
      <trkpt lat="46.61851" lon="-1.41293">
        <ele>22.6</ele>
        <time>2021-12-24T11:42:23Z</time>
      </trkpt>
      <trkpt lat="46.61849" lon="-1.41281">
        <ele>22.6</ele>
        <time>2021-12-24T11:42:25Z</time>
      </trkpt>
      <trkpt lat="46.61847" lon="-1.41269">
        <ele>23</ele>
        <time>2021-12-24T11:42:27Z</time>
      </trkpt>
      <trkpt lat="46.61846" lon="-1.41257">
        <ele>23</ele>
        <time>2021-12-24T11:42:29Z</time>
      </trkpt>
      <trkpt lat="46.61843" lon="-1.41248">
        <ele>22.8</ele>
        <time>2021-12-24T11:42:31Z</time>
      </trkpt>
      <trkpt lat="46.61841" lon="-1.41242">
        <ele>22.6</ele>
        <time>2021-12-24T11:42:33Z</time>
      </trkpt>
      <trkpt lat="46.6184" lon="-1.41238">
        <ele>22.6</ele>
        <time>2021-12-24T11:42:35Z</time>
      </trkpt>
      <trkpt lat="46.61839" lon="-1.41236">
        <ele>22.6</ele>
        <time>2021-12-24T11:42:36Z</time>
      </trkpt>
      <trkpt lat="46.61838" lon="-1.41234">
        <ele>22.4</ele>
        <time>2021-12-24T11:42:37Z</time>
      </trkpt>
      <trkpt lat="46.61836" lon="-1.4123">
        <ele>21.8</ele>
        <time>2021-12-24T11:42:39Z</time>
      </trkpt>
      <trkpt lat="46.61833" lon="-1.41224">
        <ele>21.2</ele>
        <time>2021-12-24T11:42:41Z</time>
      </trkpt>
      <trkpt lat="46.6183" lon="-1.4122">
        <ele>20.6</ele>
        <time>2021-12-24T11:42:43Z</time>
      </trkpt>
      <trkpt lat="46.61825" lon="-1.41213">
        <ele>20.2</ele>
        <time>2021-12-24T11:42:45Z</time>
      </trkpt>
      <trkpt lat="46.6182" lon="-1.41205">
        <ele>19.6</ele>
        <time>2021-12-24T11:42:47Z</time>
      </trkpt>
      <trkpt lat="46.61814" lon="-1.41196">
        <ele>19</ele>
        <time>2021-12-24T11:42:49Z</time>
      </trkpt>
      <trkpt lat="46.61809" lon="-1.41188">
        <ele>18.6</ele>
        <time>2021-12-24T11:42:51Z</time>
      </trkpt>
      <trkpt lat="46.61803" lon="-1.41177">
        <ele>18.2</ele>
        <time>2021-12-24T11:42:53Z</time>
      </trkpt>
      <trkpt lat="46.618" lon="-1.41172">
        <ele>18</ele>
        <time>2021-12-24T11:42:54Z</time>
      </trkpt>
      <trkpt lat="46.61798" lon="-1.41168">
        <ele>17.8</ele>
        <time>2021-12-24T11:42:55Z</time>
      </trkpt>
      <trkpt lat="46.61792" lon="-1.41161">
        <ele>17.4</ele>
        <time>2021-12-24T11:42:57Z</time>
      </trkpt>
      <trkpt lat="46.61788" lon="-1.41149">
        <ele>17.2</ele>
        <time>2021-12-24T11:42:59Z</time>
      </trkpt>
      <trkpt lat="46.61783" lon="-1.41139">
        <ele>17</ele>
        <time>2021-12-24T11:43:01Z</time>
      </trkpt>
      <trkpt lat="46.61779" lon="-1.41134">
        <ele>17.2</ele>
        <time>2021-12-24T11:43:03Z</time>
      </trkpt>
      <trkpt lat="46.61778" lon="-1.41133">
        <ele>17.2</ele>
        <time>2021-12-24T11:43:04Z</time>
      </trkpt>
      <trkpt lat="46.61776" lon="-1.41132">
        <ele>17.2</ele>
        <time>2021-12-24T11:43:05Z</time>
      </trkpt>
      <trkpt lat="46.61769" lon="-1.4113">
        <ele>16.8</ele>
        <time>2021-12-24T11:43:07Z</time>
      </trkpt>
      <trkpt lat="46.61762" lon="-1.4113">
        <ele>17.6</ele>
        <time>2021-12-24T11:43:09Z</time>
      </trkpt>
      <trkpt lat="46.61755" lon="-1.41133">
        <ele>15.4</ele>
        <time>2021-12-24T11:43:11Z</time>
      </trkpt>
      <trkpt lat="46.61749" lon="-1.41136">
        <ele>16.4</ele>
        <time>2021-12-24T11:43:13Z</time>
      </trkpt>
      <trkpt lat="46.61746" lon="-1.41133">
        <ele>16.6</ele>
        <time>2021-12-24T11:43:15Z</time>
      </trkpt>
      <trkpt lat="46.61749" lon="-1.41129">
        <ele>17</ele>
        <time>2021-12-24T11:43:17Z</time>
      </trkpt>
      <trkpt lat="46.61752" lon="-1.41128">
        <ele>17.2</ele>
        <time>2021-12-24T11:43:18Z</time>
      </trkpt>
      <trkpt lat="46.61755" lon="-1.41125">
        <ele>17.4</ele>
        <time>2021-12-24T11:43:19Z</time>
      </trkpt>
      <trkpt lat="46.61762" lon="-1.41119">
        <ele>18.4</ele>
        <time>2021-12-24T11:43:21Z</time>
      </trkpt>
      <trkpt lat="46.61764" lon="-1.41115">
        <ele>18.2</ele>
        <time>2021-12-24T11:43:23Z</time>
      </trkpt>
      <trkpt lat="46.61764" lon="-1.41113">
        <ele>18.2</ele>
        <time>2021-12-24T11:43:25Z</time>
      </trkpt>
      <trkpt lat="46.61764" lon="-1.41112">
        <ele>17.6</ele>
        <time>2021-12-24T11:43:27Z</time>
      </trkpt>
      <trkpt lat="46.61764" lon="-1.41112">
        <ele>17.6</ele>
        <time>2021-12-24T11:43:28Z</time>
      </trkpt>
      <trkpt lat="46.61762" lon="-1.41105">
        <ele>16.8</ele>
        <time>2021-12-24T11:43:38Z</time>
      </trkpt>
      <trkpt lat="46.61762" lon="-1.41101">
        <ele>16.4</ele>
        <time>2021-12-24T11:43:39Z</time>
      </trkpt>
      <trkpt lat="46.61765" lon="-1.41093">
        <ele>16.2</ele>
        <time>2021-12-24T11:43:41Z</time>
      </trkpt>
      <trkpt lat="46.61773" lon="-1.41088">
        <ele>16.6</ele>
        <time>2021-12-24T11:43:43Z</time>
      </trkpt>
      <trkpt lat="46.61781" lon="-1.41083">
        <ele>17.2</ele>
        <time>2021-12-24T11:43:45Z</time>
      </trkpt>
      <trkpt lat="46.61791" lon="-1.41078">
        <ele>17.6</ele>
        <time>2021-12-24T11:43:47Z</time>
      </trkpt>
      <trkpt lat="46.61795" lon="-1.41075">
        <ele>18.2</ele>
        <time>2021-12-24T11:43:48Z</time>
      </trkpt>
      <trkpt lat="46.61799" lon="-1.41072">
        <ele>18.4</ele>
        <time>2021-12-24T11:43:49Z</time>
      </trkpt>
      <trkpt lat="46.61807" lon="-1.41066">
        <ele>17.8</ele>
        <time>2021-12-24T11:43:51Z</time>
      </trkpt>
      <trkpt lat="46.61815" lon="-1.4106">
        <ele>18</ele>
        <time>2021-12-24T11:43:53Z</time>
      </trkpt>
      <trkpt lat="46.61818" lon="-1.41057">
        <ele>18.2</ele>
        <time>2021-12-24T11:43:54Z</time>
      </trkpt>
      <trkpt lat="46.61821" lon="-1.41054">
        <ele>18.4</ele>
        <time>2021-12-24T11:43:55Z</time>
      </trkpt>
      <trkpt lat="46.61827" lon="-1.41048">
        <ele>18.8</ele>
        <time>2021-12-24T11:43:57Z</time>
      </trkpt>
      <trkpt lat="46.61827" lon="-1.41039">
        <ele>19</ele>
        <time>2021-12-24T11:43:59Z</time>
      </trkpt>
      <trkpt lat="46.61828" lon="-1.41033">
        <ele>19</ele>
        <time>2021-12-24T11:44:00Z</time>
      </trkpt>
      <trkpt lat="46.61828" lon="-1.41027">
        <ele>19</ele>
        <time>2021-12-24T11:44:01Z</time>
      </trkpt>
      <trkpt lat="46.61828" lon="-1.41021">
        <ele>19</ele>
        <time>2021-12-24T11:44:02Z</time>
      </trkpt>
      <trkpt lat="46.61829" lon="-1.41014">
        <ele>19.2</ele>
        <time>2021-12-24T11:44:03Z</time>
      </trkpt>
      <trkpt lat="46.6183" lon="-1.41007">
        <ele>19.2</ele>
        <time>2021-12-24T11:44:04Z</time>
      </trkpt>
      <trkpt lat="46.6183" lon="-1.41">
        <ele>19.2</ele>
        <time>2021-12-24T11:44:05Z</time>
      </trkpt>
      <trkpt lat="46.6183" lon="-1.40986">
        <ele>19.2</ele>
        <time>2021-12-24T11:44:07Z</time>
      </trkpt>
      <trkpt lat="46.6183" lon="-1.4098">
        <ele>19.2</ele>
        <time>2021-12-24T11:44:08Z</time>
      </trkpt>
      <trkpt lat="46.6183" lon="-1.40973">
        <ele>19.2</ele>
        <time>2021-12-24T11:44:09Z</time>
      </trkpt>
      <trkpt lat="46.6183" lon="-1.40967">
        <ele>19.2</ele>
        <time>2021-12-24T11:44:10Z</time>
      </trkpt>
      <trkpt lat="46.6183" lon="-1.40959">
        <ele>19</ele>
        <time>2021-12-24T11:44:11Z</time>
      </trkpt>
      <trkpt lat="46.61829" lon="-1.40944">
        <ele>19</ele>
        <time>2021-12-24T11:44:13Z</time>
      </trkpt>
      <trkpt lat="46.61827" lon="-1.4093">
        <ele>19</ele>
        <time>2021-12-24T11:44:15Z</time>
      </trkpt>
      <trkpt lat="46.61825" lon="-1.40916">
        <ele>19</ele>
        <time>2021-12-24T11:44:17Z</time>
      </trkpt>
      <trkpt lat="46.61824" lon="-1.40902">
        <ele>19</ele>
        <time>2021-12-24T11:44:19Z</time>
      </trkpt>
      <trkpt lat="46.61822" lon="-1.40889">
        <ele>19.4</ele>
        <time>2021-12-24T11:44:21Z</time>
      </trkpt>
      <trkpt lat="46.61821" lon="-1.40876">
        <ele>18.6</ele>
        <time>2021-12-24T11:44:23Z</time>
      </trkpt>
      <trkpt lat="46.6182" lon="-1.40864">
        <ele>18.6</ele>
        <time>2021-12-24T11:44:25Z</time>
      </trkpt>
      <trkpt lat="46.61818" lon="-1.40859">
        <ele>18.6</ele>
        <time>2021-12-24T11:44:26Z</time>
      </trkpt>
      <trkpt lat="46.61817" lon="-1.40852">
        <ele>18.4</ele>
        <time>2021-12-24T11:44:27Z</time>
      </trkpt>
      <trkpt lat="46.61815" lon="-1.4084">
        <ele>18.4</ele>
        <time>2021-12-24T11:44:29Z</time>
      </trkpt>
      <trkpt lat="46.61813" lon="-1.40833">
        <ele>18.4</ele>
        <time>2021-12-24T11:44:30Z</time>
      </trkpt>
      <trkpt lat="46.61812" lon="-1.40826">
        <ele>18.4</ele>
        <time>2021-12-24T11:44:31Z</time>
      </trkpt>
      <trkpt lat="46.61809" lon="-1.40813">
        <ele>18.2</ele>
        <time>2021-12-24T11:44:33Z</time>
      </trkpt>
      <trkpt lat="46.61805" lon="-1.40799">
        <ele>18.2</ele>
        <time>2021-12-24T11:44:35Z</time>
      </trkpt>
      <trkpt lat="46.61802" lon="-1.40786">
        <ele>18.2</ele>
        <time>2021-12-24T11:44:37Z</time>
      </trkpt>
      <trkpt lat="46.61796" lon="-1.40773">
        <ele>18.2</ele>
        <time>2021-12-24T11:44:39Z</time>
      </trkpt>
      <trkpt lat="46.61793" lon="-1.40767">
        <ele>18</ele>
        <time>2021-12-24T11:44:40Z</time>
      </trkpt>
      <trkpt lat="46.6179" lon="-1.40762">
        <ele>18</ele>
        <time>2021-12-24T11:44:41Z</time>
      </trkpt>
      <trkpt lat="46.61783" lon="-1.4075">
        <ele>18</ele>
        <time>2021-12-24T11:44:43Z</time>
      </trkpt>
      <trkpt lat="46.61778" lon="-1.40738">
        <ele>17.6</ele>
        <time>2021-12-24T11:44:45Z</time>
      </trkpt>
      <trkpt lat="46.61776" lon="-1.40733">
        <ele>17.6</ele>
        <time>2021-12-24T11:44:46Z</time>
      </trkpt>
      <trkpt lat="46.61774" lon="-1.40726">
        <ele>17.4</ele>
        <time>2021-12-24T11:44:47Z</time>
      </trkpt>
      <trkpt lat="46.61772" lon="-1.40719">
        <ele>17.2</ele>
        <time>2021-12-24T11:44:48Z</time>
      </trkpt>
      <trkpt lat="46.61772" lon="-1.40712">
        <ele>17.2</ele>
        <time>2021-12-24T11:44:49Z</time>
      </trkpt>
      <trkpt lat="46.61771" lon="-1.40705">
        <ele>17</ele>
        <time>2021-12-24T11:44:50Z</time>
      </trkpt>
      <trkpt lat="46.61769" lon="-1.40698">
        <ele>16.8</ele>
        <time>2021-12-24T11:44:51Z</time>
      </trkpt>
      <trkpt lat="46.61765" lon="-1.40684">
        <ele>16.6</ele>
        <time>2021-12-24T11:44:53Z</time>
      </trkpt>
      <trkpt lat="46.61764" lon="-1.40678">
        <ele>16.4</ele>
        <time>2021-12-24T11:44:54Z</time>
      </trkpt>
      <trkpt lat="46.61762" lon="-1.40672">
        <ele>16.4</ele>
        <time>2021-12-24T11:44:55Z</time>
      </trkpt>
      <trkpt lat="46.61761" lon="-1.40665">
        <ele>16.2</ele>
        <time>2021-12-24T11:44:56Z</time>
      </trkpt>
      <trkpt lat="46.61759" lon="-1.40659">
        <ele>16</ele>
        <time>2021-12-24T11:44:57Z</time>
      </trkpt>
      <trkpt lat="46.61758" lon="-1.40652">
        <ele>15.8</ele>
        <time>2021-12-24T11:44:58Z</time>
      </trkpt>
      <trkpt lat="46.61757" lon="-1.40646">
        <ele>15.6</ele>
        <time>2021-12-24T11:44:59Z</time>
      </trkpt>
      <trkpt lat="46.61756" lon="-1.4064">
        <ele>15.4</ele>
        <time>2021-12-24T11:45:00Z</time>
      </trkpt>
      <trkpt lat="46.61755" lon="-1.40633">
        <ele>15.2</ele>
        <time>2021-12-24T11:45:01Z</time>
      </trkpt>
      <trkpt lat="46.61754" lon="-1.40626">
        <ele>15</ele>
        <time>2021-12-24T11:45:02Z</time>
      </trkpt>
      <trkpt lat="46.61753" lon="-1.40619">
        <ele>14.6</ele>
        <time>2021-12-24T11:45:03Z</time>
      </trkpt>
      <trkpt lat="46.6175" lon="-1.40607">
        <ele>14.2</ele>
        <time>2021-12-24T11:45:05Z</time>
      </trkpt>
      <trkpt lat="46.6175" lon="-1.40602">
        <ele>14</ele>
        <time>2021-12-24T11:45:06Z</time>
      </trkpt>
      <trkpt lat="46.61749" lon="-1.40596">
        <ele>14</ele>
        <time>2021-12-24T11:45:07Z</time>
      </trkpt>
      <trkpt lat="46.61748" lon="-1.40584">
        <ele>14</ele>
        <time>2021-12-24T11:45:09Z</time>
      </trkpt>
      <trkpt lat="46.61747" lon="-1.40579">
        <ele>14</ele>
        <time>2021-12-24T11:45:10Z</time>
      </trkpt>
      <trkpt lat="46.61746" lon="-1.40573">
        <ele>14</ele>
        <time>2021-12-24T11:45:11Z</time>
      </trkpt>
      <trkpt lat="46.61742" lon="-1.40564">
        <ele>14.2</ele>
        <time>2021-12-24T11:45:13Z</time>
      </trkpt>
      <trkpt lat="46.61739" lon="-1.40554">
        <ele>14.2</ele>
        <time>2021-12-24T11:45:15Z</time>
      </trkpt>
      <trkpt lat="46.61737" lon="-1.40544">
        <ele>14</ele>
        <time>2021-12-24T11:45:17Z</time>
      </trkpt>
      <trkpt lat="46.61735" lon="-1.40533">
        <ele>14</ele>
        <time>2021-12-24T11:45:19Z</time>
      </trkpt>
      <trkpt lat="46.61734" lon="-1.40529">
        <ele>14</ele>
        <time>2021-12-24T11:45:20Z</time>
      </trkpt>
      <trkpt lat="46.61732" lon="-1.40525">
        <ele>13.8</ele>
        <time>2021-12-24T11:45:21Z</time>
      </trkpt>
      <trkpt lat="46.61727" lon="-1.40519">
        <ele>13.4</ele>
        <time>2021-12-24T11:45:23Z</time>
      </trkpt>
      <trkpt lat="46.61723" lon="-1.40517">
        <ele>13.4</ele>
        <time>2021-12-24T11:45:24Z</time>
      </trkpt>
      <trkpt lat="46.61719" lon="-1.40515">
        <ele>13.4</ele>
        <time>2021-12-24T11:45:25Z</time>
      </trkpt>
      <trkpt lat="46.61713" lon="-1.40511">
        <ele>13.4</ele>
        <time>2021-12-24T11:45:27Z</time>
      </trkpt>
      <trkpt lat="46.6171" lon="-1.4051">
        <ele>13.4</ele>
        <time>2021-12-24T11:45:28Z</time>
      </trkpt>
      <trkpt lat="46.61706" lon="-1.4051">
        <ele>13.4</ele>
        <time>2021-12-24T11:45:29Z</time>
      </trkpt>
      <trkpt lat="46.61697" lon="-1.40512">
        <ele>13.4</ele>
        <time>2021-12-24T11:45:31Z</time>
      </trkpt>
      <trkpt lat="46.61692" lon="-1.40514">
        <ele>13.4</ele>
        <time>2021-12-24T11:45:32Z</time>
      </trkpt>
      <trkpt lat="46.61688" lon="-1.40515">
        <ele>13.6</ele>
        <time>2021-12-24T11:45:33Z</time>
      </trkpt>
      <trkpt lat="46.6168" lon="-1.40518">
        <ele>13.6</ele>
        <time>2021-12-24T11:45:35Z</time>
      </trkpt>
      <trkpt lat="46.61675" lon="-1.40517">
        <ele>14.4</ele>
        <time>2021-12-24T11:45:37Z</time>
      </trkpt>
      <trkpt lat="46.61671" lon="-1.40517">
        <ele>14.8</ele>
        <time>2021-12-24T11:45:39Z</time>
      </trkpt>
      <trkpt lat="46.61669" lon="-1.40518">
        <ele>14.8</ele>
        <time>2021-12-24T11:45:40Z</time>
      </trkpt>
      <trkpt lat="46.61667" lon="-1.40518">
        <ele>15</ele>
        <time>2021-12-24T11:45:41Z</time>
      </trkpt>
      <trkpt lat="46.61664" lon="-1.40511">
        <ele>15</ele>
        <time>2021-12-24T11:45:43Z</time>
      </trkpt>
      <trkpt lat="46.6166" lon="-1.40501">
        <ele>15</ele>
        <time>2021-12-24T11:45:45Z</time>
      </trkpt>
      <trkpt lat="46.61656" lon="-1.40491">
        <ele>15</ele>
        <time>2021-12-24T11:45:47Z</time>
      </trkpt>
      <trkpt lat="46.61654" lon="-1.40486">
        <ele>15.2</ele>
        <time>2021-12-24T11:45:48Z</time>
      </trkpt>
      <trkpt lat="46.61652" lon="-1.4048">
        <ele>15.2</ele>
        <time>2021-12-24T11:45:49Z</time>
      </trkpt>
      <trkpt lat="46.61648" lon="-1.4047">
        <ele>15.2</ele>
        <time>2021-12-24T11:45:51Z</time>
      </trkpt>
      <trkpt lat="46.61644" lon="-1.40459">
        <ele>15.2</ele>
        <time>2021-12-24T11:45:53Z</time>
      </trkpt>
      <trkpt lat="46.61641" lon="-1.40448">
        <ele>15.2</ele>
        <time>2021-12-24T11:45:55Z</time>
      </trkpt>
      <trkpt lat="46.61637" lon="-1.40438">
        <ele>15.4</ele>
        <time>2021-12-24T11:45:57Z</time>
      </trkpt>
      <trkpt lat="46.61634" lon="-1.40432">
        <ele>15.4</ele>
        <time>2021-12-24T11:45:58Z</time>
      </trkpt>
      <trkpt lat="46.61632" lon="-1.40427">
        <ele>15.6</ele>
        <time>2021-12-24T11:45:59Z</time>
      </trkpt>
      <trkpt lat="46.61627" lon="-1.40417">
        <ele>15.8</ele>
        <time>2021-12-24T11:46:01Z</time>
      </trkpt>
      <trkpt lat="46.61621" lon="-1.40408">
        <ele>16</ele>
        <time>2021-12-24T11:46:03Z</time>
      </trkpt>
      <trkpt lat="46.61618" lon="-1.40403">
        <ele>16</ele>
        <time>2021-12-24T11:46:04Z</time>
      </trkpt>
      <trkpt lat="46.61614" lon="-1.40398">
        <ele>16</ele>
        <time>2021-12-24T11:46:05Z</time>
      </trkpt>
      <trkpt lat="46.61608" lon="-1.40387">
        <ele>16.2</ele>
        <time>2021-12-24T11:46:07Z</time>
      </trkpt>
      <trkpt lat="46.61605" lon="-1.40382">
        <ele>16.4</ele>
        <time>2021-12-24T11:46:08Z</time>
      </trkpt>
      <trkpt lat="46.61603" lon="-1.40377">
        <ele>16.4</ele>
        <time>2021-12-24T11:46:09Z</time>
      </trkpt>
      <trkpt lat="46.616" lon="-1.40371">
        <ele>16.6</ele>
        <time>2021-12-24T11:46:10Z</time>
      </trkpt>
      <trkpt lat="46.61597" lon="-1.40365">
        <ele>16.6</ele>
        <time>2021-12-24T11:46:11Z</time>
      </trkpt>
      <trkpt lat="46.61593" lon="-1.40355">
        <ele>16.8</ele>
        <time>2021-12-24T11:46:13Z</time>
      </trkpt>
      <trkpt lat="46.6159" lon="-1.40344">
        <ele>17</ele>
        <time>2021-12-24T11:46:15Z</time>
      </trkpt>
      <trkpt lat="46.61589" lon="-1.4034">
        <ele>17</ele>
        <time>2021-12-24T11:46:16Z</time>
      </trkpt>
      <trkpt lat="46.61588" lon="-1.40337">
        <ele>17</ele>
        <time>2021-12-24T11:46:17Z</time>
      </trkpt>
      <trkpt lat="46.61584" lon="-1.40329">
        <ele>17</ele>
        <time>2021-12-24T11:46:19Z</time>
      </trkpt>
      <trkpt lat="46.61582" lon="-1.40318">
        <ele>17</ele>
        <time>2021-12-24T11:46:21Z</time>
      </trkpt>
      <trkpt lat="46.61579" lon="-1.40306">
        <ele>17</ele>
        <time>2021-12-24T11:46:23Z</time>
      </trkpt>
      <trkpt lat="46.61578" lon="-1.403">
        <ele>16.8</ele>
        <time>2021-12-24T11:46:24Z</time>
      </trkpt>
      <trkpt lat="46.61577" lon="-1.40294">
        <ele>16.8</ele>
        <time>2021-12-24T11:46:25Z</time>
      </trkpt>
      <trkpt lat="46.61575" lon="-1.40281">
        <ele>17</ele>
        <time>2021-12-24T11:46:27Z</time>
      </trkpt>
      <trkpt lat="46.61573" lon="-1.40268">
        <ele>17</ele>
        <time>2021-12-24T11:46:29Z</time>
      </trkpt>
      <trkpt lat="46.61572" lon="-1.40261">
        <ele>17.2</ele>
        <time>2021-12-24T11:46:30Z</time>
      </trkpt>
      <trkpt lat="46.6157" lon="-1.40255">
        <ele>17.2</ele>
        <time>2021-12-24T11:46:31Z</time>
      </trkpt>
      <trkpt lat="46.61568" lon="-1.40249">
        <ele>17.4</ele>
        <time>2021-12-24T11:46:32Z</time>
      </trkpt>
      <trkpt lat="46.61566" lon="-1.40243">
        <ele>17.6</ele>
        <time>2021-12-24T11:46:33Z</time>
      </trkpt>
      <trkpt lat="46.61563" lon="-1.4023">
        <ele>17.6</ele>
        <time>2021-12-24T11:46:35Z</time>
      </trkpt>
      <trkpt lat="46.61561" lon="-1.40217">
        <ele>17.8</ele>
        <time>2021-12-24T11:46:37Z</time>
      </trkpt>
      <trkpt lat="46.61558" lon="-1.40205">
        <ele>18</ele>
        <time>2021-12-24T11:46:39Z</time>
      </trkpt>
      <trkpt lat="46.61557" lon="-1.40199">
        <ele>18</ele>
        <time>2021-12-24T11:46:40Z</time>
      </trkpt>
      <trkpt lat="46.61556" lon="-1.40193">
        <ele>18</ele>
        <time>2021-12-24T11:46:41Z</time>
      </trkpt>
      <trkpt lat="46.61554" lon="-1.40181">
        <ele>18.2</ele>
        <time>2021-12-24T11:46:43Z</time>
      </trkpt>
      <trkpt lat="46.61552" lon="-1.4017">
        <ele>18</ele>
        <time>2021-12-24T11:46:45Z</time>
      </trkpt>
      <trkpt lat="46.6155" lon="-1.40165">
        <ele>18</ele>
        <time>2021-12-24T11:46:46Z</time>
      </trkpt>
      <trkpt lat="46.61549" lon="-1.40159">
        <ele>18</ele>
        <time>2021-12-24T11:46:47Z</time>
      </trkpt>
      <trkpt lat="46.61546" lon="-1.40147">
        <ele>17.8</ele>
        <time>2021-12-24T11:46:49Z</time>
      </trkpt>
      <trkpt lat="46.61544" lon="-1.4014">
        <ele>17.8</ele>
        <time>2021-12-24T11:46:50Z</time>
      </trkpt>
      <trkpt lat="46.61542" lon="-1.40135">
        <ele>17.8</ele>
        <time>2021-12-24T11:46:51Z</time>
      </trkpt>
      <trkpt lat="46.6154" lon="-1.40129">
        <ele>17.8</ele>
        <time>2021-12-24T11:46:52Z</time>
      </trkpt>
      <trkpt lat="46.61538" lon="-1.40123">
        <ele>17.8</ele>
        <time>2021-12-24T11:46:53Z</time>
      </trkpt>
      <trkpt lat="46.61533" lon="-1.40113">
        <ele>18</ele>
        <time>2021-12-24T11:46:55Z</time>
      </trkpt>
      <trkpt lat="46.61528" lon="-1.40103">
        <ele>17.6</ele>
        <time>2021-12-24T11:46:57Z</time>
      </trkpt>
      <trkpt lat="46.61525" lon="-1.40098">
        <ele>17.4</ele>
        <time>2021-12-24T11:46:58Z</time>
      </trkpt>
      <trkpt lat="46.61522" lon="-1.40094">
        <ele>17.2</ele>
        <time>2021-12-24T11:46:59Z</time>
      </trkpt>
      <trkpt lat="46.61518" lon="-1.40086">
        <ele>17.4</ele>
        <time>2021-12-24T11:47:01Z</time>
      </trkpt>
      <trkpt lat="46.61515" lon="-1.40076">
        <ele>17.4</ele>
        <time>2021-12-24T11:47:03Z</time>
      </trkpt>
      <trkpt lat="46.61513" lon="-1.40067">
        <ele>17.2</ele>
        <time>2021-12-24T11:47:05Z</time>
      </trkpt>
      <trkpt lat="46.61511" lon="-1.40058">
        <ele>17.2</ele>
        <time>2021-12-24T11:47:07Z</time>
      </trkpt>
      <trkpt lat="46.61509" lon="-1.40054">
        <ele>17</ele>
        <time>2021-12-24T11:47:08Z</time>
      </trkpt>
      <trkpt lat="46.61507" lon="-1.40052">
        <ele>17</ele>
        <time>2021-12-24T11:47:09Z</time>
      </trkpt>
      <trkpt lat="46.615" lon="-1.40051">
        <ele>16.8</ele>
        <time>2021-12-24T11:47:11Z</time>
      </trkpt>
      <trkpt lat="46.61497" lon="-1.40051">
        <ele>16.8</ele>
        <time>2021-12-24T11:47:12Z</time>
      </trkpt>
      <trkpt lat="46.61493" lon="-1.40051">
        <ele>16.6</ele>
        <time>2021-12-24T11:47:13Z</time>
      </trkpt>
      <trkpt lat="46.61485" lon="-1.40049">
        <ele>17</ele>
        <time>2021-12-24T11:47:15Z</time>
      </trkpt>
      <trkpt lat="46.61481" lon="-1.40049">
        <ele>17</ele>
        <time>2021-12-24T11:47:16Z</time>
      </trkpt>
      <trkpt lat="46.61477" lon="-1.40049">
        <ele>17</ele>
        <time>2021-12-24T11:47:17Z</time>
      </trkpt>
      <trkpt lat="46.61469" lon="-1.40049">
        <ele>17</ele>
        <time>2021-12-24T11:47:19Z</time>
      </trkpt>
      <trkpt lat="46.61461" lon="-1.4005">
        <ele>17</ele>
        <time>2021-12-24T11:47:21Z</time>
      </trkpt>
      <trkpt lat="46.61453" lon="-1.40052">
        <ele>16.8</ele>
        <time>2021-12-24T11:47:23Z</time>
      </trkpt>
      <trkpt lat="46.61447" lon="-1.40053">
        <ele>16.4</ele>
        <time>2021-12-24T11:47:25Z</time>
      </trkpt>
      <trkpt lat="46.61441" lon="-1.40053">
        <ele>15.6</ele>
        <time>2021-12-24T11:47:27Z</time>
      </trkpt>
      <trkpt lat="46.61433" lon="-1.4005">
        <ele>15.2</ele>
        <time>2021-12-24T11:47:29Z</time>
      </trkpt>
      <trkpt lat="46.61426" lon="-1.40049">
        <ele>14.4</ele>
        <time>2021-12-24T11:47:31Z</time>
      </trkpt>
      <trkpt lat="46.61417" lon="-1.40044">
        <ele>14.4</ele>
        <time>2021-12-24T11:47:33Z</time>
      </trkpt>
      <trkpt lat="46.61407" lon="-1.40038">
        <ele>14.6</ele>
        <time>2021-12-24T11:47:35Z</time>
      </trkpt>
      <trkpt lat="46.61397" lon="-1.40036">
        <ele>14.6</ele>
        <time>2021-12-24T11:47:37Z</time>
      </trkpt>
      <trkpt lat="46.6139" lon="-1.40033">
        <ele>14.8</ele>
        <time>2021-12-24T11:47:39Z</time>
      </trkpt>
      <trkpt lat="46.61383" lon="-1.40031">
        <ele>14.8</ele>
        <time>2021-12-24T11:47:41Z</time>
      </trkpt>
      <trkpt lat="46.61379" lon="-1.40029">
        <ele>14.8</ele>
        <time>2021-12-24T11:47:42Z</time>
      </trkpt>
      <trkpt lat="46.61376" lon="-1.40029">
        <ele>14.8</ele>
        <time>2021-12-24T11:47:43Z</time>
      </trkpt>
      <trkpt lat="46.6137" lon="-1.40028">
        <ele>14.8</ele>
        <time>2021-12-24T11:47:45Z</time>
      </trkpt>
      <trkpt lat="46.61363" lon="-1.40027">
        <ele>14.6</ele>
        <time>2021-12-24T11:47:47Z</time>
      </trkpt>
      <trkpt lat="46.61356" lon="-1.40026">
        <ele>14.6</ele>
        <time>2021-12-24T11:47:49Z</time>
      </trkpt>
      <trkpt lat="46.61348" lon="-1.40025">
        <ele>14.6</ele>
        <time>2021-12-24T11:47:51Z</time>
      </trkpt>
      <trkpt lat="46.6134" lon="-1.40024">
        <ele>14.4</ele>
        <time>2021-12-24T11:47:53Z</time>
      </trkpt>
      <trkpt lat="46.61332" lon="-1.40022">
        <ele>14.2</ele>
        <time>2021-12-24T11:47:55Z</time>
      </trkpt>
      <trkpt lat="46.61323" lon="-1.4002">
        <ele>14</ele>
        <time>2021-12-24T11:47:57Z</time>
      </trkpt>
      <trkpt lat="46.61314" lon="-1.40017">
        <ele>14</ele>
        <time>2021-12-24T11:47:59Z</time>
      </trkpt>
      <trkpt lat="46.61309" lon="-1.40015">
        <ele>14.2</ele>
        <time>2021-12-24T11:48:00Z</time>
      </trkpt>
      <trkpt lat="46.61305" lon="-1.40013">
        <ele>14.2</ele>
        <time>2021-12-24T11:48:01Z</time>
      </trkpt>
      <trkpt lat="46.61296" lon="-1.40009">
        <ele>14.2</ele>
        <time>2021-12-24T11:48:03Z</time>
      </trkpt>
      <trkpt lat="46.61287" lon="-1.40005">
        <ele>14.2</ele>
        <time>2021-12-24T11:48:05Z</time>
      </trkpt>
      <trkpt lat="46.61283" lon="-1.40003">
        <ele>14.6</ele>
        <time>2021-12-24T11:48:06Z</time>
      </trkpt>
      <trkpt lat="46.61279" lon="-1.40001">
        <ele>15</ele>
        <time>2021-12-24T11:48:07Z</time>
      </trkpt>
      <trkpt lat="46.61273" lon="-1.39993">
        <ele>14.8</ele>
        <time>2021-12-24T11:48:09Z</time>
      </trkpt>
      <trkpt lat="46.61271" lon="-1.39987">
        <ele>14.8</ele>
        <time>2021-12-24T11:48:10Z</time>
      </trkpt>
      <trkpt lat="46.61269" lon="-1.39981">
        <ele>15</ele>
        <time>2021-12-24T11:48:11Z</time>
      </trkpt>
      <trkpt lat="46.61264" lon="-1.3997">
        <ele>15</ele>
        <time>2021-12-24T11:48:13Z</time>
      </trkpt>
      <trkpt lat="46.61259" lon="-1.39958">
        <ele>15</ele>
        <time>2021-12-24T11:48:15Z</time>
      </trkpt>
      <trkpt lat="46.61254" lon="-1.39946">
        <ele>15.4</ele>
        <time>2021-12-24T11:48:17Z</time>
      </trkpt>
      <trkpt lat="46.6125" lon="-1.39934">
        <ele>15.6</ele>
        <time>2021-12-24T11:48:19Z</time>
      </trkpt>
      <trkpt lat="46.61247" lon="-1.39924">
        <ele>15.8</ele>
        <time>2021-12-24T11:48:21Z</time>
      </trkpt>
      <trkpt lat="46.61244" lon="-1.39915">
        <ele>16</ele>
        <time>2021-12-24T11:48:23Z</time>
      </trkpt>
      <trkpt lat="46.6124" lon="-1.39908">
        <ele>16</ele>
        <time>2021-12-24T11:48:25Z</time>
      </trkpt>
      <trkpt lat="46.61235" lon="-1.39901">
        <ele>16.2</ele>
        <time>2021-12-24T11:48:27Z</time>
      </trkpt>
      <trkpt lat="46.61232" lon="-1.39898">
        <ele>16.2</ele>
        <time>2021-12-24T11:48:28Z</time>
      </trkpt>
      <trkpt lat="46.6123" lon="-1.39896">
        <ele>16.2</ele>
        <time>2021-12-24T11:48:29Z</time>
      </trkpt>
      <trkpt lat="46.61228" lon="-1.3989">
        <ele>16.2</ele>
        <time>2021-12-24T11:48:31Z</time>
      </trkpt>
      <trkpt lat="46.61227" lon="-1.39886">
        <ele>16.2</ele>
        <time>2021-12-24T11:48:32Z</time>
      </trkpt>
      <trkpt lat="46.61227" lon="-1.39882">
        <ele>16.2</ele>
        <time>2021-12-24T11:48:33Z</time>
      </trkpt>
      <trkpt lat="46.61223" lon="-1.39874">
        <ele>16.2</ele>
        <time>2021-12-24T11:48:35Z</time>
      </trkpt>
      <trkpt lat="46.61221" lon="-1.39872">
        <ele>16.2</ele>
        <time>2021-12-24T11:48:36Z</time>
      </trkpt>
      <trkpt lat="46.61218" lon="-1.39869">
        <ele>16.2</ele>
        <time>2021-12-24T11:48:37Z</time>
      </trkpt>
      <trkpt lat="46.61212" lon="-1.39865">
        <ele>16</ele>
        <time>2021-12-24T11:48:39Z</time>
      </trkpt>
      <trkpt lat="46.61206" lon="-1.39861">
        <ele>16</ele>
        <time>2021-12-24T11:48:41Z</time>
      </trkpt>
      <trkpt lat="46.61203" lon="-1.39859">
        <ele>16.4</ele>
        <time>2021-12-24T11:48:42Z</time>
      </trkpt>
      <trkpt lat="46.61199" lon="-1.39858">
        <ele>16.4</ele>
        <time>2021-12-24T11:48:43Z</time>
      </trkpt>
      <trkpt lat="46.61193" lon="-1.39855">
        <ele>15.2</ele>
        <time>2021-12-24T11:48:45Z</time>
      </trkpt>
      <trkpt lat="46.61187" lon="-1.39852">
        <ele>15.6</ele>
        <time>2021-12-24T11:48:47Z</time>
      </trkpt>
      <trkpt lat="46.6118" lon="-1.39848">
        <ele>15.4</ele>
        <time>2021-12-24T11:48:49Z</time>
      </trkpt>
      <trkpt lat="46.61173" lon="-1.39844">
        <ele>15.4</ele>
        <time>2021-12-24T11:48:51Z</time>
      </trkpt>
      <trkpt lat="46.61166" lon="-1.39841">
        <ele>15.4</ele>
        <time>2021-12-24T11:48:53Z</time>
      </trkpt>
      <trkpt lat="46.61159" lon="-1.39838">
        <ele>15.4</ele>
        <time>2021-12-24T11:48:55Z</time>
      </trkpt>
      <trkpt lat="46.61152" lon="-1.39837">
        <ele>15.2</ele>
        <time>2021-12-24T11:48:57Z</time>
      </trkpt>
      <trkpt lat="46.61145" lon="-1.39836">
        <ele>15</ele>
        <time>2021-12-24T11:48:59Z</time>
      </trkpt>
      <trkpt lat="46.61138" lon="-1.39836">
        <ele>14.8</ele>
        <time>2021-12-24T11:49:01Z</time>
      </trkpt>
      <trkpt lat="46.61132" lon="-1.39833">
        <ele>14.6</ele>
        <time>2021-12-24T11:49:03Z</time>
      </trkpt>
      <trkpt lat="46.61129" lon="-1.39825">
        <ele>14.2</ele>
        <time>2021-12-24T11:49:05Z</time>
      </trkpt>
      <trkpt lat="46.61128" lon="-1.39822">
        <ele>14</ele>
        <time>2021-12-24T11:49:06Z</time>
      </trkpt>
      <trkpt lat="46.61128" lon="-1.39818">
        <ele>13.8</ele>
        <time>2021-12-24T11:49:07Z</time>
      </trkpt>
      <trkpt lat="46.61129" lon="-1.39807">
        <ele>13.6</ele>
        <time>2021-12-24T11:49:09Z</time>
      </trkpt>
      <trkpt lat="46.61129" lon="-1.39795">
        <ele>13.4</ele>
        <time>2021-12-24T11:49:11Z</time>
      </trkpt>
      <trkpt lat="46.61132" lon="-1.39783">
        <ele>13.4</ele>
        <time>2021-12-24T11:49:13Z</time>
      </trkpt>
      <trkpt lat="46.61134" lon="-1.39772">
        <ele>13.6</ele>
        <time>2021-12-24T11:49:15Z</time>
      </trkpt>
      <trkpt lat="46.61136" lon="-1.39761">
        <ele>13.8</ele>
        <time>2021-12-24T11:49:17Z</time>
      </trkpt>
      <trkpt lat="46.61137" lon="-1.39755">
        <ele>14.2</ele>
        <time>2021-12-24T11:49:18Z</time>
      </trkpt>
      <trkpt lat="46.61138" lon="-1.39749">
        <ele>13.2</ele>
        <time>2021-12-24T11:49:19Z</time>
      </trkpt>
      <trkpt lat="46.61138" lon="-1.39739">
        <ele>14.8</ele>
        <time>2021-12-24T11:49:21Z</time>
      </trkpt>
      <trkpt lat="46.61139" lon="-1.39729">
        <ele>14.8</ele>
        <time>2021-12-24T11:49:23Z</time>
      </trkpt>
      <trkpt lat="46.6114" lon="-1.39721">
        <ele>15.2</ele>
        <time>2021-12-24T11:49:25Z</time>
      </trkpt>
      <trkpt lat="46.61141" lon="-1.39712">
        <ele>15.4</ele>
        <time>2021-12-24T11:49:27Z</time>
      </trkpt>
      <trkpt lat="46.61142" lon="-1.39708">
        <ele>15.6</ele>
        <time>2021-12-24T11:49:28Z</time>
      </trkpt>
      <trkpt lat="46.61142" lon="-1.39704">
        <ele>15.6</ele>
        <time>2021-12-24T11:49:29Z</time>
      </trkpt>
      <trkpt lat="46.61143" lon="-1.39694">
        <ele>15.6</ele>
        <time>2021-12-24T11:49:31Z</time>
      </trkpt>
      <trkpt lat="46.61144" lon="-1.39689">
        <ele>15.8</ele>
        <time>2021-12-24T11:49:32Z</time>
      </trkpt>
      <trkpt lat="46.61146" lon="-1.39684">
        <ele>15.8</ele>
        <time>2021-12-24T11:49:33Z</time>
      </trkpt>
      <trkpt lat="46.6115" lon="-1.39675">
        <ele>16.2</ele>
        <time>2021-12-24T11:49:35Z</time>
      </trkpt>
      <trkpt lat="46.61151" lon="-1.39672">
        <ele>16.4</ele>
        <time>2021-12-24T11:49:36Z</time>
      </trkpt>
      <trkpt lat="46.6115" lon="-1.39668">
        <ele>16.4</ele>
        <time>2021-12-24T11:49:37Z</time>
      </trkpt>
      <trkpt lat="46.61148" lon="-1.39661">
        <ele>16.4</ele>
        <time>2021-12-24T11:49:39Z</time>
      </trkpt>
      <trkpt lat="46.61145" lon="-1.39654">
        <ele>16.4</ele>
        <time>2021-12-24T11:49:41Z</time>
      </trkpt>
      <trkpt lat="46.61141" lon="-1.39648">
        <ele>16.4</ele>
        <time>2021-12-24T11:49:43Z</time>
      </trkpt>
      <trkpt lat="46.61135" lon="-1.39642">
        <ele>16.4</ele>
        <time>2021-12-24T11:49:45Z</time>
      </trkpt>
      <trkpt lat="46.61128" lon="-1.39637">
        <ele>16.6</ele>
        <time>2021-12-24T11:49:47Z</time>
      </trkpt>
      <trkpt lat="46.61122" lon="-1.39632">
        <ele>16.6</ele>
        <time>2021-12-24T11:49:49Z</time>
      </trkpt>
      <trkpt lat="46.61118" lon="-1.3963">
        <ele>16.8</ele>
        <time>2021-12-24T11:49:50Z</time>
      </trkpt>
      <trkpt lat="46.61114" lon="-1.39628">
        <ele>16.8</ele>
        <time>2021-12-24T11:49:51Z</time>
      </trkpt>
      <trkpt lat="46.61106" lon="-1.39624">
        <ele>17.2</ele>
        <time>2021-12-24T11:49:53Z</time>
      </trkpt>
      <trkpt lat="46.61103" lon="-1.39622">
        <ele>17.2</ele>
        <time>2021-12-24T11:49:54Z</time>
      </trkpt>
      <trkpt lat="46.61099" lon="-1.39621">
        <ele>17.4</ele>
        <time>2021-12-24T11:49:55Z</time>
      </trkpt>
      <trkpt lat="46.61094" lon="-1.39618">
        <ele>17.6</ele>
        <time>2021-12-24T11:49:56Z</time>
      </trkpt>
      <trkpt lat="46.6109" lon="-1.39615">
        <ele>17.6</ele>
        <time>2021-12-24T11:49:57Z</time>
      </trkpt>
      <trkpt lat="46.61081" lon="-1.39611">
        <ele>17.8</ele>
        <time>2021-12-24T11:49:59Z</time>
      </trkpt>
      <trkpt lat="46.61072" lon="-1.39607">
        <ele>18</ele>
        <time>2021-12-24T11:50:01Z</time>
      </trkpt>
      <trkpt lat="46.61064" lon="-1.39601">
        <ele>18.2</ele>
        <time>2021-12-24T11:50:03Z</time>
      </trkpt>
      <trkpt lat="46.61059" lon="-1.39599">
        <ele>18.2</ele>
        <time>2021-12-24T11:50:04Z</time>
      </trkpt>
      <trkpt lat="46.61055" lon="-1.39597">
        <ele>18.4</ele>
        <time>2021-12-24T11:50:05Z</time>
      </trkpt>
      <trkpt lat="46.61046" lon="-1.39592">
        <ele>18.6</ele>
        <time>2021-12-24T11:50:07Z</time>
      </trkpt>
      <trkpt lat="46.61038" lon="-1.39586">
        <ele>18.8</ele>
        <time>2021-12-24T11:50:09Z</time>
      </trkpt>
      <trkpt lat="46.6103" lon="-1.3958">
        <ele>18.8</ele>
        <time>2021-12-24T11:50:11Z</time>
      </trkpt>
      <trkpt lat="46.61023" lon="-1.39574">
        <ele>19</ele>
        <time>2021-12-24T11:50:13Z</time>
      </trkpt>
      <trkpt lat="46.61019" lon="-1.39571">
        <ele>19</ele>
        <time>2021-12-24T11:50:14Z</time>
      </trkpt>
      <trkpt lat="46.61015" lon="-1.39567">
        <ele>19.2</ele>
        <time>2021-12-24T11:50:15Z</time>
      </trkpt>
      <trkpt lat="46.61008" lon="-1.3956">
        <ele>19.2</ele>
        <time>2021-12-24T11:50:17Z</time>
      </trkpt>
      <trkpt lat="46.61004" lon="-1.39557">
        <ele>19.4</ele>
        <time>2021-12-24T11:50:18Z</time>
      </trkpt>
      <trkpt lat="46.61" lon="-1.39554">
        <ele>19.4</ele>
        <time>2021-12-24T11:50:19Z</time>
      </trkpt>
      <trkpt lat="46.60996" lon="-1.39551">
        <ele>19.4</ele>
        <time>2021-12-24T11:50:20Z</time>
      </trkpt>
      <trkpt lat="46.60993" lon="-1.39547">
        <ele>19.6</ele>
        <time>2021-12-24T11:50:21Z</time>
      </trkpt>
      <trkpt lat="46.60986" lon="-1.39539">
        <ele>19.6</ele>
        <time>2021-12-24T11:50:23Z</time>
      </trkpt>
      <trkpt lat="46.6098" lon="-1.39531">
        <ele>19.6</ele>
        <time>2021-12-24T11:50:25Z</time>
      </trkpt>
      <trkpt lat="46.60977" lon="-1.39524">
        <ele>19.6</ele>
        <time>2021-12-24T11:50:27Z</time>
      </trkpt>
      <trkpt lat="46.60972" lon="-1.39517">
        <ele>19.4</ele>
        <time>2021-12-24T11:50:29Z</time>
      </trkpt>
      <trkpt lat="46.60968" lon="-1.39509">
        <ele>19.2</ele>
        <time>2021-12-24T11:50:31Z</time>
      </trkpt>
      <trkpt lat="46.60965" lon="-1.39505">
        <ele>19.2</ele>
        <time>2021-12-24T11:50:32Z</time>
      </trkpt>
      <trkpt lat="46.60961" lon="-1.395">
        <ele>20</ele>
        <time>2021-12-24T11:50:33Z</time>
      </trkpt>
      <trkpt lat="46.60955" lon="-1.39491">
        <ele>19.6</ele>
        <time>2021-12-24T11:50:35Z</time>
      </trkpt>
      <trkpt lat="46.60949" lon="-1.39482">
        <ele>19</ele>
        <time>2021-12-24T11:50:37Z</time>
      </trkpt>
      <trkpt lat="46.60942" lon="-1.39474">
        <ele>19</ele>
        <time>2021-12-24T11:50:39Z</time>
      </trkpt>
      <trkpt lat="46.60935" lon="-1.39467">
        <ele>19.2</ele>
        <time>2021-12-24T11:50:41Z</time>
      </trkpt>
      <trkpt lat="46.60928" lon="-1.3946">
        <ele>19.4</ele>
        <time>2021-12-24T11:50:43Z</time>
      </trkpt>
      <trkpt lat="46.60925" lon="-1.39457">
        <ele>19.2</ele>
        <time>2021-12-24T11:50:44Z</time>
      </trkpt>
      <trkpt lat="46.60921" lon="-1.39454">
        <ele>19.2</ele>
        <time>2021-12-24T11:50:45Z</time>
      </trkpt>
      <trkpt lat="46.60914" lon="-1.39448">
        <ele>19.4</ele>
        <time>2021-12-24T11:50:47Z</time>
      </trkpt>
      <trkpt lat="46.60907" lon="-1.39439">
        <ele>19.6</ele>
        <time>2021-12-24T11:50:49Z</time>
      </trkpt>
      <trkpt lat="46.609" lon="-1.39432">
        <ele>19.8</ele>
        <time>2021-12-24T11:50:51Z</time>
      </trkpt>
      <trkpt lat="46.60893" lon="-1.39424">
        <ele>19.8</ele>
        <time>2021-12-24T11:50:53Z</time>
      </trkpt>
      <trkpt lat="46.6089" lon="-1.39419">
        <ele>20</ele>
        <time>2021-12-24T11:50:54Z</time>
      </trkpt>
      <trkpt lat="46.60886" lon="-1.39414">
        <ele>20</ele>
        <time>2021-12-24T11:50:55Z</time>
      </trkpt>
      <trkpt lat="46.6088" lon="-1.39407">
        <ele>20</ele>
        <time>2021-12-24T11:50:57Z</time>
      </trkpt>
      <trkpt lat="46.60873" lon="-1.39399">
        <ele>20</ele>
        <time>2021-12-24T11:50:59Z</time>
      </trkpt>
      <trkpt lat="46.60865" lon="-1.39392">
        <ele>20</ele>
        <time>2021-12-24T11:51:01Z</time>
      </trkpt>
      <trkpt lat="46.60858" lon="-1.39383">
        <ele>20.2</ele>
        <time>2021-12-24T11:51:03Z</time>
      </trkpt>
      <trkpt lat="46.60853" lon="-1.39374">
        <ele>20.6</ele>
        <time>2021-12-24T11:51:05Z</time>
      </trkpt>
      <trkpt lat="46.6085" lon="-1.39365">
        <ele>20.6</ele>
        <time>2021-12-24T11:51:07Z</time>
      </trkpt>
      <trkpt lat="46.60847" lon="-1.39361">
        <ele>20.6</ele>
        <time>2021-12-24T11:51:08Z</time>
      </trkpt>
      <trkpt lat="46.60844" lon="-1.39356">
        <ele>20.6</ele>
        <time>2021-12-24T11:51:09Z</time>
      </trkpt>
      <trkpt lat="46.60837" lon="-1.39346">
        <ele>20.6</ele>
        <time>2021-12-24T11:51:11Z</time>
      </trkpt>
      <trkpt lat="46.6083" lon="-1.39335">
        <ele>20.6</ele>
        <time>2021-12-24T11:51:13Z</time>
      </trkpt>
      <trkpt lat="46.60822" lon="-1.39325">
        <ele>20.8</ele>
        <time>2021-12-24T11:51:15Z</time>
      </trkpt>
      <trkpt lat="46.60814" lon="-1.39315">
        <ele>21</ele>
        <time>2021-12-24T11:51:17Z</time>
      </trkpt>
      <trkpt lat="46.60805" lon="-1.39306">
        <ele>21</ele>
        <time>2021-12-24T11:51:19Z</time>
      </trkpt>
      <trkpt lat="46.60795" lon="-1.39299">
        <ele>21.2</ele>
        <time>2021-12-24T11:51:21Z</time>
      </trkpt>
      <trkpt lat="46.60785" lon="-1.39292">
        <ele>21.2</ele>
        <time>2021-12-24T11:51:23Z</time>
      </trkpt>
      <trkpt lat="46.6078" lon="-1.39289">
        <ele>21.2</ele>
        <time>2021-12-24T11:51:24Z</time>
      </trkpt>
      <trkpt lat="46.60774" lon="-1.39286">
        <ele>21.2</ele>
        <time>2021-12-24T11:51:25Z</time>
      </trkpt>
      <trkpt lat="46.60763" lon="-1.39278">
        <ele>21.4</ele>
        <time>2021-12-24T11:51:27Z</time>
      </trkpt>
      <trkpt lat="46.6075" lon="-1.3927">
        <ele>21.2</ele>
        <time>2021-12-24T11:51:29Z</time>
      </trkpt>
      <trkpt lat="46.60737" lon="-1.39262">
        <ele>21.2</ele>
        <time>2021-12-24T11:51:31Z</time>
      </trkpt>
      <trkpt lat="46.60724" lon="-1.39252">
        <ele>21</ele>
        <time>2021-12-24T11:51:33Z</time>
      </trkpt>
      <trkpt lat="46.6071" lon="-1.39243">
        <ele>21.4</ele>
        <time>2021-12-24T11:51:35Z</time>
      </trkpt>
      <trkpt lat="46.60703" lon="-1.39238">
        <ele>21</ele>
        <time>2021-12-24T11:51:36Z</time>
      </trkpt>
      <trkpt lat="46.60697" lon="-1.39233">
        <ele>20.8</ele>
        <time>2021-12-24T11:51:37Z</time>
      </trkpt>
      <trkpt lat="46.60687" lon="-1.39223">
        <ele>21</ele>
        <time>2021-12-24T11:51:39Z</time>
      </trkpt>
      <trkpt lat="46.60682" lon="-1.39221">
        <ele>20.6</ele>
        <time>2021-12-24T11:51:40Z</time>
      </trkpt>
      <trkpt lat="46.60676" lon="-1.39219">
        <ele>20.6</ele>
        <time>2021-12-24T11:51:41Z</time>
      </trkpt>
      <trkpt lat="46.60664" lon="-1.39217">
        <ele>20.8</ele>
        <time>2021-12-24T11:51:43Z</time>
      </trkpt>
      <trkpt lat="46.60658" lon="-1.39217">
        <ele>20.6</ele>
        <time>2021-12-24T11:51:44Z</time>
      </trkpt>
      <trkpt lat="46.60652" lon="-1.39216">
        <ele>20.4</ele>
        <time>2021-12-24T11:51:45Z</time>
      </trkpt>
      <trkpt lat="46.60643" lon="-1.39215">
        <ele>20.2</ele>
        <time>2021-12-24T11:51:47Z</time>
      </trkpt>
      <trkpt lat="46.60636" lon="-1.39217">
        <ele>20</ele>
        <time>2021-12-24T11:51:49Z</time>
      </trkpt>
      <trkpt lat="46.60634" lon="-1.39218">
        <ele>20</ele>
        <time>2021-12-24T11:51:50Z</time>
      </trkpt>
      <trkpt lat="46.60634" lon="-1.39218">
        <ele>19.8</ele>
        <time>2021-12-24T11:51:51Z</time>
      </trkpt>
      <trkpt lat="46.60633" lon="-1.39219">
        <ele>19.6</ele>
        <time>2021-12-24T11:51:53Z</time>
      </trkpt>
      <trkpt lat="46.60619" lon="-1.39218">
        <ele>20.2</ele>
        <time>2021-12-24T11:52:17Z</time>
      </trkpt>
      <trkpt lat="46.60616" lon="-1.39221">
        <ele>20.2</ele>
        <time>2021-12-24T11:52:19Z</time>
      </trkpt>
      <trkpt lat="46.60614" lon="-1.39222">
        <ele>20.2</ele>
        <time>2021-12-24T11:52:20Z</time>
      </trkpt>
      <trkpt lat="46.60612" lon="-1.39225">
        <ele>20.2</ele>
        <time>2021-12-24T11:52:21Z</time>
      </trkpt>
      <trkpt lat="46.60606" lon="-1.39231">
        <ele>20</ele>
        <time>2021-12-24T11:52:23Z</time>
      </trkpt>
      <trkpt lat="46.60599" lon="-1.39239">
        <ele>20.2</ele>
        <time>2021-12-24T11:52:25Z</time>
      </trkpt>
      <trkpt lat="46.60591" lon="-1.39247">
        <ele>20.2</ele>
        <time>2021-12-24T11:52:27Z</time>
      </trkpt>
      <trkpt lat="46.60583" lon="-1.39256">
        <ele>20.4</ele>
        <time>2021-12-24T11:52:29Z</time>
      </trkpt>
      <trkpt lat="46.60574" lon="-1.39265">
        <ele>20.6</ele>
        <time>2021-12-24T11:52:31Z</time>
      </trkpt>
      <trkpt lat="46.6057" lon="-1.3927">
        <ele>20.6</ele>
        <time>2021-12-24T11:52:32Z</time>
      </trkpt>
      <trkpt lat="46.60567" lon="-1.39276">
        <ele>20.6</ele>
        <time>2021-12-24T11:52:33Z</time>
      </trkpt>
      <trkpt lat="46.60562" lon="-1.39291">
        <ele>20.8</ele>
        <time>2021-12-24T11:52:35Z</time>
      </trkpt>
      <trkpt lat="46.6056" lon="-1.39298">
        <ele>20.8</ele>
        <time>2021-12-24T11:52:36Z</time>
      </trkpt>
      <trkpt lat="46.60559" lon="-1.39306">
        <ele>20.8</ele>
        <time>2021-12-24T11:52:37Z</time>
      </trkpt>
      <trkpt lat="46.60559" lon="-1.39322">
        <ele>21</ele>
        <time>2021-12-24T11:52:39Z</time>
      </trkpt>
      <trkpt lat="46.6056" lon="-1.3933">
        <ele>21</ele>
        <time>2021-12-24T11:52:40Z</time>
      </trkpt>
      <trkpt lat="46.60562" lon="-1.39338">
        <ele>21</ele>
        <time>2021-12-24T11:52:41Z</time>
      </trkpt>
      <trkpt lat="46.60568" lon="-1.39353">
        <ele>21</ele>
        <time>2021-12-24T11:52:43Z</time>
      </trkpt>
      <trkpt lat="46.6057" lon="-1.3936">
        <ele>21</ele>
        <time>2021-12-24T11:52:44Z</time>
      </trkpt>
      <trkpt lat="46.60573" lon="-1.39366">
        <ele>21.2</ele>
        <time>2021-12-24T11:52:45Z</time>
      </trkpt>
      <trkpt lat="46.60576" lon="-1.39379">
        <ele>21.2</ele>
        <time>2021-12-24T11:52:47Z</time>
      </trkpt>
      <trkpt lat="46.60576" lon="-1.39393">
        <ele>21.4</ele>
        <time>2021-12-24T11:52:49Z</time>
      </trkpt>
      <trkpt lat="46.6057" lon="-1.39405">
        <ele>21.4</ele>
        <time>2021-12-24T11:52:51Z</time>
      </trkpt>
      <trkpt lat="46.60562" lon="-1.39414">
        <ele>21.4</ele>
        <time>2021-12-24T11:52:53Z</time>
      </trkpt>
      <trkpt lat="46.60553" lon="-1.3942">
        <ele>21.6</ele>
        <time>2021-12-24T11:52:55Z</time>
      </trkpt>
      <trkpt lat="46.60544" lon="-1.39426">
        <ele>21.6</ele>
        <time>2021-12-24T11:52:57Z</time>
      </trkpt>
      <trkpt lat="46.60536" lon="-1.39433">
        <ele>21.8</ele>
        <time>2021-12-24T11:52:59Z</time>
      </trkpt>
      <trkpt lat="46.60529" lon="-1.39438">
        <ele>21.8</ele>
        <time>2021-12-24T11:53:01Z</time>
      </trkpt>
      <trkpt lat="46.60521" lon="-1.39443">
        <ele>22</ele>
        <time>2021-12-24T11:53:03Z</time>
      </trkpt>
      <trkpt lat="46.60514" lon="-1.39448">
        <ele>22.2</ele>
        <time>2021-12-24T11:53:05Z</time>
      </trkpt>
      <trkpt lat="46.60507" lon="-1.39452">
        <ele>22.4</ele>
        <time>2021-12-24T11:53:07Z</time>
      </trkpt>
      <trkpt lat="46.60504" lon="-1.39455">
        <ele>22.4</ele>
        <time>2021-12-24T11:53:08Z</time>
      </trkpt>
      <trkpt lat="46.605" lon="-1.39458">
        <ele>22.4</ele>
        <time>2021-12-24T11:53:09Z</time>
      </trkpt>
      <trkpt lat="46.60493" lon="-1.39463">
        <ele>22.6</ele>
        <time>2021-12-24T11:53:11Z</time>
      </trkpt>
      <trkpt lat="46.60486" lon="-1.39469">
        <ele>22.8</ele>
        <time>2021-12-24T11:53:13Z</time>
      </trkpt>
      <trkpt lat="46.60479" lon="-1.39474">
        <ele>23</ele>
        <time>2021-12-24T11:53:15Z</time>
      </trkpt>
      <trkpt lat="46.60475" lon="-1.39476">
        <ele>23.2</ele>
        <time>2021-12-24T11:53:16Z</time>
      </trkpt>
      <trkpt lat="46.60472" lon="-1.3948">
        <ele>23.2</ele>
        <time>2021-12-24T11:53:17Z</time>
      </trkpt>
      <trkpt lat="46.60466" lon="-1.39485">
        <ele>23.4</ele>
        <time>2021-12-24T11:53:19Z</time>
      </trkpt>
      <trkpt lat="46.60463" lon="-1.39486">
        <ele>23.6</ele>
        <time>2021-12-24T11:53:20Z</time>
      </trkpt>
      <trkpt lat="46.6046" lon="-1.39484">
        <ele>23.6</ele>
        <time>2021-12-24T11:53:21Z</time>
      </trkpt>
      <trkpt lat="46.60455" lon="-1.39478">
        <ele>23.6</ele>
        <time>2021-12-24T11:53:23Z</time>
      </trkpt>
      <trkpt lat="46.6045" lon="-1.39473">
        <ele>23.8</ele>
        <time>2021-12-24T11:53:25Z</time>
      </trkpt>
      <trkpt lat="46.60444" lon="-1.39468">
        <ele>23.8</ele>
        <time>2021-12-24T11:53:27Z</time>
      </trkpt>
      <trkpt lat="46.60441" lon="-1.39466">
        <ele>23.8</ele>
        <time>2021-12-24T11:53:28Z</time>
      </trkpt>
      <trkpt lat="46.60438" lon="-1.39465">
        <ele>23.8</ele>
        <time>2021-12-24T11:53:29Z</time>
      </trkpt>
      <trkpt lat="46.60432" lon="-1.39462">
        <ele>24</ele>
        <time>2021-12-24T11:53:31Z</time>
      </trkpt>
      <trkpt lat="46.60426" lon="-1.39459">
        <ele>24</ele>
        <time>2021-12-24T11:53:33Z</time>
      </trkpt>
      <trkpt lat="46.6042" lon="-1.39456">
        <ele>24.2</ele>
        <time>2021-12-24T11:53:35Z</time>
      </trkpt>
      <trkpt lat="46.60414" lon="-1.39453">
        <ele>24.4</ele>
        <time>2021-12-24T11:53:37Z</time>
      </trkpt>
      <trkpt lat="46.60407" lon="-1.3945">
        <ele>24.8</ele>
        <time>2021-12-24T11:53:39Z</time>
      </trkpt>
      <trkpt lat="46.604" lon="-1.39448">
        <ele>25</ele>
        <time>2021-12-24T11:53:41Z</time>
      </trkpt>
      <trkpt lat="46.60394" lon="-1.39446">
        <ele>25.4</ele>
        <time>2021-12-24T11:53:43Z</time>
      </trkpt>
      <trkpt lat="46.60391" lon="-1.39445">
        <ele>25.4</ele>
        <time>2021-12-24T11:53:44Z</time>
      </trkpt>
      <trkpt lat="46.60388" lon="-1.39445">
        <ele>25.6</ele>
        <time>2021-12-24T11:53:45Z</time>
      </trkpt>
      <trkpt lat="46.60381" lon="-1.39446">
        <ele>25.8</ele>
        <time>2021-12-24T11:53:47Z</time>
      </trkpt>
      <trkpt lat="46.60375" lon="-1.39447">
        <ele>26.2</ele>
        <time>2021-12-24T11:53:49Z</time>
      </trkpt>
      <trkpt lat="46.60368" lon="-1.39448">
        <ele>26.4</ele>
        <time>2021-12-24T11:53:51Z</time>
      </trkpt>
      <trkpt lat="46.60361" lon="-1.39448">
        <ele>26.6</ele>
        <time>2021-12-24T11:53:53Z</time>
      </trkpt>
      <trkpt lat="46.60355" lon="-1.39448">
        <ele>26.8</ele>
        <time>2021-12-24T11:53:55Z</time>
      </trkpt>
      <trkpt lat="46.60349" lon="-1.39449">
        <ele>27</ele>
        <time>2021-12-24T11:53:57Z</time>
      </trkpt>
      <trkpt lat="46.60346" lon="-1.39449">
        <ele>27</ele>
        <time>2021-12-24T11:53:58Z</time>
      </trkpt>
      <trkpt lat="46.60343" lon="-1.39449">
        <ele>27</ele>
        <time>2021-12-24T11:53:59Z</time>
      </trkpt>
      <trkpt lat="46.60336" lon="-1.39448">
        <ele>27.2</ele>
        <time>2021-12-24T11:54:01Z</time>
      </trkpt>
      <trkpt lat="46.60331" lon="-1.39446">
        <ele>27.4</ele>
        <time>2021-12-24T11:54:03Z</time>
      </trkpt>
      <trkpt lat="46.60328" lon="-1.39445">
        <ele>27.6</ele>
        <time>2021-12-24T11:54:04Z</time>
      </trkpt>
      <trkpt lat="46.60325" lon="-1.39443">
        <ele>27.6</ele>
        <time>2021-12-24T11:54:05Z</time>
      </trkpt>
      <trkpt lat="46.6032" lon="-1.39439">
        <ele>27.8</ele>
        <time>2021-12-24T11:54:07Z</time>
      </trkpt>
      <trkpt lat="46.60316" lon="-1.39435">
        <ele>28</ele>
        <time>2021-12-24T11:54:09Z</time>
      </trkpt>
      <trkpt lat="46.60312" lon="-1.39432">
        <ele>28.2</ele>
        <time>2021-12-24T11:54:11Z</time>
      </trkpt>
      <trkpt lat="46.60308" lon="-1.39428">
        <ele>28.2</ele>
        <time>2021-12-24T11:54:13Z</time>
      </trkpt>
      <trkpt lat="46.60304" lon="-1.39424">
        <ele>28.2</ele>
        <time>2021-12-24T11:54:15Z</time>
      </trkpt>
      <trkpt lat="46.60303" lon="-1.39422">
        <ele>28.4</ele>
        <time>2021-12-24T11:54:16Z</time>
      </trkpt>
      <trkpt lat="46.60301" lon="-1.3942">
        <ele>28.4</ele>
        <time>2021-12-24T11:54:17Z</time>
      </trkpt>
      <trkpt lat="46.60297" lon="-1.39416">
        <ele>28.4</ele>
        <time>2021-12-24T11:54:19Z</time>
      </trkpt>
      <trkpt lat="46.60293" lon="-1.3941">
        <ele>28.6</ele>
        <time>2021-12-24T11:54:21Z</time>
      </trkpt>
      <trkpt lat="46.60289" lon="-1.39405">
        <ele>28.6</ele>
        <time>2021-12-24T11:54:23Z</time>
      </trkpt>
      <trkpt lat="46.60285" lon="-1.394">
        <ele>28.6</ele>
        <time>2021-12-24T11:54:25Z</time>
      </trkpt>
      <trkpt lat="46.60282" lon="-1.39394">
        <ele>28.8</ele>
        <time>2021-12-24T11:54:27Z</time>
      </trkpt>
      <trkpt lat="46.6028" lon="-1.39392">
        <ele>28.8</ele>
        <time>2021-12-24T11:54:28Z</time>
      </trkpt>
      <trkpt lat="46.60278" lon="-1.39389">
        <ele>28.8</ele>
        <time>2021-12-24T11:54:29Z</time>
      </trkpt>
      <trkpt lat="46.60275" lon="-1.39384">
        <ele>28.8</ele>
        <time>2021-12-24T11:54:31Z</time>
      </trkpt>
      <trkpt lat="46.60273" lon="-1.39377">
        <ele>29</ele>
        <time>2021-12-24T11:54:33Z</time>
      </trkpt>
      <trkpt lat="46.60271" lon="-1.39373">
        <ele>29.2</ele>
        <time>2021-12-24T11:54:34Z</time>
      </trkpt>
      <trkpt lat="46.6027" lon="-1.3937">
        <ele>29.2</ele>
        <time>2021-12-24T11:54:35Z</time>
      </trkpt>
      <trkpt lat="46.60266" lon="-1.39363">
        <ele>29.4</ele>
        <time>2021-12-24T11:54:37Z</time>
      </trkpt>
      <trkpt lat="46.60263" lon="-1.39356">
        <ele>29.8</ele>
        <time>2021-12-24T11:54:39Z</time>
      </trkpt>
      <trkpt lat="46.60259" lon="-1.3935">
        <ele>30.2</ele>
        <time>2021-12-24T11:54:41Z</time>
      </trkpt>
      <trkpt lat="46.60255" lon="-1.39342">
        <ele>30.4</ele>
        <time>2021-12-24T11:54:43Z</time>
      </trkpt>
      <trkpt lat="46.60251" lon="-1.39334">
        <ele>30.8</ele>
        <time>2021-12-24T11:54:45Z</time>
      </trkpt>
      <trkpt lat="46.60246" lon="-1.39326">
        <ele>31.2</ele>
        <time>2021-12-24T11:54:47Z</time>
      </trkpt>
      <trkpt lat="46.60241" lon="-1.39318">
        <ele>31.4</ele>
        <time>2021-12-24T11:54:49Z</time>
      </trkpt>
      <trkpt lat="46.60235" lon="-1.39309">
        <ele>31.8</ele>
        <time>2021-12-24T11:54:51Z</time>
      </trkpt>
      <trkpt lat="46.6023" lon="-1.39301">
        <ele>31.8</ele>
        <time>2021-12-24T11:54:53Z</time>
      </trkpt>
      <trkpt lat="46.60224" lon="-1.39292">
        <ele>32</ele>
        <time>2021-12-24T11:54:55Z</time>
      </trkpt>
      <trkpt lat="46.60218" lon="-1.39283">
        <ele>32.2</ele>
        <time>2021-12-24T11:54:57Z</time>
      </trkpt>
      <trkpt lat="46.60216" lon="-1.39277">
        <ele>32.2</ele>
        <time>2021-12-24T11:54:58Z</time>
      </trkpt>
      <trkpt lat="46.60213" lon="-1.39272">
        <ele>32.2</ele>
        <time>2021-12-24T11:54:59Z</time>
      </trkpt>
      <trkpt lat="46.60206" lon="-1.39261">
        <ele>32.4</ele>
        <time>2021-12-24T11:55:01Z</time>
      </trkpt>
      <trkpt lat="46.60199" lon="-1.39251">
        <ele>32.6</ele>
        <time>2021-12-24T11:55:03Z</time>
      </trkpt>
      <trkpt lat="46.60192" lon="-1.39239">
        <ele>32.6</ele>
        <time>2021-12-24T11:55:05Z</time>
      </trkpt>
      <trkpt lat="46.60185" lon="-1.39227">
        <ele>32.8</ele>
        <time>2021-12-24T11:55:07Z</time>
      </trkpt>
      <trkpt lat="46.60182" lon="-1.39221">
        <ele>32.8</ele>
        <time>2021-12-24T11:55:08Z</time>
      </trkpt>
      <trkpt lat="46.60179" lon="-1.39214">
        <ele>33</ele>
        <time>2021-12-24T11:55:09Z</time>
      </trkpt>
      <trkpt lat="46.60174" lon="-1.39199">
        <ele>33</ele>
        <time>2021-12-24T11:55:11Z</time>
      </trkpt>
      <trkpt lat="46.60171" lon="-1.39183">
        <ele>33.2</ele>
        <time>2021-12-24T11:55:13Z</time>
      </trkpt>
      <trkpt lat="46.60168" lon="-1.39165">
        <ele>33.4</ele>
        <time>2021-12-24T11:55:15Z</time>
      </trkpt>
      <trkpt lat="46.60167" lon="-1.39157">
        <ele>33.4</ele>
        <time>2021-12-24T11:55:16Z</time>
      </trkpt>
      <trkpt lat="46.60167" lon="-1.39147">
        <ele>33.6</ele>
        <time>2021-12-24T11:55:17Z</time>
      </trkpt>
      <trkpt lat="46.60166" lon="-1.39129">
        <ele>33.6</ele>
        <time>2021-12-24T11:55:19Z</time>
      </trkpt>
      <trkpt lat="46.60165" lon="-1.3911">
        <ele>33.8</ele>
        <time>2021-12-24T11:55:21Z</time>
      </trkpt>
      <trkpt lat="46.60164" lon="-1.39092">
        <ele>34</ele>
        <time>2021-12-24T11:55:23Z</time>
      </trkpt>
      <trkpt lat="46.60163" lon="-1.39082">
        <ele>34</ele>
        <time>2021-12-24T11:55:24Z</time>
      </trkpt>
      <trkpt lat="46.60163" lon="-1.39073">
        <ele>34.2</ele>
        <time>2021-12-24T11:55:25Z</time>
      </trkpt>
      <trkpt lat="46.60161" lon="-1.39055">
        <ele>34.4</ele>
        <time>2021-12-24T11:55:27Z</time>
      </trkpt>
      <trkpt lat="46.60159" lon="-1.39036">
        <ele>34.4</ele>
        <time>2021-12-24T11:55:29Z</time>
      </trkpt>
      <trkpt lat="46.60158" lon="-1.39016">
        <ele>34.4</ele>
        <time>2021-12-24T11:55:31Z</time>
      </trkpt>
      <trkpt lat="46.60158" lon="-1.38997">
        <ele>34.6</ele>
        <time>2021-12-24T11:55:33Z</time>
      </trkpt>
      <trkpt lat="46.60159" lon="-1.38976">
        <ele>34.6</ele>
        <time>2021-12-24T11:55:35Z</time>
      </trkpt>
      <trkpt lat="46.60158" lon="-1.38966">
        <ele>34.8</ele>
        <time>2021-12-24T11:55:36Z</time>
      </trkpt>
      <trkpt lat="46.60156" lon="-1.38958">
        <ele>34.8</ele>
        <time>2021-12-24T11:55:37Z</time>
      </trkpt>
      <trkpt lat="46.60153" lon="-1.3895">
        <ele>34.8</ele>
        <time>2021-12-24T11:55:38Z</time>
      </trkpt>
      <trkpt lat="46.60148" lon="-1.38944">
        <ele>35</ele>
        <time>2021-12-24T11:55:39Z</time>
      </trkpt>
      <trkpt lat="46.60143" lon="-1.3894">
        <ele>35</ele>
        <time>2021-12-24T11:55:40Z</time>
      </trkpt>
      <trkpt lat="46.60137" lon="-1.38937">
        <ele>35.2</ele>
        <time>2021-12-24T11:55:41Z</time>
      </trkpt>
      <trkpt lat="46.60126" lon="-1.38931">
        <ele>35.4</ele>
        <time>2021-12-24T11:55:43Z</time>
      </trkpt>
      <trkpt lat="46.6012" lon="-1.38928">
        <ele>35.6</ele>
        <time>2021-12-24T11:55:44Z</time>
      </trkpt>
      <trkpt lat="46.60114" lon="-1.38926">
        <ele>35.6</ele>
        <time>2021-12-24T11:55:45Z</time>
      </trkpt>
      <trkpt lat="46.60102" lon="-1.38921">
        <ele>35.8</ele>
        <time>2021-12-24T11:55:47Z</time>
      </trkpt>
      <trkpt lat="46.60096" lon="-1.38919">
        <ele>36</ele>
        <time>2021-12-24T11:55:48Z</time>
      </trkpt>
      <trkpt lat="46.6009" lon="-1.38917">
        <ele>36</ele>
        <time>2021-12-24T11:55:49Z</time>
      </trkpt>
      <trkpt lat="46.60079" lon="-1.38913">
        <ele>36.2</ele>
        <time>2021-12-24T11:55:51Z</time>
      </trkpt>
      <trkpt lat="46.60066" lon="-1.38909">
        <ele>36.4</ele>
        <time>2021-12-24T11:55:53Z</time>
      </trkpt>
      <trkpt lat="46.60053" lon="-1.38905">
        <ele>36.6</ele>
        <time>2021-12-24T11:55:55Z</time>
      </trkpt>
      <trkpt lat="46.60047" lon="-1.38903">
        <ele>36.6</ele>
        <time>2021-12-24T11:55:56Z</time>
      </trkpt>
      <trkpt lat="46.6004" lon="-1.38901">
        <ele>36.8</ele>
        <time>2021-12-24T11:55:57Z</time>
      </trkpt>
      <trkpt lat="46.60026" lon="-1.38899">
        <ele>36.8</ele>
        <time>2021-12-24T11:55:59Z</time>
      </trkpt>
      <trkpt lat="46.60011" lon="-1.38898">
        <ele>36.8</ele>
        <time>2021-12-24T11:56:01Z</time>
      </trkpt>
      <trkpt lat="46.59996" lon="-1.38898">
        <ele>37</ele>
        <time>2021-12-24T11:56:03Z</time>
      </trkpt>
      <trkpt lat="46.59981" lon="-1.38896">
        <ele>37</ele>
        <time>2021-12-24T11:56:05Z</time>
      </trkpt>
      <trkpt lat="46.59967" lon="-1.38894">
        <ele>37</ele>
        <time>2021-12-24T11:56:07Z</time>
      </trkpt>
      <trkpt lat="46.5996" lon="-1.38892">
        <ele>37</ele>
        <time>2021-12-24T11:56:08Z</time>
      </trkpt>
      <trkpt lat="46.59953" lon="-1.38889">
        <ele>37</ele>
        <time>2021-12-24T11:56:09Z</time>
      </trkpt>
      <trkpt lat="46.59939" lon="-1.38882">
        <ele>36.8</ele>
        <time>2021-12-24T11:56:11Z</time>
      </trkpt>
      <trkpt lat="46.59923" lon="-1.38871">
        <ele>37.2</ele>
        <time>2021-12-24T11:56:13Z</time>
      </trkpt>
      <trkpt lat="46.59906" lon="-1.38858">
        <ele>35.2</ele>
        <time>2021-12-24T11:56:15Z</time>
      </trkpt>
      <trkpt lat="46.59887" lon="-1.38844">
        <ele>35.6</ele>
        <time>2021-12-24T11:56:17Z</time>
      </trkpt>
      <trkpt lat="46.59877" lon="-1.38837">
        <ele>35.4</ele>
        <time>2021-12-24T11:56:18Z</time>
      </trkpt>
      <trkpt lat="46.59867" lon="-1.38829">
        <ele>35.2</ele>
        <time>2021-12-24T11:56:19Z</time>
      </trkpt>
      <trkpt lat="46.59849" lon="-1.38815">
        <ele>35</ele>
        <time>2021-12-24T11:56:21Z</time>
      </trkpt>
      <trkpt lat="46.59841" lon="-1.38809">
        <ele>35.2</ele>
        <time>2021-12-24T11:56:22Z</time>
      </trkpt>
      <trkpt lat="46.59834" lon="-1.38804">
        <ele>35.2</ele>
        <time>2021-12-24T11:56:23Z</time>
      </trkpt>
      <trkpt lat="46.59821" lon="-1.38795">
        <ele>35.6</ele>
        <time>2021-12-24T11:56:25Z</time>
      </trkpt>
      <trkpt lat="46.59816" lon="-1.3879">
        <ele>35.8</ele>
        <time>2021-12-24T11:56:26Z</time>
      </trkpt>
      <trkpt lat="46.59811" lon="-1.38786">
        <ele>36</ele>
        <time>2021-12-24T11:56:27Z</time>
      </trkpt>
      <trkpt lat="46.59801" lon="-1.38779">
        <ele>36.2</ele>
        <time>2021-12-24T11:56:29Z</time>
      </trkpt>
      <trkpt lat="46.59797" lon="-1.38775">
        <ele>36.6</ele>
        <time>2021-12-24T11:56:30Z</time>
      </trkpt>
      <trkpt lat="46.59793" lon="-1.38771">
        <ele>37.4</ele>
        <time>2021-12-24T11:56:31Z</time>
      </trkpt>
      <trkpt lat="46.59785" lon="-1.38764">
        <ele>36.8</ele>
        <time>2021-12-24T11:56:33Z</time>
      </trkpt>
      <trkpt lat="46.59777" lon="-1.38759">
        <ele>37</ele>
        <time>2021-12-24T11:56:35Z</time>
      </trkpt>
      <trkpt lat="46.59773" lon="-1.38757">
        <ele>37</ele>
        <time>2021-12-24T11:56:36Z</time>
      </trkpt>
      <trkpt lat="46.59769" lon="-1.38754">
        <ele>37</ele>
        <time>2021-12-24T11:56:37Z</time>
      </trkpt>
      <trkpt lat="46.59762" lon="-1.3875">
        <ele>37.2</ele>
        <time>2021-12-24T11:56:39Z</time>
      </trkpt>
      <trkpt lat="46.59754" lon="-1.38745">
        <ele>37.2</ele>
        <time>2021-12-24T11:56:41Z</time>
      </trkpt>
      <trkpt lat="46.59746" lon="-1.38741">
        <ele>37.4</ele>
        <time>2021-12-24T11:56:43Z</time>
      </trkpt>
      <trkpt lat="46.59742" lon="-1.38739">
        <ele>37.4</ele>
        <time>2021-12-24T11:56:44Z</time>
      </trkpt>
      <trkpt lat="46.59738" lon="-1.38736">
        <ele>37.4</ele>
        <time>2021-12-24T11:56:45Z</time>
      </trkpt>
      <trkpt lat="46.59729" lon="-1.38731">
        <ele>37.6</ele>
        <time>2021-12-24T11:56:47Z</time>
      </trkpt>
      <trkpt lat="46.5972" lon="-1.38726">
        <ele>37.6</ele>
        <time>2021-12-24T11:56:49Z</time>
      </trkpt>
      <trkpt lat="46.59711" lon="-1.38722">
        <ele>37.8</ele>
        <time>2021-12-24T11:56:51Z</time>
      </trkpt>
      <trkpt lat="46.59707" lon="-1.3872">
        <ele>37.8</ele>
        <time>2021-12-24T11:56:52Z</time>
      </trkpt>
      <trkpt lat="46.59702" lon="-1.38719">
        <ele>38</ele>
        <time>2021-12-24T11:56:53Z</time>
      </trkpt>
      <trkpt lat="46.59693" lon="-1.38715">
        <ele>38.2</ele>
        <time>2021-12-24T11:56:55Z</time>
      </trkpt>
      <trkpt lat="46.59685" lon="-1.38711">
        <ele>38.2</ele>
        <time>2021-12-24T11:56:57Z</time>
      </trkpt>
      <trkpt lat="46.59681" lon="-1.38709">
        <ele>38.4</ele>
        <time>2021-12-24T11:56:58Z</time>
      </trkpt>
      <trkpt lat="46.59677" lon="-1.38707">
        <ele>38.4</ele>
        <time>2021-12-24T11:56:59Z</time>
      </trkpt>
      <trkpt lat="46.59669" lon="-1.38703">
        <ele>38.6</ele>
        <time>2021-12-24T11:57:01Z</time>
      </trkpt>
      <trkpt lat="46.59661" lon="-1.38699">
        <ele>38.8</ele>
        <time>2021-12-24T11:57:03Z</time>
      </trkpt>
      <trkpt lat="46.59658" lon="-1.38696">
        <ele>38.8</ele>
        <time>2021-12-24T11:57:04Z</time>
      </trkpt>
      <trkpt lat="46.59654" lon="-1.38694">
        <ele>38.8</ele>
        <time>2021-12-24T11:57:05Z</time>
      </trkpt>
      <trkpt lat="46.5965" lon="-1.38691">
        <ele>39</ele>
        <time>2021-12-24T11:57:06Z</time>
      </trkpt>
      <trkpt lat="46.59647" lon="-1.38688">
        <ele>39</ele>
        <time>2021-12-24T11:57:07Z</time>
      </trkpt>
      <trkpt lat="46.5964" lon="-1.38683">
        <ele>39</ele>
        <time>2021-12-24T11:57:09Z</time>
      </trkpt>
      <trkpt lat="46.59633" lon="-1.38677">
        <ele>39.2</ele>
        <time>2021-12-24T11:57:11Z</time>
      </trkpt>
      <trkpt lat="46.59625" lon="-1.38671">
        <ele>39.4</ele>
        <time>2021-12-24T11:57:13Z</time>
      </trkpt>
      <trkpt lat="46.59622" lon="-1.38668">
        <ele>39.4</ele>
        <time>2021-12-24T11:57:14Z</time>
      </trkpt>
      <trkpt lat="46.59618" lon="-1.38665">
        <ele>39.4</ele>
        <time>2021-12-24T11:57:15Z</time>
      </trkpt>
      <trkpt lat="46.59611" lon="-1.38659">
        <ele>39.6</ele>
        <time>2021-12-24T11:57:17Z</time>
      </trkpt>
      <trkpt lat="46.59603" lon="-1.38654">
        <ele>39.6</ele>
        <time>2021-12-24T11:57:19Z</time>
      </trkpt>
      <trkpt lat="46.59595" lon="-1.38648">
        <ele>39.8</ele>
        <time>2021-12-24T11:57:21Z</time>
      </trkpt>
      <trkpt lat="46.59591" lon="-1.38646">
        <ele>39.8</ele>
        <time>2021-12-24T11:57:22Z</time>
      </trkpt>
      <trkpt lat="46.59587" lon="-1.38643">
        <ele>40</ele>
        <time>2021-12-24T11:57:23Z</time>
      </trkpt>
      <trkpt lat="46.59578" lon="-1.38639">
        <ele>40</ele>
        <time>2021-12-24T11:57:25Z</time>
      </trkpt>
      <trkpt lat="46.59568" lon="-1.38635">
        <ele>40</ele>
        <time>2021-12-24T11:57:27Z</time>
      </trkpt>
      <trkpt lat="46.59563" lon="-1.38633">
        <ele>40</ele>
        <time>2021-12-24T11:57:28Z</time>
      </trkpt>
      <trkpt lat="46.59558" lon="-1.38631">
        <ele>40.2</ele>
        <time>2021-12-24T11:57:29Z</time>
      </trkpt>
      <trkpt lat="46.59548" lon="-1.38626">
        <ele>40.2</ele>
        <time>2021-12-24T11:57:31Z</time>
      </trkpt>
      <trkpt lat="46.59538" lon="-1.38616">
        <ele>40.2</ele>
        <time>2021-12-24T11:57:33Z</time>
      </trkpt>
      <trkpt lat="46.59528" lon="-1.38606">
        <ele>40.2</ele>
        <time>2021-12-24T11:57:35Z</time>
      </trkpt>
      <trkpt lat="46.59516" lon="-1.38598">
        <ele>40</ele>
        <time>2021-12-24T11:57:37Z</time>
      </trkpt>
      <trkpt lat="46.5951" lon="-1.38593">
        <ele>40.2</ele>
        <time>2021-12-24T11:57:38Z</time>
      </trkpt>
      <trkpt lat="46.59504" lon="-1.38589">
        <ele>40</ele>
        <time>2021-12-24T11:57:39Z</time>
      </trkpt>
      <trkpt lat="46.59491" lon="-1.3858">
        <ele>40</ele>
        <time>2021-12-24T11:57:41Z</time>
      </trkpt>
      <trkpt lat="46.59478" lon="-1.38571">
        <ele>40</ele>
        <time>2021-12-24T11:57:43Z</time>
      </trkpt>
      <trkpt lat="46.59465" lon="-1.38562">
        <ele>39.8</ele>
        <time>2021-12-24T11:57:45Z</time>
      </trkpt>
      <trkpt lat="46.59452" lon="-1.38552">
        <ele>39.6</ele>
        <time>2021-12-24T11:57:47Z</time>
      </trkpt>
      <trkpt lat="46.59439" lon="-1.38544">
        <ele>39.4</ele>
        <time>2021-12-24T11:57:49Z</time>
      </trkpt>
      <trkpt lat="46.59432" lon="-1.38543">
        <ele>39.4</ele>
        <time>2021-12-24T11:57:50Z</time>
      </trkpt>
      <trkpt lat="46.59425" lon="-1.38544">
        <ele>39.2</ele>
        <time>2021-12-24T11:57:51Z</time>
      </trkpt>
      <trkpt lat="46.59414" lon="-1.38551">
        <ele>39.2</ele>
        <time>2021-12-24T11:57:53Z</time>
      </trkpt>
      <trkpt lat="46.59402" lon="-1.38551">
        <ele>39.2</ele>
        <time>2021-12-24T11:57:55Z</time>
      </trkpt>
      <trkpt lat="46.59393" lon="-1.38542">
        <ele>39</ele>
        <time>2021-12-24T11:57:57Z</time>
      </trkpt>
      <trkpt lat="46.59384" lon="-1.38532">
        <ele>39</ele>
        <time>2021-12-24T11:57:59Z</time>
      </trkpt>
      <trkpt lat="46.59375" lon="-1.3852">
        <ele>38.8</ele>
        <time>2021-12-24T11:58:01Z</time>
      </trkpt>
      <trkpt lat="46.5937" lon="-1.38513">
        <ele>38.6</ele>
        <time>2021-12-24T11:58:02Z</time>
      </trkpt>
      <trkpt lat="46.59366" lon="-1.38505">
        <ele>38.4</ele>
        <time>2021-12-24T11:58:03Z</time>
      </trkpt>
      <trkpt lat="46.59359" lon="-1.38489">
        <ele>38.2</ele>
        <time>2021-12-24T11:58:05Z</time>
      </trkpt>
      <trkpt lat="46.59352" lon="-1.38471">
        <ele>38</ele>
        <time>2021-12-24T11:58:07Z</time>
      </trkpt>
      <trkpt lat="46.59345" lon="-1.38453">
        <ele>37.8</ele>
        <time>2021-12-24T11:58:09Z</time>
      </trkpt>
      <trkpt lat="46.59339" lon="-1.38434">
        <ele>37.6</ele>
        <time>2021-12-24T11:58:11Z</time>
      </trkpt>
      <trkpt lat="46.59337" lon="-1.38423">
        <ele>37.6</ele>
        <time>2021-12-24T11:58:12Z</time>
      </trkpt>
      <trkpt lat="46.59335" lon="-1.38412">
        <ele>37.6</ele>
        <time>2021-12-24T11:58:13Z</time>
      </trkpt>
      <trkpt lat="46.59334" lon="-1.384">
        <ele>37.4</ele>
        <time>2021-12-24T11:58:14Z</time>
      </trkpt>
      <trkpt lat="46.59334" lon="-1.38389">
        <ele>37.4</ele>
        <time>2021-12-24T11:58:15Z</time>
      </trkpt>
      <trkpt lat="46.59331" lon="-1.38368">
        <ele>37.4</ele>
        <time>2021-12-24T11:58:17Z</time>
      </trkpt>
      <trkpt lat="46.59327" lon="-1.38349">
        <ele>37.4</ele>
        <time>2021-12-24T11:58:19Z</time>
      </trkpt>
      <trkpt lat="46.59325" lon="-1.3834">
        <ele>37.2</ele>
        <time>2021-12-24T11:58:20Z</time>
      </trkpt>
      <trkpt lat="46.59322" lon="-1.38332">
        <ele>37.2</ele>
        <time>2021-12-24T11:58:21Z</time>
      </trkpt>
      <trkpt lat="46.59316" lon="-1.38318">
        <ele>37.2</ele>
        <time>2021-12-24T11:58:23Z</time>
      </trkpt>
      <trkpt lat="46.5931" lon="-1.38307">
        <ele>37.2</ele>
        <time>2021-12-24T11:58:25Z</time>
      </trkpt>
      <trkpt lat="46.59304" lon="-1.38297">
        <ele>37.2</ele>
        <time>2021-12-24T11:58:27Z</time>
      </trkpt>
      <trkpt lat="46.59301" lon="-1.38292">
        <ele>37.2</ele>
        <time>2021-12-24T11:58:28Z</time>
      </trkpt>
      <trkpt lat="46.59299" lon="-1.38288">
        <ele>37.2</ele>
        <time>2021-12-24T11:58:29Z</time>
      </trkpt>
      <trkpt lat="46.59293" lon="-1.38279">
        <ele>37</ele>
        <time>2021-12-24T11:58:31Z</time>
      </trkpt>
      <trkpt lat="46.59288" lon="-1.3827">
        <ele>36.8</ele>
        <time>2021-12-24T11:58:33Z</time>
      </trkpt>
      <trkpt lat="46.59285" lon="-1.38262">
        <ele>36.6</ele>
        <time>2021-12-24T11:58:35Z</time>
      </trkpt>
      <trkpt lat="46.59281" lon="-1.38252">
        <ele>36.4</ele>
        <time>2021-12-24T11:58:37Z</time>
      </trkpt>
      <trkpt lat="46.59278" lon="-1.38241">
        <ele>36.4</ele>
        <time>2021-12-24T11:58:39Z</time>
      </trkpt>
      <trkpt lat="46.59274" lon="-1.3823">
        <ele>36.4</ele>
        <time>2021-12-24T11:58:41Z</time>
      </trkpt>
      <trkpt lat="46.59272" lon="-1.38219">
        <ele>36.6</ele>
        <time>2021-12-24T11:58:43Z</time>
      </trkpt>
      <trkpt lat="46.59269" lon="-1.38208">
        <ele>36.4</ele>
        <time>2021-12-24T11:58:45Z</time>
      </trkpt>
      <trkpt lat="46.59267" lon="-1.38197">
        <ele>37.4</ele>
        <time>2021-12-24T11:58:47Z</time>
      </trkpt>
      <trkpt lat="46.59266" lon="-1.38187">
        <ele>37.2</ele>
        <time>2021-12-24T11:58:49Z</time>
      </trkpt>
      <trkpt lat="46.59265" lon="-1.38182">
        <ele>37.4</ele>
        <time>2021-12-24T11:58:50Z</time>
      </trkpt>
      <trkpt lat="46.59264" lon="-1.38177">
        <ele>37.4</ele>
        <time>2021-12-24T11:58:51Z</time>
      </trkpt>
      <trkpt lat="46.59263" lon="-1.38167">
        <ele>37.4</ele>
        <time>2021-12-24T11:58:53Z</time>
      </trkpt>
      <trkpt lat="46.59261" lon="-1.38156">
        <ele>37.6</ele>
        <time>2021-12-24T11:58:55Z</time>
      </trkpt>
      <trkpt lat="46.59259" lon="-1.38146">
        <ele>37.6</ele>
        <time>2021-12-24T11:58:57Z</time>
      </trkpt>
      <trkpt lat="46.59258" lon="-1.38135">
        <ele>37.8</ele>
        <time>2021-12-24T11:58:59Z</time>
      </trkpt>
      <trkpt lat="46.59256" lon="-1.38124">
        <ele>38</ele>
        <time>2021-12-24T11:59:01Z</time>
      </trkpt>
      <trkpt lat="46.59255" lon="-1.38118">
        <ele>38</ele>
        <time>2021-12-24T11:59:02Z</time>
      </trkpt>
      <trkpt lat="46.59255" lon="-1.38113">
        <ele>38.2</ele>
        <time>2021-12-24T11:59:03Z</time>
      </trkpt>
      <trkpt lat="46.59252" lon="-1.38102">
        <ele>38.2</ele>
        <time>2021-12-24T11:59:05Z</time>
      </trkpt>
      <trkpt lat="46.5925" lon="-1.38092">
        <ele>38.4</ele>
        <time>2021-12-24T11:59:07Z</time>
      </trkpt>
      <trkpt lat="46.59248" lon="-1.38081">
        <ele>38.6</ele>
        <time>2021-12-24T11:59:09Z</time>
      </trkpt>
      <trkpt lat="46.59245" lon="-1.3807">
        <ele>39</ele>
        <time>2021-12-24T11:59:11Z</time>
      </trkpt>
      <trkpt lat="46.59241" lon="-1.38059">
        <ele>39.2</ele>
        <time>2021-12-24T11:59:13Z</time>
      </trkpt>
      <trkpt lat="46.59238" lon="-1.38049">
        <ele>39.4</ele>
        <time>2021-12-24T11:59:15Z</time>
      </trkpt>
      <trkpt lat="46.59234" lon="-1.38038">
        <ele>39.6</ele>
        <time>2021-12-24T11:59:17Z</time>
      </trkpt>
      <trkpt lat="46.5923" lon="-1.38028">
        <ele>39.8</ele>
        <time>2021-12-24T11:59:19Z</time>
      </trkpt>
      <trkpt lat="46.59226" lon="-1.38019">
        <ele>40</ele>
        <time>2021-12-24T11:59:21Z</time>
      </trkpt>
      <trkpt lat="46.5922" lon="-1.38009">
        <ele>40</ele>
        <time>2021-12-24T11:59:23Z</time>
      </trkpt>
      <trkpt lat="46.59216" lon="-1.38">
        <ele>40.2</ele>
        <time>2021-12-24T11:59:25Z</time>
      </trkpt>
      <trkpt lat="46.59211" lon="-1.37991">
        <ele>40.2</ele>
        <time>2021-12-24T11:59:27Z</time>
      </trkpt>
      <trkpt lat="46.59209" lon="-1.37987">
        <ele>40.4</ele>
        <time>2021-12-24T11:59:28Z</time>
      </trkpt>
      <trkpt lat="46.59206" lon="-1.37983">
        <ele>40.4</ele>
        <time>2021-12-24T11:59:29Z</time>
      </trkpt>
      <trkpt lat="46.59202" lon="-1.37975">
        <ele>40.4</ele>
        <time>2021-12-24T11:59:31Z</time>
      </trkpt>
      <trkpt lat="46.59196" lon="-1.37964">
        <ele>40.4</ele>
        <time>2021-12-24T11:59:33Z</time>
      </trkpt>
      <trkpt lat="46.5919" lon="-1.37954">
        <ele>40.6</ele>
        <time>2021-12-24T11:59:35Z</time>
      </trkpt>
      <trkpt lat="46.59184" lon="-1.37944">
        <ele>40.6</ele>
        <time>2021-12-24T11:59:37Z</time>
      </trkpt>
      <trkpt lat="46.59177" lon="-1.37933">
        <ele>40.8</ele>
        <time>2021-12-24T11:59:39Z</time>
      </trkpt>
      <trkpt lat="46.59174" lon="-1.37927">
        <ele>41</ele>
        <time>2021-12-24T11:59:40Z</time>
      </trkpt>
      <trkpt lat="46.5917" lon="-1.37922">
        <ele>41</ele>
        <time>2021-12-24T11:59:41Z</time>
      </trkpt>
      <trkpt lat="46.59163" lon="-1.37911">
        <ele>41.2</ele>
        <time>2021-12-24T11:59:43Z</time>
      </trkpt>
      <trkpt lat="46.59155" lon="-1.379">
        <ele>41.4</ele>
        <time>2021-12-24T11:59:45Z</time>
      </trkpt>
      <trkpt lat="46.59148" lon="-1.37889">
        <ele>41.4</ele>
        <time>2021-12-24T11:59:47Z</time>
      </trkpt>
      <trkpt lat="46.59141" lon="-1.37878">
        <ele>41.6</ele>
        <time>2021-12-24T11:59:49Z</time>
      </trkpt>
      <trkpt lat="46.59134" lon="-1.37868">
        <ele>41.8</ele>
        <time>2021-12-24T11:59:51Z</time>
      </trkpt>
      <trkpt lat="46.59127" lon="-1.37858">
        <ele>42</ele>
        <time>2021-12-24T11:59:53Z</time>
      </trkpt>
      <trkpt lat="46.5912" lon="-1.37848">
        <ele>42</ele>
        <time>2021-12-24T11:59:55Z</time>
      </trkpt>
      <trkpt lat="46.59112" lon="-1.37837">
        <ele>42.2</ele>
        <time>2021-12-24T11:59:57Z</time>
      </trkpt>
      <trkpt lat="46.59105" lon="-1.37826">
        <ele>42.2</ele>
        <time>2021-12-24T11:59:59Z</time>
      </trkpt>
      <trkpt lat="46.59101" lon="-1.3782">
        <ele>42.2</ele>
        <time>2021-12-24T12:00:00Z</time>
      </trkpt>
      <trkpt lat="46.59098" lon="-1.37815">
        <ele>42.4</ele>
        <time>2021-12-24T12:00:01Z</time>
      </trkpt>
      <trkpt lat="46.59091" lon="-1.37804">
        <ele>42.4</ele>
        <time>2021-12-24T12:00:03Z</time>
      </trkpt>
      <trkpt lat="46.59085" lon="-1.37793">
        <ele>42.4</ele>
        <time>2021-12-24T12:00:05Z</time>
      </trkpt>
      <trkpt lat="46.59078" lon="-1.37782">
        <ele>42.4</ele>
        <time>2021-12-24T12:00:07Z</time>
      </trkpt>
      <trkpt lat="46.59071" lon="-1.37769">
        <ele>42.4</ele>
        <time>2021-12-24T12:00:09Z</time>
      </trkpt>
      <trkpt lat="46.59063" lon="-1.37755">
        <ele>42.6</ele>
        <time>2021-12-24T12:00:11Z</time>
      </trkpt>
      <trkpt lat="46.59055" lon="-1.3774">
        <ele>42.6</ele>
        <time>2021-12-24T12:00:13Z</time>
      </trkpt>
      <trkpt lat="46.59046" lon="-1.37724">
        <ele>42.4</ele>
        <time>2021-12-24T12:00:15Z</time>
      </trkpt>
      <trkpt lat="46.59037" lon="-1.37707">
        <ele>42.4</ele>
        <time>2021-12-24T12:00:17Z</time>
      </trkpt>
      <trkpt lat="46.59027" lon="-1.37689">
        <ele>42.8</ele>
        <time>2021-12-24T12:00:19Z</time>
      </trkpt>
      <trkpt lat="46.59016" lon="-1.37671">
        <ele>42.2</ele>
        <time>2021-12-24T12:00:21Z</time>
      </trkpt>
      <trkpt lat="46.59005" lon="-1.37652">
        <ele>42</ele>
        <time>2021-12-24T12:00:23Z</time>
      </trkpt>
      <trkpt lat="46.58993" lon="-1.37632">
        <ele>41.8</ele>
        <time>2021-12-24T12:00:25Z</time>
      </trkpt>
      <trkpt lat="46.58979" lon="-1.37612">
        <ele>41.6</ele>
        <time>2021-12-24T12:00:27Z</time>
      </trkpt>
      <trkpt lat="46.58963" lon="-1.37594">
        <ele>41.4</ele>
        <time>2021-12-24T12:00:29Z</time>
      </trkpt>
      <trkpt lat="46.58954" lon="-1.37585">
        <ele>41.2</ele>
        <time>2021-12-24T12:00:30Z</time>
      </trkpt>
      <trkpt lat="46.58945" lon="-1.37577">
        <ele>41</ele>
        <time>2021-12-24T12:00:31Z</time>
      </trkpt>
      <trkpt lat="46.58926" lon="-1.37562">
        <ele>40.4</ele>
        <time>2021-12-24T12:00:33Z</time>
      </trkpt>
      <trkpt lat="46.58915" lon="-1.37555">
        <ele>40.2</ele>
        <time>2021-12-24T12:00:34Z</time>
      </trkpt>
      <trkpt lat="46.58904" lon="-1.37547">
        <ele>39.8</ele>
        <time>2021-12-24T12:00:35Z</time>
      </trkpt>
      <trkpt lat="46.58883" lon="-1.37533">
        <ele>39</ele>
        <time>2021-12-24T12:00:37Z</time>
      </trkpt>
      <trkpt lat="46.58861" lon="-1.3752">
        <ele>38.4</ele>
        <time>2021-12-24T12:00:39Z</time>
      </trkpt>
      <trkpt lat="46.5884" lon="-1.37508">
        <ele>37.8</ele>
        <time>2021-12-24T12:00:41Z</time>
      </trkpt>
      <trkpt lat="46.58819" lon="-1.37501">
        <ele>37.4</ele>
        <time>2021-12-24T12:00:43Z</time>
      </trkpt>
      <trkpt lat="46.58801" lon="-1.375">
        <ele>37.2</ele>
        <time>2021-12-24T12:00:45Z</time>
      </trkpt>
      <trkpt lat="46.58792" lon="-1.37502">
        <ele>37.2</ele>
        <time>2021-12-24T12:00:46Z</time>
      </trkpt>
      <trkpt lat="46.58784" lon="-1.37504">
        <ele>37</ele>
        <time>2021-12-24T12:00:47Z</time>
      </trkpt>
      <trkpt lat="46.5877" lon="-1.37509">
        <ele>37</ele>
        <time>2021-12-24T12:00:49Z</time>
      </trkpt>
      <trkpt lat="46.58764" lon="-1.37511">
        <ele>37</ele>
        <time>2021-12-24T12:00:50Z</time>
      </trkpt>
      <trkpt lat="46.58758" lon="-1.37513">
        <ele>37</ele>
        <time>2021-12-24T12:00:51Z</time>
      </trkpt>
      <trkpt lat="46.58748" lon="-1.37515">
        <ele>37</ele>
        <time>2021-12-24T12:00:53Z</time>
      </trkpt>
      <trkpt lat="46.58743" lon="-1.37515">
        <ele>37.2</ele>
        <time>2021-12-24T12:00:54Z</time>
      </trkpt>
      <trkpt lat="46.58738" lon="-1.37515">
        <ele>37.2</ele>
        <time>2021-12-24T12:00:55Z</time>
      </trkpt>
      <trkpt lat="46.58731" lon="-1.37515">
        <ele>37</ele>
        <time>2021-12-24T12:00:57Z</time>
      </trkpt>
      <trkpt lat="46.58725" lon="-1.37513">
        <ele>36.8</ele>
        <time>2021-12-24T12:00:59Z</time>
      </trkpt>
      <trkpt lat="46.58719" lon="-1.37511">
        <ele>36.8</ele>
        <time>2021-12-24T12:01:01Z</time>
      </trkpt>
      <trkpt lat="46.58713" lon="-1.3751">
        <ele>36.6</ele>
        <time>2021-12-24T12:01:03Z</time>
      </trkpt>
      <trkpt lat="46.58711" lon="-1.3751">
        <ele>36.6</ele>
        <time>2021-12-24T12:01:04Z</time>
      </trkpt>
      <trkpt lat="46.58708" lon="-1.37508">
        <ele>36.4</ele>
        <time>2021-12-24T12:01:05Z</time>
      </trkpt>
      <trkpt lat="46.58702" lon="-1.37505">
        <ele>36.4</ele>
        <time>2021-12-24T12:01:07Z</time>
      </trkpt>
      <trkpt lat="46.587" lon="-1.37504">
        <ele>36.2</ele>
        <time>2021-12-24T12:01:08Z</time>
      </trkpt>
      <trkpt lat="46.58697" lon="-1.37503">
        <ele>36.2</ele>
        <time>2021-12-24T12:01:09Z</time>
      </trkpt>
      <trkpt lat="46.58692" lon="-1.37502">
        <ele>36</ele>
        <time>2021-12-24T12:01:11Z</time>
      </trkpt>
      <trkpt lat="46.58688" lon="-1.375">
        <ele>35.6</ele>
        <time>2021-12-24T12:01:13Z</time>
      </trkpt>
      <trkpt lat="46.58685" lon="-1.37498">
        <ele>35.4</ele>
        <time>2021-12-24T12:01:14Z</time>
      </trkpt>
      <trkpt lat="46.58683" lon="-1.37497">
        <ele>35.4</ele>
        <time>2021-12-24T12:01:15Z</time>
      </trkpt>
      <trkpt lat="46.58678" lon="-1.37496">
        <ele>35</ele>
        <time>2021-12-24T12:01:17Z</time>
      </trkpt>
      <trkpt lat="46.58674" lon="-1.37495">
        <ele>34.6</ele>
        <time>2021-12-24T12:01:19Z</time>
      </trkpt>
      <trkpt lat="46.5867" lon="-1.37492">
        <ele>34.2</ele>
        <time>2021-12-24T12:01:21Z</time>
      </trkpt>
      <trkpt lat="46.58665" lon="-1.3749">
        <ele>34</ele>
        <time>2021-12-24T12:01:23Z</time>
      </trkpt>
      <trkpt lat="46.58663" lon="-1.37488">
        <ele>33.8</ele>
        <time>2021-12-24T12:01:24Z</time>
      </trkpt>
      <trkpt lat="46.58661" lon="-1.37488">
        <ele>33.6</ele>
        <time>2021-12-24T12:01:25Z</time>
      </trkpt>
      <trkpt lat="46.58657" lon="-1.37486">
        <ele>33.2</ele>
        <time>2021-12-24T12:01:27Z</time>
      </trkpt>
      <trkpt lat="46.58653" lon="-1.37483">
        <ele>32.8</ele>
        <time>2021-12-24T12:01:29Z</time>
      </trkpt>
      <trkpt lat="46.5865" lon="-1.37481">
        <ele>32.2</ele>
        <time>2021-12-24T12:01:31Z</time>
      </trkpt>
      <trkpt lat="46.58646" lon="-1.3748">
        <ele>31.6</ele>
        <time>2021-12-24T12:01:33Z</time>
      </trkpt>
      <trkpt lat="46.58643" lon="-1.3748">
        <ele>30.8</ele>
        <time>2021-12-24T12:01:35Z</time>
      </trkpt>
      <trkpt lat="46.58639" lon="-1.37477">
        <ele>30.2</ele>
        <time>2021-12-24T12:01:37Z</time>
      </trkpt>
      <trkpt lat="46.58637" lon="-1.37477">
        <ele>30</ele>
        <time>2021-12-24T12:01:38Z</time>
      </trkpt>
      <trkpt lat="46.58635" lon="-1.37476">
        <ele>29.6</ele>
        <time>2021-12-24T12:01:39Z</time>
      </trkpt>
      <trkpt lat="46.58632" lon="-1.37476">
        <ele>29.2</ele>
        <time>2021-12-24T12:01:41Z</time>
      </trkpt>
      <trkpt lat="46.58627" lon="-1.37474">
        <ele>29.2</ele>
        <time>2021-12-24T12:01:43Z</time>
      </trkpt>
      <trkpt lat="46.58623" lon="-1.37471">
        <ele>29</ele>
        <time>2021-12-24T12:01:45Z</time>
      </trkpt>
      <trkpt lat="46.5862" lon="-1.37468">
        <ele>28.6</ele>
        <time>2021-12-24T12:01:47Z</time>
      </trkpt>
      <trkpt lat="46.58616" lon="-1.37465">
        <ele>28.4</ele>
        <time>2021-12-24T12:01:49Z</time>
      </trkpt>
      <trkpt lat="46.58612" lon="-1.37461">
        <ele>27.8</ele>
        <time>2021-12-24T12:01:51Z</time>
      </trkpt>
      <trkpt lat="46.5861" lon="-1.37459">
        <ele>27.6</ele>
        <time>2021-12-24T12:01:52Z</time>
      </trkpt>
      <trkpt lat="46.58608" lon="-1.37457">
        <ele>27.4</ele>
        <time>2021-12-24T12:01:53Z</time>
      </trkpt>
      <trkpt lat="46.58602" lon="-1.37454">
        <ele>27</ele>
        <time>2021-12-24T12:01:55Z</time>
      </trkpt>
      <trkpt lat="46.58594" lon="-1.37447">
        <ele>27</ele>
        <time>2021-12-24T12:01:57Z</time>
      </trkpt>
      <trkpt lat="46.58585" lon="-1.37438">
        <ele>27.2</ele>
        <time>2021-12-24T12:01:59Z</time>
      </trkpt>
      <trkpt lat="46.58576" lon="-1.37428">
        <ele>27</ele>
        <time>2021-12-24T12:02:01Z</time>
      </trkpt>
      <trkpt lat="46.58567" lon="-1.37416">
        <ele>26.6</ele>
        <time>2021-12-24T12:02:03Z</time>
      </trkpt>
      <trkpt lat="46.58557" lon="-1.37404">
        <ele>26.2</ele>
        <time>2021-12-24T12:02:05Z</time>
      </trkpt>
      <trkpt lat="46.58545" lon="-1.37391">
        <ele>25.6</ele>
        <time>2021-12-24T12:02:07Z</time>
      </trkpt>
      <trkpt lat="46.58539" lon="-1.37384">
        <ele>25.4</ele>
        <time>2021-12-24T12:02:08Z</time>
      </trkpt>
      <trkpt lat="46.58533" lon="-1.37376">
        <ele>25.6</ele>
        <time>2021-12-24T12:02:09Z</time>
      </trkpt>
      <trkpt lat="46.5852" lon="-1.37362">
        <ele>25.4</ele>
        <time>2021-12-24T12:02:11Z</time>
      </trkpt>
      <trkpt lat="46.58509" lon="-1.37351">
        <ele>25.4</ele>
        <time>2021-12-24T12:02:13Z</time>
      </trkpt>
      <trkpt lat="46.58503" lon="-1.37346">
        <ele>25.4</ele>
        <time>2021-12-24T12:02:14Z</time>
      </trkpt>
      <trkpt lat="46.58498" lon="-1.3734">
        <ele>25.4</ele>
        <time>2021-12-24T12:02:15Z</time>
      </trkpt>
      <trkpt lat="46.58494" lon="-1.37326">
        <ele>25.4</ele>
        <time>2021-12-24T12:02:17Z</time>
      </trkpt>
      <trkpt lat="46.58492" lon="-1.37306">
        <ele>25.8</ele>
        <time>2021-12-24T12:02:19Z</time>
      </trkpt>
      <trkpt lat="46.58491" lon="-1.37286">
        <ele>24.8</ele>
        <time>2021-12-24T12:02:21Z</time>
      </trkpt>
      <trkpt lat="46.58492" lon="-1.37265">
        <ele>26.4</ele>
        <time>2021-12-24T12:02:23Z</time>
      </trkpt>
      <trkpt lat="46.58494" lon="-1.37247">
        <ele>26.2</ele>
        <time>2021-12-24T12:02:25Z</time>
      </trkpt>
      <trkpt lat="46.58494" lon="-1.37238">
        <ele>26.6</ele>
        <time>2021-12-24T12:02:26Z</time>
      </trkpt>
      <trkpt lat="46.58496" lon="-1.37228">
        <ele>27</ele>
        <time>2021-12-24T12:02:27Z</time>
      </trkpt>
      <trkpt lat="46.58501" lon="-1.37207">
        <ele>26.8</ele>
        <time>2021-12-24T12:02:29Z</time>
      </trkpt>
      <trkpt lat="46.58504" lon="-1.37185">
        <ele>26.8</ele>
        <time>2021-12-24T12:02:31Z</time>
      </trkpt>
      <trkpt lat="46.58505" lon="-1.37174">
        <ele>26.6</ele>
        <time>2021-12-24T12:02:32Z</time>
      </trkpt>
      <trkpt lat="46.58507" lon="-1.37163">
        <ele>26.6</ele>
        <time>2021-12-24T12:02:33Z</time>
      </trkpt>
      <trkpt lat="46.58508" lon="-1.37151">
        <ele>26.4</ele>
        <time>2021-12-24T12:02:34Z</time>
      </trkpt>
      <trkpt lat="46.5851" lon="-1.3714">
        <ele>26.6</ele>
        <time>2021-12-24T12:02:35Z</time>
      </trkpt>
      <trkpt lat="46.58513" lon="-1.37117">
        <ele>26.8</ele>
        <time>2021-12-24T12:02:37Z</time>
      </trkpt>
      <trkpt lat="46.58514" lon="-1.37094">
        <ele>27.4</ele>
        <time>2021-12-24T12:02:39Z</time>
      </trkpt>
      <trkpt lat="46.58515" lon="-1.37072">
        <ele>26.4</ele>
        <time>2021-12-24T12:02:41Z</time>
      </trkpt>
      <trkpt lat="46.58516" lon="-1.37061">
        <ele>26.6</ele>
        <time>2021-12-24T12:02:42Z</time>
      </trkpt>
      <trkpt lat="46.58517" lon="-1.3705">
        <ele>26.6</ele>
        <time>2021-12-24T12:02:43Z</time>
      </trkpt>
      <trkpt lat="46.58519" lon="-1.37029">
        <ele>26.8</ele>
        <time>2021-12-24T12:02:45Z</time>
      </trkpt>
      <trkpt lat="46.58521" lon="-1.37008">
        <ele>27</ele>
        <time>2021-12-24T12:02:47Z</time>
      </trkpt>
      <trkpt lat="46.58524" lon="-1.36988">
        <ele>27</ele>
        <time>2021-12-24T12:02:49Z</time>
      </trkpt>
      <trkpt lat="46.58528" lon="-1.36968">
        <ele>27.2</ele>
        <time>2021-12-24T12:02:51Z</time>
      </trkpt>
      <trkpt lat="46.5853" lon="-1.36957">
        <ele>27.4</ele>
        <time>2021-12-24T12:02:52Z</time>
      </trkpt>
      <trkpt lat="46.5853" lon="-1.36947">
        <ele>27.4</ele>
        <time>2021-12-24T12:02:53Z</time>
      </trkpt>
      <trkpt lat="46.5853" lon="-1.36937">
        <ele>27.6</ele>
        <time>2021-12-24T12:02:54Z</time>
      </trkpt>
      <trkpt lat="46.58528" lon="-1.36927">
        <ele>27.6</ele>
        <time>2021-12-24T12:02:55Z</time>
      </trkpt>
      <trkpt lat="46.58524" lon="-1.36918">
        <ele>27.6</ele>
        <time>2021-12-24T12:02:56Z</time>
      </trkpt>
      <trkpt lat="46.58521" lon="-1.3691">
        <ele>27.8</ele>
        <time>2021-12-24T12:02:57Z</time>
      </trkpt>
      <trkpt lat="46.58512" lon="-1.36895">
        <ele>28</ele>
        <time>2021-12-24T12:02:59Z</time>
      </trkpt>
      <trkpt lat="46.58504" lon="-1.36881">
        <ele>28.2</ele>
        <time>2021-12-24T12:03:01Z</time>
      </trkpt>
      <trkpt lat="46.58497" lon="-1.36866">
        <ele>28.2</ele>
        <time>2021-12-24T12:03:03Z</time>
      </trkpt>
      <trkpt lat="46.58493" lon="-1.36859">
        <ele>28.4</ele>
        <time>2021-12-24T12:03:04Z</time>
      </trkpt>
      <trkpt lat="46.5849" lon="-1.36852">
        <ele>28.4</ele>
        <time>2021-12-24T12:03:05Z</time>
      </trkpt>
      <trkpt lat="46.58483" lon="-1.36839">
        <ele>28.6</ele>
        <time>2021-12-24T12:03:07Z</time>
      </trkpt>
      <trkpt lat="46.58476" lon="-1.36828">
        <ele>28.8</ele>
        <time>2021-12-24T12:03:09Z</time>
      </trkpt>
      <trkpt lat="46.5847" lon="-1.36816">
        <ele>29</ele>
        <time>2021-12-24T12:03:11Z</time>
      </trkpt>
      <trkpt lat="46.58467" lon="-1.36811">
        <ele>29.2</ele>
        <time>2021-12-24T12:03:12Z</time>
      </trkpt>
      <trkpt lat="46.58464" lon="-1.36806">
        <ele>29.4</ele>
        <time>2021-12-24T12:03:13Z</time>
      </trkpt>
      <trkpt lat="46.5846" lon="-1.36802">
        <ele>29.4</ele>
        <time>2021-12-24T12:03:14Z</time>
      </trkpt>
      <trkpt lat="46.58455" lon="-1.36799">
        <ele>29.6</ele>
        <time>2021-12-24T12:03:15Z</time>
      </trkpt>
      <trkpt lat="46.58451" lon="-1.36797">
        <ele>29.8</ele>
        <time>2021-12-24T12:03:16Z</time>
      </trkpt>
      <trkpt lat="46.58445" lon="-1.36795">
        <ele>30</ele>
        <time>2021-12-24T12:03:17Z</time>
      </trkpt>
      <trkpt lat="46.5844" lon="-1.36794">
        <ele>30.2</ele>
        <time>2021-12-24T12:03:18Z</time>
      </trkpt>
      <trkpt lat="46.58435" lon="-1.36792">
        <ele>30.4</ele>
        <time>2021-12-24T12:03:19Z</time>
      </trkpt>
      <trkpt lat="46.58425" lon="-1.3679">
        <ele>30.6</ele>
        <time>2021-12-24T12:03:21Z</time>
      </trkpt>
      <trkpt lat="46.58415" lon="-1.36788">
        <ele>30.8</ele>
        <time>2021-12-24T12:03:23Z</time>
      </trkpt>
      <trkpt lat="46.58406" lon="-1.36781">
        <ele>31.2</ele>
        <time>2021-12-24T12:03:25Z</time>
      </trkpt>
      <trkpt lat="46.58399" lon="-1.36773">
        <ele>31.4</ele>
        <time>2021-12-24T12:03:27Z</time>
      </trkpt>
      <trkpt lat="46.58394" lon="-1.36767">
        <ele>31.4</ele>
        <time>2021-12-24T12:03:29Z</time>
      </trkpt>
      <trkpt lat="46.5839" lon="-1.36765">
        <ele>31.6</ele>
        <time>2021-12-24T12:03:31Z</time>
      </trkpt>
      <trkpt lat="46.58388" lon="-1.36764">
        <ele>31.8</ele>
        <time>2021-12-24T12:03:33Z</time>
      </trkpt>
      <trkpt lat="46.58388" lon="-1.36763">
        <ele>31.8</ele>
        <time>2021-12-24T12:03:34Z</time>
      </trkpt>
      <trkpt lat="46.58388" lon="-1.36763">
        <ele>32</ele>
        <time>2021-12-24T12:03:35Z</time>
      </trkpt>
      <trkpt lat="46.58385" lon="-1.36759">
        <ele>32.2</ele>
        <time>2021-12-24T12:03:38Z</time>
      </trkpt>
      <trkpt lat="46.58384" lon="-1.36756">
        <ele>32.4</ele>
        <time>2021-12-24T12:03:39Z</time>
      </trkpt>
      <trkpt lat="46.58383" lon="-1.36748">
        <ele>32.4</ele>
        <time>2021-12-24T12:03:41Z</time>
      </trkpt>
      <trkpt lat="46.58383" lon="-1.36735">
        <ele>32.6</ele>
        <time>2021-12-24T12:03:43Z</time>
      </trkpt>
      <trkpt lat="46.58384" lon="-1.3672">
        <ele>32.6</ele>
        <time>2021-12-24T12:03:45Z</time>
      </trkpt>
      <trkpt lat="46.58384" lon="-1.36704">
        <ele>32.8</ele>
        <time>2021-12-24T12:03:47Z</time>
      </trkpt>
      <trkpt lat="46.58385" lon="-1.36695">
        <ele>32.8</ele>
        <time>2021-12-24T12:03:48Z</time>
      </trkpt>
      <trkpt lat="46.58385" lon="-1.36686">
        <ele>32.8</ele>
        <time>2021-12-24T12:03:49Z</time>
      </trkpt>
      <trkpt lat="46.58384" lon="-1.36669">
        <ele>32.8</ele>
        <time>2021-12-24T12:03:51Z</time>
      </trkpt>
      <trkpt lat="46.58381" lon="-1.36651">
        <ele>33</ele>
        <time>2021-12-24T12:03:53Z</time>
      </trkpt>
      <trkpt lat="46.58381" lon="-1.36643">
        <ele>33</ele>
        <time>2021-12-24T12:03:54Z</time>
      </trkpt>
      <trkpt lat="46.58381" lon="-1.36634">
        <ele>33</ele>
        <time>2021-12-24T12:03:55Z</time>
      </trkpt>
      <trkpt lat="46.58383" lon="-1.36616">
        <ele>33</ele>
        <time>2021-12-24T12:03:57Z</time>
      </trkpt>
      <trkpt lat="46.58383" lon="-1.36606">
        <ele>33.2</ele>
        <time>2021-12-24T12:03:58Z</time>
      </trkpt>
      <trkpt lat="46.58383" lon="-1.36598">
        <ele>33.2</ele>
        <time>2021-12-24T12:03:59Z</time>
      </trkpt>
      <trkpt lat="46.58381" lon="-1.36579">
        <ele>33.2</ele>
        <time>2021-12-24T12:04:01Z</time>
      </trkpt>
      <trkpt lat="46.5838" lon="-1.36558">
        <ele>33.2</ele>
        <time>2021-12-24T12:04:03Z</time>
      </trkpt>
      <trkpt lat="46.58378" lon="-1.36535">
        <ele>33.2</ele>
        <time>2021-12-24T12:04:05Z</time>
      </trkpt>
      <trkpt lat="46.58375" lon="-1.36524">
        <ele>33</ele>
        <time>2021-12-24T12:04:06Z</time>
      </trkpt>
      <trkpt lat="46.58371" lon="-1.36514">
        <ele>33</ele>
        <time>2021-12-24T12:04:07Z</time>
      </trkpt>
      <trkpt lat="46.5836" lon="-1.36494">
        <ele>33</ele>
        <time>2021-12-24T12:04:09Z</time>
      </trkpt>
      <trkpt lat="46.58347" lon="-1.36475">
        <ele>32.6</ele>
        <time>2021-12-24T12:04:11Z</time>
      </trkpt>
      <trkpt lat="46.58332" lon="-1.36456">
        <ele>32.4</ele>
        <time>2021-12-24T12:04:13Z</time>
      </trkpt>
      <trkpt lat="46.58315" lon="-1.36438">
        <ele>32</ele>
        <time>2021-12-24T12:04:15Z</time>
      </trkpt>
      <trkpt lat="46.58307" lon="-1.36428">
        <ele>31.8</ele>
        <time>2021-12-24T12:04:16Z</time>
      </trkpt>
      <trkpt lat="46.583" lon="-1.36416">
        <ele>31.6</ele>
        <time>2021-12-24T12:04:17Z</time>
      </trkpt>
      <trkpt lat="46.58294" lon="-1.36404">
        <ele>31.4</ele>
        <time>2021-12-24T12:04:18Z</time>
      </trkpt>
      <trkpt lat="46.58289" lon="-1.36391">
        <ele>31.2</ele>
        <time>2021-12-24T12:04:19Z</time>
      </trkpt>
      <trkpt lat="46.5828" lon="-1.36364">
        <ele>31</ele>
        <time>2021-12-24T12:04:21Z</time>
      </trkpt>
      <trkpt lat="46.58276" lon="-1.36351">
        <ele>30.8</ele>
        <time>2021-12-24T12:04:22Z</time>
      </trkpt>
      <trkpt lat="46.58272" lon="-1.36338">
        <ele>30.8</ele>
        <time>2021-12-24T12:04:23Z</time>
      </trkpt>
      <trkpt lat="46.58264" lon="-1.36313">
        <ele>30.6</ele>
        <time>2021-12-24T12:04:25Z</time>
      </trkpt>
      <trkpt lat="46.58257" lon="-1.3629">
        <ele>30.6</ele>
        <time>2021-12-24T12:04:27Z</time>
      </trkpt>
      <trkpt lat="46.5825" lon="-1.36267">
        <ele>30.6</ele>
        <time>2021-12-24T12:04:29Z</time>
      </trkpt>
      <trkpt lat="46.58242" lon="-1.36246">
        <ele>30.6</ele>
        <time>2021-12-24T12:04:31Z</time>
      </trkpt>
      <trkpt lat="46.58236" lon="-1.36225">
        <ele>30.6</ele>
        <time>2021-12-24T12:04:33Z</time>
      </trkpt>
      <trkpt lat="46.58229" lon="-1.36205">
        <ele>30.4</ele>
        <time>2021-12-24T12:04:35Z</time>
      </trkpt>
      <trkpt lat="46.58227" lon="-1.36196">
        <ele>30.4</ele>
        <time>2021-12-24T12:04:36Z</time>
      </trkpt>
      <trkpt lat="46.58224" lon="-1.36187">
        <ele>30.4</ele>
        <time>2021-12-24T12:04:37Z</time>
      </trkpt>
      <trkpt lat="46.58218" lon="-1.3617">
        <ele>30.4</ele>
        <time>2021-12-24T12:04:39Z</time>
      </trkpt>
      <trkpt lat="46.58213" lon="-1.36154">
        <ele>30.2</ele>
        <time>2021-12-24T12:04:41Z</time>
      </trkpt>
      <trkpt lat="46.58211" lon="-1.36148">
        <ele>30.2</ele>
        <time>2021-12-24T12:04:42Z</time>
      </trkpt>
      <trkpt lat="46.58208" lon="-1.36145">
        <ele>30.2</ele>
        <time>2021-12-24T12:04:43Z</time>
      </trkpt>
      <trkpt lat="46.582" lon="-1.3615">
        <ele>30</ele>
        <time>2021-12-24T12:04:45Z</time>
      </trkpt>
      <trkpt lat="46.58198" lon="-1.36156">
        <ele>30</ele>
        <time>2021-12-24T12:04:46Z</time>
      </trkpt>
      <trkpt lat="46.58196" lon="-1.36163">
        <ele>29.8</ele>
        <time>2021-12-24T12:04:47Z</time>
      </trkpt>
      <trkpt lat="46.58195" lon="-1.36171">
        <ele>29.6</ele>
        <time>2021-12-24T12:04:48Z</time>
      </trkpt>
      <trkpt lat="46.58194" lon="-1.36178">
        <ele>29.6</ele>
        <time>2021-12-24T12:04:49Z</time>
      </trkpt>
      <trkpt lat="46.58191" lon="-1.36193">
        <ele>29.2</ele>
        <time>2021-12-24T12:04:51Z</time>
      </trkpt>
      <trkpt lat="46.5819" lon="-1.362">
        <ele>29.2</ele>
        <time>2021-12-24T12:04:52Z</time>
      </trkpt>
      <trkpt lat="46.58189" lon="-1.36206">
        <ele>29</ele>
        <time>2021-12-24T12:04:53Z</time>
      </trkpt>
      <trkpt lat="46.58187" lon="-1.36212">
        <ele>28.8</ele>
        <time>2021-12-24T12:04:54Z</time>
      </trkpt>
      <trkpt lat="46.58186" lon="-1.36217">
        <ele>28.6</ele>
        <time>2021-12-24T12:04:55Z</time>
      </trkpt>
      <trkpt lat="46.58184" lon="-1.36223">
        <ele>28.4</ele>
        <time>2021-12-24T12:04:56Z</time>
      </trkpt>
      <trkpt lat="46.58183" lon="-1.36229">
        <ele>28.4</ele>
        <time>2021-12-24T12:04:57Z</time>
      </trkpt>
      <trkpt lat="46.58181" lon="-1.36236">
        <ele>28</ele>
        <time>2021-12-24T12:04:58Z</time>
      </trkpt>
      <trkpt lat="46.58179" lon="-1.36242">
        <ele>27.8</ele>
        <time>2021-12-24T12:04:59Z</time>
      </trkpt>
      <trkpt lat="46.58173" lon="-1.36253">
        <ele>27.4</ele>
        <time>2021-12-24T12:05:01Z</time>
      </trkpt>
      <trkpt lat="46.58168" lon="-1.3626">
        <ele>27</ele>
        <time>2021-12-24T12:05:03Z</time>
      </trkpt>
      <trkpt lat="46.58162" lon="-1.36263">
        <ele>26.8</ele>
        <time>2021-12-24T12:05:05Z</time>
      </trkpt>
      <trkpt lat="46.58159" lon="-1.36265">
        <ele>26.6</ele>
        <time>2021-12-24T12:05:06Z</time>
      </trkpt>
      <trkpt lat="46.58156" lon="-1.36266">
        <ele>26.2</ele>
        <time>2021-12-24T12:05:07Z</time>
      </trkpt>
      <trkpt lat="46.5815" lon="-1.36268">
        <ele>25.6</ele>
        <time>2021-12-24T12:05:09Z</time>
      </trkpt>
      <trkpt lat="46.58145" lon="-1.3627">
        <ele>25</ele>
        <time>2021-12-24T12:05:11Z</time>
      </trkpt>
      <trkpt lat="46.5814" lon="-1.36272">
        <ele>24.2</ele>
        <time>2021-12-24T12:05:13Z</time>
      </trkpt>
      <trkpt lat="46.58139" lon="-1.36274">
        <ele>23.6</ele>
        <time>2021-12-24T12:05:14Z</time>
      </trkpt>
      <trkpt lat="46.58136" lon="-1.36274">
        <ele>23.2</ele>
        <time>2021-12-24T12:05:15Z</time>
      </trkpt>
      <trkpt lat="46.58134" lon="-1.36274">
        <ele>22.6</ele>
        <time>2021-12-24T12:05:16Z</time>
      </trkpt>
      <trkpt lat="46.58132" lon="-1.36275">
        <ele>22</ele>
        <time>2021-12-24T12:05:17Z</time>
      </trkpt>
      <trkpt lat="46.58127" lon="-1.36276">
        <ele>20.8</ele>
        <time>2021-12-24T12:05:19Z</time>
      </trkpt>
      <trkpt lat="46.58122" lon="-1.36275">
        <ele>19.6</ele>
        <time>2021-12-24T12:05:21Z</time>
      </trkpt>
      <trkpt lat="46.58117" lon="-1.36273">
        <ele>18.8</ele>
        <time>2021-12-24T12:05:23Z</time>
      </trkpt>
      <trkpt lat="46.58112" lon="-1.36272">
        <ele>17.8</ele>
        <time>2021-12-24T12:05:25Z</time>
      </trkpt>
      <trkpt lat="46.58106" lon="-1.3627">
        <ele>17.2</ele>
        <time>2021-12-24T12:05:27Z</time>
      </trkpt>
      <trkpt lat="46.58104" lon="-1.3627">
        <ele>16.6</ele>
        <time>2021-12-24T12:05:28Z</time>
      </trkpt>
      <trkpt lat="46.58102" lon="-1.36269">
        <ele>16</ele>
        <time>2021-12-24T12:05:29Z</time>
      </trkpt>
      <trkpt lat="46.58098" lon="-1.36269">
        <ele>14.8</ele>
        <time>2021-12-24T12:05:31Z</time>
      </trkpt>
      <trkpt lat="46.58094" lon="-1.36268">
        <ele>13.6</ele>
        <time>2021-12-24T12:05:33Z</time>
      </trkpt>
      <trkpt lat="46.58093" lon="-1.36268">
        <ele>13</ele>
        <time>2021-12-24T12:05:34Z</time>
      </trkpt>
      <trkpt lat="46.58091" lon="-1.36269">
        <ele>12.2</ele>
        <time>2021-12-24T12:05:35Z</time>
      </trkpt>
      <trkpt lat="46.58086" lon="-1.36268">
        <ele>11.2</ele>
        <time>2021-12-24T12:05:37Z</time>
      </trkpt>
      <trkpt lat="46.58085" lon="-1.36268">
        <ele>10.6</ele>
        <time>2021-12-24T12:05:38Z</time>
      </trkpt>
      <trkpt lat="46.58083" lon="-1.36267">
        <ele>10</ele>
        <time>2021-12-24T12:05:39Z</time>
      </trkpt>
      <trkpt lat="46.58082" lon="-1.36266">
        <ele>9.4</ele>
        <time>2021-12-24T12:05:40Z</time>
      </trkpt>
      <trkpt lat="46.5808" lon="-1.36267">
        <ele>9</ele>
        <time>2021-12-24T12:05:41Z</time>
      </trkpt>
      <trkpt lat="46.58077" lon="-1.36264">
        <ele>7.8</ele>
        <time>2021-12-24T12:05:43Z</time>
      </trkpt>
      <trkpt lat="46.58075" lon="-1.36263">
        <ele>7.4</ele>
        <time>2021-12-24T12:05:44Z</time>
      </trkpt>
      <trkpt lat="46.58073" lon="-1.36261">
        <ele>6.8</ele>
        <time>2021-12-24T12:05:45Z</time>
      </trkpt>
      <trkpt lat="46.58071" lon="-1.36258">
        <ele>6.4</ele>
        <time>2021-12-24T12:05:46Z</time>
      </trkpt>
      <trkpt lat="46.58069" lon="-1.36253">
        <ele>5.6</ele>
        <time>2021-12-24T12:05:47Z</time>
      </trkpt>
      <trkpt lat="46.58066" lon="-1.36243">
        <ele>4.4</ele>
        <time>2021-12-24T12:05:49Z</time>
      </trkpt>
      <trkpt lat="46.58064" lon="-1.36239">
        <ele>3.8</ele>
        <time>2021-12-24T12:05:50Z</time>
      </trkpt>
      <trkpt lat="46.58062" lon="-1.36235">
        <ele>3.4</ele>
        <time>2021-12-24T12:05:51Z</time>
      </trkpt>
      <trkpt lat="46.58061" lon="-1.36233">
        <ele>2.8</ele>
        <time>2021-12-24T12:05:52Z</time>
      </trkpt>
      <trkpt lat="46.58058" lon="-1.3623">
        <ele>2.4</ele>
        <time>2021-12-24T12:05:53Z</time>
      </trkpt>
      <trkpt lat="46.58056" lon="-1.36227">
        <ele>1.6</ele>
        <time>2021-12-24T12:05:55Z</time>
      </trkpt>
      <trkpt lat="46.58055" lon="-1.36226">
        <ele>1.4</ele>
        <time>2021-12-24T12:05:56Z</time>
      </trkpt>
      <trkpt lat="46.58055" lon="-1.36225">
        <ele>1.2</ele>
        <time>2021-12-24T12:05:57Z</time>
      </trkpt>
      <trkpt lat="46.58051" lon="-1.36223">
        <ele>1</ele>
        <time>2021-12-24T12:05:59Z</time>
      </trkpt>
      <trkpt lat="46.58051" lon="-1.36223">
        <ele>0.60000000000002</ele>
        <time>2021-12-24T12:06:00Z</time>
      </trkpt>
      <trkpt lat="46.5805" lon="-1.36225">
        <ele>0.19999999999999</ele>
        <time>2021-12-24T12:06:01Z</time>
      </trkpt>
      <trkpt lat="46.58045" lon="-1.36221">
        <ele>-0.19999999999999</ele>
        <time>2021-12-24T12:06:03Z</time>
      </trkpt>
      <trkpt lat="46.58043" lon="-1.36219">
        <ele>-0.19999999999999</ele>
        <time>2021-12-24T12:06:04Z</time>
      </trkpt>
      <trkpt lat="46.58041" lon="-1.36216">
        <ele>-0.39999999999998</ele>
        <time>2021-12-24T12:06:05Z</time>
      </trkpt>
      <trkpt lat="46.5804" lon="-1.36219">
        <ele>-0.60000000000002</ele>
        <time>2021-12-24T12:06:07Z</time>
      </trkpt>
      <trkpt lat="46.58035" lon="-1.36212">
        <ele>-0.80000000000001</ele>
        <time>2021-12-24T12:06:09Z</time>
      </trkpt>
      <trkpt lat="46.58033" lon="-1.36207">
        <ele>-1</ele>
        <time>2021-12-24T12:06:10Z</time>
      </trkpt>
      <trkpt lat="46.58031" lon="-1.36205">
        <ele>-1.2</ele>
        <time>2021-12-24T12:06:11Z</time>
      </trkpt>
      <trkpt lat="46.58027" lon="-1.362">
        <ele>-1.6</ele>
        <time>2021-12-24T12:06:13Z</time>
      </trkpt>
      <trkpt lat="46.58023" lon="-1.36195">
        <ele>-2</ele>
        <time>2021-12-24T12:06:15Z</time>
      </trkpt>
      <trkpt lat="46.58021" lon="-1.36194">
        <ele>-2</ele>
        <time>2021-12-24T12:06:16Z</time>
      </trkpt>
      <trkpt lat="46.58018" lon="-1.36192">
        <ele>-2</ele>
        <time>2021-12-24T12:06:17Z</time>
      </trkpt>
      <trkpt lat="46.58013" lon="-1.36188">
        <ele>-1.8</ele>
        <time>2021-12-24T12:06:19Z</time>
      </trkpt>
      <trkpt lat="46.58006" lon="-1.36184">
        <ele>-1.2</ele>
        <time>2021-12-24T12:06:21Z</time>
      </trkpt>
      <trkpt lat="46.58001" lon="-1.3618">
        <ele>-1</ele>
        <time>2021-12-24T12:06:23Z</time>
      </trkpt>
      <trkpt lat="46.57995" lon="-1.36175">
        <ele>-3</ele>
        <time>2021-12-24T12:06:25Z</time>
      </trkpt>
      <trkpt lat="46.57988" lon="-1.36167">
        <ele>-1.4</ele>
        <time>2021-12-24T12:06:27Z</time>
      </trkpt>
      <trkpt lat="46.57981" lon="-1.36159">
        <ele>-0.60000000000002</ele>
        <time>2021-12-24T12:06:29Z</time>
      </trkpt>
      <trkpt lat="46.57975" lon="-1.3615">
        <ele>-0.80000000000001</ele>
        <time>2021-12-24T12:06:31Z</time>
      </trkpt>
      <trkpt lat="46.57968" lon="-1.36139">
        <ele>-0.60000000000002</ele>
        <time>2021-12-24T12:06:33Z</time>
      </trkpt>
      <trkpt lat="46.57962" lon="-1.36128">
        <ele>-0.19999999999999</ele>
        <time>2021-12-24T12:06:35Z</time>
      </trkpt>
      <trkpt lat="46.57957" lon="-1.3612">
        <ele>0.39999999999998</ele>
        <time>2021-12-24T12:06:37Z</time>
      </trkpt>
      <trkpt lat="46.57952" lon="-1.3611">
        <ele>-0.80000000000001</ele>
        <time>2021-12-24T12:06:39Z</time>
      </trkpt>
      <trkpt lat="46.57946" lon="-1.36101">
        <ele>-0.80000000000001</ele>
        <time>2021-12-24T12:06:41Z</time>
      </trkpt>
      <trkpt lat="46.57942" lon="-1.36096">
        <ele>-0.80000000000001</ele>
        <time>2021-12-24T12:06:42Z</time>
      </trkpt>
      <trkpt lat="46.57939" lon="-1.3609">
        <ele>-0.80000000000001</ele>
        <time>2021-12-24T12:06:43Z</time>
      </trkpt>
      <trkpt lat="46.57934" lon="-1.3608">
        <ele>-0.19999999999999</ele>
        <time>2021-12-24T12:06:45Z</time>
      </trkpt>
      <trkpt lat="46.57929" lon="-1.36069">
        <ele>-1.2</ele>
        <time>2021-12-24T12:06:47Z</time>
      </trkpt>
      <trkpt lat="46.57925" lon="-1.36057">
        <ele>-1.8</ele>
        <time>2021-12-24T12:06:49Z</time>
      </trkpt>
      <trkpt lat="46.57921" lon="-1.36044">
        <ele>-1.4</ele>
        <time>2021-12-24T12:06:51Z</time>
      </trkpt>
      <trkpt lat="46.57919" lon="-1.36039">
        <ele>-1.6</ele>
        <time>2021-12-24T12:06:52Z</time>
      </trkpt>
      <trkpt lat="46.57917" lon="-1.36035">
        <ele>-1.6</ele>
        <time>2021-12-24T12:06:53Z</time>
      </trkpt>
      <trkpt lat="46.57914" lon="-1.36024">
        <ele>-1.6</ele>
        <time>2021-12-24T12:06:55Z</time>
      </trkpt>
      <trkpt lat="46.57912" lon="-1.3602">
        <ele>-1.6</ele>
        <time>2021-12-24T12:06:56Z</time>
      </trkpt>
      <trkpt lat="46.5791" lon="-1.36017">
        <ele>-1.4</ele>
        <time>2021-12-24T12:06:57Z</time>
      </trkpt>
      <trkpt lat="46.57906" lon="-1.36012">
        <ele>-2.2</ele>
        <time>2021-12-24T12:06:59Z</time>
      </trkpt>
      <trkpt lat="46.57904" lon="-1.36003">
        <ele>-2</ele>
        <time>2021-12-24T12:07:01Z</time>
      </trkpt>
      <trkpt lat="46.57903" lon="-1.36">
        <ele>-1.8</ele>
        <time>2021-12-24T12:07:02Z</time>
      </trkpt>
      <trkpt lat="46.57903" lon="-1.35997">
        <ele>-1.4</ele>
        <time>2021-12-24T12:07:03Z</time>
      </trkpt>
      <trkpt lat="46.57901" lon="-1.35989">
        <ele>-2</ele>
        <time>2021-12-24T12:07:05Z</time>
      </trkpt>
      <trkpt lat="46.579" lon="-1.35986">
        <ele>-2.2</ele>
        <time>2021-12-24T12:07:06Z</time>
      </trkpt>
      <trkpt lat="46.57899" lon="-1.35983">
        <ele>-2.4</ele>
        <time>2021-12-24T12:07:07Z</time>
      </trkpt>
      <trkpt lat="46.579" lon="-1.35982">
        <ele>-2.6</ele>
        <time>2021-12-24T12:07:08Z</time>
      </trkpt>
      <trkpt lat="46.57901" lon="-1.35982">
        <ele>-3</ele>
        <time>2021-12-24T12:07:09Z</time>
      </trkpt>
      <trkpt lat="46.57901" lon="-1.35983">
        <ele>-3.4</ele>
        <time>2021-12-24T12:07:10Z</time>
      </trkpt>
      <trkpt lat="46.57901" lon="-1.35982">
        <ele>-3.8</ele>
        <time>2021-12-24T12:07:11Z</time>
      </trkpt>
      <trkpt lat="46.57899" lon="-1.35976">
        <ele>-4.2</ele>
        <time>2021-12-24T12:07:13Z</time>
      </trkpt>
      <trkpt lat="46.57897" lon="-1.35967">
        <ele>-3.8</ele>
        <time>2021-12-24T12:07:15Z</time>
      </trkpt>
      <trkpt lat="46.57894" lon="-1.35962">
        <ele>-3.2</ele>
        <time>2021-12-24T12:07:17Z</time>
      </trkpt>
      <trkpt lat="46.57891" lon="-1.35958">
        <ele>-2.8</ele>
        <time>2021-12-24T12:07:19Z</time>
      </trkpt>
      <trkpt lat="46.57889" lon="-1.35958">
        <ele>-3.2</ele>
        <time>2021-12-24T12:07:21Z</time>
      </trkpt>
      <trkpt lat="46.57889" lon="-1.35956">
        <ele>-2</ele>
        <time>2021-12-24T12:07:22Z</time>
      </trkpt>
      <trkpt lat="46.57888" lon="-1.35955">
        <ele>-1.2</ele>
        <time>2021-12-24T12:07:23Z</time>
      </trkpt>
      <trkpt lat="46.57887" lon="-1.35952">
        <ele>-2</ele>
        <time>2021-12-24T12:07:25Z</time>
      </trkpt>
      <trkpt lat="46.57887" lon="-1.35952">
        <ele>-2</ele>
        <time>2021-12-24T12:07:26Z</time>
      </trkpt>
      <trkpt lat="46.57878" lon="-1.35942">
        <ele>-0.19999999999999</ele>
        <time>2021-12-24T12:07:37Z</time>
      </trkpt>
      <trkpt lat="46.57875" lon="-1.35939">
        <ele>0.19999999999999</ele>
        <time>2021-12-24T12:07:39Z</time>
      </trkpt>
      <trkpt lat="46.57875" lon="-1.35939">
        <ele>0.39999999999998</ele>
        <time>2021-12-24T12:07:40Z</time>
      </trkpt>
      <trkpt lat="46.57859" lon="-1.35929">
        <ele>9.6</ele>
        <time>2021-12-24T12:08:21Z</time>
      </trkpt>
      <trkpt lat="46.57857" lon="-1.35927">
        <ele>10</ele>
        <time>2021-12-24T12:08:23Z</time>
      </trkpt>
      <trkpt lat="46.57854" lon="-1.35925">
        <ele>10.4</ele>
        <time>2021-12-24T12:08:25Z</time>
      </trkpt>
      <trkpt lat="46.57852" lon="-1.35922">
        <ele>10.8</ele>
        <time>2021-12-24T12:08:27Z</time>
      </trkpt>
      <trkpt lat="46.5785" lon="-1.3592">
        <ele>11</ele>
        <time>2021-12-24T12:08:29Z</time>
      </trkpt>
      <trkpt lat="46.57849" lon="-1.3592">
        <ele>11.2</ele>
        <time>2021-12-24T12:08:30Z</time>
      </trkpt>
      <trkpt lat="46.57849" lon="-1.35919">
        <ele>11.2</ele>
        <time>2021-12-24T12:08:31Z</time>
      </trkpt>
      <trkpt lat="46.57848" lon="-1.35919">
        <ele>11.6</ele>
        <time>2021-12-24T12:08:33Z</time>
      </trkpt>
      <trkpt lat="46.57845" lon="-1.35904">
        <ele>25.8</ele>
        <time>2021-12-24T12:12:17Z</time>
      </trkpt>
      <trkpt lat="46.57844" lon="-1.35898">
        <ele>25.8</ele>
        <time>2021-12-24T12:12:19Z</time>
      </trkpt>
      <trkpt lat="46.57843" lon="-1.35891">
        <ele>25.8</ele>
        <time>2021-12-24T12:12:21Z</time>
      </trkpt>
      <trkpt lat="46.57841" lon="-1.35883">
        <ele>25.8</ele>
        <time>2021-12-24T12:12:23Z</time>
      </trkpt>
      <trkpt lat="46.57841" lon="-1.35879">
        <ele>25.8</ele>
        <time>2021-12-24T12:12:24Z</time>
      </trkpt>
      <trkpt lat="46.5784" lon="-1.35874">
        <ele>25.8</ele>
        <time>2021-12-24T12:12:25Z</time>
      </trkpt>
      <trkpt lat="46.57838" lon="-1.35866">
        <ele>26</ele>
        <time>2021-12-24T12:12:27Z</time>
      </trkpt>
      <trkpt lat="46.57838" lon="-1.35857">
        <ele>26</ele>
        <time>2021-12-24T12:12:29Z</time>
      </trkpt>
      <trkpt lat="46.57837" lon="-1.35853">
        <ele>26.2</ele>
        <time>2021-12-24T12:12:30Z</time>
      </trkpt>
      <trkpt lat="46.57836" lon="-1.35849">
        <ele>26.2</ele>
        <time>2021-12-24T12:12:31Z</time>
      </trkpt>
      <trkpt lat="46.57836" lon="-1.35842">
        <ele>26.2</ele>
        <time>2021-12-24T12:12:33Z</time>
      </trkpt>
      <trkpt lat="46.57836" lon="-1.35838">
        <ele>26.2</ele>
        <time>2021-12-24T12:12:34Z</time>
      </trkpt>
      <trkpt lat="46.57836" lon="-1.35834">
        <ele>26.4</ele>
        <time>2021-12-24T12:12:35Z</time>
      </trkpt>
      <trkpt lat="46.57835" lon="-1.35826">
        <ele>26.4</ele>
        <time>2021-12-24T12:12:37Z</time>
      </trkpt>
      <trkpt lat="46.57835" lon="-1.35818">
        <ele>26.4</ele>
        <time>2021-12-24T12:12:39Z</time>
      </trkpt>
      <trkpt lat="46.57834" lon="-1.35814">
        <ele>26.2</ele>
        <time>2021-12-24T12:12:40Z</time>
      </trkpt>
      <trkpt lat="46.57835" lon="-1.3581">
        <ele>26.2</ele>
        <time>2021-12-24T12:12:41Z</time>
      </trkpt>
      <trkpt lat="46.57836" lon="-1.35803">
        <ele>26.2</ele>
        <time>2021-12-24T12:12:43Z</time>
      </trkpt>
      <trkpt lat="46.57838" lon="-1.35796">
        <ele>26.2</ele>
        <time>2021-12-24T12:12:45Z</time>
      </trkpt>
      <trkpt lat="46.5784" lon="-1.35787">
        <ele>26.2</ele>
        <time>2021-12-24T12:12:47Z</time>
      </trkpt>
      <trkpt lat="46.57842" lon="-1.3578">
        <ele>26.2</ele>
        <time>2021-12-24T12:12:49Z</time>
      </trkpt>
      <trkpt lat="46.57845" lon="-1.35771">
        <ele>26.2</ele>
        <time>2021-12-24T12:12:51Z</time>
      </trkpt>
      <trkpt lat="46.57846" lon="-1.35763">
        <ele>25.8</ele>
        <time>2021-12-24T12:12:53Z</time>
      </trkpt>
      <trkpt lat="46.57847" lon="-1.35756">
        <ele>25.8</ele>
        <time>2021-12-24T12:12:55Z</time>
      </trkpt>
      <trkpt lat="46.5785" lon="-1.35748">
        <ele>25.8</ele>
        <time>2021-12-24T12:12:57Z</time>
      </trkpt>
      <trkpt lat="46.57851" lon="-1.35745">
        <ele>25.8</ele>
        <time>2021-12-24T12:12:58Z</time>
      </trkpt>
      <trkpt lat="46.57852" lon="-1.35741">
        <ele>25.6</ele>
        <time>2021-12-24T12:12:59Z</time>
      </trkpt>
      <trkpt lat="46.57851" lon="-1.35738">
        <ele>25.6</ele>
        <time>2021-12-24T12:13:00Z</time>
      </trkpt>
      <trkpt lat="46.57854" lon="-1.35735">
        <ele>25.6</ele>
        <time>2021-12-24T12:13:01Z</time>
      </trkpt>
      <trkpt lat="46.57858" lon="-1.35727">
        <ele>25.6</ele>
        <time>2021-12-24T12:13:03Z</time>
      </trkpt>
      <trkpt lat="46.5786" lon="-1.35723">
        <ele>25.6</ele>
        <time>2021-12-24T12:13:04Z</time>
      </trkpt>
      <trkpt lat="46.57862" lon="-1.35719">
        <ele>25.6</ele>
        <time>2021-12-24T12:13:05Z</time>
      </trkpt>
      <trkpt lat="46.57863" lon="-1.35715">
        <ele>25.6</ele>
        <time>2021-12-24T12:13:06Z</time>
      </trkpt>
      <trkpt lat="46.57864" lon="-1.35712">
        <ele>25.6</ele>
        <time>2021-12-24T12:13:07Z</time>
      </trkpt>
      <trkpt lat="46.57865" lon="-1.35703">
        <ele>25.8</ele>
        <time>2021-12-24T12:13:09Z</time>
      </trkpt>
      <trkpt lat="46.57866" lon="-1.35696">
        <ele>25.6</ele>
        <time>2021-12-24T12:13:11Z</time>
      </trkpt>
      <trkpt lat="46.57867" lon="-1.35692">
        <ele>25.6</ele>
        <time>2021-12-24T12:13:12Z</time>
      </trkpt>
      <trkpt lat="46.57865" lon="-1.35688">
        <ele>25.8</ele>
        <time>2021-12-24T12:13:13Z</time>
      </trkpt>
      <trkpt lat="46.57862" lon="-1.35681">
        <ele>25.6</ele>
        <time>2021-12-24T12:13:15Z</time>
      </trkpt>
      <trkpt lat="46.57861" lon="-1.35678">
        <ele>25.6</ele>
        <time>2021-12-24T12:13:16Z</time>
      </trkpt>
      <trkpt lat="46.57868" lon="-1.35674">
        <ele>25.6</ele>
        <time>2021-12-24T12:13:17Z</time>
      </trkpt>
      <trkpt lat="46.57869" lon="-1.35668">
        <ele>25.4</ele>
        <time>2021-12-24T12:13:19Z</time>
      </trkpt>
      <trkpt lat="46.57868" lon="-1.35662">
        <ele>26</ele>
        <time>2021-12-24T12:13:21Z</time>
      </trkpt>
      <trkpt lat="46.57868" lon="-1.35662">
        <ele>26</ele>
        <time>2021-12-24T12:13:23Z</time>
      </trkpt>
      <trkpt lat="46.57867" lon="-1.35652">
        <ele>24.8</ele>
        <time>2021-12-24T12:13:44Z</time>
      </trkpt>
      <trkpt lat="46.57866" lon="-1.35649">
        <ele>24.6</ele>
        <time>2021-12-24T12:13:45Z</time>
      </trkpt>
      <trkpt lat="46.57864" lon="-1.35642">
        <ele>24.6</ele>
        <time>2021-12-24T12:13:47Z</time>
      </trkpt>
      <trkpt lat="46.57864" lon="-1.35638">
        <ele>25</ele>
        <time>2021-12-24T12:13:49Z</time>
      </trkpt>
      <trkpt lat="46.57862" lon="-1.35632">
        <ele>25.2</ele>
        <time>2021-12-24T12:13:51Z</time>
      </trkpt>
      <trkpt lat="46.57861" lon="-1.35629">
        <ele>25.6</ele>
        <time>2021-12-24T12:13:52Z</time>
      </trkpt>
      <trkpt lat="46.5786" lon="-1.35624">
        <ele>25.8</ele>
        <time>2021-12-24T12:13:53Z</time>
      </trkpt>
      <trkpt lat="46.5786" lon="-1.3562">
        <ele>26</ele>
        <time>2021-12-24T12:13:54Z</time>
      </trkpt>
      <trkpt lat="46.57859" lon="-1.35617">
        <ele>25.8</ele>
        <time>2021-12-24T12:13:55Z</time>
      </trkpt>
      <trkpt lat="46.57858" lon="-1.35609">
        <ele>25.8</ele>
        <time>2021-12-24T12:13:57Z</time>
      </trkpt>
      <trkpt lat="46.57856" lon="-1.35601">
        <ele>25.8</ele>
        <time>2021-12-24T12:13:59Z</time>
      </trkpt>
      <trkpt lat="46.57853" lon="-1.35593">
        <ele>25.8</ele>
        <time>2021-12-24T12:14:01Z</time>
      </trkpt>
      <trkpt lat="46.5785" lon="-1.35585">
        <ele>26</ele>
        <time>2021-12-24T12:14:03Z</time>
      </trkpt>
      <trkpt lat="46.57847" lon="-1.35575">
        <ele>26.4</ele>
        <time>2021-12-24T12:14:05Z</time>
      </trkpt>
      <trkpt lat="46.57844" lon="-1.35565">
        <ele>26.4</ele>
        <time>2021-12-24T12:14:07Z</time>
      </trkpt>
      <trkpt lat="46.5784" lon="-1.35555">
        <ele>26.6</ele>
        <time>2021-12-24T12:14:09Z</time>
      </trkpt>
      <trkpt lat="46.57836" lon="-1.35546">
        <ele>27</ele>
        <time>2021-12-24T12:14:11Z</time>
      </trkpt>
      <trkpt lat="46.57832" lon="-1.35537">
        <ele>27.4</ele>
        <time>2021-12-24T12:14:13Z</time>
      </trkpt>
      <trkpt lat="46.57831" lon="-1.35533">
        <ele>27.6</ele>
        <time>2021-12-24T12:14:14Z</time>
      </trkpt>
      <trkpt lat="46.57829" lon="-1.35527">
        <ele>28</ele>
        <time>2021-12-24T12:14:15Z</time>
      </trkpt>
      <trkpt lat="46.57826" lon="-1.35518">
        <ele>28.2</ele>
        <time>2021-12-24T12:14:17Z</time>
      </trkpt>
      <trkpt lat="46.57824" lon="-1.35509">
        <ele>28.4</ele>
        <time>2021-12-24T12:14:19Z</time>
      </trkpt>
      <trkpt lat="46.57824" lon="-1.35504">
        <ele>28.6</ele>
        <time>2021-12-24T12:14:20Z</time>
      </trkpt>
      <trkpt lat="46.57823" lon="-1.355">
        <ele>28.6</ele>
        <time>2021-12-24T12:14:21Z</time>
      </trkpt>
      <trkpt lat="46.57821" lon="-1.3549">
        <ele>29</ele>
        <time>2021-12-24T12:14:23Z</time>
      </trkpt>
      <trkpt lat="46.57822" lon="-1.35481">
        <ele>29.2</ele>
        <time>2021-12-24T12:14:25Z</time>
      </trkpt>
      <trkpt lat="46.57822" lon="-1.3547">
        <ele>29.4</ele>
        <time>2021-12-24T12:14:27Z</time>
      </trkpt>
      <trkpt lat="46.57823" lon="-1.3546">
        <ele>29.8</ele>
        <time>2021-12-24T12:14:29Z</time>
      </trkpt>
      <trkpt lat="46.57824" lon="-1.3545">
        <ele>30</ele>
        <time>2021-12-24T12:14:31Z</time>
      </trkpt>
      <trkpt lat="46.57825" lon="-1.3544">
        <ele>30.4</ele>
        <time>2021-12-24T12:14:33Z</time>
      </trkpt>
      <trkpt lat="46.57826" lon="-1.35431">
        <ele>30.6</ele>
        <time>2021-12-24T12:14:35Z</time>
      </trkpt>
      <trkpt lat="46.57825" lon="-1.35421">
        <ele>31</ele>
        <time>2021-12-24T12:14:37Z</time>
      </trkpt>
      <trkpt lat="46.57824" lon="-1.35417">
        <ele>31.2</ele>
        <time>2021-12-24T12:14:38Z</time>
      </trkpt>
      <trkpt lat="46.57824" lon="-1.35413">
        <ele>31.2</ele>
        <time>2021-12-24T12:14:39Z</time>
      </trkpt>
      <trkpt lat="46.57825" lon="-1.35404">
        <ele>31.6</ele>
        <time>2021-12-24T12:14:41Z</time>
      </trkpt>
      <trkpt lat="46.57827" lon="-1.35395">
        <ele>31.8</ele>
        <time>2021-12-24T12:14:43Z</time>
      </trkpt>
      <trkpt lat="46.5783" lon="-1.35387">
        <ele>32.2</ele>
        <time>2021-12-24T12:14:45Z</time>
      </trkpt>
      <trkpt lat="46.57831" lon="-1.35379">
        <ele>32.6</ele>
        <time>2021-12-24T12:14:47Z</time>
      </trkpt>
      <trkpt lat="46.57832" lon="-1.35375">
        <ele>32.6</ele>
        <time>2021-12-24T12:14:48Z</time>
      </trkpt>
      <trkpt lat="46.57832" lon="-1.35371">
        <ele>32.8</ele>
        <time>2021-12-24T12:14:49Z</time>
      </trkpt>
      <trkpt lat="46.57833" lon="-1.35365">
        <ele>33</ele>
        <time>2021-12-24T12:14:51Z</time>
      </trkpt>
      <trkpt lat="46.57837" lon="-1.35357">
        <ele>33.2</ele>
        <time>2021-12-24T12:14:53Z</time>
      </trkpt>
      <trkpt lat="46.57842" lon="-1.35349">
        <ele>33.6</ele>
        <time>2021-12-24T12:14:55Z</time>
      </trkpt>
      <trkpt lat="46.57844" lon="-1.35341">
        <ele>33.8</ele>
        <time>2021-12-24T12:14:57Z</time>
      </trkpt>
      <trkpt lat="46.57846" lon="-1.35334">
        <ele>34.2</ele>
        <time>2021-12-24T12:14:59Z</time>
      </trkpt>
      <trkpt lat="46.57847" lon="-1.35326">
        <ele>34.4</ele>
        <time>2021-12-24T12:15:01Z</time>
      </trkpt>
      <trkpt lat="46.57847" lon="-1.35318">
        <ele>34.6</ele>
        <time>2021-12-24T12:15:03Z</time>
      </trkpt>
      <trkpt lat="46.57846" lon="-1.35309">
        <ele>34.8</ele>
        <time>2021-12-24T12:15:05Z</time>
      </trkpt>
      <trkpt lat="46.57846" lon="-1.35305">
        <ele>35</ele>
        <time>2021-12-24T12:15:06Z</time>
      </trkpt>
      <trkpt lat="46.57845" lon="-1.35301">
        <ele>35.2</ele>
        <time>2021-12-24T12:15:07Z</time>
      </trkpt>
      <trkpt lat="46.57845" lon="-1.35293">
        <ele>35.4</ele>
        <time>2021-12-24T12:15:09Z</time>
      </trkpt>
      <trkpt lat="46.57844" lon="-1.35284">
        <ele>35.8</ele>
        <time>2021-12-24T12:15:11Z</time>
      </trkpt>
      <trkpt lat="46.57844" lon="-1.35281">
        <ele>36</ele>
        <time>2021-12-24T12:15:12Z</time>
      </trkpt>
      <trkpt lat="46.57843" lon="-1.35278">
        <ele>36.2</ele>
        <time>2021-12-24T12:15:13Z</time>
      </trkpt>
      <trkpt lat="46.57843" lon="-1.35272">
        <ele>36.4</ele>
        <time>2021-12-24T12:15:15Z</time>
      </trkpt>
      <trkpt lat="46.57846" lon="-1.35269">
        <ele>36.8</ele>
        <time>2021-12-24T12:15:17Z</time>
      </trkpt>
      <trkpt lat="46.57847" lon="-1.3526">
        <ele>37.2</ele>
        <time>2021-12-24T12:15:19Z</time>
      </trkpt>
      <trkpt lat="46.57846" lon="-1.35251">
        <ele>37.6</ele>
        <time>2021-12-24T12:15:21Z</time>
      </trkpt>
      <trkpt lat="46.57846" lon="-1.35241">
        <ele>37.8</ele>
        <time>2021-12-24T12:15:23Z</time>
      </trkpt>
      <trkpt lat="46.57846" lon="-1.35232">
        <ele>38</ele>
        <time>2021-12-24T12:15:25Z</time>
      </trkpt>
      <trkpt lat="46.57845" lon="-1.35223">
        <ele>38.4</ele>
        <time>2021-12-24T12:15:27Z</time>
      </trkpt>
      <trkpt lat="46.57844" lon="-1.35213">
        <ele>38.8</ele>
        <time>2021-12-24T12:15:29Z</time>
      </trkpt>
      <trkpt lat="46.57844" lon="-1.35205">
        <ele>39</ele>
        <time>2021-12-24T12:15:31Z</time>
      </trkpt>
      <trkpt lat="46.57843" lon="-1.352">
        <ele>39.2</ele>
        <time>2021-12-24T12:15:32Z</time>
      </trkpt>
      <trkpt lat="46.57843" lon="-1.35196">
        <ele>39.4</ele>
        <time>2021-12-24T12:15:33Z</time>
      </trkpt>
      <trkpt lat="46.57843" lon="-1.35187">
        <ele>39.8</ele>
        <time>2021-12-24T12:15:35Z</time>
      </trkpt>
      <trkpt lat="46.57842" lon="-1.35179">
        <ele>40.2</ele>
        <time>2021-12-24T12:15:37Z</time>
      </trkpt>
      <trkpt lat="46.57842" lon="-1.3517">
        <ele>40.4</ele>
        <time>2021-12-24T12:15:39Z</time>
      </trkpt>
      <trkpt lat="46.57842" lon="-1.35162">
        <ele>40.8</ele>
        <time>2021-12-24T12:15:41Z</time>
      </trkpt>
      <trkpt lat="46.57841" lon="-1.35153">
        <ele>41.2</ele>
        <time>2021-12-24T12:15:43Z</time>
      </trkpt>
      <trkpt lat="46.57841" lon="-1.35144">
        <ele>41.4</ele>
        <time>2021-12-24T12:15:45Z</time>
      </trkpt>
      <trkpt lat="46.5784" lon="-1.35135">
        <ele>41.8</ele>
        <time>2021-12-24T12:15:47Z</time>
      </trkpt>
      <trkpt lat="46.57839" lon="-1.35127">
        <ele>42.2</ele>
        <time>2021-12-24T12:15:49Z</time>
      </trkpt>
      <trkpt lat="46.57838" lon="-1.35118">
        <ele>42.6</ele>
        <time>2021-12-24T12:15:51Z</time>
      </trkpt>
      <trkpt lat="46.57837" lon="-1.35109">
        <ele>42.8</ele>
        <time>2021-12-24T12:15:53Z</time>
      </trkpt>
      <trkpt lat="46.57836" lon="-1.351">
        <ele>43.2</ele>
        <time>2021-12-24T12:15:55Z</time>
      </trkpt>
      <trkpt lat="46.57834" lon="-1.3509">
        <ele>43.6</ele>
        <time>2021-12-24T12:15:57Z</time>
      </trkpt>
      <trkpt lat="46.57833" lon="-1.35082">
        <ele>44</ele>
        <time>2021-12-24T12:15:59Z</time>
      </trkpt>
      <trkpt lat="46.57832" lon="-1.35073">
        <ele>44.2</ele>
        <time>2021-12-24T12:16:01Z</time>
      </trkpt>
      <trkpt lat="46.5783" lon="-1.35065">
        <ele>44.6</ele>
        <time>2021-12-24T12:16:03Z</time>
      </trkpt>
      <trkpt lat="46.57829" lon="-1.35055">
        <ele>44.8</ele>
        <time>2021-12-24T12:16:05Z</time>
      </trkpt>
      <trkpt lat="46.57827" lon="-1.35046">
        <ele>45.2</ele>
        <time>2021-12-24T12:16:07Z</time>
      </trkpt>
      <trkpt lat="46.57825" lon="-1.35037">
        <ele>45.6</ele>
        <time>2021-12-24T12:16:09Z</time>
      </trkpt>
      <trkpt lat="46.57823" lon="-1.35027">
        <ele>46</ele>
        <time>2021-12-24T12:16:11Z</time>
      </trkpt>
      <trkpt lat="46.5782" lon="-1.35016">
        <ele>46.4</ele>
        <time>2021-12-24T12:16:13Z</time>
      </trkpt>
      <trkpt lat="46.57818" lon="-1.35005">
        <ele>46.6</ele>
        <time>2021-12-24T12:16:15Z</time>
      </trkpt>
      <trkpt lat="46.57816" lon="-1.34999">
        <ele>46.8</ele>
        <time>2021-12-24T12:16:16Z</time>
      </trkpt>
      <trkpt lat="46.57814" lon="-1.34993">
        <ele>46.8</ele>
        <time>2021-12-24T12:16:17Z</time>
      </trkpt>
      <trkpt lat="46.5781" lon="-1.34981">
        <ele>47.2</ele>
        <time>2021-12-24T12:16:19Z</time>
      </trkpt>
      <trkpt lat="46.57806" lon="-1.34968">
        <ele>47.6</ele>
        <time>2021-12-24T12:16:21Z</time>
      </trkpt>
      <trkpt lat="46.578" lon="-1.34955">
        <ele>47.8</ele>
        <time>2021-12-24T12:16:23Z</time>
      </trkpt>
      <trkpt lat="46.57794" lon="-1.34942">
        <ele>48</ele>
        <time>2021-12-24T12:16:25Z</time>
      </trkpt>
      <trkpt lat="46.57787" lon="-1.34929">
        <ele>48.2</ele>
        <time>2021-12-24T12:16:27Z</time>
      </trkpt>
      <trkpt lat="46.57783" lon="-1.34922">
        <ele>48.4</ele>
        <time>2021-12-24T12:16:28Z</time>
      </trkpt>
      <trkpt lat="46.57779" lon="-1.34915">
        <ele>48.4</ele>
        <time>2021-12-24T12:16:29Z</time>
      </trkpt>
      <trkpt lat="46.57775" lon="-1.34908">
        <ele>48.6</ele>
        <time>2021-12-24T12:16:30Z</time>
      </trkpt>
      <trkpt lat="46.57771" lon="-1.34901">
        <ele>48.6</ele>
        <time>2021-12-24T12:16:31Z</time>
      </trkpt>
      <trkpt lat="46.57762" lon="-1.34888">
        <ele>48.8</ele>
        <time>2021-12-24T12:16:33Z</time>
      </trkpt>
      <trkpt lat="46.57753" lon="-1.34874">
        <ele>49</ele>
        <time>2021-12-24T12:16:35Z</time>
      </trkpt>
      <trkpt lat="46.57743" lon="-1.3486">
        <ele>49</ele>
        <time>2021-12-24T12:16:37Z</time>
      </trkpt>
      <trkpt lat="46.57739" lon="-1.34853">
        <ele>49</ele>
        <time>2021-12-24T12:16:38Z</time>
      </trkpt>
      <trkpt lat="46.57734" lon="-1.34845">
        <ele>49.2</ele>
        <time>2021-12-24T12:16:39Z</time>
      </trkpt>
      <trkpt lat="46.57723" lon="-1.3483">
        <ele>49.2</ele>
        <time>2021-12-24T12:16:41Z</time>
      </trkpt>
      <trkpt lat="46.57713" lon="-1.34815">
        <ele>49.2</ele>
        <time>2021-12-24T12:16:43Z</time>
      </trkpt>
      <trkpt lat="46.57702" lon="-1.34799">
        <ele>49.2</ele>
        <time>2021-12-24T12:16:45Z</time>
      </trkpt>
      <trkpt lat="46.57691" lon="-1.34782">
        <ele>49.2</ele>
        <time>2021-12-24T12:16:47Z</time>
      </trkpt>
      <trkpt lat="46.57679" lon="-1.34765">
        <ele>49.2</ele>
        <time>2021-12-24T12:16:49Z</time>
      </trkpt>
      <trkpt lat="46.57667" lon="-1.34747">
        <ele>49.2</ele>
        <time>2021-12-24T12:16:51Z</time>
      </trkpt>
      <trkpt lat="46.57661" lon="-1.34738">
        <ele>49.2</ele>
        <time>2021-12-24T12:16:52Z</time>
      </trkpt>
      <trkpt lat="46.57655" lon="-1.34729">
        <ele>49.2</ele>
        <time>2021-12-24T12:16:53Z</time>
      </trkpt>
      <trkpt lat="46.57643" lon="-1.3471">
        <ele>49</ele>
        <time>2021-12-24T12:16:55Z</time>
      </trkpt>
      <trkpt lat="46.5763" lon="-1.34691">
        <ele>48.8</ele>
        <time>2021-12-24T12:16:57Z</time>
      </trkpt>
      <trkpt lat="46.57617" lon="-1.34672">
        <ele>48.6</ele>
        <time>2021-12-24T12:16:59Z</time>
      </trkpt>
      <trkpt lat="46.57604" lon="-1.34653">
        <ele>48.4</ele>
        <time>2021-12-24T12:17:01Z</time>
      </trkpt>
      <trkpt lat="46.57592" lon="-1.34631">
        <ele>48</ele>
        <time>2021-12-24T12:17:03Z</time>
      </trkpt>
      <trkpt lat="46.57582" lon="-1.34609">
        <ele>48</ele>
        <time>2021-12-24T12:17:05Z</time>
      </trkpt>
      <trkpt lat="46.57579" lon="-1.34598">
        <ele>47.8</ele>
        <time>2021-12-24T12:17:06Z</time>
      </trkpt>
      <trkpt lat="46.57576" lon="-1.34586">
        <ele>47.8</ele>
        <time>2021-12-24T12:17:07Z</time>
      </trkpt>
      <trkpt lat="46.57573" lon="-1.34575">
        <ele>47.6</ele>
        <time>2021-12-24T12:17:08Z</time>
      </trkpt>
      <trkpt lat="46.57572" lon="-1.34564">
        <ele>47.6</ele>
        <time>2021-12-24T12:17:09Z</time>
      </trkpt>
      <trkpt lat="46.57568" lon="-1.34543">
        <ele>47.6</ele>
        <time>2021-12-24T12:17:11Z</time>
      </trkpt>
      <trkpt lat="46.57564" lon="-1.34525">
        <ele>47.4</ele>
        <time>2021-12-24T12:17:13Z</time>
      </trkpt>
      <trkpt lat="46.57562" lon="-1.34517">
        <ele>47.4</ele>
        <time>2021-12-24T12:17:14Z</time>
      </trkpt>
      <trkpt lat="46.5756" lon="-1.34509">
        <ele>47.4</ele>
        <time>2021-12-24T12:17:15Z</time>
      </trkpt>
      <trkpt lat="46.57555" lon="-1.34495">
        <ele>47.6</ele>
        <time>2021-12-24T12:17:17Z</time>
      </trkpt>
      <trkpt lat="46.57549" lon="-1.34482">
        <ele>47.6</ele>
        <time>2021-12-24T12:17:19Z</time>
      </trkpt>
      <trkpt lat="46.57546" lon="-1.34476">
        <ele>47.6</ele>
        <time>2021-12-24T12:17:20Z</time>
      </trkpt>
      <trkpt lat="46.57542" lon="-1.34469">
        <ele>47.6</ele>
        <time>2021-12-24T12:17:21Z</time>
      </trkpt>
      <trkpt lat="46.57535" lon="-1.34455">
        <ele>47.6</ele>
        <time>2021-12-24T12:17:23Z</time>
      </trkpt>
      <trkpt lat="46.57532" lon="-1.34448">
        <ele>47.6</ele>
        <time>2021-12-24T12:17:24Z</time>
      </trkpt>
      <trkpt lat="46.57528" lon="-1.34441">
        <ele>47.4</ele>
        <time>2021-12-24T12:17:25Z</time>
      </trkpt>
      <trkpt lat="46.5752" lon="-1.34424">
        <ele>47.4</ele>
        <time>2021-12-24T12:17:27Z</time>
      </trkpt>
      <trkpt lat="46.57512" lon="-1.34406">
        <ele>47.2</ele>
        <time>2021-12-24T12:17:29Z</time>
      </trkpt>
      <trkpt lat="46.57504" lon="-1.34387">
        <ele>47</ele>
        <time>2021-12-24T12:17:31Z</time>
      </trkpt>
      <trkpt lat="46.57495" lon="-1.34368">
        <ele>46.8</ele>
        <time>2021-12-24T12:17:33Z</time>
      </trkpt>
      <trkpt lat="46.57486" lon="-1.34346">
        <ele>46.6</ele>
        <time>2021-12-24T12:17:35Z</time>
      </trkpt>
      <trkpt lat="46.57476" lon="-1.34327">
        <ele>46.4</ele>
        <time>2021-12-24T12:17:37Z</time>
      </trkpt>
      <trkpt lat="46.57471" lon="-1.3432">
        <ele>46.2</ele>
        <time>2021-12-24T12:17:38Z</time>
      </trkpt>
      <trkpt lat="46.57465" lon="-1.34316">
        <ele>46.2</ele>
        <time>2021-12-24T12:17:39Z</time>
      </trkpt>
      <trkpt lat="46.57453" lon="-1.34312">
        <ele>46</ele>
        <time>2021-12-24T12:17:41Z</time>
      </trkpt>
      <trkpt lat="46.5744" lon="-1.34312">
        <ele>45.8</ele>
        <time>2021-12-24T12:17:43Z</time>
      </trkpt>
      <trkpt lat="46.57429" lon="-1.34313">
        <ele>45.8</ele>
        <time>2021-12-24T12:17:45Z</time>
      </trkpt>
      <trkpt lat="46.57423" lon="-1.34313">
        <ele>45.6</ele>
        <time>2021-12-24T12:17:46Z</time>
      </trkpt>
      <trkpt lat="46.57419" lon="-1.34312">
        <ele>45.6</ele>
        <time>2021-12-24T12:17:47Z</time>
      </trkpt>
      <trkpt lat="46.5741" lon="-1.34304">
        <ele>45.2</ele>
        <time>2021-12-24T12:17:49Z</time>
      </trkpt>
      <trkpt lat="46.57403" lon="-1.34296">
        <ele>45.2</ele>
        <time>2021-12-24T12:17:51Z</time>
      </trkpt>
      <trkpt lat="46.57395" lon="-1.3429">
        <ele>45</ele>
        <time>2021-12-24T12:17:53Z</time>
      </trkpt>
      <trkpt lat="46.57387" lon="-1.34283">
        <ele>45</ele>
        <time>2021-12-24T12:17:55Z</time>
      </trkpt>
      <trkpt lat="46.57378" lon="-1.34276">
        <ele>45</ele>
        <time>2021-12-24T12:17:57Z</time>
      </trkpt>
      <trkpt lat="46.57371" lon="-1.34267">
        <ele>44.8</ele>
        <time>2021-12-24T12:17:59Z</time>
      </trkpt>
      <trkpt lat="46.57363" lon="-1.34257">
        <ele>44.8</ele>
        <time>2021-12-24T12:18:01Z</time>
      </trkpt>
      <trkpt lat="46.57356" lon="-1.34247">
        <ele>44.6</ele>
        <time>2021-12-24T12:18:03Z</time>
      </trkpt>
      <trkpt lat="46.57347" lon="-1.34237">
        <ele>44.6</ele>
        <time>2021-12-24T12:18:05Z</time>
      </trkpt>
      <trkpt lat="46.57339" lon="-1.34227">
        <ele>44.4</ele>
        <time>2021-12-24T12:18:07Z</time>
      </trkpt>
      <trkpt lat="46.5733" lon="-1.34216">
        <ele>44.4</ele>
        <time>2021-12-24T12:18:09Z</time>
      </trkpt>
      <trkpt lat="46.57325" lon="-1.34211">
        <ele>44.4</ele>
        <time>2021-12-24T12:18:10Z</time>
      </trkpt>
      <trkpt lat="46.57321" lon="-1.34206">
        <ele>44.4</ele>
        <time>2021-12-24T12:18:11Z</time>
      </trkpt>
      <trkpt lat="46.57313" lon="-1.34194">
        <ele>44.4</ele>
        <time>2021-12-24T12:18:13Z</time>
      </trkpt>
      <trkpt lat="46.57308" lon="-1.34189">
        <ele>44.6</ele>
        <time>2021-12-24T12:18:14Z</time>
      </trkpt>
      <trkpt lat="46.57305" lon="-1.34183">
        <ele>44.6</ele>
        <time>2021-12-24T12:18:15Z</time>
      </trkpt>
      <trkpt lat="46.57297" lon="-1.34171">
        <ele>44.6</ele>
        <time>2021-12-24T12:18:17Z</time>
      </trkpt>
      <trkpt lat="46.57292" lon="-1.34158">
        <ele>44.6</ele>
        <time>2021-12-24T12:18:19Z</time>
      </trkpt>
      <trkpt lat="46.57289" lon="-1.34152">
        <ele>44.4</ele>
        <time>2021-12-24T12:18:20Z</time>
      </trkpt>
      <trkpt lat="46.57286" lon="-1.34146">
        <ele>44.6</ele>
        <time>2021-12-24T12:18:21Z</time>
      </trkpt>
      <trkpt lat="46.57279" lon="-1.34134">
        <ele>44.8</ele>
        <time>2021-12-24T12:18:23Z</time>
      </trkpt>
      <trkpt lat="46.57274" lon="-1.34122">
        <ele>44.8</ele>
        <time>2021-12-24T12:18:25Z</time>
      </trkpt>
      <trkpt lat="46.57271" lon="-1.34116">
        <ele>45</ele>
        <time>2021-12-24T12:18:26Z</time>
      </trkpt>
      <trkpt lat="46.57268" lon="-1.34109">
        <ele>45</ele>
        <time>2021-12-24T12:18:27Z</time>
      </trkpt>
      <trkpt lat="46.57262" lon="-1.34097">
        <ele>45</ele>
        <time>2021-12-24T12:18:29Z</time>
      </trkpt>
      <trkpt lat="46.57254" lon="-1.34086">
        <ele>45</ele>
        <time>2021-12-24T12:18:31Z</time>
      </trkpt>
      <trkpt lat="46.57247" lon="-1.34074">
        <ele>45</ele>
        <time>2021-12-24T12:18:33Z</time>
      </trkpt>
      <trkpt lat="46.57239" lon="-1.34062">
        <ele>45.2</ele>
        <time>2021-12-24T12:18:35Z</time>
      </trkpt>
      <trkpt lat="46.57231" lon="-1.34051">
        <ele>45.2</ele>
        <time>2021-12-24T12:18:37Z</time>
      </trkpt>
      <trkpt lat="46.57223" lon="-1.34041">
        <ele>45.2</ele>
        <time>2021-12-24T12:18:39Z</time>
      </trkpt>
      <trkpt lat="46.57219" lon="-1.34035">
        <ele>45.2</ele>
        <time>2021-12-24T12:18:40Z</time>
      </trkpt>
      <trkpt lat="46.57215" lon="-1.3403">
        <ele>45.2</ele>
        <time>2021-12-24T12:18:41Z</time>
      </trkpt>
      <trkpt lat="46.57208" lon="-1.3402">
        <ele>45.2</ele>
        <time>2021-12-24T12:18:43Z</time>
      </trkpt>
      <trkpt lat="46.572" lon="-1.34009">
        <ele>45.4</ele>
        <time>2021-12-24T12:18:45Z</time>
      </trkpt>
      <trkpt lat="46.57192" lon="-1.34">
        <ele>45.4</ele>
        <time>2021-12-24T12:18:47Z</time>
      </trkpt>
      <trkpt lat="46.57184" lon="-1.33991">
        <ele>45.4</ele>
        <time>2021-12-24T12:18:49Z</time>
      </trkpt>
      <trkpt lat="46.5718" lon="-1.33986">
        <ele>45.4</ele>
        <time>2021-12-24T12:18:50Z</time>
      </trkpt>
      <trkpt lat="46.57176" lon="-1.33982">
        <ele>45.6</ele>
        <time>2021-12-24T12:18:51Z</time>
      </trkpt>
      <trkpt lat="46.57168" lon="-1.33976">
        <ele>45.6</ele>
        <time>2021-12-24T12:18:53Z</time>
      </trkpt>
      <trkpt lat="46.5716" lon="-1.33969">
        <ele>45.6</ele>
        <time>2021-12-24T12:18:55Z</time>
      </trkpt>
      <trkpt lat="46.57153" lon="-1.33963">
        <ele>45.8</ele>
        <time>2021-12-24T12:18:57Z</time>
      </trkpt>
      <trkpt lat="46.57146" lon="-1.33958">
        <ele>46</ele>
        <time>2021-12-24T12:18:59Z</time>
      </trkpt>
      <trkpt lat="46.5714" lon="-1.33953">
        <ele>46</ele>
        <time>2021-12-24T12:19:01Z</time>
      </trkpt>
      <trkpt lat="46.57136" lon="-1.33951">
        <ele>46</ele>
        <time>2021-12-24T12:19:02Z</time>
      </trkpt>
      <trkpt lat="46.57133" lon="-1.33949">
        <ele>46.2</ele>
        <time>2021-12-24T12:19:03Z</time>
      </trkpt>
      <trkpt lat="46.57126" lon="-1.33945">
        <ele>46.4</ele>
        <time>2021-12-24T12:19:05Z</time>
      </trkpt>
      <trkpt lat="46.5712" lon="-1.33941">
        <ele>46.4</ele>
        <time>2021-12-24T12:19:07Z</time>
      </trkpt>
      <trkpt lat="46.57113" lon="-1.33937">
        <ele>46.8</ele>
        <time>2021-12-24T12:19:09Z</time>
      </trkpt>
      <trkpt lat="46.5711" lon="-1.33935">
        <ele>46.8</ele>
        <time>2021-12-24T12:19:10Z</time>
      </trkpt>
      <trkpt lat="46.57106" lon="-1.33934">
        <ele>46.8</ele>
        <time>2021-12-24T12:19:11Z</time>
      </trkpt>
      <trkpt lat="46.571" lon="-1.33932">
        <ele>46.8</ele>
        <time>2021-12-24T12:19:13Z</time>
      </trkpt>
      <trkpt lat="46.57094" lon="-1.33929">
        <ele>47</ele>
        <time>2021-12-24T12:19:15Z</time>
      </trkpt>
      <trkpt lat="46.57088" lon="-1.33927">
        <ele>47.2</ele>
        <time>2021-12-24T12:19:17Z</time>
      </trkpt>
      <trkpt lat="46.57082" lon="-1.33924">
        <ele>47.2</ele>
        <time>2021-12-24T12:19:19Z</time>
      </trkpt>
      <trkpt lat="46.57076" lon="-1.33921">
        <ele>47.4</ele>
        <time>2021-12-24T12:19:21Z</time>
      </trkpt>
      <trkpt lat="46.57073" lon="-1.3392">
        <ele>47.4</ele>
        <time>2021-12-24T12:19:22Z</time>
      </trkpt>
      <trkpt lat="46.5707" lon="-1.33919">
        <ele>47.4</ele>
        <time>2021-12-24T12:19:23Z</time>
      </trkpt>
      <trkpt lat="46.57065" lon="-1.33917">
        <ele>47.6</ele>
        <time>2021-12-24T12:19:25Z</time>
      </trkpt>
      <trkpt lat="46.57059" lon="-1.33915">
        <ele>47.6</ele>
        <time>2021-12-24T12:19:27Z</time>
      </trkpt>
      <trkpt lat="46.57057" lon="-1.33914">
        <ele>47.6</ele>
        <time>2021-12-24T12:19:28Z</time>
      </trkpt>
      <trkpt lat="46.57054" lon="-1.33913">
        <ele>47.6</ele>
        <time>2021-12-24T12:19:29Z</time>
      </trkpt>
      <trkpt lat="46.57048" lon="-1.3391">
        <ele>47.8</ele>
        <time>2021-12-24T12:19:31Z</time>
      </trkpt>
      <trkpt lat="46.57043" lon="-1.33907">
        <ele>47.8</ele>
        <time>2021-12-24T12:19:33Z</time>
      </trkpt>
      <trkpt lat="46.5704" lon="-1.33905">
        <ele>48</ele>
        <time>2021-12-24T12:19:34Z</time>
      </trkpt>
      <trkpt lat="46.57037" lon="-1.33904">
        <ele>48.2</ele>
        <time>2021-12-24T12:19:35Z</time>
      </trkpt>
      <trkpt lat="46.57031" lon="-1.33899">
        <ele>48.4</ele>
        <time>2021-12-24T12:19:37Z</time>
      </trkpt>
      <trkpt lat="46.57025" lon="-1.33895">
        <ele>48.6</ele>
        <time>2021-12-24T12:19:39Z</time>
      </trkpt>
      <trkpt lat="46.57019" lon="-1.33891">
        <ele>48.8</ele>
        <time>2021-12-24T12:19:41Z</time>
      </trkpt>
      <trkpt lat="46.57014" lon="-1.33886">
        <ele>48.8</ele>
        <time>2021-12-24T12:19:43Z</time>
      </trkpt>
      <trkpt lat="46.57009" lon="-1.33881">
        <ele>48.8</ele>
        <time>2021-12-24T12:19:45Z</time>
      </trkpt>
      <trkpt lat="46.57003" lon="-1.33876">
        <ele>49</ele>
        <time>2021-12-24T12:19:47Z</time>
      </trkpt>
      <trkpt lat="46.56997" lon="-1.33871">
        <ele>49.2</ele>
        <time>2021-12-24T12:19:49Z</time>
      </trkpt>
      <trkpt lat="46.5699" lon="-1.33864">
        <ele>49.4</ele>
        <time>2021-12-24T12:19:51Z</time>
      </trkpt>
      <trkpt lat="46.56983" lon="-1.33857">
        <ele>49.4</ele>
        <time>2021-12-24T12:19:53Z</time>
      </trkpt>
      <trkpt lat="46.56976" lon="-1.33849">
        <ele>49.8</ele>
        <time>2021-12-24T12:19:55Z</time>
      </trkpt>
      <trkpt lat="46.56968" lon="-1.3384">
        <ele>50</ele>
        <time>2021-12-24T12:19:57Z</time>
      </trkpt>
      <trkpt lat="46.56961" lon="-1.33833">
        <ele>50.2</ele>
        <time>2021-12-24T12:19:59Z</time>
      </trkpt>
      <trkpt lat="46.56953" lon="-1.33826">
        <ele>50.4</ele>
        <time>2021-12-24T12:20:01Z</time>
      </trkpt>
      <trkpt lat="46.56949" lon="-1.33824">
        <ele>50.4</ele>
        <time>2021-12-24T12:20:02Z</time>
      </trkpt>
      <trkpt lat="46.56945" lon="-1.33823">
        <ele>50.6</ele>
        <time>2021-12-24T12:20:03Z</time>
      </trkpt>
      <trkpt lat="46.56937" lon="-1.33824">
        <ele>50.8</ele>
        <time>2021-12-24T12:20:05Z</time>
      </trkpt>
      <trkpt lat="46.56933" lon="-1.33826">
        <ele>50.8</ele>
        <time>2021-12-24T12:20:06Z</time>
      </trkpt>
      <trkpt lat="46.56929" lon="-1.33829">
        <ele>51</ele>
        <time>2021-12-24T12:20:07Z</time>
      </trkpt>
      <trkpt lat="46.56921" lon="-1.33835">
        <ele>51.2</ele>
        <time>2021-12-24T12:20:09Z</time>
      </trkpt>
      <trkpt lat="46.56917" lon="-1.33838">
        <ele>51.2</ele>
        <time>2021-12-24T12:20:10Z</time>
      </trkpt>
      <trkpt lat="46.56913" lon="-1.33841">
        <ele>51.4</ele>
        <time>2021-12-24T12:20:11Z</time>
      </trkpt>
      <trkpt lat="46.56909" lon="-1.33844">
        <ele>51.4</ele>
        <time>2021-12-24T12:20:12Z</time>
      </trkpt>
      <trkpt lat="46.56905" lon="-1.33848">
        <ele>51.4</ele>
        <time>2021-12-24T12:20:13Z</time>
      </trkpt>
      <trkpt lat="46.56896" lon="-1.33855">
        <ele>51.4</ele>
        <time>2021-12-24T12:20:15Z</time>
      </trkpt>
      <trkpt lat="46.56886" lon="-1.33863">
        <ele>51.4</ele>
        <time>2021-12-24T12:20:17Z</time>
      </trkpt>
      <trkpt lat="46.56881" lon="-1.33867">
        <ele>51.4</ele>
        <time>2021-12-24T12:20:18Z</time>
      </trkpt>
      <trkpt lat="46.56876" lon="-1.33871">
        <ele>51.4</ele>
        <time>2021-12-24T12:20:19Z</time>
      </trkpt>
      <trkpt lat="46.56865" lon="-1.33877">
        <ele>51.4</ele>
        <time>2021-12-24T12:20:21Z</time>
      </trkpt>
      <trkpt lat="46.56854" lon="-1.33885">
        <ele>51.2</ele>
        <time>2021-12-24T12:20:23Z</time>
      </trkpt>
      <trkpt lat="46.56848" lon="-1.33888">
        <ele>51.2</ele>
        <time>2021-12-24T12:20:24Z</time>
      </trkpt>
      <trkpt lat="46.56843" lon="-1.33892">
        <ele>51.2</ele>
        <time>2021-12-24T12:20:25Z</time>
      </trkpt>
      <trkpt lat="46.56832" lon="-1.33899">
        <ele>51.4</ele>
        <time>2021-12-24T12:20:27Z</time>
      </trkpt>
      <trkpt lat="46.5682" lon="-1.33906">
        <ele>51.4</ele>
        <time>2021-12-24T12:20:29Z</time>
      </trkpt>
      <trkpt lat="46.56808" lon="-1.33912">
        <ele>51.4</ele>
        <time>2021-12-24T12:20:31Z</time>
      </trkpt>
      <trkpt lat="46.56797" lon="-1.3392">
        <ele>51.6</ele>
        <time>2021-12-24T12:20:33Z</time>
      </trkpt>
      <trkpt lat="46.56785" lon="-1.33927">
        <ele>51.6</ele>
        <time>2021-12-24T12:20:35Z</time>
      </trkpt>
      <trkpt lat="46.56773" lon="-1.33934">
        <ele>51.6</ele>
        <time>2021-12-24T12:20:37Z</time>
      </trkpt>
      <trkpt lat="46.56767" lon="-1.33938">
        <ele>51.6</ele>
        <time>2021-12-24T12:20:38Z</time>
      </trkpt>
      <trkpt lat="46.56761" lon="-1.3394">
        <ele>51.6</ele>
        <time>2021-12-24T12:20:39Z</time>
      </trkpt>
      <trkpt lat="46.56748" lon="-1.33945">
        <ele>51.6</ele>
        <time>2021-12-24T12:20:41Z</time>
      </trkpt>
      <trkpt lat="46.56735" lon="-1.33949">
        <ele>51.6</ele>
        <time>2021-12-24T12:20:43Z</time>
      </trkpt>
      <trkpt lat="46.56728" lon="-1.33949">
        <ele>51.6</ele>
        <time>2021-12-24T12:20:44Z</time>
      </trkpt>
      <trkpt lat="46.56721" lon="-1.33948">
        <ele>51.6</ele>
        <time>2021-12-24T12:20:45Z</time>
      </trkpt>
      <trkpt lat="46.56707" lon="-1.33942">
        <ele>51.6</ele>
        <time>2021-12-24T12:20:47Z</time>
      </trkpt>
      <trkpt lat="46.56693" lon="-1.33931">
        <ele>51.6</ele>
        <time>2021-12-24T12:20:49Z</time>
      </trkpt>
      <trkpt lat="46.5668" lon="-1.33915">
        <ele>51.4</ele>
        <time>2021-12-24T12:20:51Z</time>
      </trkpt>
      <trkpt lat="46.56667" lon="-1.33899">
        <ele>51.4</ele>
        <time>2021-12-24T12:20:53Z</time>
      </trkpt>
      <trkpt lat="46.56654" lon="-1.33882">
        <ele>51.2</ele>
        <time>2021-12-24T12:20:55Z</time>
      </trkpt>
      <trkpt lat="46.56641" lon="-1.33864">
        <ele>51.2</ele>
        <time>2021-12-24T12:20:57Z</time>
      </trkpt>
      <trkpt lat="46.56634" lon="-1.33855">
        <ele>51.2</ele>
        <time>2021-12-24T12:20:58Z</time>
      </trkpt>
      <trkpt lat="46.56627" lon="-1.33847">
        <ele>51</ele>
        <time>2021-12-24T12:20:59Z</time>
      </trkpt>
      <trkpt lat="46.56612" lon="-1.33831">
        <ele>51</ele>
        <time>2021-12-24T12:21:01Z</time>
      </trkpt>
      <trkpt lat="46.56596" lon="-1.33816">
        <ele>51</ele>
        <time>2021-12-24T12:21:03Z</time>
      </trkpt>
      <trkpt lat="46.56588" lon="-1.3381">
        <ele>50.8</ele>
        <time>2021-12-24T12:21:04Z</time>
      </trkpt>
      <trkpt lat="46.5658" lon="-1.33803">
        <ele>50.8</ele>
        <time>2021-12-24T12:21:05Z</time>
      </trkpt>
      <trkpt lat="46.56563" lon="-1.3379">
        <ele>50.6</ele>
        <time>2021-12-24T12:21:07Z</time>
      </trkpt>
      <trkpt lat="46.56546" lon="-1.3378">
        <ele>50.4</ele>
        <time>2021-12-24T12:21:09Z</time>
      </trkpt>
      <trkpt lat="46.56537" lon="-1.33776">
        <ele>50.4</ele>
        <time>2021-12-24T12:21:10Z</time>
      </trkpt>
      <trkpt lat="46.56528" lon="-1.33773">
        <ele>50.2</ele>
        <time>2021-12-24T12:21:11Z</time>
      </trkpt>
      <trkpt lat="46.56509" lon="-1.33766">
        <ele>50</ele>
        <time>2021-12-24T12:21:13Z</time>
      </trkpt>
      <trkpt lat="46.5649" lon="-1.33761">
        <ele>49.8</ele>
        <time>2021-12-24T12:21:15Z</time>
      </trkpt>
      <trkpt lat="46.5648" lon="-1.33759">
        <ele>49.6</ele>
        <time>2021-12-24T12:21:16Z</time>
      </trkpt>
      <trkpt lat="46.5647" lon="-1.33758">
        <ele>49.6</ele>
        <time>2021-12-24T12:21:17Z</time>
      </trkpt>
      <trkpt lat="46.56451" lon="-1.33755">
        <ele>49.2</ele>
        <time>2021-12-24T12:21:19Z</time>
      </trkpt>
      <trkpt lat="46.56433" lon="-1.33753">
        <ele>49</ele>
        <time>2021-12-24T12:21:21Z</time>
      </trkpt>
      <trkpt lat="46.56424" lon="-1.33752">
        <ele>48.8</ele>
        <time>2021-12-24T12:21:22Z</time>
      </trkpt>
      <trkpt lat="46.56415" lon="-1.33753">
        <ele>48.8</ele>
        <time>2021-12-24T12:21:23Z</time>
      </trkpt>
      <trkpt lat="46.56407" lon="-1.33756">
        <ele>48.6</ele>
        <time>2021-12-24T12:21:24Z</time>
      </trkpt>
      <trkpt lat="46.56399" lon="-1.33762">
        <ele>48.6</ele>
        <time>2021-12-24T12:21:25Z</time>
      </trkpt>
      <trkpt lat="46.56393" lon="-1.33769">
        <ele>48.6</ele>
        <time>2021-12-24T12:21:26Z</time>
      </trkpt>
      <trkpt lat="46.56387" lon="-1.33777">
        <ele>48.6</ele>
        <time>2021-12-24T12:21:27Z</time>
      </trkpt>
      <trkpt lat="46.56376" lon="-1.33789">
        <ele>48.6</ele>
        <time>2021-12-24T12:21:29Z</time>
      </trkpt>
      <trkpt lat="46.5637" lon="-1.33794">
        <ele>48.6</ele>
        <time>2021-12-24T12:21:30Z</time>
      </trkpt>
      <trkpt lat="46.56364" lon="-1.33799">
        <ele>48.8</ele>
        <time>2021-12-24T12:21:31Z</time>
      </trkpt>
      <trkpt lat="46.56353" lon="-1.33805">
        <ele>48.8</ele>
        <time>2021-12-24T12:21:33Z</time>
      </trkpt>
      <trkpt lat="46.56342" lon="-1.33809">
        <ele>48.8</ele>
        <time>2021-12-24T12:21:35Z</time>
      </trkpt>
      <trkpt lat="46.56331" lon="-1.33813">
        <ele>49</ele>
        <time>2021-12-24T12:21:37Z</time>
      </trkpt>
      <trkpt lat="46.5632" lon="-1.33817">
        <ele>49</ele>
        <time>2021-12-24T12:21:39Z</time>
      </trkpt>
      <trkpt lat="46.56309" lon="-1.3382">
        <ele>48.8</ele>
        <time>2021-12-24T12:21:41Z</time>
      </trkpt>
      <trkpt lat="46.56296" lon="-1.33821">
        <ele>48.8</ele>
        <time>2021-12-24T12:21:43Z</time>
      </trkpt>
      <trkpt lat="46.5629" lon="-1.33821">
        <ele>48.8</ele>
        <time>2021-12-24T12:21:44Z</time>
      </trkpt>
      <trkpt lat="46.56284" lon="-1.33821">
        <ele>48.6</ele>
        <time>2021-12-24T12:21:45Z</time>
      </trkpt>
      <trkpt lat="46.56272" lon="-1.33817">
        <ele>48.6</ele>
        <time>2021-12-24T12:21:47Z</time>
      </trkpt>
      <trkpt lat="46.5626" lon="-1.33813">
        <ele>48.4</ele>
        <time>2021-12-24T12:21:49Z</time>
      </trkpt>
      <trkpt lat="46.56254" lon="-1.33811">
        <ele>48</ele>
        <time>2021-12-24T12:21:50Z</time>
      </trkpt>
      <trkpt lat="46.56248" lon="-1.33809">
        <ele>47.8</ele>
        <time>2021-12-24T12:21:51Z</time>
      </trkpt>
      <trkpt lat="46.56235" lon="-1.33806">
        <ele>47.2</ele>
        <time>2021-12-24T12:21:53Z</time>
      </trkpt>
      <trkpt lat="46.56222" lon="-1.33801">
        <ele>47</ele>
        <time>2021-12-24T12:21:55Z</time>
      </trkpt>
      <trkpt lat="46.56216" lon="-1.338">
        <ele>46.8</ele>
        <time>2021-12-24T12:21:56Z</time>
      </trkpt>
      <trkpt lat="46.5621" lon="-1.33799">
        <ele>46.6</ele>
        <time>2021-12-24T12:21:57Z</time>
      </trkpt>
      <trkpt lat="46.56198" lon="-1.33797">
        <ele>46.4</ele>
        <time>2021-12-24T12:21:59Z</time>
      </trkpt>
      <trkpt lat="46.56186" lon="-1.33795">
        <ele>46.2</ele>
        <time>2021-12-24T12:22:01Z</time>
      </trkpt>
      <trkpt lat="46.56181" lon="-1.33794">
        <ele>46</ele>
        <time>2021-12-24T12:22:02Z</time>
      </trkpt>
      <trkpt lat="46.56175" lon="-1.33794">
        <ele>46</ele>
        <time>2021-12-24T12:22:03Z</time>
      </trkpt>
      <trkpt lat="46.56164" lon="-1.33794">
        <ele>46</ele>
        <time>2021-12-24T12:22:05Z</time>
      </trkpt>
      <trkpt lat="46.56153" lon="-1.33793">
        <ele>46</ele>
        <time>2021-12-24T12:22:07Z</time>
      </trkpt>
      <trkpt lat="46.56142" lon="-1.33793">
        <ele>46.2</ele>
        <time>2021-12-24T12:22:09Z</time>
      </trkpt>
      <trkpt lat="46.56137" lon="-1.33793">
        <ele>46.2</ele>
        <time>2021-12-24T12:22:10Z</time>
      </trkpt>
      <trkpt lat="46.56131" lon="-1.33793">
        <ele>46.2</ele>
        <time>2021-12-24T12:22:11Z</time>
      </trkpt>
      <trkpt lat="46.56121" lon="-1.33792">
        <ele>46.4</ele>
        <time>2021-12-24T12:22:13Z</time>
      </trkpt>
      <trkpt lat="46.5611" lon="-1.33793">
        <ele>46.6</ele>
        <time>2021-12-24T12:22:15Z</time>
      </trkpt>
      <trkpt lat="46.561" lon="-1.33793">
        <ele>45.2</ele>
        <time>2021-12-24T12:22:17Z</time>
      </trkpt>
      <trkpt lat="46.5609" lon="-1.33792">
        <ele>45.8</ele>
        <time>2021-12-24T12:22:19Z</time>
      </trkpt>
      <trkpt lat="46.5608" lon="-1.33792">
        <ele>46.4</ele>
        <time>2021-12-24T12:22:21Z</time>
      </trkpt>
      <trkpt lat="46.5607" lon="-1.33791">
        <ele>46.6</ele>
        <time>2021-12-24T12:22:23Z</time>
      </trkpt>
      <trkpt lat="46.56065" lon="-1.33791">
        <ele>46.8</ele>
        <time>2021-12-24T12:22:24Z</time>
      </trkpt>
      <trkpt lat="46.56061" lon="-1.33792">
        <ele>47</ele>
        <time>2021-12-24T12:22:25Z</time>
      </trkpt>
      <trkpt lat="46.56051" lon="-1.33792">
        <ele>47.2</ele>
        <time>2021-12-24T12:22:27Z</time>
      </trkpt>
      <trkpt lat="46.56042" lon="-1.33791">
        <ele>46.6</ele>
        <time>2021-12-24T12:22:29Z</time>
      </trkpt>
      <trkpt lat="46.56034" lon="-1.33791">
        <ele>46.6</ele>
        <time>2021-12-24T12:22:31Z</time>
      </trkpt>
      <trkpt lat="46.56025" lon="-1.33791">
        <ele>46.6</ele>
        <time>2021-12-24T12:22:33Z</time>
      </trkpt>
      <trkpt lat="46.56016" lon="-1.33791">
        <ele>46.6</ele>
        <time>2021-12-24T12:22:35Z</time>
      </trkpt>
      <trkpt lat="46.56007" lon="-1.3379">
        <ele>46.6</ele>
        <time>2021-12-24T12:22:37Z</time>
      </trkpt>
      <trkpt lat="46.55998" lon="-1.3379">
        <ele>46.8</ele>
        <time>2021-12-24T12:22:39Z</time>
      </trkpt>
      <trkpt lat="46.55993" lon="-1.3379">
        <ele>46.8</ele>
        <time>2021-12-24T12:22:40Z</time>
      </trkpt>
      <trkpt lat="46.55989" lon="-1.33789">
        <ele>47</ele>
        <time>2021-12-24T12:22:41Z</time>
      </trkpt>
      <trkpt lat="46.55981" lon="-1.3379">
        <ele>47.2</ele>
        <time>2021-12-24T12:22:43Z</time>
      </trkpt>
      <trkpt lat="46.55972" lon="-1.3379">
        <ele>47.2</ele>
        <time>2021-12-24T12:22:45Z</time>
      </trkpt>
      <trkpt lat="46.55968" lon="-1.3379">
        <ele>47.2</ele>
        <time>2021-12-24T12:22:46Z</time>
      </trkpt>
      <trkpt lat="46.55964" lon="-1.3379">
        <ele>47.2</ele>
        <time>2021-12-24T12:22:47Z</time>
      </trkpt>
      <trkpt lat="46.55956" lon="-1.33789">
        <ele>47.4</ele>
        <time>2021-12-24T12:22:49Z</time>
      </trkpt>
      <trkpt lat="46.55951" lon="-1.33788">
        <ele>47.4</ele>
        <time>2021-12-24T12:22:50Z</time>
      </trkpt>
      <trkpt lat="46.55946" lon="-1.33786">
        <ele>47.4</ele>
        <time>2021-12-24T12:22:51Z</time>
      </trkpt>
      <trkpt lat="46.55936" lon="-1.33781">
        <ele>47.4</ele>
        <time>2021-12-24T12:22:53Z</time>
      </trkpt>
      <trkpt lat="46.55926" lon="-1.33775">
        <ele>47.4</ele>
        <time>2021-12-24T12:22:55Z</time>
      </trkpt>
      <trkpt lat="46.55916" lon="-1.33768">
        <ele>47.6</ele>
        <time>2021-12-24T12:22:57Z</time>
      </trkpt>
      <trkpt lat="46.55906" lon="-1.33763">
        <ele>47.6</ele>
        <time>2021-12-24T12:22:59Z</time>
      </trkpt>
      <trkpt lat="46.55895" lon="-1.33756">
        <ele>47.6</ele>
        <time>2021-12-24T12:23:01Z</time>
      </trkpt>
      <trkpt lat="46.55884" lon="-1.3375">
        <ele>47.4</ele>
        <time>2021-12-24T12:23:03Z</time>
      </trkpt>
      <trkpt lat="46.55873" lon="-1.33744">
        <ele>47.4</ele>
        <time>2021-12-24T12:23:05Z</time>
      </trkpt>
      <trkpt lat="46.55861" lon="-1.33738">
        <ele>47.4</ele>
        <time>2021-12-24T12:23:07Z</time>
      </trkpt>
      <trkpt lat="46.55849" lon="-1.33732">
        <ele>47.4</ele>
        <time>2021-12-24T12:23:09Z</time>
      </trkpt>
      <trkpt lat="46.55836" lon="-1.33725">
        <ele>47.4</ele>
        <time>2021-12-24T12:23:11Z</time>
      </trkpt>
      <trkpt lat="46.55822" lon="-1.33718">
        <ele>47</ele>
        <time>2021-12-24T12:23:13Z</time>
      </trkpt>
      <trkpt lat="46.55808" lon="-1.33711">
        <ele>47</ele>
        <time>2021-12-24T12:23:15Z</time>
      </trkpt>
      <trkpt lat="46.55793" lon="-1.33704">
        <ele>46.8</ele>
        <time>2021-12-24T12:23:17Z</time>
      </trkpt>
      <trkpt lat="46.55779" lon="-1.33697">
        <ele>46.6</ele>
        <time>2021-12-24T12:23:19Z</time>
      </trkpt>
      <trkpt lat="46.55772" lon="-1.33694">
        <ele>46.6</ele>
        <time>2021-12-24T12:23:20Z</time>
      </trkpt>
      <trkpt lat="46.55765" lon="-1.33691">
        <ele>46.6</ele>
        <time>2021-12-24T12:23:21Z</time>
      </trkpt>
      <trkpt lat="46.55752" lon="-1.33683">
        <ele>46.4</ele>
        <time>2021-12-24T12:23:23Z</time>
      </trkpt>
      <trkpt lat="46.5574" lon="-1.33676">
        <ele>46.4</ele>
        <time>2021-12-24T12:23:25Z</time>
      </trkpt>
      <trkpt lat="46.55734" lon="-1.33672">
        <ele>46.2</ele>
        <time>2021-12-24T12:23:26Z</time>
      </trkpt>
      <trkpt lat="46.55728" lon="-1.33668">
        <ele>46.2</ele>
        <time>2021-12-24T12:23:27Z</time>
      </trkpt>
      <trkpt lat="46.55716" lon="-1.33659">
        <ele>46.2</ele>
        <time>2021-12-24T12:23:29Z</time>
      </trkpt>
      <trkpt lat="46.55704" lon="-1.3365">
        <ele>46.2</ele>
        <time>2021-12-24T12:23:31Z</time>
      </trkpt>
      <trkpt lat="46.55693" lon="-1.33642">
        <ele>46.2</ele>
        <time>2021-12-24T12:23:33Z</time>
      </trkpt>
      <trkpt lat="46.55683" lon="-1.33634">
        <ele>46.2</ele>
        <time>2021-12-24T12:23:35Z</time>
      </trkpt>
      <trkpt lat="46.55674" lon="-1.33624">
        <ele>46.2</ele>
        <time>2021-12-24T12:23:37Z</time>
      </trkpt>
      <trkpt lat="46.55666" lon="-1.33615">
        <ele>46.2</ele>
        <time>2021-12-24T12:23:39Z</time>
      </trkpt>
      <trkpt lat="46.55658" lon="-1.33604">
        <ele>46.2</ele>
        <time>2021-12-24T12:23:41Z</time>
      </trkpt>
      <trkpt lat="46.5565" lon="-1.33594">
        <ele>46.2</ele>
        <time>2021-12-24T12:23:43Z</time>
      </trkpt>
      <trkpt lat="46.55643" lon="-1.33584">
        <ele>46.2</ele>
        <time>2021-12-24T12:23:45Z</time>
      </trkpt>
      <trkpt lat="46.5564" lon="-1.33578">
        <ele>46.2</ele>
        <time>2021-12-24T12:23:46Z</time>
      </trkpt>
      <trkpt lat="46.55636" lon="-1.33573">
        <ele>46.2</ele>
        <time>2021-12-24T12:23:47Z</time>
      </trkpt>
      <trkpt lat="46.5563" lon="-1.33564">
        <ele>46</ele>
        <time>2021-12-24T12:23:49Z</time>
      </trkpt>
      <trkpt lat="46.55627" lon="-1.33559">
        <ele>46.2</ele>
        <time>2021-12-24T12:23:50Z</time>
      </trkpt>
      <trkpt lat="46.55624" lon="-1.33554">
        <ele>46.4</ele>
        <time>2021-12-24T12:23:51Z</time>
      </trkpt>
      <trkpt lat="46.55618" lon="-1.33544">
        <ele>46.4</ele>
        <time>2021-12-24T12:23:53Z</time>
      </trkpt>
      <trkpt lat="46.55616" lon="-1.33539">
        <ele>46.4</ele>
        <time>2021-12-24T12:23:54Z</time>
      </trkpt>
      <trkpt lat="46.55613" lon="-1.33534">
        <ele>46.6</ele>
        <time>2021-12-24T12:23:55Z</time>
      </trkpt>
      <trkpt lat="46.55607" lon="-1.33524">
        <ele>46.8</ele>
        <time>2021-12-24T12:23:57Z</time>
      </trkpt>
      <trkpt lat="46.55603" lon="-1.33513">
        <ele>46.8</ele>
        <time>2021-12-24T12:23:59Z</time>
      </trkpt>
      <trkpt lat="46.55599" lon="-1.33504">
        <ele>47</ele>
        <time>2021-12-24T12:24:01Z</time>
      </trkpt>
      <trkpt lat="46.55596" lon="-1.335">
        <ele>47</ele>
        <time>2021-12-24T12:24:02Z</time>
      </trkpt>
      <trkpt lat="46.55594" lon="-1.33495">
        <ele>47</ele>
        <time>2021-12-24T12:24:03Z</time>
      </trkpt>
      <trkpt lat="46.5559" lon="-1.33486">
        <ele>47.2</ele>
        <time>2021-12-24T12:24:05Z</time>
      </trkpt>
      <trkpt lat="46.55587" lon="-1.33477">
        <ele>47.2</ele>
        <time>2021-12-24T12:24:07Z</time>
      </trkpt>
      <trkpt lat="46.55585" lon="-1.33472">
        <ele>47.2</ele>
        <time>2021-12-24T12:24:08Z</time>
      </trkpt>
      <trkpt lat="46.55584" lon="-1.33467">
        <ele>47.2</ele>
        <time>2021-12-24T12:24:09Z</time>
      </trkpt>
      <trkpt lat="46.55581" lon="-1.33457">
        <ele>47.4</ele>
        <time>2021-12-24T12:24:11Z</time>
      </trkpt>
      <trkpt lat="46.55579" lon="-1.33446">
        <ele>47.6</ele>
        <time>2021-12-24T12:24:13Z</time>
      </trkpt>
      <trkpt lat="46.55576" lon="-1.33437">
        <ele>47.8</ele>
        <time>2021-12-24T12:24:15Z</time>
      </trkpt>
      <trkpt lat="46.55574" lon="-1.33432">
        <ele>47.8</ele>
        <time>2021-12-24T12:24:16Z</time>
      </trkpt>
      <trkpt lat="46.55571" lon="-1.33429">
        <ele>47.8</ele>
        <time>2021-12-24T12:24:17Z</time>
      </trkpt>
      <trkpt lat="46.55568" lon="-1.33425">
        <ele>48</ele>
        <time>2021-12-24T12:24:18Z</time>
      </trkpt>
      <trkpt lat="46.55564" lon="-1.33423">
        <ele>48</ele>
        <time>2021-12-24T12:24:19Z</time>
      </trkpt>
      <trkpt lat="46.5556" lon="-1.33421">
        <ele>48</ele>
        <time>2021-12-24T12:24:20Z</time>
      </trkpt>
      <trkpt lat="46.55556" lon="-1.33421">
        <ele>48.2</ele>
        <time>2021-12-24T12:24:21Z</time>
      </trkpt>
      <trkpt lat="46.55548" lon="-1.33421">
        <ele>48.4</ele>
        <time>2021-12-24T12:24:23Z</time>
      </trkpt>
      <trkpt lat="46.55544" lon="-1.33421">
        <ele>48.4</ele>
        <time>2021-12-24T12:24:24Z</time>
      </trkpt>
      <trkpt lat="46.5554" lon="-1.33419">
        <ele>48.6</ele>
        <time>2021-12-24T12:24:25Z</time>
      </trkpt>
      <trkpt lat="46.55536" lon="-1.33416">
        <ele>48.6</ele>
        <time>2021-12-24T12:24:26Z</time>
      </trkpt>
      <trkpt lat="46.55533" lon="-1.33411">
        <ele>48.6</ele>
        <time>2021-12-24T12:24:27Z</time>
      </trkpt>
      <trkpt lat="46.55529" lon="-1.33406">
        <ele>48.6</ele>
        <time>2021-12-24T12:24:28Z</time>
      </trkpt>
      <trkpt lat="46.55527" lon="-1.33399">
        <ele>48.6</ele>
        <time>2021-12-24T12:24:29Z</time>
      </trkpt>
      <trkpt lat="46.55524" lon="-1.33384">
        <ele>48.6</ele>
        <time>2021-12-24T12:24:31Z</time>
      </trkpt>
      <trkpt lat="46.55523" lon="-1.33368">
        <ele>48.6</ele>
        <time>2021-12-24T12:24:33Z</time>
      </trkpt>
      <trkpt lat="46.55522" lon="-1.33351">
        <ele>48.4</ele>
        <time>2021-12-24T12:24:35Z</time>
      </trkpt>
      <trkpt lat="46.55522" lon="-1.33343">
        <ele>48.4</ele>
        <time>2021-12-24T12:24:36Z</time>
      </trkpt>
      <trkpt lat="46.55523" lon="-1.33335">
        <ele>48.2</ele>
        <time>2021-12-24T12:24:37Z</time>
      </trkpt>
      <trkpt lat="46.55522" lon="-1.33319">
        <ele>49</ele>
        <time>2021-12-24T12:24:39Z</time>
      </trkpt>
      <trkpt lat="46.55518" lon="-1.33304">
        <ele>48.8</ele>
        <time>2021-12-24T12:24:41Z</time>
      </trkpt>
      <trkpt lat="46.55513" lon="-1.33288">
        <ele>48.4</ele>
        <time>2021-12-24T12:24:43Z</time>
      </trkpt>
      <trkpt lat="46.5551" lon="-1.3328">
        <ele>48.4</ele>
        <time>2021-12-24T12:24:44Z</time>
      </trkpt>
      <trkpt lat="46.55507" lon="-1.33273">
        <ele>48</ele>
        <time>2021-12-24T12:24:45Z</time>
      </trkpt>
      <trkpt lat="46.55499" lon="-1.33258">
        <ele>47.8</ele>
        <time>2021-12-24T12:24:47Z</time>
      </trkpt>
      <trkpt lat="46.55494" lon="-1.33251">
        <ele>48.2</ele>
        <time>2021-12-24T12:24:48Z</time>
      </trkpt>
      <trkpt lat="46.55488" lon="-1.33246">
        <ele>48</ele>
        <time>2021-12-24T12:24:49Z</time>
      </trkpt>
      <trkpt lat="46.55476" lon="-1.33233">
        <ele>48.2</ele>
        <time>2021-12-24T12:24:51Z</time>
      </trkpt>
      <trkpt lat="46.55465" lon="-1.33221">
        <ele>48.2</ele>
        <time>2021-12-24T12:24:53Z</time>
      </trkpt>
      <trkpt lat="46.55452" lon="-1.33208">
        <ele>48</ele>
        <time>2021-12-24T12:24:55Z</time>
      </trkpt>
      <trkpt lat="46.55441" lon="-1.33194">
        <ele>48</ele>
        <time>2021-12-24T12:24:57Z</time>
      </trkpt>
      <trkpt lat="46.55429" lon="-1.33178">
        <ele>47.8</ele>
        <time>2021-12-24T12:24:59Z</time>
      </trkpt>
      <trkpt lat="46.55424" lon="-1.33169">
        <ele>47.6</ele>
        <time>2021-12-24T12:25:00Z</time>
      </trkpt>
      <trkpt lat="46.55419" lon="-1.33159">
        <ele>47.6</ele>
        <time>2021-12-24T12:25:01Z</time>
      </trkpt>
      <trkpt lat="46.55411" lon="-1.33139">
        <ele>47.4</ele>
        <time>2021-12-24T12:25:03Z</time>
      </trkpt>
      <trkpt lat="46.55402" lon="-1.33119">
        <ele>47.2</ele>
        <time>2021-12-24T12:25:05Z</time>
      </trkpt>
      <trkpt lat="46.55395" lon="-1.33098">
        <ele>47</ele>
        <time>2021-12-24T12:25:07Z</time>
      </trkpt>
      <trkpt lat="46.55392" lon="-1.33088">
        <ele>47</ele>
        <time>2021-12-24T12:25:08Z</time>
      </trkpt>
      <trkpt lat="46.55389" lon="-1.33077">
        <ele>46.8</ele>
        <time>2021-12-24T12:25:09Z</time>
      </trkpt>
      <trkpt lat="46.55388" lon="-1.33066">
        <ele>46.8</ele>
        <time>2021-12-24T12:25:10Z</time>
      </trkpt>
      <trkpt lat="46.55388" lon="-1.33055">
        <ele>46.8</ele>
        <time>2021-12-24T12:25:11Z</time>
      </trkpt>
      <trkpt lat="46.55388" lon="-1.33031">
        <ele>46.6</ele>
        <time>2021-12-24T12:25:13Z</time>
      </trkpt>
      <trkpt lat="46.5539" lon="-1.33019">
        <ele>46.6</ele>
        <time>2021-12-24T12:25:14Z</time>
      </trkpt>
      <trkpt lat="46.55391" lon="-1.33008">
        <ele>46.4</ele>
        <time>2021-12-24T12:25:15Z</time>
      </trkpt>
      <trkpt lat="46.55393" lon="-1.32984">
        <ele>46.2</ele>
        <time>2021-12-24T12:25:17Z</time>
      </trkpt>
      <trkpt lat="46.55392" lon="-1.32972">
        <ele>46.2</ele>
        <time>2021-12-24T12:25:18Z</time>
      </trkpt>
      <trkpt lat="46.55391" lon="-1.32959">
        <ele>46.2</ele>
        <time>2021-12-24T12:25:19Z</time>
      </trkpt>
      <trkpt lat="46.55388" lon="-1.32936">
        <ele>46.2</ele>
        <time>2021-12-24T12:25:21Z</time>
      </trkpt>
      <trkpt lat="46.55383" lon="-1.32912">
        <ele>46</ele>
        <time>2021-12-24T12:25:23Z</time>
      </trkpt>
      <trkpt lat="46.5538" lon="-1.32889">
        <ele>46</ele>
        <time>2021-12-24T12:25:25Z</time>
      </trkpt>
      <trkpt lat="46.55376" lon="-1.32864">
        <ele>45.8</ele>
        <time>2021-12-24T12:25:27Z</time>
      </trkpt>
      <trkpt lat="46.55374" lon="-1.32839">
        <ele>45.6</ele>
        <time>2021-12-24T12:25:29Z</time>
      </trkpt>
      <trkpt lat="46.55372" lon="-1.32815">
        <ele>45.4</ele>
        <time>2021-12-24T12:25:31Z</time>
      </trkpt>
      <trkpt lat="46.5537" lon="-1.32804">
        <ele>45.4</ele>
        <time>2021-12-24T12:25:32Z</time>
      </trkpt>
      <trkpt lat="46.55369" lon="-1.32793">
        <ele>45.4</ele>
        <time>2021-12-24T12:25:33Z</time>
      </trkpt>
      <trkpt lat="46.55367" lon="-1.32769">
        <ele>45.2</ele>
        <time>2021-12-24T12:25:35Z</time>
      </trkpt>
      <trkpt lat="46.55367" lon="-1.32745">
        <ele>45</ele>
        <time>2021-12-24T12:25:37Z</time>
      </trkpt>
      <trkpt lat="46.55368" lon="-1.32733">
        <ele>44.8</ele>
        <time>2021-12-24T12:25:38Z</time>
      </trkpt>
      <trkpt lat="46.5537" lon="-1.32721">
        <ele>44.8</ele>
        <time>2021-12-24T12:25:39Z</time>
      </trkpt>
      <trkpt lat="46.55373" lon="-1.32711">
        <ele>44.6</ele>
        <time>2021-12-24T12:25:40Z</time>
      </trkpt>
      <trkpt lat="46.55378" lon="-1.32702">
        <ele>44.6</ele>
        <time>2021-12-24T12:25:41Z</time>
      </trkpt>
      <trkpt lat="46.55388" lon="-1.32685">
        <ele>44.2</ele>
        <time>2021-12-24T12:25:43Z</time>
      </trkpt>
      <trkpt lat="46.55394" lon="-1.32677">
        <ele>44.2</ele>
        <time>2021-12-24T12:25:44Z</time>
      </trkpt>
      <trkpt lat="46.554" lon="-1.32669">
        <ele>44.2</ele>
        <time>2021-12-24T12:25:45Z</time>
      </trkpt>
      <trkpt lat="46.55411" lon="-1.32655">
        <ele>44</ele>
        <time>2021-12-24T12:25:47Z</time>
      </trkpt>
      <trkpt lat="46.55419" lon="-1.32641">
        <ele>43.8</ele>
        <time>2021-12-24T12:25:49Z</time>
      </trkpt>
      <trkpt lat="46.55427" lon="-1.32628">
        <ele>43.6</ele>
        <time>2021-12-24T12:25:51Z</time>
      </trkpt>
      <trkpt lat="46.55434" lon="-1.32616">
        <ele>43.4</ele>
        <time>2021-12-24T12:25:53Z</time>
      </trkpt>
      <trkpt lat="46.55443" lon="-1.32605">
        <ele>43.2</ele>
        <time>2021-12-24T12:25:55Z</time>
      </trkpt>
      <trkpt lat="46.55451" lon="-1.32593">
        <ele>42.8</ele>
        <time>2021-12-24T12:25:57Z</time>
      </trkpt>
      <trkpt lat="46.55454" lon="-1.32588">
        <ele>42.8</ele>
        <time>2021-12-24T12:25:58Z</time>
      </trkpt>
      <trkpt lat="46.55457" lon="-1.32582">
        <ele>42.6</ele>
        <time>2021-12-24T12:25:59Z</time>
      </trkpt>
      <trkpt lat="46.5546" lon="-1.32576">
        <ele>42.4</ele>
        <time>2021-12-24T12:26:00Z</time>
      </trkpt>
      <trkpt lat="46.55462" lon="-1.32569">
        <ele>42.2</ele>
        <time>2021-12-24T12:26:01Z</time>
      </trkpt>
      <trkpt lat="46.55463" lon="-1.32563">
        <ele>42.2</ele>
        <time>2021-12-24T12:26:02Z</time>
      </trkpt>
      <trkpt lat="46.55464" lon="-1.32556">
        <ele>42</ele>
        <time>2021-12-24T12:26:03Z</time>
      </trkpt>
      <trkpt lat="46.55465" lon="-1.3255">
        <ele>41.8</ele>
        <time>2021-12-24T12:26:04Z</time>
      </trkpt>
      <trkpt lat="46.55465" lon="-1.32544">
        <ele>41.6</ele>
        <time>2021-12-24T12:26:05Z</time>
      </trkpt>
      <trkpt lat="46.55464" lon="-1.32532">
        <ele>41.4</ele>
        <time>2021-12-24T12:26:07Z</time>
      </trkpt>
      <trkpt lat="46.55464" lon="-1.32521">
        <ele>41.2</ele>
        <time>2021-12-24T12:26:09Z</time>
      </trkpt>
      <trkpt lat="46.55464" lon="-1.3251">
        <ele>41.4</ele>
        <time>2021-12-24T12:26:11Z</time>
      </trkpt>
      <trkpt lat="46.55464" lon="-1.325">
        <ele>41.4</ele>
        <time>2021-12-24T12:26:13Z</time>
      </trkpt>
      <trkpt lat="46.55464" lon="-1.32495">
        <ele>41.4</ele>
        <time>2021-12-24T12:26:14Z</time>
      </trkpt>
      <trkpt lat="46.55463" lon="-1.32489">
        <ele>41.4</ele>
        <time>2021-12-24T12:26:15Z</time>
      </trkpt>
      <trkpt lat="46.55461" lon="-1.32479">
        <ele>41.4</ele>
        <time>2021-12-24T12:26:17Z</time>
      </trkpt>
      <trkpt lat="46.55457" lon="-1.32471">
        <ele>41.2</ele>
        <time>2021-12-24T12:26:19Z</time>
      </trkpt>
      <trkpt lat="46.55452" lon="-1.32465">
        <ele>41.2</ele>
        <time>2021-12-24T12:26:21Z</time>
      </trkpt>
      <trkpt lat="46.55448" lon="-1.3246">
        <ele>41.2</ele>
        <time>2021-12-24T12:26:23Z</time>
      </trkpt>
      <trkpt lat="46.55442" lon="-1.32455">
        <ele>41.2</ele>
        <time>2021-12-24T12:26:25Z</time>
      </trkpt>
      <trkpt lat="46.5544" lon="-1.32452">
        <ele>41.2</ele>
        <time>2021-12-24T12:26:26Z</time>
      </trkpt>
      <trkpt lat="46.55437" lon="-1.32449">
        <ele>41.4</ele>
        <time>2021-12-24T12:26:27Z</time>
      </trkpt>
      <trkpt lat="46.55431" lon="-1.32444">
        <ele>41.2</ele>
        <time>2021-12-24T12:26:29Z</time>
      </trkpt>
      <trkpt lat="46.55425" lon="-1.32438">
        <ele>41.4</ele>
        <time>2021-12-24T12:26:31Z</time>
      </trkpt>
      <trkpt lat="46.55419" lon="-1.32431">
        <ele>40.8</ele>
        <time>2021-12-24T12:26:33Z</time>
      </trkpt>
      <trkpt lat="46.55416" lon="-1.32429">
        <ele>40.8</ele>
        <time>2021-12-24T12:26:34Z</time>
      </trkpt>
      <trkpt lat="46.55414" lon="-1.32426">
        <ele>41.4</ele>
        <time>2021-12-24T12:26:35Z</time>
      </trkpt>
      <trkpt lat="46.55408" lon="-1.32421">
        <ele>41.4</ele>
        <time>2021-12-24T12:26:37Z</time>
      </trkpt>
      <trkpt lat="46.55403" lon="-1.32415">
        <ele>41.6</ele>
        <time>2021-12-24T12:26:39Z</time>
      </trkpt>
      <trkpt lat="46.55397" lon="-1.3241">
        <ele>41.6</ele>
        <time>2021-12-24T12:26:41Z</time>
      </trkpt>
      <trkpt lat="46.55391" lon="-1.32404">
        <ele>41.8</ele>
        <time>2021-12-24T12:26:43Z</time>
      </trkpt>
      <trkpt lat="46.55386" lon="-1.32398">
        <ele>42</ele>
        <time>2021-12-24T12:26:45Z</time>
      </trkpt>
      <trkpt lat="46.55381" lon="-1.32393">
        <ele>42</ele>
        <time>2021-12-24T12:26:47Z</time>
      </trkpt>
      <trkpt lat="46.55378" lon="-1.32391">
        <ele>42</ele>
        <time>2021-12-24T12:26:48Z</time>
      </trkpt>
      <trkpt lat="46.55376" lon="-1.32389">
        <ele>42</ele>
        <time>2021-12-24T12:26:49Z</time>
      </trkpt>
      <trkpt lat="46.55372" lon="-1.32384">
        <ele>42.2</ele>
        <time>2021-12-24T12:26:51Z</time>
      </trkpt>
      <trkpt lat="46.55366" lon="-1.32379">
        <ele>42.2</ele>
        <time>2021-12-24T12:26:53Z</time>
      </trkpt>
      <trkpt lat="46.55361" lon="-1.32374">
        <ele>42.4</ele>
        <time>2021-12-24T12:26:55Z</time>
      </trkpt>
      <trkpt lat="46.55356" lon="-1.32369">
        <ele>42.6</ele>
        <time>2021-12-24T12:26:57Z</time>
      </trkpt>
      <trkpt lat="46.55353" lon="-1.32366">
        <ele>42.8</ele>
        <time>2021-12-24T12:26:59Z</time>
      </trkpt>
      <trkpt lat="46.55352" lon="-1.32363">
        <ele>43</ele>
        <time>2021-12-24T12:27:00Z</time>
      </trkpt>
      <trkpt lat="46.55351" lon="-1.32359">
        <ele>43.2</ele>
        <time>2021-12-24T12:27:01Z</time>
      </trkpt>
      <trkpt lat="46.5535" lon="-1.32354">
        <ele>43.2</ele>
        <time>2021-12-24T12:27:02Z</time>
      </trkpt>
      <trkpt lat="46.55351" lon="-1.3235">
        <ele>43.4</ele>
        <time>2021-12-24T12:27:03Z</time>
      </trkpt>
      <trkpt lat="46.55353" lon="-1.32339">
        <ele>43.4</ele>
        <time>2021-12-24T12:27:05Z</time>
      </trkpt>
      <trkpt lat="46.55354" lon="-1.32329">
        <ele>43.6</ele>
        <time>2021-12-24T12:27:07Z</time>
      </trkpt>
      <trkpt lat="46.55355" lon="-1.32317">
        <ele>43.8</ele>
        <time>2021-12-24T12:27:09Z</time>
      </trkpt>
      <trkpt lat="46.55356" lon="-1.32306">
        <ele>44</ele>
        <time>2021-12-24T12:27:11Z</time>
      </trkpt>
      <trkpt lat="46.55357" lon="-1.32292">
        <ele>44</ele>
        <time>2021-12-24T12:27:13Z</time>
      </trkpt>
      <trkpt lat="46.55357" lon="-1.32285">
        <ele>44</ele>
        <time>2021-12-24T12:27:14Z</time>
      </trkpt>
      <trkpt lat="46.55358" lon="-1.32277">
        <ele>43.8</ele>
        <time>2021-12-24T12:27:15Z</time>
      </trkpt>
      <trkpt lat="46.55358" lon="-1.3227">
        <ele>43.8</ele>
        <time>2021-12-24T12:27:16Z</time>
      </trkpt>
      <trkpt lat="46.55358" lon="-1.32262">
        <ele>43.8</ele>
        <time>2021-12-24T12:27:17Z</time>
      </trkpt>
      <trkpt lat="46.55359" lon="-1.32246">
        <ele>43.8</ele>
        <time>2021-12-24T12:27:19Z</time>
      </trkpt>
      <trkpt lat="46.55361" lon="-1.3223">
        <ele>43.6</ele>
        <time>2021-12-24T12:27:21Z</time>
      </trkpt>
      <trkpt lat="46.55364" lon="-1.32213">
        <ele>44.2</ele>
        <time>2021-12-24T12:27:23Z</time>
      </trkpt>
      <trkpt lat="46.55366" lon="-1.32205">
        <ele>43.8</ele>
        <time>2021-12-24T12:27:24Z</time>
      </trkpt>
      <trkpt lat="46.55369" lon="-1.32196">
        <ele>43.4</ele>
        <time>2021-12-24T12:27:25Z</time>
      </trkpt>
      <trkpt lat="46.55374" lon="-1.32179">
        <ele>42.4</ele>
        <time>2021-12-24T12:27:27Z</time>
      </trkpt>
      <trkpt lat="46.55376" lon="-1.3217">
        <ele>43</ele>
        <time>2021-12-24T12:27:28Z</time>
      </trkpt>
      <trkpt lat="46.55378" lon="-1.32162">
        <ele>43</ele>
        <time>2021-12-24T12:27:29Z</time>
      </trkpt>
      <trkpt lat="46.55383" lon="-1.32146">
        <ele>42.8</ele>
        <time>2021-12-24T12:27:31Z</time>
      </trkpt>
      <trkpt lat="46.55388" lon="-1.32128">
        <ele>42.6</ele>
        <time>2021-12-24T12:27:33Z</time>
      </trkpt>
      <trkpt lat="46.55391" lon="-1.3212">
        <ele>42.6</ele>
        <time>2021-12-24T12:27:34Z</time>
      </trkpt>
      <trkpt lat="46.55393" lon="-1.32111">
        <ele>42.4</ele>
        <time>2021-12-24T12:27:35Z</time>
      </trkpt>
      <trkpt lat="46.55397" lon="-1.32095">
        <ele>42.2</ele>
        <time>2021-12-24T12:27:37Z</time>
      </trkpt>
      <trkpt lat="46.55401" lon="-1.3208">
        <ele>42</ele>
        <time>2021-12-24T12:27:39Z</time>
      </trkpt>
      <trkpt lat="46.55406" lon="-1.32064">
        <ele>41.8</ele>
        <time>2021-12-24T12:27:41Z</time>
      </trkpt>
      <trkpt lat="46.55413" lon="-1.3205">
        <ele>42.2</ele>
        <time>2021-12-24T12:27:43Z</time>
      </trkpt>
      <trkpt lat="46.55415" lon="-1.32043">
        <ele>42</ele>
        <time>2021-12-24T12:27:44Z</time>
      </trkpt>
      <trkpt lat="46.55418" lon="-1.32036">
        <ele>42</ele>
        <time>2021-12-24T12:27:45Z</time>
      </trkpt>
      <trkpt lat="46.55423" lon="-1.32021">
        <ele>42</ele>
        <time>2021-12-24T12:27:47Z</time>
      </trkpt>
      <trkpt lat="46.55426" lon="-1.32006">
        <ele>41.8</ele>
        <time>2021-12-24T12:27:49Z</time>
      </trkpt>
      <trkpt lat="46.55428" lon="-1.31999">
        <ele>41.6</ele>
        <time>2021-12-24T12:27:50Z</time>
      </trkpt>
      <trkpt lat="46.55429" lon="-1.31992">
        <ele>41.6</ele>
        <time>2021-12-24T12:27:51Z</time>
      </trkpt>
      <trkpt lat="46.55432" lon="-1.31986">
        <ele>41.6</ele>
        <time>2021-12-24T12:27:52Z</time>
      </trkpt>
      <trkpt lat="46.55434" lon="-1.3198">
        <ele>41.6</ele>
        <time>2021-12-24T12:27:53Z</time>
      </trkpt>
      <trkpt lat="46.55436" lon="-1.31974">
        <ele>41.4</ele>
        <time>2021-12-24T12:27:54Z</time>
      </trkpt>
      <trkpt lat="46.55441" lon="-1.31969">
        <ele>41.8</ele>
        <time>2021-12-24T12:27:55Z</time>
      </trkpt>
      <trkpt lat="46.55443" lon="-1.31958">
        <ele>41.8</ele>
        <time>2021-12-24T12:27:57Z</time>
      </trkpt>
      <trkpt lat="46.55452" lon="-1.31949">
        <ele>42.6</ele>
        <time>2021-12-24T12:27:59Z</time>
      </trkpt>
      <trkpt lat="46.55456" lon="-1.31938">
        <ele>42.6</ele>
        <time>2021-12-24T12:28:01Z</time>
      </trkpt>
      <trkpt lat="46.5546" lon="-1.31925">
        <ele>42.6</ele>
        <time>2021-12-24T12:28:03Z</time>
      </trkpt>
      <trkpt lat="46.55462" lon="-1.31912">
        <ele>42.8</ele>
        <time>2021-12-24T12:28:05Z</time>
      </trkpt>
      <trkpt lat="46.55465" lon="-1.31898">
        <ele>42.8</ele>
        <time>2021-12-24T12:28:07Z</time>
      </trkpt>
      <trkpt lat="46.55466" lon="-1.31886">
        <ele>42.6</ele>
        <time>2021-12-24T12:28:09Z</time>
      </trkpt>
      <trkpt lat="46.55466" lon="-1.31879">
        <ele>42.6</ele>
        <time>2021-12-24T12:28:10Z</time>
      </trkpt>
      <trkpt lat="46.55468" lon="-1.31872">
        <ele>42.6</ele>
        <time>2021-12-24T12:28:11Z</time>
      </trkpt>
      <trkpt lat="46.55473" lon="-1.31859">
        <ele>42.6</ele>
        <time>2021-12-24T12:28:13Z</time>
      </trkpt>
      <trkpt lat="46.55477" lon="-1.31845">
        <ele>42.6</ele>
        <time>2021-12-24T12:28:15Z</time>
      </trkpt>
      <trkpt lat="46.5548" lon="-1.31832">
        <ele>42.6</ele>
        <time>2021-12-24T12:28:17Z</time>
      </trkpt>
      <trkpt lat="46.55483" lon="-1.31818">
        <ele>42.6</ele>
        <time>2021-12-24T12:28:19Z</time>
      </trkpt>
      <trkpt lat="46.55486" lon="-1.31805">
        <ele>42.6</ele>
        <time>2021-12-24T12:28:21Z</time>
      </trkpt>
      <trkpt lat="46.55493" lon="-1.31792">
        <ele>43</ele>
        <time>2021-12-24T12:28:23Z</time>
      </trkpt>
      <trkpt lat="46.55498" lon="-1.3178">
        <ele>43.2</ele>
        <time>2021-12-24T12:28:25Z</time>
      </trkpt>
      <trkpt lat="46.55502" lon="-1.31767">
        <ele>43.2</ele>
        <time>2021-12-24T12:28:27Z</time>
      </trkpt>
      <trkpt lat="46.55504" lon="-1.31761">
        <ele>43.4</ele>
        <time>2021-12-24T12:28:28Z</time>
      </trkpt>
      <trkpt lat="46.55507" lon="-1.31755">
        <ele>43.4</ele>
        <time>2021-12-24T12:28:29Z</time>
      </trkpt>
      <trkpt lat="46.55511" lon="-1.31743">
        <ele>43.4</ele>
        <time>2021-12-24T12:28:31Z</time>
      </trkpt>
      <trkpt lat="46.55513" lon="-1.31737">
        <ele>43.6</ele>
        <time>2021-12-24T12:28:32Z</time>
      </trkpt>
      <trkpt lat="46.55515" lon="-1.31731">
        <ele>43.4</ele>
        <time>2021-12-24T12:28:33Z</time>
      </trkpt>
      <trkpt lat="46.5552" lon="-1.3172">
        <ele>43.6</ele>
        <time>2021-12-24T12:28:35Z</time>
      </trkpt>
      <trkpt lat="46.55524" lon="-1.31708">
        <ele>43.6</ele>
        <time>2021-12-24T12:28:37Z</time>
      </trkpt>
      <trkpt lat="46.55527" lon="-1.31699">
        <ele>43.6</ele>
        <time>2021-12-24T12:28:39Z</time>
      </trkpt>
      <trkpt lat="46.55529" lon="-1.31693">
        <ele>43.6</ele>
        <time>2021-12-24T12:28:40Z</time>
      </trkpt>
      <trkpt lat="46.55532" lon="-1.31688">
        <ele>43.8</ele>
        <time>2021-12-24T12:28:41Z</time>
      </trkpt>
      <trkpt lat="46.55533" lon="-1.31683">
        <ele>43.8</ele>
        <time>2021-12-24T12:28:42Z</time>
      </trkpt>
      <trkpt lat="46.55533" lon="-1.31678">
        <ele>43.8</ele>
        <time>2021-12-24T12:28:43Z</time>
      </trkpt>
      <trkpt lat="46.55536" lon="-1.31673">
        <ele>44</ele>
        <time>2021-12-24T12:28:44Z</time>
      </trkpt>
      <trkpt lat="46.5554" lon="-1.31668">
        <ele>44</ele>
        <time>2021-12-24T12:28:45Z</time>
      </trkpt>
      <trkpt lat="46.55543" lon="-1.31662">
        <ele>44.2</ele>
        <time>2021-12-24T12:28:46Z</time>
      </trkpt>
      <trkpt lat="46.55546" lon="-1.31657">
        <ele>44.2</ele>
        <time>2021-12-24T12:28:47Z</time>
      </trkpt>
      <trkpt lat="46.55547" lon="-1.31652">
        <ele>44.2</ele>
        <time>2021-12-24T12:28:48Z</time>
      </trkpt>
      <trkpt lat="46.55548" lon="-1.31646">
        <ele>44.4</ele>
        <time>2021-12-24T12:28:49Z</time>
      </trkpt>
      <trkpt lat="46.55552" lon="-1.31635">
        <ele>44.4</ele>
        <time>2021-12-24T12:28:51Z</time>
      </trkpt>
      <trkpt lat="46.55557" lon="-1.31625">
        <ele>44.8</ele>
        <time>2021-12-24T12:28:53Z</time>
      </trkpt>
      <trkpt lat="46.55561" lon="-1.31614">
        <ele>45</ele>
        <time>2021-12-24T12:28:55Z</time>
      </trkpt>
      <trkpt lat="46.55564" lon="-1.31604">
        <ele>45.2</ele>
        <time>2021-12-24T12:28:57Z</time>
      </trkpt>
      <trkpt lat="46.55567" lon="-1.31594">
        <ele>45.2</ele>
        <time>2021-12-24T12:28:59Z</time>
      </trkpt>
      <trkpt lat="46.55569" lon="-1.31589">
        <ele>45.4</ele>
        <time>2021-12-24T12:29:00Z</time>
      </trkpt>
      <trkpt lat="46.55571" lon="-1.31584">
        <ele>45.4</ele>
        <time>2021-12-24T12:29:01Z</time>
      </trkpt>
      <trkpt lat="46.55575" lon="-1.31575">
        <ele>45.8</ele>
        <time>2021-12-24T12:29:03Z</time>
      </trkpt>
      <trkpt lat="46.55577" lon="-1.31564">
        <ele>45.8</ele>
        <time>2021-12-24T12:29:05Z</time>
      </trkpt>
      <trkpt lat="46.5558" lon="-1.31554">
        <ele>46.2</ele>
        <time>2021-12-24T12:29:07Z</time>
      </trkpt>
      <trkpt lat="46.55581" lon="-1.31548">
        <ele>46.2</ele>
        <time>2021-12-24T12:29:08Z</time>
      </trkpt>
      <trkpt lat="46.55583" lon="-1.31543">
        <ele>46.4</ele>
        <time>2021-12-24T12:29:09Z</time>
      </trkpt>
      <trkpt lat="46.55586" lon="-1.31531">
        <ele>46.6</ele>
        <time>2021-12-24T12:29:11Z</time>
      </trkpt>
      <trkpt lat="46.55587" lon="-1.31526">
        <ele>46.6</ele>
        <time>2021-12-24T12:29:12Z</time>
      </trkpt>
      <trkpt lat="46.55588" lon="-1.3152">
        <ele>46.8</ele>
        <time>2021-12-24T12:29:13Z</time>
      </trkpt>
      <trkpt lat="46.55589" lon="-1.31514">
        <ele>47</ele>
        <time>2021-12-24T12:29:14Z</time>
      </trkpt>
      <trkpt lat="46.5559" lon="-1.31508">
        <ele>47</ele>
        <time>2021-12-24T12:29:15Z</time>
      </trkpt>
      <trkpt lat="46.55591" lon="-1.31502">
        <ele>47.2</ele>
        <time>2021-12-24T12:29:16Z</time>
      </trkpt>
      <trkpt lat="46.55592" lon="-1.31496">
        <ele>47.4</ele>
        <time>2021-12-24T12:29:17Z</time>
      </trkpt>
      <trkpt lat="46.55594" lon="-1.31484">
        <ele>47.6</ele>
        <time>2021-12-24T12:29:19Z</time>
      </trkpt>
      <trkpt lat="46.55594" lon="-1.31478">
        <ele>47.6</ele>
        <time>2021-12-24T12:29:20Z</time>
      </trkpt>
      <trkpt lat="46.55595" lon="-1.31473">
        <ele>47.6</ele>
        <time>2021-12-24T12:29:21Z</time>
      </trkpt>
      <trkpt lat="46.55597" lon="-1.31462">
        <ele>47.8</ele>
        <time>2021-12-24T12:29:23Z</time>
      </trkpt>
      <trkpt lat="46.55598" lon="-1.3145">
        <ele>48.2</ele>
        <time>2021-12-24T12:29:25Z</time>
      </trkpt>
      <trkpt lat="46.55599" lon="-1.31445">
        <ele>48.2</ele>
        <time>2021-12-24T12:29:26Z</time>
      </trkpt>
      <trkpt lat="46.556" lon="-1.31439">
        <ele>48.4</ele>
        <time>2021-12-24T12:29:27Z</time>
      </trkpt>
      <trkpt lat="46.55601" lon="-1.31428">
        <ele>48.6</ele>
        <time>2021-12-24T12:29:29Z</time>
      </trkpt>
      <trkpt lat="46.55603" lon="-1.31416">
        <ele>48.8</ele>
        <time>2021-12-24T12:29:31Z</time>
      </trkpt>
      <trkpt lat="46.55605" lon="-1.31404">
        <ele>49.2</ele>
        <time>2021-12-24T12:29:33Z</time>
      </trkpt>
      <trkpt lat="46.55605" lon="-1.31399">
        <ele>49.2</ele>
        <time>2021-12-24T12:29:34Z</time>
      </trkpt>
      <trkpt lat="46.55606" lon="-1.31394">
        <ele>49.4</ele>
        <time>2021-12-24T12:29:35Z</time>
      </trkpt>
      <trkpt lat="46.55608" lon="-1.31383">
        <ele>49.8</ele>
        <time>2021-12-24T12:29:37Z</time>
      </trkpt>
      <trkpt lat="46.55611" lon="-1.31373">
        <ele>50</ele>
        <time>2021-12-24T12:29:39Z</time>
      </trkpt>
      <trkpt lat="46.55612" lon="-1.31367">
        <ele>50.2</ele>
        <time>2021-12-24T12:29:40Z</time>
      </trkpt>
      <trkpt lat="46.55613" lon="-1.31362">
        <ele>50.2</ele>
        <time>2021-12-24T12:29:41Z</time>
      </trkpt>
      <trkpt lat="46.55615" lon="-1.31351">
        <ele>50.4</ele>
        <time>2021-12-24T12:29:43Z</time>
      </trkpt>
      <trkpt lat="46.55617" lon="-1.31341">
        <ele>50.8</ele>
        <time>2021-12-24T12:29:45Z</time>
      </trkpt>
      <trkpt lat="46.55619" lon="-1.31331">
        <ele>51</ele>
        <time>2021-12-24T12:29:47Z</time>
      </trkpt>
      <trkpt lat="46.55623" lon="-1.3132">
        <ele>51.2</ele>
        <time>2021-12-24T12:29:49Z</time>
      </trkpt>
      <trkpt lat="46.55625" lon="-1.3131">
        <ele>51.4</ele>
        <time>2021-12-24T12:29:51Z</time>
      </trkpt>
      <trkpt lat="46.55627" lon="-1.31299">
        <ele>51.8</ele>
        <time>2021-12-24T12:29:53Z</time>
      </trkpt>
      <trkpt lat="46.55628" lon="-1.31288">
        <ele>52</ele>
        <time>2021-12-24T12:29:55Z</time>
      </trkpt>
      <trkpt lat="46.5563" lon="-1.31276">
        <ele>52</ele>
        <time>2021-12-24T12:29:57Z</time>
      </trkpt>
      <trkpt lat="46.55631" lon="-1.31266">
        <ele>52.2</ele>
        <time>2021-12-24T12:29:59Z</time>
      </trkpt>
      <trkpt lat="46.55634" lon="-1.31255">
        <ele>52.2</ele>
        <time>2021-12-24T12:30:01Z</time>
      </trkpt>
      <trkpt lat="46.55634" lon="-1.3125">
        <ele>52.4</ele>
        <time>2021-12-24T12:30:02Z</time>
      </trkpt>
      <trkpt lat="46.55635" lon="-1.31245">
        <ele>52.4</ele>
        <time>2021-12-24T12:30:03Z</time>
      </trkpt>
      <trkpt lat="46.55635" lon="-1.31233">
        <ele>52.6</ele>
        <time>2021-12-24T12:30:05Z</time>
      </trkpt>
      <trkpt lat="46.55636" lon="-1.31222">
        <ele>52.6</ele>
        <time>2021-12-24T12:30:07Z</time>
      </trkpt>
      <trkpt lat="46.55637" lon="-1.31216">
        <ele>52.8</ele>
        <time>2021-12-24T12:30:08Z</time>
      </trkpt>
      <trkpt lat="46.55638" lon="-1.3121">
        <ele>52.8</ele>
        <time>2021-12-24T12:30:09Z</time>
      </trkpt>
      <trkpt lat="46.5564" lon="-1.31197">
        <ele>53</ele>
        <time>2021-12-24T12:30:11Z</time>
      </trkpt>
      <trkpt lat="46.55643" lon="-1.31184">
        <ele>53.2</ele>
        <time>2021-12-24T12:30:13Z</time>
      </trkpt>
      <trkpt lat="46.55644" lon="-1.3117">
        <ele>53.2</ele>
        <time>2021-12-24T12:30:15Z</time>
      </trkpt>
      <trkpt lat="46.55645" lon="-1.31155">
        <ele>53.2</ele>
        <time>2021-12-24T12:30:17Z</time>
      </trkpt>
      <trkpt lat="46.55647" lon="-1.31141">
        <ele>53.2</ele>
        <time>2021-12-24T12:30:19Z</time>
      </trkpt>
      <trkpt lat="46.55649" lon="-1.31125">
        <ele>53.2</ele>
        <time>2021-12-24T12:30:21Z</time>
      </trkpt>
      <trkpt lat="46.55649" lon="-1.31109">
        <ele>53</ele>
        <time>2021-12-24T12:30:23Z</time>
      </trkpt>
      <trkpt lat="46.55651" lon="-1.31093">
        <ele>53</ele>
        <time>2021-12-24T12:30:25Z</time>
      </trkpt>
      <trkpt lat="46.55654" lon="-1.31076">
        <ele>53</ele>
        <time>2021-12-24T12:30:27Z</time>
      </trkpt>
      <trkpt lat="46.55655" lon="-1.31059">
        <ele>53</ele>
        <time>2021-12-24T12:30:29Z</time>
      </trkpt>
      <trkpt lat="46.55656" lon="-1.31042">
        <ele>53.2</ele>
        <time>2021-12-24T12:30:31Z</time>
      </trkpt>
      <trkpt lat="46.55656" lon="-1.31025">
        <ele>52.6</ele>
        <time>2021-12-24T12:30:33Z</time>
      </trkpt>
      <trkpt lat="46.55657" lon="-1.31017">
        <ele>52.8</ele>
        <time>2021-12-24T12:30:34Z</time>
      </trkpt>
      <trkpt lat="46.55657" lon="-1.31009">
        <ele>52.6</ele>
        <time>2021-12-24T12:30:35Z</time>
      </trkpt>
      <trkpt lat="46.55658" lon="-1.31002">
        <ele>52.8</ele>
        <time>2021-12-24T12:30:36Z</time>
      </trkpt>
      <trkpt lat="46.5566" lon="-1.30994">
        <ele>52.6</ele>
        <time>2021-12-24T12:30:37Z</time>
      </trkpt>
      <trkpt lat="46.5566" lon="-1.30978">
        <ele>52.8</ele>
        <time>2021-12-24T12:30:39Z</time>
      </trkpt>
      <trkpt lat="46.55661" lon="-1.3097">
        <ele>52.8</ele>
        <time>2021-12-24T12:30:40Z</time>
      </trkpt>
      <trkpt lat="46.55661" lon="-1.30961">
        <ele>52.8</ele>
        <time>2021-12-24T12:30:41Z</time>
      </trkpt>
      <trkpt lat="46.55662" lon="-1.30945">
        <ele>52.6</ele>
        <time>2021-12-24T12:30:43Z</time>
      </trkpt>
      <trkpt lat="46.55663" lon="-1.30927">
        <ele>52.6</ele>
        <time>2021-12-24T12:30:45Z</time>
      </trkpt>
      <trkpt lat="46.55663" lon="-1.30909">
        <ele>52.8</ele>
        <time>2021-12-24T12:30:47Z</time>
      </trkpt>
      <trkpt lat="46.55663" lon="-1.309">
        <ele>52.8</ele>
        <time>2021-12-24T12:30:48Z</time>
      </trkpt>
      <trkpt lat="46.55663" lon="-1.30891">
        <ele>52.8</ele>
        <time>2021-12-24T12:30:49Z</time>
      </trkpt>
      <trkpt lat="46.55664" lon="-1.30872">
        <ele>52.8</ele>
        <time>2021-12-24T12:30:51Z</time>
      </trkpt>
      <trkpt lat="46.55664" lon="-1.30854">
        <ele>52.6</ele>
        <time>2021-12-24T12:30:53Z</time>
      </trkpt>
      <trkpt lat="46.55664" lon="-1.30845">
        <ele>52.6</ele>
        <time>2021-12-24T12:30:54Z</time>
      </trkpt>
      <trkpt lat="46.55664" lon="-1.30836">
        <ele>52.6</ele>
        <time>2021-12-24T12:30:55Z</time>
      </trkpt>
      <trkpt lat="46.55664" lon="-1.30817">
        <ele>52.6</ele>
        <time>2021-12-24T12:30:57Z</time>
      </trkpt>
      <trkpt lat="46.55665" lon="-1.30799">
        <ele>52.6</ele>
        <time>2021-12-24T12:30:59Z</time>
      </trkpt>
      <trkpt lat="46.55665" lon="-1.30781">
        <ele>52.6</ele>
        <time>2021-12-24T12:31:01Z</time>
      </trkpt>
      <trkpt lat="46.55664" lon="-1.30764">
        <ele>52.8</ele>
        <time>2021-12-24T12:31:03Z</time>
      </trkpt>
      <trkpt lat="46.55664" lon="-1.30748">
        <ele>53</ele>
        <time>2021-12-24T12:31:05Z</time>
      </trkpt>
      <trkpt lat="46.55664" lon="-1.30731">
        <ele>53</ele>
        <time>2021-12-24T12:31:07Z</time>
      </trkpt>
      <trkpt lat="46.55663" lon="-1.30723">
        <ele>53.2</ele>
        <time>2021-12-24T12:31:08Z</time>
      </trkpt>
      <trkpt lat="46.55661" lon="-1.30715">
        <ele>53.2</ele>
        <time>2021-12-24T12:31:09Z</time>
      </trkpt>
      <trkpt lat="46.55659" lon="-1.30697">
        <ele>53.4</ele>
        <time>2021-12-24T12:31:11Z</time>
      </trkpt>
      <trkpt lat="46.55657" lon="-1.30678">
        <ele>53.4</ele>
        <time>2021-12-24T12:31:13Z</time>
      </trkpt>
      <trkpt lat="46.55655" lon="-1.30659">
        <ele>53.6</ele>
        <time>2021-12-24T12:31:15Z</time>
      </trkpt>
      <trkpt lat="46.55653" lon="-1.3065">
        <ele>53.6</ele>
        <time>2021-12-24T12:31:16Z</time>
      </trkpt>
      <trkpt lat="46.55652" lon="-1.3064">
        <ele>53.6</ele>
        <time>2021-12-24T12:31:17Z</time>
      </trkpt>
      <trkpt lat="46.5565" lon="-1.3062">
        <ele>53.8</ele>
        <time>2021-12-24T12:31:19Z</time>
      </trkpt>
      <trkpt lat="46.55649" lon="-1.30601">
        <ele>53.6</ele>
        <time>2021-12-24T12:31:21Z</time>
      </trkpt>
      <trkpt lat="46.55648" lon="-1.30582">
        <ele>53.6</ele>
        <time>2021-12-24T12:31:23Z</time>
      </trkpt>
      <trkpt lat="46.55648" lon="-1.30564">
        <ele>53.6</ele>
        <time>2021-12-24T12:31:25Z</time>
      </trkpt>
      <trkpt lat="46.55649" lon="-1.30547">
        <ele>53.4</ele>
        <time>2021-12-24T12:31:27Z</time>
      </trkpt>
      <trkpt lat="46.55651" lon="-1.3054">
        <ele>53.4</ele>
        <time>2021-12-24T12:31:28Z</time>
      </trkpt>
      <trkpt lat="46.55653" lon="-1.30532">
        <ele>53.4</ele>
        <time>2021-12-24T12:31:29Z</time>
      </trkpt>
      <trkpt lat="46.55655" lon="-1.30524">
        <ele>53.6</ele>
        <time>2021-12-24T12:31:30Z</time>
      </trkpt>
      <trkpt lat="46.5566" lon="-1.30518">
        <ele>53.8</ele>
        <time>2021-12-24T12:31:31Z</time>
      </trkpt>
      <trkpt lat="46.55665" lon="-1.30511">
        <ele>53.4</ele>
        <time>2021-12-24T12:31:32Z</time>
      </trkpt>
      <trkpt lat="46.55669" lon="-1.30504">
        <ele>53.6</ele>
        <time>2021-12-24T12:31:33Z</time>
      </trkpt>
      <trkpt lat="46.55674" lon="-1.3049">
        <ele>53.6</ele>
        <time>2021-12-24T12:31:35Z</time>
      </trkpt>
      <trkpt lat="46.55679" lon="-1.30475">
        <ele>53.8</ele>
        <time>2021-12-24T12:31:37Z</time>
      </trkpt>
      <trkpt lat="46.5568" lon="-1.30468">
        <ele>53.8</ele>
        <time>2021-12-24T12:31:38Z</time>
      </trkpt>
      <trkpt lat="46.55682" lon="-1.30461">
        <ele>53.8</ele>
        <time>2021-12-24T12:31:39Z</time>
      </trkpt>
      <trkpt lat="46.55683" lon="-1.30455">
        <ele>54</ele>
        <time>2021-12-24T12:31:40Z</time>
      </trkpt>
      <trkpt lat="46.55685" lon="-1.30449">
        <ele>54</ele>
        <time>2021-12-24T12:31:41Z</time>
      </trkpt>
      <trkpt lat="46.55686" lon="-1.30443">
        <ele>54</ele>
        <time>2021-12-24T12:31:42Z</time>
      </trkpt>
      <trkpt lat="46.55686" lon="-1.30437">
        <ele>54</ele>
        <time>2021-12-24T12:31:43Z</time>
      </trkpt>
      <trkpt lat="46.55689" lon="-1.30428">
        <ele>54</ele>
        <time>2021-12-24T12:31:45Z</time>
      </trkpt>
      <trkpt lat="46.55691" lon="-1.30423">
        <ele>54</ele>
        <time>2021-12-24T12:31:46Z</time>
      </trkpt>
      <trkpt lat="46.55693" lon="-1.30418">
        <ele>54</ele>
        <time>2021-12-24T12:31:47Z</time>
      </trkpt>
      <trkpt lat="46.55697" lon="-1.30408">
        <ele>54</ele>
        <time>2021-12-24T12:31:49Z</time>
      </trkpt>
      <trkpt lat="46.557" lon="-1.30398">
        <ele>54.2</ele>
        <time>2021-12-24T12:31:51Z</time>
      </trkpt>
      <trkpt lat="46.55702" lon="-1.30386">
        <ele>54.4</ele>
        <time>2021-12-24T12:31:53Z</time>
      </trkpt>
      <trkpt lat="46.55703" lon="-1.30374">
        <ele>54.6</ele>
        <time>2021-12-24T12:31:55Z</time>
      </trkpt>
      <trkpt lat="46.55703" lon="-1.30363">
        <ele>54.8</ele>
        <time>2021-12-24T12:31:57Z</time>
      </trkpt>
      <trkpt lat="46.55703" lon="-1.30352">
        <ele>55.2</ele>
        <time>2021-12-24T12:31:59Z</time>
      </trkpt>
      <trkpt lat="46.55703" lon="-1.30341">
        <ele>55.4</ele>
        <time>2021-12-24T12:32:01Z</time>
      </trkpt>
      <trkpt lat="46.55702" lon="-1.30331">
        <ele>55.8</ele>
        <time>2021-12-24T12:32:03Z</time>
      </trkpt>
      <trkpt lat="46.55701" lon="-1.3032">
        <ele>56</ele>
        <time>2021-12-24T12:32:05Z</time>
      </trkpt>
      <trkpt lat="46.557" lon="-1.3031">
        <ele>56.4</ele>
        <time>2021-12-24T12:32:07Z</time>
      </trkpt>
      <trkpt lat="46.55698" lon="-1.303">
        <ele>56.6</ele>
        <time>2021-12-24T12:32:09Z</time>
      </trkpt>
      <trkpt lat="46.55697" lon="-1.30289">
        <ele>57</ele>
        <time>2021-12-24T12:32:11Z</time>
      </trkpt>
      <trkpt lat="46.55695" lon="-1.3028">
        <ele>57.2</ele>
        <time>2021-12-24T12:32:13Z</time>
      </trkpt>
      <trkpt lat="46.55694" lon="-1.30271">
        <ele>57.6</ele>
        <time>2021-12-24T12:32:15Z</time>
      </trkpt>
      <trkpt lat="46.55693" lon="-1.30262">
        <ele>58</ele>
        <time>2021-12-24T12:32:17Z</time>
      </trkpt>
      <trkpt lat="46.55693" lon="-1.30253">
        <ele>58.2</ele>
        <time>2021-12-24T12:32:19Z</time>
      </trkpt>
      <trkpt lat="46.55692" lon="-1.30244">
        <ele>58.6</ele>
        <time>2021-12-24T12:32:21Z</time>
      </trkpt>
      <trkpt lat="46.55692" lon="-1.30235">
        <ele>59</ele>
        <time>2021-12-24T12:32:23Z</time>
      </trkpt>
      <trkpt lat="46.55693" lon="-1.30225">
        <ele>59.2</ele>
        <time>2021-12-24T12:32:25Z</time>
      </trkpt>
      <trkpt lat="46.55693" lon="-1.30216">
        <ele>59.4</ele>
        <time>2021-12-24T12:32:27Z</time>
      </trkpt>
      <trkpt lat="46.55695" lon="-1.30207">
        <ele>59.8</ele>
        <time>2021-12-24T12:32:29Z</time>
      </trkpt>
      <trkpt lat="46.55697" lon="-1.30197">
        <ele>60</ele>
        <time>2021-12-24T12:32:31Z</time>
      </trkpt>
      <trkpt lat="46.55699" lon="-1.30187">
        <ele>60.4</ele>
        <time>2021-12-24T12:32:33Z</time>
      </trkpt>
      <trkpt lat="46.55701" lon="-1.30177">
        <ele>60.6</ele>
        <time>2021-12-24T12:32:35Z</time>
      </trkpt>
      <trkpt lat="46.55703" lon="-1.30168">
        <ele>60.8</ele>
        <time>2021-12-24T12:32:37Z</time>
      </trkpt>
      <trkpt lat="46.55707" lon="-1.3016">
        <ele>61</ele>
        <time>2021-12-24T12:32:39Z</time>
      </trkpt>
      <trkpt lat="46.55713" lon="-1.30155">
        <ele>61.2</ele>
        <time>2021-12-24T12:32:41Z</time>
      </trkpt>
      <trkpt lat="46.55717" lon="-1.30145">
        <ele>61.4</ele>
        <time>2021-12-24T12:32:43Z</time>
      </trkpt>
      <trkpt lat="46.55717" lon="-1.30138">
        <ele>61.4</ele>
        <time>2021-12-24T12:32:44Z</time>
      </trkpt>
      <trkpt lat="46.55717" lon="-1.30132">
        <ele>61.6</ele>
        <time>2021-12-24T12:32:45Z</time>
      </trkpt>
      <trkpt lat="46.55718" lon="-1.30121">
        <ele>61.8</ele>
        <time>2021-12-24T12:32:47Z</time>
      </trkpt>
      <trkpt lat="46.55719" lon="-1.30115">
        <ele>62</ele>
        <time>2021-12-24T12:32:48Z</time>
      </trkpt>
      <trkpt lat="46.5572" lon="-1.30109">
        <ele>62</ele>
        <time>2021-12-24T12:32:49Z</time>
      </trkpt>
      <trkpt lat="46.55722" lon="-1.30096">
        <ele>62.2</ele>
        <time>2021-12-24T12:32:51Z</time>
      </trkpt>
      <trkpt lat="46.55723" lon="-1.30083">
        <ele>62.4</ele>
        <time>2021-12-24T12:32:53Z</time>
      </trkpt>
      <trkpt lat="46.55724" lon="-1.30069">
        <ele>62.4</ele>
        <time>2021-12-24T12:32:55Z</time>
      </trkpt>
      <trkpt lat="46.55726" lon="-1.30055">
        <ele>62.6</ele>
        <time>2021-12-24T12:32:57Z</time>
      </trkpt>
      <trkpt lat="46.55727" lon="-1.30048">
        <ele>62.6</ele>
        <time>2021-12-24T12:32:58Z</time>
      </trkpt>
      <trkpt lat="46.55727" lon="-1.3004">
        <ele>62.6</ele>
        <time>2021-12-24T12:32:59Z</time>
      </trkpt>
      <trkpt lat="46.55727" lon="-1.30033">
        <ele>62.6</ele>
        <time>2021-12-24T12:33:00Z</time>
      </trkpt>
      <trkpt lat="46.55727" lon="-1.30025">
        <ele>62.6</ele>
        <time>2021-12-24T12:33:01Z</time>
      </trkpt>
      <trkpt lat="46.55728" lon="-1.3001">
        <ele>62.6</ele>
        <time>2021-12-24T12:33:03Z</time>
      </trkpt>
      <trkpt lat="46.55729" lon="-1.29995">
        <ele>62.6</ele>
        <time>2021-12-24T12:33:05Z</time>
      </trkpt>
      <trkpt lat="46.5573" lon="-1.2998">
        <ele>62.6</ele>
        <time>2021-12-24T12:33:07Z</time>
      </trkpt>
      <trkpt lat="46.55731" lon="-1.29965">
        <ele>62.4</ele>
        <time>2021-12-24T12:33:09Z</time>
      </trkpt>
      <trkpt lat="46.55731" lon="-1.29957">
        <ele>62.4</ele>
        <time>2021-12-24T12:33:10Z</time>
      </trkpt>
      <trkpt lat="46.55731" lon="-1.2995">
        <ele>62.2</ele>
        <time>2021-12-24T12:33:11Z</time>
      </trkpt>
      <trkpt lat="46.55733" lon="-1.29935">
        <ele>62.4</ele>
        <time>2021-12-24T12:33:13Z</time>
      </trkpt>
      <trkpt lat="46.55734" lon="-1.29927">
        <ele>62.2</ele>
        <time>2021-12-24T12:33:14Z</time>
      </trkpt>
      <trkpt lat="46.55734" lon="-1.2992">
        <ele>62</ele>
        <time>2021-12-24T12:33:15Z</time>
      </trkpt>
      <trkpt lat="46.55734" lon="-1.29905">
        <ele>61.6</ele>
        <time>2021-12-24T12:33:17Z</time>
      </trkpt>
      <trkpt lat="46.55734" lon="-1.29891">
        <ele>62</ele>
        <time>2021-12-24T12:33:19Z</time>
      </trkpt>
      <trkpt lat="46.55733" lon="-1.29884">
        <ele>61.8</ele>
        <time>2021-12-24T12:33:20Z</time>
      </trkpt>
      <trkpt lat="46.55732" lon="-1.29876">
        <ele>61.6</ele>
        <time>2021-12-24T12:33:21Z</time>
      </trkpt>
      <trkpt lat="46.55731" lon="-1.29869">
        <ele>61.4</ele>
        <time>2021-12-24T12:33:22Z</time>
      </trkpt>
      <trkpt lat="46.5573" lon="-1.29862">
        <ele>61.2</ele>
        <time>2021-12-24T12:33:23Z</time>
      </trkpt>
      <trkpt lat="46.55729" lon="-1.29848">
        <ele>61</ele>
        <time>2021-12-24T12:33:25Z</time>
      </trkpt>
      <trkpt lat="46.55729" lon="-1.29834">
        <ele>60.8</ele>
        <time>2021-12-24T12:33:27Z</time>
      </trkpt>
      <trkpt lat="46.55728" lon="-1.2982">
        <ele>60.6</ele>
        <time>2021-12-24T12:33:29Z</time>
      </trkpt>
      <trkpt lat="46.55728" lon="-1.29806">
        <ele>60.6</ele>
        <time>2021-12-24T12:33:31Z</time>
      </trkpt>
      <trkpt lat="46.55728" lon="-1.29792">
        <ele>60.8</ele>
        <time>2021-12-24T12:33:33Z</time>
      </trkpt>
      <trkpt lat="46.55728" lon="-1.29785">
        <ele>60.6</ele>
        <time>2021-12-24T12:33:34Z</time>
      </trkpt>
      <trkpt lat="46.55728" lon="-1.29778">
        <ele>60.6</ele>
        <time>2021-12-24T12:33:35Z</time>
      </trkpt>
      <trkpt lat="46.55726" lon="-1.29765">
        <ele>60.6</ele>
        <time>2021-12-24T12:33:37Z</time>
      </trkpt>
      <trkpt lat="46.55725" lon="-1.29751">
        <ele>60.4</ele>
        <time>2021-12-24T12:33:39Z</time>
      </trkpt>
      <trkpt lat="46.55724" lon="-1.29745">
        <ele>60.2</ele>
        <time>2021-12-24T12:33:40Z</time>
      </trkpt>
      <trkpt lat="46.55724" lon="-1.29738">
        <ele>60</ele>
        <time>2021-12-24T12:33:41Z</time>
      </trkpt>
      <trkpt lat="46.55724" lon="-1.29731">
        <ele>59.8</ele>
        <time>2021-12-24T12:33:42Z</time>
      </trkpt>
      <trkpt lat="46.55723" lon="-1.29725">
        <ele>59.6</ele>
        <time>2021-12-24T12:33:43Z</time>
      </trkpt>
      <trkpt lat="46.55722" lon="-1.29711">
        <ele>59.2</ele>
        <time>2021-12-24T12:33:45Z</time>
      </trkpt>
      <trkpt lat="46.55722" lon="-1.29704">
        <ele>59</ele>
        <time>2021-12-24T12:33:46Z</time>
      </trkpt>
      <trkpt lat="46.55722" lon="-1.29697">
        <ele>58.8</ele>
        <time>2021-12-24T12:33:47Z</time>
      </trkpt>
      <trkpt lat="46.55721" lon="-1.29683">
        <ele>58.6</ele>
        <time>2021-12-24T12:33:49Z</time>
      </trkpt>
      <trkpt lat="46.5572" lon="-1.29669">
        <ele>58.2</ele>
        <time>2021-12-24T12:33:51Z</time>
      </trkpt>
      <trkpt lat="46.5572" lon="-1.29662">
        <ele>58.2</ele>
        <time>2021-12-24T12:33:52Z</time>
      </trkpt>
      <trkpt lat="46.5572" lon="-1.29654">
        <ele>58</ele>
        <time>2021-12-24T12:33:53Z</time>
      </trkpt>
      <trkpt lat="46.55719" lon="-1.29639">
        <ele>57.6</ele>
        <time>2021-12-24T12:33:55Z</time>
      </trkpt>
      <trkpt lat="46.55721" lon="-1.29624">
        <ele>57.4</ele>
        <time>2021-12-24T12:33:57Z</time>
      </trkpt>
      <trkpt lat="46.5572" lon="-1.29616">
        <ele>57.2</ele>
        <time>2021-12-24T12:33:58Z</time>
      </trkpt>
      <trkpt lat="46.55721" lon="-1.29608">
        <ele>57.2</ele>
        <time>2021-12-24T12:33:59Z</time>
      </trkpt>
      <trkpt lat="46.55724" lon="-1.29591">
        <ele>57.2</ele>
        <time>2021-12-24T12:34:01Z</time>
      </trkpt>
      <trkpt lat="46.55725" lon="-1.29574">
        <ele>57.4</ele>
        <time>2021-12-24T12:34:03Z</time>
      </trkpt>
      <trkpt lat="46.55727" lon="-1.29565">
        <ele>57.6</ele>
        <time>2021-12-24T12:34:04Z</time>
      </trkpt>
      <trkpt lat="46.55728" lon="-1.29556">
        <ele>57.8</ele>
        <time>2021-12-24T12:34:05Z</time>
      </trkpt>
      <trkpt lat="46.5573" lon="-1.29539">
        <ele>56.4</ele>
        <time>2021-12-24T12:34:07Z</time>
      </trkpt>
      <trkpt lat="46.55729" lon="-1.29522">
        <ele>57.6</ele>
        <time>2021-12-24T12:34:09Z</time>
      </trkpt>
      <trkpt lat="46.55728" lon="-1.29514">
        <ele>58</ele>
        <time>2021-12-24T12:34:10Z</time>
      </trkpt>
      <trkpt lat="46.55726" lon="-1.29505">
        <ele>59</ele>
        <time>2021-12-24T12:34:11Z</time>
      </trkpt>
      <trkpt lat="46.55724" lon="-1.29497">
        <ele>59.8</ele>
        <time>2021-12-24T12:34:12Z</time>
      </trkpt>
      <trkpt lat="46.55722" lon="-1.29489">
        <ele>60.2</ele>
        <time>2021-12-24T12:34:13Z</time>
      </trkpt>
      <trkpt lat="46.55718" lon="-1.29473">
        <ele>58.8</ele>
        <time>2021-12-24T12:34:15Z</time>
      </trkpt>
      <trkpt lat="46.55712" lon="-1.29455">
        <ele>58.8</ele>
        <time>2021-12-24T12:34:17Z</time>
      </trkpt>
      <trkpt lat="46.55707" lon="-1.29438">
        <ele>58.8</ele>
        <time>2021-12-24T12:34:19Z</time>
      </trkpt>
      <trkpt lat="46.55704" lon="-1.29428">
        <ele>58.6</ele>
        <time>2021-12-24T12:34:20Z</time>
      </trkpt>
      <trkpt lat="46.55702" lon="-1.29419">
        <ele>58.6</ele>
        <time>2021-12-24T12:34:21Z</time>
      </trkpt>
      <trkpt lat="46.557" lon="-1.2941">
        <ele>58.6</ele>
        <time>2021-12-24T12:34:22Z</time>
      </trkpt>
      <trkpt lat="46.55697" lon="-1.29401">
        <ele>58.4</ele>
        <time>2021-12-24T12:34:23Z</time>
      </trkpt>
      <trkpt lat="46.55694" lon="-1.29383">
        <ele>59</ele>
        <time>2021-12-24T12:34:25Z</time>
      </trkpt>
      <trkpt lat="46.55693" lon="-1.29375">
        <ele>58.4</ele>
        <time>2021-12-24T12:34:26Z</time>
      </trkpt>
      <trkpt lat="46.55693" lon="-1.29367">
        <ele>57.8</ele>
        <time>2021-12-24T12:34:27Z</time>
      </trkpt>
      <trkpt lat="46.55691" lon="-1.29358">
        <ele>57.4</ele>
        <time>2021-12-24T12:34:28Z</time>
      </trkpt>
      <trkpt lat="46.55688" lon="-1.2935">
        <ele>57</ele>
        <time>2021-12-24T12:34:29Z</time>
      </trkpt>
      <trkpt lat="46.55683" lon="-1.29333">
        <ele>57.6</ele>
        <time>2021-12-24T12:34:31Z</time>
      </trkpt>
      <trkpt lat="46.55679" lon="-1.29315">
        <ele>57.4</ele>
        <time>2021-12-24T12:34:33Z</time>
      </trkpt>
      <trkpt lat="46.55676" lon="-1.29299">
        <ele>57.2</ele>
        <time>2021-12-24T12:34:35Z</time>
      </trkpt>
      <trkpt lat="46.55671" lon="-1.29282">
        <ele>57</ele>
        <time>2021-12-24T12:34:37Z</time>
      </trkpt>
      <trkpt lat="46.55667" lon="-1.29265">
        <ele>57</ele>
        <time>2021-12-24T12:34:39Z</time>
      </trkpt>
      <trkpt lat="46.55665" lon="-1.29256">
        <ele>56.8</ele>
        <time>2021-12-24T12:34:40Z</time>
      </trkpt>
      <trkpt lat="46.55664" lon="-1.29247">
        <ele>56.8</ele>
        <time>2021-12-24T12:34:41Z</time>
      </trkpt>
      <trkpt lat="46.55662" lon="-1.29239">
        <ele>56.6</ele>
        <time>2021-12-24T12:34:42Z</time>
      </trkpt>
      <trkpt lat="46.55662" lon="-1.2923">
        <ele>56.6</ele>
        <time>2021-12-24T12:34:43Z</time>
      </trkpt>
      <trkpt lat="46.55662" lon="-1.29213">
        <ele>56.4</ele>
        <time>2021-12-24T12:34:45Z</time>
      </trkpt>
      <trkpt lat="46.5566" lon="-1.29197">
        <ele>56.4</ele>
        <time>2021-12-24T12:34:47Z</time>
      </trkpt>
      <trkpt lat="46.55659" lon="-1.2919">
        <ele>56.4</ele>
        <time>2021-12-24T12:34:48Z</time>
      </trkpt>
      <trkpt lat="46.55659" lon="-1.29182">
        <ele>56.2</ele>
        <time>2021-12-24T12:34:49Z</time>
      </trkpt>
      <trkpt lat="46.55659" lon="-1.29169">
        <ele>56.2</ele>
        <time>2021-12-24T12:34:51Z</time>
      </trkpt>
      <trkpt lat="46.55659" lon="-1.29163">
        <ele>56.2</ele>
        <time>2021-12-24T12:34:52Z</time>
      </trkpt>
      <trkpt lat="46.55658" lon="-1.29157">
        <ele>56</ele>
        <time>2021-12-24T12:34:53Z</time>
      </trkpt>
      <trkpt lat="46.55658" lon="-1.29151">
        <ele>56</ele>
        <time>2021-12-24T12:34:54Z</time>
      </trkpt>
      <trkpt lat="46.55657" lon="-1.29146">
        <ele>55.8</ele>
        <time>2021-12-24T12:34:55Z</time>
      </trkpt>
      <trkpt lat="46.55657" lon="-1.29135">
        <ele>55.8</ele>
        <time>2021-12-24T12:34:57Z</time>
      </trkpt>
      <trkpt lat="46.55657" lon="-1.29124">
        <ele>55.6</ele>
        <time>2021-12-24T12:34:59Z</time>
      </trkpt>
      <trkpt lat="46.55657" lon="-1.29115">
        <ele>55.6</ele>
        <time>2021-12-24T12:35:01Z</time>
      </trkpt>
      <trkpt lat="46.55657" lon="-1.2911">
        <ele>55.6</ele>
        <time>2021-12-24T12:35:02Z</time>
      </trkpt>
      <trkpt lat="46.55657" lon="-1.29105">
        <ele>55.6</ele>
        <time>2021-12-24T12:35:03Z</time>
      </trkpt>
      <trkpt lat="46.55657" lon="-1.29097">
        <ele>55.6</ele>
        <time>2021-12-24T12:35:05Z</time>
      </trkpt>
      <trkpt lat="46.55658" lon="-1.29088">
        <ele>55.6</ele>
        <time>2021-12-24T12:35:07Z</time>
      </trkpt>
      <trkpt lat="46.55658" lon="-1.29084">
        <ele>55.6</ele>
        <time>2021-12-24T12:35:08Z</time>
      </trkpt>
      <trkpt lat="46.55658" lon="-1.29079">
        <ele>55.8</ele>
        <time>2021-12-24T12:35:09Z</time>
      </trkpt>
      <trkpt lat="46.55658" lon="-1.2907">
        <ele>55.8</ele>
        <time>2021-12-24T12:35:11Z</time>
      </trkpt>
      <trkpt lat="46.55659" lon="-1.29061">
        <ele>55.8</ele>
        <time>2021-12-24T12:35:13Z</time>
      </trkpt>
      <trkpt lat="46.55658" lon="-1.29052">
        <ele>55.2</ele>
        <time>2021-12-24T12:35:15Z</time>
      </trkpt>
      <trkpt lat="46.55658" lon="-1.29047">
        <ele>55.6</ele>
        <time>2021-12-24T12:35:16Z</time>
      </trkpt>
      <trkpt lat="46.55658" lon="-1.29043">
        <ele>56</ele>
        <time>2021-12-24T12:35:17Z</time>
      </trkpt>
      <trkpt lat="46.55657" lon="-1.29034">
        <ele>56.4</ele>
        <time>2021-12-24T12:35:19Z</time>
      </trkpt>
      <trkpt lat="46.55656" lon="-1.29025">
        <ele>56</ele>
        <time>2021-12-24T12:35:21Z</time>
      </trkpt>
      <trkpt lat="46.55655" lon="-1.29015">
        <ele>56.2</ele>
        <time>2021-12-24T12:35:23Z</time>
      </trkpt>
      <trkpt lat="46.55654" lon="-1.29005">
        <ele>56.4</ele>
        <time>2021-12-24T12:35:25Z</time>
      </trkpt>
      <trkpt lat="46.55653" lon="-1.28995">
        <ele>56.6</ele>
        <time>2021-12-24T12:35:27Z</time>
      </trkpt>
      <trkpt lat="46.55651" lon="-1.28985">
        <ele>56.8</ele>
        <time>2021-12-24T12:35:29Z</time>
      </trkpt>
      <trkpt lat="46.55648" lon="-1.28974">
        <ele>57</ele>
        <time>2021-12-24T12:35:31Z</time>
      </trkpt>
      <trkpt lat="46.55646" lon="-1.28963">
        <ele>57.2</ele>
        <time>2021-12-24T12:35:33Z</time>
      </trkpt>
      <trkpt lat="46.55643" lon="-1.28953">
        <ele>57.4</ele>
        <time>2021-12-24T12:35:35Z</time>
      </trkpt>
      <trkpt lat="46.55641" lon="-1.28948">
        <ele>57.6</ele>
        <time>2021-12-24T12:35:36Z</time>
      </trkpt>
      <trkpt lat="46.55639" lon="-1.28943">
        <ele>57.6</ele>
        <time>2021-12-24T12:35:37Z</time>
      </trkpt>
      <trkpt lat="46.55635" lon="-1.28932">
        <ele>58</ele>
        <time>2021-12-24T12:35:39Z</time>
      </trkpt>
      <trkpt lat="46.55633" lon="-1.2892">
        <ele>58.4</ele>
        <time>2021-12-24T12:35:41Z</time>
      </trkpt>
      <trkpt lat="46.55633" lon="-1.28914">
        <ele>58.4</ele>
        <time>2021-12-24T12:35:42Z</time>
      </trkpt>
      <trkpt lat="46.55634" lon="-1.28909">
        <ele>58.6</ele>
        <time>2021-12-24T12:35:43Z</time>
      </trkpt>
      <trkpt lat="46.5564" lon="-1.28902">
        <ele>58.8</ele>
        <time>2021-12-24T12:35:45Z</time>
      </trkpt>
      <trkpt lat="46.55647" lon="-1.28897">
        <ele>59</ele>
        <time>2021-12-24T12:35:47Z</time>
      </trkpt>
      <trkpt lat="46.55653" lon="-1.28895">
        <ele>59</ele>
        <time>2021-12-24T12:35:49Z</time>
      </trkpt>
      <trkpt lat="46.55657" lon="-1.28894">
        <ele>59.2</ele>
        <time>2021-12-24T12:35:50Z</time>
      </trkpt>
      <trkpt lat="46.55661" lon="-1.28893">
        <ele>59.2</ele>
        <time>2021-12-24T12:35:51Z</time>
      </trkpt>
      <trkpt lat="46.55668" lon="-1.28889">
        <ele>59.4</ele>
        <time>2021-12-24T12:35:53Z</time>
      </trkpt>
      <trkpt lat="46.55675" lon="-1.28884">
        <ele>59.8</ele>
        <time>2021-12-24T12:35:55Z</time>
      </trkpt>
      <trkpt lat="46.55682" lon="-1.28879">
        <ele>60.2</ele>
        <time>2021-12-24T12:35:57Z</time>
      </trkpt>
      <trkpt lat="46.55686" lon="-1.28877">
        <ele>60.4</ele>
        <time>2021-12-24T12:35:58Z</time>
      </trkpt>
      <trkpt lat="46.5569" lon="-1.28875">
        <ele>60.6</ele>
        <time>2021-12-24T12:35:59Z</time>
      </trkpt>
      <trkpt lat="46.55697" lon="-1.28871">
        <ele>60.8</ele>
        <time>2021-12-24T12:36:01Z</time>
      </trkpt>
      <trkpt lat="46.55705" lon="-1.28868">
        <ele>61.2</ele>
        <time>2021-12-24T12:36:03Z</time>
      </trkpt>
      <trkpt lat="46.55712" lon="-1.28864">
        <ele>61.4</ele>
        <time>2021-12-24T12:36:05Z</time>
      </trkpt>
      <trkpt lat="46.55716" lon="-1.28862">
        <ele>61.4</ele>
        <time>2021-12-24T12:36:06Z</time>
      </trkpt>
      <trkpt lat="46.55719" lon="-1.28861">
        <ele>61.6</ele>
        <time>2021-12-24T12:36:07Z</time>
      </trkpt>
      <trkpt lat="46.55728" lon="-1.28858">
        <ele>61.8</ele>
        <time>2021-12-24T12:36:09Z</time>
      </trkpt>
      <trkpt lat="46.55736" lon="-1.28854">
        <ele>62</ele>
        <time>2021-12-24T12:36:11Z</time>
      </trkpt>
      <trkpt lat="46.55744" lon="-1.28851">
        <ele>62.4</ele>
        <time>2021-12-24T12:36:13Z</time>
      </trkpt>
      <trkpt lat="46.55748" lon="-1.2885">
        <ele>62.4</ele>
        <time>2021-12-24T12:36:14Z</time>
      </trkpt>
      <trkpt lat="46.55752" lon="-1.28849">
        <ele>62.6</ele>
        <time>2021-12-24T12:36:15Z</time>
      </trkpt>
      <trkpt lat="46.5576" lon="-1.28846">
        <ele>62.8</ele>
        <time>2021-12-24T12:36:17Z</time>
      </trkpt>
      <trkpt lat="46.55769" lon="-1.28845">
        <ele>63</ele>
        <time>2021-12-24T12:36:19Z</time>
      </trkpt>
      <trkpt lat="46.55777" lon="-1.28843">
        <ele>63.2</ele>
        <time>2021-12-24T12:36:21Z</time>
      </trkpt>
      <trkpt lat="46.55786" lon="-1.28843">
        <ele>63.6</ele>
        <time>2021-12-24T12:36:23Z</time>
      </trkpt>
      <trkpt lat="46.55794" lon="-1.28842">
        <ele>63.8</ele>
        <time>2021-12-24T12:36:25Z</time>
      </trkpt>
      <trkpt lat="46.55802" lon="-1.28843">
        <ele>64</ele>
        <time>2021-12-24T12:36:27Z</time>
      </trkpt>
      <trkpt lat="46.5581" lon="-1.28844">
        <ele>64.4</ele>
        <time>2021-12-24T12:36:29Z</time>
      </trkpt>
      <trkpt lat="46.55815" lon="-1.28844">
        <ele>64.4</ele>
        <time>2021-12-24T12:36:30Z</time>
      </trkpt>
      <trkpt lat="46.55819" lon="-1.28844">
        <ele>64.6</ele>
        <time>2021-12-24T12:36:31Z</time>
      </trkpt>
      <trkpt lat="46.55828" lon="-1.28843">
        <ele>64.8</ele>
        <time>2021-12-24T12:36:33Z</time>
      </trkpt>
      <trkpt lat="46.55837" lon="-1.28841">
        <ele>65</ele>
        <time>2021-12-24T12:36:35Z</time>
      </trkpt>
      <trkpt lat="46.55847" lon="-1.2884">
        <ele>65.2</ele>
        <time>2021-12-24T12:36:37Z</time>
      </trkpt>
      <trkpt lat="46.55856" lon="-1.28838">
        <ele>65.6</ele>
        <time>2021-12-24T12:36:39Z</time>
      </trkpt>
      <trkpt lat="46.55865" lon="-1.28837">
        <ele>65.8</ele>
        <time>2021-12-24T12:36:41Z</time>
      </trkpt>
      <trkpt lat="46.55875" lon="-1.28834">
        <ele>66</ele>
        <time>2021-12-24T12:36:43Z</time>
      </trkpt>
      <trkpt lat="46.55884" lon="-1.28832">
        <ele>66.2</ele>
        <time>2021-12-24T12:36:45Z</time>
      </trkpt>
      <trkpt lat="46.55893" lon="-1.2883">
        <ele>66.2</ele>
        <time>2021-12-24T12:36:47Z</time>
      </trkpt>
      <trkpt lat="46.55902" lon="-1.28827">
        <ele>66.4</ele>
        <time>2021-12-24T12:36:49Z</time>
      </trkpt>
      <trkpt lat="46.55911" lon="-1.28825">
        <ele>66.6</ele>
        <time>2021-12-24T12:36:51Z</time>
      </trkpt>
      <trkpt lat="46.5592" lon="-1.28822">
        <ele>66.8</ele>
        <time>2021-12-24T12:36:53Z</time>
      </trkpt>
      <trkpt lat="46.55929" lon="-1.28819">
        <ele>67</ele>
        <time>2021-12-24T12:36:55Z</time>
      </trkpt>
      <trkpt lat="46.55934" lon="-1.28819">
        <ele>67</ele>
        <time>2021-12-24T12:36:56Z</time>
      </trkpt>
      <trkpt lat="46.55939" lon="-1.28818">
        <ele>67</ele>
        <time>2021-12-24T12:36:57Z</time>
      </trkpt>
      <trkpt lat="46.55949" lon="-1.28815">
        <ele>67.2</ele>
        <time>2021-12-24T12:36:59Z</time>
      </trkpt>
      <trkpt lat="46.55958" lon="-1.28812">
        <ele>67.2</ele>
        <time>2021-12-24T12:37:01Z</time>
      </trkpt>
      <trkpt lat="46.55966" lon="-1.28809">
        <ele>67.4</ele>
        <time>2021-12-24T12:37:03Z</time>
      </trkpt>
      <trkpt lat="46.5597" lon="-1.28799">
        <ele>67.4</ele>
        <time>2021-12-24T12:37:05Z</time>
      </trkpt>
      <trkpt lat="46.55967" lon="-1.28787">
        <ele>67.4</ele>
        <time>2021-12-24T12:37:07Z</time>
      </trkpt>
      <trkpt lat="46.55964" lon="-1.28782">
        <ele>67.4</ele>
        <time>2021-12-24T12:37:08Z</time>
      </trkpt>
      <trkpt lat="46.55961" lon="-1.28778">
        <ele>67.4</ele>
        <time>2021-12-24T12:37:09Z</time>
      </trkpt>
      <trkpt lat="46.55956" lon="-1.28768">
        <ele>67.6</ele>
        <time>2021-12-24T12:37:11Z</time>
      </trkpt>
      <trkpt lat="46.5595" lon="-1.28759">
        <ele>67.6</ele>
        <time>2021-12-24T12:37:13Z</time>
      </trkpt>
      <trkpt lat="46.55944" lon="-1.28749">
        <ele>67.8</ele>
        <time>2021-12-24T12:37:15Z</time>
      </trkpt>
      <trkpt lat="46.55941" lon="-1.28743">
        <ele>67.8</ele>
        <time>2021-12-24T12:37:16Z</time>
      </trkpt>
      <trkpt lat="46.55938" lon="-1.28738">
        <ele>68</ele>
        <time>2021-12-24T12:37:17Z</time>
      </trkpt>
      <trkpt lat="46.55932" lon="-1.28726">
        <ele>68</ele>
        <time>2021-12-24T12:37:19Z</time>
      </trkpt>
      <trkpt lat="46.55925" lon="-1.28715">
        <ele>68.2</ele>
        <time>2021-12-24T12:37:21Z</time>
      </trkpt>
      <trkpt lat="46.55919" lon="-1.28702">
        <ele>68.2</ele>
        <time>2021-12-24T12:37:23Z</time>
      </trkpt>
      <trkpt lat="46.55912" lon="-1.28689">
        <ele>68.4</ele>
        <time>2021-12-24T12:37:25Z</time>
      </trkpt>
      <trkpt lat="46.55905" lon="-1.28675">
        <ele>68.4</ele>
        <time>2021-12-24T12:37:27Z</time>
      </trkpt>
      <trkpt lat="46.55898" lon="-1.28662">
        <ele>68.4</ele>
        <time>2021-12-24T12:37:29Z</time>
      </trkpt>
      <trkpt lat="46.55891" lon="-1.28648">
        <ele>68.4</ele>
        <time>2021-12-24T12:37:31Z</time>
      </trkpt>
      <trkpt lat="46.55888" lon="-1.28641">
        <ele>68.4</ele>
        <time>2021-12-24T12:37:32Z</time>
      </trkpt>
      <trkpt lat="46.55884" lon="-1.28634">
        <ele>68.4</ele>
        <time>2021-12-24T12:37:33Z</time>
      </trkpt>
      <trkpt lat="46.55877" lon="-1.28621">
        <ele>68.4</ele>
        <time>2021-12-24T12:37:35Z</time>
      </trkpt>
      <trkpt lat="46.5587" lon="-1.28608">
        <ele>68.4</ele>
        <time>2021-12-24T12:37:37Z</time>
      </trkpt>
      <trkpt lat="46.55863" lon="-1.28595">
        <ele>68.6</ele>
        <time>2021-12-24T12:37:39Z</time>
      </trkpt>
      <trkpt lat="46.5586" lon="-1.28589">
        <ele>68.6</ele>
        <time>2021-12-24T12:37:40Z</time>
      </trkpt>
      <trkpt lat="46.55856" lon="-1.28583">
        <ele>68.6</ele>
        <time>2021-12-24T12:37:41Z</time>
      </trkpt>
      <trkpt lat="46.5585" lon="-1.2857">
        <ele>68.6</ele>
        <time>2021-12-24T12:37:43Z</time>
      </trkpt>
      <trkpt lat="46.55843" lon="-1.28558">
        <ele>68.6</ele>
        <time>2021-12-24T12:37:45Z</time>
      </trkpt>
      <trkpt lat="46.55835" lon="-1.28545">
        <ele>68.8</ele>
        <time>2021-12-24T12:37:47Z</time>
      </trkpt>
      <trkpt lat="46.55829" lon="-1.28532">
        <ele>68.8</ele>
        <time>2021-12-24T12:37:49Z</time>
      </trkpt>
      <trkpt lat="46.55822" lon="-1.28518">
        <ele>68.8</ele>
        <time>2021-12-24T12:37:51Z</time>
      </trkpt>
      <trkpt lat="46.55817" lon="-1.28504">
        <ele>69</ele>
        <time>2021-12-24T12:37:53Z</time>
      </trkpt>
      <trkpt lat="46.55812" lon="-1.2849">
        <ele>69</ele>
        <time>2021-12-24T12:37:55Z</time>
      </trkpt>
      <trkpt lat="46.55807" lon="-1.28476">
        <ele>69</ele>
        <time>2021-12-24T12:37:57Z</time>
      </trkpt>
      <trkpt lat="46.55802" lon="-1.28462">
        <ele>69.2</ele>
        <time>2021-12-24T12:37:59Z</time>
      </trkpt>
      <trkpt lat="46.55798" lon="-1.28447">
        <ele>69.2</ele>
        <time>2021-12-24T12:38:01Z</time>
      </trkpt>
      <trkpt lat="46.55796" lon="-1.28439">
        <ele>69.2</ele>
        <time>2021-12-24T12:38:02Z</time>
      </trkpt>
      <trkpt lat="46.55794" lon="-1.28432">
        <ele>69.2</ele>
        <time>2021-12-24T12:38:03Z</time>
      </trkpt>
      <trkpt lat="46.5579" lon="-1.28417">
        <ele>69.2</ele>
        <time>2021-12-24T12:38:05Z</time>
      </trkpt>
      <trkpt lat="46.55786" lon="-1.28402">
        <ele>69.2</ele>
        <time>2021-12-24T12:38:07Z</time>
      </trkpt>
      <trkpt lat="46.55781" lon="-1.28386">
        <ele>69.2</ele>
        <time>2021-12-24T12:38:09Z</time>
      </trkpt>
      <trkpt lat="46.55777" lon="-1.28371">
        <ele>69.2</ele>
        <time>2021-12-24T12:38:11Z</time>
      </trkpt>
      <trkpt lat="46.55773" lon="-1.28355">
        <ele>69.2</ele>
        <time>2021-12-24T12:38:13Z</time>
      </trkpt>
      <trkpt lat="46.55768" lon="-1.28339">
        <ele>69.2</ele>
        <time>2021-12-24T12:38:15Z</time>
      </trkpt>
      <trkpt lat="46.55763" lon="-1.28324">
        <ele>69.2</ele>
        <time>2021-12-24T12:38:17Z</time>
      </trkpt>
      <trkpt lat="46.55758" lon="-1.28308">
        <ele>69</ele>
        <time>2021-12-24T12:38:19Z</time>
      </trkpt>
      <trkpt lat="46.55752" lon="-1.28293">
        <ele>68.8</ele>
        <time>2021-12-24T12:38:21Z</time>
      </trkpt>
      <trkpt lat="46.55746" lon="-1.28278">
        <ele>69</ele>
        <time>2021-12-24T12:38:23Z</time>
      </trkpt>
      <trkpt lat="46.55739" lon="-1.28262">
        <ele>68.8</ele>
        <time>2021-12-24T12:38:25Z</time>
      </trkpt>
      <trkpt lat="46.55731" lon="-1.28247">
        <ele>68.8</ele>
        <time>2021-12-24T12:38:27Z</time>
      </trkpt>
      <trkpt lat="46.55724" lon="-1.28233">
        <ele>68.8</ele>
        <time>2021-12-24T12:38:29Z</time>
      </trkpt>
      <trkpt lat="46.55716" lon="-1.28219">
        <ele>68.8</ele>
        <time>2021-12-24T12:38:31Z</time>
      </trkpt>
      <trkpt lat="46.55708" lon="-1.28207">
        <ele>68.6</ele>
        <time>2021-12-24T12:38:33Z</time>
      </trkpt>
      <trkpt lat="46.55699" lon="-1.28194">
        <ele>68.4</ele>
        <time>2021-12-24T12:38:35Z</time>
      </trkpt>
      <trkpt lat="46.55694" lon="-1.28188">
        <ele>68.4</ele>
        <time>2021-12-24T12:38:36Z</time>
      </trkpt>
      <trkpt lat="46.5569" lon="-1.28182">
        <ele>68.4</ele>
        <time>2021-12-24T12:38:37Z</time>
      </trkpt>
      <trkpt lat="46.55681" lon="-1.2817">
        <ele>68.2</ele>
        <time>2021-12-24T12:38:39Z</time>
      </trkpt>
      <trkpt lat="46.55672" lon="-1.28158">
        <ele>68.2</ele>
        <time>2021-12-24T12:38:41Z</time>
      </trkpt>
      <trkpt lat="46.55664" lon="-1.28146">
        <ele>68.2</ele>
        <time>2021-12-24T12:38:43Z</time>
      </trkpt>
      <trkpt lat="46.55655" lon="-1.28133">
        <ele>68.2</ele>
        <time>2021-12-24T12:38:45Z</time>
      </trkpt>
      <trkpt lat="46.55647" lon="-1.2812">
        <ele>68.2</ele>
        <time>2021-12-24T12:38:47Z</time>
      </trkpt>
      <trkpt lat="46.55638" lon="-1.28107">
        <ele>68</ele>
        <time>2021-12-24T12:38:49Z</time>
      </trkpt>
      <trkpt lat="46.5563" lon="-1.28095">
        <ele>67.8</ele>
        <time>2021-12-24T12:38:51Z</time>
      </trkpt>
      <trkpt lat="46.55622" lon="-1.28082">
        <ele>67.6</ele>
        <time>2021-12-24T12:38:53Z</time>
      </trkpt>
      <trkpt lat="46.55618" lon="-1.28076">
        <ele>67.6</ele>
        <time>2021-12-24T12:38:54Z</time>
      </trkpt>
      <trkpt lat="46.55614" lon="-1.2807">
        <ele>67.6</ele>
        <time>2021-12-24T12:38:55Z</time>
      </trkpt>
      <trkpt lat="46.55606" lon="-1.28057">
        <ele>67.4</ele>
        <time>2021-12-24T12:38:57Z</time>
      </trkpt>
      <trkpt lat="46.55598" lon="-1.28045">
        <ele>67.4</ele>
        <time>2021-12-24T12:38:59Z</time>
      </trkpt>
      <trkpt lat="46.55591" lon="-1.28033">
        <ele>67.4</ele>
        <time>2021-12-24T12:39:01Z</time>
      </trkpt>
      <trkpt lat="46.55583" lon="-1.28021">
        <ele>67.4</ele>
        <time>2021-12-24T12:39:03Z</time>
      </trkpt>
      <trkpt lat="46.55576" lon="-1.2801">
        <ele>67.2</ele>
        <time>2021-12-24T12:39:05Z</time>
      </trkpt>
      <trkpt lat="46.55568" lon="-1.27998">
        <ele>67.2</ele>
        <time>2021-12-24T12:39:07Z</time>
      </trkpt>
      <trkpt lat="46.5556" lon="-1.27986">
        <ele>67</ele>
        <time>2021-12-24T12:39:09Z</time>
      </trkpt>
      <trkpt lat="46.55556" lon="-1.2798">
        <ele>67</ele>
        <time>2021-12-24T12:39:10Z</time>
      </trkpt>
      <trkpt lat="46.55552" lon="-1.27974">
        <ele>67</ele>
        <time>2021-12-24T12:39:11Z</time>
      </trkpt>
      <trkpt lat="46.55545" lon="-1.27962">
        <ele>67</ele>
        <time>2021-12-24T12:39:13Z</time>
      </trkpt>
      <trkpt lat="46.55539" lon="-1.27951">
        <ele>67</ele>
        <time>2021-12-24T12:39:15Z</time>
      </trkpt>
      <trkpt lat="46.55536" lon="-1.27945">
        <ele>66.8</ele>
        <time>2021-12-24T12:39:16Z</time>
      </trkpt>
      <trkpt lat="46.55532" lon="-1.27939">
        <ele>66.8</ele>
        <time>2021-12-24T12:39:17Z</time>
      </trkpt>
      <trkpt lat="46.55526" lon="-1.27927">
        <ele>66.8</ele>
        <time>2021-12-24T12:39:19Z</time>
      </trkpt>
      <trkpt lat="46.55521" lon="-1.27914">
        <ele>66.8</ele>
        <time>2021-12-24T12:39:21Z</time>
      </trkpt>
      <trkpt lat="46.55518" lon="-1.27908">
        <ele>66.8</ele>
        <time>2021-12-24T12:39:22Z</time>
      </trkpt>
      <trkpt lat="46.55515" lon="-1.27901">
        <ele>66.8</ele>
        <time>2021-12-24T12:39:23Z</time>
      </trkpt>
      <trkpt lat="46.55512" lon="-1.27895">
        <ele>66.8</ele>
        <time>2021-12-24T12:39:24Z</time>
      </trkpt>
      <trkpt lat="46.55509" lon="-1.27888">
        <ele>66.8</ele>
        <time>2021-12-24T12:39:25Z</time>
      </trkpt>
      <trkpt lat="46.55505" lon="-1.27882">
        <ele>67</ele>
        <time>2021-12-24T12:39:26Z</time>
      </trkpt>
      <trkpt lat="46.55502" lon="-1.27876">
        <ele>67</ele>
        <time>2021-12-24T12:39:27Z</time>
      </trkpt>
      <trkpt lat="46.55495" lon="-1.27864">
        <ele>67</ele>
        <time>2021-12-24T12:39:29Z</time>
      </trkpt>
      <trkpt lat="46.55488" lon="-1.27852">
        <ele>67.2</ele>
        <time>2021-12-24T12:39:31Z</time>
      </trkpt>
      <trkpt lat="46.55482" lon="-1.27841">
        <ele>67.2</ele>
        <time>2021-12-24T12:39:33Z</time>
      </trkpt>
      <trkpt lat="46.55475" lon="-1.2783">
        <ele>67.2</ele>
        <time>2021-12-24T12:39:35Z</time>
      </trkpt>
      <trkpt lat="46.55468" lon="-1.27819">
        <ele>67.4</ele>
        <time>2021-12-24T12:39:37Z</time>
      </trkpt>
      <trkpt lat="46.55462" lon="-1.27808">
        <ele>67.2</ele>
        <time>2021-12-24T12:39:39Z</time>
      </trkpt>
      <trkpt lat="46.55455" lon="-1.27796">
        <ele>67.2</ele>
        <time>2021-12-24T12:39:41Z</time>
      </trkpt>
      <trkpt lat="46.55449" lon="-1.27784">
        <ele>67.2</ele>
        <time>2021-12-24T12:39:43Z</time>
      </trkpt>
      <trkpt lat="46.55442" lon="-1.27771">
        <ele>67.2</ele>
        <time>2021-12-24T12:39:45Z</time>
      </trkpt>
      <trkpt lat="46.55436" lon="-1.27758">
        <ele>67.2</ele>
        <time>2021-12-24T12:39:47Z</time>
      </trkpt>
      <trkpt lat="46.55433" lon="-1.27752">
        <ele>67.2</ele>
        <time>2021-12-24T12:39:48Z</time>
      </trkpt>
      <trkpt lat="46.5543" lon="-1.27746">
        <ele>67.2</ele>
        <time>2021-12-24T12:39:49Z</time>
      </trkpt>
      <trkpt lat="46.55426" lon="-1.27741">
        <ele>67.2</ele>
        <time>2021-12-24T12:39:50Z</time>
      </trkpt>
      <trkpt lat="46.55423" lon="-1.27736">
        <ele>67.4</ele>
        <time>2021-12-24T12:39:51Z</time>
      </trkpt>
      <trkpt lat="46.55419" lon="-1.2773">
        <ele>67.4</ele>
        <time>2021-12-24T12:39:52Z</time>
      </trkpt>
      <trkpt lat="46.55415" lon="-1.27724">
        <ele>67.4</ele>
        <time>2021-12-24T12:39:53Z</time>
      </trkpt>
      <trkpt lat="46.55408" lon="-1.27711">
        <ele>67.4</ele>
        <time>2021-12-24T12:39:55Z</time>
      </trkpt>
      <trkpt lat="46.55401" lon="-1.27699">
        <ele>67.2</ele>
        <time>2021-12-24T12:39:57Z</time>
      </trkpt>
      <trkpt lat="46.55395" lon="-1.27688">
        <ele>67.4</ele>
        <time>2021-12-24T12:39:59Z</time>
      </trkpt>
      <trkpt lat="46.55392" lon="-1.27681">
        <ele>67.4</ele>
        <time>2021-12-24T12:40:00Z</time>
      </trkpt>
      <trkpt lat="46.55388" lon="-1.27675">
        <ele>67.4</ele>
        <time>2021-12-24T12:40:01Z</time>
      </trkpt>
      <trkpt lat="46.55382" lon="-1.27662">
        <ele>67.4</ele>
        <time>2021-12-24T12:40:03Z</time>
      </trkpt>
      <trkpt lat="46.55375" lon="-1.27648">
        <ele>67.4</ele>
        <time>2021-12-24T12:40:05Z</time>
      </trkpt>
      <trkpt lat="46.55372" lon="-1.27642">
        <ele>67.4</ele>
        <time>2021-12-24T12:40:06Z</time>
      </trkpt>
      <trkpt lat="46.55369" lon="-1.27634">
        <ele>67.4</ele>
        <time>2021-12-24T12:40:07Z</time>
      </trkpt>
      <trkpt lat="46.55363" lon="-1.2762">
        <ele>67.4</ele>
        <time>2021-12-24T12:40:09Z</time>
      </trkpt>
      <trkpt lat="46.55358" lon="-1.27605">
        <ele>67.4</ele>
        <time>2021-12-24T12:40:11Z</time>
      </trkpt>
      <trkpt lat="46.55356" lon="-1.27598">
        <ele>67.4</ele>
        <time>2021-12-24T12:40:12Z</time>
      </trkpt>
      <trkpt lat="46.55353" lon="-1.27591">
        <ele>67.4</ele>
        <time>2021-12-24T12:40:13Z</time>
      </trkpt>
      <trkpt lat="46.55348" lon="-1.27576">
        <ele>67.6</ele>
        <time>2021-12-24T12:40:15Z</time>
      </trkpt>
      <trkpt lat="46.55344" lon="-1.27561">
        <ele>67.6</ele>
        <time>2021-12-24T12:40:17Z</time>
      </trkpt>
      <trkpt lat="46.55341" lon="-1.27553">
        <ele>67.6</ele>
        <time>2021-12-24T12:40:18Z</time>
      </trkpt>
      <trkpt lat="46.55338" lon="-1.27546">
        <ele>67.8</ele>
        <time>2021-12-24T12:40:19Z</time>
      </trkpt>
      <trkpt lat="46.55335" lon="-1.27531">
        <ele>67.8</ele>
        <time>2021-12-24T12:40:21Z</time>
      </trkpt>
      <trkpt lat="46.5533" lon="-1.27517">
        <ele>67.8</ele>
        <time>2021-12-24T12:40:23Z</time>
      </trkpt>
      <trkpt lat="46.55326" lon="-1.27503">
        <ele>67.8</ele>
        <time>2021-12-24T12:40:25Z</time>
      </trkpt>
      <trkpt lat="46.55324" lon="-1.27496">
        <ele>67.8</ele>
        <time>2021-12-24T12:40:26Z</time>
      </trkpt>
      <trkpt lat="46.55322" lon="-1.27489">
        <ele>67.8</ele>
        <time>2021-12-24T12:40:27Z</time>
      </trkpt>
      <trkpt lat="46.55317" lon="-1.27475">
        <ele>67.8</ele>
        <time>2021-12-24T12:40:29Z</time>
      </trkpt>
      <trkpt lat="46.55311" lon="-1.27462">
        <ele>67.6</ele>
        <time>2021-12-24T12:40:31Z</time>
      </trkpt>
      <trkpt lat="46.55307" lon="-1.27454">
        <ele>67.6</ele>
        <time>2021-12-24T12:40:32Z</time>
      </trkpt>
      <trkpt lat="46.55302" lon="-1.27447">
        <ele>67.6</ele>
        <time>2021-12-24T12:40:33Z</time>
      </trkpt>
      <trkpt lat="46.55298" lon="-1.2744">
        <ele>67.6</ele>
        <time>2021-12-24T12:40:34Z</time>
      </trkpt>
      <trkpt lat="46.55295" lon="-1.27433">
        <ele>67.8</ele>
        <time>2021-12-24T12:40:35Z</time>
      </trkpt>
      <trkpt lat="46.55293" lon="-1.27426">
        <ele>67.8</ele>
        <time>2021-12-24T12:40:36Z</time>
      </trkpt>
      <trkpt lat="46.5529" lon="-1.2742">
        <ele>67.8</ele>
        <time>2021-12-24T12:40:37Z</time>
      </trkpt>
      <trkpt lat="46.55284" lon="-1.27406">
        <ele>67.8</ele>
        <time>2021-12-24T12:40:39Z</time>
      </trkpt>
      <trkpt lat="46.55279" lon="-1.27392">
        <ele>68</ele>
        <time>2021-12-24T12:40:41Z</time>
      </trkpt>
      <trkpt lat="46.55273" lon="-1.27379">
        <ele>68</ele>
        <time>2021-12-24T12:40:43Z</time>
      </trkpt>
      <trkpt lat="46.5527" lon="-1.27372">
        <ele>68</ele>
        <time>2021-12-24T12:40:44Z</time>
      </trkpt>
      <trkpt lat="46.55267" lon="-1.27366">
        <ele>68</ele>
        <time>2021-12-24T12:40:45Z</time>
      </trkpt>
      <trkpt lat="46.55265" lon="-1.2736">
        <ele>67.8</ele>
        <time>2021-12-24T12:40:46Z</time>
      </trkpt>
      <trkpt lat="46.55262" lon="-1.27353">
        <ele>67.8</ele>
        <time>2021-12-24T12:40:47Z</time>
      </trkpt>
      <trkpt lat="46.55257" lon="-1.2734">
        <ele>67.8</ele>
        <time>2021-12-24T12:40:49Z</time>
      </trkpt>
      <trkpt lat="46.55255" lon="-1.27333">
        <ele>67.8</ele>
        <time>2021-12-24T12:40:50Z</time>
      </trkpt>
      <trkpt lat="46.55254" lon="-1.27326">
        <ele>68</ele>
        <time>2021-12-24T12:40:51Z</time>
      </trkpt>
      <trkpt lat="46.55253" lon="-1.27311">
        <ele>67.8</ele>
        <time>2021-12-24T12:40:53Z</time>
      </trkpt>
      <trkpt lat="46.55251" lon="-1.27297">
        <ele>67.8</ele>
        <time>2021-12-24T12:40:55Z</time>
      </trkpt>
      <trkpt lat="46.5525" lon="-1.27284">
        <ele>67.8</ele>
        <time>2021-12-24T12:40:57Z</time>
      </trkpt>
      <trkpt lat="46.55248" lon="-1.27277">
        <ele>67.8</ele>
        <time>2021-12-24T12:40:58Z</time>
      </trkpt>
      <trkpt lat="46.55247" lon="-1.2727">
        <ele>67.6</ele>
        <time>2021-12-24T12:40:59Z</time>
      </trkpt>
      <trkpt lat="46.55246" lon="-1.27262">
        <ele>67.6</ele>
        <time>2021-12-24T12:41:00Z</time>
      </trkpt>
      <trkpt lat="46.55244" lon="-1.27255">
        <ele>67.6</ele>
        <time>2021-12-24T12:41:01Z</time>
      </trkpt>
      <trkpt lat="46.55244" lon="-1.27248">
        <ele>67.6</ele>
        <time>2021-12-24T12:41:02Z</time>
      </trkpt>
      <trkpt lat="46.55243" lon="-1.27241">
        <ele>67.8</ele>
        <time>2021-12-24T12:41:03Z</time>
      </trkpt>
      <trkpt lat="46.5524" lon="-1.27226">
        <ele>67.8</ele>
        <time>2021-12-24T12:41:05Z</time>
      </trkpt>
      <trkpt lat="46.55239" lon="-1.27212">
        <ele>67.8</ele>
        <time>2021-12-24T12:41:07Z</time>
      </trkpt>
      <trkpt lat="46.55239" lon="-1.27199">
        <ele>67.8</ele>
        <time>2021-12-24T12:41:09Z</time>
      </trkpt>
      <trkpt lat="46.55238" lon="-1.27185">
        <ele>68</ele>
        <time>2021-12-24T12:41:11Z</time>
      </trkpt>
      <trkpt lat="46.55238" lon="-1.27171">
        <ele>67.8</ele>
        <time>2021-12-24T12:41:13Z</time>
      </trkpt>
      <trkpt lat="46.55238" lon="-1.27163">
        <ele>68</ele>
        <time>2021-12-24T12:41:14Z</time>
      </trkpt>
      <trkpt lat="46.55238" lon="-1.27156">
        <ele>67.8</ele>
        <time>2021-12-24T12:41:15Z</time>
      </trkpt>
      <trkpt lat="46.55239" lon="-1.27141">
        <ele>67.6</ele>
        <time>2021-12-24T12:41:17Z</time>
      </trkpt>
      <trkpt lat="46.55238" lon="-1.27125">
        <ele>67.6</ele>
        <time>2021-12-24T12:41:19Z</time>
      </trkpt>
      <trkpt lat="46.55237" lon="-1.27117">
        <ele>67.4</ele>
        <time>2021-12-24T12:41:20Z</time>
      </trkpt>
      <trkpt lat="46.55235" lon="-1.27109">
        <ele>67.2</ele>
        <time>2021-12-24T12:41:21Z</time>
      </trkpt>
      <trkpt lat="46.55233" lon="-1.27101">
        <ele>67.2</ele>
        <time>2021-12-24T12:41:22Z</time>
      </trkpt>
      <trkpt lat="46.55231" lon="-1.27093">
        <ele>67.2</ele>
        <time>2021-12-24T12:41:23Z</time>
      </trkpt>
      <trkpt lat="46.55231" lon="-1.27086">
        <ele>67.2</ele>
        <time>2021-12-24T12:41:24Z</time>
      </trkpt>
      <trkpt lat="46.55232" lon="-1.27079">
        <ele>67</ele>
        <time>2021-12-24T12:41:25Z</time>
      </trkpt>
      <trkpt lat="46.55232" lon="-1.27064">
        <ele>67</ele>
        <time>2021-12-24T12:41:27Z</time>
      </trkpt>
      <trkpt lat="46.55231" lon="-1.27049">
        <ele>67</ele>
        <time>2021-12-24T12:41:29Z</time>
      </trkpt>
      <trkpt lat="46.5523" lon="-1.27034">
        <ele>66.8</ele>
        <time>2021-12-24T12:41:31Z</time>
      </trkpt>
      <trkpt lat="46.55229" lon="-1.27026">
        <ele>66.8</ele>
        <time>2021-12-24T12:41:32Z</time>
      </trkpt>
      <trkpt lat="46.55227" lon="-1.27019">
        <ele>66.8</ele>
        <time>2021-12-24T12:41:33Z</time>
      </trkpt>
      <trkpt lat="46.55222" lon="-1.27004">
        <ele>66.6</ele>
        <time>2021-12-24T12:41:35Z</time>
      </trkpt>
      <trkpt lat="46.55217" lon="-1.2699">
        <ele>66.4</ele>
        <time>2021-12-24T12:41:37Z</time>
      </trkpt>
      <trkpt lat="46.55214" lon="-1.26983">
        <ele>66.4</ele>
        <time>2021-12-24T12:41:38Z</time>
      </trkpt>
      <trkpt lat="46.55211" lon="-1.26977">
        <ele>66.2</ele>
        <time>2021-12-24T12:41:39Z</time>
      </trkpt>
      <trkpt lat="46.55208" lon="-1.2697">
        <ele>66.2</ele>
        <time>2021-12-24T12:41:40Z</time>
      </trkpt>
      <trkpt lat="46.55205" lon="-1.26964">
        <ele>66</ele>
        <time>2021-12-24T12:41:41Z</time>
      </trkpt>
      <trkpt lat="46.55199" lon="-1.2695">
        <ele>65.8</ele>
        <time>2021-12-24T12:41:43Z</time>
      </trkpt>
      <trkpt lat="46.55194" lon="-1.26937">
        <ele>65.6</ele>
        <time>2021-12-24T12:41:45Z</time>
      </trkpt>
      <trkpt lat="46.55188" lon="-1.26923">
        <ele>65.4</ele>
        <time>2021-12-24T12:41:47Z</time>
      </trkpt>
      <trkpt lat="46.55183" lon="-1.26907">
        <ele>65.2</ele>
        <time>2021-12-24T12:41:49Z</time>
      </trkpt>
      <trkpt lat="46.55178" lon="-1.26889">
        <ele>65.2</ele>
        <time>2021-12-24T12:41:51Z</time>
      </trkpt>
      <trkpt lat="46.55176" lon="-1.26872">
        <ele>65.2</ele>
        <time>2021-12-24T12:41:53Z</time>
      </trkpt>
      <trkpt lat="46.55174" lon="-1.26863">
        <ele>65</ele>
        <time>2021-12-24T12:41:54Z</time>
      </trkpt>
      <trkpt lat="46.55173" lon="-1.26854">
        <ele>65</ele>
        <time>2021-12-24T12:41:55Z</time>
      </trkpt>
      <trkpt lat="46.5517" lon="-1.26837">
        <ele>65</ele>
        <time>2021-12-24T12:41:57Z</time>
      </trkpt>
      <trkpt lat="46.55167" lon="-1.2682">
        <ele>64.8</ele>
        <time>2021-12-24T12:41:59Z</time>
      </trkpt>
      <trkpt lat="46.55165" lon="-1.26811">
        <ele>64.6</ele>
        <time>2021-12-24T12:42:00Z</time>
      </trkpt>
      <trkpt lat="46.55163" lon="-1.26803">
        <ele>64.6</ele>
        <time>2021-12-24T12:42:01Z</time>
      </trkpt>
      <trkpt lat="46.55161" lon="-1.26786">
        <ele>64.4</ele>
        <time>2021-12-24T12:42:03Z</time>
      </trkpt>
      <trkpt lat="46.55159" lon="-1.26777">
        <ele>64.4</ele>
        <time>2021-12-24T12:42:04Z</time>
      </trkpt>
      <trkpt lat="46.55158" lon="-1.26769">
        <ele>64.2</ele>
        <time>2021-12-24T12:42:05Z</time>
      </trkpt>
      <trkpt lat="46.55156" lon="-1.26761">
        <ele>64.2</ele>
        <time>2021-12-24T12:42:06Z</time>
      </trkpt>
      <trkpt lat="46.55155" lon="-1.26753">
        <ele>64</ele>
        <time>2021-12-24T12:42:07Z</time>
      </trkpt>
      <trkpt lat="46.55152" lon="-1.26736">
        <ele>64</ele>
        <time>2021-12-24T12:42:09Z</time>
      </trkpt>
      <trkpt lat="46.55149" lon="-1.26719">
        <ele>63.8</ele>
        <time>2021-12-24T12:42:11Z</time>
      </trkpt>
      <trkpt lat="46.55146" lon="-1.26702">
        <ele>63.8</ele>
        <time>2021-12-24T12:42:13Z</time>
      </trkpt>
      <trkpt lat="46.55143" lon="-1.26685">
        <ele>63.6</ele>
        <time>2021-12-24T12:42:15Z</time>
      </trkpt>
      <trkpt lat="46.5514" lon="-1.26668">
        <ele>63.6</ele>
        <time>2021-12-24T12:42:17Z</time>
      </trkpt>
      <trkpt lat="46.55137" lon="-1.26652">
        <ele>63.6</ele>
        <time>2021-12-24T12:42:19Z</time>
      </trkpt>
      <trkpt lat="46.55134" lon="-1.26636">
        <ele>63.4</ele>
        <time>2021-12-24T12:42:21Z</time>
      </trkpt>
      <trkpt lat="46.5513" lon="-1.26621">
        <ele>63.4</ele>
        <time>2021-12-24T12:42:23Z</time>
      </trkpt>
      <trkpt lat="46.55128" lon="-1.26605">
        <ele>63.4</ele>
        <time>2021-12-24T12:42:25Z</time>
      </trkpt>
      <trkpt lat="46.55127" lon="-1.26598">
        <ele>63.4</ele>
        <time>2021-12-24T12:42:26Z</time>
      </trkpt>
      <trkpt lat="46.55125" lon="-1.2659">
        <ele>63.4</ele>
        <time>2021-12-24T12:42:27Z</time>
      </trkpt>
      <trkpt lat="46.55124" lon="-1.26575">
        <ele>63.4</ele>
        <time>2021-12-24T12:42:29Z</time>
      </trkpt>
      <trkpt lat="46.55122" lon="-1.2656">
        <ele>63.2</ele>
        <time>2021-12-24T12:42:31Z</time>
      </trkpt>
      <trkpt lat="46.55121" lon="-1.26553">
        <ele>63.2</ele>
        <time>2021-12-24T12:42:32Z</time>
      </trkpt>
      <trkpt lat="46.5512" lon="-1.26545">
        <ele>63.2</ele>
        <time>2021-12-24T12:42:33Z</time>
      </trkpt>
      <trkpt lat="46.55118" lon="-1.2653">
        <ele>63</ele>
        <time>2021-12-24T12:42:35Z</time>
      </trkpt>
      <trkpt lat="46.55115" lon="-1.26515">
        <ele>63</ele>
        <time>2021-12-24T12:42:37Z</time>
      </trkpt>
      <trkpt lat="46.55113" lon="-1.26508">
        <ele>63</ele>
        <time>2021-12-24T12:42:38Z</time>
      </trkpt>
      <trkpt lat="46.55112" lon="-1.265">
        <ele>63</ele>
        <time>2021-12-24T12:42:39Z</time>
      </trkpt>
      <trkpt lat="46.55109" lon="-1.26486">
        <ele>62.8</ele>
        <time>2021-12-24T12:42:41Z</time>
      </trkpt>
      <trkpt lat="46.55107" lon="-1.2648">
        <ele>62.8</ele>
        <time>2021-12-24T12:42:42Z</time>
      </trkpt>
      <trkpt lat="46.55104" lon="-1.26473">
        <ele>62.8</ele>
        <time>2021-12-24T12:42:43Z</time>
      </trkpt>
      <trkpt lat="46.55102" lon="-1.26466">
        <ele>62.8</ele>
        <time>2021-12-24T12:42:44Z</time>
      </trkpt>
      <trkpt lat="46.55099" lon="-1.26459">
        <ele>62.8</ele>
        <time>2021-12-24T12:42:45Z</time>
      </trkpt>
      <trkpt lat="46.55094" lon="-1.26445">
        <ele>62.8</ele>
        <time>2021-12-24T12:42:47Z</time>
      </trkpt>
      <trkpt lat="46.55089" lon="-1.26431">
        <ele>62.6</ele>
        <time>2021-12-24T12:42:49Z</time>
      </trkpt>
      <trkpt lat="46.55087" lon="-1.26423">
        <ele>62.6</ele>
        <time>2021-12-24T12:42:50Z</time>
      </trkpt>
      <trkpt lat="46.55084" lon="-1.26415">
        <ele>62.6</ele>
        <time>2021-12-24T12:42:51Z</time>
      </trkpt>
      <trkpt lat="46.55079" lon="-1.26399">
        <ele>62.4</ele>
        <time>2021-12-24T12:42:53Z</time>
      </trkpt>
      <trkpt lat="46.55073" lon="-1.26382">
        <ele>62.2</ele>
        <time>2021-12-24T12:42:55Z</time>
      </trkpt>
      <trkpt lat="46.5507" lon="-1.26373">
        <ele>62.2</ele>
        <time>2021-12-24T12:42:56Z</time>
      </trkpt>
      <trkpt lat="46.55067" lon="-1.26364">
        <ele>62.2</ele>
        <time>2021-12-24T12:42:57Z</time>
      </trkpt>
      <trkpt lat="46.55063" lon="-1.26345">
        <ele>62</ele>
        <time>2021-12-24T12:42:59Z</time>
      </trkpt>
      <trkpt lat="46.5506" lon="-1.26327">
        <ele>61.8</ele>
        <time>2021-12-24T12:43:01Z</time>
      </trkpt>
      <trkpt lat="46.55059" lon="-1.26317">
        <ele>61.6</ele>
        <time>2021-12-24T12:43:02Z</time>
      </trkpt>
      <trkpt lat="46.55058" lon="-1.26307">
        <ele>61.6</ele>
        <time>2021-12-24T12:43:03Z</time>
      </trkpt>
      <trkpt lat="46.55057" lon="-1.26287">
        <ele>61.4</ele>
        <time>2021-12-24T12:43:05Z</time>
      </trkpt>
      <trkpt lat="46.55055" lon="-1.26268">
        <ele>61.4</ele>
        <time>2021-12-24T12:43:07Z</time>
      </trkpt>
      <trkpt lat="46.55052" lon="-1.26248">
        <ele>61.4</ele>
        <time>2021-12-24T12:43:09Z</time>
      </trkpt>
      <trkpt lat="46.55049" lon="-1.26229">
        <ele>61.2</ele>
        <time>2021-12-24T12:43:11Z</time>
      </trkpt>
      <trkpt lat="46.55048" lon="-1.26221">
        <ele>61.2</ele>
        <time>2021-12-24T12:43:12Z</time>
      </trkpt>
      <trkpt lat="46.55045" lon="-1.26212">
        <ele>61.2</ele>
        <time>2021-12-24T12:43:13Z</time>
      </trkpt>
      <trkpt lat="46.55043" lon="-1.26203">
        <ele>61</ele>
        <time>2021-12-24T12:43:14Z</time>
      </trkpt>
      <trkpt lat="46.55041" lon="-1.26194">
        <ele>61</ele>
        <time>2021-12-24T12:43:15Z</time>
      </trkpt>
      <trkpt lat="46.55039" lon="-1.26185">
        <ele>61</ele>
        <time>2021-12-24T12:43:16Z</time>
      </trkpt>
      <trkpt lat="46.55037" lon="-1.26177">
        <ele>60.8</ele>
        <time>2021-12-24T12:43:17Z</time>
      </trkpt>
      <trkpt lat="46.55035" lon="-1.26168">
        <ele>60.8</ele>
        <time>2021-12-24T12:43:18Z</time>
      </trkpt>
      <trkpt lat="46.55033" lon="-1.26159">
        <ele>60.6</ele>
        <time>2021-12-24T12:43:19Z</time>
      </trkpt>
      <trkpt lat="46.5503" lon="-1.2615">
        <ele>60.6</ele>
        <time>2021-12-24T12:43:20Z</time>
      </trkpt>
      <trkpt lat="46.55028" lon="-1.26142">
        <ele>60.6</ele>
        <time>2021-12-24T12:43:21Z</time>
      </trkpt>
      <trkpt lat="46.55024" lon="-1.26124">
        <ele>60.4</ele>
        <time>2021-12-24T12:43:23Z</time>
      </trkpt>
      <trkpt lat="46.5502" lon="-1.26107">
        <ele>60.2</ele>
        <time>2021-12-24T12:43:25Z</time>
      </trkpt>
      <trkpt lat="46.55016" lon="-1.26091">
        <ele>60.2</ele>
        <time>2021-12-24T12:43:27Z</time>
      </trkpt>
      <trkpt lat="46.55013" lon="-1.26075">
        <ele>60</ele>
        <time>2021-12-24T12:43:29Z</time>
      </trkpt>
      <trkpt lat="46.55009" lon="-1.26059">
        <ele>60</ele>
        <time>2021-12-24T12:43:31Z</time>
      </trkpt>
      <trkpt lat="46.55007" lon="-1.26051">
        <ele>60</ele>
        <time>2021-12-24T12:43:32Z</time>
      </trkpt>
      <trkpt lat="46.55005" lon="-1.26044">
        <ele>59.8</ele>
        <time>2021-12-24T12:43:33Z</time>
      </trkpt>
      <trkpt lat="46.55" lon="-1.26029">
        <ele>59.8</ele>
        <time>2021-12-24T12:43:35Z</time>
      </trkpt>
      <trkpt lat="46.54994" lon="-1.26016">
        <ele>59.6</ele>
        <time>2021-12-24T12:43:37Z</time>
      </trkpt>
      <trkpt lat="46.54986" lon="-1.26003">
        <ele>59.4</ele>
        <time>2021-12-24T12:43:39Z</time>
      </trkpt>
      <trkpt lat="46.54978" lon="-1.25991">
        <ele>59.2</ele>
        <time>2021-12-24T12:43:41Z</time>
      </trkpt>
      <trkpt lat="46.54974" lon="-1.25984">
        <ele>59.2</ele>
        <time>2021-12-24T12:43:42Z</time>
      </trkpt>
      <trkpt lat="46.5497" lon="-1.25979">
        <ele>59</ele>
        <time>2021-12-24T12:43:43Z</time>
      </trkpt>
      <trkpt lat="46.54966" lon="-1.25973">
        <ele>59</ele>
        <time>2021-12-24T12:43:44Z</time>
      </trkpt>
      <trkpt lat="46.54963" lon="-1.25967">
        <ele>58.8</ele>
        <time>2021-12-24T12:43:45Z</time>
      </trkpt>
      <trkpt lat="46.54955" lon="-1.25954">
        <ele>58.8</ele>
        <time>2021-12-24T12:43:47Z</time>
      </trkpt>
      <trkpt lat="46.54952" lon="-1.25948">
        <ele>58.8</ele>
        <time>2021-12-24T12:43:48Z</time>
      </trkpt>
      <trkpt lat="46.54949" lon="-1.25942">
        <ele>58.6</ele>
        <time>2021-12-24T12:43:49Z</time>
      </trkpt>
      <trkpt lat="46.54942" lon="-1.25928">
        <ele>58.6</ele>
        <time>2021-12-24T12:43:51Z</time>
      </trkpt>
      <trkpt lat="46.54939" lon="-1.25921">
        <ele>58.6</ele>
        <time>2021-12-24T12:43:52Z</time>
      </trkpt>
      <trkpt lat="46.54937" lon="-1.25914">
        <ele>58.4</ele>
        <time>2021-12-24T12:43:53Z</time>
      </trkpt>
      <trkpt lat="46.54931" lon="-1.25901">
        <ele>58.4</ele>
        <time>2021-12-24T12:43:55Z</time>
      </trkpt>
      <trkpt lat="46.54926" lon="-1.25888">
        <ele>58.4</ele>
        <time>2021-12-24T12:43:57Z</time>
      </trkpt>
      <trkpt lat="46.54921" lon="-1.25875">
        <ele>58.2</ele>
        <time>2021-12-24T12:43:59Z</time>
      </trkpt>
      <trkpt lat="46.54916" lon="-1.2586">
        <ele>58.2</ele>
        <time>2021-12-24T12:44:01Z</time>
      </trkpt>
      <trkpt lat="46.54911" lon="-1.25847">
        <ele>58.2</ele>
        <time>2021-12-24T12:44:03Z</time>
      </trkpt>
      <trkpt lat="46.54907" lon="-1.25834">
        <ele>58</ele>
        <time>2021-12-24T12:44:05Z</time>
      </trkpt>
      <trkpt lat="46.54902" lon="-1.25821">
        <ele>58</ele>
        <time>2021-12-24T12:44:07Z</time>
      </trkpt>
      <trkpt lat="46.54896" lon="-1.25809">
        <ele>57.8</ele>
        <time>2021-12-24T12:44:09Z</time>
      </trkpt>
      <trkpt lat="46.54893" lon="-1.25804">
        <ele>58</ele>
        <time>2021-12-24T12:44:10Z</time>
      </trkpt>
      <trkpt lat="46.5489" lon="-1.25798">
        <ele>57.8</ele>
        <time>2021-12-24T12:44:11Z</time>
      </trkpt>
      <trkpt lat="46.54888" lon="-1.25793">
        <ele>57.8</ele>
        <time>2021-12-24T12:44:12Z</time>
      </trkpt>
      <trkpt lat="46.54885" lon="-1.25788">
        <ele>57.8</ele>
        <time>2021-12-24T12:44:13Z</time>
      </trkpt>
      <trkpt lat="46.54879" lon="-1.25777">
        <ele>57.8</ele>
        <time>2021-12-24T12:44:15Z</time>
      </trkpt>
      <trkpt lat="46.54874" lon="-1.25766">
        <ele>57.8</ele>
        <time>2021-12-24T12:44:17Z</time>
      </trkpt>
      <trkpt lat="46.54872" lon="-1.2576">
        <ele>58</ele>
        <time>2021-12-24T12:44:18Z</time>
      </trkpt>
      <trkpt lat="46.54871" lon="-1.25755">
        <ele>58</ele>
        <time>2021-12-24T12:44:19Z</time>
      </trkpt>
      <trkpt lat="46.54868" lon="-1.25744">
        <ele>57.6</ele>
        <time>2021-12-24T12:44:21Z</time>
      </trkpt>
      <trkpt lat="46.54866" lon="-1.25733">
        <ele>58.2</ele>
        <time>2021-12-24T12:44:23Z</time>
      </trkpt>
      <trkpt lat="46.54863" lon="-1.25722">
        <ele>58.2</ele>
        <time>2021-12-24T12:44:25Z</time>
      </trkpt>
      <trkpt lat="46.54862" lon="-1.2571">
        <ele>58.4</ele>
        <time>2021-12-24T12:44:27Z</time>
      </trkpt>
      <trkpt lat="46.5486" lon="-1.25705">
        <ele>58.4</ele>
        <time>2021-12-24T12:44:28Z</time>
      </trkpt>
      <trkpt lat="46.54859" lon="-1.257">
        <ele>58.4</ele>
        <time>2021-12-24T12:44:29Z</time>
      </trkpt>
      <trkpt lat="46.54858" lon="-1.25695">
        <ele>58.4</ele>
        <time>2021-12-24T12:44:30Z</time>
      </trkpt>
      <trkpt lat="46.54858" lon="-1.25689">
        <ele>58.4</ele>
        <time>2021-12-24T12:44:31Z</time>
      </trkpt>
      <trkpt lat="46.54857" lon="-1.25678">
        <ele>58.6</ele>
        <time>2021-12-24T12:44:33Z</time>
      </trkpt>
      <trkpt lat="46.54856" lon="-1.25673">
        <ele>58.6</ele>
        <time>2021-12-24T12:44:34Z</time>
      </trkpt>
      <trkpt lat="46.54857" lon="-1.25667">
        <ele>58.6</ele>
        <time>2021-12-24T12:44:35Z</time>
      </trkpt>
      <trkpt lat="46.54858" lon="-1.25656">
        <ele>58.6</ele>
        <time>2021-12-24T12:44:37Z</time>
      </trkpt>
      <trkpt lat="46.54859" lon="-1.25651">
        <ele>58.6</ele>
        <time>2021-12-24T12:44:38Z</time>
      </trkpt>
      <trkpt lat="46.54861" lon="-1.25647">
        <ele>58.6</ele>
        <time>2021-12-24T12:44:39Z</time>
      </trkpt>
      <trkpt lat="46.54866" lon="-1.25639">
        <ele>58.8</ele>
        <time>2021-12-24T12:44:41Z</time>
      </trkpt>
      <trkpt lat="46.54871" lon="-1.25631">
        <ele>58.8</ele>
        <time>2021-12-24T12:44:43Z</time>
      </trkpt>
      <trkpt lat="46.54877" lon="-1.25625">
        <ele>58.8</ele>
        <time>2021-12-24T12:44:45Z</time>
      </trkpt>
      <trkpt lat="46.54879" lon="-1.25622">
        <ele>58.8</ele>
        <time>2021-12-24T12:44:46Z</time>
      </trkpt>
      <trkpt lat="46.54882" lon="-1.25619">
        <ele>58.8</ele>
        <time>2021-12-24T12:44:47Z</time>
      </trkpt>
      <trkpt lat="46.54886" lon="-1.25612">
        <ele>59</ele>
        <time>2021-12-24T12:44:49Z</time>
      </trkpt>
      <trkpt lat="46.54892" lon="-1.25605">
        <ele>59.2</ele>
        <time>2021-12-24T12:44:51Z</time>
      </trkpt>
      <trkpt lat="46.54897" lon="-1.25598">
        <ele>59.2</ele>
        <time>2021-12-24T12:44:53Z</time>
      </trkpt>
      <trkpt lat="46.54902" lon="-1.25592">
        <ele>59.2</ele>
        <time>2021-12-24T12:44:55Z</time>
      </trkpt>
      <trkpt lat="46.54908" lon="-1.25585">
        <ele>59.4</ele>
        <time>2021-12-24T12:44:57Z</time>
      </trkpt>
      <trkpt lat="46.54913" lon="-1.25579">
        <ele>59.6</ele>
        <time>2021-12-24T12:44:59Z</time>
      </trkpt>
      <trkpt lat="46.54916" lon="-1.25576">
        <ele>59.6</ele>
        <time>2021-12-24T12:45:00Z</time>
      </trkpt>
      <trkpt lat="46.54918" lon="-1.25573">
        <ele>59.6</ele>
        <time>2021-12-24T12:45:01Z</time>
      </trkpt>
      <trkpt lat="46.54923" lon="-1.25566">
        <ele>59.6</ele>
        <time>2021-12-24T12:45:03Z</time>
      </trkpt>
      <trkpt lat="46.54928" lon="-1.25559">
        <ele>59.6</ele>
        <time>2021-12-24T12:45:05Z</time>
      </trkpt>
      <trkpt lat="46.54933" lon="-1.25553">
        <ele>59.6</ele>
        <time>2021-12-24T12:45:07Z</time>
      </trkpt>
      <trkpt lat="46.54939" lon="-1.25547">
        <ele>59.8</ele>
        <time>2021-12-24T12:45:09Z</time>
      </trkpt>
      <trkpt lat="46.54945" lon="-1.25542">
        <ele>59.8</ele>
        <time>2021-12-24T12:45:11Z</time>
      </trkpt>
      <trkpt lat="46.54947" lon="-1.25539">
        <ele>59.8</ele>
        <time>2021-12-24T12:45:12Z</time>
      </trkpt>
      <trkpt lat="46.54949" lon="-1.25535">
        <ele>60</ele>
        <time>2021-12-24T12:45:13Z</time>
      </trkpt>
      <trkpt lat="46.54954" lon="-1.25528">
        <ele>60</ele>
        <time>2021-12-24T12:45:15Z</time>
      </trkpt>
      <trkpt lat="46.54959" lon="-1.25521">
        <ele>60</ele>
        <time>2021-12-24T12:45:17Z</time>
      </trkpt>
      <trkpt lat="46.54964" lon="-1.25514">
        <ele>60.2</ele>
        <time>2021-12-24T12:45:19Z</time>
      </trkpt>
      <trkpt lat="46.5497" lon="-1.25507">
        <ele>60.4</ele>
        <time>2021-12-24T12:45:21Z</time>
      </trkpt>
      <trkpt lat="46.54976" lon="-1.25501">
        <ele>60.6</ele>
        <time>2021-12-24T12:45:23Z</time>
      </trkpt>
      <trkpt lat="46.54982" lon="-1.25495">
        <ele>60.8</ele>
        <time>2021-12-24T12:45:25Z</time>
      </trkpt>
      <trkpt lat="46.54988" lon="-1.25488">
        <ele>61</ele>
        <time>2021-12-24T12:45:27Z</time>
      </trkpt>
      <trkpt lat="46.54992" lon="-1.25485">
        <ele>61</ele>
        <time>2021-12-24T12:45:28Z</time>
      </trkpt>
      <trkpt lat="46.54995" lon="-1.25481">
        <ele>61.2</ele>
        <time>2021-12-24T12:45:29Z</time>
      </trkpt>
      <trkpt lat="46.55002" lon="-1.25475">
        <ele>61.4</ele>
        <time>2021-12-24T12:45:31Z</time>
      </trkpt>
      <trkpt lat="46.55008" lon="-1.25469">
        <ele>61.4</ele>
        <time>2021-12-24T12:45:33Z</time>
      </trkpt>
      <trkpt lat="46.55015" lon="-1.25462">
        <ele>61.6</ele>
        <time>2021-12-24T12:45:35Z</time>
      </trkpt>
      <trkpt lat="46.55021" lon="-1.25456">
        <ele>61.8</ele>
        <time>2021-12-24T12:45:37Z</time>
      </trkpt>
      <trkpt lat="46.55028" lon="-1.25449">
        <ele>61.8</ele>
        <time>2021-12-24T12:45:39Z</time>
      </trkpt>
      <trkpt lat="46.55035" lon="-1.25443">
        <ele>61.8</ele>
        <time>2021-12-24T12:45:41Z</time>
      </trkpt>
      <trkpt lat="46.55043" lon="-1.25435">
        <ele>61.8</ele>
        <time>2021-12-24T12:45:43Z</time>
      </trkpt>
      <trkpt lat="46.55052" lon="-1.25427">
        <ele>61.8</ele>
        <time>2021-12-24T12:45:45Z</time>
      </trkpt>
      <trkpt lat="46.55057" lon="-1.25423">
        <ele>61.8</ele>
        <time>2021-12-24T12:45:46Z</time>
      </trkpt>
      <trkpt lat="46.55061" lon="-1.25419">
        <ele>61.8</ele>
        <time>2021-12-24T12:45:47Z</time>
      </trkpt>
      <trkpt lat="46.55071" lon="-1.25411">
        <ele>61.6</ele>
        <time>2021-12-24T12:45:49Z</time>
      </trkpt>
      <trkpt lat="46.55082" lon="-1.25402">
        <ele>61.4</ele>
        <time>2021-12-24T12:45:51Z</time>
      </trkpt>
      <trkpt lat="46.55091" lon="-1.25395">
        <ele>61.4</ele>
        <time>2021-12-24T12:45:53Z</time>
      </trkpt>
      <trkpt lat="46.55095" lon="-1.25392">
        <ele>60.8</ele>
        <time>2021-12-24T12:45:54Z</time>
      </trkpt>
      <trkpt lat="46.551" lon="-1.25389">
        <ele>61</ele>
        <time>2021-12-24T12:45:55Z</time>
      </trkpt>
      <trkpt lat="46.55108" lon="-1.25383">
        <ele>60.8</ele>
        <time>2021-12-24T12:45:57Z</time>
      </trkpt>
      <trkpt lat="46.55116" lon="-1.25375">
        <ele>60.6</ele>
        <time>2021-12-24T12:45:59Z</time>
      </trkpt>
      <trkpt lat="46.55125" lon="-1.25365">
        <ele>60.4</ele>
        <time>2021-12-24T12:46:01Z</time>
      </trkpt>
      <trkpt lat="46.55134" lon="-1.25356">
        <ele>60.2</ele>
        <time>2021-12-24T12:46:03Z</time>
      </trkpt>
      <trkpt lat="46.55139" lon="-1.25352">
        <ele>60.2</ele>
        <time>2021-12-24T12:46:04Z</time>
      </trkpt>
      <trkpt lat="46.55144" lon="-1.25347">
        <ele>60.2</ele>
        <time>2021-12-24T12:46:05Z</time>
      </trkpt>
      <trkpt lat="46.55153" lon="-1.25339">
        <ele>60.2</ele>
        <time>2021-12-24T12:46:07Z</time>
      </trkpt>
      <trkpt lat="46.55162" lon="-1.25332">
        <ele>60</ele>
        <time>2021-12-24T12:46:09Z</time>
      </trkpt>
      <trkpt lat="46.55169" lon="-1.25326">
        <ele>60</ele>
        <time>2021-12-24T12:46:11Z</time>
      </trkpt>
      <trkpt lat="46.55171" lon="-1.25323">
        <ele>60.2</ele>
        <time>2021-12-24T12:46:12Z</time>
      </trkpt>
      <trkpt lat="46.55173" lon="-1.25319">
        <ele>60.4</ele>
        <time>2021-12-24T12:46:13Z</time>
      </trkpt>
      <trkpt lat="46.55173" lon="-1.25315">
        <ele>60.2</ele>
        <time>2021-12-24T12:46:14Z</time>
      </trkpt>
      <trkpt lat="46.55172" lon="-1.25311">
        <ele>60.2</ele>
        <time>2021-12-24T12:46:15Z</time>
      </trkpt>
      <trkpt lat="46.5517" lon="-1.25303">
        <ele>60.2</ele>
        <time>2021-12-24T12:46:17Z</time>
      </trkpt>
      <trkpt lat="46.55167" lon="-1.25299">
        <ele>60.2</ele>
        <time>2021-12-24T12:46:18Z</time>
      </trkpt>
      <trkpt lat="46.55164" lon="-1.25296">
        <ele>60.2</ele>
        <time>2021-12-24T12:46:19Z</time>
      </trkpt>
      <trkpt lat="46.55158" lon="-1.25288">
        <ele>60.2</ele>
        <time>2021-12-24T12:46:21Z</time>
      </trkpt>
      <trkpt lat="46.55152" lon="-1.25279">
        <ele>60.2</ele>
        <time>2021-12-24T12:46:23Z</time>
      </trkpt>
      <trkpt lat="46.55145" lon="-1.25269">
        <ele>60.2</ele>
        <time>2021-12-24T12:46:25Z</time>
      </trkpt>
      <trkpt lat="46.55138" lon="-1.25259">
        <ele>60</ele>
        <time>2021-12-24T12:46:27Z</time>
      </trkpt>
      <trkpt lat="46.55131" lon="-1.2525">
        <ele>60.2</ele>
        <time>2021-12-24T12:46:29Z</time>
      </trkpt>
      <trkpt lat="46.55124" lon="-1.2524">
        <ele>60.2</ele>
        <time>2021-12-24T12:46:31Z</time>
      </trkpt>
      <trkpt lat="46.5512" lon="-1.25236">
        <ele>60</ele>
        <time>2021-12-24T12:46:32Z</time>
      </trkpt>
      <trkpt lat="46.55117" lon="-1.2523">
        <ele>60.2</ele>
        <time>2021-12-24T12:46:33Z</time>
      </trkpt>
      <trkpt lat="46.5511" lon="-1.2522">
        <ele>60.2</ele>
        <time>2021-12-24T12:46:35Z</time>
      </trkpt>
      <trkpt lat="46.55102" lon="-1.25209">
        <ele>60.2</ele>
        <time>2021-12-24T12:46:37Z</time>
      </trkpt>
      <trkpt lat="46.55095" lon="-1.25198">
        <ele>60.4</ele>
        <time>2021-12-24T12:46:39Z</time>
      </trkpt>
      <trkpt lat="46.55091" lon="-1.25192">
        <ele>60.4</ele>
        <time>2021-12-24T12:46:40Z</time>
      </trkpt>
      <trkpt lat="46.55087" lon="-1.25187">
        <ele>60.4</ele>
        <time>2021-12-24T12:46:41Z</time>
      </trkpt>
      <trkpt lat="46.55079" lon="-1.25175">
        <ele>60.4</ele>
        <time>2021-12-24T12:46:43Z</time>
      </trkpt>
      <trkpt lat="46.55071" lon="-1.25164">
        <ele>60.4</ele>
        <time>2021-12-24T12:46:45Z</time>
      </trkpt>
      <trkpt lat="46.55063" lon="-1.25153">
        <ele>60.4</ele>
        <time>2021-12-24T12:46:47Z</time>
      </trkpt>
      <trkpt lat="46.55054" lon="-1.25141">
        <ele>60.4</ele>
        <time>2021-12-24T12:46:49Z</time>
      </trkpt>
      <trkpt lat="46.55046" lon="-1.25129">
        <ele>60.4</ele>
        <time>2021-12-24T12:46:51Z</time>
      </trkpt>
      <trkpt lat="46.55037" lon="-1.25117">
        <ele>60.4</ele>
        <time>2021-12-24T12:46:53Z</time>
      </trkpt>
      <trkpt lat="46.55029" lon="-1.25106">
        <ele>60.6</ele>
        <time>2021-12-24T12:46:55Z</time>
      </trkpt>
      <trkpt lat="46.55021" lon="-1.25094">
        <ele>60.6</ele>
        <time>2021-12-24T12:46:57Z</time>
      </trkpt>
      <trkpt lat="46.55013" lon="-1.25082">
        <ele>60.6</ele>
        <time>2021-12-24T12:46:59Z</time>
      </trkpt>
      <trkpt lat="46.55004" lon="-1.2507">
        <ele>60.6</ele>
        <time>2021-12-24T12:47:01Z</time>
      </trkpt>
      <trkpt lat="46.54995" lon="-1.25058">
        <ele>60.8</ele>
        <time>2021-12-24T12:47:03Z</time>
      </trkpt>
      <trkpt lat="46.54991" lon="-1.25052">
        <ele>60.8</ele>
        <time>2021-12-24T12:47:04Z</time>
      </trkpt>
      <trkpt lat="46.54987" lon="-1.25046">
        <ele>60.8</ele>
        <time>2021-12-24T12:47:05Z</time>
      </trkpt>
      <trkpt lat="46.54978" lon="-1.25034">
        <ele>60.8</ele>
        <time>2021-12-24T12:47:07Z</time>
      </trkpt>
      <trkpt lat="46.54969" lon="-1.25022">
        <ele>61</ele>
        <time>2021-12-24T12:47:09Z</time>
      </trkpt>
      <trkpt lat="46.5496" lon="-1.2501">
        <ele>61</ele>
        <time>2021-12-24T12:47:11Z</time>
      </trkpt>
      <trkpt lat="46.54951" lon="-1.24998">
        <ele>61</ele>
        <time>2021-12-24T12:47:13Z</time>
      </trkpt>
      <trkpt lat="46.54942" lon="-1.24985">
        <ele>61</ele>
        <time>2021-12-24T12:47:15Z</time>
      </trkpt>
      <trkpt lat="46.54934" lon="-1.24973">
        <ele>61</ele>
        <time>2021-12-24T12:47:17Z</time>
      </trkpt>
      <trkpt lat="46.54925" lon="-1.2496">
        <ele>61.2</ele>
        <time>2021-12-24T12:47:19Z</time>
      </trkpt>
      <trkpt lat="46.5492" lon="-1.24954">
        <ele>61</ele>
        <time>2021-12-24T12:47:20Z</time>
      </trkpt>
      <trkpt lat="46.54915" lon="-1.24947">
        <ele>61.2</ele>
        <time>2021-12-24T12:47:21Z</time>
      </trkpt>
      <trkpt lat="46.54906" lon="-1.24934">
        <ele>61.2</ele>
        <time>2021-12-24T12:47:23Z</time>
      </trkpt>
      <trkpt lat="46.54897" lon="-1.24921">
        <ele>61.2</ele>
        <time>2021-12-24T12:47:25Z</time>
      </trkpt>
      <trkpt lat="46.54887" lon="-1.24908">
        <ele>61.2</ele>
        <time>2021-12-24T12:47:27Z</time>
      </trkpt>
      <trkpt lat="46.54877" lon="-1.24894">
        <ele>61.2</ele>
        <time>2021-12-24T12:47:29Z</time>
      </trkpt>
      <trkpt lat="46.54867" lon="-1.2488">
        <ele>61.2</ele>
        <time>2021-12-24T12:47:31Z</time>
      </trkpt>
      <trkpt lat="46.54858" lon="-1.24866">
        <ele>61.2</ele>
        <time>2021-12-24T12:47:33Z</time>
      </trkpt>
      <trkpt lat="46.54848" lon="-1.24852">
        <ele>61.2</ele>
        <time>2021-12-24T12:47:35Z</time>
      </trkpt>
      <trkpt lat="46.54838" lon="-1.24838">
        <ele>61.4</ele>
        <time>2021-12-24T12:47:37Z</time>
      </trkpt>
      <trkpt lat="46.54828" lon="-1.24824">
        <ele>61.4</ele>
        <time>2021-12-24T12:47:39Z</time>
      </trkpt>
      <trkpt lat="46.54818" lon="-1.24809">
        <ele>61.4</ele>
        <time>2021-12-24T12:47:41Z</time>
      </trkpt>
      <trkpt lat="46.54808" lon="-1.24794">
        <ele>61.4</ele>
        <time>2021-12-24T12:47:43Z</time>
      </trkpt>
      <trkpt lat="46.54797" lon="-1.2478">
        <ele>61.4</ele>
        <time>2021-12-24T12:47:45Z</time>
      </trkpt>
      <trkpt lat="46.54792" lon="-1.24772">
        <ele>61.4</ele>
        <time>2021-12-24T12:47:46Z</time>
      </trkpt>
      <trkpt lat="46.54787" lon="-1.24765">
        <ele>61.4</ele>
        <time>2021-12-24T12:47:47Z</time>
      </trkpt>
      <trkpt lat="46.54776" lon="-1.2475">
        <ele>61.4</ele>
        <time>2021-12-24T12:47:49Z</time>
      </trkpt>
      <trkpt lat="46.54765" lon="-1.24735">
        <ele>61.4</ele>
        <time>2021-12-24T12:47:51Z</time>
      </trkpt>
      <trkpt lat="46.54755" lon="-1.24719">
        <ele>61.4</ele>
        <time>2021-12-24T12:47:53Z</time>
      </trkpt>
      <trkpt lat="46.54744" lon="-1.24704">
        <ele>61.4</ele>
        <time>2021-12-24T12:47:55Z</time>
      </trkpt>
      <trkpt lat="46.54733" lon="-1.24689">
        <ele>61.4</ele>
        <time>2021-12-24T12:47:57Z</time>
      </trkpt>
      <trkpt lat="46.54723" lon="-1.24675">
        <ele>61.2</ele>
        <time>2021-12-24T12:47:59Z</time>
      </trkpt>
      <trkpt lat="46.54718" lon="-1.24668">
        <ele>61</ele>
        <time>2021-12-24T12:48:00Z</time>
      </trkpt>
      <trkpt lat="46.54713" lon="-1.2466">
        <ele>60.8</ele>
        <time>2021-12-24T12:48:01Z</time>
      </trkpt>
      <trkpt lat="46.54702" lon="-1.24645">
        <ele>60.6</ele>
        <time>2021-12-24T12:48:03Z</time>
      </trkpt>
      <trkpt lat="46.54691" lon="-1.24629">
        <ele>60.6</ele>
        <time>2021-12-24T12:48:05Z</time>
      </trkpt>
      <trkpt lat="46.5468" lon="-1.24613">
        <ele>60.4</ele>
        <time>2021-12-24T12:48:07Z</time>
      </trkpt>
      <trkpt lat="46.54669" lon="-1.24598">
        <ele>60.2</ele>
        <time>2021-12-24T12:48:09Z</time>
      </trkpt>
      <trkpt lat="46.54657" lon="-1.24582">
        <ele>60.2</ele>
        <time>2021-12-24T12:48:11Z</time>
      </trkpt>
      <trkpt lat="46.54647" lon="-1.24567">
        <ele>60</ele>
        <time>2021-12-24T12:48:13Z</time>
      </trkpt>
      <trkpt lat="46.54635" lon="-1.24552">
        <ele>59.6</ele>
        <time>2021-12-24T12:48:15Z</time>
      </trkpt>
      <trkpt lat="46.54625" lon="-1.24537">
        <ele>59.6</ele>
        <time>2021-12-24T12:48:17Z</time>
      </trkpt>
      <trkpt lat="46.54614" lon="-1.24521">
        <ele>59.4</ele>
        <time>2021-12-24T12:48:19Z</time>
      </trkpt>
      <trkpt lat="46.54603" lon="-1.24505">
        <ele>59.2</ele>
        <time>2021-12-24T12:48:21Z</time>
      </trkpt>
      <trkpt lat="46.54597" lon="-1.24497">
        <ele>59.2</ele>
        <time>2021-12-24T12:48:22Z</time>
      </trkpt>
      <trkpt lat="46.54592" lon="-1.2449">
        <ele>59</ele>
        <time>2021-12-24T12:48:23Z</time>
      </trkpt>
      <trkpt lat="46.54581" lon="-1.24476">
        <ele>58.6</ele>
        <time>2021-12-24T12:48:25Z</time>
      </trkpt>
      <trkpt lat="46.5457" lon="-1.24461">
        <ele>58</ele>
        <time>2021-12-24T12:48:27Z</time>
      </trkpt>
      <trkpt lat="46.54565" lon="-1.24454">
        <ele>57.8</ele>
        <time>2021-12-24T12:48:28Z</time>
      </trkpt>
      <trkpt lat="46.5456" lon="-1.24447">
        <ele>57.6</ele>
        <time>2021-12-24T12:48:29Z</time>
      </trkpt>
      <trkpt lat="46.54549" lon="-1.24432">
        <ele>57.4</ele>
        <time>2021-12-24T12:48:31Z</time>
      </trkpt>
      <trkpt lat="46.54539" lon="-1.24417">
        <ele>57</ele>
        <time>2021-12-24T12:48:33Z</time>
      </trkpt>
      <trkpt lat="46.54533" lon="-1.24409">
        <ele>57</ele>
        <time>2021-12-24T12:48:34Z</time>
      </trkpt>
      <trkpt lat="46.54528" lon="-1.24401">
        <ele>56.8</ele>
        <time>2021-12-24T12:48:35Z</time>
      </trkpt>
      <trkpt lat="46.54518" lon="-1.24386">
        <ele>56.6</ele>
        <time>2021-12-24T12:48:37Z</time>
      </trkpt>
      <trkpt lat="46.54512" lon="-1.24378">
        <ele>56.6</ele>
        <time>2021-12-24T12:48:38Z</time>
      </trkpt>
      <trkpt lat="46.54507" lon="-1.24371">
        <ele>56.4</ele>
        <time>2021-12-24T12:48:39Z</time>
      </trkpt>
      <trkpt lat="46.54495" lon="-1.24355">
        <ele>56.2</ele>
        <time>2021-12-24T12:48:41Z</time>
      </trkpt>
      <trkpt lat="46.54485" lon="-1.2434">
        <ele>56</ele>
        <time>2021-12-24T12:48:43Z</time>
      </trkpt>
      <trkpt lat="46.54474" lon="-1.24324">
        <ele>56</ele>
        <time>2021-12-24T12:48:45Z</time>
      </trkpt>
      <trkpt lat="46.54461" lon="-1.2431">
        <ele>55.8</ele>
        <time>2021-12-24T12:48:47Z</time>
      </trkpt>
      <trkpt lat="46.54449" lon="-1.24294">
        <ele>55.6</ele>
        <time>2021-12-24T12:48:49Z</time>
      </trkpt>
      <trkpt lat="46.54437" lon="-1.24279">
        <ele>55.4</ele>
        <time>2021-12-24T12:48:51Z</time>
      </trkpt>
      <trkpt lat="46.54431" lon="-1.24272">
        <ele>55.4</ele>
        <time>2021-12-24T12:48:52Z</time>
      </trkpt>
      <trkpt lat="46.54425" lon="-1.24264">
        <ele>55.4</ele>
        <time>2021-12-24T12:48:53Z</time>
      </trkpt>
      <trkpt lat="46.5442" lon="-1.24256">
        <ele>55.2</ele>
        <time>2021-12-24T12:48:54Z</time>
      </trkpt>
      <trkpt lat="46.54415" lon="-1.24248">
        <ele>55.2</ele>
        <time>2021-12-24T12:48:55Z</time>
      </trkpt>
      <trkpt lat="46.54406" lon="-1.24231">
        <ele>55</ele>
        <time>2021-12-24T12:48:57Z</time>
      </trkpt>
      <trkpt lat="46.54402" lon="-1.24222">
        <ele>55</ele>
        <time>2021-12-24T12:48:58Z</time>
      </trkpt>
      <trkpt lat="46.54399" lon="-1.24213">
        <ele>55.2</ele>
        <time>2021-12-24T12:48:59Z</time>
      </trkpt>
      <trkpt lat="46.54399" lon="-1.24203">
        <ele>55</ele>
        <time>2021-12-24T12:49:00Z</time>
      </trkpt>
      <trkpt lat="46.544" lon="-1.24193">
        <ele>55</ele>
        <time>2021-12-24T12:49:01Z</time>
      </trkpt>
      <trkpt lat="46.54404" lon="-1.24173">
        <ele>54.8</ele>
        <time>2021-12-24T12:49:03Z</time>
      </trkpt>
      <trkpt lat="46.54405" lon="-1.24162">
        <ele>54.8</ele>
        <time>2021-12-24T12:49:04Z</time>
      </trkpt>
      <trkpt lat="46.54408" lon="-1.24153">
        <ele>54.8</ele>
        <time>2021-12-24T12:49:05Z</time>
      </trkpt>
      <trkpt lat="46.54413" lon="-1.24134">
        <ele>54.8</ele>
        <time>2021-12-24T12:49:07Z</time>
      </trkpt>
      <trkpt lat="46.54415" lon="-1.24126">
        <ele>54.8</ele>
        <time>2021-12-24T12:49:08Z</time>
      </trkpt>
      <trkpt lat="46.54419" lon="-1.24118">
        <ele>54.8</ele>
        <time>2021-12-24T12:49:09Z</time>
      </trkpt>
      <trkpt lat="46.54427" lon="-1.24105">
        <ele>54.8</ele>
        <time>2021-12-24T12:49:11Z</time>
      </trkpt>
      <trkpt lat="46.5443" lon="-1.24097">
        <ele>54.8</ele>
        <time>2021-12-24T12:49:12Z</time>
      </trkpt>
      <trkpt lat="46.54432" lon="-1.24089">
        <ele>54.8</ele>
        <time>2021-12-24T12:49:13Z</time>
      </trkpt>
      <trkpt lat="46.54432" lon="-1.24079">
        <ele>54.8</ele>
        <time>2021-12-24T12:49:14Z</time>
      </trkpt>
      <trkpt lat="46.54432" lon="-1.2407">
        <ele>54.8</ele>
        <time>2021-12-24T12:49:15Z</time>
      </trkpt>
      <trkpt lat="46.5443" lon="-1.24061">
        <ele>54.8</ele>
        <time>2021-12-24T12:49:16Z</time>
      </trkpt>
      <trkpt lat="46.54428" lon="-1.24052">
        <ele>54.6</ele>
        <time>2021-12-24T12:49:17Z</time>
      </trkpt>
      <trkpt lat="46.54425" lon="-1.24035">
        <ele>54.6</ele>
        <time>2021-12-24T12:49:19Z</time>
      </trkpt>
      <trkpt lat="46.54422" lon="-1.24018">
        <ele>54.6</ele>
        <time>2021-12-24T12:49:21Z</time>
      </trkpt>
      <trkpt lat="46.54421" lon="-1.2401">
        <ele>54.6</ele>
        <time>2021-12-24T12:49:22Z</time>
      </trkpt>
      <trkpt lat="46.5442" lon="-1.24001">
        <ele>54.6</ele>
        <time>2021-12-24T12:49:23Z</time>
      </trkpt>
      <trkpt lat="46.54418" lon="-1.23983">
        <ele>54.6</ele>
        <time>2021-12-24T12:49:25Z</time>
      </trkpt>
      <trkpt lat="46.54417" lon="-1.23966">
        <ele>54.6</ele>
        <time>2021-12-24T12:49:27Z</time>
      </trkpt>
      <trkpt lat="46.54416" lon="-1.23948">
        <ele>54.6</ele>
        <time>2021-12-24T12:49:29Z</time>
      </trkpt>
      <trkpt lat="46.54416" lon="-1.23931">
        <ele>54.6</ele>
        <time>2021-12-24T12:49:31Z</time>
      </trkpt>
      <trkpt lat="46.54416" lon="-1.23913">
        <ele>54.6</ele>
        <time>2021-12-24T12:49:33Z</time>
      </trkpt>
      <trkpt lat="46.54415" lon="-1.23894">
        <ele>54.4</ele>
        <time>2021-12-24T12:49:35Z</time>
      </trkpt>
      <trkpt lat="46.54415" lon="-1.23885">
        <ele>54.4</ele>
        <time>2021-12-24T12:49:36Z</time>
      </trkpt>
      <trkpt lat="46.54415" lon="-1.23875">
        <ele>54.4</ele>
        <time>2021-12-24T12:49:37Z</time>
      </trkpt>
      <trkpt lat="46.54415" lon="-1.23855">
        <ele>54.4</ele>
        <time>2021-12-24T12:49:39Z</time>
      </trkpt>
      <trkpt lat="46.54415" lon="-1.23836">
        <ele>54.4</ele>
        <time>2021-12-24T12:49:41Z</time>
      </trkpt>
      <trkpt lat="46.54415" lon="-1.23817">
        <ele>54.2</ele>
        <time>2021-12-24T12:49:43Z</time>
      </trkpt>
      <trkpt lat="46.54415" lon="-1.23798">
        <ele>54.2</ele>
        <time>2021-12-24T12:49:45Z</time>
      </trkpt>
      <trkpt lat="46.54415" lon="-1.23778">
        <ele>54.2</ele>
        <time>2021-12-24T12:49:47Z</time>
      </trkpt>
      <trkpt lat="46.54416" lon="-1.23758">
        <ele>54.2</ele>
        <time>2021-12-24T12:49:49Z</time>
      </trkpt>
      <trkpt lat="46.54417" lon="-1.23747">
        <ele>54.2</ele>
        <time>2021-12-24T12:49:50Z</time>
      </trkpt>
      <trkpt lat="46.54417" lon="-1.23736">
        <ele>54.2</ele>
        <time>2021-12-24T12:49:51Z</time>
      </trkpt>
      <trkpt lat="46.54418" lon="-1.23713">
        <ele>54.2</ele>
        <time>2021-12-24T12:49:53Z</time>
      </trkpt>
      <trkpt lat="46.5442" lon="-1.2369">
        <ele>54</ele>
        <time>2021-12-24T12:49:55Z</time>
      </trkpt>
      <trkpt lat="46.54421" lon="-1.23665">
        <ele>54</ele>
        <time>2021-12-24T12:49:57Z</time>
      </trkpt>
      <trkpt lat="46.54422" lon="-1.2364">
        <ele>54</ele>
        <time>2021-12-24T12:49:59Z</time>
      </trkpt>
      <trkpt lat="46.54422" lon="-1.23628">
        <ele>53.8</ele>
        <time>2021-12-24T12:50:00Z</time>
      </trkpt>
      <trkpt lat="46.54421" lon="-1.23615">
        <ele>53.8</ele>
        <time>2021-12-24T12:50:01Z</time>
      </trkpt>
      <trkpt lat="46.54419" lon="-1.23603">
        <ele>53.6</ele>
        <time>2021-12-24T12:50:02Z</time>
      </trkpt>
      <trkpt lat="46.54417" lon="-1.23592">
        <ele>53.6</ele>
        <time>2021-12-24T12:50:03Z</time>
      </trkpt>
      <trkpt lat="46.5441" lon="-1.23569">
        <ele>53.6</ele>
        <time>2021-12-24T12:50:05Z</time>
      </trkpt>
      <trkpt lat="46.54407" lon="-1.23557">
        <ele>53.6</ele>
        <time>2021-12-24T12:50:06Z</time>
      </trkpt>
      <trkpt lat="46.54403" lon="-1.23545">
        <ele>53.6</ele>
        <time>2021-12-24T12:50:07Z</time>
      </trkpt>
      <trkpt lat="46.54395" lon="-1.2352">
        <ele>53.2</ele>
        <time>2021-12-24T12:50:09Z</time>
      </trkpt>
      <trkpt lat="46.54386" lon="-1.23497">
        <ele>52.8</ele>
        <time>2021-12-24T12:50:11Z</time>
      </trkpt>
      <trkpt lat="46.5438" lon="-1.23486">
        <ele>52.8</ele>
        <time>2021-12-24T12:50:12Z</time>
      </trkpt>
      <trkpt lat="46.54376" lon="-1.23475">
        <ele>52.6</ele>
        <time>2021-12-24T12:50:13Z</time>
      </trkpt>
      <trkpt lat="46.54366" lon="-1.23452">
        <ele>52.4</ele>
        <time>2021-12-24T12:50:15Z</time>
      </trkpt>
      <trkpt lat="46.54357" lon="-1.2343">
        <ele>52</ele>
        <time>2021-12-24T12:50:17Z</time>
      </trkpt>
      <trkpt lat="46.54347" lon="-1.23408">
        <ele>51.8</ele>
        <time>2021-12-24T12:50:19Z</time>
      </trkpt>
      <trkpt lat="46.54336" lon="-1.23386">
        <ele>51.4</ele>
        <time>2021-12-24T12:50:21Z</time>
      </trkpt>
      <trkpt lat="46.54326" lon="-1.23364">
        <ele>51.2</ele>
        <time>2021-12-24T12:50:23Z</time>
      </trkpt>
      <trkpt lat="46.5432" lon="-1.23354">
        <ele>51.2</ele>
        <time>2021-12-24T12:50:24Z</time>
      </trkpt>
      <trkpt lat="46.54315" lon="-1.23343">
        <ele>51</ele>
        <time>2021-12-24T12:50:25Z</time>
      </trkpt>
      <trkpt lat="46.54304" lon="-1.23323">
        <ele>50.8</ele>
        <time>2021-12-24T12:50:27Z</time>
      </trkpt>
      <trkpt lat="46.54293" lon="-1.23303">
        <ele>50.6</ele>
        <time>2021-12-24T12:50:29Z</time>
      </trkpt>
      <trkpt lat="46.54283" lon="-1.23283">
        <ele>50.4</ele>
        <time>2021-12-24T12:50:31Z</time>
      </trkpt>
      <trkpt lat="46.54278" lon="-1.23273">
        <ele>50.2</ele>
        <time>2021-12-24T12:50:32Z</time>
      </trkpt>
      <trkpt lat="46.54273" lon="-1.23262">
        <ele>50</ele>
        <time>2021-12-24T12:50:33Z</time>
      </trkpt>
      <trkpt lat="46.54263" lon="-1.23242">
        <ele>49.8</ele>
        <time>2021-12-24T12:50:35Z</time>
      </trkpt>
      <trkpt lat="46.54253" lon="-1.23221">
        <ele>49.6</ele>
        <time>2021-12-24T12:50:37Z</time>
      </trkpt>
      <trkpt lat="46.54244" lon="-1.23201">
        <ele>49.2</ele>
        <time>2021-12-24T12:50:39Z</time>
      </trkpt>
      <trkpt lat="46.54235" lon="-1.23181">
        <ele>49</ele>
        <time>2021-12-24T12:50:41Z</time>
      </trkpt>
      <trkpt lat="46.54227" lon="-1.2316">
        <ele>48.6</ele>
        <time>2021-12-24T12:50:43Z</time>
      </trkpt>
      <trkpt lat="46.5422" lon="-1.23138">
        <ele>48.2</ele>
        <time>2021-12-24T12:50:45Z</time>
      </trkpt>
      <trkpt lat="46.54214" lon="-1.23116">
        <ele>48</ele>
        <time>2021-12-24T12:50:47Z</time>
      </trkpt>
      <trkpt lat="46.54212" lon="-1.23105">
        <ele>47.8</ele>
        <time>2021-12-24T12:50:48Z</time>
      </trkpt>
      <trkpt lat="46.54209" lon="-1.23094">
        <ele>47.8</ele>
        <time>2021-12-24T12:50:49Z</time>
      </trkpt>
      <trkpt lat="46.54205" lon="-1.23072">
        <ele>47.6</ele>
        <time>2021-12-24T12:50:51Z</time>
      </trkpt>
      <trkpt lat="46.54201" lon="-1.23049">
        <ele>47.2</ele>
        <time>2021-12-24T12:50:53Z</time>
      </trkpt>
      <trkpt lat="46.54197" lon="-1.23027">
        <ele>47</ele>
        <time>2021-12-24T12:50:55Z</time>
      </trkpt>
      <trkpt lat="46.54193" lon="-1.23004">
        <ele>46.6</ele>
        <time>2021-12-24T12:50:57Z</time>
      </trkpt>
      <trkpt lat="46.54188" lon="-1.22981">
        <ele>46.4</ele>
        <time>2021-12-24T12:50:59Z</time>
      </trkpt>
      <trkpt lat="46.54181" lon="-1.22958">
        <ele>46.2</ele>
        <time>2021-12-24T12:51:01Z</time>
      </trkpt>
      <trkpt lat="46.54173" lon="-1.22934">
        <ele>46</ele>
        <time>2021-12-24T12:51:03Z</time>
      </trkpt>
      <trkpt lat="46.54164" lon="-1.2291">
        <ele>45.6</ele>
        <time>2021-12-24T12:51:05Z</time>
      </trkpt>
      <trkpt lat="46.54155" lon="-1.22885">
        <ele>45.2</ele>
        <time>2021-12-24T12:51:07Z</time>
      </trkpt>
      <trkpt lat="46.5415" lon="-1.22872">
        <ele>45</ele>
        <time>2021-12-24T12:51:08Z</time>
      </trkpt>
      <trkpt lat="46.54145" lon="-1.22859">
        <ele>44.8</ele>
        <time>2021-12-24T12:51:09Z</time>
      </trkpt>
      <trkpt lat="46.54133" lon="-1.22834">
        <ele>44.4</ele>
        <time>2021-12-24T12:51:11Z</time>
      </trkpt>
      <trkpt lat="46.54121" lon="-1.22808">
        <ele>43.8</ele>
        <time>2021-12-24T12:51:13Z</time>
      </trkpt>
      <trkpt lat="46.54115" lon="-1.22795">
        <ele>43.6</ele>
        <time>2021-12-24T12:51:14Z</time>
      </trkpt>
      <trkpt lat="46.54109" lon="-1.22783">
        <ele>43.4</ele>
        <time>2021-12-24T12:51:15Z</time>
      </trkpt>
      <trkpt lat="46.54096" lon="-1.22758">
        <ele>42.8</ele>
        <time>2021-12-24T12:51:17Z</time>
      </trkpt>
      <trkpt lat="46.54083" lon="-1.22733">
        <ele>42.2</ele>
        <time>2021-12-24T12:51:19Z</time>
      </trkpt>
      <trkpt lat="46.5407" lon="-1.22708">
        <ele>41.8</ele>
        <time>2021-12-24T12:51:21Z</time>
      </trkpt>
      <trkpt lat="46.54063" lon="-1.22696">
        <ele>41.4</ele>
        <time>2021-12-24T12:51:22Z</time>
      </trkpt>
      <trkpt lat="46.54056" lon="-1.22683">
        <ele>41</ele>
        <time>2021-12-24T12:51:23Z</time>
      </trkpt>
      <trkpt lat="46.54042" lon="-1.22659">
        <ele>40.4</ele>
        <time>2021-12-24T12:51:25Z</time>
      </trkpt>
      <trkpt lat="46.54035" lon="-1.22647">
        <ele>40</ele>
        <time>2021-12-24T12:51:26Z</time>
      </trkpt>
      <trkpt lat="46.54026" lon="-1.22636">
        <ele>39.6</ele>
        <time>2021-12-24T12:51:27Z</time>
      </trkpt>
      <trkpt lat="46.54019" lon="-1.22625">
        <ele>39.2</ele>
        <time>2021-12-24T12:51:28Z</time>
      </trkpt>
      <trkpt lat="46.54011" lon="-1.22614">
        <ele>38.8</ele>
        <time>2021-12-24T12:51:29Z</time>
      </trkpt>
      <trkpt lat="46.53997" lon="-1.2259">
        <ele>38.2</ele>
        <time>2021-12-24T12:51:31Z</time>
      </trkpt>
      <trkpt lat="46.5399" lon="-1.22577">
        <ele>37.8</ele>
        <time>2021-12-24T12:51:32Z</time>
      </trkpt>
      <trkpt lat="46.53983" lon="-1.22565">
        <ele>37.6</ele>
        <time>2021-12-24T12:51:33Z</time>
      </trkpt>
      <trkpt lat="46.53976" lon="-1.22552">
        <ele>37.2</ele>
        <time>2021-12-24T12:51:34Z</time>
      </trkpt>
      <trkpt lat="46.5397" lon="-1.22539">
        <ele>37</ele>
        <time>2021-12-24T12:51:35Z</time>
      </trkpt>
      <trkpt lat="46.53963" lon="-1.22526">
        <ele>36.6</ele>
        <time>2021-12-24T12:51:36Z</time>
      </trkpt>
      <trkpt lat="46.53955" lon="-1.22512">
        <ele>36.2</ele>
        <time>2021-12-24T12:51:37Z</time>
      </trkpt>
      <trkpt lat="46.5394" lon="-1.22484">
        <ele>35.4</ele>
        <time>2021-12-24T12:51:39Z</time>
      </trkpt>
      <trkpt lat="46.53925" lon="-1.22457">
        <ele>34.6</ele>
        <time>2021-12-24T12:51:41Z</time>
      </trkpt>
      <trkpt lat="46.53913" lon="-1.22434">
        <ele>33.8</ele>
        <time>2021-12-24T12:51:43Z</time>
      </trkpt>
      <trkpt lat="46.53902" lon="-1.22414">
        <ele>32.8</ele>
        <time>2021-12-24T12:51:45Z</time>
      </trkpt>
      <trkpt lat="46.53893" lon="-1.22396">
        <ele>32</ele>
        <time>2021-12-24T12:51:47Z</time>
      </trkpt>
      <trkpt lat="46.53883" lon="-1.22378">
        <ele>31.2</ele>
        <time>2021-12-24T12:51:49Z</time>
      </trkpt>
      <trkpt lat="46.53877" lon="-1.22371">
        <ele>30.8</ele>
        <time>2021-12-24T12:51:50Z</time>
      </trkpt>
      <trkpt lat="46.53871" lon="-1.22365">
        <ele>30.6</ele>
        <time>2021-12-24T12:51:51Z</time>
      </trkpt>
      <trkpt lat="46.53866" lon="-1.22359">
        <ele>30.2</ele>
        <time>2021-12-24T12:51:52Z</time>
      </trkpt>
      <trkpt lat="46.53861" lon="-1.22354">
        <ele>30</ele>
        <time>2021-12-24T12:51:53Z</time>
      </trkpt>
      <trkpt lat="46.53853" lon="-1.22348">
        <ele>29.4</ele>
        <time>2021-12-24T12:51:55Z</time>
      </trkpt>
      <trkpt lat="46.53848" lon="-1.22343">
        <ele>28.6</ele>
        <time>2021-12-24T12:51:57Z</time>
      </trkpt>
      <trkpt lat="46.53839" lon="-1.22337">
        <ele>27.8</ele>
        <time>2021-12-24T12:51:59Z</time>
      </trkpt>
      <trkpt lat="46.53834" lon="-1.22333">
        <ele>27.4</ele>
        <time>2021-12-24T12:52:00Z</time>
      </trkpt>
      <trkpt lat="46.53829" lon="-1.22328">
        <ele>27</ele>
        <time>2021-12-24T12:52:01Z</time>
      </trkpt>
      <trkpt lat="46.53818" lon="-1.22318">
        <ele>26.2</ele>
        <time>2021-12-24T12:52:03Z</time>
      </trkpt>
      <trkpt lat="46.53806" lon="-1.2231">
        <ele>25.6</ele>
        <time>2021-12-24T12:52:05Z</time>
      </trkpt>
      <trkpt lat="46.53793" lon="-1.22305">
        <ele>24.8</ele>
        <time>2021-12-24T12:52:07Z</time>
      </trkpt>
      <trkpt lat="46.53779" lon="-1.22298">
        <ele>24.4</ele>
        <time>2021-12-24T12:52:09Z</time>
      </trkpt>
      <trkpt lat="46.53766" lon="-1.2229">
        <ele>23.8</ele>
        <time>2021-12-24T12:52:11Z</time>
      </trkpt>
      <trkpt lat="46.53754" lon="-1.22283">
        <ele>23.2</ele>
        <time>2021-12-24T12:52:13Z</time>
      </trkpt>
      <trkpt lat="46.53741" lon="-1.22281">
        <ele>22.6</ele>
        <time>2021-12-24T12:52:15Z</time>
      </trkpt>
      <trkpt lat="46.53731" lon="-1.22282">
        <ele>22</ele>
        <time>2021-12-24T12:52:17Z</time>
      </trkpt>
      <trkpt lat="46.53719" lon="-1.22283">
        <ele>21.6</ele>
        <time>2021-12-24T12:52:19Z</time>
      </trkpt>
      <trkpt lat="46.53708" lon="-1.22284">
        <ele>21</ele>
        <time>2021-12-24T12:52:21Z</time>
      </trkpt>
      <trkpt lat="46.53695" lon="-1.22284">
        <ele>20.4</ele>
        <time>2021-12-24T12:52:23Z</time>
      </trkpt>
      <trkpt lat="46.53681" lon="-1.22286">
        <ele>19.8</ele>
        <time>2021-12-24T12:52:25Z</time>
      </trkpt>
      <trkpt lat="46.53668" lon="-1.22289">
        <ele>19</ele>
        <time>2021-12-24T12:52:27Z</time>
      </trkpt>
      <trkpt lat="46.53656" lon="-1.22291">
        <ele>18.6</ele>
        <time>2021-12-24T12:52:29Z</time>
      </trkpt>
      <trkpt lat="46.53645" lon="-1.22294">
        <ele>18</ele>
        <time>2021-12-24T12:52:31Z</time>
      </trkpt>
      <trkpt lat="46.5364" lon="-1.22296">
        <ele>17.6</ele>
        <time>2021-12-24T12:52:32Z</time>
      </trkpt>
      <trkpt lat="46.53634" lon="-1.22298">
        <ele>17.4</ele>
        <time>2021-12-24T12:52:33Z</time>
      </trkpt>
      <trkpt lat="46.53624" lon="-1.22305">
        <ele>16.8</ele>
        <time>2021-12-24T12:52:35Z</time>
      </trkpt>
      <trkpt lat="46.5362" lon="-1.22308">
        <ele>16.6</ele>
        <time>2021-12-24T12:52:36Z</time>
      </trkpt>
      <trkpt lat="46.53616" lon="-1.22313">
        <ele>16.4</ele>
        <time>2021-12-24T12:52:37Z</time>
      </trkpt>
      <trkpt lat="46.53613" lon="-1.22317">
        <ele>16.2</ele>
        <time>2021-12-24T12:52:38Z</time>
      </trkpt>
      <trkpt lat="46.53609" lon="-1.22322">
        <ele>16</ele>
        <time>2021-12-24T12:52:39Z</time>
      </trkpt>
      <trkpt lat="46.53606" lon="-1.22324">
        <ele>15.8</ele>
        <time>2021-12-24T12:52:40Z</time>
      </trkpt>
      <trkpt lat="46.53602" lon="-1.22327">
        <ele>15.6</ele>
        <time>2021-12-24T12:52:41Z</time>
      </trkpt>
      <trkpt lat="46.53594" lon="-1.22332">
        <ele>15.4</ele>
        <time>2021-12-24T12:52:43Z</time>
      </trkpt>
      <trkpt lat="46.53591" lon="-1.22335">
        <ele>15.2</ele>
        <time>2021-12-24T12:52:44Z</time>
      </trkpt>
      <trkpt lat="46.5359" lon="-1.2234">
        <ele>15</ele>
        <time>2021-12-24T12:52:45Z</time>
      </trkpt>
      <trkpt lat="46.53586" lon="-1.2235">
        <ele>14.8</ele>
        <time>2021-12-24T12:52:47Z</time>
      </trkpt>
      <trkpt lat="46.53582" lon="-1.22359">
        <ele>14.6</ele>
        <time>2021-12-24T12:52:49Z</time>
      </trkpt>
      <trkpt lat="46.53579" lon="-1.22369">
        <ele>14.4</ele>
        <time>2021-12-24T12:52:51Z</time>
      </trkpt>
      <trkpt lat="46.53577" lon="-1.22373">
        <ele>14.2</ele>
        <time>2021-12-24T12:52:52Z</time>
      </trkpt>
      <trkpt lat="46.53576" lon="-1.22377">
        <ele>14</ele>
        <time>2021-12-24T12:52:53Z</time>
      </trkpt>
      <trkpt lat="46.53573" lon="-1.22385">
        <ele>13.8</ele>
        <time>2021-12-24T12:52:55Z</time>
      </trkpt>
      <trkpt lat="46.5357" lon="-1.22392">
        <ele>13.6</ele>
        <time>2021-12-24T12:52:57Z</time>
      </trkpt>
      <trkpt lat="46.53569" lon="-1.22395">
        <ele>13.4</ele>
        <time>2021-12-24T12:52:58Z</time>
      </trkpt>
      <trkpt lat="46.53568" lon="-1.22397">
        <ele>13.4</ele>
        <time>2021-12-24T12:52:59Z</time>
      </trkpt>
      <trkpt lat="46.53562" lon="-1.22396">
        <ele>13.2</ele>
        <time>2021-12-24T12:53:01Z</time>
      </trkpt>
      <trkpt lat="46.53557" lon="-1.22388">
        <ele>12.8</ele>
        <time>2021-12-24T12:53:03Z</time>
      </trkpt>
      <trkpt lat="46.53553" lon="-1.22379">
        <ele>12.4</ele>
        <time>2021-12-24T12:53:05Z</time>
      </trkpt>
      <trkpt lat="46.53551" lon="-1.22375">
        <ele>12.4</ele>
        <time>2021-12-24T12:53:06Z</time>
      </trkpt>
      <trkpt lat="46.53549" lon="-1.2237">
        <ele>12.2</ele>
        <time>2021-12-24T12:53:07Z</time>
      </trkpt>
      <trkpt lat="46.53545" lon="-1.22361">
        <ele>11.8</ele>
        <time>2021-12-24T12:53:09Z</time>
      </trkpt>
      <trkpt lat="46.53541" lon="-1.22351">
        <ele>11.6</ele>
        <time>2021-12-24T12:53:11Z</time>
      </trkpt>
      <trkpt lat="46.53537" lon="-1.22341">
        <ele>11.4</ele>
        <time>2021-12-24T12:53:13Z</time>
      </trkpt>
      <trkpt lat="46.53535" lon="-1.22337">
        <ele>11.2</ele>
        <time>2021-12-24T12:53:14Z</time>
      </trkpt>
      <trkpt lat="46.53533" lon="-1.22332">
        <ele>11.2</ele>
        <time>2021-12-24T12:53:15Z</time>
      </trkpt>
      <trkpt lat="46.53531" lon="-1.22322">
        <ele>11.2</ele>
        <time>2021-12-24T12:53:17Z</time>
      </trkpt>
      <trkpt lat="46.53528" lon="-1.22312">
        <ele>11</ele>
        <time>2021-12-24T12:53:19Z</time>
      </trkpt>
      <trkpt lat="46.53525" lon="-1.22303">
        <ele>11</ele>
        <time>2021-12-24T12:53:21Z</time>
      </trkpt>
      <trkpt lat="46.53521" lon="-1.22293">
        <ele>10.8</ele>
        <time>2021-12-24T12:53:23Z</time>
      </trkpt>
      <trkpt lat="46.53518" lon="-1.22283">
        <ele>10.8</ele>
        <time>2021-12-24T12:53:25Z</time>
      </trkpt>
      <trkpt lat="46.53514" lon="-1.22274">
        <ele>10.8</ele>
        <time>2021-12-24T12:53:27Z</time>
      </trkpt>
      <trkpt lat="46.5351" lon="-1.22264">
        <ele>10.8</ele>
        <time>2021-12-24T12:53:29Z</time>
      </trkpt>
      <trkpt lat="46.53506" lon="-1.22254">
        <ele>10.6</ele>
        <time>2021-12-24T12:53:31Z</time>
      </trkpt>
      <trkpt lat="46.53502" lon="-1.22244">
        <ele>10.6</ele>
        <time>2021-12-24T12:53:33Z</time>
      </trkpt>
      <trkpt lat="46.535" lon="-1.22233">
        <ele>10.6</ele>
        <time>2021-12-24T12:53:35Z</time>
      </trkpt>
      <trkpt lat="46.53497" lon="-1.22222">
        <ele>10.4</ele>
        <time>2021-12-24T12:53:37Z</time>
      </trkpt>
      <trkpt lat="46.53495" lon="-1.2221">
        <ele>10.4</ele>
        <time>2021-12-24T12:53:39Z</time>
      </trkpt>
      <trkpt lat="46.53493" lon="-1.22198">
        <ele>10.2</ele>
        <time>2021-12-24T12:53:41Z</time>
      </trkpt>
      <trkpt lat="46.53491" lon="-1.22185">
        <ele>10</ele>
        <time>2021-12-24T12:53:43Z</time>
      </trkpt>
      <trkpt lat="46.53489" lon="-1.2217">
        <ele>10</ele>
        <time>2021-12-24T12:53:45Z</time>
      </trkpt>
      <trkpt lat="46.53487" lon="-1.22154">
        <ele>9.6</ele>
        <time>2021-12-24T12:53:47Z</time>
      </trkpt>
      <trkpt lat="46.53487" lon="-1.22137">
        <ele>9.4</ele>
        <time>2021-12-24T12:53:49Z</time>
      </trkpt>
      <trkpt lat="46.53486" lon="-1.22119">
        <ele>9</ele>
        <time>2021-12-24T12:53:51Z</time>
      </trkpt>
      <trkpt lat="46.53484" lon="-1.221">
        <ele>8.8</ele>
        <time>2021-12-24T12:53:53Z</time>
      </trkpt>
      <trkpt lat="46.53484" lon="-1.2208">
        <ele>8.8</ele>
        <time>2021-12-24T12:53:55Z</time>
      </trkpt>
      <trkpt lat="46.53486" lon="-1.22061">
        <ele>8.6</ele>
        <time>2021-12-24T12:53:57Z</time>
      </trkpt>
      <trkpt lat="46.53487" lon="-1.22052">
        <ele>8.6</ele>
        <time>2021-12-24T12:53:58Z</time>
      </trkpt>
      <trkpt lat="46.53489" lon="-1.22043">
        <ele>8.4</ele>
        <time>2021-12-24T12:53:59Z</time>
      </trkpt>
      <trkpt lat="46.53492" lon="-1.22026">
        <ele>8.4</ele>
        <time>2021-12-24T12:54:01Z</time>
      </trkpt>
      <trkpt lat="46.53494" lon="-1.22011">
        <ele>8.4</ele>
        <time>2021-12-24T12:54:03Z</time>
      </trkpt>
      <trkpt lat="46.53495" lon="-1.21997">
        <ele>8.4</ele>
        <time>2021-12-24T12:54:05Z</time>
      </trkpt>
      <trkpt lat="46.53497" lon="-1.21988">
        <ele>8.4</ele>
        <time>2021-12-24T12:54:07Z</time>
      </trkpt>
      <trkpt lat="46.53497" lon="-1.21983">
        <ele>8.2</ele>
        <time>2021-12-24T12:54:09Z</time>
      </trkpt>
      <trkpt lat="46.53497" lon="-1.21983">
        <ele>8.2</ele>
        <time>2021-12-24T12:54:10Z</time>
      </trkpt>
      <trkpt lat="46.53494" lon="-1.21982">
        <ele>5.6</ele>
        <time>2021-12-24T13:04:41Z</time>
      </trkpt>
      <trkpt lat="46.53495" lon="-1.21978">
        <ele>5.6</ele>
        <time>2021-12-24T13:04:42Z</time>
      </trkpt>
      <trkpt lat="46.53496" lon="-1.21974">
        <ele>5.4</ele>
        <time>2021-12-24T13:04:43Z</time>
      </trkpt>
      <trkpt lat="46.53496" lon="-1.21968">
        <ele>5.6</ele>
        <time>2021-12-24T13:04:45Z</time>
      </trkpt>
      <trkpt lat="46.53497" lon="-1.21959">
        <ele>5.6</ele>
        <time>2021-12-24T13:04:47Z</time>
      </trkpt>
      <trkpt lat="46.53497" lon="-1.21949">
        <ele>5.4</ele>
        <time>2021-12-24T13:04:49Z</time>
      </trkpt>
      <trkpt lat="46.53496" lon="-1.21939">
        <ele>5.2</ele>
        <time>2021-12-24T13:04:51Z</time>
      </trkpt>
      <trkpt lat="46.53495" lon="-1.21927">
        <ele>5</ele>
        <time>2021-12-24T13:04:53Z</time>
      </trkpt>
      <trkpt lat="46.53492" lon="-1.21916">
        <ele>4.8</ele>
        <time>2021-12-24T13:04:55Z</time>
      </trkpt>
      <trkpt lat="46.53492" lon="-1.21908">
        <ele>4.8</ele>
        <time>2021-12-24T13:04:57Z</time>
      </trkpt>
      <trkpt lat="46.53491" lon="-1.21904">
        <ele>4.6</ele>
        <time>2021-12-24T13:04:59Z</time>
      </trkpt>
      <trkpt lat="46.53491" lon="-1.21901">
        <ele>4.4</ele>
        <time>2021-12-24T13:05:01Z</time>
      </trkpt>
      <trkpt lat="46.53491" lon="-1.219">
        <ele>4.4</ele>
        <time>2021-12-24T13:05:03Z</time>
      </trkpt>
      <trkpt lat="46.53489" lon="-1.21895">
        <ele>4</ele>
        <time>2021-12-24T13:05:13Z</time>
      </trkpt>
      <trkpt lat="46.53487" lon="-1.21887">
        <ele>3.8</ele>
        <time>2021-12-24T13:05:15Z</time>
      </trkpt>
      <trkpt lat="46.53484" lon="-1.21877">
        <ele>3.8</ele>
        <time>2021-12-24T13:05:17Z</time>
      </trkpt>
      <trkpt lat="46.53482" lon="-1.21867">
        <ele>4.2</ele>
        <time>2021-12-24T13:05:19Z</time>
      </trkpt>
      <trkpt lat="46.5348" lon="-1.21862">
        <ele>4.2</ele>
        <time>2021-12-24T13:05:20Z</time>
      </trkpt>
      <trkpt lat="46.53477" lon="-1.21857">
        <ele>3.6</ele>
        <time>2021-12-24T13:05:21Z</time>
      </trkpt>
      <trkpt lat="46.53469" lon="-1.21847">
        <ele>4</ele>
        <time>2021-12-24T13:05:23Z</time>
      </trkpt>
      <trkpt lat="46.53465" lon="-1.21842">
        <ele>4.4</ele>
        <time>2021-12-24T13:05:24Z</time>
      </trkpt>
      <trkpt lat="46.5346" lon="-1.21839">
        <ele>4.2</ele>
        <time>2021-12-24T13:05:25Z</time>
      </trkpt>
      <trkpt lat="46.53454" lon="-1.2184">
        <ele>4</ele>
        <time>2021-12-24T13:05:26Z</time>
      </trkpt>
      <trkpt lat="46.53448" lon="-1.21842">
        <ele>3.8</ele>
        <time>2021-12-24T13:05:27Z</time>
      </trkpt>
      <trkpt lat="46.53442" lon="-1.21844">
        <ele>4</ele>
        <time>2021-12-24T13:05:28Z</time>
      </trkpt>
      <trkpt lat="46.53435" lon="-1.21846">
        <ele>4</ele>
        <time>2021-12-24T13:05:29Z</time>
      </trkpt>
      <trkpt lat="46.53423" lon="-1.21849">
        <ele>4</ele>
        <time>2021-12-24T13:05:31Z</time>
      </trkpt>
      <trkpt lat="46.5341" lon="-1.21851">
        <ele>3.8</ele>
        <time>2021-12-24T13:05:33Z</time>
      </trkpt>
      <trkpt lat="46.53403" lon="-1.21852">
        <ele>3.6</ele>
        <time>2021-12-24T13:05:34Z</time>
      </trkpt>
      <trkpt lat="46.53397" lon="-1.21853">
        <ele>3.6</ele>
        <time>2021-12-24T13:05:35Z</time>
      </trkpt>
      <trkpt lat="46.53384" lon="-1.21855">
        <ele>3.2</ele>
        <time>2021-12-24T13:05:37Z</time>
      </trkpt>
      <trkpt lat="46.53378" lon="-1.21856">
        <ele>3.2</ele>
        <time>2021-12-24T13:05:38Z</time>
      </trkpt>
      <trkpt lat="46.53372" lon="-1.21858">
        <ele>3</ele>
        <time>2021-12-24T13:05:39Z</time>
      </trkpt>
      <trkpt lat="46.53361" lon="-1.21861">
        <ele>2.8</ele>
        <time>2021-12-24T13:05:41Z</time>
      </trkpt>
      <trkpt lat="46.53349" lon="-1.21865">
        <ele>2.6</ele>
        <time>2021-12-24T13:05:43Z</time>
      </trkpt>
      <trkpt lat="46.53343" lon="-1.21867">
        <ele>2.4</ele>
        <time>2021-12-24T13:05:44Z</time>
      </trkpt>
      <trkpt lat="46.53337" lon="-1.21869">
        <ele>2.4</ele>
        <time>2021-12-24T13:05:45Z</time>
      </trkpt>
      <trkpt lat="46.53327" lon="-1.21874">
        <ele>2.4</ele>
        <time>2021-12-24T13:05:47Z</time>
      </trkpt>
      <trkpt lat="46.53317" lon="-1.21877">
        <ele>2.4</ele>
        <time>2021-12-24T13:05:49Z</time>
      </trkpt>
      <trkpt lat="46.53308" lon="-1.2188">
        <ele>2.4</ele>
        <time>2021-12-24T13:05:51Z</time>
      </trkpt>
      <trkpt lat="46.53299" lon="-1.21882">
        <ele>2.4</ele>
        <time>2021-12-24T13:05:53Z</time>
      </trkpt>
      <trkpt lat="46.53291" lon="-1.21884">
        <ele>2.6</ele>
        <time>2021-12-24T13:05:55Z</time>
      </trkpt>
      <trkpt lat="46.53284" lon="-1.21886">
        <ele>2.6</ele>
        <time>2021-12-24T13:05:57Z</time>
      </trkpt>
      <trkpt lat="46.53277" lon="-1.21888">
        <ele>2.6</ele>
        <time>2021-12-24T13:05:59Z</time>
      </trkpt>
      <trkpt lat="46.53271" lon="-1.21889">
        <ele>2</ele>
        <time>2021-12-24T13:06:01Z</time>
      </trkpt>
      <trkpt lat="46.53264" lon="-1.21891">
        <ele>2.4</ele>
        <time>2021-12-24T13:06:03Z</time>
      </trkpt>
      <trkpt lat="46.53258" lon="-1.21892">
        <ele>3.4</ele>
        <time>2021-12-24T13:06:05Z</time>
      </trkpt>
      <trkpt lat="46.53252" lon="-1.21894">
        <ele>3</ele>
        <time>2021-12-24T13:06:07Z</time>
      </trkpt>
      <trkpt lat="46.53246" lon="-1.21897">
        <ele>3.2</ele>
        <time>2021-12-24T13:06:09Z</time>
      </trkpt>
      <trkpt lat="46.5324" lon="-1.219">
        <ele>3.2</ele>
        <time>2021-12-24T13:06:11Z</time>
      </trkpt>
      <trkpt lat="46.53234" lon="-1.21903">
        <ele>3.2</ele>
        <time>2021-12-24T13:06:13Z</time>
      </trkpt>
      <trkpt lat="46.53228" lon="-1.21907">
        <ele>3.4</ele>
        <time>2021-12-24T13:06:15Z</time>
      </trkpt>
      <trkpt lat="46.53221" lon="-1.2191">
        <ele>3.6</ele>
        <time>2021-12-24T13:06:17Z</time>
      </trkpt>
      <trkpt lat="46.53218" lon="-1.21911">
        <ele>3.8</ele>
        <time>2021-12-24T13:06:18Z</time>
      </trkpt>
      <trkpt lat="46.53216" lon="-1.21913">
        <ele>4</ele>
        <time>2021-12-24T13:06:19Z</time>
      </trkpt>
      <trkpt lat="46.5321" lon="-1.21918">
        <ele>4.2</ele>
        <time>2021-12-24T13:06:21Z</time>
      </trkpt>
      <trkpt lat="46.53204" lon="-1.21923">
        <ele>4.4</ele>
        <time>2021-12-24T13:06:23Z</time>
      </trkpt>
      <trkpt lat="46.53201" lon="-1.21925">
        <ele>4.6</ele>
        <time>2021-12-24T13:06:24Z</time>
      </trkpt>
      <trkpt lat="46.53198" lon="-1.21927">
        <ele>4.6</ele>
        <time>2021-12-24T13:06:25Z</time>
      </trkpt>
      <trkpt lat="46.53193" lon="-1.21932">
        <ele>4.8</ele>
        <time>2021-12-24T13:06:27Z</time>
      </trkpt>
      <trkpt lat="46.53187" lon="-1.21935">
        <ele>5.2</ele>
        <time>2021-12-24T13:06:29Z</time>
      </trkpt>
      <trkpt lat="46.53181" lon="-1.21937">
        <ele>5.4</ele>
        <time>2021-12-24T13:06:31Z</time>
      </trkpt>
      <trkpt lat="46.53178" lon="-1.21938">
        <ele>5.6</ele>
        <time>2021-12-24T13:06:32Z</time>
      </trkpt>
      <trkpt lat="46.53176" lon="-1.21939">
        <ele>5.6</ele>
        <time>2021-12-24T13:06:33Z</time>
      </trkpt>
      <trkpt lat="46.5317" lon="-1.2194">
        <ele>5.8</ele>
        <time>2021-12-24T13:06:35Z</time>
      </trkpt>
      <trkpt lat="46.53165" lon="-1.2194">
        <ele>6</ele>
        <time>2021-12-24T13:06:37Z</time>
      </trkpt>
      <trkpt lat="46.5316" lon="-1.2194">
        <ele>6.4</ele>
        <time>2021-12-24T13:06:39Z</time>
      </trkpt>
      <trkpt lat="46.53155" lon="-1.2194">
        <ele>6.6</ele>
        <time>2021-12-24T13:06:41Z</time>
      </trkpt>
      <trkpt lat="46.5315" lon="-1.21941">
        <ele>6.8</ele>
        <time>2021-12-24T13:06:43Z</time>
      </trkpt>
      <trkpt lat="46.53144" lon="-1.21941">
        <ele>7</ele>
        <time>2021-12-24T13:06:45Z</time>
      </trkpt>
      <trkpt lat="46.53139" lon="-1.21942">
        <ele>7.2</ele>
        <time>2021-12-24T13:06:47Z</time>
      </trkpt>
      <trkpt lat="46.53134" lon="-1.21942">
        <ele>7.6</ele>
        <time>2021-12-24T13:06:49Z</time>
      </trkpt>
      <trkpt lat="46.53129" lon="-1.21942">
        <ele>7.8</ele>
        <time>2021-12-24T13:06:51Z</time>
      </trkpt>
      <trkpt lat="46.53123" lon="-1.21941">
        <ele>8</ele>
        <time>2021-12-24T13:06:53Z</time>
      </trkpt>
      <trkpt lat="46.53121" lon="-1.21942">
        <ele>8</ele>
        <time>2021-12-24T13:06:54Z</time>
      </trkpt>
      <trkpt lat="46.53118" lon="-1.21942">
        <ele>8.2</ele>
        <time>2021-12-24T13:06:55Z</time>
      </trkpt>
      <trkpt lat="46.53114" lon="-1.21942">
        <ele>8.4</ele>
        <time>2021-12-24T13:06:57Z</time>
      </trkpt>
      <trkpt lat="46.53109" lon="-1.21943">
        <ele>8.6</ele>
        <time>2021-12-24T13:06:59Z</time>
      </trkpt>
      <trkpt lat="46.53104" lon="-1.21945">
        <ele>8.8</ele>
        <time>2021-12-24T13:07:01Z</time>
      </trkpt>
      <trkpt lat="46.53102" lon="-1.21945">
        <ele>9</ele>
        <time>2021-12-24T13:07:02Z</time>
      </trkpt>
      <trkpt lat="46.53099" lon="-1.21946">
        <ele>9.2</ele>
        <time>2021-12-24T13:07:03Z</time>
      </trkpt>
      <trkpt lat="46.53095" lon="-1.21949">
        <ele>9.6</ele>
        <time>2021-12-24T13:07:05Z</time>
      </trkpt>
      <trkpt lat="46.53089" lon="-1.21951">
        <ele>9.8</ele>
        <time>2021-12-24T13:07:07Z</time>
      </trkpt>
      <trkpt lat="46.53084" lon="-1.21954">
        <ele>10.2</ele>
        <time>2021-12-24T13:07:09Z</time>
      </trkpt>
      <trkpt lat="46.53082" lon="-1.21955">
        <ele>10.4</ele>
        <time>2021-12-24T13:07:10Z</time>
      </trkpt>
      <trkpt lat="46.53079" lon="-1.21956">
        <ele>10.6</ele>
        <time>2021-12-24T13:07:11Z</time>
      </trkpt>
      <trkpt lat="46.53075" lon="-1.2196">
        <ele>10.8</ele>
        <time>2021-12-24T13:07:13Z</time>
      </trkpt>
      <trkpt lat="46.5307" lon="-1.21964">
        <ele>11.2</ele>
        <time>2021-12-24T13:07:15Z</time>
      </trkpt>
      <trkpt lat="46.53066" lon="-1.21969">
        <ele>11.6</ele>
        <time>2021-12-24T13:07:17Z</time>
      </trkpt>
      <trkpt lat="46.53062" lon="-1.21974">
        <ele>11.8</ele>
        <time>2021-12-24T13:07:19Z</time>
      </trkpt>
      <trkpt lat="46.53057" lon="-1.21979">
        <ele>12.2</ele>
        <time>2021-12-24T13:07:21Z</time>
      </trkpt>
      <trkpt lat="46.53055" lon="-1.21985">
        <ele>12.6</ele>
        <time>2021-12-24T13:07:23Z</time>
      </trkpt>
      <trkpt lat="46.53053" lon="-1.21988">
        <ele>12.8</ele>
        <time>2021-12-24T13:07:24Z</time>
      </trkpt>
      <trkpt lat="46.53051" lon="-1.21992">
        <ele>12.8</ele>
        <time>2021-12-24T13:07:25Z</time>
      </trkpt>
      <trkpt lat="46.53048" lon="-1.21999">
        <ele>13.2</ele>
        <time>2021-12-24T13:07:27Z</time>
      </trkpt>
      <trkpt lat="46.53046" lon="-1.22006">
        <ele>13.4</ele>
        <time>2021-12-24T13:07:29Z</time>
      </trkpt>
      <trkpt lat="46.53045" lon="-1.22013">
        <ele>13.8</ele>
        <time>2021-12-24T13:07:31Z</time>
      </trkpt>
      <trkpt lat="46.53043" lon="-1.2202">
        <ele>14</ele>
        <time>2021-12-24T13:07:33Z</time>
      </trkpt>
      <trkpt lat="46.53042" lon="-1.22027">
        <ele>14.4</ele>
        <time>2021-12-24T13:07:35Z</time>
      </trkpt>
      <trkpt lat="46.53039" lon="-1.22034">
        <ele>14.6</ele>
        <time>2021-12-24T13:07:37Z</time>
      </trkpt>
      <trkpt lat="46.53037" lon="-1.22042">
        <ele>15</ele>
        <time>2021-12-24T13:07:39Z</time>
      </trkpt>
      <trkpt lat="46.53034" lon="-1.22049">
        <ele>15.4</ele>
        <time>2021-12-24T13:07:41Z</time>
      </trkpt>
      <trkpt lat="46.53031" lon="-1.22056">
        <ele>15.6</ele>
        <time>2021-12-24T13:07:43Z</time>
      </trkpt>
      <trkpt lat="46.53028" lon="-1.22063">
        <ele>16</ele>
        <time>2021-12-24T13:07:45Z</time>
      </trkpt>
      <trkpt lat="46.53026" lon="-1.22069">
        <ele>16.2</ele>
        <time>2021-12-24T13:07:47Z</time>
      </trkpt>
      <trkpt lat="46.53023" lon="-1.22076">
        <ele>16.6</ele>
        <time>2021-12-24T13:07:49Z</time>
      </trkpt>
      <trkpt lat="46.53021" lon="-1.22082">
        <ele>17</ele>
        <time>2021-12-24T13:07:51Z</time>
      </trkpt>
      <trkpt lat="46.53019" lon="-1.22086">
        <ele>17</ele>
        <time>2021-12-24T13:07:52Z</time>
      </trkpt>
      <trkpt lat="46.53017" lon="-1.22089">
        <ele>17.2</ele>
        <time>2021-12-24T13:07:53Z</time>
      </trkpt>
      <trkpt lat="46.53013" lon="-1.22096">
        <ele>17.4</ele>
        <time>2021-12-24T13:07:55Z</time>
      </trkpt>
      <trkpt lat="46.5301" lon="-1.22103">
        <ele>17.8</ele>
        <time>2021-12-24T13:07:57Z</time>
      </trkpt>
      <trkpt lat="46.53008" lon="-1.22106">
        <ele>18</ele>
        <time>2021-12-24T13:07:58Z</time>
      </trkpt>
      <trkpt lat="46.53007" lon="-1.22109">
        <ele>18.2</ele>
        <time>2021-12-24T13:07:59Z</time>
      </trkpt>
      <trkpt lat="46.53003" lon="-1.22116">
        <ele>18.6</ele>
        <time>2021-12-24T13:08:01Z</time>
      </trkpt>
      <trkpt lat="46.52999" lon="-1.22123">
        <ele>18.8</ele>
        <time>2021-12-24T13:08:03Z</time>
      </trkpt>
      <trkpt lat="46.52997" lon="-1.22127">
        <ele>19</ele>
        <time>2021-12-24T13:08:04Z</time>
      </trkpt>
      <trkpt lat="46.52994" lon="-1.2213">
        <ele>19</ele>
        <time>2021-12-24T13:08:05Z</time>
      </trkpt>
      <trkpt lat="46.52989" lon="-1.22138">
        <ele>19.2</ele>
        <time>2021-12-24T13:08:07Z</time>
      </trkpt>
      <trkpt lat="46.52983" lon="-1.22145">
        <ele>19.6</ele>
        <time>2021-12-24T13:08:09Z</time>
      </trkpt>
      <trkpt lat="46.52977" lon="-1.22153">
        <ele>19.8</ele>
        <time>2021-12-24T13:08:11Z</time>
      </trkpt>
      <trkpt lat="46.5297" lon="-1.22161">
        <ele>20</ele>
        <time>2021-12-24T13:08:13Z</time>
      </trkpt>
      <trkpt lat="46.52964" lon="-1.22168">
        <ele>20.4</ele>
        <time>2021-12-24T13:08:15Z</time>
      </trkpt>
      <trkpt lat="46.52957" lon="-1.22175">
        <ele>20.6</ele>
        <time>2021-12-24T13:08:17Z</time>
      </trkpt>
      <trkpt lat="46.52953" lon="-1.22178">
        <ele>20.6</ele>
        <time>2021-12-24T13:08:18Z</time>
      </trkpt>
      <trkpt lat="46.52949" lon="-1.22181">
        <ele>20.8</ele>
        <time>2021-12-24T13:08:19Z</time>
      </trkpt>
      <trkpt lat="46.52941" lon="-1.22187">
        <ele>21</ele>
        <time>2021-12-24T13:08:21Z</time>
      </trkpt>
      <trkpt lat="46.52934" lon="-1.22194">
        <ele>21.2</ele>
        <time>2021-12-24T13:08:23Z</time>
      </trkpt>
      <trkpt lat="46.52927" lon="-1.222">
        <ele>21.4</ele>
        <time>2021-12-24T13:08:25Z</time>
      </trkpt>
      <trkpt lat="46.52919" lon="-1.22206">
        <ele>21.6</ele>
        <time>2021-12-24T13:08:27Z</time>
      </trkpt>
      <trkpt lat="46.52912" lon="-1.22212">
        <ele>21.8</ele>
        <time>2021-12-24T13:08:29Z</time>
      </trkpt>
      <trkpt lat="46.52905" lon="-1.22218">
        <ele>22.2</ele>
        <time>2021-12-24T13:08:31Z</time>
      </trkpt>
      <trkpt lat="46.52901" lon="-1.22221">
        <ele>22.2</ele>
        <time>2021-12-24T13:08:32Z</time>
      </trkpt>
      <trkpt lat="46.52898" lon="-1.22224">
        <ele>22.4</ele>
        <time>2021-12-24T13:08:33Z</time>
      </trkpt>
      <trkpt lat="46.52891" lon="-1.2223">
        <ele>22.8</ele>
        <time>2021-12-24T13:08:35Z</time>
      </trkpt>
      <trkpt lat="46.52888" lon="-1.22234">
        <ele>22.8</ele>
        <time>2021-12-24T13:08:36Z</time>
      </trkpt>
      <trkpt lat="46.52885" lon="-1.22237">
        <ele>23</ele>
        <time>2021-12-24T13:08:37Z</time>
      </trkpt>
      <trkpt lat="46.52882" lon="-1.2224">
        <ele>23.2</ele>
        <time>2021-12-24T13:08:38Z</time>
      </trkpt>
      <trkpt lat="46.52879" lon="-1.22242">
        <ele>23.2</ele>
        <time>2021-12-24T13:08:39Z</time>
      </trkpt>
      <trkpt lat="46.52871" lon="-1.22248">
        <ele>23.6</ele>
        <time>2021-12-24T13:08:41Z</time>
      </trkpt>
      <trkpt lat="46.52863" lon="-1.22254">
        <ele>23.8</ele>
        <time>2021-12-24T13:08:43Z</time>
      </trkpt>
      <trkpt lat="46.52859" lon="-1.22256">
        <ele>24</ele>
        <time>2021-12-24T13:08:44Z</time>
      </trkpt>
      <trkpt lat="46.52855" lon="-1.22259">
        <ele>24.2</ele>
        <time>2021-12-24T13:08:45Z</time>
      </trkpt>
      <trkpt lat="46.52847" lon="-1.22264">
        <ele>24.4</ele>
        <time>2021-12-24T13:08:47Z</time>
      </trkpt>
      <trkpt lat="46.52839" lon="-1.22268">
        <ele>24.8</ele>
        <time>2021-12-24T13:08:49Z</time>
      </trkpt>
      <trkpt lat="46.52836" lon="-1.2227">
        <ele>24.8</ele>
        <time>2021-12-24T13:08:50Z</time>
      </trkpt>
      <trkpt lat="46.52832" lon="-1.22272">
        <ele>25</ele>
        <time>2021-12-24T13:08:51Z</time>
      </trkpt>
      <trkpt lat="46.52825" lon="-1.22275">
        <ele>25.2</ele>
        <time>2021-12-24T13:08:53Z</time>
      </trkpt>
      <trkpt lat="46.52819" lon="-1.22278">
        <ele>25.6</ele>
        <time>2021-12-24T13:08:55Z</time>
      </trkpt>
      <trkpt lat="46.52812" lon="-1.2228">
        <ele>25.8</ele>
        <time>2021-12-24T13:08:57Z</time>
      </trkpt>
      <trkpt lat="46.52805" lon="-1.22282">
        <ele>26</ele>
        <time>2021-12-24T13:08:59Z</time>
      </trkpt>
      <trkpt lat="46.52798" lon="-1.22284">
        <ele>26.4</ele>
        <time>2021-12-24T13:09:01Z</time>
      </trkpt>
      <trkpt lat="46.52792" lon="-1.22286">
        <ele>26.6</ele>
        <time>2021-12-24T13:09:03Z</time>
      </trkpt>
      <trkpt lat="46.52788" lon="-1.22287">
        <ele>26.6</ele>
        <time>2021-12-24T13:09:04Z</time>
      </trkpt>
      <trkpt lat="46.52785" lon="-1.22288">
        <ele>26.8</ele>
        <time>2021-12-24T13:09:05Z</time>
      </trkpt>
      <trkpt lat="46.52779" lon="-1.22288">
        <ele>27</ele>
        <time>2021-12-24T13:09:07Z</time>
      </trkpt>
      <trkpt lat="46.52772" lon="-1.2229">
        <ele>27.2</ele>
        <time>2021-12-24T13:09:09Z</time>
      </trkpt>
      <trkpt lat="46.52766" lon="-1.22291">
        <ele>27.4</ele>
        <time>2021-12-24T13:09:11Z</time>
      </trkpt>
      <trkpt lat="46.52762" lon="-1.22292">
        <ele>27.6</ele>
        <time>2021-12-24T13:09:12Z</time>
      </trkpt>
      <trkpt lat="46.52759" lon="-1.22292">
        <ele>27.8</ele>
        <time>2021-12-24T13:09:13Z</time>
      </trkpt>
      <trkpt lat="46.52753" lon="-1.22293">
        <ele>28</ele>
        <time>2021-12-24T13:09:15Z</time>
      </trkpt>
      <trkpt lat="46.52747" lon="-1.22294">
        <ele>28.2</ele>
        <time>2021-12-24T13:09:17Z</time>
      </trkpt>
      <trkpt lat="46.5274" lon="-1.22296">
        <ele>28.4</ele>
        <time>2021-12-24T13:09:19Z</time>
      </trkpt>
      <trkpt lat="46.52734" lon="-1.22298">
        <ele>28.8</ele>
        <time>2021-12-24T13:09:21Z</time>
      </trkpt>
      <trkpt lat="46.52728" lon="-1.22301">
        <ele>29</ele>
        <time>2021-12-24T13:09:23Z</time>
      </trkpt>
      <trkpt lat="46.52723" lon="-1.22306">
        <ele>29.4</ele>
        <time>2021-12-24T13:09:25Z</time>
      </trkpt>
      <trkpt lat="46.52718" lon="-1.2231">
        <ele>29.6</ele>
        <time>2021-12-24T13:09:27Z</time>
      </trkpt>
      <trkpt lat="46.52714" lon="-1.22314">
        <ele>29.8</ele>
        <time>2021-12-24T13:09:29Z</time>
      </trkpt>
      <trkpt lat="46.52712" lon="-1.22315">
        <ele>29.8</ele>
        <time>2021-12-24T13:09:30Z</time>
      </trkpt>
      <trkpt lat="46.5271" lon="-1.22314">
        <ele>30</ele>
        <time>2021-12-24T13:09:31Z</time>
      </trkpt>
      <trkpt lat="46.52707" lon="-1.22306">
        <ele>30.2</ele>
        <time>2021-12-24T13:09:33Z</time>
      </trkpt>
      <trkpt lat="46.52702" lon="-1.22298">
        <ele>30.4</ele>
        <time>2021-12-24T13:09:35Z</time>
      </trkpt>
      <trkpt lat="46.52697" lon="-1.22289">
        <ele>30.6</ele>
        <time>2021-12-24T13:09:37Z</time>
      </trkpt>
      <trkpt lat="46.52691" lon="-1.22278">
        <ele>30.8</ele>
        <time>2021-12-24T13:09:39Z</time>
      </trkpt>
      <trkpt lat="46.52684" lon="-1.22265">
        <ele>30.8</ele>
        <time>2021-12-24T13:09:41Z</time>
      </trkpt>
      <trkpt lat="46.52677" lon="-1.22251">
        <ele>31</ele>
        <time>2021-12-24T13:09:43Z</time>
      </trkpt>
      <trkpt lat="46.52671" lon="-1.22235">
        <ele>31</ele>
        <time>2021-12-24T13:09:45Z</time>
      </trkpt>
      <trkpt lat="46.52664" lon="-1.22219">
        <ele>31</ele>
        <time>2021-12-24T13:09:47Z</time>
      </trkpt>
      <trkpt lat="46.52656" lon="-1.22201">
        <ele>31.2</ele>
        <time>2021-12-24T13:09:49Z</time>
      </trkpt>
      <trkpt lat="46.52646" lon="-1.22184">
        <ele>31.2</ele>
        <time>2021-12-24T13:09:51Z</time>
      </trkpt>
      <trkpt lat="46.52634" lon="-1.22169">
        <ele>31.2</ele>
        <time>2021-12-24T13:09:53Z</time>
      </trkpt>
      <trkpt lat="46.5262" lon="-1.22154">
        <ele>31.2</ele>
        <time>2021-12-24T13:09:55Z</time>
      </trkpt>
      <trkpt lat="46.52612" lon="-1.22147">
        <ele>31.2</ele>
        <time>2021-12-24T13:09:56Z</time>
      </trkpt>
      <trkpt lat="46.52604" lon="-1.2214">
        <ele>31.2</ele>
        <time>2021-12-24T13:09:57Z</time>
      </trkpt>
      <trkpt lat="46.5259" lon="-1.22126">
        <ele>31</ele>
        <time>2021-12-24T13:09:59Z</time>
      </trkpt>
      <trkpt lat="46.52575" lon="-1.22111">
        <ele>31</ele>
        <time>2021-12-24T13:10:01Z</time>
      </trkpt>
      <trkpt lat="46.52562" lon="-1.22096">
        <ele>30.8</ele>
        <time>2021-12-24T13:10:03Z</time>
      </trkpt>
      <trkpt lat="46.52556" lon="-1.22087">
        <ele>30.4</ele>
        <time>2021-12-24T13:10:04Z</time>
      </trkpt>
      <trkpt lat="46.5255" lon="-1.22079">
        <ele>30.6</ele>
        <time>2021-12-24T13:10:05Z</time>
      </trkpt>
      <trkpt lat="46.52538" lon="-1.22061">
        <ele>30</ele>
        <time>2021-12-24T13:10:07Z</time>
      </trkpt>
      <trkpt lat="46.52525" lon="-1.22041">
        <ele>29.4</ele>
        <time>2021-12-24T13:10:09Z</time>
      </trkpt>
      <trkpt lat="46.52518" lon="-1.22032">
        <ele>29.2</ele>
        <time>2021-12-24T13:10:10Z</time>
      </trkpt>
      <trkpt lat="46.52511" lon="-1.22023">
        <ele>29</ele>
        <time>2021-12-24T13:10:11Z</time>
      </trkpt>
      <trkpt lat="46.52496" lon="-1.22006">
        <ele>28.8</ele>
        <time>2021-12-24T13:10:13Z</time>
      </trkpt>
      <trkpt lat="46.5248" lon="-1.2199">
        <ele>28.4</ele>
        <time>2021-12-24T13:10:15Z</time>
      </trkpt>
      <trkpt lat="46.52462" lon="-1.21975">
        <ele>28.2</ele>
        <time>2021-12-24T13:10:17Z</time>
      </trkpt>
      <trkpt lat="46.52446" lon="-1.2196">
        <ele>28</ele>
        <time>2021-12-24T13:10:19Z</time>
      </trkpt>
      <trkpt lat="46.52431" lon="-1.21944">
        <ele>28</ele>
        <time>2021-12-24T13:10:21Z</time>
      </trkpt>
      <trkpt lat="46.52416" lon="-1.21929">
        <ele>27.8</ele>
        <time>2021-12-24T13:10:23Z</time>
      </trkpt>
      <trkpt lat="46.52401" lon="-1.21914">
        <ele>27.6</ele>
        <time>2021-12-24T13:10:25Z</time>
      </trkpt>
      <trkpt lat="46.52387" lon="-1.219">
        <ele>27.4</ele>
        <time>2021-12-24T13:10:27Z</time>
      </trkpt>
      <trkpt lat="46.52374" lon="-1.21887">
        <ele>27.2</ele>
        <time>2021-12-24T13:10:29Z</time>
      </trkpt>
      <trkpt lat="46.52361" lon="-1.21874">
        <ele>27</ele>
        <time>2021-12-24T13:10:31Z</time>
      </trkpt>
      <trkpt lat="46.52349" lon="-1.21861">
        <ele>26.8</ele>
        <time>2021-12-24T13:10:33Z</time>
      </trkpt>
      <trkpt lat="46.52343" lon="-1.21854">
        <ele>26.6</ele>
        <time>2021-12-24T13:10:34Z</time>
      </trkpt>
      <trkpt lat="46.52336" lon="-1.21848">
        <ele>26.6</ele>
        <time>2021-12-24T13:10:35Z</time>
      </trkpt>
      <trkpt lat="46.52325" lon="-1.21835">
        <ele>26.4</ele>
        <time>2021-12-24T13:10:37Z</time>
      </trkpt>
      <trkpt lat="46.52314" lon="-1.21822">
        <ele>26</ele>
        <time>2021-12-24T13:10:39Z</time>
      </trkpt>
      <trkpt lat="46.52303" lon="-1.21808">
        <ele>25.8</ele>
        <time>2021-12-24T13:10:41Z</time>
      </trkpt>
      <trkpt lat="46.52293" lon="-1.21795">
        <ele>25.6</ele>
        <time>2021-12-24T13:10:43Z</time>
      </trkpt>
      <trkpt lat="46.52284" lon="-1.21782">
        <ele>25.4</ele>
        <time>2021-12-24T13:10:45Z</time>
      </trkpt>
      <trkpt lat="46.52274" lon="-1.2177">
        <ele>25.2</ele>
        <time>2021-12-24T13:10:47Z</time>
      </trkpt>
      <trkpt lat="46.52269" lon="-1.21764">
        <ele>25.2</ele>
        <time>2021-12-24T13:10:48Z</time>
      </trkpt>
      <trkpt lat="46.52264" lon="-1.21758">
        <ele>25</ele>
        <time>2021-12-24T13:10:49Z</time>
      </trkpt>
      <trkpt lat="46.52255" lon="-1.21747">
        <ele>25</ele>
        <time>2021-12-24T13:10:51Z</time>
      </trkpt>
      <trkpt lat="46.52246" lon="-1.21735">
        <ele>25</ele>
        <time>2021-12-24T13:10:53Z</time>
      </trkpt>
      <trkpt lat="46.52242" lon="-1.21729">
        <ele>24.8</ele>
        <time>2021-12-24T13:10:54Z</time>
      </trkpt>
      <trkpt lat="46.52237" lon="-1.21724">
        <ele>24.8</ele>
        <time>2021-12-24T13:10:55Z</time>
      </trkpt>
      <trkpt lat="46.52229" lon="-1.21713">
        <ele>24.6</ele>
        <time>2021-12-24T13:10:57Z</time>
      </trkpt>
      <trkpt lat="46.5222" lon="-1.21701">
        <ele>24.6</ele>
        <time>2021-12-24T13:10:59Z</time>
      </trkpt>
      <trkpt lat="46.52212" lon="-1.2169">
        <ele>24.4</ele>
        <time>2021-12-24T13:11:01Z</time>
      </trkpt>
      <trkpt lat="46.52204" lon="-1.2168">
        <ele>24.4</ele>
        <time>2021-12-24T13:11:03Z</time>
      </trkpt>
      <trkpt lat="46.52195" lon="-1.2167">
        <ele>24.2</ele>
        <time>2021-12-24T13:11:05Z</time>
      </trkpt>
      <trkpt lat="46.52186" lon="-1.21661">
        <ele>24.2</ele>
        <time>2021-12-24T13:11:07Z</time>
      </trkpt>
      <trkpt lat="46.52177" lon="-1.21652">
        <ele>24.2</ele>
        <time>2021-12-24T13:11:09Z</time>
      </trkpt>
      <trkpt lat="46.52169" lon="-1.21643">
        <ele>24.2</ele>
        <time>2021-12-24T13:11:11Z</time>
      </trkpt>
      <trkpt lat="46.5216" lon="-1.21635">
        <ele>24.2</ele>
        <time>2021-12-24T13:11:13Z</time>
      </trkpt>
      <trkpt lat="46.52151" lon="-1.21626">
        <ele>24</ele>
        <time>2021-12-24T13:11:15Z</time>
      </trkpt>
      <trkpt lat="46.52143" lon="-1.21619">
        <ele>24</ele>
        <time>2021-12-24T13:11:17Z</time>
      </trkpt>
      <trkpt lat="46.52135" lon="-1.21611">
        <ele>24</ele>
        <time>2021-12-24T13:11:19Z</time>
      </trkpt>
      <trkpt lat="46.52128" lon="-1.21604">
        <ele>24.2</ele>
        <time>2021-12-24T13:11:21Z</time>
      </trkpt>
      <trkpt lat="46.52121" lon="-1.21596">
        <ele>24.2</ele>
        <time>2021-12-24T13:11:23Z</time>
      </trkpt>
      <trkpt lat="46.52113" lon="-1.21589">
        <ele>24.2</ele>
        <time>2021-12-24T13:11:25Z</time>
      </trkpt>
      <trkpt lat="46.52106" lon="-1.21582">
        <ele>24.2</ele>
        <time>2021-12-24T13:11:27Z</time>
      </trkpt>
      <trkpt lat="46.52099" lon="-1.21575">
        <ele>24</ele>
        <time>2021-12-24T13:11:29Z</time>
      </trkpt>
      <trkpt lat="46.52095" lon="-1.21571">
        <ele>24</ele>
        <time>2021-12-24T13:11:30Z</time>
      </trkpt>
      <trkpt lat="46.52091" lon="-1.21568">
        <ele>24</ele>
        <time>2021-12-24T13:11:31Z</time>
      </trkpt>
      <trkpt lat="46.52084" lon="-1.21561">
        <ele>23.8</ele>
        <time>2021-12-24T13:11:33Z</time>
      </trkpt>
      <trkpt lat="46.52076" lon="-1.21554">
        <ele>24</ele>
        <time>2021-12-24T13:11:35Z</time>
      </trkpt>
      <trkpt lat="46.52069" lon="-1.21546">
        <ele>24.2</ele>
        <time>2021-12-24T13:11:37Z</time>
      </trkpt>
      <trkpt lat="46.52062" lon="-1.21539">
        <ele>24.2</ele>
        <time>2021-12-24T13:11:39Z</time>
      </trkpt>
      <trkpt lat="46.52056" lon="-1.21532">
        <ele>24.2</ele>
        <time>2021-12-24T13:11:41Z</time>
      </trkpt>
      <trkpt lat="46.5205" lon="-1.21526">
        <ele>24.2</ele>
        <time>2021-12-24T13:11:43Z</time>
      </trkpt>
      <trkpt lat="46.52047" lon="-1.21524">
        <ele>24.2</ele>
        <time>2021-12-24T13:11:44Z</time>
      </trkpt>
      <trkpt lat="46.52044" lon="-1.21521">
        <ele>24.4</ele>
        <time>2021-12-24T13:11:45Z</time>
      </trkpt>
      <trkpt lat="46.52038" lon="-1.21515">
        <ele>24.4</ele>
        <time>2021-12-24T13:11:47Z</time>
      </trkpt>
      <trkpt lat="46.52032" lon="-1.21509">
        <ele>24.4</ele>
        <time>2021-12-24T13:11:49Z</time>
      </trkpt>
      <trkpt lat="46.52026" lon="-1.21504">
        <ele>24.6</ele>
        <time>2021-12-24T13:11:51Z</time>
      </trkpt>
      <trkpt lat="46.52021" lon="-1.21498">
        <ele>24.6</ele>
        <time>2021-12-24T13:11:53Z</time>
      </trkpt>
      <trkpt lat="46.52015" lon="-1.21493">
        <ele>24.6</ele>
        <time>2021-12-24T13:11:55Z</time>
      </trkpt>
      <trkpt lat="46.52009" lon="-1.21487">
        <ele>24.8</ele>
        <time>2021-12-24T13:11:57Z</time>
      </trkpt>
      <trkpt lat="46.52003" lon="-1.21481">
        <ele>24.8</ele>
        <time>2021-12-24T13:11:59Z</time>
      </trkpt>
      <trkpt lat="46.51998" lon="-1.21475">
        <ele>24.8</ele>
        <time>2021-12-24T13:12:01Z</time>
      </trkpt>
      <trkpt lat="46.51993" lon="-1.21469">
        <ele>24.8</ele>
        <time>2021-12-24T13:12:03Z</time>
      </trkpt>
      <trkpt lat="46.51989" lon="-1.2146">
        <ele>25</ele>
        <time>2021-12-24T13:12:05Z</time>
      </trkpt>
      <trkpt lat="46.51988" lon="-1.21455">
        <ele>25</ele>
        <time>2021-12-24T13:12:06Z</time>
      </trkpt>
      <trkpt lat="46.51988" lon="-1.2145">
        <ele>25</ele>
        <time>2021-12-24T13:12:07Z</time>
      </trkpt>
      <trkpt lat="46.51991" lon="-1.2144">
        <ele>25.2</ele>
        <time>2021-12-24T13:12:09Z</time>
      </trkpt>
      <trkpt lat="46.51993" lon="-1.2143">
        <ele>25.4</ele>
        <time>2021-12-24T13:12:11Z</time>
      </trkpt>
      <trkpt lat="46.51995" lon="-1.21419">
        <ele>25.6</ele>
        <time>2021-12-24T13:12:13Z</time>
      </trkpt>
      <trkpt lat="46.51998" lon="-1.21408">
        <ele>25.8</ele>
        <time>2021-12-24T13:12:15Z</time>
      </trkpt>
      <trkpt lat="46.52001" lon="-1.21397">
        <ele>26</ele>
        <time>2021-12-24T13:12:17Z</time>
      </trkpt>
      <trkpt lat="46.52002" lon="-1.21391">
        <ele>26</ele>
        <time>2021-12-24T13:12:18Z</time>
      </trkpt>
      <trkpt lat="46.52003" lon="-1.21386">
        <ele>26.2</ele>
        <time>2021-12-24T13:12:19Z</time>
      </trkpt>
      <trkpt lat="46.52005" lon="-1.21374">
        <ele>26.2</ele>
        <time>2021-12-24T13:12:21Z</time>
      </trkpt>
      <trkpt lat="46.52008" lon="-1.21362">
        <ele>26.4</ele>
        <time>2021-12-24T13:12:23Z</time>
      </trkpt>
      <trkpt lat="46.5201" lon="-1.2135">
        <ele>26.4</ele>
        <time>2021-12-24T13:12:25Z</time>
      </trkpt>
      <trkpt lat="46.52012" lon="-1.21338">
        <ele>26.6</ele>
        <time>2021-12-24T13:12:27Z</time>
      </trkpt>
      <trkpt lat="46.52015" lon="-1.21325">
        <ele>26.8</ele>
        <time>2021-12-24T13:12:29Z</time>
      </trkpt>
      <trkpt lat="46.52017" lon="-1.21311">
        <ele>26.8</ele>
        <time>2021-12-24T13:12:31Z</time>
      </trkpt>
      <trkpt lat="46.5202" lon="-1.21297">
        <ele>27</ele>
        <time>2021-12-24T13:12:33Z</time>
      </trkpt>
      <trkpt lat="46.52023" lon="-1.21283">
        <ele>27</ele>
        <time>2021-12-24T13:12:35Z</time>
      </trkpt>
      <trkpt lat="46.52025" lon="-1.21269">
        <ele>27.2</ele>
        <time>2021-12-24T13:12:37Z</time>
      </trkpt>
      <trkpt lat="46.52028" lon="-1.21255">
        <ele>27.2</ele>
        <time>2021-12-24T13:12:39Z</time>
      </trkpt>
      <trkpt lat="46.52031" lon="-1.21241">
        <ele>27.4</ele>
        <time>2021-12-24T13:12:41Z</time>
      </trkpt>
      <trkpt lat="46.52033" lon="-1.21234">
        <ele>27.4</ele>
        <time>2021-12-24T13:12:42Z</time>
      </trkpt>
      <trkpt lat="46.52034" lon="-1.21227">
        <ele>27.4</ele>
        <time>2021-12-24T13:12:43Z</time>
      </trkpt>
      <trkpt lat="46.52035" lon="-1.2122">
        <ele>27.6</ele>
        <time>2021-12-24T13:12:44Z</time>
      </trkpt>
      <trkpt lat="46.52033" lon="-1.21212">
        <ele>27.6</ele>
        <time>2021-12-24T13:12:45Z</time>
      </trkpt>
      <trkpt lat="46.52028" lon="-1.21207">
        <ele>27.6</ele>
        <time>2021-12-24T13:12:46Z</time>
      </trkpt>
      <trkpt lat="46.52023" lon="-1.21205">
        <ele>27.6</ele>
        <time>2021-12-24T13:12:47Z</time>
      </trkpt>
      <trkpt lat="46.52017" lon="-1.21203">
        <ele>27.6</ele>
        <time>2021-12-24T13:12:48Z</time>
      </trkpt>
      <trkpt lat="46.52011" lon="-1.21201">
        <ele>27.6</ele>
        <time>2021-12-24T13:12:49Z</time>
      </trkpt>
      <trkpt lat="46.52001" lon="-1.21196">
        <ele>27.8</ele>
        <time>2021-12-24T13:12:51Z</time>
      </trkpt>
      <trkpt lat="46.51989" lon="-1.2119">
        <ele>27.6</ele>
        <time>2021-12-24T13:12:53Z</time>
      </trkpt>
      <trkpt lat="46.51978" lon="-1.21186">
        <ele>27.8</ele>
        <time>2021-12-24T13:12:55Z</time>
      </trkpt>
      <trkpt lat="46.51972" lon="-1.21184">
        <ele>27.8</ele>
        <time>2021-12-24T13:12:56Z</time>
      </trkpt>
      <trkpt lat="46.51966" lon="-1.21183">
        <ele>27.8</ele>
        <time>2021-12-24T13:12:57Z</time>
      </trkpt>
      <trkpt lat="46.51954" lon="-1.2118">
        <ele>27.8</ele>
        <time>2021-12-24T13:12:59Z</time>
      </trkpt>
      <trkpt lat="46.51941" lon="-1.21179">
        <ele>27.8</ele>
        <time>2021-12-24T13:13:01Z</time>
      </trkpt>
      <trkpt lat="46.51927" lon="-1.21179">
        <ele>27.8</ele>
        <time>2021-12-24T13:13:03Z</time>
      </trkpt>
      <trkpt lat="46.51913" lon="-1.21178">
        <ele>27.8</ele>
        <time>2021-12-24T13:13:05Z</time>
      </trkpt>
      <trkpt lat="46.51899" lon="-1.21177">
        <ele>27.8</ele>
        <time>2021-12-24T13:13:07Z</time>
      </trkpt>
      <trkpt lat="46.51885" lon="-1.21177">
        <ele>28</ele>
        <time>2021-12-24T13:13:09Z</time>
      </trkpt>
      <trkpt lat="46.5187" lon="-1.21177">
        <ele>27.8</ele>
        <time>2021-12-24T13:13:11Z</time>
      </trkpt>
      <trkpt lat="46.51855" lon="-1.21177">
        <ele>27.4</ele>
        <time>2021-12-24T13:13:13Z</time>
      </trkpt>
      <trkpt lat="46.5184" lon="-1.21176">
        <ele>27.6</ele>
        <time>2021-12-24T13:13:15Z</time>
      </trkpt>
      <trkpt lat="46.51824" lon="-1.21175">
        <ele>27.4</ele>
        <time>2021-12-24T13:13:17Z</time>
      </trkpt>
      <trkpt lat="46.51808" lon="-1.21174">
        <ele>27.4</ele>
        <time>2021-12-24T13:13:19Z</time>
      </trkpt>
      <trkpt lat="46.51792" lon="-1.21174">
        <ele>27.2</ele>
        <time>2021-12-24T13:13:21Z</time>
      </trkpt>
      <trkpt lat="46.51776" lon="-1.21176">
        <ele>27.2</ele>
        <time>2021-12-24T13:13:23Z</time>
      </trkpt>
      <trkpt lat="46.51768" lon="-1.21179">
        <ele>27.2</ele>
        <time>2021-12-24T13:13:24Z</time>
      </trkpt>
      <trkpt lat="46.5176" lon="-1.21182">
        <ele>27</ele>
        <time>2021-12-24T13:13:25Z</time>
      </trkpt>
      <trkpt lat="46.51752" lon="-1.21186">
        <ele>27</ele>
        <time>2021-12-24T13:13:26Z</time>
      </trkpt>
      <trkpt lat="46.51745" lon="-1.21191">
        <ele>26.8</ele>
        <time>2021-12-24T13:13:27Z</time>
      </trkpt>
      <trkpt lat="46.51731" lon="-1.21203">
        <ele>26.8</ele>
        <time>2021-12-24T13:13:29Z</time>
      </trkpt>
      <trkpt lat="46.51717" lon="-1.21217">
        <ele>26.6</ele>
        <time>2021-12-24T13:13:31Z</time>
      </trkpt>
      <trkpt lat="46.51702" lon="-1.21231">
        <ele>26.4</ele>
        <time>2021-12-24T13:13:33Z</time>
      </trkpt>
      <trkpt lat="46.51688" lon="-1.21245">
        <ele>26.2</ele>
        <time>2021-12-24T13:13:35Z</time>
      </trkpt>
      <trkpt lat="46.51673" lon="-1.2126">
        <ele>26</ele>
        <time>2021-12-24T13:13:37Z</time>
      </trkpt>
      <trkpt lat="46.51657" lon="-1.21276">
        <ele>25.6</ele>
        <time>2021-12-24T13:13:39Z</time>
      </trkpt>
      <trkpt lat="46.51641" lon="-1.2129">
        <ele>25.4</ele>
        <time>2021-12-24T13:13:41Z</time>
      </trkpt>
      <trkpt lat="46.51624" lon="-1.21303">
        <ele>25</ele>
        <time>2021-12-24T13:13:43Z</time>
      </trkpt>
      <trkpt lat="46.51615" lon="-1.2131">
        <ele>24.8</ele>
        <time>2021-12-24T13:13:44Z</time>
      </trkpt>
      <trkpt lat="46.51607" lon="-1.21316">
        <ele>24.8</ele>
        <time>2021-12-24T13:13:45Z</time>
      </trkpt>
      <trkpt lat="46.5159" lon="-1.21329">
        <ele>24.4</ele>
        <time>2021-12-24T13:13:47Z</time>
      </trkpt>
      <trkpt lat="46.51573" lon="-1.21341">
        <ele>24.2</ele>
        <time>2021-12-24T13:13:49Z</time>
      </trkpt>
      <trkpt lat="46.51556" lon="-1.21354">
        <ele>23.8</ele>
        <time>2021-12-24T13:13:51Z</time>
      </trkpt>
      <trkpt lat="46.5154" lon="-1.21366">
        <ele>23.6</ele>
        <time>2021-12-24T13:13:53Z</time>
      </trkpt>
      <trkpt lat="46.51532" lon="-1.21372">
        <ele>23.6</ele>
        <time>2021-12-24T13:13:54Z</time>
      </trkpt>
      <trkpt lat="46.51524" lon="-1.21378">
        <ele>23.4</ele>
        <time>2021-12-24T13:13:55Z</time>
      </trkpt>
      <trkpt lat="46.51509" lon="-1.2139">
        <ele>23.2</ele>
        <time>2021-12-24T13:13:57Z</time>
      </trkpt>
      <trkpt lat="46.51493" lon="-1.21402">
        <ele>23</ele>
        <time>2021-12-24T13:13:59Z</time>
      </trkpt>
      <trkpt lat="46.51477" lon="-1.21414">
        <ele>22.8</ele>
        <time>2021-12-24T13:14:01Z</time>
      </trkpt>
      <trkpt lat="46.5146" lon="-1.21425">
        <ele>22.6</ele>
        <time>2021-12-24T13:14:03Z</time>
      </trkpt>
      <trkpt lat="46.51442" lon="-1.21434">
        <ele>22.4</ele>
        <time>2021-12-24T13:14:05Z</time>
      </trkpt>
      <trkpt lat="46.51433" lon="-1.21438">
        <ele>22.2</ele>
        <time>2021-12-24T13:14:06Z</time>
      </trkpt>
      <trkpt lat="46.51424" lon="-1.21441">
        <ele>22.2</ele>
        <time>2021-12-24T13:14:07Z</time>
      </trkpt>
      <trkpt lat="46.51406" lon="-1.21447">
        <ele>22</ele>
        <time>2021-12-24T13:14:09Z</time>
      </trkpt>
      <trkpt lat="46.51387" lon="-1.21453">
        <ele>21.6</ele>
        <time>2021-12-24T13:14:11Z</time>
      </trkpt>
      <trkpt lat="46.51368" lon="-1.21458">
        <ele>21.2</ele>
        <time>2021-12-24T13:14:13Z</time>
      </trkpt>
      <trkpt lat="46.5135" lon="-1.21463">
        <ele>21</ele>
        <time>2021-12-24T13:14:15Z</time>
      </trkpt>
      <trkpt lat="46.51331" lon="-1.21469">
        <ele>20.6</ele>
        <time>2021-12-24T13:14:17Z</time>
      </trkpt>
      <trkpt lat="46.51312" lon="-1.21474">
        <ele>20.2</ele>
        <time>2021-12-24T13:14:19Z</time>
      </trkpt>
      <trkpt lat="46.51293" lon="-1.2148">
        <ele>19.8</ele>
        <time>2021-12-24T13:14:21Z</time>
      </trkpt>
      <trkpt lat="46.51275" lon="-1.21486">
        <ele>19.4</ele>
        <time>2021-12-24T13:14:23Z</time>
      </trkpt>
      <trkpt lat="46.51257" lon="-1.21492">
        <ele>19</ele>
        <time>2021-12-24T13:14:25Z</time>
      </trkpt>
      <trkpt lat="46.51239" lon="-1.21498">
        <ele>18.8</ele>
        <time>2021-12-24T13:14:27Z</time>
      </trkpt>
      <trkpt lat="46.51222" lon="-1.21505">
        <ele>18.4</ele>
        <time>2021-12-24T13:14:29Z</time>
      </trkpt>
      <trkpt lat="46.51205" lon="-1.21511">
        <ele>18.2</ele>
        <time>2021-12-24T13:14:31Z</time>
      </trkpt>
      <trkpt lat="46.51196" lon="-1.21513">
        <ele>18.2</ele>
        <time>2021-12-24T13:14:32Z</time>
      </trkpt>
      <trkpt lat="46.51188" lon="-1.21516">
        <ele>18</ele>
        <time>2021-12-24T13:14:33Z</time>
      </trkpt>
      <trkpt lat="46.51171" lon="-1.2152">
        <ele>17.8</ele>
        <time>2021-12-24T13:14:35Z</time>
      </trkpt>
      <trkpt lat="46.51154" lon="-1.21523">
        <ele>17.4</ele>
        <time>2021-12-24T13:14:37Z</time>
      </trkpt>
      <trkpt lat="46.51146" lon="-1.21525">
        <ele>17.2</ele>
        <time>2021-12-24T13:14:38Z</time>
      </trkpt>
      <trkpt lat="46.51137" lon="-1.21528">
        <ele>17</ele>
        <time>2021-12-24T13:14:39Z</time>
      </trkpt>
      <trkpt lat="46.5112" lon="-1.21532">
        <ele>16.6</ele>
        <time>2021-12-24T13:14:41Z</time>
      </trkpt>
      <trkpt lat="46.51103" lon="-1.21536">
        <ele>16.4</ele>
        <time>2021-12-24T13:14:43Z</time>
      </trkpt>
      <trkpt lat="46.51085" lon="-1.21541">
        <ele>16</ele>
        <time>2021-12-24T13:14:45Z</time>
      </trkpt>
      <trkpt lat="46.51077" lon="-1.21544">
        <ele>15.8</ele>
        <time>2021-12-24T13:14:46Z</time>
      </trkpt>
      <trkpt lat="46.51068" lon="-1.21546">
        <ele>15.6</ele>
        <time>2021-12-24T13:14:47Z</time>
      </trkpt>
      <trkpt lat="46.51052" lon="-1.21552">
        <ele>15.2</ele>
        <time>2021-12-24T13:14:49Z</time>
      </trkpt>
      <trkpt lat="46.51035" lon="-1.21559">
        <ele>15</ele>
        <time>2021-12-24T13:14:51Z</time>
      </trkpt>
      <trkpt lat="46.5102" lon="-1.21566">
        <ele>14.8</ele>
        <time>2021-12-24T13:14:53Z</time>
      </trkpt>
      <trkpt lat="46.51004" lon="-1.21575">
        <ele>14.4</ele>
        <time>2021-12-24T13:14:55Z</time>
      </trkpt>
      <trkpt lat="46.50989" lon="-1.21584">
        <ele>14.2</ele>
        <time>2021-12-24T13:14:57Z</time>
      </trkpt>
      <trkpt lat="46.50976" lon="-1.21594">
        <ele>14</ele>
        <time>2021-12-24T13:14:59Z</time>
      </trkpt>
      <trkpt lat="46.50964" lon="-1.21604">
        <ele>13.8</ele>
        <time>2021-12-24T13:15:01Z</time>
      </trkpt>
      <trkpt lat="46.50952" lon="-1.21614">
        <ele>13.6</ele>
        <time>2021-12-24T13:15:03Z</time>
      </trkpt>
      <trkpt lat="46.5094" lon="-1.21624">
        <ele>13.4</ele>
        <time>2021-12-24T13:15:05Z</time>
      </trkpt>
      <trkpt lat="46.50929" lon="-1.21634">
        <ele>13.2</ele>
        <time>2021-12-24T13:15:07Z</time>
      </trkpt>
      <trkpt lat="46.50919" lon="-1.21643">
        <ele>13</ele>
        <time>2021-12-24T13:15:09Z</time>
      </trkpt>
      <trkpt lat="46.5091" lon="-1.21652">
        <ele>13</ele>
        <time>2021-12-24T13:15:11Z</time>
      </trkpt>
      <trkpt lat="46.50901" lon="-1.2166">
        <ele>12.8</ele>
        <time>2021-12-24T13:15:13Z</time>
      </trkpt>
      <trkpt lat="46.50894" lon="-1.21667">
        <ele>12.8</ele>
        <time>2021-12-24T13:15:15Z</time>
      </trkpt>
      <trkpt lat="46.50887" lon="-1.21675">
        <ele>12.8</ele>
        <time>2021-12-24T13:15:17Z</time>
      </trkpt>
      <trkpt lat="46.50882" lon="-1.21681">
        <ele>12.8</ele>
        <time>2021-12-24T13:15:19Z</time>
      </trkpt>
      <trkpt lat="46.50879" lon="-1.21684">
        <ele>12.8</ele>
        <time>2021-12-24T13:15:20Z</time>
      </trkpt>
      <trkpt lat="46.50877" lon="-1.21687">
        <ele>13</ele>
        <time>2021-12-24T13:15:21Z</time>
      </trkpt>
      <trkpt lat="46.50871" lon="-1.21693">
        <ele>12.2</ele>
        <time>2021-12-24T13:15:23Z</time>
      </trkpt>
      <trkpt lat="46.50865" lon="-1.21698">
        <ele>12.4</ele>
        <time>2021-12-24T13:15:25Z</time>
      </trkpt>
      <trkpt lat="46.50862" lon="-1.21701">
        <ele>12.6</ele>
        <time>2021-12-24T13:15:26Z</time>
      </trkpt>
      <trkpt lat="46.50859" lon="-1.21703">
        <ele>12.8</ele>
        <time>2021-12-24T13:15:27Z</time>
      </trkpt>
      <trkpt lat="46.50852" lon="-1.21707">
        <ele>13.2</ele>
        <time>2021-12-24T13:15:29Z</time>
      </trkpt>
      <trkpt lat="46.50846" lon="-1.21709">
        <ele>13.6</ele>
        <time>2021-12-24T13:15:31Z</time>
      </trkpt>
      <trkpt lat="46.50843" lon="-1.2171">
        <ele>13.6</ele>
        <time>2021-12-24T13:15:32Z</time>
      </trkpt>
      <trkpt lat="46.5084" lon="-1.21711">
        <ele>13.4</ele>
        <time>2021-12-24T13:15:33Z</time>
      </trkpt>
      <trkpt lat="46.50833" lon="-1.21713">
        <ele>13.8</ele>
        <time>2021-12-24T13:15:35Z</time>
      </trkpt>
      <trkpt lat="46.50827" lon="-1.21715">
        <ele>13.2</ele>
        <time>2021-12-24T13:15:37Z</time>
      </trkpt>
      <trkpt lat="46.50821" lon="-1.21715">
        <ele>13.4</ele>
        <time>2021-12-24T13:15:39Z</time>
      </trkpt>
      <trkpt lat="46.50818" lon="-1.21715">
        <ele>13.2</ele>
        <time>2021-12-24T13:15:40Z</time>
      </trkpt>
      <trkpt lat="46.50815" lon="-1.21715">
        <ele>13.4</ele>
        <time>2021-12-24T13:15:41Z</time>
      </trkpt>
      <trkpt lat="46.50809" lon="-1.21714">
        <ele>13.4</ele>
        <time>2021-12-24T13:15:43Z</time>
      </trkpt>
      <trkpt lat="46.50803" lon="-1.21714">
        <ele>13.4</ele>
        <time>2021-12-24T13:15:45Z</time>
      </trkpt>
      <trkpt lat="46.50798" lon="-1.21714">
        <ele>13.4</ele>
        <time>2021-12-24T13:15:47Z</time>
      </trkpt>
      <trkpt lat="46.50795" lon="-1.21713">
        <ele>13.4</ele>
        <time>2021-12-24T13:15:48Z</time>
      </trkpt>
      <trkpt lat="46.50792" lon="-1.21712">
        <ele>13.6</ele>
        <time>2021-12-24T13:15:49Z</time>
      </trkpt>
      <trkpt lat="46.50788" lon="-1.21711">
        <ele>13.6</ele>
        <time>2021-12-24T13:15:51Z</time>
      </trkpt>
      <trkpt lat="46.50783" lon="-1.21709">
        <ele>13.6</ele>
        <time>2021-12-24T13:15:53Z</time>
      </trkpt>
      <trkpt lat="46.50781" lon="-1.21708">
        <ele>13.8</ele>
        <time>2021-12-24T13:15:54Z</time>
      </trkpt>
      <trkpt lat="46.50778" lon="-1.21708">
        <ele>13.8</ele>
        <time>2021-12-24T13:15:55Z</time>
      </trkpt>
      <trkpt lat="46.50772" lon="-1.21707">
        <ele>13.8</ele>
        <time>2021-12-24T13:15:57Z</time>
      </trkpt>
      <trkpt lat="46.50766" lon="-1.21705">
        <ele>14</ele>
        <time>2021-12-24T13:15:59Z</time>
      </trkpt>
      <trkpt lat="46.50764" lon="-1.21704">
        <ele>14</ele>
        <time>2021-12-24T13:16:00Z</time>
      </trkpt>
      <trkpt lat="46.50762" lon="-1.21702">
        <ele>14</ele>
        <time>2021-12-24T13:16:01Z</time>
      </trkpt>
      <trkpt lat="46.5076" lon="-1.21698">
        <ele>14.2</ele>
        <time>2021-12-24T13:16:03Z</time>
      </trkpt>
      <trkpt lat="46.50753" lon="-1.21697">
        <ele>14.2</ele>
        <time>2021-12-24T13:16:05Z</time>
      </trkpt>
      <trkpt lat="46.50748" lon="-1.21696">
        <ele>14.4</ele>
        <time>2021-12-24T13:16:07Z</time>
      </trkpt>
      <trkpt lat="46.50743" lon="-1.21693">
        <ele>14.4</ele>
        <time>2021-12-24T13:16:09Z</time>
      </trkpt>
      <trkpt lat="46.50737" lon="-1.21691">
        <ele>14.6</ele>
        <time>2021-12-24T13:16:11Z</time>
      </trkpt>
      <trkpt lat="46.5073" lon="-1.21689">
        <ele>14.6</ele>
        <time>2021-12-24T13:16:13Z</time>
      </trkpt>
      <trkpt lat="46.50726" lon="-1.21687">
        <ele>14.6</ele>
        <time>2021-12-24T13:16:14Z</time>
      </trkpt>
      <trkpt lat="46.50723" lon="-1.21686">
        <ele>14.6</ele>
        <time>2021-12-24T13:16:15Z</time>
      </trkpt>
      <trkpt lat="46.50716" lon="-1.21682">
        <ele>14.8</ele>
        <time>2021-12-24T13:16:17Z</time>
      </trkpt>
      <trkpt lat="46.50708" lon="-1.21679">
        <ele>14.8</ele>
        <time>2021-12-24T13:16:19Z</time>
      </trkpt>
      <trkpt lat="46.50701" lon="-1.21675">
        <ele>15</ele>
        <time>2021-12-24T13:16:21Z</time>
      </trkpt>
      <trkpt lat="46.50694" lon="-1.21671">
        <ele>15</ele>
        <time>2021-12-24T13:16:23Z</time>
      </trkpt>
      <trkpt lat="46.50685" lon="-1.21667">
        <ele>15</ele>
        <time>2021-12-24T13:16:25Z</time>
      </trkpt>
      <trkpt lat="46.50676" lon="-1.21663">
        <ele>15</ele>
        <time>2021-12-24T13:16:27Z</time>
      </trkpt>
      <trkpt lat="46.50672" lon="-1.21661">
        <ele>15</ele>
        <time>2021-12-24T13:16:28Z</time>
      </trkpt>
      <trkpt lat="46.50667" lon="-1.21659">
        <ele>15</ele>
        <time>2021-12-24T13:16:29Z</time>
      </trkpt>
      <trkpt lat="46.50657" lon="-1.21657">
        <ele>15</ele>
        <time>2021-12-24T13:16:31Z</time>
      </trkpt>
      <trkpt lat="46.50647" lon="-1.21655">
        <ele>15.2</ele>
        <time>2021-12-24T13:16:33Z</time>
      </trkpt>
      <trkpt lat="46.50641" lon="-1.21655">
        <ele>15.2</ele>
        <time>2021-12-24T13:16:34Z</time>
      </trkpt>
      <trkpt lat="46.50636" lon="-1.21654">
        <ele>15.2</ele>
        <time>2021-12-24T13:16:35Z</time>
      </trkpt>
      <trkpt lat="46.50625" lon="-1.21654">
        <ele>15.2</ele>
        <time>2021-12-24T13:16:37Z</time>
      </trkpt>
      <trkpt lat="46.50614" lon="-1.21653">
        <ele>15.4</ele>
        <time>2021-12-24T13:16:39Z</time>
      </trkpt>
      <trkpt lat="46.50603" lon="-1.21653">
        <ele>15.4</ele>
        <time>2021-12-24T13:16:41Z</time>
      </trkpt>
      <trkpt lat="46.50597" lon="-1.21653">
        <ele>15.6</ele>
        <time>2021-12-24T13:16:42Z</time>
      </trkpt>
      <trkpt lat="46.50592" lon="-1.21653">
        <ele>15.6</ele>
        <time>2021-12-24T13:16:43Z</time>
      </trkpt>
      <trkpt lat="46.50581" lon="-1.21653">
        <ele>15.8</ele>
        <time>2021-12-24T13:16:45Z</time>
      </trkpt>
      <trkpt lat="46.50571" lon="-1.21653">
        <ele>15.8</ele>
        <time>2021-12-24T13:16:47Z</time>
      </trkpt>
      <trkpt lat="46.5056" lon="-1.21653">
        <ele>16</ele>
        <time>2021-12-24T13:16:49Z</time>
      </trkpt>
      <trkpt lat="46.50549" lon="-1.21653">
        <ele>16</ele>
        <time>2021-12-24T13:16:51Z</time>
      </trkpt>
      <trkpt lat="46.50538" lon="-1.21653">
        <ele>16.2</ele>
        <time>2021-12-24T13:16:53Z</time>
      </trkpt>
      <trkpt lat="46.50527" lon="-1.21653">
        <ele>16.2</ele>
        <time>2021-12-24T13:16:55Z</time>
      </trkpt>
      <trkpt lat="46.50516" lon="-1.21652">
        <ele>16.4</ele>
        <time>2021-12-24T13:16:57Z</time>
      </trkpt>
      <trkpt lat="46.50506" lon="-1.21652">
        <ele>16.4</ele>
        <time>2021-12-24T13:16:59Z</time>
      </trkpt>
      <trkpt lat="46.50496" lon="-1.21651">
        <ele>16.6</ele>
        <time>2021-12-24T13:17:01Z</time>
      </trkpt>
      <trkpt lat="46.50485" lon="-1.21651">
        <ele>16.6</ele>
        <time>2021-12-24T13:17:03Z</time>
      </trkpt>
      <trkpt lat="46.50475" lon="-1.2165">
        <ele>16.8</ele>
        <time>2021-12-24T13:17:05Z</time>
      </trkpt>
      <trkpt lat="46.50465" lon="-1.21649">
        <ele>16.8</ele>
        <time>2021-12-24T13:17:07Z</time>
      </trkpt>
      <trkpt lat="46.50455" lon="-1.21647">
        <ele>17</ele>
        <time>2021-12-24T13:17:09Z</time>
      </trkpt>
      <trkpt lat="46.50444" lon="-1.21645">
        <ele>17</ele>
        <time>2021-12-24T13:17:11Z</time>
      </trkpt>
      <trkpt lat="46.50433" lon="-1.21643">
        <ele>17</ele>
        <time>2021-12-24T13:17:13Z</time>
      </trkpt>
      <trkpt lat="46.50428" lon="-1.21642">
        <ele>17.2</ele>
        <time>2021-12-24T13:17:14Z</time>
      </trkpt>
      <trkpt lat="46.50423" lon="-1.21641">
        <ele>17.2</ele>
        <time>2021-12-24T13:17:15Z</time>
      </trkpt>
      <trkpt lat="46.50413" lon="-1.21639">
        <ele>17.2</ele>
        <time>2021-12-24T13:17:17Z</time>
      </trkpt>
      <trkpt lat="46.50403" lon="-1.21638">
        <ele>17.2</ele>
        <time>2021-12-24T13:17:19Z</time>
      </trkpt>
      <trkpt lat="46.50397" lon="-1.21637">
        <ele>17.2</ele>
        <time>2021-12-24T13:17:20Z</time>
      </trkpt>
      <trkpt lat="46.50392" lon="-1.21636">
        <ele>17.2</ele>
        <time>2021-12-24T13:17:21Z</time>
      </trkpt>
      <trkpt lat="46.50381" lon="-1.21634">
        <ele>17.4</ele>
        <time>2021-12-24T13:17:23Z</time>
      </trkpt>
      <trkpt lat="46.50371" lon="-1.21632">
        <ele>17.4</ele>
        <time>2021-12-24T13:17:25Z</time>
      </trkpt>
      <trkpt lat="46.50361" lon="-1.21631">
        <ele>17.6</ele>
        <time>2021-12-24T13:17:27Z</time>
      </trkpt>
      <trkpt lat="46.5035" lon="-1.21629">
        <ele>17.6</ele>
        <time>2021-12-24T13:17:29Z</time>
      </trkpt>
      <trkpt lat="46.50339" lon="-1.21627">
        <ele>17.8</ele>
        <time>2021-12-24T13:17:31Z</time>
      </trkpt>
      <trkpt lat="46.50329" lon="-1.21625">
        <ele>17.8</ele>
        <time>2021-12-24T13:17:33Z</time>
      </trkpt>
      <trkpt lat="46.50324" lon="-1.21624">
        <ele>17.8</ele>
        <time>2021-12-24T13:17:34Z</time>
      </trkpt>
      <trkpt lat="46.50318" lon="-1.21623">
        <ele>17.8</ele>
        <time>2021-12-24T13:17:35Z</time>
      </trkpt>
      <trkpt lat="46.50307" lon="-1.21621">
        <ele>18</ele>
        <time>2021-12-24T13:17:37Z</time>
      </trkpt>
      <trkpt lat="46.50296" lon="-1.21619">
        <ele>18</ele>
        <time>2021-12-24T13:17:39Z</time>
      </trkpt>
      <trkpt lat="46.50286" lon="-1.21617">
        <ele>18</ele>
        <time>2021-12-24T13:17:41Z</time>
      </trkpt>
      <trkpt lat="46.50275" lon="-1.21616">
        <ele>18</ele>
        <time>2021-12-24T13:17:43Z</time>
      </trkpt>
      <trkpt lat="46.50264" lon="-1.21615">
        <ele>18.2</ele>
        <time>2021-12-24T13:17:45Z</time>
      </trkpt>
      <trkpt lat="46.50254" lon="-1.21613">
        <ele>18.2</ele>
        <time>2021-12-24T13:17:47Z</time>
      </trkpt>
      <trkpt lat="46.50248" lon="-1.21613">
        <ele>18.2</ele>
        <time>2021-12-24T13:17:48Z</time>
      </trkpt>
      <trkpt lat="46.50242" lon="-1.21614">
        <ele>18.4</ele>
        <time>2021-12-24T13:17:49Z</time>
      </trkpt>
      <trkpt lat="46.50237" lon="-1.21615">
        <ele>18.4</ele>
        <time>2021-12-24T13:17:50Z</time>
      </trkpt>
      <trkpt lat="46.50232" lon="-1.21617">
        <ele>18.4</ele>
        <time>2021-12-24T13:17:51Z</time>
      </trkpt>
      <trkpt lat="46.50221" lon="-1.2162">
        <ele>18.4</ele>
        <time>2021-12-24T13:17:53Z</time>
      </trkpt>
      <trkpt lat="46.5021" lon="-1.21623">
        <ele>18.6</ele>
        <time>2021-12-24T13:17:55Z</time>
      </trkpt>
      <trkpt lat="46.50199" lon="-1.21627">
        <ele>18.6</ele>
        <time>2021-12-24T13:17:57Z</time>
      </trkpt>
      <trkpt lat="46.50194" lon="-1.21629">
        <ele>18.6</ele>
        <time>2021-12-24T13:17:58Z</time>
      </trkpt>
      <trkpt lat="46.50188" lon="-1.21631">
        <ele>18.6</ele>
        <time>2021-12-24T13:17:59Z</time>
      </trkpt>
      <trkpt lat="46.50178" lon="-1.21635">
        <ele>18.6</ele>
        <time>2021-12-24T13:18:01Z</time>
      </trkpt>
      <trkpt lat="46.50168" lon="-1.21639">
        <ele>18.8</ele>
        <time>2021-12-24T13:18:03Z</time>
      </trkpt>
      <trkpt lat="46.50156" lon="-1.21643">
        <ele>18.8</ele>
        <time>2021-12-24T13:18:05Z</time>
      </trkpt>
      <trkpt lat="46.50151" lon="-1.21644">
        <ele>18.8</ele>
        <time>2021-12-24T13:18:06Z</time>
      </trkpt>
      <trkpt lat="46.50146" lon="-1.21646">
        <ele>18.8</ele>
        <time>2021-12-24T13:18:07Z</time>
      </trkpt>
      <trkpt lat="46.50135" lon="-1.21649">
        <ele>18.8</ele>
        <time>2021-12-24T13:18:09Z</time>
      </trkpt>
      <trkpt lat="46.50125" lon="-1.21652">
        <ele>18.6</ele>
        <time>2021-12-24T13:18:11Z</time>
      </trkpt>
      <trkpt lat="46.50119" lon="-1.21653">
        <ele>18.6</ele>
        <time>2021-12-24T13:18:12Z</time>
      </trkpt>
      <trkpt lat="46.50114" lon="-1.21655">
        <ele>18.6</ele>
        <time>2021-12-24T13:18:13Z</time>
      </trkpt>
      <trkpt lat="46.50104" lon="-1.21659">
        <ele>19</ele>
        <time>2021-12-24T13:18:15Z</time>
      </trkpt>
      <trkpt lat="46.50093" lon="-1.21663">
        <ele>18.8</ele>
        <time>2021-12-24T13:18:17Z</time>
      </trkpt>
      <trkpt lat="46.50088" lon="-1.21665">
        <ele>18.8</ele>
        <time>2021-12-24T13:18:18Z</time>
      </trkpt>
      <trkpt lat="46.50082" lon="-1.21667">
        <ele>18.8</ele>
        <time>2021-12-24T13:18:19Z</time>
      </trkpt>
      <trkpt lat="46.50072" lon="-1.21671">
        <ele>18.8</ele>
        <time>2021-12-24T13:18:21Z</time>
      </trkpt>
      <trkpt lat="46.50061" lon="-1.21675">
        <ele>18.8</ele>
        <time>2021-12-24T13:18:23Z</time>
      </trkpt>
      <trkpt lat="46.50053" lon="-1.21678">
        <ele>18.8</ele>
        <time>2021-12-24T13:18:25Z</time>
      </trkpt>
      <trkpt lat="46.50047" lon="-1.21678">
        <ele>18.8</ele>
        <time>2021-12-24T13:18:27Z</time>
      </trkpt>
      <trkpt lat="46.50044" lon="-1.21675">
        <ele>18.8</ele>
        <time>2021-12-24T13:18:28Z</time>
      </trkpt>
      <trkpt lat="46.5004" lon="-1.21671">
        <ele>18.8</ele>
        <time>2021-12-24T13:18:29Z</time>
      </trkpt>
      <trkpt lat="46.50035" lon="-1.2166">
        <ele>18.8</ele>
        <time>2021-12-24T13:18:31Z</time>
      </trkpt>
      <trkpt lat="46.50032" lon="-1.21655">
        <ele>18.8</ele>
        <time>2021-12-24T13:18:32Z</time>
      </trkpt>
      <trkpt lat="46.50029" lon="-1.2165">
        <ele>18.8</ele>
        <time>2021-12-24T13:18:33Z</time>
      </trkpt>
      <trkpt lat="46.50023" lon="-1.21642">
        <ele>18.8</ele>
        <time>2021-12-24T13:18:35Z</time>
      </trkpt>
      <trkpt lat="46.50017" lon="-1.21632">
        <ele>18.8</ele>
        <time>2021-12-24T13:18:37Z</time>
      </trkpt>
      <trkpt lat="46.50011" lon="-1.21622">
        <ele>18.8</ele>
        <time>2021-12-24T13:18:39Z</time>
      </trkpt>
      <trkpt lat="46.50008" lon="-1.21617">
        <ele>18.8</ele>
        <time>2021-12-24T13:18:40Z</time>
      </trkpt>
      <trkpt lat="46.50005" lon="-1.21612">
        <ele>18.8</ele>
        <time>2021-12-24T13:18:41Z</time>
      </trkpt>
      <trkpt lat="46.5" lon="-1.21603">
        <ele>18.6</ele>
        <time>2021-12-24T13:18:43Z</time>
      </trkpt>
      <trkpt lat="46.49993" lon="-1.21593">
        <ele>18.6</ele>
        <time>2021-12-24T13:18:45Z</time>
      </trkpt>
      <trkpt lat="46.49987" lon="-1.21582">
        <ele>18.4</ele>
        <time>2021-12-24T13:18:47Z</time>
      </trkpt>
      <trkpt lat="46.49981" lon="-1.21572">
        <ele>18.4</ele>
        <time>2021-12-24T13:18:49Z</time>
      </trkpt>
      <trkpt lat="46.49975" lon="-1.21561">
        <ele>18.4</ele>
        <time>2021-12-24T13:18:51Z</time>
      </trkpt>
      <trkpt lat="46.49968" lon="-1.2155">
        <ele>18.4</ele>
        <time>2021-12-24T13:18:53Z</time>
      </trkpt>
      <trkpt lat="46.49962" lon="-1.21539">
        <ele>18.4</ele>
        <time>2021-12-24T13:18:55Z</time>
      </trkpt>
      <trkpt lat="46.49955" lon="-1.21527">
        <ele>18.4</ele>
        <time>2021-12-24T13:18:57Z</time>
      </trkpt>
      <trkpt lat="46.49948" lon="-1.21515">
        <ele>18.4</ele>
        <time>2021-12-24T13:18:59Z</time>
      </trkpt>
      <trkpt lat="46.49941" lon="-1.21501">
        <ele>18.4</ele>
        <time>2021-12-24T13:19:01Z</time>
      </trkpt>
      <trkpt lat="46.49935" lon="-1.21487">
        <ele>18.4</ele>
        <time>2021-12-24T13:19:03Z</time>
      </trkpt>
      <trkpt lat="46.49931" lon="-1.2148">
        <ele>18.4</ele>
        <time>2021-12-24T13:19:04Z</time>
      </trkpt>
      <trkpt lat="46.49928" lon="-1.21472">
        <ele>18.4</ele>
        <time>2021-12-24T13:19:05Z</time>
      </trkpt>
      <trkpt lat="46.49921" lon="-1.21457">
        <ele>18.4</ele>
        <time>2021-12-24T13:19:07Z</time>
      </trkpt>
      <trkpt lat="46.49915" lon="-1.21442">
        <ele>18.4</ele>
        <time>2021-12-24T13:19:09Z</time>
      </trkpt>
      <trkpt lat="46.49908" lon="-1.21425">
        <ele>18.4</ele>
        <time>2021-12-24T13:19:11Z</time>
      </trkpt>
      <trkpt lat="46.49902" lon="-1.21409">
        <ele>18.4</ele>
        <time>2021-12-24T13:19:13Z</time>
      </trkpt>
      <trkpt lat="46.49895" lon="-1.21393">
        <ele>18.4</ele>
        <time>2021-12-24T13:19:15Z</time>
      </trkpt>
      <trkpt lat="46.49888" lon="-1.21377">
        <ele>18.2</ele>
        <time>2021-12-24T13:19:17Z</time>
      </trkpt>
      <trkpt lat="46.49882" lon="-1.21362">
        <ele>18.2</ele>
        <time>2021-12-24T13:19:19Z</time>
      </trkpt>
      <trkpt lat="46.49875" lon="-1.21347">
        <ele>18.2</ele>
        <time>2021-12-24T13:19:21Z</time>
      </trkpt>
      <trkpt lat="46.49871" lon="-1.21341">
        <ele>18.2</ele>
        <time>2021-12-24T13:19:22Z</time>
      </trkpt>
      <trkpt lat="46.49867" lon="-1.21334">
        <ele>18.2</ele>
        <time>2021-12-24T13:19:23Z</time>
      </trkpt>
      <trkpt lat="46.4986" lon="-1.21321">
        <ele>18.4</ele>
        <time>2021-12-24T13:19:25Z</time>
      </trkpt>
      <trkpt lat="46.49852" lon="-1.21309">
        <ele>18.2</ele>
        <time>2021-12-24T13:19:27Z</time>
      </trkpt>
      <trkpt lat="46.49848" lon="-1.21303">
        <ele>18.4</ele>
        <time>2021-12-24T13:19:28Z</time>
      </trkpt>
      <trkpt lat="46.49843" lon="-1.21298">
        <ele>18.2</ele>
        <time>2021-12-24T13:19:29Z</time>
      </trkpt>
      <trkpt lat="46.49835" lon="-1.21287">
        <ele>18.4</ele>
        <time>2021-12-24T13:19:31Z</time>
      </trkpt>
      <trkpt lat="46.49827" lon="-1.21276">
        <ele>18.4</ele>
        <time>2021-12-24T13:19:33Z</time>
      </trkpt>
      <trkpt lat="46.49819" lon="-1.21266">
        <ele>18.2</ele>
        <time>2021-12-24T13:19:35Z</time>
      </trkpt>
      <trkpt lat="46.49814" lon="-1.21261">
        <ele>18.4</ele>
        <time>2021-12-24T13:19:36Z</time>
      </trkpt>
      <trkpt lat="46.4981" lon="-1.21256">
        <ele>18.4</ele>
        <time>2021-12-24T13:19:37Z</time>
      </trkpt>
      <trkpt lat="46.49801" lon="-1.21246">
        <ele>18.4</ele>
        <time>2021-12-24T13:19:39Z</time>
      </trkpt>
      <trkpt lat="46.49793" lon="-1.21236">
        <ele>18.4</ele>
        <time>2021-12-24T13:19:41Z</time>
      </trkpt>
      <trkpt lat="46.49784" lon="-1.21227">
        <ele>18.4</ele>
        <time>2021-12-24T13:19:43Z</time>
      </trkpt>
      <trkpt lat="46.49777" lon="-1.21217">
        <ele>18.4</ele>
        <time>2021-12-24T13:19:45Z</time>
      </trkpt>
      <trkpt lat="46.49769" lon="-1.21206">
        <ele>18.6</ele>
        <time>2021-12-24T13:19:47Z</time>
      </trkpt>
      <trkpt lat="46.49761" lon="-1.21195">
        <ele>18.6</ele>
        <time>2021-12-24T13:19:49Z</time>
      </trkpt>
      <trkpt lat="46.49753" lon="-1.21185">
        <ele>18.6</ele>
        <time>2021-12-24T13:19:51Z</time>
      </trkpt>
      <trkpt lat="46.49745" lon="-1.21173">
        <ele>18.6</ele>
        <time>2021-12-24T13:19:53Z</time>
      </trkpt>
      <trkpt lat="46.49738" lon="-1.21161">
        <ele>18.6</ele>
        <time>2021-12-24T13:19:55Z</time>
      </trkpt>
      <trkpt lat="46.4973" lon="-1.21149">
        <ele>18.6</ele>
        <time>2021-12-24T13:19:57Z</time>
      </trkpt>
      <trkpt lat="46.49722" lon="-1.21137">
        <ele>18.6</ele>
        <time>2021-12-24T13:19:59Z</time>
      </trkpt>
      <trkpt lat="46.49718" lon="-1.2113">
        <ele>18.6</ele>
        <time>2021-12-24T13:20:00Z</time>
      </trkpt>
      <trkpt lat="46.49714" lon="-1.21123">
        <ele>18.6</ele>
        <time>2021-12-24T13:20:01Z</time>
      </trkpt>
      <trkpt lat="46.49706" lon="-1.2111">
        <ele>18.6</ele>
        <time>2021-12-24T13:20:03Z</time>
      </trkpt>
      <trkpt lat="46.49698" lon="-1.21097">
        <ele>18.6</ele>
        <time>2021-12-24T13:20:05Z</time>
      </trkpt>
      <trkpt lat="46.49691" lon="-1.21084">
        <ele>18.6</ele>
        <time>2021-12-24T13:20:07Z</time>
      </trkpt>
      <trkpt lat="46.49682" lon="-1.21071">
        <ele>18.6</ele>
        <time>2021-12-24T13:20:09Z</time>
      </trkpt>
      <trkpt lat="46.49678" lon="-1.21064">
        <ele>18.6</ele>
        <time>2021-12-24T13:20:10Z</time>
      </trkpt>
      <trkpt lat="46.49674" lon="-1.21058">
        <ele>18.6</ele>
        <time>2021-12-24T13:20:11Z</time>
      </trkpt>
      <trkpt lat="46.49666" lon="-1.21045">
        <ele>18.6</ele>
        <time>2021-12-24T13:20:13Z</time>
      </trkpt>
      <trkpt lat="46.49659" lon="-1.21032">
        <ele>18.8</ele>
        <time>2021-12-24T13:20:15Z</time>
      </trkpt>
      <trkpt lat="46.49651" lon="-1.2102">
        <ele>18.8</ele>
        <time>2021-12-24T13:20:17Z</time>
      </trkpt>
      <trkpt lat="46.49643" lon="-1.21007">
        <ele>18.8</ele>
        <time>2021-12-24T13:20:19Z</time>
      </trkpt>
      <trkpt lat="46.49636" lon="-1.20995">
        <ele>19</ele>
        <time>2021-12-24T13:20:21Z</time>
      </trkpt>
      <trkpt lat="46.49628" lon="-1.20984">
        <ele>19</ele>
        <time>2021-12-24T13:20:23Z</time>
      </trkpt>
      <trkpt lat="46.4962" lon="-1.20973">
        <ele>19</ele>
        <time>2021-12-24T13:20:25Z</time>
      </trkpt>
      <trkpt lat="46.49612" lon="-1.20962">
        <ele>19</ele>
        <time>2021-12-24T13:20:27Z</time>
      </trkpt>
      <trkpt lat="46.49604" lon="-1.20952">
        <ele>19</ele>
        <time>2021-12-24T13:20:29Z</time>
      </trkpt>
      <trkpt lat="46.49596" lon="-1.20942">
        <ele>19.2</ele>
        <time>2021-12-24T13:20:31Z</time>
      </trkpt>
      <trkpt lat="46.49588" lon="-1.20931">
        <ele>19.2</ele>
        <time>2021-12-24T13:20:33Z</time>
      </trkpt>
      <trkpt lat="46.4958" lon="-1.20922">
        <ele>19.4</ele>
        <time>2021-12-24T13:20:35Z</time>
      </trkpt>
      <trkpt lat="46.49572" lon="-1.20912">
        <ele>19.4</ele>
        <time>2021-12-24T13:20:37Z</time>
      </trkpt>
      <trkpt lat="46.49565" lon="-1.20902">
        <ele>19.4</ele>
        <time>2021-12-24T13:20:39Z</time>
      </trkpt>
      <trkpt lat="46.49557" lon="-1.20894">
        <ele>19.6</ele>
        <time>2021-12-24T13:20:41Z</time>
      </trkpt>
      <trkpt lat="46.4955" lon="-1.20885">
        <ele>19.6</ele>
        <time>2021-12-24T13:20:43Z</time>
      </trkpt>
      <trkpt lat="46.49543" lon="-1.20876">
        <ele>19.8</ele>
        <time>2021-12-24T13:20:45Z</time>
      </trkpt>
      <trkpt lat="46.49536" lon="-1.20867">
        <ele>19.8</ele>
        <time>2021-12-24T13:20:47Z</time>
      </trkpt>
      <trkpt lat="46.49529" lon="-1.20859">
        <ele>20</ele>
        <time>2021-12-24T13:20:49Z</time>
      </trkpt>
      <trkpt lat="46.49521" lon="-1.2085">
        <ele>20</ele>
        <time>2021-12-24T13:20:51Z</time>
      </trkpt>
      <trkpt lat="46.49514" lon="-1.2084">
        <ele>20</ele>
        <time>2021-12-24T13:20:53Z</time>
      </trkpt>
      <trkpt lat="46.49506" lon="-1.20831">
        <ele>20.2</ele>
        <time>2021-12-24T13:20:55Z</time>
      </trkpt>
      <trkpt lat="46.49498" lon="-1.20822">
        <ele>20.2</ele>
        <time>2021-12-24T13:20:57Z</time>
      </trkpt>
      <trkpt lat="46.49491" lon="-1.20813">
        <ele>20.4</ele>
        <time>2021-12-24T13:20:59Z</time>
      </trkpt>
      <trkpt lat="46.49483" lon="-1.20805">
        <ele>20.4</ele>
        <time>2021-12-24T13:21:01Z</time>
      </trkpt>
      <trkpt lat="46.49474" lon="-1.20797">
        <ele>20.6</ele>
        <time>2021-12-24T13:21:03Z</time>
      </trkpt>
      <trkpt lat="46.49465" lon="-1.20789">
        <ele>20.6</ele>
        <time>2021-12-24T13:21:05Z</time>
      </trkpt>
      <trkpt lat="46.49455" lon="-1.20782">
        <ele>20.8</ele>
        <time>2021-12-24T13:21:07Z</time>
      </trkpt>
      <trkpt lat="46.49445" lon="-1.20775">
        <ele>20.8</ele>
        <time>2021-12-24T13:21:09Z</time>
      </trkpt>
      <trkpt lat="46.49435" lon="-1.20769">
        <ele>20.8</ele>
        <time>2021-12-24T13:21:11Z</time>
      </trkpt>
      <trkpt lat="46.49424" lon="-1.20764">
        <ele>21</ele>
        <time>2021-12-24T13:21:13Z</time>
      </trkpt>
      <trkpt lat="46.49413" lon="-1.20759">
        <ele>21</ele>
        <time>2021-12-24T13:21:15Z</time>
      </trkpt>
      <trkpt lat="46.49403" lon="-1.20754">
        <ele>21</ele>
        <time>2021-12-24T13:21:17Z</time>
      </trkpt>
      <trkpt lat="46.49392" lon="-1.20749">
        <ele>21.2</ele>
        <time>2021-12-24T13:21:19Z</time>
      </trkpt>
      <trkpt lat="46.49382" lon="-1.20745">
        <ele>21.2</ele>
        <time>2021-12-24T13:21:21Z</time>
      </trkpt>
      <trkpt lat="46.49372" lon="-1.20741">
        <ele>21.2</ele>
        <time>2021-12-24T13:21:23Z</time>
      </trkpt>
      <trkpt lat="46.49367" lon="-1.20739">
        <ele>21.2</ele>
        <time>2021-12-24T13:21:24Z</time>
      </trkpt>
      <trkpt lat="46.49362" lon="-1.20738">
        <ele>21.2</ele>
        <time>2021-12-24T13:21:25Z</time>
      </trkpt>
      <trkpt lat="46.49352" lon="-1.20735">
        <ele>21.4</ele>
        <time>2021-12-24T13:21:27Z</time>
      </trkpt>
      <trkpt lat="46.49342" lon="-1.20733">
        <ele>21.4</ele>
        <time>2021-12-24T13:21:29Z</time>
      </trkpt>
      <trkpt lat="46.49333" lon="-1.2073">
        <ele>21.6</ele>
        <time>2021-12-24T13:21:31Z</time>
      </trkpt>
      <trkpt lat="46.49327" lon="-1.20728">
        <ele>21.6</ele>
        <time>2021-12-24T13:21:32Z</time>
      </trkpt>
      <trkpt lat="46.49323" lon="-1.20727">
        <ele>21.6</ele>
        <time>2021-12-24T13:21:33Z</time>
      </trkpt>
      <trkpt lat="46.49313" lon="-1.20725">
        <ele>21.6</ele>
        <time>2021-12-24T13:21:35Z</time>
      </trkpt>
      <trkpt lat="46.49303" lon="-1.20724">
        <ele>21.8</ele>
        <time>2021-12-24T13:21:37Z</time>
      </trkpt>
      <trkpt lat="46.49294" lon="-1.20723">
        <ele>21.8</ele>
        <time>2021-12-24T13:21:39Z</time>
      </trkpt>
      <trkpt lat="46.49289" lon="-1.20723">
        <ele>21.8</ele>
        <time>2021-12-24T13:21:40Z</time>
      </trkpt>
      <trkpt lat="46.49284" lon="-1.20722">
        <ele>22</ele>
        <time>2021-12-24T13:21:41Z</time>
      </trkpt>
      <trkpt lat="46.49276" lon="-1.20722">
        <ele>22</ele>
        <time>2021-12-24T13:21:43Z</time>
      </trkpt>
      <trkpt lat="46.49267" lon="-1.20722">
        <ele>22.2</ele>
        <time>2021-12-24T13:21:45Z</time>
      </trkpt>
      <trkpt lat="46.49259" lon="-1.20722">
        <ele>22.4</ele>
        <time>2021-12-24T13:21:47Z</time>
      </trkpt>
      <trkpt lat="46.49255" lon="-1.20722">
        <ele>22.4</ele>
        <time>2021-12-24T13:21:48Z</time>
      </trkpt>
      <trkpt lat="46.4925" lon="-1.20722">
        <ele>22.4</ele>
        <time>2021-12-24T13:21:49Z</time>
      </trkpt>
      <trkpt lat="46.49242" lon="-1.20722">
        <ele>22.6</ele>
        <time>2021-12-24T13:21:51Z</time>
      </trkpt>
      <trkpt lat="46.49234" lon="-1.20722">
        <ele>22.6</ele>
        <time>2021-12-24T13:21:53Z</time>
      </trkpt>
      <trkpt lat="46.49225" lon="-1.20722">
        <ele>22.6</ele>
        <time>2021-12-24T13:21:55Z</time>
      </trkpt>
      <trkpt lat="46.49221" lon="-1.20722">
        <ele>22.8</ele>
        <time>2021-12-24T13:21:56Z</time>
      </trkpt>
      <trkpt lat="46.49217" lon="-1.20721">
        <ele>22.8</ele>
        <time>2021-12-24T13:21:57Z</time>
      </trkpt>
      <trkpt lat="46.49209" lon="-1.20721">
        <ele>22.8</ele>
        <time>2021-12-24T13:21:59Z</time>
      </trkpt>
      <trkpt lat="46.49202" lon="-1.2072">
        <ele>22.8</ele>
        <time>2021-12-24T13:22:01Z</time>
      </trkpt>
      <trkpt lat="46.49197" lon="-1.20719">
        <ele>22.8</ele>
        <time>2021-12-24T13:22:02Z</time>
      </trkpt>
      <trkpt lat="46.49193" lon="-1.20719">
        <ele>22.6</ele>
        <time>2021-12-24T13:22:03Z</time>
      </trkpt>
      <trkpt lat="46.49184" lon="-1.20716">
        <ele>22.6</ele>
        <time>2021-12-24T13:22:05Z</time>
      </trkpt>
      <trkpt lat="46.49176" lon="-1.20713">
        <ele>23</ele>
        <time>2021-12-24T13:22:07Z</time>
      </trkpt>
      <trkpt lat="46.49169" lon="-1.20709">
        <ele>23</ele>
        <time>2021-12-24T13:22:09Z</time>
      </trkpt>
      <trkpt lat="46.49161" lon="-1.20704">
        <ele>23.2</ele>
        <time>2021-12-24T13:22:11Z</time>
      </trkpt>
      <trkpt lat="46.49154" lon="-1.20699">
        <ele>23.2</ele>
        <time>2021-12-24T13:22:13Z</time>
      </trkpt>
      <trkpt lat="46.49146" lon="-1.20694">
        <ele>23</ele>
        <time>2021-12-24T13:22:15Z</time>
      </trkpt>
      <trkpt lat="46.49142" lon="-1.20692">
        <ele>23.2</ele>
        <time>2021-12-24T13:22:16Z</time>
      </trkpt>
      <trkpt lat="46.49138" lon="-1.20689">
        <ele>23.2</ele>
        <time>2021-12-24T13:22:17Z</time>
      </trkpt>
      <trkpt lat="46.4913" lon="-1.20684">
        <ele>23.2</ele>
        <time>2021-12-24T13:22:19Z</time>
      </trkpt>
      <trkpt lat="46.49122" lon="-1.20679">
        <ele>23.4</ele>
        <time>2021-12-24T13:22:21Z</time>
      </trkpt>
      <trkpt lat="46.49118" lon="-1.20676">
        <ele>23</ele>
        <time>2021-12-24T13:22:22Z</time>
      </trkpt>
      <trkpt lat="46.49114" lon="-1.20673">
        <ele>23</ele>
        <time>2021-12-24T13:22:23Z</time>
      </trkpt>
      <trkpt lat="46.49106" lon="-1.20668">
        <ele>23</ele>
        <time>2021-12-24T13:22:25Z</time>
      </trkpt>
      <trkpt lat="46.49098" lon="-1.20663">
        <ele>23</ele>
        <time>2021-12-24T13:22:27Z</time>
      </trkpt>
      <trkpt lat="46.4909" lon="-1.20659">
        <ele>23.2</ele>
        <time>2021-12-24T13:22:29Z</time>
      </trkpt>
      <trkpt lat="46.49083" lon="-1.20654">
        <ele>23.2</ele>
        <time>2021-12-24T13:22:31Z</time>
      </trkpt>
      <trkpt lat="46.49079" lon="-1.20652">
        <ele>23.4</ele>
        <time>2021-12-24T13:22:32Z</time>
      </trkpt>
      <trkpt lat="46.49075" lon="-1.20649">
        <ele>23.4</ele>
        <time>2021-12-24T13:22:33Z</time>
      </trkpt>
      <trkpt lat="46.49068" lon="-1.20645">
        <ele>23.4</ele>
        <time>2021-12-24T13:22:35Z</time>
      </trkpt>
      <trkpt lat="46.4906" lon="-1.2064">
        <ele>23.6</ele>
        <time>2021-12-24T13:22:37Z</time>
      </trkpt>
      <trkpt lat="46.49053" lon="-1.20635">
        <ele>23.6</ele>
        <time>2021-12-24T13:22:39Z</time>
      </trkpt>
      <trkpt lat="46.49045" lon="-1.2063">
        <ele>23.6</ele>
        <time>2021-12-24T13:22:41Z</time>
      </trkpt>
      <trkpt lat="46.49038" lon="-1.20625">
        <ele>23.6</ele>
        <time>2021-12-24T13:22:43Z</time>
      </trkpt>
      <trkpt lat="46.4903" lon="-1.20619">
        <ele>23.8</ele>
        <time>2021-12-24T13:22:45Z</time>
      </trkpt>
      <trkpt lat="46.49025" lon="-1.20617">
        <ele>23.8</ele>
        <time>2021-12-24T13:22:46Z</time>
      </trkpt>
      <trkpt lat="46.49021" lon="-1.20614">
        <ele>23.8</ele>
        <time>2021-12-24T13:22:47Z</time>
      </trkpt>
      <trkpt lat="46.49013" lon="-1.20608">
        <ele>23.8</ele>
        <time>2021-12-24T13:22:49Z</time>
      </trkpt>
      <trkpt lat="46.49009" lon="-1.20606">
        <ele>24</ele>
        <time>2021-12-24T13:22:50Z</time>
      </trkpt>
      <trkpt lat="46.49005" lon="-1.20603">
        <ele>24</ele>
        <time>2021-12-24T13:22:51Z</time>
      </trkpt>
      <trkpt lat="46.48996" lon="-1.20597">
        <ele>24</ele>
        <time>2021-12-24T13:22:53Z</time>
      </trkpt>
      <trkpt lat="46.48987" lon="-1.20592">
        <ele>24</ele>
        <time>2021-12-24T13:22:55Z</time>
      </trkpt>
      <trkpt lat="46.48979" lon="-1.20586">
        <ele>24</ele>
        <time>2021-12-24T13:22:57Z</time>
      </trkpt>
      <trkpt lat="46.4897" lon="-1.2058">
        <ele>24.2</ele>
        <time>2021-12-24T13:22:59Z</time>
      </trkpt>
      <trkpt lat="46.48966" lon="-1.20577">
        <ele>24.2</ele>
        <time>2021-12-24T13:23:00Z</time>
      </trkpt>
      <trkpt lat="46.48962" lon="-1.20575">
        <ele>24.2</ele>
        <time>2021-12-24T13:23:01Z</time>
      </trkpt>
      <trkpt lat="46.48954" lon="-1.20568">
        <ele>24.2</ele>
        <time>2021-12-24T13:23:03Z</time>
      </trkpt>
      <trkpt lat="46.48945" lon="-1.20562">
        <ele>24.2</ele>
        <time>2021-12-24T13:23:05Z</time>
      </trkpt>
      <trkpt lat="46.48937" lon="-1.20555">
        <ele>24.4</ele>
        <time>2021-12-24T13:23:07Z</time>
      </trkpt>
      <trkpt lat="46.48933" lon="-1.20551">
        <ele>24.4</ele>
        <time>2021-12-24T13:23:08Z</time>
      </trkpt>
      <trkpt lat="46.48929" lon="-1.20547">
        <ele>24.4</ele>
        <time>2021-12-24T13:23:09Z</time>
      </trkpt>
      <trkpt lat="46.48921" lon="-1.2054">
        <ele>24.4</ele>
        <time>2021-12-24T13:23:11Z</time>
      </trkpt>
      <trkpt lat="46.48913" lon="-1.20531">
        <ele>24.4</ele>
        <time>2021-12-24T13:23:13Z</time>
      </trkpt>
      <trkpt lat="46.48904" lon="-1.20522">
        <ele>24.4</ele>
        <time>2021-12-24T13:23:15Z</time>
      </trkpt>
      <trkpt lat="46.48895" lon="-1.20512">
        <ele>24.4</ele>
        <time>2021-12-24T13:23:17Z</time>
      </trkpt>
      <trkpt lat="46.48887" lon="-1.20503">
        <ele>24.4</ele>
        <time>2021-12-24T13:23:19Z</time>
      </trkpt>
      <trkpt lat="46.48879" lon="-1.20493">
        <ele>24.6</ele>
        <time>2021-12-24T13:23:21Z</time>
      </trkpt>
      <trkpt lat="46.48871" lon="-1.20485">
        <ele>24.6</ele>
        <time>2021-12-24T13:23:23Z</time>
      </trkpt>
      <trkpt lat="46.48863" lon="-1.20477">
        <ele>24.6</ele>
        <time>2021-12-24T13:23:25Z</time>
      </trkpt>
      <trkpt lat="46.48855" lon="-1.20468">
        <ele>24.8</ele>
        <time>2021-12-24T13:23:27Z</time>
      </trkpt>
      <trkpt lat="46.48846" lon="-1.2046">
        <ele>24.8</ele>
        <time>2021-12-24T13:23:29Z</time>
      </trkpt>
      <trkpt lat="46.48842" lon="-1.20455">
        <ele>24.8</ele>
        <time>2021-12-24T13:23:30Z</time>
      </trkpt>
      <trkpt lat="46.48839" lon="-1.20452">
        <ele>24.8</ele>
        <time>2021-12-24T13:23:31Z</time>
      </trkpt>
      <trkpt lat="46.48831" lon="-1.20444">
        <ele>24.8</ele>
        <time>2021-12-24T13:23:33Z</time>
      </trkpt>
      <trkpt lat="46.48823" lon="-1.20438">
        <ele>24.8</ele>
        <time>2021-12-24T13:23:35Z</time>
      </trkpt>
      <trkpt lat="46.48819" lon="-1.20434">
        <ele>24.8</ele>
        <time>2021-12-24T13:23:36Z</time>
      </trkpt>
      <trkpt lat="46.48814" lon="-1.20432">
        <ele>25</ele>
        <time>2021-12-24T13:23:37Z</time>
      </trkpt>
      <trkpt lat="46.48804" lon="-1.20427">
        <ele>25</ele>
        <time>2021-12-24T13:23:39Z</time>
      </trkpt>
      <trkpt lat="46.48794" lon="-1.2042">
        <ele>25.2</ele>
        <time>2021-12-24T13:23:41Z</time>
      </trkpt>
      <trkpt lat="46.48784" lon="-1.20413">
        <ele>25.2</ele>
        <time>2021-12-24T13:23:43Z</time>
      </trkpt>
      <trkpt lat="46.48773" lon="-1.20406">
        <ele>25.2</ele>
        <time>2021-12-24T13:23:45Z</time>
      </trkpt>
      <trkpt lat="46.48763" lon="-1.20398">
        <ele>25</ele>
        <time>2021-12-24T13:23:47Z</time>
      </trkpt>
      <trkpt lat="46.48751" lon="-1.2039">
        <ele>25</ele>
        <time>2021-12-24T13:23:49Z</time>
      </trkpt>
      <trkpt lat="46.48745" lon="-1.20386">
        <ele>25.2</ele>
        <time>2021-12-24T13:23:50Z</time>
      </trkpt>
      <trkpt lat="46.48739" lon="-1.20382">
        <ele>24.8</ele>
        <time>2021-12-24T13:23:51Z</time>
      </trkpt>
      <trkpt lat="46.48727" lon="-1.20374">
        <ele>24.8</ele>
        <time>2021-12-24T13:23:53Z</time>
      </trkpt>
      <trkpt lat="46.48714" lon="-1.20366">
        <ele>24.6</ele>
        <time>2021-12-24T13:23:55Z</time>
      </trkpt>
      <trkpt lat="46.48702" lon="-1.20357">
        <ele>24.4</ele>
        <time>2021-12-24T13:23:57Z</time>
      </trkpt>
      <trkpt lat="46.48696" lon="-1.20353">
        <ele>24.4</ele>
        <time>2021-12-24T13:23:58Z</time>
      </trkpt>
      <trkpt lat="46.4869" lon="-1.20349">
        <ele>24.4</ele>
        <time>2021-12-24T13:23:59Z</time>
      </trkpt>
      <trkpt lat="46.48678" lon="-1.2034">
        <ele>24.2</ele>
        <time>2021-12-24T13:24:01Z</time>
      </trkpt>
      <trkpt lat="46.48665" lon="-1.20333">
        <ele>24.2</ele>
        <time>2021-12-24T13:24:03Z</time>
      </trkpt>
      <trkpt lat="46.48659" lon="-1.20328">
        <ele>24.2</ele>
        <time>2021-12-24T13:24:04Z</time>
      </trkpt>
      <trkpt lat="46.48653" lon="-1.20324">
        <ele>24.2</ele>
        <time>2021-12-24T13:24:05Z</time>
      </trkpt>
      <trkpt lat="46.4864" lon="-1.20316">
        <ele>24.4</ele>
        <time>2021-12-24T13:24:07Z</time>
      </trkpt>
      <trkpt lat="46.48627" lon="-1.20309">
        <ele>24.4</ele>
        <time>2021-12-24T13:24:09Z</time>
      </trkpt>
      <trkpt lat="46.4862" lon="-1.20305">
        <ele>24.4</ele>
        <time>2021-12-24T13:24:10Z</time>
      </trkpt>
      <trkpt lat="46.48614" lon="-1.20302">
        <ele>24</ele>
        <time>2021-12-24T13:24:11Z</time>
      </trkpt>
      <trkpt lat="46.48601" lon="-1.20294">
        <ele>24.4</ele>
        <time>2021-12-24T13:24:13Z</time>
      </trkpt>
      <trkpt lat="46.48589" lon="-1.20286">
        <ele>24.8</ele>
        <time>2021-12-24T13:24:15Z</time>
      </trkpt>
      <trkpt lat="46.48576" lon="-1.20276">
        <ele>24.8</ele>
        <time>2021-12-24T13:24:17Z</time>
      </trkpt>
      <trkpt lat="46.48562" lon="-1.20267">
        <ele>24.8</ele>
        <time>2021-12-24T13:24:19Z</time>
      </trkpt>
      <trkpt lat="46.48549" lon="-1.20256">
        <ele>24.8</ele>
        <time>2021-12-24T13:24:21Z</time>
      </trkpt>
      <trkpt lat="46.48543" lon="-1.2025">
        <ele>25</ele>
        <time>2021-12-24T13:24:22Z</time>
      </trkpt>
      <trkpt lat="46.48537" lon="-1.20244">
        <ele>25</ele>
        <time>2021-12-24T13:24:23Z</time>
      </trkpt>
      <trkpt lat="46.48529" lon="-1.20236">
        <ele>24.8</ele>
        <time>2021-12-24T13:24:25Z</time>
      </trkpt>
      <trkpt lat="46.48518" lon="-1.20224">
        <ele>24.4</ele>
        <time>2021-12-24T13:24:27Z</time>
      </trkpt>
      <trkpt lat="46.48507" lon="-1.20213">
        <ele>24</ele>
        <time>2021-12-24T13:24:29Z</time>
      </trkpt>
      <trkpt lat="46.48495" lon="-1.20204">
        <ele>23.8</ele>
        <time>2021-12-24T13:24:31Z</time>
      </trkpt>
      <trkpt lat="46.48482" lon="-1.20196">
        <ele>23.4</ele>
        <time>2021-12-24T13:24:33Z</time>
      </trkpt>
      <trkpt lat="46.4847" lon="-1.20187">
        <ele>23.2</ele>
        <time>2021-12-24T13:24:35Z</time>
      </trkpt>
      <trkpt lat="46.48458" lon="-1.20178">
        <ele>23.2</ele>
        <time>2021-12-24T13:24:37Z</time>
      </trkpt>
      <trkpt lat="46.48445" lon="-1.20169">
        <ele>23</ele>
        <time>2021-12-24T13:24:39Z</time>
      </trkpt>
      <trkpt lat="46.48432" lon="-1.2016">
        <ele>22.8</ele>
        <time>2021-12-24T13:24:41Z</time>
      </trkpt>
      <trkpt lat="46.48425" lon="-1.20156">
        <ele>22.8</ele>
        <time>2021-12-24T13:24:42Z</time>
      </trkpt>
      <trkpt lat="46.48418" lon="-1.20152">
        <ele>22.8</ele>
        <time>2021-12-24T13:24:43Z</time>
      </trkpt>
      <trkpt lat="46.48412" lon="-1.20148">
        <ele>22.6</ele>
        <time>2021-12-24T13:24:44Z</time>
      </trkpt>
      <trkpt lat="46.48405" lon="-1.20143">
        <ele>22.6</ele>
        <time>2021-12-24T13:24:45Z</time>
      </trkpt>
      <trkpt lat="46.48393" lon="-1.20135">
        <ele>22.4</ele>
        <time>2021-12-24T13:24:47Z</time>
      </trkpt>
      <trkpt lat="46.48381" lon="-1.20125">
        <ele>22.4</ele>
        <time>2021-12-24T13:24:49Z</time>
      </trkpt>
      <trkpt lat="46.4837" lon="-1.20116">
        <ele>22.4</ele>
        <time>2021-12-24T13:24:51Z</time>
      </trkpt>
      <trkpt lat="46.48364" lon="-1.20111">
        <ele>22.2</ele>
        <time>2021-12-24T13:24:52Z</time>
      </trkpt>
      <trkpt lat="46.48358" lon="-1.20106">
        <ele>22.2</ele>
        <time>2021-12-24T13:24:53Z</time>
      </trkpt>
      <trkpt lat="46.48352" lon="-1.20102">
        <ele>22.2</ele>
        <time>2021-12-24T13:24:54Z</time>
      </trkpt>
      <trkpt lat="46.48347" lon="-1.20099">
        <ele>22.2</ele>
        <time>2021-12-24T13:24:55Z</time>
      </trkpt>
      <trkpt lat="46.48334" lon="-1.20093">
        <ele>22</ele>
        <time>2021-12-24T13:24:57Z</time>
      </trkpt>
      <trkpt lat="46.48328" lon="-1.2009">
        <ele>22</ele>
        <time>2021-12-24T13:24:58Z</time>
      </trkpt>
      <trkpt lat="46.48322" lon="-1.20088">
        <ele>21.8</ele>
        <time>2021-12-24T13:24:59Z</time>
      </trkpt>
      <trkpt lat="46.4831" lon="-1.20082">
        <ele>21.6</ele>
        <time>2021-12-24T13:25:01Z</time>
      </trkpt>
      <trkpt lat="46.48297" lon="-1.20077">
        <ele>21.4</ele>
        <time>2021-12-24T13:25:03Z</time>
      </trkpt>
      <trkpt lat="46.48284" lon="-1.20071">
        <ele>21</ele>
        <time>2021-12-24T13:25:05Z</time>
      </trkpt>
      <trkpt lat="46.48272" lon="-1.20065">
        <ele>20.8</ele>
        <time>2021-12-24T13:25:07Z</time>
      </trkpt>
      <trkpt lat="46.4826" lon="-1.20059">
        <ele>20.6</ele>
        <time>2021-12-24T13:25:09Z</time>
      </trkpt>
      <trkpt lat="46.48248" lon="-1.20053">
        <ele>20.4</ele>
        <time>2021-12-24T13:25:11Z</time>
      </trkpt>
      <trkpt lat="46.48235" lon="-1.20048">
        <ele>20.2</ele>
        <time>2021-12-24T13:25:13Z</time>
      </trkpt>
      <trkpt lat="46.48223" lon="-1.20042">
        <ele>20.2</ele>
        <time>2021-12-24T13:25:15Z</time>
      </trkpt>
      <trkpt lat="46.48212" lon="-1.20036">
        <ele>20</ele>
        <time>2021-12-24T13:25:17Z</time>
      </trkpt>
      <trkpt lat="46.48206" lon="-1.20032">
        <ele>20</ele>
        <time>2021-12-24T13:25:18Z</time>
      </trkpt>
      <trkpt lat="46.48201" lon="-1.20028">
        <ele>19.8</ele>
        <time>2021-12-24T13:25:19Z</time>
      </trkpt>
      <trkpt lat="46.4819" lon="-1.20017">
        <ele>19.4</ele>
        <time>2021-12-24T13:25:21Z</time>
      </trkpt>
      <trkpt lat="46.48179" lon="-1.20006">
        <ele>19.2</ele>
        <time>2021-12-24T13:25:23Z</time>
      </trkpt>
      <trkpt lat="46.48169" lon="-1.19994">
        <ele>19</ele>
        <time>2021-12-24T13:25:25Z</time>
      </trkpt>
      <trkpt lat="46.48158" lon="-1.19981">
        <ele>18.6</ele>
        <time>2021-12-24T13:25:27Z</time>
      </trkpt>
      <trkpt lat="46.48148" lon="-1.19969">
        <ele>18.4</ele>
        <time>2021-12-24T13:25:29Z</time>
      </trkpt>
      <trkpt lat="46.48138" lon="-1.19955">
        <ele>18.2</ele>
        <time>2021-12-24T13:25:31Z</time>
      </trkpt>
      <trkpt lat="46.48134" lon="-1.19949">
        <ele>18</ele>
        <time>2021-12-24T13:25:32Z</time>
      </trkpt>
      <trkpt lat="46.48129" lon="-1.19942">
        <ele>18</ele>
        <time>2021-12-24T13:25:33Z</time>
      </trkpt>
      <trkpt lat="46.4812" lon="-1.19929">
        <ele>17.8</ele>
        <time>2021-12-24T13:25:35Z</time>
      </trkpt>
      <trkpt lat="46.4811" lon="-1.19916">
        <ele>17.6</ele>
        <time>2021-12-24T13:25:37Z</time>
      </trkpt>
      <trkpt lat="46.48101" lon="-1.19903">
        <ele>17.4</ele>
        <time>2021-12-24T13:25:39Z</time>
      </trkpt>
      <trkpt lat="46.48091" lon="-1.19891">
        <ele>17.2</ele>
        <time>2021-12-24T13:25:41Z</time>
      </trkpt>
      <trkpt lat="46.48087" lon="-1.19884">
        <ele>17.2</ele>
        <time>2021-12-24T13:25:42Z</time>
      </trkpt>
      <trkpt lat="46.48083" lon="-1.19878">
        <ele>17</ele>
        <time>2021-12-24T13:25:43Z</time>
      </trkpt>
      <trkpt lat="46.48075" lon="-1.19865">
        <ele>16.8</ele>
        <time>2021-12-24T13:25:45Z</time>
      </trkpt>
      <trkpt lat="46.48071" lon="-1.1986">
        <ele>16.8</ele>
        <time>2021-12-24T13:25:46Z</time>
      </trkpt>
      <trkpt lat="46.48068" lon="-1.19857">
        <ele>16.8</ele>
        <time>2021-12-24T13:25:47Z</time>
      </trkpt>
      <trkpt lat="46.48064" lon="-1.19855">
        <ele>16.6</ele>
        <time>2021-12-24T13:25:48Z</time>
      </trkpt>
      <trkpt lat="46.48061" lon="-1.19857">
        <ele>16.8</ele>
        <time>2021-12-24T13:25:49Z</time>
      </trkpt>
      <trkpt lat="46.4806" lon="-1.19862">
        <ele>16.6</ele>
        <time>2021-12-24T13:25:50Z</time>
      </trkpt>
      <trkpt lat="46.48059" lon="-1.19867">
        <ele>16.8</ele>
        <time>2021-12-24T13:25:51Z</time>
      </trkpt>
      <trkpt lat="46.4806" lon="-1.19872">
        <ele>16.6</ele>
        <time>2021-12-24T13:25:52Z</time>
      </trkpt>
      <trkpt lat="46.4806" lon="-1.19877">
        <ele>16.6</ele>
        <time>2021-12-24T13:25:53Z</time>
      </trkpt>
      <trkpt lat="46.48061" lon="-1.19888">
        <ele>16.8</ele>
        <time>2021-12-24T13:25:55Z</time>
      </trkpt>
      <trkpt lat="46.48061" lon="-1.19893">
        <ele>16.8</ele>
        <time>2021-12-24T13:25:56Z</time>
      </trkpt>
      <trkpt lat="46.48061" lon="-1.19899">
        <ele>16.8</ele>
        <time>2021-12-24T13:25:57Z</time>
      </trkpt>
      <trkpt lat="46.48059" lon="-1.19911">
        <ele>16.8</ele>
        <time>2021-12-24T13:25:59Z</time>
      </trkpt>
      <trkpt lat="46.48057" lon="-1.19923">
        <ele>16.8</ele>
        <time>2021-12-24T13:26:01Z</time>
      </trkpt>
      <trkpt lat="46.48055" lon="-1.19929">
        <ele>16.8</ele>
        <time>2021-12-24T13:26:02Z</time>
      </trkpt>
      <trkpt lat="46.48053" lon="-1.19935">
        <ele>16.8</ele>
        <time>2021-12-24T13:26:03Z</time>
      </trkpt>
      <trkpt lat="46.48049" lon="-1.19947">
        <ele>16.2</ele>
        <time>2021-12-24T13:26:05Z</time>
      </trkpt>
      <trkpt lat="46.48047" lon="-1.19953">
        <ele>16.4</ele>
        <time>2021-12-24T13:26:06Z</time>
      </trkpt>
      <trkpt lat="46.48046" lon="-1.19959">
        <ele>16.6</ele>
        <time>2021-12-24T13:26:07Z</time>
      </trkpt>
      <trkpt lat="46.48042" lon="-1.1997">
        <ele>17.2</ele>
        <time>2021-12-24T13:26:09Z</time>
      </trkpt>
      <trkpt lat="46.48037" lon="-1.19983">
        <ele>17</ele>
        <time>2021-12-24T13:26:11Z</time>
      </trkpt>
      <trkpt lat="46.48032" lon="-1.19995">
        <ele>17.2</ele>
        <time>2021-12-24T13:26:13Z</time>
      </trkpt>
      <trkpt lat="46.4803" lon="-1.20001">
        <ele>17.2</ele>
        <time>2021-12-24T13:26:14Z</time>
      </trkpt>
      <trkpt lat="46.48028" lon="-1.20007">
        <ele>17.2</ele>
        <time>2021-12-24T13:26:15Z</time>
      </trkpt>
      <trkpt lat="46.48025" lon="-1.20013">
        <ele>17.2</ele>
        <time>2021-12-24T13:26:16Z</time>
      </trkpt>
      <trkpt lat="46.48022" lon="-1.2002">
        <ele>17.2</ele>
        <time>2021-12-24T13:26:17Z</time>
      </trkpt>
      <trkpt lat="46.48015" lon="-1.20032">
        <ele>17.2</ele>
        <time>2021-12-24T13:26:19Z</time>
      </trkpt>
      <trkpt lat="46.48009" lon="-1.20043">
        <ele>17.4</ele>
        <time>2021-12-24T13:26:21Z</time>
      </trkpt>
      <trkpt lat="46.48002" lon="-1.20053">
        <ele>17.4</ele>
        <time>2021-12-24T13:26:23Z</time>
      </trkpt>
      <trkpt lat="46.47998" lon="-1.20058">
        <ele>17.4</ele>
        <time>2021-12-24T13:26:24Z</time>
      </trkpt>
      <trkpt lat="46.47995" lon="-1.20063">
        <ele>17.4</ele>
        <time>2021-12-24T13:26:25Z</time>
      </trkpt>
      <trkpt lat="46.47991" lon="-1.20068">
        <ele>17.4</ele>
        <time>2021-12-24T13:26:26Z</time>
      </trkpt>
      <trkpt lat="46.47987" lon="-1.20073">
        <ele>17.6</ele>
        <time>2021-12-24T13:26:27Z</time>
      </trkpt>
      <trkpt lat="46.47979" lon="-1.20085">
        <ele>17.6</ele>
        <time>2021-12-24T13:26:29Z</time>
      </trkpt>
      <trkpt lat="46.47972" lon="-1.20097">
        <ele>17.8</ele>
        <time>2021-12-24T13:26:31Z</time>
      </trkpt>
      <trkpt lat="46.47969" lon="-1.20104">
        <ele>17.8</ele>
        <time>2021-12-24T13:26:32Z</time>
      </trkpt>
      <trkpt lat="46.47966" lon="-1.2011">
        <ele>18</ele>
        <time>2021-12-24T13:26:33Z</time>
      </trkpt>
      <trkpt lat="46.4796" lon="-1.20123">
        <ele>18</ele>
        <time>2021-12-24T13:26:35Z</time>
      </trkpt>
      <trkpt lat="46.47955" lon="-1.20137">
        <ele>18</ele>
        <time>2021-12-24T13:26:37Z</time>
      </trkpt>
      <trkpt lat="46.47949" lon="-1.2015">
        <ele>18.2</ele>
        <time>2021-12-24T13:26:39Z</time>
      </trkpt>
      <trkpt lat="46.47946" lon="-1.20157">
        <ele>18.2</ele>
        <time>2021-12-24T13:26:40Z</time>
      </trkpt>
      <trkpt lat="46.47943" lon="-1.20165">
        <ele>18.2</ele>
        <time>2021-12-24T13:26:41Z</time>
      </trkpt>
      <trkpt lat="46.47936" lon="-1.20179">
        <ele>18.2</ele>
        <time>2021-12-24T13:26:43Z</time>
      </trkpt>
      <trkpt lat="46.47929" lon="-1.20192">
        <ele>18.2</ele>
        <time>2021-12-24T13:26:45Z</time>
      </trkpt>
      <trkpt lat="46.47925" lon="-1.20197">
        <ele>18.2</ele>
        <time>2021-12-24T13:26:46Z</time>
      </trkpt>
      <trkpt lat="46.4792" lon="-1.20199">
        <ele>18.2</ele>
        <time>2021-12-24T13:26:47Z</time>
      </trkpt>
      <trkpt lat="46.47915" lon="-1.20199">
        <ele>18.2</ele>
        <time>2021-12-24T13:26:48Z</time>
      </trkpt>
      <trkpt lat="46.47911" lon="-1.20197">
        <ele>18.2</ele>
        <time>2021-12-24T13:26:49Z</time>
      </trkpt>
      <trkpt lat="46.47907" lon="-1.20193">
        <ele>18.2</ele>
        <time>2021-12-24T13:26:50Z</time>
      </trkpt>
      <trkpt lat="46.47904" lon="-1.20188">
        <ele>18.2</ele>
        <time>2021-12-24T13:26:51Z</time>
      </trkpt>
      <trkpt lat="46.47899" lon="-1.20177">
        <ele>18</ele>
        <time>2021-12-24T13:26:53Z</time>
      </trkpt>
      <trkpt lat="46.47893" lon="-1.20164">
        <ele>18.2</ele>
        <time>2021-12-24T13:26:55Z</time>
      </trkpt>
      <trkpt lat="46.47887" lon="-1.20152">
        <ele>17.8</ele>
        <time>2021-12-24T13:26:57Z</time>
      </trkpt>
      <trkpt lat="46.47883" lon="-1.20145">
        <ele>17.6</ele>
        <time>2021-12-24T13:26:58Z</time>
      </trkpt>
      <trkpt lat="46.47879" lon="-1.20139">
        <ele>17.4</ele>
        <time>2021-12-24T13:26:59Z</time>
      </trkpt>
      <trkpt lat="46.47872" lon="-1.20126">
        <ele>17.2</ele>
        <time>2021-12-24T13:27:01Z</time>
      </trkpt>
      <trkpt lat="46.47865" lon="-1.20113">
        <ele>16.8</ele>
        <time>2021-12-24T13:27:03Z</time>
      </trkpt>
      <trkpt lat="46.47858" lon="-1.201">
        <ele>16.6</ele>
        <time>2021-12-24T13:27:05Z</time>
      </trkpt>
      <trkpt lat="46.47855" lon="-1.20094">
        <ele>16.4</ele>
        <time>2021-12-24T13:27:06Z</time>
      </trkpt>
      <trkpt lat="46.47851" lon="-1.20087">
        <ele>16.2</ele>
        <time>2021-12-24T13:27:07Z</time>
      </trkpt>
      <trkpt lat="46.47845" lon="-1.20075">
        <ele>15.8</ele>
        <time>2021-12-24T13:27:09Z</time>
      </trkpt>
      <trkpt lat="46.47839" lon="-1.20063">
        <ele>15.4</ele>
        <time>2021-12-24T13:27:11Z</time>
      </trkpt>
      <trkpt lat="46.47832" lon="-1.20051">
        <ele>15</ele>
        <time>2021-12-24T13:27:13Z</time>
      </trkpt>
      <trkpt lat="46.47825" lon="-1.2004">
        <ele>14.8</ele>
        <time>2021-12-24T13:27:15Z</time>
      </trkpt>
      <trkpt lat="46.47818" lon="-1.20028">
        <ele>14.4</ele>
        <time>2021-12-24T13:27:17Z</time>
      </trkpt>
      <trkpt lat="46.47812" lon="-1.20017">
        <ele>14.2</ele>
        <time>2021-12-24T13:27:19Z</time>
      </trkpt>
      <trkpt lat="46.47805" lon="-1.20006">
        <ele>13.8</ele>
        <time>2021-12-24T13:27:21Z</time>
      </trkpt>
      <trkpt lat="46.47802" lon="-1.20001">
        <ele>13.8</ele>
        <time>2021-12-24T13:27:22Z</time>
      </trkpt>
      <trkpt lat="46.47799" lon="-1.19995">
        <ele>13.6</ele>
        <time>2021-12-24T13:27:23Z</time>
      </trkpt>
      <trkpt lat="46.47793" lon="-1.19984">
        <ele>13.4</ele>
        <time>2021-12-24T13:27:25Z</time>
      </trkpt>
      <trkpt lat="46.47786" lon="-1.19973">
        <ele>13.2</ele>
        <time>2021-12-24T13:27:27Z</time>
      </trkpt>
      <trkpt lat="46.4778" lon="-1.19963">
        <ele>13</ele>
        <time>2021-12-24T13:27:29Z</time>
      </trkpt>
      <trkpt lat="46.47774" lon="-1.19951">
        <ele>12.6</ele>
        <time>2021-12-24T13:27:31Z</time>
      </trkpt>
      <trkpt lat="46.47768" lon="-1.19939">
        <ele>12.4</ele>
        <time>2021-12-24T13:27:33Z</time>
      </trkpt>
      <trkpt lat="46.47761" lon="-1.19927">
        <ele>12.2</ele>
        <time>2021-12-24T13:27:35Z</time>
      </trkpt>
      <trkpt lat="46.47755" lon="-1.19916">
        <ele>11.8</ele>
        <time>2021-12-24T13:27:37Z</time>
      </trkpt>
      <trkpt lat="46.47748" lon="-1.19904">
        <ele>11.6</ele>
        <time>2021-12-24T13:27:39Z</time>
      </trkpt>
      <trkpt lat="46.47742" lon="-1.19893">
        <ele>11.4</ele>
        <time>2021-12-24T13:27:41Z</time>
      </trkpt>
      <trkpt lat="46.47735" lon="-1.19881">
        <ele>11.2</ele>
        <time>2021-12-24T13:27:43Z</time>
      </trkpt>
      <trkpt lat="46.47729" lon="-1.19868">
        <ele>10.8</ele>
        <time>2021-12-24T13:27:45Z</time>
      </trkpt>
      <trkpt lat="46.47723" lon="-1.19857">
        <ele>10.8</ele>
        <time>2021-12-24T13:27:47Z</time>
      </trkpt>
      <trkpt lat="46.47717" lon="-1.19846">
        <ele>10.4</ele>
        <time>2021-12-24T13:27:49Z</time>
      </trkpt>
      <trkpt lat="46.47711" lon="-1.19834">
        <ele>10.2</ele>
        <time>2021-12-24T13:27:51Z</time>
      </trkpt>
      <trkpt lat="46.47704" lon="-1.19822">
        <ele>10</ele>
        <time>2021-12-24T13:27:53Z</time>
      </trkpt>
      <trkpt lat="46.47697" lon="-1.19809">
        <ele>10</ele>
        <time>2021-12-24T13:27:55Z</time>
      </trkpt>
      <trkpt lat="46.4769" lon="-1.19798">
        <ele>9.6</ele>
        <time>2021-12-24T13:27:57Z</time>
      </trkpt>
      <trkpt lat="46.47684" lon="-1.19786">
        <ele>9.4</ele>
        <time>2021-12-24T13:27:59Z</time>
      </trkpt>
      <trkpt lat="46.47678" lon="-1.19774">
        <ele>9</ele>
        <time>2021-12-24T13:28:01Z</time>
      </trkpt>
      <trkpt lat="46.47671" lon="-1.19763">
        <ele>8.8</ele>
        <time>2021-12-24T13:28:03Z</time>
      </trkpt>
      <trkpt lat="46.47664" lon="-1.19751">
        <ele>8.6</ele>
        <time>2021-12-24T13:28:05Z</time>
      </trkpt>
      <trkpt lat="46.47657" lon="-1.19739">
        <ele>8.4</ele>
        <time>2021-12-24T13:28:07Z</time>
      </trkpt>
      <trkpt lat="46.4765" lon="-1.19728">
        <ele>8.2</ele>
        <time>2021-12-24T13:28:09Z</time>
      </trkpt>
      <trkpt lat="46.47643" lon="-1.19716">
        <ele>8</ele>
        <time>2021-12-24T13:28:11Z</time>
      </trkpt>
      <trkpt lat="46.47636" lon="-1.19705">
        <ele>7.6</ele>
        <time>2021-12-24T13:28:13Z</time>
      </trkpt>
      <trkpt lat="46.47629" lon="-1.19695">
        <ele>7.6</ele>
        <time>2021-12-24T13:28:15Z</time>
      </trkpt>
      <trkpt lat="46.47621" lon="-1.19683">
        <ele>7.6</ele>
        <time>2021-12-24T13:28:17Z</time>
      </trkpt>
      <trkpt lat="46.47613" lon="-1.1967">
        <ele>7.6</ele>
        <time>2021-12-24T13:28:19Z</time>
      </trkpt>
      <trkpt lat="46.47606" lon="-1.19656">
        <ele>7.6</ele>
        <time>2021-12-24T13:28:21Z</time>
      </trkpt>
      <trkpt lat="46.47599" lon="-1.19643">
        <ele>7.4</ele>
        <time>2021-12-24T13:28:23Z</time>
      </trkpt>
      <trkpt lat="46.47591" lon="-1.19629">
        <ele>7.4</ele>
        <time>2021-12-24T13:28:25Z</time>
      </trkpt>
      <trkpt lat="46.47583" lon="-1.19616">
        <ele>7.2</ele>
        <time>2021-12-24T13:28:27Z</time>
      </trkpt>
      <trkpt lat="46.47575" lon="-1.19602">
        <ele>7.2</ele>
        <time>2021-12-24T13:28:29Z</time>
      </trkpt>
      <trkpt lat="46.47567" lon="-1.19589">
        <ele>7</ele>
        <time>2021-12-24T13:28:31Z</time>
      </trkpt>
      <trkpt lat="46.47559" lon="-1.19575">
        <ele>7</ele>
        <time>2021-12-24T13:28:33Z</time>
      </trkpt>
      <trkpt lat="46.47555" lon="-1.19568">
        <ele>7</ele>
        <time>2021-12-24T13:28:34Z</time>
      </trkpt>
      <trkpt lat="46.47551" lon="-1.19562">
        <ele>7</ele>
        <time>2021-12-24T13:28:35Z</time>
      </trkpt>
      <trkpt lat="46.47548" lon="-1.19555">
        <ele>6.8</ele>
        <time>2021-12-24T13:28:36Z</time>
      </trkpt>
      <trkpt lat="46.47544" lon="-1.19549">
        <ele>6.8</ele>
        <time>2021-12-24T13:28:37Z</time>
      </trkpt>
      <trkpt lat="46.47536" lon="-1.19535">
        <ele>6.8</ele>
        <time>2021-12-24T13:28:39Z</time>
      </trkpt>
      <trkpt lat="46.47532" lon="-1.19529">
        <ele>6.8</ele>
        <time>2021-12-24T13:28:40Z</time>
      </trkpt>
      <trkpt lat="46.47529" lon="-1.19522">
        <ele>7</ele>
        <time>2021-12-24T13:28:41Z</time>
      </trkpt>
      <trkpt lat="46.47521" lon="-1.19509">
        <ele>7</ele>
        <time>2021-12-24T13:28:43Z</time>
      </trkpt>
      <trkpt lat="46.47514" lon="-1.19496">
        <ele>7</ele>
        <time>2021-12-24T13:28:45Z</time>
      </trkpt>
      <trkpt lat="46.47506" lon="-1.19484">
        <ele>7</ele>
        <time>2021-12-24T13:28:47Z</time>
      </trkpt>
      <trkpt lat="46.47499" lon="-1.19471">
        <ele>6.6</ele>
        <time>2021-12-24T13:28:49Z</time>
      </trkpt>
      <trkpt lat="46.47492" lon="-1.19458">
        <ele>6.8</ele>
        <time>2021-12-24T13:28:51Z</time>
      </trkpt>
      <trkpt lat="46.47484" lon="-1.19446">
        <ele>6.8</ele>
        <time>2021-12-24T13:28:53Z</time>
      </trkpt>
      <trkpt lat="46.47478" lon="-1.19435">
        <ele>6.8</ele>
        <time>2021-12-24T13:28:55Z</time>
      </trkpt>
      <trkpt lat="46.47474" lon="-1.1943">
        <ele>6.8</ele>
        <time>2021-12-24T13:28:56Z</time>
      </trkpt>
      <trkpt lat="46.4747" lon="-1.19428">
        <ele>6.8</ele>
        <time>2021-12-24T13:28:57Z</time>
      </trkpt>
      <trkpt lat="46.47465" lon="-1.19427">
        <ele>7.2</ele>
        <time>2021-12-24T13:28:58Z</time>
      </trkpt>
      <trkpt lat="46.47459" lon="-1.1943">
        <ele>7</ele>
        <time>2021-12-24T13:28:59Z</time>
      </trkpt>
      <trkpt lat="46.47454" lon="-1.19432">
        <ele>7.2</ele>
        <time>2021-12-24T13:29:00Z</time>
      </trkpt>
      <trkpt lat="46.47448" lon="-1.19435">
        <ele>7.2</ele>
        <time>2021-12-24T13:29:01Z</time>
      </trkpt>
      <trkpt lat="46.47437" lon="-1.19441">
        <ele>7.2</ele>
        <time>2021-12-24T13:29:03Z</time>
      </trkpt>
      <trkpt lat="46.47426" lon="-1.19445">
        <ele>7.4</ele>
        <time>2021-12-24T13:29:05Z</time>
      </trkpt>
      <trkpt lat="46.47421" lon="-1.19447">
        <ele>7.4</ele>
        <time>2021-12-24T13:29:06Z</time>
      </trkpt>
      <trkpt lat="46.47416" lon="-1.1945">
        <ele>7.4</ele>
        <time>2021-12-24T13:29:07Z</time>
      </trkpt>
      <trkpt lat="46.47404" lon="-1.19455">
        <ele>7.6</ele>
        <time>2021-12-24T13:29:09Z</time>
      </trkpt>
      <trkpt lat="46.47392" lon="-1.19462">
        <ele>7.4</ele>
        <time>2021-12-24T13:29:11Z</time>
      </trkpt>
      <trkpt lat="46.4738" lon="-1.19468">
        <ele>7.6</ele>
        <time>2021-12-24T13:29:13Z</time>
      </trkpt>
      <trkpt lat="46.47368" lon="-1.19475">
        <ele>7.6</ele>
        <time>2021-12-24T13:29:15Z</time>
      </trkpt>
      <trkpt lat="46.47355" lon="-1.19482">
        <ele>7.6</ele>
        <time>2021-12-24T13:29:17Z</time>
      </trkpt>
      <trkpt lat="46.47342" lon="-1.19488">
        <ele>7.6</ele>
        <time>2021-12-24T13:29:19Z</time>
      </trkpt>
      <trkpt lat="46.47336" lon="-1.1949">
        <ele>7.6</ele>
        <time>2021-12-24T13:29:20Z</time>
      </trkpt>
      <trkpt lat="46.47329" lon="-1.19492">
        <ele>7.8</ele>
        <time>2021-12-24T13:29:21Z</time>
      </trkpt>
      <trkpt lat="46.47315" lon="-1.19496">
        <ele>7.8</ele>
        <time>2021-12-24T13:29:23Z</time>
      </trkpt>
      <trkpt lat="46.47301" lon="-1.19499">
        <ele>7.8</ele>
        <time>2021-12-24T13:29:25Z</time>
      </trkpt>
      <trkpt lat="46.47287" lon="-1.19502">
        <ele>7.8</ele>
        <time>2021-12-24T13:29:27Z</time>
      </trkpt>
      <trkpt lat="46.47272" lon="-1.19505">
        <ele>8</ele>
        <time>2021-12-24T13:29:29Z</time>
      </trkpt>
      <trkpt lat="46.47258" lon="-1.19508">
        <ele>8</ele>
        <time>2021-12-24T13:29:31Z</time>
      </trkpt>
      <trkpt lat="46.47243" lon="-1.19511">
        <ele>8</ele>
        <time>2021-12-24T13:29:33Z</time>
      </trkpt>
      <trkpt lat="46.47236" lon="-1.19513">
        <ele>8</ele>
        <time>2021-12-24T13:29:34Z</time>
      </trkpt>
      <trkpt lat="46.4723" lon="-1.19514">
        <ele>8</ele>
        <time>2021-12-24T13:29:35Z</time>
      </trkpt>
      <trkpt lat="46.47218" lon="-1.19517">
        <ele>8.4</ele>
        <time>2021-12-24T13:29:37Z</time>
      </trkpt>
      <trkpt lat="46.47209" lon="-1.19518">
        <ele>8.4</ele>
        <time>2021-12-24T13:29:39Z</time>
      </trkpt>
      <trkpt lat="46.472" lon="-1.19519">
        <ele>8.6</ele>
        <time>2021-12-24T13:29:41Z</time>
      </trkpt>
      <trkpt lat="46.47196" lon="-1.1952">
        <ele>8.6</ele>
        <time>2021-12-24T13:29:42Z</time>
      </trkpt>
      <trkpt lat="46.47193" lon="-1.1952">
        <ele>8.6</ele>
        <time>2021-12-24T13:29:43Z</time>
      </trkpt>
      <trkpt lat="46.47186" lon="-1.19522">
        <ele>8.8</ele>
        <time>2021-12-24T13:29:45Z</time>
      </trkpt>
      <trkpt lat="46.47179" lon="-1.19523">
        <ele>9</ele>
        <time>2021-12-24T13:29:47Z</time>
      </trkpt>
      <trkpt lat="46.47173" lon="-1.19523">
        <ele>9.2</ele>
        <time>2021-12-24T13:29:49Z</time>
      </trkpt>
      <trkpt lat="46.47167" lon="-1.19525">
        <ele>9.4</ele>
        <time>2021-12-24T13:29:51Z</time>
      </trkpt>
      <trkpt lat="46.47161" lon="-1.19526">
        <ele>9.6</ele>
        <time>2021-12-24T13:29:53Z</time>
      </trkpt>
      <trkpt lat="46.47154" lon="-1.19527">
        <ele>9.6</ele>
        <time>2021-12-24T13:29:55Z</time>
      </trkpt>
      <trkpt lat="46.47148" lon="-1.19528">
        <ele>9.8</ele>
        <time>2021-12-24T13:29:57Z</time>
      </trkpt>
      <trkpt lat="46.47142" lon="-1.1953">
        <ele>9.8</ele>
        <time>2021-12-24T13:29:59Z</time>
      </trkpt>
      <trkpt lat="46.47134" lon="-1.19532">
        <ele>10</ele>
        <time>2021-12-24T13:30:01Z</time>
      </trkpt>
      <trkpt lat="46.47127" lon="-1.19533">
        <ele>10.2</ele>
        <time>2021-12-24T13:30:03Z</time>
      </trkpt>
      <trkpt lat="46.4712" lon="-1.19534">
        <ele>10.2</ele>
        <time>2021-12-24T13:30:05Z</time>
      </trkpt>
      <trkpt lat="46.47113" lon="-1.19536">
        <ele>10.4</ele>
        <time>2021-12-24T13:30:07Z</time>
      </trkpt>
      <trkpt lat="46.47105" lon="-1.19537">
        <ele>10.6</ele>
        <time>2021-12-24T13:30:09Z</time>
      </trkpt>
      <trkpt lat="46.47095" lon="-1.19539">
        <ele>10.6</ele>
        <time>2021-12-24T13:30:11Z</time>
      </trkpt>
      <trkpt lat="46.47084" lon="-1.19541">
        <ele>10.6</ele>
        <time>2021-12-24T13:30:13Z</time>
      </trkpt>
      <trkpt lat="46.47073" lon="-1.19543">
        <ele>10.6</ele>
        <time>2021-12-24T13:30:15Z</time>
      </trkpt>
      <trkpt lat="46.4706" lon="-1.19545">
        <ele>10.6</ele>
        <time>2021-12-24T13:30:17Z</time>
      </trkpt>
      <trkpt lat="46.47045" lon="-1.19548">
        <ele>10.6</ele>
        <time>2021-12-24T13:30:19Z</time>
      </trkpt>
      <trkpt lat="46.47029" lon="-1.19551">
        <ele>10.4</ele>
        <time>2021-12-24T13:30:21Z</time>
      </trkpt>
      <trkpt lat="46.47013" lon="-1.19553">
        <ele>10.6</ele>
        <time>2021-12-24T13:30:23Z</time>
      </trkpt>
      <trkpt lat="46.46997" lon="-1.19554">
        <ele>9.4</ele>
        <time>2021-12-24T13:30:25Z</time>
      </trkpt>
      <trkpt lat="46.46982" lon="-1.19554">
        <ele>10</ele>
        <time>2021-12-24T13:30:27Z</time>
      </trkpt>
      <trkpt lat="46.46974" lon="-1.19554">
        <ele>10</ele>
        <time>2021-12-24T13:30:28Z</time>
      </trkpt>
      <trkpt lat="46.46967" lon="-1.19554">
        <ele>10</ele>
        <time>2021-12-24T13:30:29Z</time>
      </trkpt>
      <trkpt lat="46.46953" lon="-1.19554">
        <ele>10</ele>
        <time>2021-12-24T13:30:31Z</time>
      </trkpt>
      <trkpt lat="46.46939" lon="-1.19553">
        <ele>10</ele>
        <time>2021-12-24T13:30:33Z</time>
      </trkpt>
      <trkpt lat="46.46933" lon="-1.19553">
        <ele>10</ele>
        <time>2021-12-24T13:30:34Z</time>
      </trkpt>
      <trkpt lat="46.46926" lon="-1.19553">
        <ele>10</ele>
        <time>2021-12-24T13:30:35Z</time>
      </trkpt>
      <trkpt lat="46.46913" lon="-1.19554">
        <ele>10</ele>
        <time>2021-12-24T13:30:37Z</time>
      </trkpt>
      <trkpt lat="46.46899" lon="-1.19556">
        <ele>10</ele>
        <time>2021-12-24T13:30:39Z</time>
      </trkpt>
      <trkpt lat="46.46885" lon="-1.19559">
        <ele>10</ele>
        <time>2021-12-24T13:30:41Z</time>
      </trkpt>
      <trkpt lat="46.46878" lon="-1.1956">
        <ele>9.8</ele>
        <time>2021-12-24T13:30:42Z</time>
      </trkpt>
      <trkpt lat="46.46871" lon="-1.19562">
        <ele>10</ele>
        <time>2021-12-24T13:30:43Z</time>
      </trkpt>
      <trkpt lat="46.46857" lon="-1.19566">
        <ele>9.8</ele>
        <time>2021-12-24T13:30:45Z</time>
      </trkpt>
      <trkpt lat="46.46843" lon="-1.19571">
        <ele>9.8</ele>
        <time>2021-12-24T13:30:47Z</time>
      </trkpt>
      <trkpt lat="46.46831" lon="-1.19576">
        <ele>9.6</ele>
        <time>2021-12-24T13:30:49Z</time>
      </trkpt>
      <trkpt lat="46.46825" lon="-1.19579">
        <ele>9.6</ele>
        <time>2021-12-24T13:30:50Z</time>
      </trkpt>
      <trkpt lat="46.46819" lon="-1.19582">
        <ele>9.6</ele>
        <time>2021-12-24T13:30:51Z</time>
      </trkpt>
      <trkpt lat="46.46806" lon="-1.19586">
        <ele>9.6</ele>
        <time>2021-12-24T13:30:53Z</time>
      </trkpt>
      <trkpt lat="46.46796" lon="-1.19582">
        <ele>9.2</ele>
        <time>2021-12-24T13:30:55Z</time>
      </trkpt>
      <trkpt lat="46.46792" lon="-1.19568">
        <ele>9.2</ele>
        <time>2021-12-24T13:30:57Z</time>
      </trkpt>
      <trkpt lat="46.46793" lon="-1.19553">
        <ele>9</ele>
        <time>2021-12-24T13:30:59Z</time>
      </trkpt>
      <trkpt lat="46.46794" lon="-1.19537">
        <ele>9</ele>
        <time>2021-12-24T13:31:01Z</time>
      </trkpt>
      <trkpt lat="46.46793" lon="-1.19522">
        <ele>9</ele>
        <time>2021-12-24T13:31:03Z</time>
      </trkpt>
      <trkpt lat="46.46793" lon="-1.19506">
        <ele>9.2</ele>
        <time>2021-12-24T13:31:05Z</time>
      </trkpt>
      <trkpt lat="46.46792" lon="-1.19498">
        <ele>9.2</ele>
        <time>2021-12-24T13:31:06Z</time>
      </trkpt>
      <trkpt lat="46.4679" lon="-1.1949">
        <ele>9.2</ele>
        <time>2021-12-24T13:31:07Z</time>
      </trkpt>
      <trkpt lat="46.46789" lon="-1.19473">
        <ele>9.2</ele>
        <time>2021-12-24T13:31:09Z</time>
      </trkpt>
      <trkpt lat="46.46787" lon="-1.19457">
        <ele>9</ele>
        <time>2021-12-24T13:31:11Z</time>
      </trkpt>
      <trkpt lat="46.46785" lon="-1.1944">
        <ele>9</ele>
        <time>2021-12-24T13:31:13Z</time>
      </trkpt>
      <trkpt lat="46.46784" lon="-1.19432">
        <ele>9</ele>
        <time>2021-12-24T13:31:14Z</time>
      </trkpt>
      <trkpt lat="46.46783" lon="-1.19424">
        <ele>9</ele>
        <time>2021-12-24T13:31:15Z</time>
      </trkpt>
      <trkpt lat="46.46781" lon="-1.19408">
        <ele>9</ele>
        <time>2021-12-24T13:31:17Z</time>
      </trkpt>
      <trkpt lat="46.46778" lon="-1.19392">
        <ele>8.8</ele>
        <time>2021-12-24T13:31:19Z</time>
      </trkpt>
      <trkpt lat="46.46774" lon="-1.19376">
        <ele>8.8</ele>
        <time>2021-12-24T13:31:21Z</time>
      </trkpt>
      <trkpt lat="46.46771" lon="-1.1936">
        <ele>8.6</ele>
        <time>2021-12-24T13:31:23Z</time>
      </trkpt>
      <trkpt lat="46.46767" lon="-1.19345">
        <ele>8.4</ele>
        <time>2021-12-24T13:31:25Z</time>
      </trkpt>
      <trkpt lat="46.46762" lon="-1.1933">
        <ele>8.4</ele>
        <time>2021-12-24T13:31:27Z</time>
      </trkpt>
      <trkpt lat="46.46758" lon="-1.19315">
        <ele>8.2</ele>
        <time>2021-12-24T13:31:29Z</time>
      </trkpt>
      <trkpt lat="46.46756" lon="-1.19307">
        <ele>8.2</ele>
        <time>2021-12-24T13:31:30Z</time>
      </trkpt>
      <trkpt lat="46.46755" lon="-1.19299">
        <ele>8.2</ele>
        <time>2021-12-24T13:31:31Z</time>
      </trkpt>
      <trkpt lat="46.46751" lon="-1.19284">
        <ele>8.2</ele>
        <time>2021-12-24T13:31:33Z</time>
      </trkpt>
      <trkpt lat="46.46747" lon="-1.19268">
        <ele>8</ele>
        <time>2021-12-24T13:31:35Z</time>
      </trkpt>
      <trkpt lat="46.46742" lon="-1.19253">
        <ele>8</ele>
        <time>2021-12-24T13:31:37Z</time>
      </trkpt>
      <trkpt lat="46.4674" lon="-1.19245">
        <ele>8</ele>
        <time>2021-12-24T13:31:38Z</time>
      </trkpt>
      <trkpt lat="46.46738" lon="-1.19237">
        <ele>8</ele>
        <time>2021-12-24T13:31:39Z</time>
      </trkpt>
      <trkpt lat="46.46733" lon="-1.19222">
        <ele>7.8</ele>
        <time>2021-12-24T13:31:41Z</time>
      </trkpt>
      <trkpt lat="46.46729" lon="-1.19207">
        <ele>7.8</ele>
        <time>2021-12-24T13:31:43Z</time>
      </trkpt>
      <trkpt lat="46.46724" lon="-1.19191">
        <ele>7.8</ele>
        <time>2021-12-24T13:31:45Z</time>
      </trkpt>
      <trkpt lat="46.46721" lon="-1.19175">
        <ele>7.8</ele>
        <time>2021-12-24T13:31:47Z</time>
      </trkpt>
      <trkpt lat="46.46716" lon="-1.1916">
        <ele>7.6</ele>
        <time>2021-12-24T13:31:49Z</time>
      </trkpt>
      <trkpt lat="46.46712" lon="-1.19145">
        <ele>7.6</ele>
        <time>2021-12-24T13:31:51Z</time>
      </trkpt>
      <trkpt lat="46.46708" lon="-1.1913">
        <ele>7.4</ele>
        <time>2021-12-24T13:31:53Z</time>
      </trkpt>
      <trkpt lat="46.46704" lon="-1.19115">
        <ele>7.4</ele>
        <time>2021-12-24T13:31:55Z</time>
      </trkpt>
      <trkpt lat="46.467" lon="-1.191">
        <ele>7.4</ele>
        <time>2021-12-24T13:31:57Z</time>
      </trkpt>
      <trkpt lat="46.46696" lon="-1.19085">
        <ele>7.4</ele>
        <time>2021-12-24T13:31:59Z</time>
      </trkpt>
      <trkpt lat="46.46692" lon="-1.1907">
        <ele>7.2</ele>
        <time>2021-12-24T13:32:01Z</time>
      </trkpt>
      <trkpt lat="46.46687" lon="-1.19054">
        <ele>7.2</ele>
        <time>2021-12-24T13:32:03Z</time>
      </trkpt>
      <trkpt lat="46.46681" lon="-1.1904">
        <ele>7</ele>
        <time>2021-12-24T13:32:05Z</time>
      </trkpt>
      <trkpt lat="46.46676" lon="-1.19025">
        <ele>7</ele>
        <time>2021-12-24T13:32:07Z</time>
      </trkpt>
      <trkpt lat="46.46671" lon="-1.19011">
        <ele>6.8</ele>
        <time>2021-12-24T13:32:09Z</time>
      </trkpt>
      <trkpt lat="46.46667" lon="-1.18997">
        <ele>6.8</ele>
        <time>2021-12-24T13:32:11Z</time>
      </trkpt>
      <trkpt lat="46.46665" lon="-1.1899">
        <ele>6.6</ele>
        <time>2021-12-24T13:32:12Z</time>
      </trkpt>
      <trkpt lat="46.46663" lon="-1.18982">
        <ele>6.6</ele>
        <time>2021-12-24T13:32:13Z</time>
      </trkpt>
      <trkpt lat="46.46658" lon="-1.18968">
        <ele>6.6</ele>
        <time>2021-12-24T13:32:15Z</time>
      </trkpt>
      <trkpt lat="46.46653" lon="-1.18954">
        <ele>6.6</ele>
        <time>2021-12-24T13:32:17Z</time>
      </trkpt>
      <trkpt lat="46.46648" lon="-1.1894">
        <ele>6.6</ele>
        <time>2021-12-24T13:32:19Z</time>
      </trkpt>
      <trkpt lat="46.46644" lon="-1.18927">
        <ele>6.6</ele>
        <time>2021-12-24T13:32:21Z</time>
      </trkpt>
      <trkpt lat="46.4664" lon="-1.18912">
        <ele>6.4</ele>
        <time>2021-12-24T13:32:23Z</time>
      </trkpt>
      <trkpt lat="46.46635" lon="-1.18899">
        <ele>6.4</ele>
        <time>2021-12-24T13:32:25Z</time>
      </trkpt>
      <trkpt lat="46.46633" lon="-1.18892">
        <ele>6.4</ele>
        <time>2021-12-24T13:32:26Z</time>
      </trkpt>
      <trkpt lat="46.4663" lon="-1.18884">
        <ele>6.4</ele>
        <time>2021-12-24T13:32:27Z</time>
      </trkpt>
      <trkpt lat="46.46626" lon="-1.1887">
        <ele>6.2</ele>
        <time>2021-12-24T13:32:29Z</time>
      </trkpt>
      <trkpt lat="46.4662" lon="-1.18857">
        <ele>6.2</ele>
        <time>2021-12-24T13:32:31Z</time>
      </trkpt>
      <trkpt lat="46.46615" lon="-1.18843">
        <ele>6.2</ele>
        <time>2021-12-24T13:32:33Z</time>
      </trkpt>
      <trkpt lat="46.4661" lon="-1.1883">
        <ele>6</ele>
        <time>2021-12-24T13:32:35Z</time>
      </trkpt>
      <trkpt lat="46.46604" lon="-1.18817">
        <ele>6</ele>
        <time>2021-12-24T13:32:37Z</time>
      </trkpt>
      <trkpt lat="46.46599" lon="-1.18804">
        <ele>5.8</ele>
        <time>2021-12-24T13:32:39Z</time>
      </trkpt>
      <trkpt lat="46.46593" lon="-1.18791">
        <ele>5.8</ele>
        <time>2021-12-24T13:32:41Z</time>
      </trkpt>
      <trkpt lat="46.46587" lon="-1.18779">
        <ele>5.6</ele>
        <time>2021-12-24T13:32:43Z</time>
      </trkpt>
      <trkpt lat="46.46582" lon="-1.18766">
        <ele>5.6</ele>
        <time>2021-12-24T13:32:45Z</time>
      </trkpt>
      <trkpt lat="46.46577" lon="-1.18753">
        <ele>5.6</ele>
        <time>2021-12-24T13:32:47Z</time>
      </trkpt>
      <trkpt lat="46.46572" lon="-1.1874">
        <ele>5.6</ele>
        <time>2021-12-24T13:32:49Z</time>
      </trkpt>
      <trkpt lat="46.46567" lon="-1.18727">
        <ele>5.6</ele>
        <time>2021-12-24T13:32:51Z</time>
      </trkpt>
      <trkpt lat="46.4656" lon="-1.18714">
        <ele>5.4</ele>
        <time>2021-12-24T13:32:53Z</time>
      </trkpt>
      <trkpt lat="46.46556" lon="-1.18708">
        <ele>5.4</ele>
        <time>2021-12-24T13:32:54Z</time>
      </trkpt>
      <trkpt lat="46.46553" lon="-1.18701">
        <ele>5.4</ele>
        <time>2021-12-24T13:32:55Z</time>
      </trkpt>
      <trkpt lat="46.46548" lon="-1.18687">
        <ele>5.4</ele>
        <time>2021-12-24T13:32:57Z</time>
      </trkpt>
      <trkpt lat="46.46542" lon="-1.18673">
        <ele>5.2</ele>
        <time>2021-12-24T13:32:59Z</time>
      </trkpt>
      <trkpt lat="46.46536" lon="-1.18659">
        <ele>5.2</ele>
        <time>2021-12-24T13:33:01Z</time>
      </trkpt>
      <trkpt lat="46.4653" lon="-1.18646">
        <ele>5.2</ele>
        <time>2021-12-24T13:33:03Z</time>
      </trkpt>
      <trkpt lat="46.46525" lon="-1.18632">
        <ele>5</ele>
        <time>2021-12-24T13:33:05Z</time>
      </trkpt>
      <trkpt lat="46.46519" lon="-1.18618">
        <ele>5</ele>
        <time>2021-12-24T13:33:07Z</time>
      </trkpt>
      <trkpt lat="46.46515" lon="-1.18605">
        <ele>4.8</ele>
        <time>2021-12-24T13:33:09Z</time>
      </trkpt>
      <trkpt lat="46.4651" lon="-1.18591">
        <ele>4.8</ele>
        <time>2021-12-24T13:33:11Z</time>
      </trkpt>
      <trkpt lat="46.46508" lon="-1.18584">
        <ele>4.8</ele>
        <time>2021-12-24T13:33:12Z</time>
      </trkpt>
      <trkpt lat="46.46505" lon="-1.18577">
        <ele>4.8</ele>
        <time>2021-12-24T13:33:13Z</time>
      </trkpt>
      <trkpt lat="46.465" lon="-1.18563">
        <ele>4.6</ele>
        <time>2021-12-24T13:33:15Z</time>
      </trkpt>
      <trkpt lat="46.46495" lon="-1.18548">
        <ele>4.6</ele>
        <time>2021-12-24T13:33:17Z</time>
      </trkpt>
      <trkpt lat="46.4649" lon="-1.18533">
        <ele>4.6</ele>
        <time>2021-12-24T13:33:19Z</time>
      </trkpt>
      <trkpt lat="46.46485" lon="-1.18519">
        <ele>4.4</ele>
        <time>2021-12-24T13:33:21Z</time>
      </trkpt>
      <trkpt lat="46.46482" lon="-1.18503">
        <ele>4.4</ele>
        <time>2021-12-24T13:33:23Z</time>
      </trkpt>
      <trkpt lat="46.46478" lon="-1.18488">
        <ele>4.4</ele>
        <time>2021-12-24T13:33:25Z</time>
      </trkpt>
      <trkpt lat="46.46476" lon="-1.1848">
        <ele>4.2</ele>
        <time>2021-12-24T13:33:26Z</time>
      </trkpt>
      <trkpt lat="46.46474" lon="-1.18473">
        <ele>4.2</ele>
        <time>2021-12-24T13:33:27Z</time>
      </trkpt>
      <trkpt lat="46.46472" lon="-1.18456">
        <ele>4.2</ele>
        <time>2021-12-24T13:33:29Z</time>
      </trkpt>
      <trkpt lat="46.46471" lon="-1.18439">
        <ele>4.2</ele>
        <time>2021-12-24T13:33:31Z</time>
      </trkpt>
      <trkpt lat="46.46471" lon="-1.1843">
        <ele>4</ele>
        <time>2021-12-24T13:33:32Z</time>
      </trkpt>
      <trkpt lat="46.4647" lon="-1.18423">
        <ele>4</ele>
        <time>2021-12-24T13:33:33Z</time>
      </trkpt>
      <trkpt lat="46.46469" lon="-1.18406">
        <ele>3.8</ele>
        <time>2021-12-24T13:33:35Z</time>
      </trkpt>
      <trkpt lat="46.46469" lon="-1.1839">
        <ele>3.8</ele>
        <time>2021-12-24T13:33:37Z</time>
      </trkpt>
      <trkpt lat="46.46469" lon="-1.18373">
        <ele>3.6</ele>
        <time>2021-12-24T13:33:39Z</time>
      </trkpt>
      <trkpt lat="46.4647" lon="-1.18356">
        <ele>3.4</ele>
        <time>2021-12-24T13:33:41Z</time>
      </trkpt>
      <trkpt lat="46.4647" lon="-1.18338">
        <ele>3.2</ele>
        <time>2021-12-24T13:33:43Z</time>
      </trkpt>
      <trkpt lat="46.46471" lon="-1.18321">
        <ele>3.2</ele>
        <time>2021-12-24T13:33:45Z</time>
      </trkpt>
      <trkpt lat="46.46471" lon="-1.18311">
        <ele>3</ele>
        <time>2021-12-24T13:33:46Z</time>
      </trkpt>
      <trkpt lat="46.46471" lon="-1.18303">
        <ele>3</ele>
        <time>2021-12-24T13:33:47Z</time>
      </trkpt>
      <trkpt lat="46.46472" lon="-1.18284">
        <ele>2.8</ele>
        <time>2021-12-24T13:33:49Z</time>
      </trkpt>
      <trkpt lat="46.46473" lon="-1.18265">
        <ele>2.8</ele>
        <time>2021-12-24T13:33:51Z</time>
      </trkpt>
      <trkpt lat="46.46473" lon="-1.18246">
        <ele>2.6</ele>
        <time>2021-12-24T13:33:53Z</time>
      </trkpt>
      <trkpt lat="46.46474" lon="-1.18228">
        <ele>2.4</ele>
        <time>2021-12-24T13:33:55Z</time>
      </trkpt>
      <trkpt lat="46.46475" lon="-1.1821">
        <ele>2.4</ele>
        <time>2021-12-24T13:33:57Z</time>
      </trkpt>
      <trkpt lat="46.46477" lon="-1.18192">
        <ele>2.4</ele>
        <time>2021-12-24T13:33:59Z</time>
      </trkpt>
      <trkpt lat="46.46477" lon="-1.18183">
        <ele>2.4</ele>
        <time>2021-12-24T13:34:00Z</time>
      </trkpt>
      <trkpt lat="46.46477" lon="-1.18175">
        <ele>2.4</ele>
        <time>2021-12-24T13:34:01Z</time>
      </trkpt>
      <trkpt lat="46.46478" lon="-1.1816">
        <ele>2.4</ele>
        <time>2021-12-24T13:34:03Z</time>
      </trkpt>
      <trkpt lat="46.46478" lon="-1.18145">
        <ele>2.4</ele>
        <time>2021-12-24T13:34:05Z</time>
      </trkpt>
      <trkpt lat="46.46479" lon="-1.18131">
        <ele>2.4</ele>
        <time>2021-12-24T13:34:07Z</time>
      </trkpt>
      <trkpt lat="46.46479" lon="-1.18124">
        <ele>2.6</ele>
        <time>2021-12-24T13:34:08Z</time>
      </trkpt>
      <trkpt lat="46.4648" lon="-1.18118">
        <ele>2.6</ele>
        <time>2021-12-24T13:34:09Z</time>
      </trkpt>
      <trkpt lat="46.4648" lon="-1.18104">
        <ele>2.4</ele>
        <time>2021-12-24T13:34:11Z</time>
      </trkpt>
      <trkpt lat="46.46481" lon="-1.18092">
        <ele>2.8</ele>
        <time>2021-12-24T13:34:13Z</time>
      </trkpt>
      <trkpt lat="46.46481" lon="-1.18085">
        <ele>3.2</ele>
        <time>2021-12-24T13:34:14Z</time>
      </trkpt>
      <trkpt lat="46.46482" lon="-1.18079">
        <ele>2.8</ele>
        <time>2021-12-24T13:34:15Z</time>
      </trkpt>
      <trkpt lat="46.46482" lon="-1.18072">
        <ele>2.8</ele>
        <time>2021-12-24T13:34:16Z</time>
      </trkpt>
      <trkpt lat="46.46483" lon="-1.18067">
        <ele>3</ele>
        <time>2021-12-24T13:34:17Z</time>
      </trkpt>
      <trkpt lat="46.46487" lon="-1.18055">
        <ele>3</ele>
        <time>2021-12-24T13:34:19Z</time>
      </trkpt>
      <trkpt lat="46.46488" lon="-1.1805">
        <ele>3</ele>
        <time>2021-12-24T13:34:20Z</time>
      </trkpt>
      <trkpt lat="46.4649" lon="-1.18044">
        <ele>3</ele>
        <time>2021-12-24T13:34:21Z</time>
      </trkpt>
      <trkpt lat="46.46493" lon="-1.18032">
        <ele>3</ele>
        <time>2021-12-24T13:34:23Z</time>
      </trkpt>
      <trkpt lat="46.46494" lon="-1.1802">
        <ele>3.2</ele>
        <time>2021-12-24T13:34:25Z</time>
      </trkpt>
      <trkpt lat="46.46491" lon="-1.18016">
        <ele>3.2</ele>
        <time>2021-12-24T13:34:26Z</time>
      </trkpt>
      <trkpt lat="46.46487" lon="-1.18013">
        <ele>3</ele>
        <time>2021-12-24T13:34:27Z</time>
      </trkpt>
      <trkpt lat="46.46483" lon="-1.18012">
        <ele>3</ele>
        <time>2021-12-24T13:34:28Z</time>
      </trkpt>
      <trkpt lat="46.46479" lon="-1.18011">
        <ele>3</ele>
        <time>2021-12-24T13:34:29Z</time>
      </trkpt>
      <trkpt lat="46.46472" lon="-1.1801">
        <ele>3</ele>
        <time>2021-12-24T13:34:31Z</time>
      </trkpt>
      <trkpt lat="46.46464" lon="-1.18009">
        <ele>3</ele>
        <time>2021-12-24T13:34:33Z</time>
      </trkpt>
      <trkpt lat="46.46459" lon="-1.18009">
        <ele>3</ele>
        <time>2021-12-24T13:34:34Z</time>
      </trkpt>
      <trkpt lat="46.46455" lon="-1.18009">
        <ele>3</ele>
        <time>2021-12-24T13:34:35Z</time>
      </trkpt>
      <trkpt lat="46.46451" lon="-1.18011">
        <ele>3</ele>
        <time>2021-12-24T13:34:36Z</time>
      </trkpt>
      <trkpt lat="46.46447" lon="-1.18012">
        <ele>3</ele>
        <time>2021-12-24T13:34:37Z</time>
      </trkpt>
      <trkpt lat="46.46443" lon="-1.18014">
        <ele>3</ele>
        <time>2021-12-24T13:34:38Z</time>
      </trkpt>
      <trkpt lat="46.46438" lon="-1.18016">
        <ele>3</ele>
        <time>2021-12-24T13:34:39Z</time>
      </trkpt>
      <trkpt lat="46.46429" lon="-1.18021">
        <ele>3</ele>
        <time>2021-12-24T13:34:41Z</time>
      </trkpt>
      <trkpt lat="46.4642" lon="-1.18026">
        <ele>3</ele>
        <time>2021-12-24T13:34:43Z</time>
      </trkpt>
      <trkpt lat="46.46415" lon="-1.18028">
        <ele>3</ele>
        <time>2021-12-24T13:34:44Z</time>
      </trkpt>
      <trkpt lat="46.4641" lon="-1.18029">
        <ele>3</ele>
        <time>2021-12-24T13:34:45Z</time>
      </trkpt>
      <trkpt lat="46.46399" lon="-1.18031">
        <ele>3</ele>
        <time>2021-12-24T13:34:47Z</time>
      </trkpt>
      <trkpt lat="46.46388" lon="-1.18033">
        <ele>3</ele>
        <time>2021-12-24T13:34:49Z</time>
      </trkpt>
      <trkpt lat="46.46377" lon="-1.18036">
        <ele>3</ele>
        <time>2021-12-24T13:34:51Z</time>
      </trkpt>
      <trkpt lat="46.46367" lon="-1.18039">
        <ele>3</ele>
        <time>2021-12-24T13:34:53Z</time>
      </trkpt>
      <trkpt lat="46.46355" lon="-1.18042">
        <ele>3.2</ele>
        <time>2021-12-24T13:34:55Z</time>
      </trkpt>
      <trkpt lat="46.46344" lon="-1.18044">
        <ele>3</ele>
        <time>2021-12-24T13:34:57Z</time>
      </trkpt>
      <trkpt lat="46.46332" lon="-1.18047">
        <ele>3</ele>
        <time>2021-12-24T13:34:59Z</time>
      </trkpt>
      <trkpt lat="46.4632" lon="-1.18049">
        <ele>3</ele>
        <time>2021-12-24T13:35:01Z</time>
      </trkpt>
      <trkpt lat="46.46308" lon="-1.18052">
        <ele>2.8</ele>
        <time>2021-12-24T13:35:03Z</time>
      </trkpt>
      <trkpt lat="46.46296" lon="-1.18055">
        <ele>2.8</ele>
        <time>2021-12-24T13:35:05Z</time>
      </trkpt>
      <trkpt lat="46.46284" lon="-1.18058">
        <ele>2.8</ele>
        <time>2021-12-24T13:35:07Z</time>
      </trkpt>
      <trkpt lat="46.46273" lon="-1.18061">
        <ele>2.8</ele>
        <time>2021-12-24T13:35:09Z</time>
      </trkpt>
      <trkpt lat="46.4626" lon="-1.18064">
        <ele>2.8</ele>
        <time>2021-12-24T13:35:11Z</time>
      </trkpt>
      <trkpt lat="46.46248" lon="-1.18067">
        <ele>2.6</ele>
        <time>2021-12-24T13:35:13Z</time>
      </trkpt>
      <trkpt lat="46.46242" lon="-1.18068">
        <ele>2.6</ele>
        <time>2021-12-24T13:35:14Z</time>
      </trkpt>
      <trkpt lat="46.46236" lon="-1.18069">
        <ele>2.6</ele>
        <time>2021-12-24T13:35:15Z</time>
      </trkpt>
      <trkpt lat="46.46224" lon="-1.18069">
        <ele>2.4</ele>
        <time>2021-12-24T13:35:17Z</time>
      </trkpt>
      <trkpt lat="46.46212" lon="-1.1807">
        <ele>2.4</ele>
        <time>2021-12-24T13:35:19Z</time>
      </trkpt>
      <trkpt lat="46.46199" lon="-1.18077">
        <ele>2.2</ele>
        <time>2021-12-24T13:35:21Z</time>
      </trkpt>
      <trkpt lat="46.46193" lon="-1.1808">
        <ele>2.2</ele>
        <time>2021-12-24T13:35:22Z</time>
      </trkpt>
      <trkpt lat="46.46186" lon="-1.18081">
        <ele>2.2</ele>
        <time>2021-12-24T13:35:23Z</time>
      </trkpt>
      <trkpt lat="46.46173" lon="-1.18084">
        <ele>2</ele>
        <time>2021-12-24T13:35:25Z</time>
      </trkpt>
      <trkpt lat="46.46161" lon="-1.18088">
        <ele>1.8</ele>
        <time>2021-12-24T13:35:27Z</time>
      </trkpt>
      <trkpt lat="46.46147" lon="-1.18092">
        <ele>1.6</ele>
        <time>2021-12-24T13:35:29Z</time>
      </trkpt>
      <trkpt lat="46.46141" lon="-1.18095">
        <ele>1.6</ele>
        <time>2021-12-24T13:35:30Z</time>
      </trkpt>
      <trkpt lat="46.46135" lon="-1.18098">
        <ele>1.6</ele>
        <time>2021-12-24T13:35:31Z</time>
      </trkpt>
      <trkpt lat="46.46123" lon="-1.18105">
        <ele>1.4</ele>
        <time>2021-12-24T13:35:33Z</time>
      </trkpt>
      <trkpt lat="46.46112" lon="-1.18113">
        <ele>1.4</ele>
        <time>2021-12-24T13:35:35Z</time>
      </trkpt>
      <trkpt lat="46.46101" lon="-1.18121">
        <ele>1.4</ele>
        <time>2021-12-24T13:35:37Z</time>
      </trkpt>
      <trkpt lat="46.4609" lon="-1.18128">
        <ele>1.2</ele>
        <time>2021-12-24T13:35:39Z</time>
      </trkpt>
      <trkpt lat="46.46079" lon="-1.18134">
        <ele>1.2</ele>
        <time>2021-12-24T13:35:41Z</time>
      </trkpt>
      <trkpt lat="46.46069" lon="-1.18142">
        <ele>1.2</ele>
        <time>2021-12-24T13:35:43Z</time>
      </trkpt>
      <trkpt lat="46.46063" lon="-1.18146">
        <ele>1.2</ele>
        <time>2021-12-24T13:35:44Z</time>
      </trkpt>
      <trkpt lat="46.46057" lon="-1.1815">
        <ele>1.2</ele>
        <time>2021-12-24T13:35:45Z</time>
      </trkpt>
      <trkpt lat="46.46045" lon="-1.18157">
        <ele>1.2</ele>
        <time>2021-12-24T13:35:47Z</time>
      </trkpt>
      <trkpt lat="46.46033" lon="-1.18165">
        <ele>1</ele>
        <time>2021-12-24T13:35:49Z</time>
      </trkpt>
      <trkpt lat="46.46028" lon="-1.18169">
        <ele>1</ele>
        <time>2021-12-24T13:35:50Z</time>
      </trkpt>
      <trkpt lat="46.46021" lon="-1.18174">
        <ele>1</ele>
        <time>2021-12-24T13:35:51Z</time>
      </trkpt>
      <trkpt lat="46.46009" lon="-1.18184">
        <ele>0.80000000000001</ele>
        <time>2021-12-24T13:35:53Z</time>
      </trkpt>
      <trkpt lat="46.45998" lon="-1.18192">
        <ele>0.60000000000002</ele>
        <time>2021-12-24T13:35:55Z</time>
      </trkpt>
      <trkpt lat="46.45992" lon="-1.18196">
        <ele>0.60000000000002</ele>
        <time>2021-12-24T13:35:56Z</time>
      </trkpt>
      <trkpt lat="46.45986" lon="-1.18199">
        <ele>0.60000000000002</ele>
        <time>2021-12-24T13:35:57Z</time>
      </trkpt>
      <trkpt lat="46.45975" lon="-1.18206">
        <ele>0.60000000000002</ele>
        <time>2021-12-24T13:35:59Z</time>
      </trkpt>
      <trkpt lat="46.4597" lon="-1.18211">
        <ele>0.60000000000002</ele>
        <time>2021-12-24T13:36:00Z</time>
      </trkpt>
      <trkpt lat="46.45964" lon="-1.18216">
        <ele>0.60000000000002</ele>
        <time>2021-12-24T13:36:01Z</time>
      </trkpt>
      <trkpt lat="46.45954" lon="-1.18226">
        <ele>0.39999999999998</ele>
        <time>2021-12-24T13:36:03Z</time>
      </trkpt>
      <trkpt lat="46.45943" lon="-1.18234">
        <ele>0.19999999999999</ele>
        <time>2021-12-24T13:36:05Z</time>
      </trkpt>
      <trkpt lat="46.45937" lon="-1.18239">
        <ele>0.19999999999999</ele>
        <time>2021-12-24T13:36:06Z</time>
      </trkpt>
      <trkpt lat="46.45932" lon="-1.18242">
        <ele>0.19999999999999</ele>
        <time>2021-12-24T13:36:07Z</time>
      </trkpt>
      <trkpt lat="46.45921" lon="-1.1825">
        <ele>0.19999999999999</ele>
        <time>2021-12-24T13:36:09Z</time>
      </trkpt>
      <trkpt lat="46.45911" lon="-1.18257">
        <ele>-0.19999999999999</ele>
        <time>2021-12-24T13:36:11Z</time>
      </trkpt>
      <trkpt lat="46.45901" lon="-1.18264">
        <ele>-0.19999999999999</ele>
        <time>2021-12-24T13:36:13Z</time>
      </trkpt>
      <trkpt lat="46.45891" lon="-1.1827">
        <ele>-0.19999999999999</ele>
        <time>2021-12-24T13:36:15Z</time>
      </trkpt>
      <trkpt lat="46.45887" lon="-1.18278">
        <ele>-0.39999999999998</ele>
        <time>2021-12-24T13:36:17Z</time>
      </trkpt>
      <trkpt lat="46.45886" lon="-1.1828">
        <ele>-0.39999999999998</ele>
        <time>2021-12-24T13:36:19Z</time>
      </trkpt>
      <trkpt lat="46.45885" lon="-1.18282">
        <ele>-0.60000000000002</ele>
        <time>2021-12-24T13:36:24Z</time>
      </trkpt>
      <trkpt lat="46.45883" lon="-1.18284">
        <ele>-0.60000000000002</ele>
        <time>2021-12-24T13:36:25Z</time>
      </trkpt>
      <trkpt lat="46.45877" lon="-1.18282">
        <ele>-0.80000000000001</ele>
        <time>2021-12-24T13:36:27Z</time>
      </trkpt>
      <trkpt lat="46.45874" lon="-1.18279">
        <ele>-0.80000000000001</ele>
        <time>2021-12-24T13:36:28Z</time>
      </trkpt>
      <trkpt lat="46.45871" lon="-1.18276">
        <ele>-0.60000000000002</ele>
        <time>2021-12-24T13:36:29Z</time>
      </trkpt>
      <trkpt lat="46.45864" lon="-1.18268">
        <ele>-0.60000000000002</ele>
        <time>2021-12-24T13:36:31Z</time>
      </trkpt>
      <trkpt lat="46.45857" lon="-1.18262">
        <ele>-0.60000000000002</ele>
        <time>2021-12-24T13:36:33Z</time>
      </trkpt>
      <trkpt lat="46.45849" lon="-1.18256">
        <ele>-0.60000000000002</ele>
        <time>2021-12-24T13:36:35Z</time>
      </trkpt>
      <trkpt lat="46.45846" lon="-1.18252">
        <ele>-1</ele>
        <time>2021-12-24T13:36:36Z</time>
      </trkpt>
      <trkpt lat="46.45842" lon="-1.18249">
        <ele>-0.60000000000002</ele>
        <time>2021-12-24T13:36:37Z</time>
      </trkpt>
      <trkpt lat="46.45835" lon="-1.18241">
        <ele>-0.60000000000002</ele>
        <time>2021-12-24T13:36:39Z</time>
      </trkpt>
      <trkpt lat="46.45828" lon="-1.18234">
        <ele>-0.19999999999999</ele>
        <time>2021-12-24T13:36:41Z</time>
      </trkpt>
      <trkpt lat="46.45821" lon="-1.18227">
        <ele>-0.19999999999999</ele>
        <time>2021-12-24T13:36:43Z</time>
      </trkpt>
      <trkpt lat="46.45814" lon="-1.1822">
        <ele>-0.19999999999999</ele>
        <time>2021-12-24T13:36:45Z</time>
      </trkpt>
      <trkpt lat="46.45807" lon="-1.18213">
        <ele>-0.19999999999999</ele>
        <time>2021-12-24T13:36:47Z</time>
      </trkpt>
      <trkpt lat="46.45799" lon="-1.18205">
        <ele>-0.19999999999999</ele>
        <time>2021-12-24T13:36:49Z</time>
      </trkpt>
      <trkpt lat="46.45792" lon="-1.18198">
        <ele>-0.19999999999999</ele>
        <time>2021-12-24T13:36:51Z</time>
      </trkpt>
      <trkpt lat="46.45784" lon="-1.18191">
        <ele>-0.19999999999999</ele>
        <time>2021-12-24T13:36:53Z</time>
      </trkpt>
      <trkpt lat="46.45776" lon="-1.18184">
        <ele>-0.19999999999999</ele>
        <time>2021-12-24T13:36:55Z</time>
      </trkpt>
      <trkpt lat="46.45769" lon="-1.18176">
        <ele>-0.19999999999999</ele>
        <time>2021-12-24T13:36:57Z</time>
      </trkpt>
      <trkpt lat="46.45761" lon="-1.18168">
        <ele>-0.19999999999999</ele>
        <time>2021-12-24T13:36:59Z</time>
      </trkpt>
      <trkpt lat="46.45754" lon="-1.18161">
        <ele>0.19999999999999</ele>
        <time>2021-12-24T13:37:01Z</time>
      </trkpt>
      <trkpt lat="46.45747" lon="-1.18153">
        <ele>0.19999999999999</ele>
        <time>2021-12-24T13:37:03Z</time>
      </trkpt>
      <trkpt lat="46.45737" lon="-1.18149">
        <ele>0.19999999999999</ele>
        <time>2021-12-24T13:37:05Z</time>
      </trkpt>
      <trkpt lat="46.45733" lon="-1.18147">
        <ele>0.19999999999999</ele>
        <time>2021-12-24T13:37:07Z</time>
      </trkpt>
      <trkpt lat="46.45734" lon="-1.18147">
        <ele>0.19999999999999</ele>
        <time>2021-12-24T13:37:09Z</time>
      </trkpt>
      <trkpt lat="46.4573" lon="-1.18146">
        <ele>-0.19999999999999</ele>
        <time>2021-12-24T13:37:15Z</time>
      </trkpt>
      <trkpt lat="46.45728" lon="-1.18143">
        <ele>-0.19999999999999</ele>
        <time>2021-12-24T13:37:16Z</time>
      </trkpt>
      <trkpt lat="46.45726" lon="-1.18138">
        <ele>-0.19999999999999</ele>
        <time>2021-12-24T13:37:17Z</time>
      </trkpt>
      <trkpt lat="46.45725" lon="-1.18132">
        <ele>-0.19999999999999</ele>
        <time>2021-12-24T13:37:18Z</time>
      </trkpt>
      <trkpt lat="46.45724" lon="-1.18126">
        <ele>-0.19999999999999</ele>
        <time>2021-12-24T13:37:19Z</time>
      </trkpt>
      <trkpt lat="46.45722" lon="-1.18114">
        <ele>-0.19999999999999</ele>
        <time>2021-12-24T13:37:21Z</time>
      </trkpt>
      <trkpt lat="46.45719" lon="-1.181">
        <ele>-0.39999999999998</ele>
        <time>2021-12-24T13:37:23Z</time>
      </trkpt>
      <trkpt lat="46.45717" lon="-1.18094">
        <ele>-0.39999999999998</ele>
        <time>2021-12-24T13:37:24Z</time>
      </trkpt>
      <trkpt lat="46.45716" lon="-1.18087">
        <ele>-0.39999999999998</ele>
        <time>2021-12-24T13:37:25Z</time>
      </trkpt>
      <trkpt lat="46.45713" lon="-1.18074">
        <ele>-0.39999999999998</ele>
        <time>2021-12-24T13:37:27Z</time>
      </trkpt>
      <trkpt lat="46.45712" lon="-1.18067">
        <ele>-0.39999999999998</ele>
        <time>2021-12-24T13:37:28Z</time>
      </trkpt>
      <trkpt lat="46.45712" lon="-1.1806">
        <ele>-0.39999999999998</ele>
        <time>2021-12-24T13:37:29Z</time>
      </trkpt>
      <trkpt lat="46.4571" lon="-1.18046">
        <ele>-0.19999999999999</ele>
        <time>2021-12-24T13:37:31Z</time>
      </trkpt>
      <trkpt lat="46.45706" lon="-1.18031">
        <ele>-0.39999999999998</ele>
        <time>2021-12-24T13:37:33Z</time>
      </trkpt>
      <trkpt lat="46.45702" lon="-1.18016">
        <ele>-0.39999999999998</ele>
        <time>2021-12-24T13:37:35Z</time>
      </trkpt>
      <trkpt lat="46.45699" lon="-1.18001">
        <ele>-0.60000000000002</ele>
        <time>2021-12-24T13:37:37Z</time>
      </trkpt>
      <trkpt lat="46.45697" lon="-1.17986">
        <ele>-0.80000000000001</ele>
        <time>2021-12-24T13:37:39Z</time>
      </trkpt>
      <trkpt lat="46.45695" lon="-1.17978">
        <ele>-0.80000000000001</ele>
        <time>2021-12-24T13:37:40Z</time>
      </trkpt>
      <trkpt lat="46.45693" lon="-1.17971">
        <ele>-0.80000000000001</ele>
        <time>2021-12-24T13:37:41Z</time>
      </trkpt>
      <trkpt lat="46.45692" lon="-1.17964">
        <ele>-0.80000000000001</ele>
        <time>2021-12-24T13:37:42Z</time>
      </trkpt>
      <trkpt lat="46.4569" lon="-1.17958">
        <ele>-0.80000000000001</ele>
        <time>2021-12-24T13:37:43Z</time>
      </trkpt>
      <trkpt lat="46.45686" lon="-1.17953">
        <ele>-0.80000000000001</ele>
        <time>2021-12-24T13:37:44Z</time>
      </trkpt>
      <trkpt lat="46.45682" lon="-1.17949">
        <ele>-0.80000000000001</ele>
        <time>2021-12-24T13:37:45Z</time>
      </trkpt>
      <trkpt lat="46.45678" lon="-1.17944">
        <ele>-0.80000000000001</ele>
        <time>2021-12-24T13:37:46Z</time>
      </trkpt>
      <trkpt lat="46.45676" lon="-1.17937">
        <ele>-1</ele>
        <time>2021-12-24T13:37:47Z</time>
      </trkpt>
      <trkpt lat="46.45677" lon="-1.17929">
        <ele>-0.80000000000001</ele>
        <time>2021-12-24T13:37:48Z</time>
      </trkpt>
      <trkpt lat="46.45678" lon="-1.17921">
        <ele>-1</ele>
        <time>2021-12-24T13:37:49Z</time>
      </trkpt>
      <trkpt lat="46.45682" lon="-1.17904">
        <ele>-1</ele>
        <time>2021-12-24T13:37:51Z</time>
      </trkpt>
      <trkpt lat="46.4568" lon="-1.17888">
        <ele>-1</ele>
        <time>2021-12-24T13:37:53Z</time>
      </trkpt>
      <trkpt lat="46.45679" lon="-1.1788">
        <ele>-1</ele>
        <time>2021-12-24T13:37:54Z</time>
      </trkpt>
      <trkpt lat="46.45677" lon="-1.17872">
        <ele>-1.2</ele>
        <time>2021-12-24T13:37:55Z</time>
      </trkpt>
      <trkpt lat="46.45673" lon="-1.17857">
        <ele>-1.2</ele>
        <time>2021-12-24T13:37:57Z</time>
      </trkpt>
      <trkpt lat="46.4567" lon="-1.17842">
        <ele>-1.4</ele>
        <time>2021-12-24T13:37:59Z</time>
      </trkpt>
      <trkpt lat="46.45667" lon="-1.17826">
        <ele>-1.4</ele>
        <time>2021-12-24T13:38:01Z</time>
      </trkpt>
      <trkpt lat="46.45663" lon="-1.17811">
        <ele>-1.6</ele>
        <time>2021-12-24T13:38:03Z</time>
      </trkpt>
      <trkpt lat="46.45662" lon="-1.17802">
        <ele>-1.6</ele>
        <time>2021-12-24T13:38:04Z</time>
      </trkpt>
      <trkpt lat="46.45661" lon="-1.17794">
        <ele>-1.6</ele>
        <time>2021-12-24T13:38:05Z</time>
      </trkpt>
      <trkpt lat="46.45659" lon="-1.17786">
        <ele>-1.6</ele>
        <time>2021-12-24T13:38:06Z</time>
      </trkpt>
      <trkpt lat="46.45659" lon="-1.17778">
        <ele>-1.6</ele>
        <time>2021-12-24T13:38:07Z</time>
      </trkpt>
      <trkpt lat="46.45656" lon="-1.17763">
        <ele>-1.6</ele>
        <time>2021-12-24T13:38:09Z</time>
      </trkpt>
      <trkpt lat="46.45653" lon="-1.17747">
        <ele>-1.4</ele>
        <time>2021-12-24T13:38:11Z</time>
      </trkpt>
      <trkpt lat="46.4565" lon="-1.17732">
        <ele>-1.8</ele>
        <time>2021-12-24T13:38:13Z</time>
      </trkpt>
      <trkpt lat="46.45649" lon="-1.17724">
        <ele>-1.4</ele>
        <time>2021-12-24T13:38:14Z</time>
      </trkpt>
      <trkpt lat="46.45648" lon="-1.17716">
        <ele>-1.6</ele>
        <time>2021-12-24T13:38:15Z</time>
      </trkpt>
      <trkpt lat="46.45645" lon="-1.17701">
        <ele>-1</ele>
        <time>2021-12-24T13:38:17Z</time>
      </trkpt>
      <trkpt lat="46.45641" lon="-1.17686">
        <ele>-1.4</ele>
        <time>2021-12-24T13:38:19Z</time>
      </trkpt>
      <trkpt lat="46.45638" lon="-1.17671">
        <ele>-1.4</ele>
        <time>2021-12-24T13:38:21Z</time>
      </trkpt>
      <trkpt lat="46.45637" lon="-1.17663">
        <ele>-1.2</ele>
        <time>2021-12-24T13:38:22Z</time>
      </trkpt>
      <trkpt lat="46.45636" lon="-1.17655">
        <ele>-1</ele>
        <time>2021-12-24T13:38:23Z</time>
      </trkpt>
      <trkpt lat="46.45634" lon="-1.1764">
        <ele>-1.2</ele>
        <time>2021-12-24T13:38:25Z</time>
      </trkpt>
      <trkpt lat="46.4563" lon="-1.17623">
        <ele>-1.2</ele>
        <time>2021-12-24T13:38:27Z</time>
      </trkpt>
      <trkpt lat="46.45629" lon="-1.17615">
        <ele>-1</ele>
        <time>2021-12-24T13:38:28Z</time>
      </trkpt>
      <trkpt lat="46.45627" lon="-1.17607">
        <ele>-1.2</ele>
        <time>2021-12-24T13:38:29Z</time>
      </trkpt>
      <trkpt lat="46.45624" lon="-1.1759">
        <ele>-1.4</ele>
        <time>2021-12-24T13:38:31Z</time>
      </trkpt>
      <trkpt lat="46.45621" lon="-1.17572">
        <ele>-1</ele>
        <time>2021-12-24T13:38:33Z</time>
      </trkpt>
      <trkpt lat="46.45617" lon="-1.17555">
        <ele>-1.4</ele>
        <time>2021-12-24T13:38:35Z</time>
      </trkpt>
      <trkpt lat="46.45614" lon="-1.17538">
        <ele>-1.2</ele>
        <time>2021-12-24T13:38:37Z</time>
      </trkpt>
      <trkpt lat="46.45611" lon="-1.17521">
        <ele>-1.2</ele>
        <time>2021-12-24T13:38:39Z</time>
      </trkpt>
      <trkpt lat="46.45609" lon="-1.17512">
        <ele>-1</ele>
        <time>2021-12-24T13:38:40Z</time>
      </trkpt>
      <trkpt lat="46.45608" lon="-1.17504">
        <ele>-1.2</ele>
        <time>2021-12-24T13:38:41Z</time>
      </trkpt>
      <trkpt lat="46.45605" lon="-1.17486">
        <ele>-1.2</ele>
        <time>2021-12-24T13:38:43Z</time>
      </trkpt>
      <trkpt lat="46.45603" lon="-1.17468">
        <ele>-1</ele>
        <time>2021-12-24T13:38:45Z</time>
      </trkpt>
      <trkpt lat="46.456" lon="-1.17451">
        <ele>-1</ele>
        <time>2021-12-24T13:38:47Z</time>
      </trkpt>
      <trkpt lat="46.45598" lon="-1.17443">
        <ele>-1</ele>
        <time>2021-12-24T13:38:48Z</time>
      </trkpt>
      <trkpt lat="46.45596" lon="-1.17434">
        <ele>-1</ele>
        <time>2021-12-24T13:38:49Z</time>
      </trkpt>
      <trkpt lat="46.45592" lon="-1.17418">
        <ele>-1</ele>
        <time>2021-12-24T13:38:51Z</time>
      </trkpt>
      <trkpt lat="46.45589" lon="-1.17401">
        <ele>-1</ele>
        <time>2021-12-24T13:38:53Z</time>
      </trkpt>
      <trkpt lat="46.45587" lon="-1.17393">
        <ele>-1.2</ele>
        <time>2021-12-24T13:38:54Z</time>
      </trkpt>
      <trkpt lat="46.45585" lon="-1.17384">
        <ele>-1</ele>
        <time>2021-12-24T13:38:55Z</time>
      </trkpt>
      <trkpt lat="46.45583" lon="-1.17367">
        <ele>-1</ele>
        <time>2021-12-24T13:38:57Z</time>
      </trkpt>
      <trkpt lat="46.4558" lon="-1.17349">
        <ele>-1</ele>
        <time>2021-12-24T13:38:59Z</time>
      </trkpt>
      <trkpt lat="46.45578" lon="-1.17341">
        <ele>-1</ele>
        <time>2021-12-24T13:39:00Z</time>
      </trkpt>
      <trkpt lat="46.45576" lon="-1.17332">
        <ele>-1</ele>
        <time>2021-12-24T13:39:01Z</time>
      </trkpt>
      <trkpt lat="46.45574" lon="-1.17314">
        <ele>-1</ele>
        <time>2021-12-24T13:39:03Z</time>
      </trkpt>
      <trkpt lat="46.4557" lon="-1.17296">
        <ele>-1.2</ele>
        <time>2021-12-24T13:39:05Z</time>
      </trkpt>
      <trkpt lat="46.45567" lon="-1.17279">
        <ele>-1.2</ele>
        <time>2021-12-24T13:39:07Z</time>
      </trkpt>
      <trkpt lat="46.45562" lon="-1.17262">
        <ele>-1.2</ele>
        <time>2021-12-24T13:39:09Z</time>
      </trkpt>
      <trkpt lat="46.45559" lon="-1.17246">
        <ele>-1.2</ele>
        <time>2021-12-24T13:39:11Z</time>
      </trkpt>
      <trkpt lat="46.45555" lon="-1.17232">
        <ele>-1.2</ele>
        <time>2021-12-24T13:39:13Z</time>
      </trkpt>
      <trkpt lat="46.45546" lon="-1.17225">
        <ele>-1.2</ele>
        <time>2021-12-24T13:39:15Z</time>
      </trkpt>
      <trkpt lat="46.45541" lon="-1.17222">
        <ele>-1.2</ele>
        <time>2021-12-24T13:39:16Z</time>
      </trkpt>
      <trkpt lat="46.45537" lon="-1.17218">
        <ele>-1.2</ele>
        <time>2021-12-24T13:39:17Z</time>
      </trkpt>
      <trkpt lat="46.45531" lon="-1.1721">
        <ele>-1</ele>
        <time>2021-12-24T13:39:19Z</time>
      </trkpt>
      <trkpt lat="46.45522" lon="-1.17202">
        <ele>-0.80000000000001</ele>
        <time>2021-12-24T13:39:21Z</time>
      </trkpt>
      <trkpt lat="46.45513" lon="-1.17194">
        <ele>-0.80000000000001</ele>
        <time>2021-12-24T13:39:23Z</time>
      </trkpt>
      <trkpt lat="46.45505" lon="-1.17184">
        <ele>-0.60000000000002</ele>
        <time>2021-12-24T13:39:25Z</time>
      </trkpt>
      <trkpt lat="46.45501" lon="-1.1718">
        <ele>-0.60000000000002</ele>
        <time>2021-12-24T13:39:26Z</time>
      </trkpt>
      <trkpt lat="46.45496" lon="-1.17175">
        <ele>-0.60000000000002</ele>
        <time>2021-12-24T13:39:27Z</time>
      </trkpt>
      <trkpt lat="46.45484" lon="-1.17166">
        <ele>-0.60000000000002</ele>
        <time>2021-12-24T13:39:29Z</time>
      </trkpt>
      <trkpt lat="46.45474" lon="-1.17158">
        <ele>-0.60000000000002</ele>
        <time>2021-12-24T13:39:31Z</time>
      </trkpt>
      <trkpt lat="46.4547" lon="-1.17153">
        <ele>-0.39999999999998</ele>
        <time>2021-12-24T13:39:32Z</time>
      </trkpt>
      <trkpt lat="46.45464" lon="-1.17149">
        <ele>-0.60000000000002</ele>
        <time>2021-12-24T13:39:33Z</time>
      </trkpt>
      <trkpt lat="46.45452" lon="-1.1714">
        <ele>-0.60000000000002</ele>
        <time>2021-12-24T13:39:35Z</time>
      </trkpt>
      <trkpt lat="46.45445" lon="-1.17128">
        <ele>-1.4</ele>
        <time>2021-12-24T13:39:37Z</time>
      </trkpt>
      <trkpt lat="46.45441" lon="-1.17113">
        <ele>-1.2</ele>
        <time>2021-12-24T13:39:39Z</time>
      </trkpt>
      <trkpt lat="46.45437" lon="-1.17097">
        <ele>-1.2</ele>
        <time>2021-12-24T13:39:41Z</time>
      </trkpt>
      <trkpt lat="46.45435" lon="-1.17089">
        <ele>-1.4</ele>
        <time>2021-12-24T13:39:42Z</time>
      </trkpt>
      <trkpt lat="46.45433" lon="-1.17081">
        <ele>-1.4</ele>
        <time>2021-12-24T13:39:43Z</time>
      </trkpt>
      <trkpt lat="46.4543" lon="-1.17065">
        <ele>-1.2</ele>
        <time>2021-12-24T13:39:45Z</time>
      </trkpt>
      <trkpt lat="46.45426" lon="-1.17049">
        <ele>-1.2</ele>
        <time>2021-12-24T13:39:47Z</time>
      </trkpt>
      <trkpt lat="46.45424" lon="-1.17042">
        <ele>-1.4</ele>
        <time>2021-12-24T13:39:48Z</time>
      </trkpt>
      <trkpt lat="46.45422" lon="-1.17035">
        <ele>-1.4</ele>
        <time>2021-12-24T13:39:49Z</time>
      </trkpt>
      <trkpt lat="46.4542" lon="-1.17019">
        <ele>-1.6</ele>
        <time>2021-12-24T13:39:51Z</time>
      </trkpt>
      <trkpt lat="46.45417" lon="-1.17004">
        <ele>-1.4</ele>
        <time>2021-12-24T13:39:53Z</time>
      </trkpt>
      <trkpt lat="46.45413" lon="-1.1699">
        <ele>-1.4</ele>
        <time>2021-12-24T13:39:55Z</time>
      </trkpt>
      <trkpt lat="46.45411" lon="-1.16987">
        <ele>-1</ele>
        <time>2021-12-24T13:39:56Z</time>
      </trkpt>
      <trkpt lat="46.45407" lon="-1.16986">
        <ele>-0.80000000000001</ele>
        <time>2021-12-24T13:39:57Z</time>
      </trkpt>
      <trkpt lat="46.45398" lon="-1.16988">
        <ele>-0.60000000000002</ele>
        <time>2021-12-24T13:39:59Z</time>
      </trkpt>
      <trkpt lat="46.45388" lon="-1.16991">
        <ele>-0.60000000000002</ele>
        <time>2021-12-24T13:40:01Z</time>
      </trkpt>
      <trkpt lat="46.45382" lon="-1.16992">
        <ele>-0.60000000000002</ele>
        <time>2021-12-24T13:40:02Z</time>
      </trkpt>
      <trkpt lat="46.45377" lon="-1.16995">
        <ele>-0.39999999999998</ele>
        <time>2021-12-24T13:40:03Z</time>
      </trkpt>
      <trkpt lat="46.45371" lon="-1.16997">
        <ele>-0.60000000000002</ele>
        <time>2021-12-24T13:40:04Z</time>
      </trkpt>
      <trkpt lat="46.45366" lon="-1.17">
        <ele>-0.60000000000002</ele>
        <time>2021-12-24T13:40:05Z</time>
      </trkpt>
      <trkpt lat="46.45354" lon="-1.17004">
        <ele>-0.80000000000001</ele>
        <time>2021-12-24T13:40:07Z</time>
      </trkpt>
      <trkpt lat="46.45348" lon="-1.17006">
        <ele>-1</ele>
        <time>2021-12-24T13:40:08Z</time>
      </trkpt>
      <trkpt lat="46.45342" lon="-1.17009">
        <ele>-1</ele>
        <time>2021-12-24T13:40:09Z</time>
      </trkpt>
      <trkpt lat="46.45331" lon="-1.17014">
        <ele>-1.4</ele>
        <time>2021-12-24T13:40:11Z</time>
      </trkpt>
      <trkpt lat="46.4532" lon="-1.17019">
        <ele>-1.2</ele>
        <time>2021-12-24T13:40:13Z</time>
      </trkpt>
      <trkpt lat="46.45314" lon="-1.17024">
        <ele>-1.2</ele>
        <time>2021-12-24T13:40:14Z</time>
      </trkpt>
      <trkpt lat="46.45308" lon="-1.17027">
        <ele>-1.4</ele>
        <time>2021-12-24T13:40:15Z</time>
      </trkpt>
      <trkpt lat="46.45304" lon="-1.17028">
        <ele>-1.2</ele>
        <time>2021-12-24T13:40:16Z</time>
      </trkpt>
      <trkpt lat="46.45301" lon="-1.17025">
        <ele>-1.4</ele>
        <time>2021-12-24T13:40:17Z</time>
      </trkpt>
      <trkpt lat="46.453" lon="-1.17021">
        <ele>-1.4</ele>
        <time>2021-12-24T13:40:18Z</time>
      </trkpt>
      <trkpt lat="46.45299" lon="-1.17015">
        <ele>-1.4</ele>
        <time>2021-12-24T13:40:19Z</time>
      </trkpt>
      <trkpt lat="46.45297" lon="-1.17002">
        <ele>-1.6</ele>
        <time>2021-12-24T13:40:21Z</time>
      </trkpt>
      <trkpt lat="46.45293" lon="-1.1699">
        <ele>-1.8</ele>
        <time>2021-12-24T13:40:23Z</time>
      </trkpt>
      <trkpt lat="46.45288" lon="-1.16975">
        <ele>-1.8</ele>
        <time>2021-12-24T13:40:25Z</time>
      </trkpt>
      <trkpt lat="46.45287" lon="-1.16968">
        <ele>-1.8</ele>
        <time>2021-12-24T13:40:26Z</time>
      </trkpt>
      <trkpt lat="46.45285" lon="-1.16961">
        <ele>-1.8</ele>
        <time>2021-12-24T13:40:27Z</time>
      </trkpt>
      <trkpt lat="46.45282" lon="-1.16946">
        <ele>-1.8</ele>
        <time>2021-12-24T13:40:29Z</time>
      </trkpt>
      <trkpt lat="46.4528" lon="-1.1693">
        <ele>-2</ele>
        <time>2021-12-24T13:40:31Z</time>
      </trkpt>
      <trkpt lat="46.45278" lon="-1.16923">
        <ele>-2</ele>
        <time>2021-12-24T13:40:32Z</time>
      </trkpt>
      <trkpt lat="46.45276" lon="-1.16916">
        <ele>-2</ele>
        <time>2021-12-24T13:40:33Z</time>
      </trkpt>
      <trkpt lat="46.45274" lon="-1.16909">
        <ele>-2.2</ele>
        <time>2021-12-24T13:40:34Z</time>
      </trkpt>
      <trkpt lat="46.45271" lon="-1.16903">
        <ele>-2.2</ele>
        <time>2021-12-24T13:40:35Z</time>
      </trkpt>
      <trkpt lat="46.4527" lon="-1.16896">
        <ele>-2.2</ele>
        <time>2021-12-24T13:40:36Z</time>
      </trkpt>
      <trkpt lat="46.45268" lon="-1.16889">
        <ele>-2.4</ele>
        <time>2021-12-24T13:40:37Z</time>
      </trkpt>
      <trkpt lat="46.45265" lon="-1.16884">
        <ele>-2.4</ele>
        <time>2021-12-24T13:40:38Z</time>
      </trkpt>
      <trkpt lat="46.45261" lon="-1.16883">
        <ele>-2.4</ele>
        <time>2021-12-24T13:40:39Z</time>
      </trkpt>
      <trkpt lat="46.45256" lon="-1.16883">
        <ele>-2.4</ele>
        <time>2021-12-24T13:40:40Z</time>
      </trkpt>
      <trkpt lat="46.4525" lon="-1.16885">
        <ele>-2.4</ele>
        <time>2021-12-24T13:40:41Z</time>
      </trkpt>
      <trkpt lat="46.4524" lon="-1.16889">
        <ele>-2.6</ele>
        <time>2021-12-24T13:40:43Z</time>
      </trkpt>
      <trkpt lat="46.45228" lon="-1.16893">
        <ele>-2.6</ele>
        <time>2021-12-24T13:40:45Z</time>
      </trkpt>
      <trkpt lat="46.45217" lon="-1.16897">
        <ele>-2.4</ele>
        <time>2021-12-24T13:40:47Z</time>
      </trkpt>
      <trkpt lat="46.45211" lon="-1.16899">
        <ele>-2.4</ele>
        <time>2021-12-24T13:40:48Z</time>
      </trkpt>
      <trkpt lat="46.45206" lon="-1.169">
        <ele>-2.4</ele>
        <time>2021-12-24T13:40:49Z</time>
      </trkpt>
      <trkpt lat="46.45196" lon="-1.16905">
        <ele>-2.6</ele>
        <time>2021-12-24T13:40:51Z</time>
      </trkpt>
      <trkpt lat="46.45186" lon="-1.16908">
        <ele>-2.6</ele>
        <time>2021-12-24T13:40:53Z</time>
      </trkpt>
      <trkpt lat="46.45181" lon="-1.1691">
        <ele>-2.4</ele>
        <time>2021-12-24T13:40:55Z</time>
      </trkpt>
      <trkpt lat="46.45179" lon="-1.1691">
        <ele>-2.8</ele>
        <time>2021-12-24T13:40:56Z</time>
      </trkpt>
      <trkpt lat="46.45177" lon="-1.16911">
        <ele>-2.8</ele>
        <time>2021-12-24T13:40:57Z</time>
      </trkpt>
      <trkpt lat="46.45175" lon="-1.16911">
        <ele>-2.6</ele>
        <time>2021-12-24T13:40:58Z</time>
      </trkpt>
      <trkpt lat="46.45173" lon="-1.16909">
        <ele>-2.2</ele>
        <time>2021-12-24T13:40:59Z</time>
      </trkpt>
      <trkpt lat="46.45173" lon="-1.16906">
        <ele>-2.2</ele>
        <time>2021-12-24T13:41:00Z</time>
      </trkpt>
      <trkpt lat="46.45171" lon="-1.16902">
        <ele>-2.2</ele>
        <time>2021-12-24T13:41:01Z</time>
      </trkpt>
      <trkpt lat="46.4517" lon="-1.16892">
        <ele>-2</ele>
        <time>2021-12-24T13:41:03Z</time>
      </trkpt>
      <trkpt lat="46.45169" lon="-1.16887">
        <ele>-2</ele>
        <time>2021-12-24T13:41:04Z</time>
      </trkpt>
      <trkpt lat="46.45168" lon="-1.16882">
        <ele>-2</ele>
        <time>2021-12-24T13:41:05Z</time>
      </trkpt>
      <trkpt lat="46.45164" lon="-1.16874">
        <ele>-2</ele>
        <time>2021-12-24T13:41:07Z</time>
      </trkpt>
      <trkpt lat="46.45163" lon="-1.16872">
        <ele>-2</ele>
        <time>2021-12-24T13:41:08Z</time>
      </trkpt>
      <trkpt lat="46.45163" lon="-1.16871">
        <ele>-2</ele>
        <time>2021-12-24T13:41:09Z</time>
      </trkpt>
      <trkpt lat="46.45164" lon="-1.16872">
        <ele>-2</ele>
        <time>2021-12-24T13:41:11Z</time>
      </trkpt>
      <trkpt lat="46.45165" lon="-1.1688">
        <ele>-2</ele>
        <time>2021-12-24T13:41:13Z</time>
      </trkpt>
      <trkpt lat="46.45166" lon="-1.16886">
        <ele>-2</ele>
        <time>2021-12-24T13:41:14Z</time>
      </trkpt>
      <trkpt lat="46.45167" lon="-1.16891">
        <ele>-2</ele>
        <time>2021-12-24T13:41:15Z</time>
      </trkpt>
      <trkpt lat="46.45169" lon="-1.169">
        <ele>-1.8</ele>
        <time>2021-12-24T13:41:17Z</time>
      </trkpt>
      <trkpt lat="46.45166" lon="-1.16904">
        <ele>-1.8</ele>
        <time>2021-12-24T13:41:18Z</time>
      </trkpt>
      <trkpt lat="46.45162" lon="-1.16906">
        <ele>-1.8</ele>
        <time>2021-12-24T13:41:19Z</time>
      </trkpt>
      <trkpt lat="46.45153" lon="-1.16909">
        <ele>-1.8</ele>
        <time>2021-12-24T13:41:21Z</time>
      </trkpt>
      <trkpt lat="46.45148" lon="-1.1691">
        <ele>-1.8</ele>
        <time>2021-12-24T13:41:22Z</time>
      </trkpt>
      <trkpt lat="46.45144" lon="-1.16912">
        <ele>-1.8</ele>
        <time>2021-12-24T13:41:23Z</time>
      </trkpt>
      <trkpt lat="46.45136" lon="-1.16917">
        <ele>-1.8</ele>
        <time>2021-12-24T13:41:25Z</time>
      </trkpt>
      <trkpt lat="46.45133" lon="-1.16921">
        <ele>-1.8</ele>
        <time>2021-12-24T13:41:26Z</time>
      </trkpt>
      <trkpt lat="46.45128" lon="-1.16926">
        <ele>-1.8</ele>
        <time>2021-12-24T13:41:27Z</time>
      </trkpt>
      <trkpt lat="46.45123" lon="-1.1693">
        <ele>-1.8</ele>
        <time>2021-12-24T13:41:28Z</time>
      </trkpt>
      <trkpt lat="46.45119" lon="-1.16936">
        <ele>-1.8</ele>
        <time>2021-12-24T13:41:29Z</time>
      </trkpt>
      <trkpt lat="46.45115" lon="-1.1694">
        <ele>-1.6</ele>
        <time>2021-12-24T13:41:30Z</time>
      </trkpt>
      <trkpt lat="46.4511" lon="-1.16944">
        <ele>-1.6</ele>
        <time>2021-12-24T13:41:31Z</time>
      </trkpt>
      <trkpt lat="46.45099" lon="-1.16951">
        <ele>-1.6</ele>
        <time>2021-12-24T13:41:33Z</time>
      </trkpt>
      <trkpt lat="46.45094" lon="-1.16954">
        <ele>-1.6</ele>
        <time>2021-12-24T13:41:34Z</time>
      </trkpt>
      <trkpt lat="46.45088" lon="-1.16956">
        <ele>-1.6</ele>
        <time>2021-12-24T13:41:35Z</time>
      </trkpt>
      <trkpt lat="46.45076" lon="-1.16963">
        <ele>-1.6</ele>
        <time>2021-12-24T13:41:37Z</time>
      </trkpt>
      <trkpt lat="46.45064" lon="-1.16969">
        <ele>-1.6</ele>
        <time>2021-12-24T13:41:39Z</time>
      </trkpt>
      <trkpt lat="46.45059" lon="-1.16973">
        <ele>-1.6</ele>
        <time>2021-12-24T13:41:40Z</time>
      </trkpt>
      <trkpt lat="46.45053" lon="-1.16976">
        <ele>-1.6</ele>
        <time>2021-12-24T13:41:41Z</time>
      </trkpt>
      <trkpt lat="46.45041" lon="-1.16983">
        <ele>-1.6</ele>
        <time>2021-12-24T13:41:43Z</time>
      </trkpt>
      <trkpt lat="46.4503" lon="-1.16989">
        <ele>-1.8</ele>
        <time>2021-12-24T13:41:45Z</time>
      </trkpt>
      <trkpt lat="46.45024" lon="-1.16993">
        <ele>-1.6</ele>
        <time>2021-12-24T13:41:46Z</time>
      </trkpt>
      <trkpt lat="46.45018" lon="-1.16997">
        <ele>-1.6</ele>
        <time>2021-12-24T13:41:47Z</time>
      </trkpt>
      <trkpt lat="46.45007" lon="-1.17004">
        <ele>-1.8</ele>
        <time>2021-12-24T13:41:49Z</time>
      </trkpt>
      <trkpt lat="46.45001" lon="-1.17006">
        <ele>-1.6</ele>
        <time>2021-12-24T13:41:50Z</time>
      </trkpt>
      <trkpt lat="46.44996" lon="-1.17005">
        <ele>-1.8</ele>
        <time>2021-12-24T13:41:51Z</time>
      </trkpt>
      <trkpt lat="46.44992" lon="-1.17001">
        <ele>-1.6</ele>
        <time>2021-12-24T13:41:52Z</time>
      </trkpt>
      <trkpt lat="46.44988" lon="-1.16995">
        <ele>-1.6</ele>
        <time>2021-12-24T13:41:53Z</time>
      </trkpt>
      <trkpt lat="46.44984" lon="-1.16989">
        <ele>-1.6</ele>
        <time>2021-12-24T13:41:54Z</time>
      </trkpt>
      <trkpt lat="46.44981" lon="-1.16982">
        <ele>-1.6</ele>
        <time>2021-12-24T13:41:55Z</time>
      </trkpt>
      <trkpt lat="46.44972" lon="-1.16967">
        <ele>-1.6</ele>
        <time>2021-12-24T13:41:57Z</time>
      </trkpt>
      <trkpt lat="46.44965" lon="-1.16953">
        <ele>-1.6</ele>
        <time>2021-12-24T13:41:59Z</time>
      </trkpt>
      <trkpt lat="46.44962" lon="-1.16947">
        <ele>-1.6</ele>
        <time>2021-12-24T13:42:00Z</time>
      </trkpt>
      <trkpt lat="46.44959" lon="-1.16942">
        <ele>-1.6</ele>
        <time>2021-12-24T13:42:01Z</time>
      </trkpt>
      <trkpt lat="46.44955" lon="-1.16937">
        <ele>-1.6</ele>
        <time>2021-12-24T13:42:02Z</time>
      </trkpt>
      <trkpt lat="46.44953" lon="-1.16934">
        <ele>-1.6</ele>
        <time>2021-12-24T13:42:03Z</time>
      </trkpt>
      <trkpt lat="46.44951" lon="-1.16932">
        <ele>-1.6</ele>
        <time>2021-12-24T13:42:04Z</time>
      </trkpt>
      <trkpt lat="46.44951" lon="-1.16931">
        <ele>-1.6</ele>
        <time>2021-12-24T13:42:05Z</time>
      </trkpt>
      <trkpt lat="46.4495" lon="-1.1693">
        <ele>-1.8</ele>
        <time>2021-12-24T13:42:06Z</time>
      </trkpt>
      <trkpt lat="46.44944" lon="-1.1693">
        <ele>-1.8</ele>
        <time>2021-12-24T13:42:11Z</time>
      </trkpt>
      <trkpt lat="46.44938" lon="-1.16937">
        <ele>-1.8</ele>
        <time>2021-12-24T13:42:13Z</time>
      </trkpt>
      <trkpt lat="46.44932" lon="-1.16943">
        <ele>-1.8</ele>
        <time>2021-12-24T13:42:15Z</time>
      </trkpt>
      <trkpt lat="46.44928" lon="-1.16945">
        <ele>-1.6</ele>
        <time>2021-12-24T13:42:16Z</time>
      </trkpt>
      <trkpt lat="46.44924" lon="-1.16943">
        <ele>-1.6</ele>
        <time>2021-12-24T13:42:17Z</time>
      </trkpt>
      <trkpt lat="46.44917" lon="-1.16934">
        <ele>-1.6</ele>
        <time>2021-12-24T13:42:19Z</time>
      </trkpt>
      <trkpt lat="46.44914" lon="-1.16921">
        <ele>-1.4</ele>
        <time>2021-12-24T13:42:21Z</time>
      </trkpt>
      <trkpt lat="46.4491" lon="-1.1691">
        <ele>-1.2</ele>
        <time>2021-12-24T13:42:23Z</time>
      </trkpt>
      <trkpt lat="46.44907" lon="-1.16904">
        <ele>-1.2</ele>
        <time>2021-12-24T13:42:24Z</time>
      </trkpt>
      <trkpt lat="46.44904" lon="-1.169">
        <ele>-1.2</ele>
        <time>2021-12-24T13:42:25Z</time>
      </trkpt>
      <trkpt lat="46.449" lon="-1.16897">
        <ele>-1.2</ele>
        <time>2021-12-24T13:42:26Z</time>
      </trkpt>
      <trkpt lat="46.44896" lon="-1.16896">
        <ele>-1</ele>
        <time>2021-12-24T13:42:27Z</time>
      </trkpt>
      <trkpt lat="46.44886" lon="-1.16895">
        <ele>-1</ele>
        <time>2021-12-24T13:42:29Z</time>
      </trkpt>
      <trkpt lat="46.44877" lon="-1.16897">
        <ele>-0.80000000000001</ele>
        <time>2021-12-24T13:42:31Z</time>
      </trkpt>
      <trkpt lat="46.44868" lon="-1.16898">
        <ele>-1</ele>
        <time>2021-12-24T13:42:33Z</time>
      </trkpt>
      <trkpt lat="46.44864" lon="-1.16895">
        <ele>-0.80000000000001</ele>
        <time>2021-12-24T13:42:34Z</time>
      </trkpt>
      <trkpt lat="46.44862" lon="-1.16889">
        <ele>-0.80000000000001</ele>
        <time>2021-12-24T13:42:35Z</time>
      </trkpt>
      <trkpt lat="46.4486" lon="-1.16874">
        <ele>-0.80000000000001</ele>
        <time>2021-12-24T13:42:37Z</time>
      </trkpt>
      <trkpt lat="46.44857" lon="-1.1686">
        <ele>-0.80000000000001</ele>
        <time>2021-12-24T13:42:39Z</time>
      </trkpt>
      <trkpt lat="46.44853" lon="-1.16846">
        <ele>-0.80000000000001</ele>
        <time>2021-12-24T13:42:41Z</time>
      </trkpt>
      <trkpt lat="46.44851" lon="-1.1684">
        <ele>-0.80000000000001</ele>
        <time>2021-12-24T13:42:42Z</time>
      </trkpt>
      <trkpt lat="46.44848" lon="-1.16834">
        <ele>-0.80000000000001</ele>
        <time>2021-12-24T13:42:43Z</time>
      </trkpt>
      <trkpt lat="46.44846" lon="-1.16828">
        <ele>-0.80000000000001</ele>
        <time>2021-12-24T13:42:44Z</time>
      </trkpt>
      <trkpt lat="46.44842" lon="-1.16822">
        <ele>-0.80000000000001</ele>
        <time>2021-12-24T13:42:45Z</time>
      </trkpt>
      <trkpt lat="46.44838" lon="-1.1682">
        <ele>-0.80000000000001</ele>
        <time>2021-12-24T13:42:46Z</time>
      </trkpt>
      <trkpt lat="46.44833" lon="-1.16817">
        <ele>-0.80000000000001</ele>
        <time>2021-12-24T13:42:47Z</time>
      </trkpt>
      <trkpt lat="46.44827" lon="-1.16816">
        <ele>-0.60000000000002</ele>
        <time>2021-12-24T13:42:48Z</time>
      </trkpt>
      <trkpt lat="46.44822" lon="-1.16815">
        <ele>-0.60000000000002</ele>
        <time>2021-12-24T13:42:49Z</time>
      </trkpt>
      <trkpt lat="46.44818" lon="-1.16811">
        <ele>-0.60000000000002</ele>
        <time>2021-12-24T13:42:50Z</time>
      </trkpt>
      <trkpt lat="46.44814" lon="-1.16806">
        <ele>-0.60000000000002</ele>
        <time>2021-12-24T13:42:51Z</time>
      </trkpt>
      <trkpt lat="46.44806" lon="-1.16795">
        <ele>-0.60000000000002</ele>
        <time>2021-12-24T13:42:53Z</time>
      </trkpt>
      <trkpt lat="46.44797" lon="-1.16784">
        <ele>-0.60000000000002</ele>
        <time>2021-12-24T13:42:55Z</time>
      </trkpt>
      <trkpt lat="46.44787" lon="-1.16774">
        <ele>-0.60000000000002</ele>
        <time>2021-12-24T13:42:57Z</time>
      </trkpt>
      <trkpt lat="46.44776" lon="-1.16767">
        <ele>-0.60000000000002</ele>
        <time>2021-12-24T13:42:59Z</time>
      </trkpt>
      <trkpt lat="46.44764" lon="-1.16767">
        <ele>-0.60000000000002</ele>
        <time>2021-12-24T13:43:01Z</time>
      </trkpt>
      <trkpt lat="46.44758" lon="-1.16768">
        <ele>-0.60000000000002</ele>
        <time>2021-12-24T13:43:02Z</time>
      </trkpt>
      <trkpt lat="46.44753" lon="-1.16769">
        <ele>-0.60000000000002</ele>
        <time>2021-12-24T13:43:03Z</time>
      </trkpt>
      <trkpt lat="46.44742" lon="-1.16767">
        <ele>-0.60000000000002</ele>
        <time>2021-12-24T13:43:05Z</time>
      </trkpt>
      <trkpt lat="46.44737" lon="-1.16764">
        <ele>-0.60000000000002</ele>
        <time>2021-12-24T13:43:06Z</time>
      </trkpt>
      <trkpt lat="46.44732" lon="-1.1676">
        <ele>-0.60000000000002</ele>
        <time>2021-12-24T13:43:07Z</time>
      </trkpt>
      <trkpt lat="46.44725" lon="-1.16752">
        <ele>-0.80000000000001</ele>
        <time>2021-12-24T13:43:09Z</time>
      </trkpt>
      <trkpt lat="46.44721" lon="-1.16747">
        <ele>-1</ele>
        <time>2021-12-24T13:43:10Z</time>
      </trkpt>
      <trkpt lat="46.44717" lon="-1.16743">
        <ele>-1</ele>
        <time>2021-12-24T13:43:11Z</time>
      </trkpt>
      <trkpt lat="46.44709" lon="-1.16733">
        <ele>-1.4</ele>
        <time>2021-12-24T13:43:13Z</time>
      </trkpt>
      <trkpt lat="46.44698" lon="-1.16723">
        <ele>-1.4</ele>
        <time>2021-12-24T13:43:15Z</time>
      </trkpt>
      <trkpt lat="46.44689" lon="-1.16712">
        <ele>-1.6</ele>
        <time>2021-12-24T13:43:17Z</time>
      </trkpt>
      <trkpt lat="46.44679" lon="-1.167">
        <ele>-1.8</ele>
        <time>2021-12-24T13:43:19Z</time>
      </trkpt>
      <trkpt lat="46.44671" lon="-1.16688">
        <ele>-1.8</ele>
        <time>2021-12-24T13:43:21Z</time>
      </trkpt>
      <trkpt lat="46.44666" lon="-1.16683">
        <ele>-1.8</ele>
        <time>2021-12-24T13:43:22Z</time>
      </trkpt>
      <trkpt lat="46.44662" lon="-1.16679">
        <ele>-2</ele>
        <time>2021-12-24T13:43:23Z</time>
      </trkpt>
      <trkpt lat="46.44654" lon="-1.16668">
        <ele>-2</ele>
        <time>2021-12-24T13:43:25Z</time>
      </trkpt>
      <trkpt lat="46.4465" lon="-1.16662">
        <ele>-2</ele>
        <time>2021-12-24T13:43:26Z</time>
      </trkpt>
      <trkpt lat="46.44647" lon="-1.16655">
        <ele>-2.2</ele>
        <time>2021-12-24T13:43:27Z</time>
      </trkpt>
      <trkpt lat="46.44642" lon="-1.16639">
        <ele>-2.4</ele>
        <time>2021-12-24T13:43:29Z</time>
      </trkpt>
      <trkpt lat="46.44638" lon="-1.16623">
        <ele>-2.6</ele>
        <time>2021-12-24T13:43:31Z</time>
      </trkpt>
      <trkpt lat="46.44637" lon="-1.16614">
        <ele>-2.6</ele>
        <time>2021-12-24T13:43:32Z</time>
      </trkpt>
      <trkpt lat="46.44635" lon="-1.16606">
        <ele>-2.8</ele>
        <time>2021-12-24T13:43:33Z</time>
      </trkpt>
      <trkpt lat="46.44634" lon="-1.16598">
        <ele>-3</ele>
        <time>2021-12-24T13:43:34Z</time>
      </trkpt>
      <trkpt lat="46.44632" lon="-1.1659">
        <ele>-3</ele>
        <time>2021-12-24T13:43:35Z</time>
      </trkpt>
      <trkpt lat="46.44629" lon="-1.16582">
        <ele>-3.2</ele>
        <time>2021-12-24T13:43:36Z</time>
      </trkpt>
      <trkpt lat="46.44626" lon="-1.16575">
        <ele>-3.4</ele>
        <time>2021-12-24T13:43:37Z</time>
      </trkpt>
      <trkpt lat="46.44619" lon="-1.16562">
        <ele>-3.4</ele>
        <time>2021-12-24T13:43:39Z</time>
      </trkpt>
      <trkpt lat="46.44612" lon="-1.1655">
        <ele>-3.8</ele>
        <time>2021-12-24T13:43:41Z</time>
      </trkpt>
      <trkpt lat="46.44607" lon="-1.16543">
        <ele>-3.8</ele>
        <time>2021-12-24T13:43:42Z</time>
      </trkpt>
      <trkpt lat="46.44603" lon="-1.16537">
        <ele>-3.8</ele>
        <time>2021-12-24T13:43:43Z</time>
      </trkpt>
      <trkpt lat="46.44595" lon="-1.16524">
        <ele>-4</ele>
        <time>2021-12-24T13:43:45Z</time>
      </trkpt>
      <trkpt lat="46.44587" lon="-1.1651">
        <ele>-4.2</ele>
        <time>2021-12-24T13:43:47Z</time>
      </trkpt>
      <trkpt lat="46.44584" lon="-1.16502">
        <ele>-4.2</ele>
        <time>2021-12-24T13:43:48Z</time>
      </trkpt>
      <trkpt lat="46.4458" lon="-1.16495">
        <ele>-4.4</ele>
        <time>2021-12-24T13:43:49Z</time>
      </trkpt>
      <trkpt lat="46.44574" lon="-1.16479">
        <ele>-4.4</ele>
        <time>2021-12-24T13:43:51Z</time>
      </trkpt>
      <trkpt lat="46.44568" lon="-1.16464">
        <ele>-4.4</ele>
        <time>2021-12-24T13:43:53Z</time>
      </trkpt>
      <trkpt lat="46.44565" lon="-1.16457">
        <ele>-4.6</ele>
        <time>2021-12-24T13:43:54Z</time>
      </trkpt>
      <trkpt lat="46.44562" lon="-1.1645">
        <ele>-4.8</ele>
        <time>2021-12-24T13:43:55Z</time>
      </trkpt>
      <trkpt lat="46.44556" lon="-1.16435">
        <ele>-5</ele>
        <time>2021-12-24T13:43:57Z</time>
      </trkpt>
      <trkpt lat="46.44549" lon="-1.16422">
        <ele>-5</ele>
        <time>2021-12-24T13:43:59Z</time>
      </trkpt>
      <trkpt lat="46.44545" lon="-1.16415">
        <ele>-5</ele>
        <time>2021-12-24T13:44:00Z</time>
      </trkpt>
      <trkpt lat="46.44541" lon="-1.16408">
        <ele>-5</ele>
        <time>2021-12-24T13:44:01Z</time>
      </trkpt>
      <trkpt lat="46.44536" lon="-1.16402">
        <ele>-5</ele>
        <time>2021-12-24T13:44:02Z</time>
      </trkpt>
      <trkpt lat="46.44532" lon="-1.16397">
        <ele>-5</ele>
        <time>2021-12-24T13:44:03Z</time>
      </trkpt>
      <trkpt lat="46.44528" lon="-1.16391">
        <ele>-5.2</ele>
        <time>2021-12-24T13:44:04Z</time>
      </trkpt>
      <trkpt lat="46.44523" lon="-1.16387">
        <ele>-5.2</ele>
        <time>2021-12-24T13:44:05Z</time>
      </trkpt>
      <trkpt lat="46.44513" lon="-1.1638">
        <ele>-5.2</ele>
        <time>2021-12-24T13:44:07Z</time>
      </trkpt>
      <trkpt lat="46.44502" lon="-1.16375">
        <ele>-5.2</ele>
        <time>2021-12-24T13:44:09Z</time>
      </trkpt>
      <trkpt lat="46.44491" lon="-1.16371">
        <ele>-5.2</ele>
        <time>2021-12-24T13:44:11Z</time>
      </trkpt>
      <trkpt lat="46.4448" lon="-1.16366">
        <ele>-5.2</ele>
        <time>2021-12-24T13:44:13Z</time>
      </trkpt>
      <trkpt lat="46.44475" lon="-1.16364">
        <ele>-5.2</ele>
        <time>2021-12-24T13:44:14Z</time>
      </trkpt>
      <trkpt lat="46.44469" lon="-1.16362">
        <ele>-5.2</ele>
        <time>2021-12-24T13:44:15Z</time>
      </trkpt>
      <trkpt lat="46.44458" lon="-1.16357">
        <ele>-5</ele>
        <time>2021-12-24T13:44:17Z</time>
      </trkpt>
      <trkpt lat="46.44447" lon="-1.16352">
        <ele>-5.2</ele>
        <time>2021-12-24T13:44:19Z</time>
      </trkpt>
      <trkpt lat="46.44436" lon="-1.16349">
        <ele>-4.6</ele>
        <time>2021-12-24T13:44:21Z</time>
      </trkpt>
      <trkpt lat="46.4443" lon="-1.16347">
        <ele>-4.4</ele>
        <time>2021-12-24T13:44:22Z</time>
      </trkpt>
      <trkpt lat="46.44425" lon="-1.16345">
        <ele>-4.8</ele>
        <time>2021-12-24T13:44:23Z</time>
      </trkpt>
      <trkpt lat="46.44413" lon="-1.16343">
        <ele>-4.6</ele>
        <time>2021-12-24T13:44:25Z</time>
      </trkpt>
      <trkpt lat="46.44408" lon="-1.16342">
        <ele>-4.6</ele>
        <time>2021-12-24T13:44:26Z</time>
      </trkpt>
      <trkpt lat="46.44402" lon="-1.16341">
        <ele>-4.6</ele>
        <time>2021-12-24T13:44:27Z</time>
      </trkpt>
      <trkpt lat="46.4439" lon="-1.16342">
        <ele>-4.6</ele>
        <time>2021-12-24T13:44:29Z</time>
      </trkpt>
      <trkpt lat="46.44378" lon="-1.16342">
        <ele>-4.4</ele>
        <time>2021-12-24T13:44:31Z</time>
      </trkpt>
      <trkpt lat="46.44367" lon="-1.16341">
        <ele>-4.4</ele>
        <time>2021-12-24T13:44:33Z</time>
      </trkpt>
      <trkpt lat="46.44356" lon="-1.16339">
        <ele>-4.2</ele>
        <time>2021-12-24T13:44:35Z</time>
      </trkpt>
      <trkpt lat="46.4435" lon="-1.16338">
        <ele>-4</ele>
        <time>2021-12-24T13:44:36Z</time>
      </trkpt>
      <trkpt lat="46.44345" lon="-1.16337">
        <ele>-4</ele>
        <time>2021-12-24T13:44:37Z</time>
      </trkpt>
      <trkpt lat="46.44334" lon="-1.16335">
        <ele>-4</ele>
        <time>2021-12-24T13:44:39Z</time>
      </trkpt>
      <trkpt lat="46.44324" lon="-1.16332">
        <ele>-3.8</ele>
        <time>2021-12-24T13:44:41Z</time>
      </trkpt>
      <trkpt lat="46.44318" lon="-1.16331">
        <ele>-3.8</ele>
        <time>2021-12-24T13:44:42Z</time>
      </trkpt>
      <trkpt lat="46.44313" lon="-1.16329">
        <ele>-3.6</ele>
        <time>2021-12-24T13:44:43Z</time>
      </trkpt>
      <trkpt lat="46.44307" lon="-1.16327">
        <ele>-3.6</ele>
        <time>2021-12-24T13:44:44Z</time>
      </trkpt>
      <trkpt lat="46.44302" lon="-1.16325">
        <ele>-3.6</ele>
        <time>2021-12-24T13:44:45Z</time>
      </trkpt>
      <trkpt lat="46.44291" lon="-1.16321">
        <ele>-3.4</ele>
        <time>2021-12-24T13:44:47Z</time>
      </trkpt>
      <trkpt lat="46.44286" lon="-1.1632">
        <ele>-3.4</ele>
        <time>2021-12-24T13:44:48Z</time>
      </trkpt>
      <trkpt lat="46.4428" lon="-1.16318">
        <ele>-3.4</ele>
        <time>2021-12-24T13:44:49Z</time>
      </trkpt>
      <trkpt lat="46.4427" lon="-1.16314">
        <ele>-3.2</ele>
        <time>2021-12-24T13:44:51Z</time>
      </trkpt>
      <trkpt lat="46.44258" lon="-1.16311">
        <ele>-3.2</ele>
        <time>2021-12-24T13:44:53Z</time>
      </trkpt>
      <trkpt lat="46.44253" lon="-1.16309">
        <ele>-3</ele>
        <time>2021-12-24T13:44:54Z</time>
      </trkpt>
      <trkpt lat="46.44248" lon="-1.16307">
        <ele>-3</ele>
        <time>2021-12-24T13:44:55Z</time>
      </trkpt>
      <trkpt lat="46.44237" lon="-1.16304">
        <ele>-3</ele>
        <time>2021-12-24T13:44:57Z</time>
      </trkpt>
      <trkpt lat="46.44226" lon="-1.16301">
        <ele>-3</ele>
        <time>2021-12-24T13:44:59Z</time>
      </trkpt>
      <trkpt lat="46.44215" lon="-1.16298">
        <ele>-2.8</ele>
        <time>2021-12-24T13:45:01Z</time>
      </trkpt>
      <trkpt lat="46.44209" lon="-1.16297">
        <ele>-2.8</ele>
        <time>2021-12-24T13:45:02Z</time>
      </trkpt>
      <trkpt lat="46.44204" lon="-1.16295">
        <ele>-2.8</ele>
        <time>2021-12-24T13:45:03Z</time>
      </trkpt>
      <trkpt lat="46.44194" lon="-1.16292">
        <ele>-2.8</ele>
        <time>2021-12-24T13:45:05Z</time>
      </trkpt>
      <trkpt lat="46.44189" lon="-1.1629">
        <ele>-2.8</ele>
        <time>2021-12-24T13:45:06Z</time>
      </trkpt>
      <trkpt lat="46.44184" lon="-1.16288">
        <ele>-2.8</ele>
        <time>2021-12-24T13:45:07Z</time>
      </trkpt>
      <trkpt lat="46.44173" lon="-1.16284">
        <ele>-2.8</ele>
        <time>2021-12-24T13:45:09Z</time>
      </trkpt>
      <trkpt lat="46.44163" lon="-1.16279">
        <ele>-2.8</ele>
        <time>2021-12-24T13:45:11Z</time>
      </trkpt>
      <trkpt lat="46.44158" lon="-1.16276">
        <ele>-2.8</ele>
        <time>2021-12-24T13:45:12Z</time>
      </trkpt>
      <trkpt lat="46.44152" lon="-1.16274">
        <ele>-2.8</ele>
        <time>2021-12-24T13:45:13Z</time>
      </trkpt>
      <trkpt lat="46.44143" lon="-1.1627">
        <ele>-2.6</ele>
        <time>2021-12-24T13:45:15Z</time>
      </trkpt>
      <trkpt lat="46.44134" lon="-1.16264">
        <ele>-2.6</ele>
        <time>2021-12-24T13:45:17Z</time>
      </trkpt>
      <trkpt lat="46.44129" lon="-1.16262">
        <ele>-2.6</ele>
        <time>2021-12-24T13:45:18Z</time>
      </trkpt>
      <trkpt lat="46.44124" lon="-1.1626">
        <ele>-2.6</ele>
        <time>2021-12-24T13:45:19Z</time>
      </trkpt>
      <trkpt lat="46.44114" lon="-1.16257">
        <ele>-2.6</ele>
        <time>2021-12-24T13:45:21Z</time>
      </trkpt>
      <trkpt lat="46.44104" lon="-1.16253">
        <ele>-2.6</ele>
        <time>2021-12-24T13:45:23Z</time>
      </trkpt>
      <trkpt lat="46.44094" lon="-1.1625">
        <ele>-2.6</ele>
        <time>2021-12-24T13:45:25Z</time>
      </trkpt>
      <trkpt lat="46.44088" lon="-1.16249">
        <ele>-2.6</ele>
        <time>2021-12-24T13:45:26Z</time>
      </trkpt>
      <trkpt lat="46.44083" lon="-1.16249">
        <ele>-2.6</ele>
        <time>2021-12-24T13:45:27Z</time>
      </trkpt>
      <trkpt lat="46.44072" lon="-1.16248">
        <ele>-2.6</ele>
        <time>2021-12-24T13:45:29Z</time>
      </trkpt>
      <trkpt lat="46.4406" lon="-1.16248">
        <ele>-2.8</ele>
        <time>2021-12-24T13:45:31Z</time>
      </trkpt>
      <trkpt lat="46.44048" lon="-1.16249">
        <ele>-2.8</ele>
        <time>2021-12-24T13:45:33Z</time>
      </trkpt>
      <trkpt lat="46.44037" lon="-1.16251">
        <ele>-2.8</ele>
        <time>2021-12-24T13:45:35Z</time>
      </trkpt>
      <trkpt lat="46.44032" lon="-1.16251">
        <ele>-3</ele>
        <time>2021-12-24T13:45:36Z</time>
      </trkpt>
      <trkpt lat="46.44026" lon="-1.16252">
        <ele>-2.8</ele>
        <time>2021-12-24T13:45:37Z</time>
      </trkpt>
      <trkpt lat="46.44017" lon="-1.16253">
        <ele>-2.8</ele>
        <time>2021-12-24T13:45:39Z</time>
      </trkpt>
      <trkpt lat="46.44006" lon="-1.16257">
        <ele>-2.8</ele>
        <time>2021-12-24T13:45:41Z</time>
      </trkpt>
      <trkpt lat="46.44001" lon="-1.16259">
        <ele>-2.8</ele>
        <time>2021-12-24T13:45:42Z</time>
      </trkpt>
      <trkpt lat="46.43996" lon="-1.16261">
        <ele>-2.8</ele>
        <time>2021-12-24T13:45:43Z</time>
      </trkpt>
      <trkpt lat="46.43985" lon="-1.16264">
        <ele>-2.8</ele>
        <time>2021-12-24T13:45:45Z</time>
      </trkpt>
      <trkpt lat="46.43975" lon="-1.16267">
        <ele>-2.8</ele>
        <time>2021-12-24T13:45:47Z</time>
      </trkpt>
      <trkpt lat="46.43964" lon="-1.1627">
        <ele>-2.8</ele>
        <time>2021-12-24T13:45:49Z</time>
      </trkpt>
      <trkpt lat="46.43954" lon="-1.16273">
        <ele>-2.8</ele>
        <time>2021-12-24T13:45:51Z</time>
      </trkpt>
      <trkpt lat="46.43944" lon="-1.16275">
        <ele>-2.6</ele>
        <time>2021-12-24T13:45:53Z</time>
      </trkpt>
      <trkpt lat="46.43934" lon="-1.16278">
        <ele>-2.6</ele>
        <time>2021-12-24T13:45:55Z</time>
      </trkpt>
      <trkpt lat="46.43924" lon="-1.16279">
        <ele>-2.6</ele>
        <time>2021-12-24T13:45:57Z</time>
      </trkpt>
      <trkpt lat="46.43914" lon="-1.16281">
        <ele>-2.6</ele>
        <time>2021-12-24T13:45:59Z</time>
      </trkpt>
      <trkpt lat="46.43904" lon="-1.16282">
        <ele>-2.4</ele>
        <time>2021-12-24T13:46:01Z</time>
      </trkpt>
      <trkpt lat="46.43895" lon="-1.16282">
        <ele>-2.2</ele>
        <time>2021-12-24T13:46:03Z</time>
      </trkpt>
      <trkpt lat="46.43891" lon="-1.16282">
        <ele>-2.4</ele>
        <time>2021-12-24T13:46:04Z</time>
      </trkpt>
      <trkpt lat="46.43886" lon="-1.16283">
        <ele>-2.2</ele>
        <time>2021-12-24T13:46:05Z</time>
      </trkpt>
      <trkpt lat="46.43876" lon="-1.16284">
        <ele>-2.2</ele>
        <time>2021-12-24T13:46:07Z</time>
      </trkpt>
      <trkpt lat="46.43867" lon="-1.16284">
        <ele>-2.4</ele>
        <time>2021-12-24T13:46:09Z</time>
      </trkpt>
      <trkpt lat="46.43857" lon="-1.16284">
        <ele>-2.2</ele>
        <time>2021-12-24T13:46:11Z</time>
      </trkpt>
      <trkpt lat="46.43847" lon="-1.16285">
        <ele>-2.2</ele>
        <time>2021-12-24T13:46:13Z</time>
      </trkpt>
      <trkpt lat="46.43837" lon="-1.16285">
        <ele>-2</ele>
        <time>2021-12-24T13:46:15Z</time>
      </trkpt>
      <trkpt lat="46.43822" lon="-1.16286">
        <ele>-2</ele>
        <time>2021-12-24T13:46:17Z</time>
      </trkpt>
      <trkpt lat="46.43812" lon="-1.16286">
        <ele>-2</ele>
        <time>2021-12-24T13:46:19Z</time>
      </trkpt>
      <trkpt lat="46.43802" lon="-1.16287">
        <ele>-2</ele>
        <time>2021-12-24T13:46:21Z</time>
      </trkpt>
      <trkpt lat="46.43792" lon="-1.16288">
        <ele>-2</ele>
        <time>2021-12-24T13:46:23Z</time>
      </trkpt>
      <trkpt lat="46.43782" lon="-1.16288">
        <ele>-1.8</ele>
        <time>2021-12-24T13:46:25Z</time>
      </trkpt>
      <trkpt lat="46.43773" lon="-1.16287">
        <ele>-1.6</ele>
        <time>2021-12-24T13:46:27Z</time>
      </trkpt>
      <trkpt lat="46.43768" lon="-1.16286">
        <ele>-1.6</ele>
        <time>2021-12-24T13:46:28Z</time>
      </trkpt>
      <trkpt lat="46.43763" lon="-1.16285">
        <ele>-1.6</ele>
        <time>2021-12-24T13:46:29Z</time>
      </trkpt>
      <trkpt lat="46.43754" lon="-1.16283">
        <ele>-1.6</ele>
        <time>2021-12-24T13:46:31Z</time>
      </trkpt>
      <trkpt lat="46.43745" lon="-1.1628">
        <ele>-1.4</ele>
        <time>2021-12-24T13:46:33Z</time>
      </trkpt>
      <trkpt lat="46.43735" lon="-1.16277">
        <ele>-1.4</ele>
        <time>2021-12-24T13:46:35Z</time>
      </trkpt>
      <trkpt lat="46.43726" lon="-1.16276">
        <ele>-1.4</ele>
        <time>2021-12-24T13:46:37Z</time>
      </trkpt>
      <trkpt lat="46.43716" lon="-1.16273">
        <ele>-1.4</ele>
        <time>2021-12-24T13:46:39Z</time>
      </trkpt>
      <trkpt lat="46.43712" lon="-1.16271">
        <ele>-1.4</ele>
        <time>2021-12-24T13:46:40Z</time>
      </trkpt>
      <trkpt lat="46.43712" lon="-1.16271">
        <ele>-1.4</ele>
        <time>2021-12-24T13:46:41Z</time>
      </trkpt>
      <trkpt lat="46.43699" lon="-1.16267">
        <ele>-1.2</ele>
        <time>2021-12-24T13:46:43Z</time>
      </trkpt>
      <trkpt lat="46.43689" lon="-1.16264">
        <ele>-1.2</ele>
        <time>2021-12-24T13:46:45Z</time>
      </trkpt>
      <trkpt lat="46.4368" lon="-1.16261">
        <ele>-1.2</ele>
        <time>2021-12-24T13:46:47Z</time>
      </trkpt>
      <trkpt lat="46.4367" lon="-1.16258">
        <ele>-1.2</ele>
        <time>2021-12-24T13:46:49Z</time>
      </trkpt>
      <trkpt lat="46.4366" lon="-1.16255">
        <ele>-1</ele>
        <time>2021-12-24T13:46:51Z</time>
      </trkpt>
      <trkpt lat="46.43651" lon="-1.16252">
        <ele>-1</ele>
        <time>2021-12-24T13:46:53Z</time>
      </trkpt>
      <trkpt lat="46.43645" lon="-1.16251">
        <ele>-1</ele>
        <time>2021-12-24T13:46:55Z</time>
      </trkpt>
      <trkpt lat="46.43631" lon="-1.16247">
        <ele>-1</ele>
        <time>2021-12-24T13:46:57Z</time>
      </trkpt>
      <trkpt lat="46.43626" lon="-1.16246">
        <ele>-1</ele>
        <time>2021-12-24T13:46:58Z</time>
      </trkpt>
      <trkpt lat="46.43621" lon="-1.16245">
        <ele>-1</ele>
        <time>2021-12-24T13:46:59Z</time>
      </trkpt>
      <trkpt lat="46.43612" lon="-1.16241">
        <ele>-1</ele>
        <time>2021-12-24T13:47:01Z</time>
      </trkpt>
      <trkpt lat="46.43602" lon="-1.16238">
        <ele>-1</ele>
        <time>2021-12-24T13:47:03Z</time>
      </trkpt>
      <trkpt lat="46.43593" lon="-1.16236">
        <ele>-1</ele>
        <time>2021-12-24T13:47:05Z</time>
      </trkpt>
      <trkpt lat="46.43583" lon="-1.16232">
        <ele>-1</ele>
        <time>2021-12-24T13:47:07Z</time>
      </trkpt>
      <trkpt lat="46.43574" lon="-1.16228">
        <ele>-1</ele>
        <time>2021-12-24T13:47:09Z</time>
      </trkpt>
      <trkpt lat="46.43565" lon="-1.16223">
        <ele>-0.80000000000001</ele>
        <time>2021-12-24T13:47:11Z</time>
      </trkpt>
      <trkpt lat="46.4356" lon="-1.16221">
        <ele>-0.80000000000001</ele>
        <time>2021-12-24T13:47:12Z</time>
      </trkpt>
      <trkpt lat="46.43556" lon="-1.16219">
        <ele>-0.80000000000001</ele>
        <time>2021-12-24T13:47:13Z</time>
      </trkpt>
      <trkpt lat="46.43547" lon="-1.16214">
        <ele>-0.80000000000001</ele>
        <time>2021-12-24T13:47:15Z</time>
      </trkpt>
      <trkpt lat="46.43539" lon="-1.16209">
        <ele>-0.80000000000001</ele>
        <time>2021-12-24T13:47:17Z</time>
      </trkpt>
      <trkpt lat="46.4353" lon="-1.16204">
        <ele>-0.80000000000001</ele>
        <time>2021-12-24T13:47:19Z</time>
      </trkpt>
      <trkpt lat="46.43526" lon="-1.16201">
        <ele>-0.80000000000001</ele>
        <time>2021-12-24T13:47:20Z</time>
      </trkpt>
      <trkpt lat="46.43522" lon="-1.16198">
        <ele>-0.60000000000002</ele>
        <time>2021-12-24T13:47:21Z</time>
      </trkpt>
      <trkpt lat="46.43514" lon="-1.16193">
        <ele>-0.80000000000001</ele>
        <time>2021-12-24T13:47:23Z</time>
      </trkpt>
      <trkpt lat="46.43504" lon="-1.16188">
        <ele>-0.60000000000002</ele>
        <time>2021-12-24T13:47:25Z</time>
      </trkpt>
      <trkpt lat="46.43496" lon="-1.16182">
        <ele>-0.60000000000002</ele>
        <time>2021-12-24T13:47:27Z</time>
      </trkpt>
      <trkpt lat="46.43491" lon="-1.1618">
        <ele>-0.60000000000002</ele>
        <time>2021-12-24T13:47:28Z</time>
      </trkpt>
      <trkpt lat="46.43487" lon="-1.16177">
        <ele>-0.60000000000002</ele>
        <time>2021-12-24T13:47:29Z</time>
      </trkpt>
      <trkpt lat="46.43477" lon="-1.16173">
        <ele>-0.39999999999998</ele>
        <time>2021-12-24T13:47:31Z</time>
      </trkpt>
      <trkpt lat="46.43468" lon="-1.16169">
        <ele>-0.39999999999998</ele>
        <time>2021-12-24T13:47:33Z</time>
      </trkpt>
      <trkpt lat="46.43458" lon="-1.16165">
        <ele>-0.60000000000002</ele>
        <time>2021-12-24T13:47:35Z</time>
      </trkpt>
      <trkpt lat="46.43454" lon="-1.16163">
        <ele>-0.60000000000002</ele>
        <time>2021-12-24T13:47:36Z</time>
      </trkpt>
      <trkpt lat="46.43449" lon="-1.1616">
        <ele>-0.60000000000002</ele>
        <time>2021-12-24T13:47:37Z</time>
      </trkpt>
      <trkpt lat="46.4344" lon="-1.16156">
        <ele>-0.60000000000002</ele>
        <time>2021-12-24T13:47:39Z</time>
      </trkpt>
      <trkpt lat="46.4343" lon="-1.16153">
        <ele>-0.60000000000002</ele>
        <time>2021-12-24T13:47:41Z</time>
      </trkpt>
      <trkpt lat="46.43426" lon="-1.16151">
        <ele>-0.60000000000002</ele>
        <time>2021-12-24T13:47:42Z</time>
      </trkpt>
      <trkpt lat="46.43426" lon="-1.16151">
        <ele>-0.60000000000002</ele>
        <time>2021-12-24T13:47:43Z</time>
      </trkpt>
      <trkpt lat="46.43412" lon="-1.16145">
        <ele>-0.39999999999998</ele>
        <time>2021-12-24T13:47:45Z</time>
      </trkpt>
      <trkpt lat="46.43407" lon="-1.16143">
        <ele>-0.39999999999998</ele>
        <time>2021-12-24T13:47:46Z</time>
      </trkpt>
      <trkpt lat="46.43403" lon="-1.16141">
        <ele>-0.39999999999998</ele>
        <time>2021-12-24T13:47:47Z</time>
      </trkpt>
      <trkpt lat="46.43398" lon="-1.16139">
        <ele>-0.39999999999998</ele>
        <time>2021-12-24T13:47:48Z</time>
      </trkpt>
      <trkpt lat="46.43393" lon="-1.16137">
        <ele>-0.39999999999998</ele>
        <time>2021-12-24T13:47:49Z</time>
      </trkpt>
      <trkpt lat="46.43384" lon="-1.16133">
        <ele>-0.39999999999998</ele>
        <time>2021-12-24T13:47:51Z</time>
      </trkpt>
      <trkpt lat="46.43375" lon="-1.1613">
        <ele>-0.39999999999998</ele>
        <time>2021-12-24T13:47:53Z</time>
      </trkpt>
      <trkpt lat="46.43365" lon="-1.16127">
        <ele>-0.60000000000002</ele>
        <time>2021-12-24T13:47:55Z</time>
      </trkpt>
      <trkpt lat="46.4336" lon="-1.16125">
        <ele>-0.39999999999998</ele>
        <time>2021-12-24T13:47:56Z</time>
      </trkpt>
      <trkpt lat="46.43355" lon="-1.16124">
        <ele>-0.39999999999998</ele>
        <time>2021-12-24T13:47:57Z</time>
      </trkpt>
      <trkpt lat="46.43344" lon="-1.16122">
        <ele>-0.39999999999998</ele>
        <time>2021-12-24T13:47:59Z</time>
      </trkpt>
      <trkpt lat="46.43334" lon="-1.16121">
        <ele>-0.39999999999998</ele>
        <time>2021-12-24T13:48:01Z</time>
      </trkpt>
      <trkpt lat="46.43325" lon="-1.16119">
        <ele>-0.39999999999998</ele>
        <time>2021-12-24T13:48:03Z</time>
      </trkpt>
      <trkpt lat="46.43314" lon="-1.16118">
        <ele>-0.39999999999998</ele>
        <time>2021-12-24T13:48:05Z</time>
      </trkpt>
      <trkpt lat="46.43307" lon="-1.16117">
        <ele>-0.39999999999998</ele>
        <time>2021-12-24T13:48:07Z</time>
      </trkpt>
      <trkpt lat="46.43304" lon="-1.16116">
        <ele>-0.39999999999998</ele>
        <time>2021-12-24T13:48:09Z</time>
      </trkpt>
      <trkpt lat="46.43304" lon="-1.16116">
        <ele>-0.39999999999998</ele>
        <time>2021-12-24T13:48:10Z</time>
      </trkpt>
      <trkpt lat="46.43305" lon="-1.16115">
        <ele>-0.19999999999999</ele>
        <time>2021-12-24T13:48:11Z</time>
      </trkpt>
      <trkpt lat="46.43305" lon="-1.16115">
        <ele>-0.19999999999999</ele>
        <time>2021-12-24T13:48:12Z</time>
      </trkpt>
      <trkpt lat="46.43301" lon="-1.16117">
        <ele>-0.19999999999999</ele>
        <time>2021-12-24T13:48:25Z</time>
      </trkpt>
      <trkpt lat="46.43298" lon="-1.16117">
        <ele>-0.19999999999999</ele>
        <time>2021-12-24T13:48:26Z</time>
      </trkpt>
      <trkpt lat="46.43294" lon="-1.16116">
        <ele>-0.19999999999999</ele>
        <time>2021-12-24T13:48:27Z</time>
      </trkpt>
      <trkpt lat="46.43287" lon="-1.16115">
        <ele>-0.19999999999999</ele>
        <time>2021-12-24T13:48:29Z</time>
      </trkpt>
      <trkpt lat="46.43282" lon="-1.16115">
        <ele>-0.19999999999999</ele>
        <time>2021-12-24T13:48:30Z</time>
      </trkpt>
      <trkpt lat="46.43278" lon="-1.16115">
        <ele>-0.19999999999999</ele>
        <time>2021-12-24T13:48:31Z</time>
      </trkpt>
      <trkpt lat="46.4327" lon="-1.16114">
        <ele>-0.19999999999999</ele>
        <time>2021-12-24T13:48:33Z</time>
      </trkpt>
      <trkpt lat="46.43261" lon="-1.16113">
        <ele>0.19999999999999</ele>
        <time>2021-12-24T13:48:35Z</time>
      </trkpt>
      <trkpt lat="46.43251" lon="-1.16113">
        <ele>0.19999999999999</ele>
        <time>2021-12-24T13:48:37Z</time>
      </trkpt>
      <trkpt lat="46.43242" lon="-1.16112">
        <ele>0.19999999999999</ele>
        <time>2021-12-24T13:48:39Z</time>
      </trkpt>
      <trkpt lat="46.43233" lon="-1.16112">
        <ele>0.19999999999999</ele>
        <time>2021-12-24T13:48:41Z</time>
      </trkpt>
      <trkpt lat="46.43223" lon="-1.16111">
        <ele>0.19999999999999</ele>
        <time>2021-12-24T13:48:43Z</time>
      </trkpt>
      <trkpt lat="46.43214" lon="-1.16111">
        <ele>0.19999999999999</ele>
        <time>2021-12-24T13:48:45Z</time>
      </trkpt>
      <trkpt lat="46.43205" lon="-1.1611">
        <ele>0.19999999999999</ele>
        <time>2021-12-24T13:48:47Z</time>
      </trkpt>
      <trkpt lat="46.43196" lon="-1.1611">
        <ele>0.39999999999998</ele>
        <time>2021-12-24T13:48:49Z</time>
      </trkpt>
      <trkpt lat="46.43185" lon="-1.1611">
        <ele>0.39999999999998</ele>
        <time>2021-12-24T13:48:51Z</time>
      </trkpt>
      <trkpt lat="46.43176" lon="-1.16109">
        <ele>0.39999999999998</ele>
        <time>2021-12-24T13:48:53Z</time>
      </trkpt>
      <trkpt lat="46.43166" lon="-1.16108">
        <ele>0.39999999999998</ele>
        <time>2021-12-24T13:48:55Z</time>
      </trkpt>
      <trkpt lat="46.43156" lon="-1.16107">
        <ele>0.39999999999998</ele>
        <time>2021-12-24T13:48:57Z</time>
      </trkpt>
      <trkpt lat="46.43146" lon="-1.16106">
        <ele>0.39999999999998</ele>
        <time>2021-12-24T13:48:59Z</time>
      </trkpt>
      <trkpt lat="46.43136" lon="-1.16105">
        <ele>0.60000000000002</ele>
        <time>2021-12-24T13:49:01Z</time>
      </trkpt>
      <trkpt lat="46.43127" lon="-1.16104">
        <ele>0.60000000000002</ele>
        <time>2021-12-24T13:49:03Z</time>
      </trkpt>
      <trkpt lat="46.43117" lon="-1.16103">
        <ele>0.60000000000002</ele>
        <time>2021-12-24T13:49:05Z</time>
      </trkpt>
      <trkpt lat="46.43107" lon="-1.16103">
        <ele>0.60000000000002</ele>
        <time>2021-12-24T13:49:07Z</time>
      </trkpt>
      <trkpt lat="46.43098" lon="-1.16102">
        <ele>0.60000000000002</ele>
        <time>2021-12-24T13:49:09Z</time>
      </trkpt>
      <trkpt lat="46.43088" lon="-1.16102">
        <ele>0.60000000000002</ele>
        <time>2021-12-24T13:49:11Z</time>
      </trkpt>
      <trkpt lat="46.43078" lon="-1.16101">
        <ele>0.60000000000002</ele>
        <time>2021-12-24T13:49:13Z</time>
      </trkpt>
      <trkpt lat="46.43073" lon="-1.161">
        <ele>0.60000000000002</ele>
        <time>2021-12-24T13:49:14Z</time>
      </trkpt>
      <trkpt lat="46.43068" lon="-1.161">
        <ele>0.60000000000002</ele>
        <time>2021-12-24T13:49:15Z</time>
      </trkpt>
      <trkpt lat="46.43058" lon="-1.16099">
        <ele>0.60000000000002</ele>
        <time>2021-12-24T13:49:17Z</time>
      </trkpt>
      <trkpt lat="46.43048" lon="-1.16098">
        <ele>0.60000000000002</ele>
        <time>2021-12-24T13:49:19Z</time>
      </trkpt>
      <trkpt lat="46.43038" lon="-1.16097">
        <ele>0.60000000000002</ele>
        <time>2021-12-24T13:49:21Z</time>
      </trkpt>
      <trkpt lat="46.43029" lon="-1.16095">
        <ele>0.60000000000002</ele>
        <time>2021-12-24T13:49:23Z</time>
      </trkpt>
      <trkpt lat="46.43019" lon="-1.16094">
        <ele>0.60000000000002</ele>
        <time>2021-12-24T13:49:25Z</time>
      </trkpt>
      <trkpt lat="46.4301" lon="-1.16093">
        <ele>0.60000000000002</ele>
        <time>2021-12-24T13:49:27Z</time>
      </trkpt>
      <trkpt lat="46.43001" lon="-1.16092">
        <ele>0.60000000000002</ele>
        <time>2021-12-24T13:49:29Z</time>
      </trkpt>
      <trkpt lat="46.42992" lon="-1.1609">
        <ele>0.60000000000002</ele>
        <time>2021-12-24T13:49:31Z</time>
      </trkpt>
      <trkpt lat="46.42982" lon="-1.16089">
        <ele>0.39999999999998</ele>
        <time>2021-12-24T13:49:33Z</time>
      </trkpt>
      <trkpt lat="46.42973" lon="-1.16087">
        <ele>0.60000000000002</ele>
        <time>2021-12-24T13:49:35Z</time>
      </trkpt>
      <trkpt lat="46.42968" lon="-1.16086">
        <ele>0.60000000000002</ele>
        <time>2021-12-24T13:49:36Z</time>
      </trkpt>
      <trkpt lat="46.42964" lon="-1.16085">
        <ele>0.39999999999998</ele>
        <time>2021-12-24T13:49:37Z</time>
      </trkpt>
      <trkpt lat="46.42955" lon="-1.16084">
        <ele>0.39999999999998</ele>
        <time>2021-12-24T13:49:39Z</time>
      </trkpt>
      <trkpt lat="46.42945" lon="-1.16083">
        <ele>0.39999999999998</ele>
        <time>2021-12-24T13:49:41Z</time>
      </trkpt>
      <trkpt lat="46.42936" lon="-1.16082">
        <ele>0.39999999999998</ele>
        <time>2021-12-24T13:49:43Z</time>
      </trkpt>
      <trkpt lat="46.42931" lon="-1.16081">
        <ele>0.39999999999998</ele>
        <time>2021-12-24T13:49:44Z</time>
      </trkpt>
      <trkpt lat="46.42926" lon="-1.1608">
        <ele>0.39999999999998</ele>
        <time>2021-12-24T13:49:45Z</time>
      </trkpt>
      <trkpt lat="46.42916" lon="-1.16079">
        <ele>0.19999999999999</ele>
        <time>2021-12-24T13:49:47Z</time>
      </trkpt>
      <trkpt lat="46.42907" lon="-1.16077">
        <ele>0.19999999999999</ele>
        <time>2021-12-24T13:49:49Z</time>
      </trkpt>
      <trkpt lat="46.42898" lon="-1.16076">
        <ele>0.19999999999999</ele>
        <time>2021-12-24T13:49:51Z</time>
      </trkpt>
      <trkpt lat="46.42894" lon="-1.16075">
        <ele>0.19999999999999</ele>
        <time>2021-12-24T13:49:52Z</time>
      </trkpt>
      <trkpt lat="46.4289" lon="-1.16074">
        <ele>0.19999999999999</ele>
        <time>2021-12-24T13:49:53Z</time>
      </trkpt>
      <trkpt lat="46.42886" lon="-1.16073">
        <ele>0.19999999999999</ele>
        <time>2021-12-24T13:49:54Z</time>
      </trkpt>
      <trkpt lat="46.42881" lon="-1.16072">
        <ele>0.19999999999999</ele>
        <time>2021-12-24T13:49:55Z</time>
      </trkpt>
      <trkpt lat="46.42872" lon="-1.16071">
        <ele>0.19999999999999</ele>
        <time>2021-12-24T13:49:57Z</time>
      </trkpt>
      <trkpt lat="46.42863" lon="-1.1607">
        <ele>-0.19999999999999</ele>
        <time>2021-12-24T13:49:59Z</time>
      </trkpt>
      <trkpt lat="46.42854" lon="-1.16071">
        <ele>-0.19999999999999</ele>
        <time>2021-12-24T13:50:01Z</time>
      </trkpt>
      <trkpt lat="46.42845" lon="-1.1607">
        <ele>-0.19999999999999</ele>
        <time>2021-12-24T13:50:03Z</time>
      </trkpt>
      <trkpt lat="46.42836" lon="-1.1607">
        <ele>-0.39999999999998</ele>
        <time>2021-12-24T13:50:05Z</time>
      </trkpt>
      <trkpt lat="46.42826" lon="-1.16069">
        <ele>-0.19999999999999</ele>
        <time>2021-12-24T13:50:07Z</time>
      </trkpt>
      <trkpt lat="46.42817" lon="-1.16069">
        <ele>-0.19999999999999</ele>
        <time>2021-12-24T13:50:09Z</time>
      </trkpt>
      <trkpt lat="46.42807" lon="-1.1607">
        <ele>-0.19999999999999</ele>
        <time>2021-12-24T13:50:11Z</time>
      </trkpt>
      <trkpt lat="46.42798" lon="-1.1607">
        <ele>-0.39999999999998</ele>
        <time>2021-12-24T13:50:13Z</time>
      </trkpt>
      <trkpt lat="46.4279" lon="-1.16069">
        <ele>-0.39999999999998</ele>
        <time>2021-12-24T13:50:15Z</time>
      </trkpt>
      <trkpt lat="46.42781" lon="-1.1607">
        <ele>-0.39999999999998</ele>
        <time>2021-12-24T13:50:17Z</time>
      </trkpt>
      <trkpt lat="46.42776" lon="-1.1607">
        <ele>-0.39999999999998</ele>
        <time>2021-12-24T13:50:18Z</time>
      </trkpt>
      <trkpt lat="46.42771" lon="-1.1607">
        <ele>-0.19999999999999</ele>
        <time>2021-12-24T13:50:19Z</time>
      </trkpt>
      <trkpt lat="46.42761" lon="-1.16071">
        <ele>-0.19999999999999</ele>
        <time>2021-12-24T13:50:21Z</time>
      </trkpt>
      <trkpt lat="46.42751" lon="-1.16071">
        <ele>-0.39999999999998</ele>
        <time>2021-12-24T13:50:23Z</time>
      </trkpt>
      <trkpt lat="46.42742" lon="-1.16071">
        <ele>-0.19999999999999</ele>
        <time>2021-12-24T13:50:25Z</time>
      </trkpt>
      <trkpt lat="46.42732" lon="-1.16072">
        <ele>-0.19999999999999</ele>
        <time>2021-12-24T13:50:27Z</time>
      </trkpt>
      <trkpt lat="46.42723" lon="-1.16072">
        <ele>-0.39999999999998</ele>
        <time>2021-12-24T13:50:29Z</time>
      </trkpt>
      <trkpt lat="46.42714" lon="-1.16073">
        <ele>-0.39999999999998</ele>
        <time>2021-12-24T13:50:31Z</time>
      </trkpt>
      <trkpt lat="46.42705" lon="-1.16073">
        <ele>-0.19999999999999</ele>
        <time>2021-12-24T13:50:33Z</time>
      </trkpt>
      <trkpt lat="46.42701" lon="-1.16073">
        <ele>-0.19999999999999</ele>
        <time>2021-12-24T13:50:34Z</time>
      </trkpt>
      <trkpt lat="46.42696" lon="-1.16074">
        <ele>-0.19999999999999</ele>
        <time>2021-12-24T13:50:35Z</time>
      </trkpt>
      <trkpt lat="46.42687" lon="-1.16074">
        <ele>-0.39999999999998</ele>
        <time>2021-12-24T13:50:37Z</time>
      </trkpt>
      <trkpt lat="46.42677" lon="-1.16075">
        <ele>-0.19999999999999</ele>
        <time>2021-12-24T13:50:39Z</time>
      </trkpt>
      <trkpt lat="46.42668" lon="-1.16076">
        <ele>-0.39999999999998</ele>
        <time>2021-12-24T13:50:41Z</time>
      </trkpt>
      <trkpt lat="46.42663" lon="-1.16077">
        <ele>-0.39999999999998</ele>
        <time>2021-12-24T13:50:42Z</time>
      </trkpt>
      <trkpt lat="46.42658" lon="-1.16077">
        <ele>-0.39999999999998</ele>
        <time>2021-12-24T13:50:43Z</time>
      </trkpt>
      <trkpt lat="46.42648" lon="-1.16078">
        <ele>-0.39999999999998</ele>
        <time>2021-12-24T13:50:45Z</time>
      </trkpt>
      <trkpt lat="46.42639" lon="-1.16079">
        <ele>-0.39999999999998</ele>
        <time>2021-12-24T13:50:47Z</time>
      </trkpt>
      <trkpt lat="46.4263" lon="-1.1608">
        <ele>-0.39999999999998</ele>
        <time>2021-12-24T13:50:49Z</time>
      </trkpt>
      <trkpt lat="46.42621" lon="-1.16082">
        <ele>-0.39999999999998</ele>
        <time>2021-12-24T13:50:51Z</time>
      </trkpt>
      <trkpt lat="46.42616" lon="-1.16082">
        <ele>-0.39999999999998</ele>
        <time>2021-12-24T13:50:52Z</time>
      </trkpt>
      <trkpt lat="46.42611" lon="-1.16083">
        <ele>-0.60000000000002</ele>
        <time>2021-12-24T13:50:53Z</time>
      </trkpt>
      <trkpt lat="46.42601" lon="-1.16084">
        <ele>-0.60000000000002</ele>
        <time>2021-12-24T13:50:55Z</time>
      </trkpt>
      <trkpt lat="46.42591" lon="-1.16085">
        <ele>-0.39999999999998</ele>
        <time>2021-12-24T13:50:57Z</time>
      </trkpt>
      <trkpt lat="46.42582" lon="-1.16086">
        <ele>-0.39999999999998</ele>
        <time>2021-12-24T13:50:59Z</time>
      </trkpt>
      <trkpt lat="46.42573" lon="-1.16087">
        <ele>-0.39999999999998</ele>
        <time>2021-12-24T13:51:01Z</time>
      </trkpt>
      <trkpt lat="46.42568" lon="-1.16087">
        <ele>-0.39999999999998</ele>
        <time>2021-12-24T13:51:02Z</time>
      </trkpt>
      <trkpt lat="46.42563" lon="-1.16086">
        <ele>-0.60000000000002</ele>
        <time>2021-12-24T13:51:03Z</time>
      </trkpt>
      <trkpt lat="46.42554" lon="-1.16087">
        <ele>-0.60000000000002</ele>
        <time>2021-12-24T13:51:05Z</time>
      </trkpt>
      <trkpt lat="46.42544" lon="-1.16088">
        <ele>-0.60000000000002</ele>
        <time>2021-12-24T13:51:07Z</time>
      </trkpt>
      <trkpt lat="46.42535" lon="-1.16088">
        <ele>-0.60000000000002</ele>
        <time>2021-12-24T13:51:09Z</time>
      </trkpt>
      <trkpt lat="46.42525" lon="-1.16089">
        <ele>-0.60000000000002</ele>
        <time>2021-12-24T13:51:11Z</time>
      </trkpt>
      <trkpt lat="46.42516" lon="-1.1609">
        <ele>-0.39999999999998</ele>
        <time>2021-12-24T13:51:13Z</time>
      </trkpt>
      <trkpt lat="46.42511" lon="-1.1609">
        <ele>-0.39999999999998</ele>
        <time>2021-12-24T13:51:14Z</time>
      </trkpt>
      <trkpt lat="46.42507" lon="-1.1609">
        <ele>-0.39999999999998</ele>
        <time>2021-12-24T13:51:15Z</time>
      </trkpt>
      <trkpt lat="46.42497" lon="-1.16091">
        <ele>-0.39999999999998</ele>
        <time>2021-12-24T13:51:17Z</time>
      </trkpt>
      <trkpt lat="46.42487" lon="-1.16092">
        <ele>-0.60000000000002</ele>
        <time>2021-12-24T13:51:19Z</time>
      </trkpt>
      <trkpt lat="46.42478" lon="-1.16093">
        <ele>-0.60000000000002</ele>
        <time>2021-12-24T13:51:21Z</time>
      </trkpt>
      <trkpt lat="46.42474" lon="-1.16094">
        <ele>-0.60000000000002</ele>
        <time>2021-12-24T13:51:22Z</time>
      </trkpt>
      <trkpt lat="46.42469" lon="-1.16094">
        <ele>-0.60000000000002</ele>
        <time>2021-12-24T13:51:23Z</time>
      </trkpt>
      <trkpt lat="46.4246" lon="-1.16095">
        <ele>-0.60000000000002</ele>
        <time>2021-12-24T13:51:25Z</time>
      </trkpt>
      <trkpt lat="46.42451" lon="-1.16095">
        <ele>-0.60000000000002</ele>
        <time>2021-12-24T13:51:27Z</time>
      </trkpt>
      <trkpt lat="46.42441" lon="-1.16096">
        <ele>-0.60000000000002</ele>
        <time>2021-12-24T13:51:29Z</time>
      </trkpt>
      <trkpt lat="46.42437" lon="-1.16096">
        <ele>-0.60000000000002</ele>
        <time>2021-12-24T13:51:30Z</time>
      </trkpt>
      <trkpt lat="46.42432" lon="-1.16096">
        <ele>-0.60000000000002</ele>
        <time>2021-12-24T13:51:31Z</time>
      </trkpt>
      <trkpt lat="46.42422" lon="-1.16097">
        <ele>-0.60000000000002</ele>
        <time>2021-12-24T13:51:33Z</time>
      </trkpt>
      <trkpt lat="46.42412" lon="-1.16098">
        <ele>-0.60000000000002</ele>
        <time>2021-12-24T13:51:35Z</time>
      </trkpt>
      <trkpt lat="46.42402" lon="-1.16099">
        <ele>-0.60000000000002</ele>
        <time>2021-12-24T13:51:37Z</time>
      </trkpt>
      <trkpt lat="46.42393" lon="-1.161">
        <ele>-0.39999999999998</ele>
        <time>2021-12-24T13:51:39Z</time>
      </trkpt>
      <trkpt lat="46.42388" lon="-1.161">
        <ele>-0.60000000000002</ele>
        <time>2021-12-24T13:51:40Z</time>
      </trkpt>
      <trkpt lat="46.42383" lon="-1.16101">
        <ele>-0.60000000000002</ele>
        <time>2021-12-24T13:51:41Z</time>
      </trkpt>
      <trkpt lat="46.42374" lon="-1.16101">
        <ele>-0.60000000000002</ele>
        <time>2021-12-24T13:51:43Z</time>
      </trkpt>
      <trkpt lat="46.42365" lon="-1.16102">
        <ele>-0.60000000000002</ele>
        <time>2021-12-24T13:51:45Z</time>
      </trkpt>
      <trkpt lat="46.42355" lon="-1.16102">
        <ele>-0.60000000000002</ele>
        <time>2021-12-24T13:51:47Z</time>
      </trkpt>
      <trkpt lat="46.42346" lon="-1.16102">
        <ele>-0.39999999999998</ele>
        <time>2021-12-24T13:51:49Z</time>
      </trkpt>
      <trkpt lat="46.42336" lon="-1.16103">
        <ele>-0.60000000000002</ele>
        <time>2021-12-24T13:51:51Z</time>
      </trkpt>
      <trkpt lat="46.42326" lon="-1.16104">
        <ele>-0.60000000000002</ele>
        <time>2021-12-24T13:51:53Z</time>
      </trkpt>
      <trkpt lat="46.42316" lon="-1.16105">
        <ele>-0.60000000000002</ele>
        <time>2021-12-24T13:51:55Z</time>
      </trkpt>
      <trkpt lat="46.42306" lon="-1.16105">
        <ele>-0.60000000000002</ele>
        <time>2021-12-24T13:51:57Z</time>
      </trkpt>
      <trkpt lat="46.42301" lon="-1.16106">
        <ele>-0.60000000000002</ele>
        <time>2021-12-24T13:51:58Z</time>
      </trkpt>
      <trkpt lat="46.42296" lon="-1.16106">
        <ele>-0.60000000000002</ele>
        <time>2021-12-24T13:51:59Z</time>
      </trkpt>
      <trkpt lat="46.42286" lon="-1.16107">
        <ele>-0.39999999999998</ele>
        <time>2021-12-24T13:52:01Z</time>
      </trkpt>
      <trkpt lat="46.42277" lon="-1.16108">
        <ele>-0.60000000000002</ele>
        <time>2021-12-24T13:52:03Z</time>
      </trkpt>
      <trkpt lat="46.42267" lon="-1.16109">
        <ele>-0.60000000000002</ele>
        <time>2021-12-24T13:52:05Z</time>
      </trkpt>
      <trkpt lat="46.42263" lon="-1.16109">
        <ele>-0.60000000000002</ele>
        <time>2021-12-24T13:52:06Z</time>
      </trkpt>
      <trkpt lat="46.42258" lon="-1.16109">
        <ele>-0.60000000000002</ele>
        <time>2021-12-24T13:52:07Z</time>
      </trkpt>
      <trkpt lat="46.42248" lon="-1.1611">
        <ele>-0.60000000000002</ele>
        <time>2021-12-24T13:52:09Z</time>
      </trkpt>
      <trkpt lat="46.42238" lon="-1.16111">
        <ele>-0.60000000000002</ele>
        <time>2021-12-24T13:52:11Z</time>
      </trkpt>
      <trkpt lat="46.42228" lon="-1.16112">
        <ele>-0.60000000000002</ele>
        <time>2021-12-24T13:52:13Z</time>
      </trkpt>
      <trkpt lat="46.42224" lon="-1.16113">
        <ele>-0.60000000000002</ele>
        <time>2021-12-24T13:52:14Z</time>
      </trkpt>
      <trkpt lat="46.42219" lon="-1.16115">
        <ele>-0.60000000000002</ele>
        <time>2021-12-24T13:52:15Z</time>
      </trkpt>
      <trkpt lat="46.4221" lon="-1.16117">
        <ele>-0.60000000000002</ele>
        <time>2021-12-24T13:52:17Z</time>
      </trkpt>
      <trkpt lat="46.42201" lon="-1.16118">
        <ele>-0.39999999999998</ele>
        <time>2021-12-24T13:52:19Z</time>
      </trkpt>
      <trkpt lat="46.42196" lon="-1.16119">
        <ele>-0.39999999999998</ele>
        <time>2021-12-24T13:52:20Z</time>
      </trkpt>
      <trkpt lat="46.42191" lon="-1.16119">
        <ele>-0.39999999999998</ele>
        <time>2021-12-24T13:52:21Z</time>
      </trkpt>
      <trkpt lat="46.42182" lon="-1.16119">
        <ele>-0.39999999999998</ele>
        <time>2021-12-24T13:52:23Z</time>
      </trkpt>
      <trkpt lat="46.42173" lon="-1.16121">
        <ele>-0.39999999999998</ele>
        <time>2021-12-24T13:52:25Z</time>
      </trkpt>
      <trkpt lat="46.42164" lon="-1.16122">
        <ele>-0.39999999999998</ele>
        <time>2021-12-24T13:52:27Z</time>
      </trkpt>
      <trkpt lat="46.4216" lon="-1.16123">
        <ele>-0.39999999999998</ele>
        <time>2021-12-24T13:52:28Z</time>
      </trkpt>
      <trkpt lat="46.42155" lon="-1.16123">
        <ele>-0.39999999999998</ele>
        <time>2021-12-24T13:52:29Z</time>
      </trkpt>
      <trkpt lat="46.42146" lon="-1.16124">
        <ele>-0.39999999999998</ele>
        <time>2021-12-24T13:52:31Z</time>
      </trkpt>
      <trkpt lat="46.42136" lon="-1.16125">
        <ele>-0.39999999999998</ele>
        <time>2021-12-24T13:52:33Z</time>
      </trkpt>
      <trkpt lat="46.42126" lon="-1.16127">
        <ele>-0.19999999999999</ele>
        <time>2021-12-24T13:52:35Z</time>
      </trkpt>
      <trkpt lat="46.42121" lon="-1.16127">
        <ele>-0.19999999999999</ele>
        <time>2021-12-24T13:52:36Z</time>
      </trkpt>
      <trkpt lat="46.42116" lon="-1.16128">
        <ele>-0.19999999999999</ele>
        <time>2021-12-24T13:52:37Z</time>
      </trkpt>
      <trkpt lat="46.42107" lon="-1.16129">
        <ele>-0.19999999999999</ele>
        <time>2021-12-24T13:52:39Z</time>
      </trkpt>
      <trkpt lat="46.42097" lon="-1.1613">
        <ele>-0.19999999999999</ele>
        <time>2021-12-24T13:52:41Z</time>
      </trkpt>
      <trkpt lat="46.42092" lon="-1.16131">
        <ele>-0.19999999999999</ele>
        <time>2021-12-24T13:52:42Z</time>
      </trkpt>
      <trkpt lat="46.42087" lon="-1.16131">
        <ele>-0.39999999999998</ele>
        <time>2021-12-24T13:52:43Z</time>
      </trkpt>
      <trkpt lat="46.42078" lon="-1.16132">
        <ele>-0.19999999999999</ele>
        <time>2021-12-24T13:52:45Z</time>
      </trkpt>
      <trkpt lat="46.42068" lon="-1.16131">
        <ele>-0.19999999999999</ele>
        <time>2021-12-24T13:52:47Z</time>
      </trkpt>
      <trkpt lat="46.42063" lon="-1.16132">
        <ele>-0.19999999999999</ele>
        <time>2021-12-24T13:52:48Z</time>
      </trkpt>
      <trkpt lat="46.42059" lon="-1.16132">
        <ele>-0.19999999999999</ele>
        <time>2021-12-24T13:52:49Z</time>
      </trkpt>
      <trkpt lat="46.4205" lon="-1.16133">
        <ele>-0.19999999999999</ele>
        <time>2021-12-24T13:52:51Z</time>
      </trkpt>
      <trkpt lat="46.42041" lon="-1.16134">
        <ele>-0.19999999999999</ele>
        <time>2021-12-24T13:52:53Z</time>
      </trkpt>
      <trkpt lat="46.42031" lon="-1.16134">
        <ele>-0.19999999999999</ele>
        <time>2021-12-24T13:52:55Z</time>
      </trkpt>
      <trkpt lat="46.42022" lon="-1.16134">
        <ele>-0.19999999999999</ele>
        <time>2021-12-24T13:52:57Z</time>
      </trkpt>
      <trkpt lat="46.42013" lon="-1.16134">
        <ele>-0.19999999999999</ele>
        <time>2021-12-24T13:52:59Z</time>
      </trkpt>
      <trkpt lat="46.42004" lon="-1.16134">
        <ele>-0.19999999999999</ele>
        <time>2021-12-24T13:53:01Z</time>
      </trkpt>
      <trkpt lat="46.42" lon="-1.16135">
        <ele>-0.19999999999999</ele>
        <time>2021-12-24T13:53:02Z</time>
      </trkpt>
      <trkpt lat="46.41996" lon="-1.16135">
        <ele>-0.19999999999999</ele>
        <time>2021-12-24T13:53:03Z</time>
      </trkpt>
      <trkpt lat="46.41987" lon="-1.16134">
        <ele>-0.19999999999999</ele>
        <time>2021-12-24T13:53:05Z</time>
      </trkpt>
      <trkpt lat="46.41979" lon="-1.16133">
        <ele>-0.19999999999999</ele>
        <time>2021-12-24T13:53:07Z</time>
      </trkpt>
      <trkpt lat="46.41974" lon="-1.16133">
        <ele>-0.19999999999999</ele>
        <time>2021-12-24T13:53:08Z</time>
      </trkpt>
      <trkpt lat="46.4197" lon="-1.16134">
        <ele>-0.19999999999999</ele>
        <time>2021-12-24T13:53:09Z</time>
      </trkpt>
      <trkpt lat="46.41965" lon="-1.16135">
        <ele>-0.19999999999999</ele>
        <time>2021-12-24T13:53:10Z</time>
      </trkpt>
      <trkpt lat="46.41961" lon="-1.16136">
        <ele>-0.19999999999999</ele>
        <time>2021-12-24T13:53:11Z</time>
      </trkpt>
      <trkpt lat="46.41953" lon="-1.16138">
        <ele>-0.19999999999999</ele>
        <time>2021-12-24T13:53:13Z</time>
      </trkpt>
      <trkpt lat="46.41945" lon="-1.16141">
        <ele>0.19999999999999</ele>
        <time>2021-12-24T13:53:15Z</time>
      </trkpt>
      <trkpt lat="46.41941" lon="-1.16144">
        <ele>0.19999999999999</ele>
        <time>2021-12-24T13:53:16Z</time>
      </trkpt>
      <trkpt lat="46.41937" lon="-1.16146">
        <ele>0.19999999999999</ele>
        <time>2021-12-24T13:53:17Z</time>
      </trkpt>
      <trkpt lat="46.41928" lon="-1.16152">
        <ele>0.19999999999999</ele>
        <time>2021-12-24T13:53:19Z</time>
      </trkpt>
      <trkpt lat="46.4192" lon="-1.16158">
        <ele>0.19999999999999</ele>
        <time>2021-12-24T13:53:21Z</time>
      </trkpt>
      <trkpt lat="46.41916" lon="-1.16162">
        <ele>0.19999999999999</ele>
        <time>2021-12-24T13:53:22Z</time>
      </trkpt>
      <trkpt lat="46.41912" lon="-1.16165">
        <ele>0.19999999999999</ele>
        <time>2021-12-24T13:53:23Z</time>
      </trkpt>
      <trkpt lat="46.41903" lon="-1.16172">
        <ele>0.19999999999999</ele>
        <time>2021-12-24T13:53:25Z</time>
      </trkpt>
      <trkpt lat="46.41895" lon="-1.16179">
        <ele>0.19999999999999</ele>
        <time>2021-12-24T13:53:27Z</time>
      </trkpt>
      <trkpt lat="46.41886" lon="-1.16186">
        <ele>0.19999999999999</ele>
        <time>2021-12-24T13:53:29Z</time>
      </trkpt>
      <trkpt lat="46.41882" lon="-1.16189">
        <ele>0.19999999999999</ele>
        <time>2021-12-24T13:53:30Z</time>
      </trkpt>
      <trkpt lat="46.41879" lon="-1.16192">
        <ele>0.19999999999999</ele>
        <time>2021-12-24T13:53:31Z</time>
      </trkpt>
      <trkpt lat="46.41871" lon="-1.16199">
        <ele>0.19999999999999</ele>
        <time>2021-12-24T13:53:33Z</time>
      </trkpt>
      <trkpt lat="46.41863" lon="-1.16205">
        <ele>0.19999999999999</ele>
        <time>2021-12-24T13:53:35Z</time>
      </trkpt>
      <trkpt lat="46.41855" lon="-1.16212">
        <ele>0.39999999999998</ele>
        <time>2021-12-24T13:53:37Z</time>
      </trkpt>
      <trkpt lat="46.41851" lon="-1.16215">
        <ele>0.39999999999998</ele>
        <time>2021-12-24T13:53:38Z</time>
      </trkpt>
      <trkpt lat="46.41848" lon="-1.16218">
        <ele>0.39999999999998</ele>
        <time>2021-12-24T13:53:39Z</time>
      </trkpt>
      <trkpt lat="46.4184" lon="-1.16225">
        <ele>0.39999999999998</ele>
        <time>2021-12-24T13:53:41Z</time>
      </trkpt>
      <trkpt lat="46.41834" lon="-1.16232">
        <ele>0.39999999999998</ele>
        <time>2021-12-24T13:53:43Z</time>
      </trkpt>
      <trkpt lat="46.41831" lon="-1.16234">
        <ele>0.19999999999999</ele>
        <time>2021-12-24T13:53:44Z</time>
      </trkpt>
      <trkpt lat="46.41828" lon="-1.16236">
        <ele>0.19999999999999</ele>
        <time>2021-12-24T13:53:45Z</time>
      </trkpt>
      <trkpt lat="46.41822" lon="-1.16242">
        <ele>0.39999999999998</ele>
        <time>2021-12-24T13:53:47Z</time>
      </trkpt>
      <trkpt lat="46.41816" lon="-1.16247">
        <ele>0.39999999999998</ele>
        <time>2021-12-24T13:53:49Z</time>
      </trkpt>
      <trkpt lat="46.41813" lon="-1.16249">
        <ele>0.39999999999998</ele>
        <time>2021-12-24T13:53:50Z</time>
      </trkpt>
      <trkpt lat="46.4181" lon="-1.16252">
        <ele>0.39999999999998</ele>
        <time>2021-12-24T13:53:51Z</time>
      </trkpt>
      <trkpt lat="46.41804" lon="-1.16256">
        <ele>0.19999999999999</ele>
        <time>2021-12-24T13:53:53Z</time>
      </trkpt>
      <trkpt lat="46.41798" lon="-1.16261">
        <ele>0.19999999999999</ele>
        <time>2021-12-24T13:53:55Z</time>
      </trkpt>
      <trkpt lat="46.41794" lon="-1.16264">
        <ele>0.19999999999999</ele>
        <time>2021-12-24T13:53:56Z</time>
      </trkpt>
      <trkpt lat="46.4179" lon="-1.16267">
        <ele>0.19999999999999</ele>
        <time>2021-12-24T13:53:57Z</time>
      </trkpt>
      <trkpt lat="46.41783" lon="-1.16272">
        <ele>0.39999999999998</ele>
        <time>2021-12-24T13:53:59Z</time>
      </trkpt>
      <trkpt lat="46.41776" lon="-1.16278">
        <ele>0.19999999999999</ele>
        <time>2021-12-24T13:54:01Z</time>
      </trkpt>
      <trkpt lat="46.41767" lon="-1.16283">
        <ele>0.19999999999999</ele>
        <time>2021-12-24T13:54:03Z</time>
      </trkpt>
      <trkpt lat="46.4176" lon="-1.16288">
        <ele>0.19999999999999</ele>
        <time>2021-12-24T13:54:05Z</time>
      </trkpt>
      <trkpt lat="46.41751" lon="-1.16293">
        <ele>0.19999999999999</ele>
        <time>2021-12-24T13:54:07Z</time>
      </trkpt>
      <trkpt lat="46.41743" lon="-1.16298">
        <ele>0.19999999999999</ele>
        <time>2021-12-24T13:54:09Z</time>
      </trkpt>
      <trkpt lat="46.41739" lon="-1.163">
        <ele>0.19999999999999</ele>
        <time>2021-12-24T13:54:10Z</time>
      </trkpt>
      <trkpt lat="46.41735" lon="-1.16301">
        <ele>0.19999999999999</ele>
        <time>2021-12-24T13:54:11Z</time>
      </trkpt>
      <trkpt lat="46.41726" lon="-1.16306">
        <ele>0.19999999999999</ele>
        <time>2021-12-24T13:54:13Z</time>
      </trkpt>
      <trkpt lat="46.41718" lon="-1.1631">
        <ele>0.19999999999999</ele>
        <time>2021-12-24T13:54:15Z</time>
      </trkpt>
      <trkpt lat="46.41709" lon="-1.16316">
        <ele>0.19999999999999</ele>
        <time>2021-12-24T13:54:17Z</time>
      </trkpt>
      <trkpt lat="46.41705" lon="-1.16318">
        <ele>0.19999999999999</ele>
        <time>2021-12-24T13:54:18Z</time>
      </trkpt>
      <trkpt lat="46.41701" lon="-1.1632">
        <ele>0.19999999999999</ele>
        <time>2021-12-24T13:54:19Z</time>
      </trkpt>
      <trkpt lat="46.41693" lon="-1.16325">
        <ele>0.19999999999999</ele>
        <time>2021-12-24T13:54:21Z</time>
      </trkpt>
      <trkpt lat="46.41685" lon="-1.1633">
        <ele>0.19999999999999</ele>
        <time>2021-12-24T13:54:23Z</time>
      </trkpt>
      <trkpt lat="46.41682" lon="-1.16333">
        <ele>0.19999999999999</ele>
        <time>2021-12-24T13:54:24Z</time>
      </trkpt>
      <trkpt lat="46.41678" lon="-1.16335">
        <ele>0.19999999999999</ele>
        <time>2021-12-24T13:54:25Z</time>
      </trkpt>
      <trkpt lat="46.4167" lon="-1.16341">
        <ele>0.19999999999999</ele>
        <time>2021-12-24T13:54:27Z</time>
      </trkpt>
      <trkpt lat="46.41662" lon="-1.16346">
        <ele>0.19999999999999</ele>
        <time>2021-12-24T13:54:29Z</time>
      </trkpt>
      <trkpt lat="46.41654" lon="-1.1635">
        <ele>0.19999999999999</ele>
        <time>2021-12-24T13:54:31Z</time>
      </trkpt>
      <trkpt lat="46.4165" lon="-1.16352">
        <ele>0.19999999999999</ele>
        <time>2021-12-24T13:54:32Z</time>
      </trkpt>
      <trkpt lat="46.41647" lon="-1.16355">
        <ele>0.19999999999999</ele>
        <time>2021-12-24T13:54:33Z</time>
      </trkpt>
      <trkpt lat="46.41639" lon="-1.1636">
        <ele>0.19999999999999</ele>
        <time>2021-12-24T13:54:35Z</time>
      </trkpt>
      <trkpt lat="46.41635" lon="-1.16362">
        <ele>0.19999999999999</ele>
        <time>2021-12-24T13:54:36Z</time>
      </trkpt>
      <trkpt lat="46.41631" lon="-1.16364">
        <ele>0.19999999999999</ele>
        <time>2021-12-24T13:54:37Z</time>
      </trkpt>
      <trkpt lat="46.41622" lon="-1.16369">
        <ele>0.19999999999999</ele>
        <time>2021-12-24T13:54:39Z</time>
      </trkpt>
      <trkpt lat="46.41618" lon="-1.16371">
        <ele>0.19999999999999</ele>
        <time>2021-12-24T13:54:40Z</time>
      </trkpt>
      <trkpt lat="46.41614" lon="-1.16373">
        <ele>0.19999999999999</ele>
        <time>2021-12-24T13:54:41Z</time>
      </trkpt>
      <trkpt lat="46.41605" lon="-1.16377">
        <ele>0.19999999999999</ele>
        <time>2021-12-24T13:54:43Z</time>
      </trkpt>
      <trkpt lat="46.41596" lon="-1.16383">
        <ele>0.19999999999999</ele>
        <time>2021-12-24T13:54:45Z</time>
      </trkpt>
      <trkpt lat="46.41588" lon="-1.16387">
        <ele>0.19999999999999</ele>
        <time>2021-12-24T13:54:47Z</time>
      </trkpt>
      <trkpt lat="46.41584" lon="-1.16389">
        <ele>0.19999999999999</ele>
        <time>2021-12-24T13:54:48Z</time>
      </trkpt>
      <trkpt lat="46.4158" lon="-1.16391">
        <ele>0.19999999999999</ele>
        <time>2021-12-24T13:54:49Z</time>
      </trkpt>
      <trkpt lat="46.41571" lon="-1.16395">
        <ele>0.19999999999999</ele>
        <time>2021-12-24T13:54:51Z</time>
      </trkpt>
      <trkpt lat="46.41562" lon="-1.164">
        <ele>0.19999999999999</ele>
        <time>2021-12-24T13:54:53Z</time>
      </trkpt>
      <trkpt lat="46.41554" lon="-1.16404">
        <ele>0.19999999999999</ele>
        <time>2021-12-24T13:54:55Z</time>
      </trkpt>
      <trkpt lat="46.41546" lon="-1.16408">
        <ele>0.19999999999999</ele>
        <time>2021-12-24T13:54:57Z</time>
      </trkpt>
      <trkpt lat="46.41537" lon="-1.16413">
        <ele>0.19999999999999</ele>
        <time>2021-12-24T13:54:59Z</time>
      </trkpt>
      <trkpt lat="46.41529" lon="-1.16417">
        <ele>0.19999999999999</ele>
        <time>2021-12-24T13:55:01Z</time>
      </trkpt>
      <trkpt lat="46.41521" lon="-1.16421">
        <ele>0.19999999999999</ele>
        <time>2021-12-24T13:55:03Z</time>
      </trkpt>
      <trkpt lat="46.41512" lon="-1.16426">
        <ele>0.39999999999998</ele>
        <time>2021-12-24T13:55:05Z</time>
      </trkpt>
      <trkpt lat="46.41504" lon="-1.1643">
        <ele>0.39999999999998</ele>
        <time>2021-12-24T13:55:07Z</time>
      </trkpt>
      <trkpt lat="46.41495" lon="-1.16433">
        <ele>0.19999999999999</ele>
        <time>2021-12-24T13:55:09Z</time>
      </trkpt>
      <trkpt lat="46.41491" lon="-1.16435">
        <ele>0.39999999999998</ele>
        <time>2021-12-24T13:55:10Z</time>
      </trkpt>
      <trkpt lat="46.41487" lon="-1.16438">
        <ele>0.39999999999998</ele>
        <time>2021-12-24T13:55:11Z</time>
      </trkpt>
      <trkpt lat="46.41482" lon="-1.1644">
        <ele>0.19999999999999</ele>
        <time>2021-12-24T13:55:13Z</time>
      </trkpt>
      <trkpt lat="46.41482" lon="-1.1644">
        <ele>0.19999999999999</ele>
        <time>2021-12-24T13:55:15Z</time>
      </trkpt>
      <trkpt lat="46.41492" lon="-1.16434">
        <ele>-1.6</ele>
        <time>2021-12-24T14:08:26Z</time>
      </trkpt>
      <trkpt lat="46.4149" lon="-1.16435">
        <ele>-1.6</ele>
        <time>2021-12-24T14:08:27Z</time>
      </trkpt>
      <trkpt lat="46.41486" lon="-1.16437">
        <ele>-1.6</ele>
        <time>2021-12-24T14:08:29Z</time>
      </trkpt>
      <trkpt lat="46.4148" lon="-1.16439">
        <ele>-1.4</ele>
        <time>2021-12-24T14:08:31Z</time>
      </trkpt>
      <trkpt lat="46.41478" lon="-1.1644">
        <ele>-1.4</ele>
        <time>2021-12-24T14:08:32Z</time>
      </trkpt>
      <trkpt lat="46.41475" lon="-1.16441">
        <ele>-1.2</ele>
        <time>2021-12-24T14:08:33Z</time>
      </trkpt>
      <trkpt lat="46.41469" lon="-1.16444">
        <ele>-1.2</ele>
        <time>2021-12-24T14:08:35Z</time>
      </trkpt>
      <trkpt lat="46.41461" lon="-1.16448">
        <ele>-1.2</ele>
        <time>2021-12-24T14:08:37Z</time>
      </trkpt>
      <trkpt lat="46.41453" lon="-1.16452">
        <ele>-1</ele>
        <time>2021-12-24T14:08:39Z</time>
      </trkpt>
      <trkpt lat="46.41445" lon="-1.16455">
        <ele>-1.2</ele>
        <time>2021-12-24T14:08:41Z</time>
      </trkpt>
      <trkpt lat="46.41438" lon="-1.16459">
        <ele>-1.2</ele>
        <time>2021-12-24T14:08:43Z</time>
      </trkpt>
      <trkpt lat="46.41434" lon="-1.16461">
        <ele>-1</ele>
        <time>2021-12-24T14:08:44Z</time>
      </trkpt>
      <trkpt lat="46.41431" lon="-1.16462">
        <ele>-1</ele>
        <time>2021-12-24T14:08:45Z</time>
      </trkpt>
      <trkpt lat="46.41424" lon="-1.16466">
        <ele>-1</ele>
        <time>2021-12-24T14:08:47Z</time>
      </trkpt>
      <trkpt lat="46.4142" lon="-1.16468">
        <ele>-1</ele>
        <time>2021-12-24T14:08:48Z</time>
      </trkpt>
      <trkpt lat="46.41416" lon="-1.1647">
        <ele>-1</ele>
        <time>2021-12-24T14:08:49Z</time>
      </trkpt>
      <trkpt lat="46.41412" lon="-1.16473">
        <ele>-1</ele>
        <time>2021-12-24T14:08:50Z</time>
      </trkpt>
      <trkpt lat="46.41408" lon="-1.16475">
        <ele>-1</ele>
        <time>2021-12-24T14:08:51Z</time>
      </trkpt>
      <trkpt lat="46.414" lon="-1.1648">
        <ele>-1</ele>
        <time>2021-12-24T14:08:53Z</time>
      </trkpt>
      <trkpt lat="46.41391" lon="-1.16485">
        <ele>-1.2</ele>
        <time>2021-12-24T14:08:55Z</time>
      </trkpt>
      <trkpt lat="46.41383" lon="-1.16491">
        <ele>-1.2</ele>
        <time>2021-12-24T14:08:57Z</time>
      </trkpt>
      <trkpt lat="46.41374" lon="-1.16496">
        <ele>-1.2</ele>
        <time>2021-12-24T14:08:59Z</time>
      </trkpt>
      <trkpt lat="46.41366" lon="-1.16502">
        <ele>-1</ele>
        <time>2021-12-24T14:09:01Z</time>
      </trkpt>
      <trkpt lat="46.41358" lon="-1.16507">
        <ele>-1</ele>
        <time>2021-12-24T14:09:03Z</time>
      </trkpt>
      <trkpt lat="46.41349" lon="-1.16513">
        <ele>-1</ele>
        <time>2021-12-24T14:09:05Z</time>
      </trkpt>
      <trkpt lat="46.41341" lon="-1.16518">
        <ele>-1</ele>
        <time>2021-12-24T14:09:07Z</time>
      </trkpt>
      <trkpt lat="46.41333" lon="-1.16524">
        <ele>-1</ele>
        <time>2021-12-24T14:09:09Z</time>
      </trkpt>
      <trkpt lat="46.41325" lon="-1.1653">
        <ele>-1</ele>
        <time>2021-12-24T14:09:11Z</time>
      </trkpt>
      <trkpt lat="46.41322" lon="-1.16532">
        <ele>-1.2</ele>
        <time>2021-12-24T14:09:12Z</time>
      </trkpt>
      <trkpt lat="46.41318" lon="-1.16535">
        <ele>-1</ele>
        <time>2021-12-24T14:09:13Z</time>
      </trkpt>
      <trkpt lat="46.41314" lon="-1.16537">
        <ele>-1</ele>
        <time>2021-12-24T14:09:14Z</time>
      </trkpt>
      <trkpt lat="46.4131" lon="-1.1654">
        <ele>-1</ele>
        <time>2021-12-24T14:09:15Z</time>
      </trkpt>
      <trkpt lat="46.413" lon="-1.16546">
        <ele>-1</ele>
        <time>2021-12-24T14:09:17Z</time>
      </trkpt>
      <trkpt lat="46.4129" lon="-1.16551">
        <ele>-1</ele>
        <time>2021-12-24T14:09:19Z</time>
      </trkpt>
      <trkpt lat="46.4128" lon="-1.16557">
        <ele>-1.2</ele>
        <time>2021-12-24T14:09:21Z</time>
      </trkpt>
      <trkpt lat="46.41275" lon="-1.1656">
        <ele>-1.2</ele>
        <time>2021-12-24T14:09:22Z</time>
      </trkpt>
      <trkpt lat="46.4127" lon="-1.16562">
        <ele>-1.2</ele>
        <time>2021-12-24T14:09:23Z</time>
      </trkpt>
      <trkpt lat="46.41261" lon="-1.16567">
        <ele>-1.2</ele>
        <time>2021-12-24T14:09:25Z</time>
      </trkpt>
      <trkpt lat="46.41253" lon="-1.16571">
        <ele>-1.2</ele>
        <time>2021-12-24T14:09:27Z</time>
      </trkpt>
      <trkpt lat="46.41249" lon="-1.16571">
        <ele>-1</ele>
        <time>2021-12-24T14:09:28Z</time>
      </trkpt>
      <trkpt lat="46.41245" lon="-1.16573">
        <ele>-1</ele>
        <time>2021-12-24T14:09:29Z</time>
      </trkpt>
      <trkpt lat="46.41237" lon="-1.16575">
        <ele>-1</ele>
        <time>2021-12-24T14:09:31Z</time>
      </trkpt>
      <trkpt lat="46.41228" lon="-1.16575">
        <ele>-0.80000000000001</ele>
        <time>2021-12-24T14:09:33Z</time>
      </trkpt>
      <trkpt lat="46.41219" lon="-1.16576">
        <ele>-0.80000000000001</ele>
        <time>2021-12-24T14:09:35Z</time>
      </trkpt>
      <trkpt lat="46.4121" lon="-1.16577">
        <ele>-0.80000000000001</ele>
        <time>2021-12-24T14:09:37Z</time>
      </trkpt>
      <trkpt lat="46.412" lon="-1.16579">
        <ele>-0.80000000000001</ele>
        <time>2021-12-24T14:09:39Z</time>
      </trkpt>
      <trkpt lat="46.4119" lon="-1.1658">
        <ele>-0.80000000000001</ele>
        <time>2021-12-24T14:09:41Z</time>
      </trkpt>
      <trkpt lat="46.4118" lon="-1.16582">
        <ele>-0.80000000000001</ele>
        <time>2021-12-24T14:09:43Z</time>
      </trkpt>
      <trkpt lat="46.41171" lon="-1.16583">
        <ele>-0.80000000000001</ele>
        <time>2021-12-24T14:09:45Z</time>
      </trkpt>
      <trkpt lat="46.41162" lon="-1.16585">
        <ele>-0.80000000000001</ele>
        <time>2021-12-24T14:09:47Z</time>
      </trkpt>
      <trkpt lat="46.41152" lon="-1.16588">
        <ele>-0.60000000000002</ele>
        <time>2021-12-24T14:09:49Z</time>
      </trkpt>
      <trkpt lat="46.41143" lon="-1.16589">
        <ele>-0.60000000000002</ele>
        <time>2021-12-24T14:09:51Z</time>
      </trkpt>
      <trkpt lat="46.41133" lon="-1.16591">
        <ele>-0.60000000000002</ele>
        <time>2021-12-24T14:09:53Z</time>
      </trkpt>
      <trkpt lat="46.41123" lon="-1.16592">
        <ele>-0.60000000000002</ele>
        <time>2021-12-24T14:09:55Z</time>
      </trkpt>
      <trkpt lat="46.41113" lon="-1.16594">
        <ele>-0.60000000000002</ele>
        <time>2021-12-24T14:09:57Z</time>
      </trkpt>
      <trkpt lat="46.41102" lon="-1.16596">
        <ele>-0.39999999999998</ele>
        <time>2021-12-24T14:09:59Z</time>
      </trkpt>
      <trkpt lat="46.41092" lon="-1.16598">
        <ele>-0.39999999999998</ele>
        <time>2021-12-24T14:10:01Z</time>
      </trkpt>
      <trkpt lat="46.41082" lon="-1.166">
        <ele>-0.39999999999998</ele>
        <time>2021-12-24T14:10:03Z</time>
      </trkpt>
      <trkpt lat="46.41071" lon="-1.16602">
        <ele>-0.39999999999998</ele>
        <time>2021-12-24T14:10:05Z</time>
      </trkpt>
      <trkpt lat="46.41061" lon="-1.16604">
        <ele>-0.39999999999998</ele>
        <time>2021-12-24T14:10:07Z</time>
      </trkpt>
      <trkpt lat="46.41052" lon="-1.16606">
        <ele>-0.39999999999998</ele>
        <time>2021-12-24T14:10:09Z</time>
      </trkpt>
      <trkpt lat="46.41041" lon="-1.16607">
        <ele>-0.39999999999998</ele>
        <time>2021-12-24T14:10:11Z</time>
      </trkpt>
      <trkpt lat="46.41031" lon="-1.16609">
        <ele>-0.39999999999998</ele>
        <time>2021-12-24T14:10:13Z</time>
      </trkpt>
      <trkpt lat="46.4102" lon="-1.16611">
        <ele>-0.19999999999999</ele>
        <time>2021-12-24T14:10:15Z</time>
      </trkpt>
      <trkpt lat="46.4101" lon="-1.16612">
        <ele>-0.19999999999999</ele>
        <time>2021-12-24T14:10:17Z</time>
      </trkpt>
      <trkpt lat="46.41" lon="-1.16614">
        <ele>-0.19999999999999</ele>
        <time>2021-12-24T14:10:19Z</time>
      </trkpt>
      <trkpt lat="46.4099" lon="-1.16616">
        <ele>-0.19999999999999</ele>
        <time>2021-12-24T14:10:21Z</time>
      </trkpt>
      <trkpt lat="46.4098" lon="-1.16617">
        <ele>-0.19999999999999</ele>
        <time>2021-12-24T14:10:23Z</time>
      </trkpt>
      <trkpt lat="46.4097" lon="-1.16619">
        <ele>-0.19999999999999</ele>
        <time>2021-12-24T14:10:25Z</time>
      </trkpt>
      <trkpt lat="46.4096" lon="-1.1662">
        <ele>-0.19999999999999</ele>
        <time>2021-12-24T14:10:27Z</time>
      </trkpt>
      <trkpt lat="46.4095" lon="-1.16622">
        <ele>-0.19999999999999</ele>
        <time>2021-12-24T14:10:29Z</time>
      </trkpt>
      <trkpt lat="46.40945" lon="-1.16623">
        <ele>-0.19999999999999</ele>
        <time>2021-12-24T14:10:30Z</time>
      </trkpt>
      <trkpt lat="46.4094" lon="-1.16624">
        <ele>-0.19999999999999</ele>
        <time>2021-12-24T14:10:31Z</time>
      </trkpt>
      <trkpt lat="46.4093" lon="-1.16625">
        <ele>-0.19999999999999</ele>
        <time>2021-12-24T14:10:33Z</time>
      </trkpt>
      <trkpt lat="46.4092" lon="-1.16627">
        <ele>-0.19999999999999</ele>
        <time>2021-12-24T14:10:35Z</time>
      </trkpt>
      <trkpt lat="46.4091" lon="-1.16629">
        <ele>-0.19999999999999</ele>
        <time>2021-12-24T14:10:37Z</time>
      </trkpt>
      <trkpt lat="46.40905" lon="-1.16629">
        <ele>0.19999999999999</ele>
        <time>2021-12-24T14:10:38Z</time>
      </trkpt>
      <trkpt lat="46.409" lon="-1.1663">
        <ele>0.19999999999999</ele>
        <time>2021-12-24T14:10:39Z</time>
      </trkpt>
      <trkpt lat="46.40889" lon="-1.16632">
        <ele>0.19999999999999</ele>
        <time>2021-12-24T14:10:41Z</time>
      </trkpt>
      <trkpt lat="46.40879" lon="-1.16633">
        <ele>0.19999999999999</ele>
        <time>2021-12-24T14:10:43Z</time>
      </trkpt>
      <trkpt lat="46.40869" lon="-1.16635">
        <ele>0.19999999999999</ele>
        <time>2021-12-24T14:10:45Z</time>
      </trkpt>
      <trkpt lat="46.40858" lon="-1.16637">
        <ele>0.19999999999999</ele>
        <time>2021-12-24T14:10:47Z</time>
      </trkpt>
      <trkpt lat="46.40853" lon="-1.16638">
        <ele>0.19999999999999</ele>
        <time>2021-12-24T14:10:48Z</time>
      </trkpt>
      <trkpt lat="46.40848" lon="-1.16639">
        <ele>0.19999999999999</ele>
        <time>2021-12-24T14:10:49Z</time>
      </trkpt>
      <trkpt lat="46.40838" lon="-1.1664">
        <ele>0.19999999999999</ele>
        <time>2021-12-24T14:10:51Z</time>
      </trkpt>
      <trkpt lat="46.40827" lon="-1.16642">
        <ele>0.19999999999999</ele>
        <time>2021-12-24T14:10:53Z</time>
      </trkpt>
      <trkpt lat="46.40817" lon="-1.16644">
        <ele>0.19999999999999</ele>
        <time>2021-12-24T14:10:55Z</time>
      </trkpt>
      <trkpt lat="46.40812" lon="-1.16645">
        <ele>0.19999999999999</ele>
        <time>2021-12-24T14:10:56Z</time>
      </trkpt>
      <trkpt lat="46.40807" lon="-1.16646">
        <ele>0.19999999999999</ele>
        <time>2021-12-24T14:10:57Z</time>
      </trkpt>
      <trkpt lat="46.40797" lon="-1.16648">
        <ele>0.19999999999999</ele>
        <time>2021-12-24T14:10:59Z</time>
      </trkpt>
      <trkpt lat="46.40787" lon="-1.16651">
        <ele>0.19999999999999</ele>
        <time>2021-12-24T14:11:01Z</time>
      </trkpt>
      <trkpt lat="46.40777" lon="-1.16654">
        <ele>0.19999999999999</ele>
        <time>2021-12-24T14:11:03Z</time>
      </trkpt>
      <trkpt lat="46.40767" lon="-1.16656">
        <ele>0.19999999999999</ele>
        <time>2021-12-24T14:11:05Z</time>
      </trkpt>
      <trkpt lat="46.40756" lon="-1.16659">
        <ele>0.39999999999998</ele>
        <time>2021-12-24T14:11:07Z</time>
      </trkpt>
      <trkpt lat="46.40746" lon="-1.16661">
        <ele>0.39999999999998</ele>
        <time>2021-12-24T14:11:09Z</time>
      </trkpt>
      <trkpt lat="46.40736" lon="-1.16663">
        <ele>0.60000000000002</ele>
        <time>2021-12-24T14:11:11Z</time>
      </trkpt>
      <trkpt lat="46.40726" lon="-1.16667">
        <ele>0.39999999999998</ele>
        <time>2021-12-24T14:11:13Z</time>
      </trkpt>
      <trkpt lat="46.40722" lon="-1.16668">
        <ele>0.60000000000002</ele>
        <time>2021-12-24T14:11:14Z</time>
      </trkpt>
      <trkpt lat="46.40717" lon="-1.1667">
        <ele>0.39999999999998</ele>
        <time>2021-12-24T14:11:15Z</time>
      </trkpt>
      <trkpt lat="46.40707" lon="-1.16674">
        <ele>0.39999999999998</ele>
        <time>2021-12-24T14:11:17Z</time>
      </trkpt>
      <trkpt lat="46.40697" lon="-1.1668">
        <ele>0.39999999999998</ele>
        <time>2021-12-24T14:11:19Z</time>
      </trkpt>
      <trkpt lat="46.40688" lon="-1.16686">
        <ele>0.19999999999999</ele>
        <time>2021-12-24T14:11:21Z</time>
      </trkpt>
      <trkpt lat="46.40683" lon="-1.16689">
        <ele>0.39999999999998</ele>
        <time>2021-12-24T14:11:22Z</time>
      </trkpt>
      <trkpt lat="46.40679" lon="-1.16693">
        <ele>0.19999999999999</ele>
        <time>2021-12-24T14:11:23Z</time>
      </trkpt>
      <trkpt lat="46.4067" lon="-1.16701">
        <ele>0.19999999999999</ele>
        <time>2021-12-24T14:11:25Z</time>
      </trkpt>
      <trkpt lat="46.40666" lon="-1.16705">
        <ele>0.19999999999999</ele>
        <time>2021-12-24T14:11:26Z</time>
      </trkpt>
      <trkpt lat="46.40661" lon="-1.16707">
        <ele>0.19999999999999</ele>
        <time>2021-12-24T14:11:27Z</time>
      </trkpt>
      <trkpt lat="46.40657" lon="-1.1671">
        <ele>0.19999999999999</ele>
        <time>2021-12-24T14:11:28Z</time>
      </trkpt>
      <trkpt lat="46.40652" lon="-1.16712">
        <ele>0.19999999999999</ele>
        <time>2021-12-24T14:11:29Z</time>
      </trkpt>
      <trkpt lat="46.40647" lon="-1.16714">
        <ele>0.19999999999999</ele>
        <time>2021-12-24T14:11:30Z</time>
      </trkpt>
      <trkpt lat="46.40642" lon="-1.16714">
        <ele>0.19999999999999</ele>
        <time>2021-12-24T14:11:31Z</time>
      </trkpt>
      <trkpt lat="46.40638" lon="-1.16714">
        <ele>0.19999999999999</ele>
        <time>2021-12-24T14:11:32Z</time>
      </trkpt>
      <trkpt lat="46.40633" lon="-1.16713">
        <ele>0.19999999999999</ele>
        <time>2021-12-24T14:11:33Z</time>
      </trkpt>
      <trkpt lat="46.40623" lon="-1.1671">
        <ele>0.19999999999999</ele>
        <time>2021-12-24T14:11:35Z</time>
      </trkpt>
      <trkpt lat="46.40614" lon="-1.16706">
        <ele>0.19999999999999</ele>
        <time>2021-12-24T14:11:37Z</time>
      </trkpt>
      <trkpt lat="46.40605" lon="-1.16702">
        <ele>0.19999999999999</ele>
        <time>2021-12-24T14:11:39Z</time>
      </trkpt>
      <trkpt lat="46.406" lon="-1.167">
        <ele>0.19999999999999</ele>
        <time>2021-12-24T14:11:40Z</time>
      </trkpt>
      <trkpt lat="46.40596" lon="-1.16698">
        <ele>0.19999999999999</ele>
        <time>2021-12-24T14:11:41Z</time>
      </trkpt>
      <trkpt lat="46.40586" lon="-1.16694">
        <ele>0.19999999999999</ele>
        <time>2021-12-24T14:11:43Z</time>
      </trkpt>
      <trkpt lat="46.40577" lon="-1.16691">
        <ele>0.19999999999999</ele>
        <time>2021-12-24T14:11:45Z</time>
      </trkpt>
      <trkpt lat="46.40568" lon="-1.16688">
        <ele>0.19999999999999</ele>
        <time>2021-12-24T14:11:47Z</time>
      </trkpt>
      <trkpt lat="46.40563" lon="-1.16686">
        <ele>0.19999999999999</ele>
        <time>2021-12-24T14:11:48Z</time>
      </trkpt>
      <trkpt lat="46.40558" lon="-1.16685">
        <ele>-0.19999999999999</ele>
        <time>2021-12-24T14:11:49Z</time>
      </trkpt>
      <trkpt lat="46.40549" lon="-1.16682">
        <ele>-0.19999999999999</ele>
        <time>2021-12-24T14:11:51Z</time>
      </trkpt>
      <trkpt lat="46.4054" lon="-1.16679">
        <ele>-0.19999999999999</ele>
        <time>2021-12-24T14:11:53Z</time>
      </trkpt>
      <trkpt lat="46.40531" lon="-1.16676">
        <ele>-0.19999999999999</ele>
        <time>2021-12-24T14:11:55Z</time>
      </trkpt>
      <trkpt lat="46.40521" lon="-1.16672">
        <ele>-0.19999999999999</ele>
        <time>2021-12-24T14:11:57Z</time>
      </trkpt>
      <trkpt lat="46.40511" lon="-1.16668">
        <ele>-0.19999999999999</ele>
        <time>2021-12-24T14:11:59Z</time>
      </trkpt>
      <trkpt lat="46.40502" lon="-1.16665">
        <ele>-0.39999999999998</ele>
        <time>2021-12-24T14:12:01Z</time>
      </trkpt>
      <trkpt lat="46.40493" lon="-1.16663">
        <ele>-0.39999999999998</ele>
        <time>2021-12-24T14:12:03Z</time>
      </trkpt>
      <trkpt lat="46.40483" lon="-1.1666">
        <ele>-0.39999999999998</ele>
        <time>2021-12-24T14:12:05Z</time>
      </trkpt>
      <trkpt lat="46.40473" lon="-1.16657">
        <ele>-0.39999999999998</ele>
        <time>2021-12-24T14:12:07Z</time>
      </trkpt>
      <trkpt lat="46.40464" lon="-1.16655">
        <ele>-0.39999999999998</ele>
        <time>2021-12-24T14:12:09Z</time>
      </trkpt>
      <trkpt lat="46.40454" lon="-1.16653">
        <ele>-0.39999999999998</ele>
        <time>2021-12-24T14:12:11Z</time>
      </trkpt>
      <trkpt lat="46.40445" lon="-1.16651">
        <ele>-0.19999999999999</ele>
        <time>2021-12-24T14:12:13Z</time>
      </trkpt>
      <trkpt lat="46.40435" lon="-1.16648">
        <ele>-0.19999999999999</ele>
        <time>2021-12-24T14:12:15Z</time>
      </trkpt>
      <trkpt lat="46.40425" lon="-1.16646">
        <ele>-0.19999999999999</ele>
        <time>2021-12-24T14:12:17Z</time>
      </trkpt>
      <trkpt lat="46.40416" lon="-1.16643">
        <ele>-0.39999999999998</ele>
        <time>2021-12-24T14:12:19Z</time>
      </trkpt>
      <trkpt lat="46.40406" lon="-1.16641">
        <ele>-0.19999999999999</ele>
        <time>2021-12-24T14:12:21Z</time>
      </trkpt>
      <trkpt lat="46.40397" lon="-1.16638">
        <ele>-0.19999999999999</ele>
        <time>2021-12-24T14:12:23Z</time>
      </trkpt>
      <trkpt lat="46.40387" lon="-1.16635">
        <ele>-0.19999999999999</ele>
        <time>2021-12-24T14:12:25Z</time>
      </trkpt>
      <trkpt lat="46.40383" lon="-1.16634">
        <ele>-0.19999999999999</ele>
        <time>2021-12-24T14:12:26Z</time>
      </trkpt>
      <trkpt lat="46.40378" lon="-1.16633">
        <ele>-0.19999999999999</ele>
        <time>2021-12-24T14:12:27Z</time>
      </trkpt>
      <trkpt lat="46.40369" lon="-1.1663">
        <ele>-0.19999999999999</ele>
        <time>2021-12-24T14:12:29Z</time>
      </trkpt>
      <trkpt lat="46.40359" lon="-1.16627">
        <ele>-0.19999999999999</ele>
        <time>2021-12-24T14:12:31Z</time>
      </trkpt>
      <trkpt lat="46.40349" lon="-1.16625">
        <ele>-0.19999999999999</ele>
        <time>2021-12-24T14:12:33Z</time>
      </trkpt>
      <trkpt lat="46.40345" lon="-1.16624">
        <ele>-0.19999999999999</ele>
        <time>2021-12-24T14:12:34Z</time>
      </trkpt>
      <trkpt lat="46.4034" lon="-1.16623">
        <ele>-0.19999999999999</ele>
        <time>2021-12-24T14:12:35Z</time>
      </trkpt>
      <trkpt lat="46.4033" lon="-1.16621">
        <ele>-0.19999999999999</ele>
        <time>2021-12-24T14:12:37Z</time>
      </trkpt>
      <trkpt lat="46.40321" lon="-1.16619">
        <ele>-0.19999999999999</ele>
        <time>2021-12-24T14:12:39Z</time>
      </trkpt>
      <trkpt lat="46.40311" lon="-1.16617">
        <ele>-0.19999999999999</ele>
        <time>2021-12-24T14:12:41Z</time>
      </trkpt>
      <trkpt lat="46.40301" lon="-1.16614">
        <ele>-0.19999999999999</ele>
        <time>2021-12-24T14:12:43Z</time>
      </trkpt>
      <trkpt lat="46.40291" lon="-1.16613">
        <ele>-0.19999999999999</ele>
        <time>2021-12-24T14:12:45Z</time>
      </trkpt>
      <trkpt lat="46.40281" lon="-1.16611">
        <ele>-0.19999999999999</ele>
        <time>2021-12-24T14:12:47Z</time>
      </trkpt>
      <trkpt lat="46.40271" lon="-1.1661">
        <ele>-0.19999999999999</ele>
        <time>2021-12-24T14:12:49Z</time>
      </trkpt>
      <trkpt lat="46.40266" lon="-1.16609">
        <ele>-0.19999999999999</ele>
        <time>2021-12-24T14:12:50Z</time>
      </trkpt>
      <trkpt lat="46.40261" lon="-1.16608">
        <ele>-0.19999999999999</ele>
        <time>2021-12-24T14:12:51Z</time>
      </trkpt>
      <trkpt lat="46.40251" lon="-1.16607">
        <ele>-0.19999999999999</ele>
        <time>2021-12-24T14:12:53Z</time>
      </trkpt>
      <trkpt lat="46.4024" lon="-1.16606">
        <ele>-0.19999999999999</ele>
        <time>2021-12-24T14:12:55Z</time>
      </trkpt>
      <trkpt lat="46.4023" lon="-1.16604">
        <ele>-0.19999999999999</ele>
        <time>2021-12-24T14:12:57Z</time>
      </trkpt>
      <trkpt lat="46.40219" lon="-1.16602">
        <ele>-0.19999999999999</ele>
        <time>2021-12-24T14:12:59Z</time>
      </trkpt>
      <trkpt lat="46.40214" lon="-1.16601">
        <ele>-0.19999999999999</ele>
        <time>2021-12-24T14:13:00Z</time>
      </trkpt>
      <trkpt lat="46.40209" lon="-1.16599">
        <ele>-0.19999999999999</ele>
        <time>2021-12-24T14:13:01Z</time>
      </trkpt>
      <trkpt lat="46.40198" lon="-1.16596">
        <ele>-0.19999999999999</ele>
        <time>2021-12-24T14:13:03Z</time>
      </trkpt>
      <trkpt lat="46.40189" lon="-1.16592">
        <ele>-0.19999999999999</ele>
        <time>2021-12-24T14:13:05Z</time>
      </trkpt>
      <trkpt lat="46.40179" lon="-1.16587">
        <ele>-0.19999999999999</ele>
        <time>2021-12-24T14:13:07Z</time>
      </trkpt>
      <trkpt lat="46.40174" lon="-1.16585">
        <ele>-0.19999999999999</ele>
        <time>2021-12-24T14:13:08Z</time>
      </trkpt>
      <trkpt lat="46.40169" lon="-1.16582">
        <ele>-0.19999999999999</ele>
        <time>2021-12-24T14:13:09Z</time>
      </trkpt>
      <trkpt lat="46.4016" lon="-1.16578">
        <ele>-0.19999999999999</ele>
        <time>2021-12-24T14:13:11Z</time>
      </trkpt>
      <trkpt lat="46.4015" lon="-1.16575">
        <ele>-0.19999999999999</ele>
        <time>2021-12-24T14:13:13Z</time>
      </trkpt>
      <trkpt lat="46.40139" lon="-1.16572">
        <ele>-0.19999999999999</ele>
        <time>2021-12-24T14:13:15Z</time>
      </trkpt>
      <trkpt lat="46.40129" lon="-1.16571">
        <ele>-0.19999999999999</ele>
        <time>2021-12-24T14:13:17Z</time>
      </trkpt>
      <trkpt lat="46.40118" lon="-1.1657">
        <ele>-0.19999999999999</ele>
        <time>2021-12-24T14:13:19Z</time>
      </trkpt>
      <trkpt lat="46.40107" lon="-1.16569">
        <ele>-0.19999999999999</ele>
        <time>2021-12-24T14:13:21Z</time>
      </trkpt>
      <trkpt lat="46.40096" lon="-1.16567">
        <ele>-0.19999999999999</ele>
        <time>2021-12-24T14:13:23Z</time>
      </trkpt>
      <trkpt lat="46.40085" lon="-1.16565">
        <ele>-0.19999999999999</ele>
        <time>2021-12-24T14:13:25Z</time>
      </trkpt>
      <trkpt lat="46.40074" lon="-1.16564">
        <ele>-0.19999999999999</ele>
        <time>2021-12-24T14:13:27Z</time>
      </trkpt>
      <trkpt lat="46.40064" lon="-1.1656">
        <ele>-0.19999999999999</ele>
        <time>2021-12-24T14:13:29Z</time>
      </trkpt>
      <trkpt lat="46.40054" lon="-1.16556">
        <ele>-0.19999999999999</ele>
        <time>2021-12-24T14:13:31Z</time>
      </trkpt>
      <trkpt lat="46.40049" lon="-1.16554">
        <ele>-0.19999999999999</ele>
        <time>2021-12-24T14:13:32Z</time>
      </trkpt>
      <trkpt lat="46.40045" lon="-1.16552">
        <ele>-0.19999999999999</ele>
        <time>2021-12-24T14:13:33Z</time>
      </trkpt>
      <trkpt lat="46.40036" lon="-1.16547">
        <ele>-0.39999999999998</ele>
        <time>2021-12-24T14:13:35Z</time>
      </trkpt>
      <trkpt lat="46.40026" lon="-1.16543">
        <ele>-0.19999999999999</ele>
        <time>2021-12-24T14:13:37Z</time>
      </trkpt>
      <trkpt lat="46.40017" lon="-1.16538">
        <ele>-0.19999999999999</ele>
        <time>2021-12-24T14:13:39Z</time>
      </trkpt>
      <trkpt lat="46.40007" lon="-1.16535">
        <ele>-0.19999999999999</ele>
        <time>2021-12-24T14:13:41Z</time>
      </trkpt>
      <trkpt lat="46.39998" lon="-1.16531">
        <ele>-0.19999999999999</ele>
        <time>2021-12-24T14:13:43Z</time>
      </trkpt>
      <trkpt lat="46.39988" lon="-1.16527">
        <ele>-0.19999999999999</ele>
        <time>2021-12-24T14:13:45Z</time>
      </trkpt>
      <trkpt lat="46.39978" lon="-1.16523">
        <ele>-0.19999999999999</ele>
        <time>2021-12-24T14:13:47Z</time>
      </trkpt>
      <trkpt lat="46.39968" lon="-1.1652">
        <ele>-0.19999999999999</ele>
        <time>2021-12-24T14:13:49Z</time>
      </trkpt>
      <trkpt lat="46.39958" lon="-1.16516">
        <ele>-0.19999999999999</ele>
        <time>2021-12-24T14:13:51Z</time>
      </trkpt>
      <trkpt lat="46.39953" lon="-1.16514">
        <ele>-0.19999999999999</ele>
        <time>2021-12-24T14:13:52Z</time>
      </trkpt>
      <trkpt lat="46.39949" lon="-1.16513">
        <ele>-0.19999999999999</ele>
        <time>2021-12-24T14:13:53Z</time>
      </trkpt>
      <trkpt lat="46.39939" lon="-1.16509">
        <ele>-0.19999999999999</ele>
        <time>2021-12-24T14:13:55Z</time>
      </trkpt>
      <trkpt lat="46.39929" lon="-1.16505">
        <ele>-0.39999999999998</ele>
        <time>2021-12-24T14:13:57Z</time>
      </trkpt>
      <trkpt lat="46.39919" lon="-1.16501">
        <ele>-0.19999999999999</ele>
        <time>2021-12-24T14:13:59Z</time>
      </trkpt>
      <trkpt lat="46.39914" lon="-1.16499">
        <ele>-0.19999999999999</ele>
        <time>2021-12-24T14:14:00Z</time>
      </trkpt>
      <trkpt lat="46.39908" lon="-1.16497">
        <ele>-0.19999999999999</ele>
        <time>2021-12-24T14:14:01Z</time>
      </trkpt>
      <trkpt lat="46.39898" lon="-1.16492">
        <ele>-0.19999999999999</ele>
        <time>2021-12-24T14:14:03Z</time>
      </trkpt>
      <trkpt lat="46.39889" lon="-1.16487">
        <ele>-0.19999999999999</ele>
        <time>2021-12-24T14:14:05Z</time>
      </trkpt>
      <trkpt lat="46.39879" lon="-1.16483">
        <ele>-0.19999999999999</ele>
        <time>2021-12-24T14:14:07Z</time>
      </trkpt>
      <trkpt lat="46.39869" lon="-1.16478">
        <ele>-0.19999999999999</ele>
        <time>2021-12-24T14:14:09Z</time>
      </trkpt>
      <trkpt lat="46.39859" lon="-1.16473">
        <ele>-0.19999999999999</ele>
        <time>2021-12-24T14:14:11Z</time>
      </trkpt>
      <trkpt lat="46.39849" lon="-1.16469">
        <ele>-0.19999999999999</ele>
        <time>2021-12-24T14:14:13Z</time>
      </trkpt>
      <trkpt lat="46.3984" lon="-1.16465">
        <ele>-0.19999999999999</ele>
        <time>2021-12-24T14:14:15Z</time>
      </trkpt>
      <trkpt lat="46.39831" lon="-1.16461">
        <ele>-0.39999999999998</ele>
        <time>2021-12-24T14:14:17Z</time>
      </trkpt>
      <trkpt lat="46.39826" lon="-1.16458">
        <ele>-0.39999999999998</ele>
        <time>2021-12-24T14:14:18Z</time>
      </trkpt>
      <trkpt lat="46.39822" lon="-1.16456">
        <ele>-0.39999999999998</ele>
        <time>2021-12-24T14:14:19Z</time>
      </trkpt>
      <trkpt lat="46.39813" lon="-1.16452">
        <ele>-0.39999999999998</ele>
        <time>2021-12-24T14:14:21Z</time>
      </trkpt>
      <trkpt lat="46.39804" lon="-1.16448">
        <ele>-0.39999999999998</ele>
        <time>2021-12-24T14:14:23Z</time>
      </trkpt>
      <trkpt lat="46.39794" lon="-1.16444">
        <ele>-0.39999999999998</ele>
        <time>2021-12-24T14:14:25Z</time>
      </trkpt>
      <trkpt lat="46.39785" lon="-1.16439">
        <ele>-0.60000000000002</ele>
        <time>2021-12-24T14:14:27Z</time>
      </trkpt>
      <trkpt lat="46.3978" lon="-1.16437">
        <ele>-0.60000000000002</ele>
        <time>2021-12-24T14:14:28Z</time>
      </trkpt>
      <trkpt lat="46.39775" lon="-1.16435">
        <ele>-0.60000000000002</ele>
        <time>2021-12-24T14:14:29Z</time>
      </trkpt>
      <trkpt lat="46.39765" lon="-1.16431">
        <ele>-0.60000000000002</ele>
        <time>2021-12-24T14:14:31Z</time>
      </trkpt>
      <trkpt lat="46.39756" lon="-1.16426">
        <ele>-0.60000000000002</ele>
        <time>2021-12-24T14:14:33Z</time>
      </trkpt>
      <trkpt lat="46.39747" lon="-1.16421">
        <ele>-0.60000000000002</ele>
        <time>2021-12-24T14:14:35Z</time>
      </trkpt>
      <trkpt lat="46.39736" lon="-1.16416">
        <ele>-0.60000000000002</ele>
        <time>2021-12-24T14:14:37Z</time>
      </trkpt>
      <trkpt lat="46.39731" lon="-1.16414">
        <ele>-0.60000000000002</ele>
        <time>2021-12-24T14:14:38Z</time>
      </trkpt>
      <trkpt lat="46.39726" lon="-1.16411">
        <ele>-0.60000000000002</ele>
        <time>2021-12-24T14:14:39Z</time>
      </trkpt>
      <trkpt lat="46.39715" lon="-1.16406">
        <ele>-0.80000000000001</ele>
        <time>2021-12-24T14:14:41Z</time>
      </trkpt>
      <trkpt lat="46.39704" lon="-1.16401">
        <ele>-0.80000000000001</ele>
        <time>2021-12-24T14:14:43Z</time>
      </trkpt>
      <trkpt lat="46.39694" lon="-1.16397">
        <ele>-0.80000000000001</ele>
        <time>2021-12-24T14:14:45Z</time>
      </trkpt>
      <trkpt lat="46.39683" lon="-1.16392">
        <ele>-1</ele>
        <time>2021-12-24T14:14:47Z</time>
      </trkpt>
      <trkpt lat="46.39672" lon="-1.16387">
        <ele>-0.80000000000001</ele>
        <time>2021-12-24T14:14:49Z</time>
      </trkpt>
      <trkpt lat="46.39662" lon="-1.16383">
        <ele>-0.80000000000001</ele>
        <time>2021-12-24T14:14:51Z</time>
      </trkpt>
      <trkpt lat="46.39651" lon="-1.16379">
        <ele>-1</ele>
        <time>2021-12-24T14:14:53Z</time>
      </trkpt>
      <trkpt lat="46.3964" lon="-1.16375">
        <ele>-1</ele>
        <time>2021-12-24T14:14:55Z</time>
      </trkpt>
      <trkpt lat="46.39629" lon="-1.16371">
        <ele>-1</ele>
        <time>2021-12-24T14:14:57Z</time>
      </trkpt>
      <trkpt lat="46.39624" lon="-1.1637">
        <ele>-1</ele>
        <time>2021-12-24T14:14:58Z</time>
      </trkpt>
      <trkpt lat="46.39619" lon="-1.16368">
        <ele>-1</ele>
        <time>2021-12-24T14:14:59Z</time>
      </trkpt>
      <trkpt lat="46.39608" lon="-1.16366">
        <ele>-1</ele>
        <time>2021-12-24T14:15:01Z</time>
      </trkpt>
      <trkpt lat="46.39598" lon="-1.16363">
        <ele>-1</ele>
        <time>2021-12-24T14:15:03Z</time>
      </trkpt>
      <trkpt lat="46.39587" lon="-1.16361">
        <ele>-1</ele>
        <time>2021-12-24T14:15:05Z</time>
      </trkpt>
      <trkpt lat="46.39576" lon="-1.16359">
        <ele>-1</ele>
        <time>2021-12-24T14:15:07Z</time>
      </trkpt>
      <trkpt lat="46.39565" lon="-1.16356">
        <ele>-1</ele>
        <time>2021-12-24T14:15:09Z</time>
      </trkpt>
      <trkpt lat="46.39554" lon="-1.16354">
        <ele>-1</ele>
        <time>2021-12-24T14:15:11Z</time>
      </trkpt>
      <trkpt lat="46.39544" lon="-1.16353">
        <ele>-1</ele>
        <time>2021-12-24T14:15:13Z</time>
      </trkpt>
      <trkpt lat="46.39534" lon="-1.16351">
        <ele>-1</ele>
        <time>2021-12-24T14:15:15Z</time>
      </trkpt>
      <trkpt lat="46.39529" lon="-1.1635">
        <ele>-1</ele>
        <time>2021-12-24T14:15:16Z</time>
      </trkpt>
      <trkpt lat="46.39524" lon="-1.16349">
        <ele>-1</ele>
        <time>2021-12-24T14:15:17Z</time>
      </trkpt>
      <trkpt lat="46.39514" lon="-1.16346">
        <ele>-1</ele>
        <time>2021-12-24T14:15:19Z</time>
      </trkpt>
      <trkpt lat="46.39504" lon="-1.16344">
        <ele>-1</ele>
        <time>2021-12-24T14:15:21Z</time>
      </trkpt>
      <trkpt lat="46.39494" lon="-1.16341">
        <ele>-1</ele>
        <time>2021-12-24T14:15:23Z</time>
      </trkpt>
      <trkpt lat="46.39485" lon="-1.16339">
        <ele>-1.2</ele>
        <time>2021-12-24T14:15:25Z</time>
      </trkpt>
      <trkpt lat="46.3948" lon="-1.16337">
        <ele>-1.2</ele>
        <time>2021-12-24T14:15:26Z</time>
      </trkpt>
      <trkpt lat="46.39475" lon="-1.16336">
        <ele>-1.2</ele>
        <time>2021-12-24T14:15:27Z</time>
      </trkpt>
      <trkpt lat="46.39466" lon="-1.16333">
        <ele>-1.2</ele>
        <time>2021-12-24T14:15:29Z</time>
      </trkpt>
      <trkpt lat="46.39456" lon="-1.1633">
        <ele>-1.2</ele>
        <time>2021-12-24T14:15:31Z</time>
      </trkpt>
      <trkpt lat="46.39445" lon="-1.16328">
        <ele>-1.2</ele>
        <time>2021-12-24T14:15:33Z</time>
      </trkpt>
      <trkpt lat="46.39435" lon="-1.16326">
        <ele>-1.2</ele>
        <time>2021-12-24T14:15:35Z</time>
      </trkpt>
      <trkpt lat="46.39431" lon="-1.16324">
        <ele>-1.2</ele>
        <time>2021-12-24T14:15:36Z</time>
      </trkpt>
      <trkpt lat="46.39426" lon="-1.16323">
        <ele>-1.2</ele>
        <time>2021-12-24T14:15:37Z</time>
      </trkpt>
      <trkpt lat="46.39417" lon="-1.16318">
        <ele>-1.2</ele>
        <time>2021-12-24T14:15:39Z</time>
      </trkpt>
      <trkpt lat="46.39407" lon="-1.16314">
        <ele>-1.2</ele>
        <time>2021-12-24T14:15:41Z</time>
      </trkpt>
      <trkpt lat="46.39399" lon="-1.16311">
        <ele>-1.2</ele>
        <time>2021-12-24T14:15:43Z</time>
      </trkpt>
      <trkpt lat="46.39395" lon="-1.1631">
        <ele>-1.2</ele>
        <time>2021-12-24T14:15:44Z</time>
      </trkpt>
      <trkpt lat="46.39391" lon="-1.16309">
        <ele>-1.2</ele>
        <time>2021-12-24T14:15:45Z</time>
      </trkpt>
      <trkpt lat="46.39382" lon="-1.16308">
        <ele>-1.2</ele>
        <time>2021-12-24T14:15:47Z</time>
      </trkpt>
      <trkpt lat="46.39374" lon="-1.16309">
        <ele>-1</ele>
        <time>2021-12-24T14:15:49Z</time>
      </trkpt>
      <trkpt lat="46.3937" lon="-1.1631">
        <ele>-1</ele>
        <time>2021-12-24T14:15:50Z</time>
      </trkpt>
      <trkpt lat="46.39366" lon="-1.16311">
        <ele>-1</ele>
        <time>2021-12-24T14:15:51Z</time>
      </trkpt>
      <trkpt lat="46.39362" lon="-1.16314">
        <ele>-1</ele>
        <time>2021-12-24T14:15:52Z</time>
      </trkpt>
      <trkpt lat="46.39358" lon="-1.16318">
        <ele>-1</ele>
        <time>2021-12-24T14:15:53Z</time>
      </trkpt>
      <trkpt lat="46.3935" lon="-1.16323">
        <ele>-1</ele>
        <time>2021-12-24T14:15:55Z</time>
      </trkpt>
      <trkpt lat="46.39342" lon="-1.1633">
        <ele>-1</ele>
        <time>2021-12-24T14:15:57Z</time>
      </trkpt>
      <trkpt lat="46.39333" lon="-1.16337">
        <ele>-1</ele>
        <time>2021-12-24T14:15:59Z</time>
      </trkpt>
      <trkpt lat="46.39325" lon="-1.16344">
        <ele>-1</ele>
        <time>2021-12-24T14:16:01Z</time>
      </trkpt>
      <trkpt lat="46.39316" lon="-1.16351">
        <ele>-1</ele>
        <time>2021-12-24T14:16:03Z</time>
      </trkpt>
      <trkpt lat="46.39307" lon="-1.16358">
        <ele>-1</ele>
        <time>2021-12-24T14:16:05Z</time>
      </trkpt>
      <trkpt lat="46.39299" lon="-1.16365">
        <ele>-1</ele>
        <time>2021-12-24T14:16:07Z</time>
      </trkpt>
      <trkpt lat="46.3929" lon="-1.16373">
        <ele>-0.80000000000001</ele>
        <time>2021-12-24T14:16:09Z</time>
      </trkpt>
      <trkpt lat="46.39282" lon="-1.1638">
        <ele>-1</ele>
        <time>2021-12-24T14:16:11Z</time>
      </trkpt>
      <trkpt lat="46.39273" lon="-1.16387">
        <ele>-1</ele>
        <time>2021-12-24T14:16:13Z</time>
      </trkpt>
      <trkpt lat="46.39269" lon="-1.16391">
        <ele>-0.80000000000001</ele>
        <time>2021-12-24T14:16:14Z</time>
      </trkpt>
      <trkpt lat="46.39265" lon="-1.16394">
        <ele>-0.80000000000001</ele>
        <time>2021-12-24T14:16:15Z</time>
      </trkpt>
      <trkpt lat="46.39256" lon="-1.16401">
        <ele>-0.80000000000001</ele>
        <time>2021-12-24T14:16:17Z</time>
      </trkpt>
      <trkpt lat="46.39247" lon="-1.16408">
        <ele>-1</ele>
        <time>2021-12-24T14:16:19Z</time>
      </trkpt>
      <trkpt lat="46.39239" lon="-1.16416">
        <ele>-0.80000000000001</ele>
        <time>2021-12-24T14:16:21Z</time>
      </trkpt>
      <trkpt lat="46.39229" lon="-1.16423">
        <ele>-0.80000000000001</ele>
        <time>2021-12-24T14:16:23Z</time>
      </trkpt>
      <trkpt lat="46.3922" lon="-1.16431">
        <ele>-1</ele>
        <time>2021-12-24T14:16:25Z</time>
      </trkpt>
      <trkpt lat="46.39211" lon="-1.16438">
        <ele>-1</ele>
        <time>2021-12-24T14:16:27Z</time>
      </trkpt>
      <trkpt lat="46.39203" lon="-1.16445">
        <ele>-1</ele>
        <time>2021-12-24T14:16:29Z</time>
      </trkpt>
      <trkpt lat="46.39194" lon="-1.16453">
        <ele>-1</ele>
        <time>2021-12-24T14:16:31Z</time>
      </trkpt>
      <trkpt lat="46.39186" lon="-1.16459">
        <ele>-1</ele>
        <time>2021-12-24T14:16:33Z</time>
      </trkpt>
      <trkpt lat="46.39177" lon="-1.16467">
        <ele>-1</ele>
        <time>2021-12-24T14:16:35Z</time>
      </trkpt>
      <trkpt lat="46.39169" lon="-1.16474">
        <ele>-1</ele>
        <time>2021-12-24T14:16:37Z</time>
      </trkpt>
      <trkpt lat="46.39165" lon="-1.16477">
        <ele>-0.80000000000001</ele>
        <time>2021-12-24T14:16:38Z</time>
      </trkpt>
      <trkpt lat="46.39161" lon="-1.16481">
        <ele>-1</ele>
        <time>2021-12-24T14:16:39Z</time>
      </trkpt>
      <trkpt lat="46.39152" lon="-1.16489">
        <ele>-1</ele>
        <time>2021-12-24T14:16:41Z</time>
      </trkpt>
      <trkpt lat="46.39143" lon="-1.16496">
        <ele>-1</ele>
        <time>2021-12-24T14:16:43Z</time>
      </trkpt>
      <trkpt lat="46.39135" lon="-1.16503">
        <ele>-0.80000000000001</ele>
        <time>2021-12-24T14:16:45Z</time>
      </trkpt>
      <trkpt lat="46.39126" lon="-1.16511">
        <ele>-1</ele>
        <time>2021-12-24T14:16:47Z</time>
      </trkpt>
      <trkpt lat="46.39118" lon="-1.16519">
        <ele>-1</ele>
        <time>2021-12-24T14:16:49Z</time>
      </trkpt>
      <trkpt lat="46.39109" lon="-1.16526">
        <ele>-1</ele>
        <time>2021-12-24T14:16:51Z</time>
      </trkpt>
      <trkpt lat="46.39101" lon="-1.16533">
        <ele>-1</ele>
        <time>2021-12-24T14:16:53Z</time>
      </trkpt>
      <trkpt lat="46.39092" lon="-1.1654">
        <ele>-1</ele>
        <time>2021-12-24T14:16:55Z</time>
      </trkpt>
      <trkpt lat="46.39084" lon="-1.16548">
        <ele>-1</ele>
        <time>2021-12-24T14:16:57Z</time>
      </trkpt>
      <trkpt lat="46.39075" lon="-1.16555">
        <ele>-0.80000000000001</ele>
        <time>2021-12-24T14:16:59Z</time>
      </trkpt>
      <trkpt lat="46.39067" lon="-1.16562">
        <ele>-1</ele>
        <time>2021-12-24T14:17:01Z</time>
      </trkpt>
      <trkpt lat="46.39058" lon="-1.16568">
        <ele>-1</ele>
        <time>2021-12-24T14:17:03Z</time>
      </trkpt>
      <trkpt lat="46.3905" lon="-1.16576">
        <ele>-1</ele>
        <time>2021-12-24T14:17:05Z</time>
      </trkpt>
      <trkpt lat="46.39046" lon="-1.16579">
        <ele>-1</ele>
        <time>2021-12-24T14:17:06Z</time>
      </trkpt>
      <trkpt lat="46.39041" lon="-1.16583">
        <ele>-1</ele>
        <time>2021-12-24T14:17:07Z</time>
      </trkpt>
      <trkpt lat="46.39033" lon="-1.1659">
        <ele>-1</ele>
        <time>2021-12-24T14:17:09Z</time>
      </trkpt>
      <trkpt lat="46.39025" lon="-1.16596">
        <ele>-1</ele>
        <time>2021-12-24T14:17:11Z</time>
      </trkpt>
      <trkpt lat="46.39017" lon="-1.16603">
        <ele>-1</ele>
        <time>2021-12-24T14:17:13Z</time>
      </trkpt>
      <trkpt lat="46.39008" lon="-1.16611">
        <ele>-1</ele>
        <time>2021-12-24T14:17:15Z</time>
      </trkpt>
      <trkpt lat="46.39004" lon="-1.16614">
        <ele>-1</ele>
        <time>2021-12-24T14:17:16Z</time>
      </trkpt>
      <trkpt lat="46.39" lon="-1.16618">
        <ele>-1.2</ele>
        <time>2021-12-24T14:17:17Z</time>
      </trkpt>
      <trkpt lat="46.38991" lon="-1.16625">
        <ele>-1.2</ele>
        <time>2021-12-24T14:17:19Z</time>
      </trkpt>
      <trkpt lat="46.38983" lon="-1.16632">
        <ele>-1.2</ele>
        <time>2021-12-24T14:17:21Z</time>
      </trkpt>
      <trkpt lat="46.38975" lon="-1.16638">
        <ele>-1.2</ele>
        <time>2021-12-24T14:17:23Z</time>
      </trkpt>
      <trkpt lat="46.38966" lon="-1.16645">
        <ele>-1.2</ele>
        <time>2021-12-24T14:17:25Z</time>
      </trkpt>
      <trkpt lat="46.38962" lon="-1.16648">
        <ele>-1.2</ele>
        <time>2021-12-24T14:17:26Z</time>
      </trkpt>
      <trkpt lat="46.38958" lon="-1.16652">
        <ele>-1.2</ele>
        <time>2021-12-24T14:17:27Z</time>
      </trkpt>
      <trkpt lat="46.3895" lon="-1.16659">
        <ele>-1.2</ele>
        <time>2021-12-24T14:17:29Z</time>
      </trkpt>
      <trkpt lat="46.38942" lon="-1.16665">
        <ele>-1.2</ele>
        <time>2021-12-24T14:17:31Z</time>
      </trkpt>
      <trkpt lat="46.38934" lon="-1.16672">
        <ele>-1.4</ele>
        <time>2021-12-24T14:17:33Z</time>
      </trkpt>
      <trkpt lat="46.38925" lon="-1.16679">
        <ele>-1.4</ele>
        <time>2021-12-24T14:17:35Z</time>
      </trkpt>
      <trkpt lat="46.38921" lon="-1.16682">
        <ele>-1.2</ele>
        <time>2021-12-24T14:17:36Z</time>
      </trkpt>
      <trkpt lat="46.38917" lon="-1.16686">
        <ele>-1.2</ele>
        <time>2021-12-24T14:17:37Z</time>
      </trkpt>
      <trkpt lat="46.38908" lon="-1.16693">
        <ele>-1</ele>
        <time>2021-12-24T14:17:39Z</time>
      </trkpt>
      <trkpt lat="46.389" lon="-1.167">
        <ele>-1.2</ele>
        <time>2021-12-24T14:17:41Z</time>
      </trkpt>
      <trkpt lat="46.38892" lon="-1.16707">
        <ele>-1.2</ele>
        <time>2021-12-24T14:17:43Z</time>
      </trkpt>
      <trkpt lat="46.38884" lon="-1.16714">
        <ele>-1.2</ele>
        <time>2021-12-24T14:17:45Z</time>
      </trkpt>
      <trkpt lat="46.38875" lon="-1.16722">
        <ele>-1.2</ele>
        <time>2021-12-24T14:17:47Z</time>
      </trkpt>
      <trkpt lat="46.38867" lon="-1.1673">
        <ele>-1.2</ele>
        <time>2021-12-24T14:17:49Z</time>
      </trkpt>
      <trkpt lat="46.38862" lon="-1.16734">
        <ele>-1.2</ele>
        <time>2021-12-24T14:17:50Z</time>
      </trkpt>
      <trkpt lat="46.38858" lon="-1.16738">
        <ele>-1.2</ele>
        <time>2021-12-24T14:17:51Z</time>
      </trkpt>
      <trkpt lat="46.38849" lon="-1.16747">
        <ele>-1.4</ele>
        <time>2021-12-24T14:17:53Z</time>
      </trkpt>
      <trkpt lat="46.38839" lon="-1.16753">
        <ele>-1.4</ele>
        <time>2021-12-24T14:17:55Z</time>
      </trkpt>
      <trkpt lat="46.38834" lon="-1.16756">
        <ele>-1.4</ele>
        <time>2021-12-24T14:17:56Z</time>
      </trkpt>
      <trkpt lat="46.38829" lon="-1.16759">
        <ele>-1.4</ele>
        <time>2021-12-24T14:17:57Z</time>
      </trkpt>
      <trkpt lat="46.38819" lon="-1.16762">
        <ele>-1.4</ele>
        <time>2021-12-24T14:17:59Z</time>
      </trkpt>
      <trkpt lat="46.3881" lon="-1.16764">
        <ele>-1.4</ele>
        <time>2021-12-24T14:18:01Z</time>
      </trkpt>
      <trkpt lat="46.388" lon="-1.16765">
        <ele>-1.4</ele>
        <time>2021-12-24T14:18:03Z</time>
      </trkpt>
      <trkpt lat="46.38791" lon="-1.16767">
        <ele>-1.4</ele>
        <time>2021-12-24T14:18:05Z</time>
      </trkpt>
      <trkpt lat="46.38782" lon="-1.1677">
        <ele>-1.4</ele>
        <time>2021-12-24T14:18:07Z</time>
      </trkpt>
      <trkpt lat="46.38773" lon="-1.16776">
        <ele>-1.4</ele>
        <time>2021-12-24T14:18:09Z</time>
      </trkpt>
      <trkpt lat="46.38765" lon="-1.16786">
        <ele>-1.4</ele>
        <time>2021-12-24T14:18:11Z</time>
      </trkpt>
      <trkpt lat="46.38759" lon="-1.16799">
        <ele>-1.6</ele>
        <time>2021-12-24T14:18:13Z</time>
      </trkpt>
      <trkpt lat="46.38753" lon="-1.16813">
        <ele>-1.4</ele>
        <time>2021-12-24T14:18:15Z</time>
      </trkpt>
      <trkpt lat="46.3875" lon="-1.1682">
        <ele>-1.4</ele>
        <time>2021-12-24T14:18:16Z</time>
      </trkpt>
      <trkpt lat="46.38747" lon="-1.16826">
        <ele>-1.4</ele>
        <time>2021-12-24T14:18:17Z</time>
      </trkpt>
      <trkpt lat="46.38744" lon="-1.16832">
        <ele>-1.4</ele>
        <time>2021-12-24T14:18:18Z</time>
      </trkpt>
      <trkpt lat="46.3874" lon="-1.16838">
        <ele>-1.4</ele>
        <time>2021-12-24T14:18:19Z</time>
      </trkpt>
      <trkpt lat="46.38735" lon="-1.16843">
        <ele>-1.4</ele>
        <time>2021-12-24T14:18:20Z</time>
      </trkpt>
      <trkpt lat="46.38731" lon="-1.16846">
        <ele>-1.4</ele>
        <time>2021-12-24T14:18:21Z</time>
      </trkpt>
      <trkpt lat="46.38722" lon="-1.16853">
        <ele>-1.6</ele>
        <time>2021-12-24T14:18:23Z</time>
      </trkpt>
      <trkpt lat="46.38712" lon="-1.16857">
        <ele>-1.6</ele>
        <time>2021-12-24T14:18:25Z</time>
      </trkpt>
      <trkpt lat="46.38707" lon="-1.16858">
        <ele>-1.6</ele>
        <time>2021-12-24T14:18:26Z</time>
      </trkpt>
      <trkpt lat="46.38703" lon="-1.16859">
        <ele>-1.6</ele>
        <time>2021-12-24T14:18:27Z</time>
      </trkpt>
      <trkpt lat="46.38698" lon="-1.1686">
        <ele>-1.6</ele>
        <time>2021-12-24T14:18:28Z</time>
      </trkpt>
      <trkpt lat="46.38693" lon="-1.1686">
        <ele>-1.6</ele>
        <time>2021-12-24T14:18:29Z</time>
      </trkpt>
      <trkpt lat="46.38684" lon="-1.16862">
        <ele>-1.4</ele>
        <time>2021-12-24T14:18:31Z</time>
      </trkpt>
      <trkpt lat="46.38676" lon="-1.16865">
        <ele>-1.6</ele>
        <time>2021-12-24T14:18:33Z</time>
      </trkpt>
      <trkpt lat="46.38669" lon="-1.16868">
        <ele>-1.4</ele>
        <time>2021-12-24T14:18:35Z</time>
      </trkpt>
      <trkpt lat="46.38663" lon="-1.1687">
        <ele>-1.4</ele>
        <time>2021-12-24T14:18:37Z</time>
      </trkpt>
      <trkpt lat="46.38657" lon="-1.16871">
        <ele>-1.4</ele>
        <time>2021-12-24T14:18:39Z</time>
      </trkpt>
      <trkpt lat="46.38651" lon="-1.16873">
        <ele>-1.2</ele>
        <time>2021-12-24T14:18:41Z</time>
      </trkpt>
      <trkpt lat="46.38648" lon="-1.16874">
        <ele>-1.2</ele>
        <time>2021-12-24T14:18:42Z</time>
      </trkpt>
      <trkpt lat="46.38646" lon="-1.16876">
        <ele>-1.2</ele>
        <time>2021-12-24T14:18:43Z</time>
      </trkpt>
      <trkpt lat="46.38642" lon="-1.16877">
        <ele>-1.2</ele>
        <time>2021-12-24T14:18:45Z</time>
      </trkpt>
      <trkpt lat="46.38639" lon="-1.16877">
        <ele>-1.2</ele>
        <time>2021-12-24T14:18:47Z</time>
      </trkpt>
      <trkpt lat="46.38638" lon="-1.16878">
        <ele>-1.2</ele>
        <time>2021-12-24T14:18:48Z</time>
      </trkpt>
      <trkpt lat="46.38637" lon="-1.1688">
        <ele>-1.2</ele>
        <time>2021-12-24T14:18:49Z</time>
      </trkpt>
      <trkpt lat="46.38632" lon="-1.16885">
        <ele>-1.2</ele>
        <time>2021-12-24T14:18:51Z</time>
      </trkpt>
      <trkpt lat="46.38628" lon="-1.16887">
        <ele>-1.2</ele>
        <time>2021-12-24T14:18:52Z</time>
      </trkpt>
      <trkpt lat="46.38623" lon="-1.16889">
        <ele>-1.2</ele>
        <time>2021-12-24T14:18:53Z</time>
      </trkpt>
      <trkpt lat="46.38619" lon="-1.1689">
        <ele>-1.2</ele>
        <time>2021-12-24T14:18:54Z</time>
      </trkpt>
      <trkpt lat="46.38614" lon="-1.16891">
        <ele>-1.2</ele>
        <time>2021-12-24T14:18:55Z</time>
      </trkpt>
      <trkpt lat="46.38605" lon="-1.16895">
        <ele>-1.2</ele>
        <time>2021-12-24T14:18:57Z</time>
      </trkpt>
      <trkpt lat="46.38595" lon="-1.16898">
        <ele>-1.2</ele>
        <time>2021-12-24T14:18:59Z</time>
      </trkpt>
      <trkpt lat="46.38586" lon="-1.16899">
        <ele>-1.6</ele>
        <time>2021-12-24T14:19:01Z</time>
      </trkpt>
      <trkpt lat="46.3858" lon="-1.16895">
        <ele>-1.4</ele>
        <time>2021-12-24T14:19:03Z</time>
      </trkpt>
      <trkpt lat="46.38572" lon="-1.16896">
        <ele>-1.6</ele>
        <time>2021-12-24T14:19:05Z</time>
      </trkpt>
      <trkpt lat="46.38562" lon="-1.16896">
        <ele>-1.6</ele>
        <time>2021-12-24T14:19:07Z</time>
      </trkpt>
      <trkpt lat="46.38553" lon="-1.16897">
        <ele>-1.6</ele>
        <time>2021-12-24T14:19:09Z</time>
      </trkpt>
      <trkpt lat="46.38543" lon="-1.16897">
        <ele>-1.4</ele>
        <time>2021-12-24T14:19:11Z</time>
      </trkpt>
      <trkpt lat="46.38534" lon="-1.16901">
        <ele>-1.4</ele>
        <time>2021-12-24T14:19:13Z</time>
      </trkpt>
      <trkpt lat="46.38525" lon="-1.16909">
        <ele>-1.2</ele>
        <time>2021-12-24T14:19:15Z</time>
      </trkpt>
      <trkpt lat="46.38517" lon="-1.16919">
        <ele>-1.4</ele>
        <time>2021-12-24T14:19:17Z</time>
      </trkpt>
      <trkpt lat="46.38509" lon="-1.16928">
        <ele>-1.6</ele>
        <time>2021-12-24T14:19:19Z</time>
      </trkpt>
      <trkpt lat="46.38501" lon="-1.16937">
        <ele>-1.6</ele>
        <time>2021-12-24T14:19:21Z</time>
      </trkpt>
      <trkpt lat="46.38496" lon="-1.1694">
        <ele>-1.6</ele>
        <time>2021-12-24T14:19:22Z</time>
      </trkpt>
      <trkpt lat="46.38492" lon="-1.16943">
        <ele>-1.6</ele>
        <time>2021-12-24T14:19:23Z</time>
      </trkpt>
      <trkpt lat="46.38487" lon="-1.16946">
        <ele>-1.6</ele>
        <time>2021-12-24T14:19:24Z</time>
      </trkpt>
      <trkpt lat="46.38482" lon="-1.16948">
        <ele>-1.8</ele>
        <time>2021-12-24T14:19:25Z</time>
      </trkpt>
      <trkpt lat="46.38477" lon="-1.16947">
        <ele>-1.8</ele>
        <time>2021-12-24T14:19:26Z</time>
      </trkpt>
      <trkpt lat="46.38473" lon="-1.16947">
        <ele>-1.8</ele>
        <time>2021-12-24T14:19:27Z</time>
      </trkpt>
      <trkpt lat="46.38468" lon="-1.16947">
        <ele>-1.8</ele>
        <time>2021-12-24T14:19:28Z</time>
      </trkpt>
      <trkpt lat="46.38463" lon="-1.16945">
        <ele>-1.8</ele>
        <time>2021-12-24T14:19:29Z</time>
      </trkpt>
      <trkpt lat="46.38453" lon="-1.16943">
        <ele>-1.8</ele>
        <time>2021-12-24T14:19:31Z</time>
      </trkpt>
      <trkpt lat="46.38449" lon="-1.16941">
        <ele>-1.8</ele>
        <time>2021-12-24T14:19:32Z</time>
      </trkpt>
      <trkpt lat="46.38445" lon="-1.1694">
        <ele>-2</ele>
        <time>2021-12-24T14:19:33Z</time>
      </trkpt>
      <trkpt lat="46.38436" lon="-1.16936">
        <ele>-1.8</ele>
        <time>2021-12-24T14:19:35Z</time>
      </trkpt>
      <trkpt lat="46.38428" lon="-1.16933">
        <ele>-1.8</ele>
        <time>2021-12-24T14:19:37Z</time>
      </trkpt>
      <trkpt lat="46.38419" lon="-1.16931">
        <ele>-1.8</ele>
        <time>2021-12-24T14:19:39Z</time>
      </trkpt>
      <trkpt lat="46.38415" lon="-1.16929">
        <ele>-1.8</ele>
        <time>2021-12-24T14:19:40Z</time>
      </trkpt>
      <trkpt lat="46.38411" lon="-1.16928">
        <ele>-1.8</ele>
        <time>2021-12-24T14:19:41Z</time>
      </trkpt>
      <trkpt lat="46.38403" lon="-1.16926">
        <ele>-1.8</ele>
        <time>2021-12-24T14:19:43Z</time>
      </trkpt>
      <trkpt lat="46.38394" lon="-1.16924">
        <ele>-1.6</ele>
        <time>2021-12-24T14:19:45Z</time>
      </trkpt>
      <trkpt lat="46.38386" lon="-1.16924">
        <ele>-1.6</ele>
        <time>2021-12-24T14:19:47Z</time>
      </trkpt>
      <trkpt lat="46.38378" lon="-1.16926">
        <ele>-1.6</ele>
        <time>2021-12-24T14:19:49Z</time>
      </trkpt>
      <trkpt lat="46.3837" lon="-1.16928">
        <ele>-1.6</ele>
        <time>2021-12-24T14:19:51Z</time>
      </trkpt>
      <trkpt lat="46.38365" lon="-1.1693">
        <ele>-1.6</ele>
        <time>2021-12-24T14:19:52Z</time>
      </trkpt>
      <trkpt lat="46.38361" lon="-1.16933">
        <ele>-1.6</ele>
        <time>2021-12-24T14:19:53Z</time>
      </trkpt>
      <trkpt lat="46.38352" lon="-1.16937">
        <ele>-1.6</ele>
        <time>2021-12-24T14:19:55Z</time>
      </trkpt>
      <trkpt lat="46.38342" lon="-1.16942">
        <ele>-1.6</ele>
        <time>2021-12-24T14:19:57Z</time>
      </trkpt>
      <trkpt lat="46.38333" lon="-1.16947">
        <ele>-1.6</ele>
        <time>2021-12-24T14:19:59Z</time>
      </trkpt>
      <trkpt lat="46.38323" lon="-1.16951">
        <ele>-1.6</ele>
        <time>2021-12-24T14:20:01Z</time>
      </trkpt>
      <trkpt lat="46.38313" lon="-1.16954">
        <ele>-1.6</ele>
        <time>2021-12-24T14:20:03Z</time>
      </trkpt>
      <trkpt lat="46.38302" lon="-1.16956">
        <ele>-1.6</ele>
        <time>2021-12-24T14:20:05Z</time>
      </trkpt>
      <trkpt lat="46.38292" lon="-1.16958">
        <ele>-1.6</ele>
        <time>2021-12-24T14:20:07Z</time>
      </trkpt>
      <trkpt lat="46.38287" lon="-1.16958">
        <ele>-1.6</ele>
        <time>2021-12-24T14:20:08Z</time>
      </trkpt>
      <trkpt lat="46.38282" lon="-1.16959">
        <ele>-1.6</ele>
        <time>2021-12-24T14:20:09Z</time>
      </trkpt>
      <trkpt lat="46.38272" lon="-1.16958">
        <ele>-1.6</ele>
        <time>2021-12-24T14:20:11Z</time>
      </trkpt>
      <trkpt lat="46.38264" lon="-1.16955">
        <ele>-1.8</ele>
        <time>2021-12-24T14:20:13Z</time>
      </trkpt>
      <trkpt lat="46.3826" lon="-1.16953">
        <ele>-1.6</ele>
        <time>2021-12-24T14:20:14Z</time>
      </trkpt>
      <trkpt lat="46.38256" lon="-1.16951">
        <ele>-1.8</ele>
        <time>2021-12-24T14:20:15Z</time>
      </trkpt>
      <trkpt lat="46.38248" lon="-1.16947">
        <ele>-1.8</ele>
        <time>2021-12-24T14:20:17Z</time>
      </trkpt>
      <trkpt lat="46.38239" lon="-1.16943">
        <ele>-1.8</ele>
        <time>2021-12-24T14:20:19Z</time>
      </trkpt>
      <trkpt lat="46.3823" lon="-1.16938">
        <ele>-1.6</ele>
        <time>2021-12-24T14:20:21Z</time>
      </trkpt>
      <trkpt lat="46.38226" lon="-1.16936">
        <ele>-1.6</ele>
        <time>2021-12-24T14:20:22Z</time>
      </trkpt>
      <trkpt lat="46.38222" lon="-1.16935">
        <ele>-1.6</ele>
        <time>2021-12-24T14:20:23Z</time>
      </trkpt>
      <trkpt lat="46.38213" lon="-1.16933">
        <ele>-1.6</ele>
        <time>2021-12-24T14:20:25Z</time>
      </trkpt>
      <trkpt lat="46.38203" lon="-1.16933">
        <ele>-1.6</ele>
        <time>2021-12-24T14:20:27Z</time>
      </trkpt>
      <trkpt lat="46.38198" lon="-1.16935">
        <ele>-1.6</ele>
        <time>2021-12-24T14:20:28Z</time>
      </trkpt>
      <trkpt lat="46.38194" lon="-1.16938">
        <ele>-1.6</ele>
        <time>2021-12-24T14:20:29Z</time>
      </trkpt>
      <trkpt lat="46.38184" lon="-1.16945">
        <ele>-1.6</ele>
        <time>2021-12-24T14:20:31Z</time>
      </trkpt>
      <trkpt lat="46.3818" lon="-1.1695">
        <ele>-1.6</ele>
        <time>2021-12-24T14:20:32Z</time>
      </trkpt>
      <trkpt lat="46.38175" lon="-1.16953">
        <ele>-1.6</ele>
        <time>2021-12-24T14:20:33Z</time>
      </trkpt>
      <trkpt lat="46.38165" lon="-1.16958">
        <ele>-1.6</ele>
        <time>2021-12-24T14:20:35Z</time>
      </trkpt>
      <trkpt lat="46.38155" lon="-1.16959">
        <ele>-1.6</ele>
        <time>2021-12-24T14:20:37Z</time>
      </trkpt>
      <trkpt lat="46.38146" lon="-1.16956">
        <ele>-1.8</ele>
        <time>2021-12-24T14:20:39Z</time>
      </trkpt>
      <trkpt lat="46.38138" lon="-1.16949">
        <ele>-1.6</ele>
        <time>2021-12-24T14:20:41Z</time>
      </trkpt>
      <trkpt lat="46.38131" lon="-1.16939">
        <ele>-1.8</ele>
        <time>2021-12-24T14:20:43Z</time>
      </trkpt>
      <trkpt lat="46.38126" lon="-1.16928">
        <ele>-1.8</ele>
        <time>2021-12-24T14:20:45Z</time>
      </trkpt>
      <trkpt lat="46.38123" lon="-1.16923">
        <ele>-1.8</ele>
        <time>2021-12-24T14:20:46Z</time>
      </trkpt>
      <trkpt lat="46.38121" lon="-1.16917">
        <ele>-1.8</ele>
        <time>2021-12-24T14:20:47Z</time>
      </trkpt>
      <trkpt lat="46.38116" lon="-1.16905">
        <ele>-1.8</ele>
        <time>2021-12-24T14:20:49Z</time>
      </trkpt>
      <trkpt lat="46.38111" lon="-1.16895">
        <ele>-1.8</ele>
        <time>2021-12-24T14:20:51Z</time>
      </trkpt>
      <trkpt lat="46.38106" lon="-1.16885">
        <ele>-1.8</ele>
        <time>2021-12-24T14:20:53Z</time>
      </trkpt>
      <trkpt lat="46.381" lon="-1.16875">
        <ele>-1.8</ele>
        <time>2021-12-24T14:20:55Z</time>
      </trkpt>
      <trkpt lat="46.38095" lon="-1.16865">
        <ele>-1.8</ele>
        <time>2021-12-24T14:20:57Z</time>
      </trkpt>
      <trkpt lat="46.3809" lon="-1.16857">
        <ele>-1.8</ele>
        <time>2021-12-24T14:20:59Z</time>
      </trkpt>
      <trkpt lat="46.38087" lon="-1.16852">
        <ele>-1.8</ele>
        <time>2021-12-24T14:21:00Z</time>
      </trkpt>
      <trkpt lat="46.38083" lon="-1.16847">
        <ele>-1.8</ele>
        <time>2021-12-24T14:21:01Z</time>
      </trkpt>
      <trkpt lat="46.3808" lon="-1.16843">
        <ele>-1.8</ele>
        <time>2021-12-24T14:21:02Z</time>
      </trkpt>
      <trkpt lat="46.38077" lon="-1.16838">
        <ele>-2</ele>
        <time>2021-12-24T14:21:03Z</time>
      </trkpt>
      <trkpt lat="46.38072" lon="-1.16828">
        <ele>-2</ele>
        <time>2021-12-24T14:21:05Z</time>
      </trkpt>
      <trkpt lat="46.38066" lon="-1.16818">
        <ele>-2.2</ele>
        <time>2021-12-24T14:21:07Z</time>
      </trkpt>
      <trkpt lat="46.3806" lon="-1.16807">
        <ele>-2.2</ele>
        <time>2021-12-24T14:21:09Z</time>
      </trkpt>
      <trkpt lat="46.38054" lon="-1.16796">
        <ele>-2.4</ele>
        <time>2021-12-24T14:21:11Z</time>
      </trkpt>
      <trkpt lat="46.38048" lon="-1.16786">
        <ele>-2.4</ele>
        <time>2021-12-24T14:21:13Z</time>
      </trkpt>
      <trkpt lat="46.38042" lon="-1.16775">
        <ele>-2.6</ele>
        <time>2021-12-24T14:21:15Z</time>
      </trkpt>
      <trkpt lat="46.38036" lon="-1.16764">
        <ele>-2.6</ele>
        <time>2021-12-24T14:21:17Z</time>
      </trkpt>
      <trkpt lat="46.38029" lon="-1.16753">
        <ele>-2.6</ele>
        <time>2021-12-24T14:21:19Z</time>
      </trkpt>
      <trkpt lat="46.38026" lon="-1.16748">
        <ele>-2.8</ele>
        <time>2021-12-24T14:21:20Z</time>
      </trkpt>
      <trkpt lat="46.38023" lon="-1.16743">
        <ele>-2.8</ele>
        <time>2021-12-24T14:21:21Z</time>
      </trkpt>
      <trkpt lat="46.38017" lon="-1.16733">
        <ele>-2.8</ele>
        <time>2021-12-24T14:21:23Z</time>
      </trkpt>
      <trkpt lat="46.38011" lon="-1.16722">
        <ele>-2.8</ele>
        <time>2021-12-24T14:21:25Z</time>
      </trkpt>
      <trkpt lat="46.38005" lon="-1.16712">
        <ele>-2.8</ele>
        <time>2021-12-24T14:21:27Z</time>
      </trkpt>
      <trkpt lat="46.37999" lon="-1.16702">
        <ele>-3</ele>
        <time>2021-12-24T14:21:29Z</time>
      </trkpt>
      <trkpt lat="46.37993" lon="-1.16692">
        <ele>-3</ele>
        <time>2021-12-24T14:21:31Z</time>
      </trkpt>
      <trkpt lat="46.37987" lon="-1.16682">
        <ele>-3</ele>
        <time>2021-12-24T14:21:33Z</time>
      </trkpt>
      <trkpt lat="46.37981" lon="-1.16671">
        <ele>-3</ele>
        <time>2021-12-24T14:21:35Z</time>
      </trkpt>
      <trkpt lat="46.37977" lon="-1.16667">
        <ele>-3</ele>
        <time>2021-12-24T14:21:36Z</time>
      </trkpt>
      <trkpt lat="46.37974" lon="-1.16662">
        <ele>-3</ele>
        <time>2021-12-24T14:21:37Z</time>
      </trkpt>
      <trkpt lat="46.37968" lon="-1.16651">
        <ele>-3</ele>
        <time>2021-12-24T14:21:39Z</time>
      </trkpt>
      <trkpt lat="46.37962" lon="-1.16641">
        <ele>-3</ele>
        <time>2021-12-24T14:21:41Z</time>
      </trkpt>
      <trkpt lat="46.37959" lon="-1.16637">
        <ele>-2.8</ele>
        <time>2021-12-24T14:21:42Z</time>
      </trkpt>
      <trkpt lat="46.37956" lon="-1.16632">
        <ele>-3.2</ele>
        <time>2021-12-24T14:21:43Z</time>
      </trkpt>
      <trkpt lat="46.37949" lon="-1.16622">
        <ele>-3</ele>
        <time>2021-12-24T14:21:45Z</time>
      </trkpt>
      <trkpt lat="46.37943" lon="-1.16612">
        <ele>-2.8</ele>
        <time>2021-12-24T14:21:47Z</time>
      </trkpt>
      <trkpt lat="46.37937" lon="-1.16602">
        <ele>-2.8</ele>
        <time>2021-12-24T14:21:49Z</time>
      </trkpt>
      <trkpt lat="46.3793" lon="-1.16593">
        <ele>-2.8</ele>
        <time>2021-12-24T14:21:51Z</time>
      </trkpt>
      <trkpt lat="46.37924" lon="-1.16584">
        <ele>-2.8</ele>
        <time>2021-12-24T14:21:53Z</time>
      </trkpt>
      <trkpt lat="46.37917" lon="-1.16574">
        <ele>-2.8</ele>
        <time>2021-12-24T14:21:55Z</time>
      </trkpt>
      <trkpt lat="46.3791" lon="-1.16565">
        <ele>-2.6</ele>
        <time>2021-12-24T14:21:57Z</time>
      </trkpt>
      <trkpt lat="46.37907" lon="-1.1656">
        <ele>-2.6</ele>
        <time>2021-12-24T14:21:58Z</time>
      </trkpt>
      <trkpt lat="46.37903" lon="-1.16556">
        <ele>-2.6</ele>
        <time>2021-12-24T14:21:59Z</time>
      </trkpt>
      <trkpt lat="46.37896" lon="-1.16547">
        <ele>-2.6</ele>
        <time>2021-12-24T14:22:01Z</time>
      </trkpt>
      <trkpt lat="46.37888" lon="-1.16538">
        <ele>-2.6</ele>
        <time>2021-12-24T14:22:03Z</time>
      </trkpt>
      <trkpt lat="46.37881" lon="-1.1653">
        <ele>-2.6</ele>
        <time>2021-12-24T14:22:05Z</time>
      </trkpt>
      <trkpt lat="46.37877" lon="-1.16526">
        <ele>-2.6</ele>
        <time>2021-12-24T14:22:06Z</time>
      </trkpt>
      <trkpt lat="46.37874" lon="-1.16522">
        <ele>-2.6</ele>
        <time>2021-12-24T14:22:07Z</time>
      </trkpt>
      <trkpt lat="46.37867" lon="-1.16514">
        <ele>-2.6</ele>
        <time>2021-12-24T14:22:09Z</time>
      </trkpt>
      <trkpt lat="46.3786" lon="-1.16506">
        <ele>-2.6</ele>
        <time>2021-12-24T14:22:11Z</time>
      </trkpt>
      <trkpt lat="46.37854" lon="-1.16499">
        <ele>-2.6</ele>
        <time>2021-12-24T14:22:13Z</time>
      </trkpt>
      <trkpt lat="46.3785" lon="-1.16495">
        <ele>-2.6</ele>
        <time>2021-12-24T14:22:14Z</time>
      </trkpt>
      <trkpt lat="46.37846" lon="-1.16491">
        <ele>-2.6</ele>
        <time>2021-12-24T14:22:15Z</time>
      </trkpt>
      <trkpt lat="46.37839" lon="-1.16484">
        <ele>-2.4</ele>
        <time>2021-12-24T14:22:17Z</time>
      </trkpt>
      <trkpt lat="46.3783" lon="-1.16477">
        <ele>-2.4</ele>
        <time>2021-12-24T14:22:19Z</time>
      </trkpt>
      <trkpt lat="46.37822" lon="-1.16471">
        <ele>-2.4</ele>
        <time>2021-12-24T14:22:21Z</time>
      </trkpt>
      <trkpt lat="46.37814" lon="-1.16465">
        <ele>-2.4</ele>
        <time>2021-12-24T14:22:23Z</time>
      </trkpt>
      <trkpt lat="46.37805" lon="-1.16459">
        <ele>-2.4</ele>
        <time>2021-12-24T14:22:25Z</time>
      </trkpt>
      <trkpt lat="46.37796" lon="-1.16454">
        <ele>-2.4</ele>
        <time>2021-12-24T14:22:27Z</time>
      </trkpt>
      <trkpt lat="46.37792" lon="-1.16453">
        <ele>-2.4</ele>
        <time>2021-12-24T14:22:28Z</time>
      </trkpt>
      <trkpt lat="46.37787" lon="-1.16451">
        <ele>-2.4</ele>
        <time>2021-12-24T14:22:29Z</time>
      </trkpt>
      <trkpt lat="46.37778" lon="-1.16447">
        <ele>-2.4</ele>
        <time>2021-12-24T14:22:31Z</time>
      </trkpt>
      <trkpt lat="46.37769" lon="-1.16444">
        <ele>-2.4</ele>
        <time>2021-12-24T14:22:33Z</time>
      </trkpt>
      <trkpt lat="46.3776" lon="-1.16441">
        <ele>-2.4</ele>
        <time>2021-12-24T14:22:35Z</time>
      </trkpt>
      <trkpt lat="46.37751" lon="-1.16437">
        <ele>-2.4</ele>
        <time>2021-12-24T14:22:37Z</time>
      </trkpt>
      <trkpt lat="46.37742" lon="-1.16434">
        <ele>-2.4</ele>
        <time>2021-12-24T14:22:39Z</time>
      </trkpt>
      <trkpt lat="46.37733" lon="-1.1643">
        <ele>-2.4</ele>
        <time>2021-12-24T14:22:41Z</time>
      </trkpt>
      <trkpt lat="46.37724" lon="-1.16426">
        <ele>-2.4</ele>
        <time>2021-12-24T14:22:43Z</time>
      </trkpt>
      <trkpt lat="46.37715" lon="-1.16422">
        <ele>-2.4</ele>
        <time>2021-12-24T14:22:45Z</time>
      </trkpt>
      <trkpt lat="46.3771" lon="-1.16419">
        <ele>-2.4</ele>
        <time>2021-12-24T14:22:46Z</time>
      </trkpt>
      <trkpt lat="46.37705" lon="-1.16416">
        <ele>-2.4</ele>
        <time>2021-12-24T14:22:47Z</time>
      </trkpt>
      <trkpt lat="46.37696" lon="-1.16413">
        <ele>-2.2</ele>
        <time>2021-12-24T14:22:49Z</time>
      </trkpt>
      <trkpt lat="46.37688" lon="-1.16409">
        <ele>-2.2</ele>
        <time>2021-12-24T14:22:51Z</time>
      </trkpt>
      <trkpt lat="46.37679" lon="-1.16405">
        <ele>-2.2</ele>
        <time>2021-12-24T14:22:53Z</time>
      </trkpt>
      <trkpt lat="46.37671" lon="-1.16401">
        <ele>-2.2</ele>
        <time>2021-12-24T14:22:55Z</time>
      </trkpt>
      <trkpt lat="46.37662" lon="-1.16397">
        <ele>-2.2</ele>
        <time>2021-12-24T14:22:57Z</time>
      </trkpt>
      <trkpt lat="46.37652" lon="-1.16395">
        <ele>-2.2</ele>
        <time>2021-12-24T14:22:59Z</time>
      </trkpt>
      <trkpt lat="46.37648" lon="-1.16393">
        <ele>-2.2</ele>
        <time>2021-12-24T14:23:00Z</time>
      </trkpt>
      <trkpt lat="46.37644" lon="-1.16392">
        <ele>-2</ele>
        <time>2021-12-24T14:23:01Z</time>
      </trkpt>
      <trkpt lat="46.37635" lon="-1.16389">
        <ele>-2</ele>
        <time>2021-12-24T14:23:03Z</time>
      </trkpt>
      <trkpt lat="46.37626" lon="-1.16385">
        <ele>-2</ele>
        <time>2021-12-24T14:23:05Z</time>
      </trkpt>
      <trkpt lat="46.37618" lon="-1.16381">
        <ele>-2</ele>
        <time>2021-12-24T14:23:07Z</time>
      </trkpt>
      <trkpt lat="46.37609" lon="-1.16378">
        <ele>-2</ele>
        <time>2021-12-24T14:23:09Z</time>
      </trkpt>
      <trkpt lat="46.37601" lon="-1.16373">
        <ele>-2</ele>
        <time>2021-12-24T14:23:11Z</time>
      </trkpt>
      <trkpt lat="46.37592" lon="-1.16369">
        <ele>-2</ele>
        <time>2021-12-24T14:23:13Z</time>
      </trkpt>
      <trkpt lat="46.37583" lon="-1.16366">
        <ele>-2</ele>
        <time>2021-12-24T14:23:15Z</time>
      </trkpt>
      <trkpt lat="46.37579" lon="-1.16363">
        <ele>-2</ele>
        <time>2021-12-24T14:23:16Z</time>
      </trkpt>
      <trkpt lat="46.37575" lon="-1.16361">
        <ele>-2</ele>
        <time>2021-12-24T14:23:17Z</time>
      </trkpt>
      <trkpt lat="46.37566" lon="-1.16357">
        <ele>-1.8</ele>
        <time>2021-12-24T14:23:19Z</time>
      </trkpt>
      <trkpt lat="46.37558" lon="-1.16354">
        <ele>-1.8</ele>
        <time>2021-12-24T14:23:21Z</time>
      </trkpt>
      <trkpt lat="46.37554" lon="-1.16352">
        <ele>-2</ele>
        <time>2021-12-24T14:23:22Z</time>
      </trkpt>
      <trkpt lat="46.3755" lon="-1.1635">
        <ele>-1.8</ele>
        <time>2021-12-24T14:23:23Z</time>
      </trkpt>
      <trkpt lat="46.37542" lon="-1.16346">
        <ele>-1.8</ele>
        <time>2021-12-24T14:23:25Z</time>
      </trkpt>
      <trkpt lat="46.37533" lon="-1.16342">
        <ele>-1.8</ele>
        <time>2021-12-24T14:23:27Z</time>
      </trkpt>
      <trkpt lat="46.37524" lon="-1.16339">
        <ele>-1.8</ele>
        <time>2021-12-24T14:23:29Z</time>
      </trkpt>
      <trkpt lat="46.37519" lon="-1.16337">
        <ele>-1.8</ele>
        <time>2021-12-24T14:23:30Z</time>
      </trkpt>
      <trkpt lat="46.37515" lon="-1.16335">
        <ele>-1.8</ele>
        <time>2021-12-24T14:23:31Z</time>
      </trkpt>
      <trkpt lat="46.37506" lon="-1.16332">
        <ele>-1.8</ele>
        <time>2021-12-24T14:23:33Z</time>
      </trkpt>
      <trkpt lat="46.37497" lon="-1.16328">
        <ele>-1.8</ele>
        <time>2021-12-24T14:23:35Z</time>
      </trkpt>
      <trkpt lat="46.37488" lon="-1.16324">
        <ele>-1.8</ele>
        <time>2021-12-24T14:23:37Z</time>
      </trkpt>
      <trkpt lat="46.3748" lon="-1.16319">
        <ele>-2</ele>
        <time>2021-12-24T14:23:39Z</time>
      </trkpt>
      <trkpt lat="46.37472" lon="-1.16316">
        <ele>-2</ele>
        <time>2021-12-24T14:23:41Z</time>
      </trkpt>
      <trkpt lat="46.37463" lon="-1.16313">
        <ele>-1.8</ele>
        <time>2021-12-24T14:23:43Z</time>
      </trkpt>
      <trkpt lat="46.37455" lon="-1.16309">
        <ele>-1.8</ele>
        <time>2021-12-24T14:23:45Z</time>
      </trkpt>
      <trkpt lat="46.37446" lon="-1.16305">
        <ele>-1.8</ele>
        <time>2021-12-24T14:23:47Z</time>
      </trkpt>
      <trkpt lat="46.37438" lon="-1.16301">
        <ele>-1.8</ele>
        <time>2021-12-24T14:23:49Z</time>
      </trkpt>
      <trkpt lat="46.37429" lon="-1.16297">
        <ele>-1.8</ele>
        <time>2021-12-24T14:23:51Z</time>
      </trkpt>
      <trkpt lat="46.37421" lon="-1.16294">
        <ele>-1.8</ele>
        <time>2021-12-24T14:23:53Z</time>
      </trkpt>
      <trkpt lat="46.37412" lon="-1.1629">
        <ele>-2</ele>
        <time>2021-12-24T14:23:55Z</time>
      </trkpt>
      <trkpt lat="46.37404" lon="-1.16285">
        <ele>-1.8</ele>
        <time>2021-12-24T14:23:57Z</time>
      </trkpt>
      <trkpt lat="46.374" lon="-1.16283">
        <ele>-1.8</ele>
        <time>2021-12-24T14:23:58Z</time>
      </trkpt>
      <trkpt lat="46.37396" lon="-1.16282">
        <ele>-2</ele>
        <time>2021-12-24T14:23:59Z</time>
      </trkpt>
      <trkpt lat="46.37388" lon="-1.16277">
        <ele>-1.8</ele>
        <time>2021-12-24T14:24:01Z</time>
      </trkpt>
      <trkpt lat="46.3738" lon="-1.16274">
        <ele>-1.8</ele>
        <time>2021-12-24T14:24:03Z</time>
      </trkpt>
      <trkpt lat="46.37371" lon="-1.16271">
        <ele>-1.8</ele>
        <time>2021-12-24T14:24:05Z</time>
      </trkpt>
      <trkpt lat="46.37363" lon="-1.16267">
        <ele>-1.8</ele>
        <time>2021-12-24T14:24:07Z</time>
      </trkpt>
      <trkpt lat="46.37354" lon="-1.16264">
        <ele>-1.8</ele>
        <time>2021-12-24T14:24:09Z</time>
      </trkpt>
      <trkpt lat="46.37346" lon="-1.1626">
        <ele>-1.8</ele>
        <time>2021-12-24T14:24:11Z</time>
      </trkpt>
      <trkpt lat="46.37337" lon="-1.16258">
        <ele>-1.6</ele>
        <time>2021-12-24T14:24:13Z</time>
      </trkpt>
      <trkpt lat="46.37329" lon="-1.16255">
        <ele>-1.6</ele>
        <time>2021-12-24T14:24:15Z</time>
      </trkpt>
      <trkpt lat="46.37324" lon="-1.16254">
        <ele>-1.6</ele>
        <time>2021-12-24T14:24:16Z</time>
      </trkpt>
      <trkpt lat="46.3732" lon="-1.16253">
        <ele>-1.6</ele>
        <time>2021-12-24T14:24:17Z</time>
      </trkpt>
      <trkpt lat="46.37311" lon="-1.1625">
        <ele>-1.6</ele>
        <time>2021-12-24T14:24:19Z</time>
      </trkpt>
      <trkpt lat="46.37303" lon="-1.16248">
        <ele>-1.6</ele>
        <time>2021-12-24T14:24:21Z</time>
      </trkpt>
      <trkpt lat="46.37294" lon="-1.16247">
        <ele>-1.6</ele>
        <time>2021-12-24T14:24:23Z</time>
      </trkpt>
      <trkpt lat="46.37285" lon="-1.16245">
        <ele>-1.6</ele>
        <time>2021-12-24T14:24:25Z</time>
      </trkpt>
      <trkpt lat="46.37276" lon="-1.16243">
        <ele>-1.6</ele>
        <time>2021-12-24T14:24:27Z</time>
      </trkpt>
      <trkpt lat="46.37266" lon="-1.1624">
        <ele>-1.6</ele>
        <time>2021-12-24T14:24:29Z</time>
      </trkpt>
      <trkpt lat="46.37257" lon="-1.16238">
        <ele>-1.6</ele>
        <time>2021-12-24T14:24:31Z</time>
      </trkpt>
      <trkpt lat="46.37252" lon="-1.16237">
        <ele>-1.6</ele>
        <time>2021-12-24T14:24:32Z</time>
      </trkpt>
      <trkpt lat="46.37248" lon="-1.16236">
        <ele>-1.6</ele>
        <time>2021-12-24T14:24:33Z</time>
      </trkpt>
      <trkpt lat="46.37239" lon="-1.16235">
        <ele>-1.8</ele>
        <time>2021-12-24T14:24:35Z</time>
      </trkpt>
      <trkpt lat="46.37231" lon="-1.16235">
        <ele>-1.8</ele>
        <time>2021-12-24T14:24:37Z</time>
      </trkpt>
      <trkpt lat="46.37222" lon="-1.16235">
        <ele>-1.6</ele>
        <time>2021-12-24T14:24:39Z</time>
      </trkpt>
      <trkpt lat="46.37219" lon="-1.16234">
        <ele>-1.6</ele>
        <time>2021-12-24T14:24:40Z</time>
      </trkpt>
      <trkpt lat="46.37215" lon="-1.16234">
        <ele>-1.6</ele>
        <time>2021-12-24T14:24:41Z</time>
      </trkpt>
      <trkpt lat="46.37207" lon="-1.16233">
        <ele>-1.8</ele>
        <time>2021-12-24T14:24:43Z</time>
      </trkpt>
      <trkpt lat="46.37198" lon="-1.16233">
        <ele>-1.8</ele>
        <time>2021-12-24T14:24:45Z</time>
      </trkpt>
      <trkpt lat="46.37189" lon="-1.16233">
        <ele>-1.6</ele>
        <time>2021-12-24T14:24:47Z</time>
      </trkpt>
      <trkpt lat="46.37185" lon="-1.16233">
        <ele>-1.6</ele>
        <time>2021-12-24T14:24:48Z</time>
      </trkpt>
      <trkpt lat="46.37181" lon="-1.16233">
        <ele>-1.6</ele>
        <time>2021-12-24T14:24:49Z</time>
      </trkpt>
      <trkpt lat="46.37172" lon="-1.16233">
        <ele>-1.6</ele>
        <time>2021-12-24T14:24:51Z</time>
      </trkpt>
      <trkpt lat="46.37163" lon="-1.16235">
        <ele>-1.6</ele>
        <time>2021-12-24T14:24:53Z</time>
      </trkpt>
      <trkpt lat="46.37154" lon="-1.16237">
        <ele>-1.6</ele>
        <time>2021-12-24T14:24:55Z</time>
      </trkpt>
      <trkpt lat="46.37145" lon="-1.16239">
        <ele>-1.6</ele>
        <time>2021-12-24T14:24:57Z</time>
      </trkpt>
      <trkpt lat="46.37136" lon="-1.16242">
        <ele>-1.6</ele>
        <time>2021-12-24T14:24:59Z</time>
      </trkpt>
      <trkpt lat="46.37128" lon="-1.16244">
        <ele>-1.8</ele>
        <time>2021-12-24T14:25:01Z</time>
      </trkpt>
      <trkpt lat="46.37119" lon="-1.16245">
        <ele>-1.6</ele>
        <time>2021-12-24T14:25:03Z</time>
      </trkpt>
      <trkpt lat="46.37115" lon="-1.16246">
        <ele>-1.6</ele>
        <time>2021-12-24T14:25:04Z</time>
      </trkpt>
      <trkpt lat="46.3711" lon="-1.16247">
        <ele>-1.6</ele>
        <time>2021-12-24T14:25:05Z</time>
      </trkpt>
      <trkpt lat="46.37101" lon="-1.16249">
        <ele>-1.6</ele>
        <time>2021-12-24T14:25:07Z</time>
      </trkpt>
      <trkpt lat="46.37092" lon="-1.16251">
        <ele>-1.6</ele>
        <time>2021-12-24T14:25:09Z</time>
      </trkpt>
      <trkpt lat="46.37084" lon="-1.16252">
        <ele>-1.6</ele>
        <time>2021-12-24T14:25:11Z</time>
      </trkpt>
      <trkpt lat="46.37076" lon="-1.16253">
        <ele>-1.4</ele>
        <time>2021-12-24T14:25:13Z</time>
      </trkpt>
      <trkpt lat="46.37067" lon="-1.16254">
        <ele>-1.6</ele>
        <time>2021-12-24T14:25:15Z</time>
      </trkpt>
      <trkpt lat="46.37059" lon="-1.16255">
        <ele>-1.6</ele>
        <time>2021-12-24T14:25:17Z</time>
      </trkpt>
      <trkpt lat="46.3705" lon="-1.16256">
        <ele>-1.6</ele>
        <time>2021-12-24T14:25:19Z</time>
      </trkpt>
      <trkpt lat="46.37046" lon="-1.16257">
        <ele>-1.6</ele>
        <time>2021-12-24T14:25:20Z</time>
      </trkpt>
      <trkpt lat="46.37042" lon="-1.16258">
        <ele>-1.6</ele>
        <time>2021-12-24T14:25:21Z</time>
      </trkpt>
      <trkpt lat="46.37033" lon="-1.16261">
        <ele>-1.4</ele>
        <time>2021-12-24T14:25:23Z</time>
      </trkpt>
      <trkpt lat="46.37028" lon="-1.16261">
        <ele>-1.4</ele>
        <time>2021-12-24T14:25:24Z</time>
      </trkpt>
      <trkpt lat="46.37024" lon="-1.16262">
        <ele>-1.4</ele>
        <time>2021-12-24T14:25:25Z</time>
      </trkpt>
      <trkpt lat="46.3702" lon="-1.16263">
        <ele>-1.4</ele>
        <time>2021-12-24T14:25:26Z</time>
      </trkpt>
      <trkpt lat="46.37015" lon="-1.16263">
        <ele>-1.6</ele>
        <time>2021-12-24T14:25:27Z</time>
      </trkpt>
      <trkpt lat="46.37011" lon="-1.16263">
        <ele>-1.6</ele>
        <time>2021-12-24T14:25:28Z</time>
      </trkpt>
      <trkpt lat="46.37007" lon="-1.16264">
        <ele>-1.6</ele>
        <time>2021-12-24T14:25:29Z</time>
      </trkpt>
      <trkpt lat="46.36998" lon="-1.16265">
        <ele>-1.6</ele>
        <time>2021-12-24T14:25:31Z</time>
      </trkpt>
      <trkpt lat="46.36989" lon="-1.16266">
        <ele>-1.4</ele>
        <time>2021-12-24T14:25:33Z</time>
      </trkpt>
      <trkpt lat="46.36981" lon="-1.16267">
        <ele>-1.6</ele>
        <time>2021-12-24T14:25:35Z</time>
      </trkpt>
      <trkpt lat="46.36972" lon="-1.16268">
        <ele>-1.4</ele>
        <time>2021-12-24T14:25:37Z</time>
      </trkpt>
      <trkpt lat="46.36963" lon="-1.1627">
        <ele>-1.4</ele>
        <time>2021-12-24T14:25:39Z</time>
      </trkpt>
      <trkpt lat="46.36955" lon="-1.16271">
        <ele>-1.4</ele>
        <time>2021-12-24T14:25:41Z</time>
      </trkpt>
      <trkpt lat="46.36946" lon="-1.16273">
        <ele>-1.4</ele>
        <time>2021-12-24T14:25:43Z</time>
      </trkpt>
      <trkpt lat="46.36938" lon="-1.16274">
        <ele>-1.6</ele>
        <time>2021-12-24T14:25:45Z</time>
      </trkpt>
      <trkpt lat="46.36929" lon="-1.16275">
        <ele>-1.6</ele>
        <time>2021-12-24T14:25:47Z</time>
      </trkpt>
      <trkpt lat="46.36921" lon="-1.16277">
        <ele>-1.6</ele>
        <time>2021-12-24T14:25:49Z</time>
      </trkpt>
      <trkpt lat="46.36913" lon="-1.16278">
        <ele>-1.6</ele>
        <time>2021-12-24T14:25:51Z</time>
      </trkpt>
      <trkpt lat="46.36905" lon="-1.16279">
        <ele>-1.6</ele>
        <time>2021-12-24T14:25:53Z</time>
      </trkpt>
      <trkpt lat="46.36896" lon="-1.1628">
        <ele>-1.4</ele>
        <time>2021-12-24T14:25:55Z</time>
      </trkpt>
      <trkpt lat="46.36888" lon="-1.16281">
        <ele>-1.4</ele>
        <time>2021-12-24T14:25:57Z</time>
      </trkpt>
      <trkpt lat="46.36879" lon="-1.16282">
        <ele>-1.4</ele>
        <time>2021-12-24T14:25:59Z</time>
      </trkpt>
      <trkpt lat="46.36871" lon="-1.16284">
        <ele>-1.4</ele>
        <time>2021-12-24T14:26:01Z</time>
      </trkpt>
      <trkpt lat="46.36862" lon="-1.16287">
        <ele>-1.4</ele>
        <time>2021-12-24T14:26:03Z</time>
      </trkpt>
      <trkpt lat="46.36854" lon="-1.1629">
        <ele>-1.4</ele>
        <time>2021-12-24T14:26:05Z</time>
      </trkpt>
      <trkpt lat="46.36846" lon="-1.16295">
        <ele>-1.4</ele>
        <time>2021-12-24T14:26:07Z</time>
      </trkpt>
      <trkpt lat="46.36839" lon="-1.16299">
        <ele>-1.4</ele>
        <time>2021-12-24T14:26:09Z</time>
      </trkpt>
      <trkpt lat="46.36831" lon="-1.16304">
        <ele>-1.4</ele>
        <time>2021-12-24T14:26:11Z</time>
      </trkpt>
      <trkpt lat="46.36823" lon="-1.16309">
        <ele>-1.4</ele>
        <time>2021-12-24T14:26:13Z</time>
      </trkpt>
      <trkpt lat="46.36815" lon="-1.16314">
        <ele>-1.4</ele>
        <time>2021-12-24T14:26:15Z</time>
      </trkpt>
      <trkpt lat="46.36811" lon="-1.16317">
        <ele>-1.4</ele>
        <time>2021-12-24T14:26:16Z</time>
      </trkpt>
      <trkpt lat="46.36807" lon="-1.16319">
        <ele>-1.4</ele>
        <time>2021-12-24T14:26:17Z</time>
      </trkpt>
      <trkpt lat="46.36798" lon="-1.16324">
        <ele>-1.4</ele>
        <time>2021-12-24T14:26:19Z</time>
      </trkpt>
      <trkpt lat="46.3679" lon="-1.16329">
        <ele>-1.4</ele>
        <time>2021-12-24T14:26:21Z</time>
      </trkpt>
      <trkpt lat="46.36782" lon="-1.16334">
        <ele>-1.4</ele>
        <time>2021-12-24T14:26:23Z</time>
      </trkpt>
      <trkpt lat="46.36774" lon="-1.16338">
        <ele>-1.4</ele>
        <time>2021-12-24T14:26:25Z</time>
      </trkpt>
      <trkpt lat="46.36766" lon="-1.16342">
        <ele>-1.4</ele>
        <time>2021-12-24T14:26:27Z</time>
      </trkpt>
      <trkpt lat="46.36758" lon="-1.16346">
        <ele>-1.4</ele>
        <time>2021-12-24T14:26:29Z</time>
      </trkpt>
      <trkpt lat="46.3675" lon="-1.1635">
        <ele>-1.6</ele>
        <time>2021-12-24T14:26:31Z</time>
      </trkpt>
      <trkpt lat="46.36741" lon="-1.16354">
        <ele>-1.6</ele>
        <time>2021-12-24T14:26:33Z</time>
      </trkpt>
      <trkpt lat="46.36737" lon="-1.16357">
        <ele>-1.6</ele>
        <time>2021-12-24T14:26:34Z</time>
      </trkpt>
      <trkpt lat="46.36733" lon="-1.1636">
        <ele>-1.6</ele>
        <time>2021-12-24T14:26:35Z</time>
      </trkpt>
      <trkpt lat="46.36729" lon="-1.16362">
        <ele>-1.6</ele>
        <time>2021-12-24T14:26:36Z</time>
      </trkpt>
      <trkpt lat="46.36725" lon="-1.16364">
        <ele>-1.6</ele>
        <time>2021-12-24T14:26:37Z</time>
      </trkpt>
      <trkpt lat="46.36717" lon="-1.16367">
        <ele>-1.6</ele>
        <time>2021-12-24T14:26:39Z</time>
      </trkpt>
      <trkpt lat="46.3671" lon="-1.16371">
        <ele>-1.4</ele>
        <time>2021-12-24T14:26:41Z</time>
      </trkpt>
      <trkpt lat="46.36702" lon="-1.16376">
        <ele>-1.4</ele>
        <time>2021-12-24T14:26:43Z</time>
      </trkpt>
      <trkpt lat="46.36694" lon="-1.16379">
        <ele>-1.4</ele>
        <time>2021-12-24T14:26:45Z</time>
      </trkpt>
      <trkpt lat="46.36685" lon="-1.16383">
        <ele>-1.4</ele>
        <time>2021-12-24T14:26:47Z</time>
      </trkpt>
      <trkpt lat="46.36677" lon="-1.16387">
        <ele>-1.4</ele>
        <time>2021-12-24T14:26:49Z</time>
      </trkpt>
      <trkpt lat="46.36669" lon="-1.16391">
        <ele>-1.4</ele>
        <time>2021-12-24T14:26:51Z</time>
      </trkpt>
      <trkpt lat="46.36661" lon="-1.16395">
        <ele>-1.4</ele>
        <time>2021-12-24T14:26:53Z</time>
      </trkpt>
      <trkpt lat="46.36652" lon="-1.16399">
        <ele>-1.4</ele>
        <time>2021-12-24T14:26:55Z</time>
      </trkpt>
      <trkpt lat="46.36644" lon="-1.16404">
        <ele>-1.6</ele>
        <time>2021-12-24T14:26:57Z</time>
      </trkpt>
      <trkpt lat="46.36635" lon="-1.16408">
        <ele>-1.6</ele>
        <time>2021-12-24T14:26:59Z</time>
      </trkpt>
      <trkpt lat="46.36627" lon="-1.16413">
        <ele>-1.6</ele>
        <time>2021-12-24T14:27:01Z</time>
      </trkpt>
      <trkpt lat="46.36619" lon="-1.16417">
        <ele>-1.6</ele>
        <time>2021-12-24T14:27:03Z</time>
      </trkpt>
      <trkpt lat="46.36611" lon="-1.16422">
        <ele>-1.6</ele>
        <time>2021-12-24T14:27:05Z</time>
      </trkpt>
      <trkpt lat="46.36603" lon="-1.16426">
        <ele>-1.8</ele>
        <time>2021-12-24T14:27:07Z</time>
      </trkpt>
      <trkpt lat="46.36594" lon="-1.1643">
        <ele>-1.8</ele>
        <time>2021-12-24T14:27:09Z</time>
      </trkpt>
      <trkpt lat="46.3659" lon="-1.16432">
        <ele>-1.8</ele>
        <time>2021-12-24T14:27:10Z</time>
      </trkpt>
      <trkpt lat="46.36586" lon="-1.16434">
        <ele>-1.8</ele>
        <time>2021-12-24T14:27:11Z</time>
      </trkpt>
      <trkpt lat="46.36578" lon="-1.16438">
        <ele>-2</ele>
        <time>2021-12-24T14:27:13Z</time>
      </trkpt>
      <trkpt lat="46.3657" lon="-1.16442">
        <ele>-2</ele>
        <time>2021-12-24T14:27:15Z</time>
      </trkpt>
      <trkpt lat="46.36562" lon="-1.16446">
        <ele>-2</ele>
        <time>2021-12-24T14:27:17Z</time>
      </trkpt>
      <trkpt lat="46.36555" lon="-1.16451">
        <ele>-2</ele>
        <time>2021-12-24T14:27:19Z</time>
      </trkpt>
      <trkpt lat="46.36551" lon="-1.16453">
        <ele>-2</ele>
        <time>2021-12-24T14:27:20Z</time>
      </trkpt>
      <trkpt lat="46.36547" lon="-1.16455">
        <ele>-2</ele>
        <time>2021-12-24T14:27:21Z</time>
      </trkpt>
      <trkpt lat="46.36539" lon="-1.16459">
        <ele>-2</ele>
        <time>2021-12-24T14:27:23Z</time>
      </trkpt>
      <trkpt lat="46.36531" lon="-1.16464">
        <ele>-2</ele>
        <time>2021-12-24T14:27:25Z</time>
      </trkpt>
      <trkpt lat="46.36523" lon="-1.16468">
        <ele>-2</ele>
        <time>2021-12-24T14:27:27Z</time>
      </trkpt>
      <trkpt lat="46.36519" lon="-1.1647">
        <ele>-2</ele>
        <time>2021-12-24T14:27:28Z</time>
      </trkpt>
      <trkpt lat="46.36515" lon="-1.16472">
        <ele>-2</ele>
        <time>2021-12-24T14:27:29Z</time>
      </trkpt>
      <trkpt lat="46.36506" lon="-1.16476">
        <ele>-2.2</ele>
        <time>2021-12-24T14:27:31Z</time>
      </trkpt>
      <trkpt lat="46.36498" lon="-1.16481">
        <ele>-2.2</ele>
        <time>2021-12-24T14:27:33Z</time>
      </trkpt>
      <trkpt lat="46.3649" lon="-1.16485">
        <ele>-2.2</ele>
        <time>2021-12-24T14:27:35Z</time>
      </trkpt>
      <trkpt lat="46.36486" lon="-1.16487">
        <ele>-2.2</ele>
        <time>2021-12-24T14:27:36Z</time>
      </trkpt>
      <trkpt lat="46.36482" lon="-1.16489">
        <ele>-2.2</ele>
        <time>2021-12-24T14:27:37Z</time>
      </trkpt>
      <trkpt lat="46.36474" lon="-1.16493">
        <ele>-2.2</ele>
        <time>2021-12-24T14:27:39Z</time>
      </trkpt>
      <trkpt lat="46.36466" lon="-1.16497">
        <ele>-2.4</ele>
        <time>2021-12-24T14:27:41Z</time>
      </trkpt>
      <trkpt lat="46.36457" lon="-1.16501">
        <ele>-2.4</ele>
        <time>2021-12-24T14:27:43Z</time>
      </trkpt>
      <trkpt lat="46.36449" lon="-1.16506">
        <ele>-2.4</ele>
        <time>2021-12-24T14:27:45Z</time>
      </trkpt>
      <trkpt lat="46.36445" lon="-1.16508">
        <ele>-2.4</ele>
        <time>2021-12-24T14:27:46Z</time>
      </trkpt>
      <trkpt lat="46.3644" lon="-1.1651">
        <ele>-2.4</ele>
        <time>2021-12-24T14:27:47Z</time>
      </trkpt>
      <trkpt lat="46.36432" lon="-1.16514">
        <ele>-2.4</ele>
        <time>2021-12-24T14:27:49Z</time>
      </trkpt>
      <trkpt lat="46.36423" lon="-1.16518">
        <ele>-2.4</ele>
        <time>2021-12-24T14:27:51Z</time>
      </trkpt>
      <trkpt lat="46.36415" lon="-1.16522">
        <ele>-2.4</ele>
        <time>2021-12-24T14:27:53Z</time>
      </trkpt>
      <trkpt lat="46.36411" lon="-1.16524">
        <ele>-2.4</ele>
        <time>2021-12-24T14:27:54Z</time>
      </trkpt>
      <trkpt lat="46.36407" lon="-1.16527">
        <ele>-2.4</ele>
        <time>2021-12-24T14:27:55Z</time>
      </trkpt>
      <trkpt lat="46.36398" lon="-1.16531">
        <ele>-2.4</ele>
        <time>2021-12-24T14:27:57Z</time>
      </trkpt>
      <trkpt lat="46.3639" lon="-1.16535">
        <ele>-2.4</ele>
        <time>2021-12-24T14:27:59Z</time>
      </trkpt>
      <trkpt lat="46.36382" lon="-1.16539">
        <ele>-2.4</ele>
        <time>2021-12-24T14:28:01Z</time>
      </trkpt>
      <trkpt lat="46.36378" lon="-1.16541">
        <ele>-2.6</ele>
        <time>2021-12-24T14:28:02Z</time>
      </trkpt>
      <trkpt lat="46.36374" lon="-1.16543">
        <ele>-2.6</ele>
        <time>2021-12-24T14:28:03Z</time>
      </trkpt>
      <trkpt lat="46.36366" lon="-1.16548">
        <ele>-2.6</ele>
        <time>2021-12-24T14:28:05Z</time>
      </trkpt>
      <trkpt lat="46.36357" lon="-1.16552">
        <ele>-2.6</ele>
        <time>2021-12-24T14:28:07Z</time>
      </trkpt>
      <trkpt lat="46.36349" lon="-1.16556">
        <ele>-2.6</ele>
        <time>2021-12-24T14:28:09Z</time>
      </trkpt>
      <trkpt lat="46.36341" lon="-1.1656">
        <ele>-2.6</ele>
        <time>2021-12-24T14:28:11Z</time>
      </trkpt>
      <trkpt lat="46.36332" lon="-1.16565">
        <ele>-2.6</ele>
        <time>2021-12-24T14:28:13Z</time>
      </trkpt>
      <trkpt lat="46.36324" lon="-1.16569">
        <ele>-2.6</ele>
        <time>2021-12-24T14:28:15Z</time>
      </trkpt>
      <trkpt lat="46.3632" lon="-1.16572">
        <ele>-2.6</ele>
        <time>2021-12-24T14:28:16Z</time>
      </trkpt>
      <trkpt lat="46.36316" lon="-1.16574">
        <ele>-2.6</ele>
        <time>2021-12-24T14:28:17Z</time>
      </trkpt>
      <trkpt lat="46.36308" lon="-1.16579">
        <ele>-2.6</ele>
        <time>2021-12-24T14:28:19Z</time>
      </trkpt>
      <trkpt lat="46.363" lon="-1.16583">
        <ele>-2.6</ele>
        <time>2021-12-24T14:28:21Z</time>
      </trkpt>
      <trkpt lat="46.36292" lon="-1.16588">
        <ele>-2.4</ele>
        <time>2021-12-24T14:28:23Z</time>
      </trkpt>
      <trkpt lat="46.36287" lon="-1.1659">
        <ele>-2.4</ele>
        <time>2021-12-24T14:28:24Z</time>
      </trkpt>
      <trkpt lat="46.36283" lon="-1.16592">
        <ele>-2.4</ele>
        <time>2021-12-24T14:28:25Z</time>
      </trkpt>
      <trkpt lat="46.36275" lon="-1.16596">
        <ele>-2.4</ele>
        <time>2021-12-24T14:28:27Z</time>
      </trkpt>
      <trkpt lat="46.36266" lon="-1.16601">
        <ele>-2.4</ele>
        <time>2021-12-24T14:28:29Z</time>
      </trkpt>
      <trkpt lat="46.36257" lon="-1.16604">
        <ele>-2.4</ele>
        <time>2021-12-24T14:28:31Z</time>
      </trkpt>
      <trkpt lat="46.36253" lon="-1.16607">
        <ele>-2.4</ele>
        <time>2021-12-24T14:28:32Z</time>
      </trkpt>
      <trkpt lat="46.36248" lon="-1.16609">
        <ele>-2.4</ele>
        <time>2021-12-24T14:28:33Z</time>
      </trkpt>
      <trkpt lat="46.36239" lon="-1.16613">
        <ele>-2.4</ele>
        <time>2021-12-24T14:28:35Z</time>
      </trkpt>
      <trkpt lat="46.36231" lon="-1.16617">
        <ele>-2.6</ele>
        <time>2021-12-24T14:28:37Z</time>
      </trkpt>
      <trkpt lat="46.36223" lon="-1.1662">
        <ele>-2.4</ele>
        <time>2021-12-24T14:28:39Z</time>
      </trkpt>
      <trkpt lat="46.36215" lon="-1.16624">
        <ele>-2.4</ele>
        <time>2021-12-24T14:28:41Z</time>
      </trkpt>
      <trkpt lat="46.36207" lon="-1.16628">
        <ele>-2.4</ele>
        <time>2021-12-24T14:28:43Z</time>
      </trkpt>
      <trkpt lat="46.36198" lon="-1.16632">
        <ele>-2.4</ele>
        <time>2021-12-24T14:28:45Z</time>
      </trkpt>
      <trkpt lat="46.3619" lon="-1.16637">
        <ele>-2.4</ele>
        <time>2021-12-24T14:28:47Z</time>
      </trkpt>
      <trkpt lat="46.36181" lon="-1.16641">
        <ele>-2.4</ele>
        <time>2021-12-24T14:28:49Z</time>
      </trkpt>
      <trkpt lat="46.36173" lon="-1.16645">
        <ele>-2.4</ele>
        <time>2021-12-24T14:28:51Z</time>
      </trkpt>
      <trkpt lat="46.36165" lon="-1.16649">
        <ele>-2.4</ele>
        <time>2021-12-24T14:28:53Z</time>
      </trkpt>
      <trkpt lat="46.36156" lon="-1.16653">
        <ele>-2.4</ele>
        <time>2021-12-24T14:28:55Z</time>
      </trkpt>
      <trkpt lat="46.36148" lon="-1.16658">
        <ele>-2.4</ele>
        <time>2021-12-24T14:28:57Z</time>
      </trkpt>
      <trkpt lat="46.36143" lon="-1.1666">
        <ele>-2.4</ele>
        <time>2021-12-24T14:28:58Z</time>
      </trkpt>
      <trkpt lat="46.36139" lon="-1.16663">
        <ele>-2.4</ele>
        <time>2021-12-24T14:28:59Z</time>
      </trkpt>
      <trkpt lat="46.36131" lon="-1.16668">
        <ele>-2.4</ele>
        <time>2021-12-24T14:29:01Z</time>
      </trkpt>
      <trkpt lat="46.36123" lon="-1.16673">
        <ele>-2.4</ele>
        <time>2021-12-24T14:29:03Z</time>
      </trkpt>
      <trkpt lat="46.36115" lon="-1.16678">
        <ele>-2.4</ele>
        <time>2021-12-24T14:29:05Z</time>
      </trkpt>
      <trkpt lat="46.36107" lon="-1.16683">
        <ele>-2.4</ele>
        <time>2021-12-24T14:29:07Z</time>
      </trkpt>
      <trkpt lat="46.36099" lon="-1.16688">
        <ele>-2.4</ele>
        <time>2021-12-24T14:29:09Z</time>
      </trkpt>
      <trkpt lat="46.3609" lon="-1.16691">
        <ele>-2.4</ele>
        <time>2021-12-24T14:29:11Z</time>
      </trkpt>
      <trkpt lat="46.36082" lon="-1.16693">
        <ele>-2.4</ele>
        <time>2021-12-24T14:29:13Z</time>
      </trkpt>
      <trkpt lat="46.36074" lon="-1.16694">
        <ele>-2.4</ele>
        <time>2021-12-24T14:29:15Z</time>
      </trkpt>
      <trkpt lat="46.36065" lon="-1.16693">
        <ele>-2.4</ele>
        <time>2021-12-24T14:29:17Z</time>
      </trkpt>
      <trkpt lat="46.36057" lon="-1.16692">
        <ele>-2.4</ele>
        <time>2021-12-24T14:29:19Z</time>
      </trkpt>
      <trkpt lat="46.36048" lon="-1.1669">
        <ele>-2.4</ele>
        <time>2021-12-24T14:29:21Z</time>
      </trkpt>
      <trkpt lat="46.36044" lon="-1.16689">
        <ele>-2.4</ele>
        <time>2021-12-24T14:29:22Z</time>
      </trkpt>
      <trkpt lat="46.3604" lon="-1.16689">
        <ele>-2.4</ele>
        <time>2021-12-24T14:29:23Z</time>
      </trkpt>
      <trkpt lat="46.36031" lon="-1.16688">
        <ele>-2.4</ele>
        <time>2021-12-24T14:29:25Z</time>
      </trkpt>
      <trkpt lat="46.36023" lon="-1.16688">
        <ele>-2.2</ele>
        <time>2021-12-24T14:29:27Z</time>
      </trkpt>
      <trkpt lat="46.36015" lon="-1.16688">
        <ele>-2.2</ele>
        <time>2021-12-24T14:29:29Z</time>
      </trkpt>
      <trkpt lat="46.36011" lon="-1.16688">
        <ele>-2.2</ele>
        <time>2021-12-24T14:29:30Z</time>
      </trkpt>
      <trkpt lat="46.36007" lon="-1.16688">
        <ele>-2.2</ele>
        <time>2021-12-24T14:29:31Z</time>
      </trkpt>
      <trkpt lat="46.35999" lon="-1.16687">
        <ele>-2.2</ele>
        <time>2021-12-24T14:29:33Z</time>
      </trkpt>
      <trkpt lat="46.35991" lon="-1.16686">
        <ele>-2.2</ele>
        <time>2021-12-24T14:29:35Z</time>
      </trkpt>
      <trkpt lat="46.35983" lon="-1.16685">
        <ele>-2.2</ele>
        <time>2021-12-24T14:29:37Z</time>
      </trkpt>
      <trkpt lat="46.35979" lon="-1.16684">
        <ele>-2.2</ele>
        <time>2021-12-24T14:29:38Z</time>
      </trkpt>
      <trkpt lat="46.35975" lon="-1.16683">
        <ele>-2.2</ele>
        <time>2021-12-24T14:29:39Z</time>
      </trkpt>
      <trkpt lat="46.35967" lon="-1.16682">
        <ele>-2.2</ele>
        <time>2021-12-24T14:29:41Z</time>
      </trkpt>
      <trkpt lat="46.35959" lon="-1.16681">
        <ele>-2.2</ele>
        <time>2021-12-24T14:29:43Z</time>
      </trkpt>
      <trkpt lat="46.35951" lon="-1.16679">
        <ele>-2</ele>
        <time>2021-12-24T14:29:45Z</time>
      </trkpt>
      <trkpt lat="46.35947" lon="-1.16679">
        <ele>-2</ele>
        <time>2021-12-24T14:29:46Z</time>
      </trkpt>
      <trkpt lat="46.35943" lon="-1.16678">
        <ele>-2</ele>
        <time>2021-12-24T14:29:47Z</time>
      </trkpt>
      <trkpt lat="46.35935" lon="-1.16676">
        <ele>-2</ele>
        <time>2021-12-24T14:29:49Z</time>
      </trkpt>
      <trkpt lat="46.35926" lon="-1.16675">
        <ele>-2</ele>
        <time>2021-12-24T14:29:51Z</time>
      </trkpt>
      <trkpt lat="46.35918" lon="-1.16673">
        <ele>-2</ele>
        <time>2021-12-24T14:29:53Z</time>
      </trkpt>
      <trkpt lat="46.3591" lon="-1.16672">
        <ele>-2</ele>
        <time>2021-12-24T14:29:55Z</time>
      </trkpt>
      <trkpt lat="46.35902" lon="-1.16671">
        <ele>-2</ele>
        <time>2021-12-24T14:29:57Z</time>
      </trkpt>
      <trkpt lat="46.35894" lon="-1.16669">
        <ele>-1.8</ele>
        <time>2021-12-24T14:29:59Z</time>
      </trkpt>
      <trkpt lat="46.35885" lon="-1.16668">
        <ele>-1.8</ele>
        <time>2021-12-24T14:30:01Z</time>
      </trkpt>
      <trkpt lat="46.35877" lon="-1.16666">
        <ele>-1.8</ele>
        <time>2021-12-24T14:30:03Z</time>
      </trkpt>
      <trkpt lat="46.3587" lon="-1.16664">
        <ele>-1.8</ele>
        <time>2021-12-24T14:30:05Z</time>
      </trkpt>
      <trkpt lat="46.35862" lon="-1.16663">
        <ele>-1.8</ele>
        <time>2021-12-24T14:30:07Z</time>
      </trkpt>
      <trkpt lat="46.35854" lon="-1.16662">
        <ele>-1.8</ele>
        <time>2021-12-24T14:30:09Z</time>
      </trkpt>
      <trkpt lat="46.35847" lon="-1.16661">
        <ele>-1.8</ele>
        <time>2021-12-24T14:30:11Z</time>
      </trkpt>
      <trkpt lat="46.35844" lon="-1.16661">
        <ele>-1.8</ele>
        <time>2021-12-24T14:30:12Z</time>
      </trkpt>
      <trkpt lat="46.35841" lon="-1.1666">
        <ele>-1.8</ele>
        <time>2021-12-24T14:30:13Z</time>
      </trkpt>
      <trkpt lat="46.35835" lon="-1.16659">
        <ele>-1.8</ele>
        <time>2021-12-24T14:30:15Z</time>
      </trkpt>
      <trkpt lat="46.3583" lon="-1.16658">
        <ele>-1.8</ele>
        <time>2021-12-24T14:30:17Z</time>
      </trkpt>
      <trkpt lat="46.35825" lon="-1.16657">
        <ele>-1.8</ele>
        <time>2021-12-24T14:30:19Z</time>
      </trkpt>
      <trkpt lat="46.35818" lon="-1.16656">
        <ele>-1.8</ele>
        <time>2021-12-24T14:30:21Z</time>
      </trkpt>
      <trkpt lat="46.35811" lon="-1.16655">
        <ele>-1.8</ele>
        <time>2021-12-24T14:30:23Z</time>
      </trkpt>
      <trkpt lat="46.35803" lon="-1.16654">
        <ele>-1.6</ele>
        <time>2021-12-24T14:30:25Z</time>
      </trkpt>
      <trkpt lat="46.35796" lon="-1.16653">
        <ele>-1.6</ele>
        <time>2021-12-24T14:30:27Z</time>
      </trkpt>
      <trkpt lat="46.35788" lon="-1.16652">
        <ele>-1.6</ele>
        <time>2021-12-24T14:30:29Z</time>
      </trkpt>
      <trkpt lat="46.35779" lon="-1.16651">
        <ele>-1.8</ele>
        <time>2021-12-24T14:30:31Z</time>
      </trkpt>
      <trkpt lat="46.35775" lon="-1.1665">
        <ele>-1.6</ele>
        <time>2021-12-24T14:30:32Z</time>
      </trkpt>
      <trkpt lat="46.3577" lon="-1.16649">
        <ele>-1.8</ele>
        <time>2021-12-24T14:30:33Z</time>
      </trkpt>
      <trkpt lat="46.35762" lon="-1.16648">
        <ele>-1.8</ele>
        <time>2021-12-24T14:30:35Z</time>
      </trkpt>
      <trkpt lat="46.35754" lon="-1.16646">
        <ele>-1.8</ele>
        <time>2021-12-24T14:30:37Z</time>
      </trkpt>
      <trkpt lat="46.35746" lon="-1.16645">
        <ele>-1.8</ele>
        <time>2021-12-24T14:30:39Z</time>
      </trkpt>
      <trkpt lat="46.35742" lon="-1.16644">
        <ele>-1.8</ele>
        <time>2021-12-24T14:30:40Z</time>
      </trkpt>
      <trkpt lat="46.35738" lon="-1.16643">
        <ele>-1.8</ele>
        <time>2021-12-24T14:30:41Z</time>
      </trkpt>
      <trkpt lat="46.35729" lon="-1.16641">
        <ele>-1.8</ele>
        <time>2021-12-24T14:30:43Z</time>
      </trkpt>
      <trkpt lat="46.35721" lon="-1.1664">
        <ele>-1.8</ele>
        <time>2021-12-24T14:30:45Z</time>
      </trkpt>
      <trkpt lat="46.35713" lon="-1.16638">
        <ele>-1.8</ele>
        <time>2021-12-24T14:30:47Z</time>
      </trkpt>
      <trkpt lat="46.35708" lon="-1.16638">
        <ele>-1.8</ele>
        <time>2021-12-24T14:30:48Z</time>
      </trkpt>
      <trkpt lat="46.35704" lon="-1.16637">
        <ele>-2</ele>
        <time>2021-12-24T14:30:49Z</time>
      </trkpt>
      <trkpt lat="46.35695" lon="-1.16636">
        <ele>-1.8</ele>
        <time>2021-12-24T14:30:51Z</time>
      </trkpt>
      <trkpt lat="46.35691" lon="-1.16636">
        <ele>-1.8</ele>
        <time>2021-12-24T14:30:52Z</time>
      </trkpt>
      <trkpt lat="46.35686" lon="-1.16636">
        <ele>-1.8</ele>
        <time>2021-12-24T14:30:53Z</time>
      </trkpt>
      <trkpt lat="46.35678" lon="-1.16634">
        <ele>-2</ele>
        <time>2021-12-24T14:30:55Z</time>
      </trkpt>
      <trkpt lat="46.35669" lon="-1.16633">
        <ele>-1.8</ele>
        <time>2021-12-24T14:30:57Z</time>
      </trkpt>
      <trkpt lat="46.35661" lon="-1.16631">
        <ele>-2</ele>
        <time>2021-12-24T14:30:59Z</time>
      </trkpt>
      <trkpt lat="46.35653" lon="-1.1663">
        <ele>-1.8</ele>
        <time>2021-12-24T14:31:01Z</time>
      </trkpt>
      <trkpt lat="46.35648" lon="-1.16629">
        <ele>-1.8</ele>
        <time>2021-12-24T14:31:02Z</time>
      </trkpt>
      <trkpt lat="46.35644" lon="-1.16628">
        <ele>-1.8</ele>
        <time>2021-12-24T14:31:03Z</time>
      </trkpt>
      <trkpt lat="46.35641" lon="-1.16627">
        <ele>-1.8</ele>
        <time>2021-12-24T14:31:04Z</time>
      </trkpt>
      <trkpt lat="46.35636" lon="-1.16626">
        <ele>-1.8</ele>
        <time>2021-12-24T14:31:05Z</time>
      </trkpt>
      <trkpt lat="46.35629" lon="-1.16624">
        <ele>-1.8</ele>
        <time>2021-12-24T14:31:07Z</time>
      </trkpt>
      <trkpt lat="46.35625" lon="-1.16623">
        <ele>-1.8</ele>
        <time>2021-12-24T14:31:08Z</time>
      </trkpt>
      <trkpt lat="46.35621" lon="-1.16622">
        <ele>-1.8</ele>
        <time>2021-12-24T14:31:09Z</time>
      </trkpt>
      <trkpt lat="46.35612" lon="-1.16621">
        <ele>-1.8</ele>
        <time>2021-12-24T14:31:11Z</time>
      </trkpt>
      <trkpt lat="46.35604" lon="-1.1662">
        <ele>-1.8</ele>
        <time>2021-12-24T14:31:13Z</time>
      </trkpt>
      <trkpt lat="46.35595" lon="-1.16619">
        <ele>-2</ele>
        <time>2021-12-24T14:31:15Z</time>
      </trkpt>
      <trkpt lat="46.35587" lon="-1.16619">
        <ele>-1.8</ele>
        <time>2021-12-24T14:31:17Z</time>
      </trkpt>
      <trkpt lat="46.3558" lon="-1.16618">
        <ele>-1.8</ele>
        <time>2021-12-24T14:31:19Z</time>
      </trkpt>
      <trkpt lat="46.35577" lon="-1.16617">
        <ele>-1.8</ele>
        <time>2021-12-24T14:31:20Z</time>
      </trkpt>
      <trkpt lat="46.35576" lon="-1.16615">
        <ele>-1.8</ele>
        <time>2021-12-24T14:31:21Z</time>
      </trkpt>
      <trkpt lat="46.35575" lon="-1.16613">
        <ele>-2</ele>
        <time>2021-12-24T14:31:23Z</time>
      </trkpt>
      <trkpt lat="46.35576" lon="-1.16609">
        <ele>-2.2</ele>
        <time>2021-12-24T14:31:25Z</time>
      </trkpt>
      <trkpt lat="46.35576" lon="-1.16601">
        <ele>-2.6</ele>
        <time>2021-12-24T14:31:27Z</time>
      </trkpt>
      <trkpt lat="46.35577" lon="-1.16594">
        <ele>-2.8</ele>
        <time>2021-12-24T14:31:29Z</time>
      </trkpt>
      <trkpt lat="46.35577" lon="-1.16592">
        <ele>-3</ele>
        <time>2021-12-24T14:31:30Z</time>
      </trkpt>
      <trkpt lat="46.35577" lon="-1.16591">
        <ele>-3</ele>
        <time>2021-12-24T14:31:31Z</time>
      </trkpt>
      <trkpt lat="46.35577" lon="-1.16589">
        <ele>-3.2</ele>
        <time>2021-12-24T14:31:32Z</time>
      </trkpt>
      <trkpt lat="46.35577" lon="-1.16585">
        <ele>-3.4</ele>
        <time>2021-12-24T14:31:33Z</time>
      </trkpt>
      <trkpt lat="46.35575" lon="-1.16582">
        <ele>-3.6</ele>
        <time>2021-12-24T14:31:34Z</time>
      </trkpt>
      <trkpt lat="46.35573" lon="-1.16579">
        <ele>-3.6</ele>
        <time>2021-12-24T14:31:35Z</time>
      </trkpt>
      <trkpt lat="46.35567" lon="-1.16576">
        <ele>-3.6</ele>
        <time>2021-12-24T14:31:37Z</time>
      </trkpt>
      <trkpt lat="46.35563" lon="-1.16572">
        <ele>-3.6</ele>
        <time>2021-12-24T14:31:39Z</time>
      </trkpt>
      <trkpt lat="46.35559" lon="-1.16568">
        <ele>-3.8</ele>
        <time>2021-12-24T14:31:41Z</time>
      </trkpt>
      <trkpt lat="46.35553" lon="-1.16566">
        <ele>-3.8</ele>
        <time>2021-12-24T14:31:43Z</time>
      </trkpt>
      <trkpt lat="46.35547" lon="-1.16564">
        <ele>-4</ele>
        <time>2021-12-24T14:31:45Z</time>
      </trkpt>
      <trkpt lat="46.35539" lon="-1.16564">
        <ele>-4</ele>
        <time>2021-12-24T14:31:47Z</time>
      </trkpt>
      <trkpt lat="46.3553" lon="-1.16563">
        <ele>-4</ele>
        <time>2021-12-24T14:31:49Z</time>
      </trkpt>
      <trkpt lat="46.35522" lon="-1.16561">
        <ele>-4.2</ele>
        <time>2021-12-24T14:31:51Z</time>
      </trkpt>
      <trkpt lat="46.35515" lon="-1.16557">
        <ele>-4.2</ele>
        <time>2021-12-24T14:31:53Z</time>
      </trkpt>
      <trkpt lat="46.35509" lon="-1.1655">
        <ele>-4.4</ele>
        <time>2021-12-24T14:31:55Z</time>
      </trkpt>
      <trkpt lat="46.35505" lon="-1.1654">
        <ele>-4.6</ele>
        <time>2021-12-24T14:31:57Z</time>
      </trkpt>
      <trkpt lat="46.35501" lon="-1.16531">
        <ele>-4.6</ele>
        <time>2021-12-24T14:31:59Z</time>
      </trkpt>
      <trkpt lat="46.35497" lon="-1.16521">
        <ele>-4.6</ele>
        <time>2021-12-24T14:32:01Z</time>
      </trkpt>
      <trkpt lat="46.35494" lon="-1.16509">
        <ele>-4.6</ele>
        <time>2021-12-24T14:32:03Z</time>
      </trkpt>
      <trkpt lat="46.35492" lon="-1.16504">
        <ele>-4.6</ele>
        <time>2021-12-24T14:32:04Z</time>
      </trkpt>
      <trkpt lat="46.3549" lon="-1.16497">
        <ele>-4.4</ele>
        <time>2021-12-24T14:32:05Z</time>
      </trkpt>
      <trkpt lat="46.35487" lon="-1.16485">
        <ele>-4.4</ele>
        <time>2021-12-24T14:32:07Z</time>
      </trkpt>
      <trkpt lat="46.35484" lon="-1.16473">
        <ele>-4.4</ele>
        <time>2021-12-24T14:32:09Z</time>
      </trkpt>
      <trkpt lat="46.35482" lon="-1.16467">
        <ele>-4.4</ele>
        <time>2021-12-24T14:32:10Z</time>
      </trkpt>
      <trkpt lat="46.3548" lon="-1.16461">
        <ele>-4.4</ele>
        <time>2021-12-24T14:32:11Z</time>
      </trkpt>
      <trkpt lat="46.35478" lon="-1.16455">
        <ele>-4.4</ele>
        <time>2021-12-24T14:32:12Z</time>
      </trkpt>
      <trkpt lat="46.35475" lon="-1.16449">
        <ele>-4.6</ele>
        <time>2021-12-24T14:32:13Z</time>
      </trkpt>
      <trkpt lat="46.35474" lon="-1.16443">
        <ele>-4.6</ele>
        <time>2021-12-24T14:32:14Z</time>
      </trkpt>
      <trkpt lat="46.35473" lon="-1.16436">
        <ele>-4.4</ele>
        <time>2021-12-24T14:32:15Z</time>
      </trkpt>
      <trkpt lat="46.35471" lon="-1.16424">
        <ele>-4.2</ele>
        <time>2021-12-24T14:32:17Z</time>
      </trkpt>
      <trkpt lat="46.35471" lon="-1.16417">
        <ele>-4</ele>
        <time>2021-12-24T14:32:18Z</time>
      </trkpt>
      <trkpt lat="46.35471" lon="-1.16411">
        <ele>-4.2</ele>
        <time>2021-12-24T14:32:19Z</time>
      </trkpt>
      <trkpt lat="46.3547" lon="-1.16399">
        <ele>-4.2</ele>
        <time>2021-12-24T14:32:21Z</time>
      </trkpt>
      <trkpt lat="46.3547" lon="-1.16388">
        <ele>-4.2</ele>
        <time>2021-12-24T14:32:23Z</time>
      </trkpt>
      <trkpt lat="46.35469" lon="-1.16377">
        <ele>-4.2</ele>
        <time>2021-12-24T14:32:25Z</time>
      </trkpt>
      <trkpt lat="46.35468" lon="-1.16372">
        <ele>-4.2</ele>
        <time>2021-12-24T14:32:26Z</time>
      </trkpt>
      <trkpt lat="46.35468" lon="-1.16366">
        <ele>-4.2</ele>
        <time>2021-12-24T14:32:27Z</time>
      </trkpt>
      <trkpt lat="46.35466" lon="-1.16354">
        <ele>-4.4</ele>
        <time>2021-12-24T14:32:29Z</time>
      </trkpt>
      <trkpt lat="46.35465" lon="-1.16341">
        <ele>-4.4</ele>
        <time>2021-12-24T14:32:31Z</time>
      </trkpt>
      <trkpt lat="46.35463" lon="-1.16328">
        <ele>-4.4</ele>
        <time>2021-12-24T14:32:33Z</time>
      </trkpt>
      <trkpt lat="46.35463" lon="-1.16321">
        <ele>-4.4</ele>
        <time>2021-12-24T14:32:34Z</time>
      </trkpt>
      <trkpt lat="46.35462" lon="-1.16313">
        <ele>-4.6</ele>
        <time>2021-12-24T14:32:35Z</time>
      </trkpt>
      <trkpt lat="46.3546" lon="-1.16298">
        <ele>-4.4</ele>
        <time>2021-12-24T14:32:37Z</time>
      </trkpt>
      <trkpt lat="46.35459" lon="-1.16284">
        <ele>-4.4</ele>
        <time>2021-12-24T14:32:39Z</time>
      </trkpt>
      <trkpt lat="46.35456" lon="-1.16269">
        <ele>-4.4</ele>
        <time>2021-12-24T14:32:41Z</time>
      </trkpt>
      <trkpt lat="46.35454" lon="-1.16262">
        <ele>-4.6</ele>
        <time>2021-12-24T14:32:42Z</time>
      </trkpt>
      <trkpt lat="46.35451" lon="-1.16255">
        <ele>-4.4</ele>
        <time>2021-12-24T14:32:43Z</time>
      </trkpt>
      <trkpt lat="46.35445" lon="-1.16242">
        <ele>-4.2</ele>
        <time>2021-12-24T14:32:45Z</time>
      </trkpt>
      <trkpt lat="46.35442" lon="-1.16237">
        <ele>-4.2</ele>
        <time>2021-12-24T14:32:46Z</time>
      </trkpt>
      <trkpt lat="46.3544" lon="-1.16231">
        <ele>-4.2</ele>
        <time>2021-12-24T14:32:47Z</time>
      </trkpt>
      <trkpt lat="46.35434" lon="-1.16218">
        <ele>-4.2</ele>
        <time>2021-12-24T14:32:49Z</time>
      </trkpt>
      <trkpt lat="46.35429" lon="-1.16206">
        <ele>-4.2</ele>
        <time>2021-12-24T14:32:51Z</time>
      </trkpt>
      <trkpt lat="46.35424" lon="-1.16193">
        <ele>-4.2</ele>
        <time>2021-12-24T14:32:53Z</time>
      </trkpt>
      <trkpt lat="46.35421" lon="-1.16186">
        <ele>-4.2</ele>
        <time>2021-12-24T14:32:54Z</time>
      </trkpt>
      <trkpt lat="46.35418" lon="-1.16179">
        <ele>-4.2</ele>
        <time>2021-12-24T14:32:55Z</time>
      </trkpt>
      <trkpt lat="46.35412" lon="-1.16165">
        <ele>-4.2</ele>
        <time>2021-12-24T14:32:57Z</time>
      </trkpt>
      <trkpt lat="46.35407" lon="-1.16151">
        <ele>-4.2</ele>
        <time>2021-12-24T14:32:59Z</time>
      </trkpt>
      <trkpt lat="46.35401" lon="-1.16138">
        <ele>-4</ele>
        <time>2021-12-24T14:33:01Z</time>
      </trkpt>
      <trkpt lat="46.35395" lon="-1.16125">
        <ele>-4.2</ele>
        <time>2021-12-24T14:33:03Z</time>
      </trkpt>
      <trkpt lat="46.35392" lon="-1.16118">
        <ele>-4.2</ele>
        <time>2021-12-24T14:33:04Z</time>
      </trkpt>
      <trkpt lat="46.35389" lon="-1.16112">
        <ele>-4.2</ele>
        <time>2021-12-24T14:33:05Z</time>
      </trkpt>
      <trkpt lat="46.35383" lon="-1.16099">
        <ele>-4.2</ele>
        <time>2021-12-24T14:33:07Z</time>
      </trkpt>
      <trkpt lat="46.35376" lon="-1.16086">
        <ele>-4.2</ele>
        <time>2021-12-24T14:33:09Z</time>
      </trkpt>
      <trkpt lat="46.3537" lon="-1.16073">
        <ele>-4.2</ele>
        <time>2021-12-24T14:33:11Z</time>
      </trkpt>
      <trkpt lat="46.35367" lon="-1.16067">
        <ele>-4.2</ele>
        <time>2021-12-24T14:33:12Z</time>
      </trkpt>
      <trkpt lat="46.35364" lon="-1.1606">
        <ele>-4.2</ele>
        <time>2021-12-24T14:33:13Z</time>
      </trkpt>
      <trkpt lat="46.35358" lon="-1.16048">
        <ele>-4.2</ele>
        <time>2021-12-24T14:33:15Z</time>
      </trkpt>
      <trkpt lat="46.35352" lon="-1.16035">
        <ele>-4.2</ele>
        <time>2021-12-24T14:33:17Z</time>
      </trkpt>
      <trkpt lat="46.35345" lon="-1.16023">
        <ele>-4.2</ele>
        <time>2021-12-24T14:33:19Z</time>
      </trkpt>
      <trkpt lat="46.35339" lon="-1.16011">
        <ele>-4.2</ele>
        <time>2021-12-24T14:33:21Z</time>
      </trkpt>
      <trkpt lat="46.35333" lon="-1.15998">
        <ele>-4.2</ele>
        <time>2021-12-24T14:33:23Z</time>
      </trkpt>
      <trkpt lat="46.35327" lon="-1.15985">
        <ele>-4</ele>
        <time>2021-12-24T14:33:25Z</time>
      </trkpt>
      <trkpt lat="46.3532" lon="-1.15971">
        <ele>-4</ele>
        <time>2021-12-24T14:33:27Z</time>
      </trkpt>
      <trkpt lat="46.35314" lon="-1.15958">
        <ele>-4</ele>
        <time>2021-12-24T14:33:29Z</time>
      </trkpt>
      <trkpt lat="46.35308" lon="-1.15945">
        <ele>-4</ele>
        <time>2021-12-24T14:33:31Z</time>
      </trkpt>
      <trkpt lat="46.35301" lon="-1.15931">
        <ele>-4</ele>
        <time>2021-12-24T14:33:33Z</time>
      </trkpt>
      <trkpt lat="46.35295" lon="-1.15918">
        <ele>-3.8</ele>
        <time>2021-12-24T14:33:35Z</time>
      </trkpt>
      <trkpt lat="46.35289" lon="-1.15905">
        <ele>-3.8</ele>
        <time>2021-12-24T14:33:37Z</time>
      </trkpt>
      <trkpt lat="46.35283" lon="-1.15892">
        <ele>-3.8</ele>
        <time>2021-12-24T14:33:39Z</time>
      </trkpt>
      <trkpt lat="46.35277" lon="-1.1588">
        <ele>-3.6</ele>
        <time>2021-12-24T14:33:41Z</time>
      </trkpt>
      <trkpt lat="46.35271" lon="-1.15867">
        <ele>-3.6</ele>
        <time>2021-12-24T14:33:43Z</time>
      </trkpt>
      <trkpt lat="46.35268" lon="-1.15861">
        <ele>-3.6</ele>
        <time>2021-12-24T14:33:44Z</time>
      </trkpt>
      <trkpt lat="46.35265" lon="-1.15855">
        <ele>-3.6</ele>
        <time>2021-12-24T14:33:45Z</time>
      </trkpt>
      <trkpt lat="46.35258" lon="-1.15842">
        <ele>-3.4</ele>
        <time>2021-12-24T14:33:47Z</time>
      </trkpt>
      <trkpt lat="46.35252" lon="-1.1583">
        <ele>-3.4</ele>
        <time>2021-12-24T14:33:49Z</time>
      </trkpt>
      <trkpt lat="46.35246" lon="-1.15817">
        <ele>-3.4</ele>
        <time>2021-12-24T14:33:51Z</time>
      </trkpt>
      <trkpt lat="46.3524" lon="-1.15805">
        <ele>-3.4</ele>
        <time>2021-12-24T14:33:53Z</time>
      </trkpt>
      <trkpt lat="46.35238" lon="-1.15799">
        <ele>-3.4</ele>
        <time>2021-12-24T14:33:54Z</time>
      </trkpt>
      <trkpt lat="46.35235" lon="-1.15793">
        <ele>-3.4</ele>
        <time>2021-12-24T14:33:55Z</time>
      </trkpt>
      <trkpt lat="46.35228" lon="-1.1578">
        <ele>-3.4</ele>
        <time>2021-12-24T14:33:57Z</time>
      </trkpt>
      <trkpt lat="46.35222" lon="-1.15768">
        <ele>-3.2</ele>
        <time>2021-12-24T14:33:59Z</time>
      </trkpt>
      <trkpt lat="46.35217" lon="-1.15756">
        <ele>-3.2</ele>
        <time>2021-12-24T14:34:01Z</time>
      </trkpt>
      <trkpt lat="46.35211" lon="-1.15744">
        <ele>-3</ele>
        <time>2021-12-24T14:34:03Z</time>
      </trkpt>
      <trkpt lat="46.35205" lon="-1.15733">
        <ele>-3.2</ele>
        <time>2021-12-24T14:34:05Z</time>
      </trkpt>
      <trkpt lat="46.35199" lon="-1.1572">
        <ele>-3</ele>
        <time>2021-12-24T14:34:07Z</time>
      </trkpt>
      <trkpt lat="46.35193" lon="-1.15708">
        <ele>-3</ele>
        <time>2021-12-24T14:34:09Z</time>
      </trkpt>
      <trkpt lat="46.35187" lon="-1.15696">
        <ele>-3</ele>
        <time>2021-12-24T14:34:11Z</time>
      </trkpt>
      <trkpt lat="46.35181" lon="-1.15684">
        <ele>-3</ele>
        <time>2021-12-24T14:34:13Z</time>
      </trkpt>
      <trkpt lat="46.35178" lon="-1.15678">
        <ele>-2.8</ele>
        <time>2021-12-24T14:34:14Z</time>
      </trkpt>
      <trkpt lat="46.35175" lon="-1.15672">
        <ele>-2.8</ele>
        <time>2021-12-24T14:34:15Z</time>
      </trkpt>
      <trkpt lat="46.3517" lon="-1.1566">
        <ele>-2.8</ele>
        <time>2021-12-24T14:34:17Z</time>
      </trkpt>
      <trkpt lat="46.35164" lon="-1.15648">
        <ele>-2.8</ele>
        <time>2021-12-24T14:34:19Z</time>
      </trkpt>
      <trkpt lat="46.35158" lon="-1.15635">
        <ele>-2.6</ele>
        <time>2021-12-24T14:34:21Z</time>
      </trkpt>
      <trkpt lat="46.35153" lon="-1.15624">
        <ele>-2.6</ele>
        <time>2021-12-24T14:34:23Z</time>
      </trkpt>
      <trkpt lat="46.35147" lon="-1.15612">
        <ele>-2.6</ele>
        <time>2021-12-24T14:34:25Z</time>
      </trkpt>
      <trkpt lat="46.35142" lon="-1.15601">
        <ele>-2.4</ele>
        <time>2021-12-24T14:34:27Z</time>
      </trkpt>
      <trkpt lat="46.35136" lon="-1.1559">
        <ele>-2.4</ele>
        <time>2021-12-24T14:34:29Z</time>
      </trkpt>
      <trkpt lat="46.3513" lon="-1.15578">
        <ele>-2.4</ele>
        <time>2021-12-24T14:34:31Z</time>
      </trkpt>
      <trkpt lat="46.35128" lon="-1.15572">
        <ele>-2.4</ele>
        <time>2021-12-24T14:34:32Z</time>
      </trkpt>
      <trkpt lat="46.35125" lon="-1.15566">
        <ele>-2.4</ele>
        <time>2021-12-24T14:34:33Z</time>
      </trkpt>
      <trkpt lat="46.35119" lon="-1.15555">
        <ele>-2.4</ele>
        <time>2021-12-24T14:34:35Z</time>
      </trkpt>
      <trkpt lat="46.35114" lon="-1.15543">
        <ele>-2.2</ele>
        <time>2021-12-24T14:34:37Z</time>
      </trkpt>
      <trkpt lat="46.35108" lon="-1.15532">
        <ele>-2.2</ele>
        <time>2021-12-24T14:34:39Z</time>
      </trkpt>
      <trkpt lat="46.35102" lon="-1.15519">
        <ele>-2.2</ele>
        <time>2021-12-24T14:34:41Z</time>
      </trkpt>
      <trkpt lat="46.351" lon="-1.15514">
        <ele>-2.2</ele>
        <time>2021-12-24T14:34:42Z</time>
      </trkpt>
      <trkpt lat="46.35097" lon="-1.15508">
        <ele>-2.2</ele>
        <time>2021-12-24T14:34:43Z</time>
      </trkpt>
      <trkpt lat="46.35091" lon="-1.15495">
        <ele>-2.2</ele>
        <time>2021-12-24T14:34:45Z</time>
      </trkpt>
      <trkpt lat="46.35084" lon="-1.15483">
        <ele>-2.2</ele>
        <time>2021-12-24T14:34:47Z</time>
      </trkpt>
      <trkpt lat="46.35079" lon="-1.1547">
        <ele>-2</ele>
        <time>2021-12-24T14:34:49Z</time>
      </trkpt>
      <trkpt lat="46.35073" lon="-1.15458">
        <ele>-2.2</ele>
        <time>2021-12-24T14:34:51Z</time>
      </trkpt>
      <trkpt lat="46.35067" lon="-1.15446">
        <ele>-2</ele>
        <time>2021-12-24T14:34:53Z</time>
      </trkpt>
      <trkpt lat="46.3506" lon="-1.15434">
        <ele>-2</ele>
        <time>2021-12-24T14:34:55Z</time>
      </trkpt>
      <trkpt lat="46.35055" lon="-1.15422">
        <ele>-1.8</ele>
        <time>2021-12-24T14:34:57Z</time>
      </trkpt>
      <trkpt lat="46.35049" lon="-1.1541">
        <ele>-1.8</ele>
        <time>2021-12-24T14:34:59Z</time>
      </trkpt>
      <trkpt lat="46.35043" lon="-1.15398">
        <ele>-1.6</ele>
        <time>2021-12-24T14:35:01Z</time>
      </trkpt>
      <trkpt lat="46.35037" lon="-1.15385">
        <ele>-1.6</ele>
        <time>2021-12-24T14:35:03Z</time>
      </trkpt>
      <trkpt lat="46.35032" lon="-1.15373">
        <ele>-1.6</ele>
        <time>2021-12-24T14:35:05Z</time>
      </trkpt>
      <trkpt lat="46.35026" lon="-1.15361">
        <ele>-1.6</ele>
        <time>2021-12-24T14:35:07Z</time>
      </trkpt>
      <trkpt lat="46.35023" lon="-1.15355">
        <ele>-1.6</ele>
        <time>2021-12-24T14:35:08Z</time>
      </trkpt>
      <trkpt lat="46.3502" lon="-1.15349">
        <ele>-1.6</ele>
        <time>2021-12-24T14:35:09Z</time>
      </trkpt>
      <trkpt lat="46.35015" lon="-1.15338">
        <ele>-1.6</ele>
        <time>2021-12-24T14:35:11Z</time>
      </trkpt>
      <trkpt lat="46.35009" lon="-1.15326">
        <ele>-1.6</ele>
        <time>2021-12-24T14:35:13Z</time>
      </trkpt>
      <trkpt lat="46.35003" lon="-1.15314">
        <ele>-1.6</ele>
        <time>2021-12-24T14:35:15Z</time>
      </trkpt>
      <trkpt lat="46.34998" lon="-1.15302">
        <ele>-1.6</ele>
        <time>2021-12-24T14:35:17Z</time>
      </trkpt>
      <trkpt lat="46.34995" lon="-1.15296">
        <ele>-1.6</ele>
        <time>2021-12-24T14:35:18Z</time>
      </trkpt>
      <trkpt lat="46.34992" lon="-1.15289">
        <ele>-1.6</ele>
        <time>2021-12-24T14:35:19Z</time>
      </trkpt>
      <trkpt lat="46.34987" lon="-1.15277">
        <ele>-1.6</ele>
        <time>2021-12-24T14:35:21Z</time>
      </trkpt>
      <trkpt lat="46.3498" lon="-1.15265">
        <ele>-1.4</ele>
        <time>2021-12-24T14:35:23Z</time>
      </trkpt>
      <trkpt lat="46.34974" lon="-1.15253">
        <ele>-1.4</ele>
        <time>2021-12-24T14:35:25Z</time>
      </trkpt>
      <trkpt lat="46.34971" lon="-1.15247">
        <ele>-1.6</ele>
        <time>2021-12-24T14:35:26Z</time>
      </trkpt>
      <trkpt lat="46.34968" lon="-1.15241">
        <ele>-1.6</ele>
        <time>2021-12-24T14:35:27Z</time>
      </trkpt>
      <trkpt lat="46.34962" lon="-1.15229">
        <ele>-1.6</ele>
        <time>2021-12-24T14:35:29Z</time>
      </trkpt>
      <trkpt lat="46.34956" lon="-1.15216">
        <ele>-1.4</ele>
        <time>2021-12-24T14:35:31Z</time>
      </trkpt>
      <trkpt lat="46.3495" lon="-1.15204">
        <ele>-1.4</ele>
        <time>2021-12-24T14:35:33Z</time>
      </trkpt>
      <trkpt lat="46.34947" lon="-1.15199">
        <ele>-1.4</ele>
        <time>2021-12-24T14:35:34Z</time>
      </trkpt>
      <trkpt lat="46.34943" lon="-1.15193">
        <ele>-1.4</ele>
        <time>2021-12-24T14:35:35Z</time>
      </trkpt>
      <trkpt lat="46.34936" lon="-1.15183">
        <ele>-1.4</ele>
        <time>2021-12-24T14:35:37Z</time>
      </trkpt>
      <trkpt lat="46.34928" lon="-1.15175">
        <ele>-1.4</ele>
        <time>2021-12-24T14:35:39Z</time>
      </trkpt>
      <trkpt lat="46.34924" lon="-1.15171">
        <ele>-1.4</ele>
        <time>2021-12-24T14:35:40Z</time>
      </trkpt>
      <trkpt lat="46.34919" lon="-1.15168">
        <ele>-1.4</ele>
        <time>2021-12-24T14:35:41Z</time>
      </trkpt>
      <trkpt lat="46.34911" lon="-1.15161">
        <ele>-1.4</ele>
        <time>2021-12-24T14:35:43Z</time>
      </trkpt>
      <trkpt lat="46.34902" lon="-1.15154">
        <ele>-1.4</ele>
        <time>2021-12-24T14:35:45Z</time>
      </trkpt>
      <trkpt lat="46.34893" lon="-1.15147">
        <ele>-1.4</ele>
        <time>2021-12-24T14:35:47Z</time>
      </trkpt>
      <trkpt lat="46.34884" lon="-1.1514">
        <ele>-1.4</ele>
        <time>2021-12-24T14:35:49Z</time>
      </trkpt>
      <trkpt lat="46.34879" lon="-1.15137">
        <ele>-1.4</ele>
        <time>2021-12-24T14:35:50Z</time>
      </trkpt>
      <trkpt lat="46.34875" lon="-1.15134">
        <ele>-1.4</ele>
        <time>2021-12-24T14:35:51Z</time>
      </trkpt>
      <trkpt lat="46.34866" lon="-1.15127">
        <ele>-1.4</ele>
        <time>2021-12-24T14:35:53Z</time>
      </trkpt>
      <trkpt lat="46.34857" lon="-1.1512">
        <ele>-1.2</ele>
        <time>2021-12-24T14:35:55Z</time>
      </trkpt>
      <trkpt lat="46.34848" lon="-1.15112">
        <ele>-1.2</ele>
        <time>2021-12-24T14:35:57Z</time>
      </trkpt>
      <trkpt lat="46.3484" lon="-1.15106">
        <ele>-1.2</ele>
        <time>2021-12-24T14:35:59Z</time>
      </trkpt>
      <trkpt lat="46.34831" lon="-1.15099">
        <ele>-1</ele>
        <time>2021-12-24T14:36:01Z</time>
      </trkpt>
      <trkpt lat="46.34822" lon="-1.15093">
        <ele>-1</ele>
        <time>2021-12-24T14:36:03Z</time>
      </trkpt>
      <trkpt lat="46.34814" lon="-1.15086">
        <ele>-1</ele>
        <time>2021-12-24T14:36:05Z</time>
      </trkpt>
      <trkpt lat="46.34805" lon="-1.15078">
        <ele>-1</ele>
        <time>2021-12-24T14:36:07Z</time>
      </trkpt>
      <trkpt lat="46.34795" lon="-1.15071">
        <ele>-1</ele>
        <time>2021-12-24T14:36:09Z</time>
      </trkpt>
      <trkpt lat="46.34786" lon="-1.15065">
        <ele>-1</ele>
        <time>2021-12-24T14:36:11Z</time>
      </trkpt>
      <trkpt lat="46.34776" lon="-1.15062">
        <ele>-1</ele>
        <time>2021-12-24T14:36:13Z</time>
      </trkpt>
      <trkpt lat="46.34766" lon="-1.15061">
        <ele>-1</ele>
        <time>2021-12-24T14:36:15Z</time>
      </trkpt>
      <trkpt lat="46.34756" lon="-1.15061">
        <ele>-1</ele>
        <time>2021-12-24T14:36:17Z</time>
      </trkpt>
      <trkpt lat="46.34746" lon="-1.15061">
        <ele>-1</ele>
        <time>2021-12-24T14:36:19Z</time>
      </trkpt>
      <trkpt lat="46.34741" lon="-1.15062">
        <ele>-1</ele>
        <time>2021-12-24T14:36:20Z</time>
      </trkpt>
      <trkpt lat="46.34736" lon="-1.15062">
        <ele>-1</ele>
        <time>2021-12-24T14:36:21Z</time>
      </trkpt>
      <trkpt lat="46.34726" lon="-1.15064">
        <ele>-0.80000000000001</ele>
        <time>2021-12-24T14:36:23Z</time>
      </trkpt>
      <trkpt lat="46.34716" lon="-1.15066">
        <ele>-0.80000000000001</ele>
        <time>2021-12-24T14:36:25Z</time>
      </trkpt>
      <trkpt lat="46.34707" lon="-1.15069">
        <ele>-0.80000000000001</ele>
        <time>2021-12-24T14:36:27Z</time>
      </trkpt>
      <trkpt lat="46.34697" lon="-1.15071">
        <ele>-0.80000000000001</ele>
        <time>2021-12-24T14:36:29Z</time>
      </trkpt>
      <trkpt lat="46.34693" lon="-1.15073">
        <ele>-0.80000000000001</ele>
        <time>2021-12-24T14:36:30Z</time>
      </trkpt>
      <trkpt lat="46.34688" lon="-1.15074">
        <ele>-0.80000000000001</ele>
        <time>2021-12-24T14:36:31Z</time>
      </trkpt>
      <trkpt lat="46.34679" lon="-1.15077">
        <ele>-0.80000000000001</ele>
        <time>2021-12-24T14:36:33Z</time>
      </trkpt>
      <trkpt lat="46.34669" lon="-1.15081">
        <ele>-0.80000000000001</ele>
        <time>2021-12-24T14:36:35Z</time>
      </trkpt>
      <trkpt lat="46.34659" lon="-1.15083">
        <ele>-0.80000000000001</ele>
        <time>2021-12-24T14:36:37Z</time>
      </trkpt>
      <trkpt lat="46.3465" lon="-1.15087">
        <ele>-0.80000000000001</ele>
        <time>2021-12-24T14:36:39Z</time>
      </trkpt>
      <trkpt lat="46.34645" lon="-1.15088">
        <ele>-0.80000000000001</ele>
        <time>2021-12-24T14:36:40Z</time>
      </trkpt>
      <trkpt lat="46.3464" lon="-1.15089">
        <ele>-0.80000000000001</ele>
        <time>2021-12-24T14:36:41Z</time>
      </trkpt>
      <trkpt lat="46.3463" lon="-1.1509">
        <ele>-0.80000000000001</ele>
        <time>2021-12-24T14:36:43Z</time>
      </trkpt>
      <trkpt lat="46.34625" lon="-1.1509">
        <ele>-0.80000000000001</ele>
        <time>2021-12-24T14:36:44Z</time>
      </trkpt>
      <trkpt lat="46.3462" lon="-1.15088">
        <ele>-1</ele>
        <time>2021-12-24T14:36:45Z</time>
      </trkpt>
      <trkpt lat="46.34616" lon="-1.15086">
        <ele>-0.80000000000001</ele>
        <time>2021-12-24T14:36:46Z</time>
      </trkpt>
      <trkpt lat="46.34611" lon="-1.15083">
        <ele>-0.80000000000001</ele>
        <time>2021-12-24T14:36:47Z</time>
      </trkpt>
      <trkpt lat="46.34607" lon="-1.15078">
        <ele>-0.80000000000001</ele>
        <time>2021-12-24T14:36:48Z</time>
      </trkpt>
      <trkpt lat="46.34603" lon="-1.15073">
        <ele>-0.80000000000001</ele>
        <time>2021-12-24T14:36:49Z</time>
      </trkpt>
      <trkpt lat="46.346" lon="-1.15068">
        <ele>-0.80000000000001</ele>
        <time>2021-12-24T14:36:50Z</time>
      </trkpt>
      <trkpt lat="46.34597" lon="-1.15063">
        <ele>-0.80000000000001</ele>
        <time>2021-12-24T14:36:51Z</time>
      </trkpt>
      <trkpt lat="46.3459" lon="-1.15052">
        <ele>-0.80000000000001</ele>
        <time>2021-12-24T14:36:53Z</time>
      </trkpt>
      <trkpt lat="46.34587" lon="-1.15046">
        <ele>-0.80000000000001</ele>
        <time>2021-12-24T14:36:54Z</time>
      </trkpt>
      <trkpt lat="46.34584" lon="-1.15041">
        <ele>-0.80000000000001</ele>
        <time>2021-12-24T14:36:55Z</time>
      </trkpt>
      <trkpt lat="46.34581" lon="-1.15035">
        <ele>-0.80000000000001</ele>
        <time>2021-12-24T14:36:56Z</time>
      </trkpt>
      <trkpt lat="46.34578" lon="-1.15029">
        <ele>-0.80000000000001</ele>
        <time>2021-12-24T14:36:57Z</time>
      </trkpt>
      <trkpt lat="46.34573" lon="-1.15017">
        <ele>-0.80000000000001</ele>
        <time>2021-12-24T14:36:59Z</time>
      </trkpt>
      <trkpt lat="46.34567" lon="-1.15006">
        <ele>-0.80000000000001</ele>
        <time>2021-12-24T14:37:01Z</time>
      </trkpt>
      <trkpt lat="46.34561" lon="-1.14993">
        <ele>-0.80000000000001</ele>
        <time>2021-12-24T14:37:03Z</time>
      </trkpt>
      <trkpt lat="46.34558" lon="-1.14987">
        <ele>-0.80000000000001</ele>
        <time>2021-12-24T14:37:04Z</time>
      </trkpt>
      <trkpt lat="46.34555" lon="-1.14981">
        <ele>-0.80000000000001</ele>
        <time>2021-12-24T14:37:05Z</time>
      </trkpt>
      <trkpt lat="46.34548" lon="-1.14968">
        <ele>-0.80000000000001</ele>
        <time>2021-12-24T14:37:07Z</time>
      </trkpt>
      <trkpt lat="46.34542" lon="-1.14956">
        <ele>-0.80000000000001</ele>
        <time>2021-12-24T14:37:09Z</time>
      </trkpt>
      <trkpt lat="46.34536" lon="-1.14943">
        <ele>-0.80000000000001</ele>
        <time>2021-12-24T14:37:11Z</time>
      </trkpt>
      <trkpt lat="46.34533" lon="-1.14937">
        <ele>-0.80000000000001</ele>
        <time>2021-12-24T14:37:12Z</time>
      </trkpt>
      <trkpt lat="46.3453" lon="-1.14931">
        <ele>-0.80000000000001</ele>
        <time>2021-12-24T14:37:13Z</time>
      </trkpt>
      <trkpt lat="46.34524" lon="-1.14919">
        <ele>-0.80000000000001</ele>
        <time>2021-12-24T14:37:15Z</time>
      </trkpt>
      <trkpt lat="46.34517" lon="-1.14907">
        <ele>-0.60000000000002</ele>
        <time>2021-12-24T14:37:17Z</time>
      </trkpt>
      <trkpt lat="46.34511" lon="-1.14894">
        <ele>-0.60000000000002</ele>
        <time>2021-12-24T14:37:19Z</time>
      </trkpt>
      <trkpt lat="46.34505" lon="-1.14881">
        <ele>-0.60000000000002</ele>
        <time>2021-12-24T14:37:21Z</time>
      </trkpt>
      <trkpt lat="46.34499" lon="-1.14868">
        <ele>-0.60000000000002</ele>
        <time>2021-12-24T14:37:23Z</time>
      </trkpt>
      <trkpt lat="46.34492" lon="-1.14856">
        <ele>-0.60000000000002</ele>
        <time>2021-12-24T14:37:25Z</time>
      </trkpt>
      <trkpt lat="46.34486" lon="-1.14843">
        <ele>-0.60000000000002</ele>
        <time>2021-12-24T14:37:27Z</time>
      </trkpt>
      <trkpt lat="46.3448" lon="-1.14831">
        <ele>-0.60000000000002</ele>
        <time>2021-12-24T14:37:29Z</time>
      </trkpt>
      <trkpt lat="46.34474" lon="-1.14819">
        <ele>-0.60000000000002</ele>
        <time>2021-12-24T14:37:31Z</time>
      </trkpt>
      <trkpt lat="46.34468" lon="-1.14807">
        <ele>-0.60000000000002</ele>
        <time>2021-12-24T14:37:33Z</time>
      </trkpt>
      <trkpt lat="46.34462" lon="-1.14795">
        <ele>-0.60000000000002</ele>
        <time>2021-12-24T14:37:35Z</time>
      </trkpt>
      <trkpt lat="46.34456" lon="-1.14783">
        <ele>-0.60000000000002</ele>
        <time>2021-12-24T14:37:37Z</time>
      </trkpt>
      <trkpt lat="46.3445" lon="-1.1477">
        <ele>-0.60000000000002</ele>
        <time>2021-12-24T14:37:39Z</time>
      </trkpt>
      <trkpt lat="46.34444" lon="-1.14758">
        <ele>-0.60000000000002</ele>
        <time>2021-12-24T14:37:41Z</time>
      </trkpt>
      <trkpt lat="46.34437" lon="-1.14747">
        <ele>-0.60000000000002</ele>
        <time>2021-12-24T14:37:43Z</time>
      </trkpt>
      <trkpt lat="46.34431" lon="-1.14735">
        <ele>-0.60000000000002</ele>
        <time>2021-12-24T14:37:45Z</time>
      </trkpt>
      <trkpt lat="46.34425" lon="-1.14723">
        <ele>-0.60000000000002</ele>
        <time>2021-12-24T14:37:47Z</time>
      </trkpt>
      <trkpt lat="46.3442" lon="-1.14712">
        <ele>-0.60000000000002</ele>
        <time>2021-12-24T14:37:49Z</time>
      </trkpt>
      <trkpt lat="46.34414" lon="-1.147">
        <ele>-0.39999999999998</ele>
        <time>2021-12-24T14:37:51Z</time>
      </trkpt>
      <trkpt lat="46.34408" lon="-1.14688">
        <ele>-0.39999999999998</ele>
        <time>2021-12-24T14:37:53Z</time>
      </trkpt>
      <trkpt lat="46.34402" lon="-1.14676">
        <ele>-0.39999999999998</ele>
        <time>2021-12-24T14:37:55Z</time>
      </trkpt>
      <trkpt lat="46.34396" lon="-1.14664">
        <ele>-0.39999999999998</ele>
        <time>2021-12-24T14:37:57Z</time>
      </trkpt>
      <trkpt lat="46.34393" lon="-1.14658">
        <ele>-0.39999999999998</ele>
        <time>2021-12-24T14:37:58Z</time>
      </trkpt>
      <trkpt lat="46.3439" lon="-1.14652">
        <ele>-0.39999999999998</ele>
        <time>2021-12-24T14:37:59Z</time>
      </trkpt>
      <trkpt lat="46.34384" lon="-1.1464">
        <ele>-0.39999999999998</ele>
        <time>2021-12-24T14:38:01Z</time>
      </trkpt>
      <trkpt lat="46.34378" lon="-1.14628">
        <ele>-0.39999999999998</ele>
        <time>2021-12-24T14:38:03Z</time>
      </trkpt>
      <trkpt lat="46.34372" lon="-1.14616">
        <ele>-0.39999999999998</ele>
        <time>2021-12-24T14:38:05Z</time>
      </trkpt>
      <trkpt lat="46.34366" lon="-1.14603">
        <ele>-0.39999999999998</ele>
        <time>2021-12-24T14:38:07Z</time>
      </trkpt>
      <trkpt lat="46.34359" lon="-1.14591">
        <ele>-0.19999999999999</ele>
        <time>2021-12-24T14:38:09Z</time>
      </trkpt>
      <trkpt lat="46.34353" lon="-1.14578">
        <ele>-0.39999999999998</ele>
        <time>2021-12-24T14:38:11Z</time>
      </trkpt>
      <trkpt lat="46.34347" lon="-1.14566">
        <ele>-0.19999999999999</ele>
        <time>2021-12-24T14:38:13Z</time>
      </trkpt>
      <trkpt lat="46.34341" lon="-1.14554">
        <ele>-0.19999999999999</ele>
        <time>2021-12-24T14:38:15Z</time>
      </trkpt>
      <trkpt lat="46.34335" lon="-1.14542">
        <ele>-0.19999999999999</ele>
        <time>2021-12-24T14:38:17Z</time>
      </trkpt>
      <trkpt lat="46.34329" lon="-1.1453">
        <ele>-0.39999999999998</ele>
        <time>2021-12-24T14:38:19Z</time>
      </trkpt>
      <trkpt lat="46.34324" lon="-1.14518">
        <ele>-0.39999999999998</ele>
        <time>2021-12-24T14:38:21Z</time>
      </trkpt>
      <trkpt lat="46.34318" lon="-1.14507">
        <ele>-0.19999999999999</ele>
        <time>2021-12-24T14:38:23Z</time>
      </trkpt>
      <trkpt lat="46.34311" lon="-1.14495">
        <ele>-0.39999999999998</ele>
        <time>2021-12-24T14:38:25Z</time>
      </trkpt>
      <trkpt lat="46.34305" lon="-1.14484">
        <ele>-0.39999999999998</ele>
        <time>2021-12-24T14:38:27Z</time>
      </trkpt>
      <trkpt lat="46.343" lon="-1.14472">
        <ele>-0.19999999999999</ele>
        <time>2021-12-24T14:38:29Z</time>
      </trkpt>
      <trkpt lat="46.34294" lon="-1.14461">
        <ele>-0.19999999999999</ele>
        <time>2021-12-24T14:38:31Z</time>
      </trkpt>
      <trkpt lat="46.34291" lon="-1.14455">
        <ele>-0.19999999999999</ele>
        <time>2021-12-24T14:38:32Z</time>
      </trkpt>
      <trkpt lat="46.34289" lon="-1.1445">
        <ele>-0.19999999999999</ele>
        <time>2021-12-24T14:38:33Z</time>
      </trkpt>
      <trkpt lat="46.34283" lon="-1.14438">
        <ele>-0.19999999999999</ele>
        <time>2021-12-24T14:38:35Z</time>
      </trkpt>
      <trkpt lat="46.34277" lon="-1.14426">
        <ele>-0.19999999999999</ele>
        <time>2021-12-24T14:38:37Z</time>
      </trkpt>
      <trkpt lat="46.34271" lon="-1.14415">
        <ele>-0.19999999999999</ele>
        <time>2021-12-24T14:38:39Z</time>
      </trkpt>
      <trkpt lat="46.34268" lon="-1.14409">
        <ele>-0.19999999999999</ele>
        <time>2021-12-24T14:38:40Z</time>
      </trkpt>
      <trkpt lat="46.34265" lon="-1.14403">
        <ele>-0.19999999999999</ele>
        <time>2021-12-24T14:38:41Z</time>
      </trkpt>
      <trkpt lat="46.34259" lon="-1.14391">
        <ele>-0.19999999999999</ele>
        <time>2021-12-24T14:38:43Z</time>
      </trkpt>
      <trkpt lat="46.34253" lon="-1.1438">
        <ele>-0.19999999999999</ele>
        <time>2021-12-24T14:38:45Z</time>
      </trkpt>
      <trkpt lat="46.34248" lon="-1.14368">
        <ele>-0.19999999999999</ele>
        <time>2021-12-24T14:38:47Z</time>
      </trkpt>
      <trkpt lat="46.34242" lon="-1.14356">
        <ele>-0.19999999999999</ele>
        <time>2021-12-24T14:38:49Z</time>
      </trkpt>
      <trkpt lat="46.34239" lon="-1.1435">
        <ele>-0.19999999999999</ele>
        <time>2021-12-24T14:38:50Z</time>
      </trkpt>
      <trkpt lat="46.34236" lon="-1.14344">
        <ele>-0.19999999999999</ele>
        <time>2021-12-24T14:38:51Z</time>
      </trkpt>
      <trkpt lat="46.3423" lon="-1.14332">
        <ele>-0.19999999999999</ele>
        <time>2021-12-24T14:38:53Z</time>
      </trkpt>
      <trkpt lat="46.34224" lon="-1.1432">
        <ele>-0.19999999999999</ele>
        <time>2021-12-24T14:38:55Z</time>
      </trkpt>
      <trkpt lat="46.34218" lon="-1.14307">
        <ele>-0.19999999999999</ele>
        <time>2021-12-24T14:38:57Z</time>
      </trkpt>
      <trkpt lat="46.34215" lon="-1.14301">
        <ele>-0.19999999999999</ele>
        <time>2021-12-24T14:38:58Z</time>
      </trkpt>
      <trkpt lat="46.34212" lon="-1.14296">
        <ele>-0.19999999999999</ele>
        <time>2021-12-24T14:38:59Z</time>
      </trkpt>
      <trkpt lat="46.34205" lon="-1.14284">
        <ele>-0.19999999999999</ele>
        <time>2021-12-24T14:39:01Z</time>
      </trkpt>
      <trkpt lat="46.34199" lon="-1.14272">
        <ele>-0.19999999999999</ele>
        <time>2021-12-24T14:39:03Z</time>
      </trkpt>
      <trkpt lat="46.34194" lon="-1.14261">
        <ele>-0.19999999999999</ele>
        <time>2021-12-24T14:39:05Z</time>
      </trkpt>
      <trkpt lat="46.34191" lon="-1.14254">
        <ele>-0.19999999999999</ele>
        <time>2021-12-24T14:39:06Z</time>
      </trkpt>
      <trkpt lat="46.34188" lon="-1.14248">
        <ele>-0.19999999999999</ele>
        <time>2021-12-24T14:39:07Z</time>
      </trkpt>
      <trkpt lat="46.34181" lon="-1.14236">
        <ele>-0.19999999999999</ele>
        <time>2021-12-24T14:39:09Z</time>
      </trkpt>
      <trkpt lat="46.34175" lon="-1.14222">
        <ele>-0.19999999999999</ele>
        <time>2021-12-24T14:39:11Z</time>
      </trkpt>
      <trkpt lat="46.34168" lon="-1.1421">
        <ele>-0.19999999999999</ele>
        <time>2021-12-24T14:39:13Z</time>
      </trkpt>
      <trkpt lat="46.34162" lon="-1.14197">
        <ele>-0.19999999999999</ele>
        <time>2021-12-24T14:39:15Z</time>
      </trkpt>
      <trkpt lat="46.34155" lon="-1.14184">
        <ele>-0.19999999999999</ele>
        <time>2021-12-24T14:39:17Z</time>
      </trkpt>
      <trkpt lat="46.34149" lon="-1.14171">
        <ele>-0.19999999999999</ele>
        <time>2021-12-24T14:39:19Z</time>
      </trkpt>
      <trkpt lat="46.34143" lon="-1.14158">
        <ele>-0.39999999999998</ele>
        <time>2021-12-24T14:39:21Z</time>
      </trkpt>
      <trkpt lat="46.34136" lon="-1.14146">
        <ele>-0.39999999999998</ele>
        <time>2021-12-24T14:39:23Z</time>
      </trkpt>
      <trkpt lat="46.3413" lon="-1.14134">
        <ele>-0.39999999999998</ele>
        <time>2021-12-24T14:39:25Z</time>
      </trkpt>
      <trkpt lat="46.34125" lon="-1.14122">
        <ele>-0.39999999999998</ele>
        <time>2021-12-24T14:39:27Z</time>
      </trkpt>
      <trkpt lat="46.34119" lon="-1.14111">
        <ele>-0.39999999999998</ele>
        <time>2021-12-24T14:39:29Z</time>
      </trkpt>
      <trkpt lat="46.34117" lon="-1.14106">
        <ele>-0.60000000000002</ele>
        <time>2021-12-24T14:39:30Z</time>
      </trkpt>
      <trkpt lat="46.34114" lon="-1.14101">
        <ele>-0.60000000000002</ele>
        <time>2021-12-24T14:39:31Z</time>
      </trkpt>
      <trkpt lat="46.34109" lon="-1.14092">
        <ele>-0.60000000000002</ele>
        <time>2021-12-24T14:39:33Z</time>
      </trkpt>
      <trkpt lat="46.34104" lon="-1.14082">
        <ele>-0.60000000000002</ele>
        <time>2021-12-24T14:39:35Z</time>
      </trkpt>
      <trkpt lat="46.34102" lon="-1.14077">
        <ele>-0.60000000000002</ele>
        <time>2021-12-24T14:39:36Z</time>
      </trkpt>
      <trkpt lat="46.341" lon="-1.14072">
        <ele>-0.60000000000002</ele>
        <time>2021-12-24T14:39:37Z</time>
      </trkpt>
      <trkpt lat="46.34094" lon="-1.14061">
        <ele>-0.60000000000002</ele>
        <time>2021-12-24T14:39:39Z</time>
      </trkpt>
      <trkpt lat="46.34089" lon="-1.14051">
        <ele>-0.60000000000002</ele>
        <time>2021-12-24T14:39:41Z</time>
      </trkpt>
      <trkpt lat="46.34084" lon="-1.1404">
        <ele>-0.60000000000002</ele>
        <time>2021-12-24T14:39:43Z</time>
      </trkpt>
      <trkpt lat="46.34078" lon="-1.1403">
        <ele>-0.80000000000001</ele>
        <time>2021-12-24T14:39:45Z</time>
      </trkpt>
      <trkpt lat="46.34072" lon="-1.14019">
        <ele>-0.80000000000001</ele>
        <time>2021-12-24T14:39:47Z</time>
      </trkpt>
      <trkpt lat="46.34065" lon="-1.14008">
        <ele>-0.80000000000001</ele>
        <time>2021-12-24T14:39:49Z</time>
      </trkpt>
      <trkpt lat="46.34059" lon="-1.13997">
        <ele>-0.80000000000001</ele>
        <time>2021-12-24T14:39:51Z</time>
      </trkpt>
      <trkpt lat="46.34052" lon="-1.13985">
        <ele>-0.80000000000001</ele>
        <time>2021-12-24T14:39:53Z</time>
      </trkpt>
      <trkpt lat="46.34045" lon="-1.13974">
        <ele>-0.80000000000001</ele>
        <time>2021-12-24T14:39:55Z</time>
      </trkpt>
      <trkpt lat="46.34038" lon="-1.13962">
        <ele>-0.80000000000001</ele>
        <time>2021-12-24T14:39:57Z</time>
      </trkpt>
      <trkpt lat="46.34031" lon="-1.13951">
        <ele>-1</ele>
        <time>2021-12-24T14:39:59Z</time>
      </trkpt>
      <trkpt lat="46.34024" lon="-1.13939">
        <ele>-1</ele>
        <time>2021-12-24T14:40:01Z</time>
      </trkpt>
      <trkpt lat="46.34017" lon="-1.13927">
        <ele>-1</ele>
        <time>2021-12-24T14:40:03Z</time>
      </trkpt>
      <trkpt lat="46.34009" lon="-1.13916">
        <ele>-1</ele>
        <time>2021-12-24T14:40:05Z</time>
      </trkpt>
      <trkpt lat="46.34005" lon="-1.1391">
        <ele>-1.2</ele>
        <time>2021-12-24T14:40:06Z</time>
      </trkpt>
      <trkpt lat="46.34002" lon="-1.13904">
        <ele>-1.2</ele>
        <time>2021-12-24T14:40:07Z</time>
      </trkpt>
      <trkpt lat="46.33994" lon="-1.13892">
        <ele>-1.2</ele>
        <time>2021-12-24T14:40:09Z</time>
      </trkpt>
      <trkpt lat="46.33987" lon="-1.1388">
        <ele>-1.2</ele>
        <time>2021-12-24T14:40:11Z</time>
      </trkpt>
      <trkpt lat="46.33979" lon="-1.13868">
        <ele>-1.2</ele>
        <time>2021-12-24T14:40:13Z</time>
      </trkpt>
      <trkpt lat="46.33972" lon="-1.13857">
        <ele>-1.2</ele>
        <time>2021-12-24T14:40:15Z</time>
      </trkpt>
      <trkpt lat="46.33968" lon="-1.13851">
        <ele>-1.4</ele>
        <time>2021-12-24T14:40:16Z</time>
      </trkpt>
      <trkpt lat="46.33964" lon="-1.13845">
        <ele>-1.4</ele>
        <time>2021-12-24T14:40:17Z</time>
      </trkpt>
      <trkpt lat="46.33957" lon="-1.13833">
        <ele>-1.4</ele>
        <time>2021-12-24T14:40:19Z</time>
      </trkpt>
      <trkpt lat="46.33949" lon="-1.13822">
        <ele>-1.4</ele>
        <time>2021-12-24T14:40:21Z</time>
      </trkpt>
      <trkpt lat="46.33942" lon="-1.13811">
        <ele>-1.4</ele>
        <time>2021-12-24T14:40:23Z</time>
      </trkpt>
      <trkpt lat="46.33938" lon="-1.13805">
        <ele>-1.4</ele>
        <time>2021-12-24T14:40:24Z</time>
      </trkpt>
      <trkpt lat="46.33934" lon="-1.138">
        <ele>-1.4</ele>
        <time>2021-12-24T14:40:25Z</time>
      </trkpt>
      <trkpt lat="46.33927" lon="-1.13789">
        <ele>-1.4</ele>
        <time>2021-12-24T14:40:27Z</time>
      </trkpt>
      <trkpt lat="46.3392" lon="-1.13778">
        <ele>-1.6</ele>
        <time>2021-12-24T14:40:29Z</time>
      </trkpt>
      <trkpt lat="46.33913" lon="-1.13767">
        <ele>-1.6</ele>
        <time>2021-12-24T14:40:31Z</time>
      </trkpt>
      <trkpt lat="46.33906" lon="-1.13755">
        <ele>-1.6</ele>
        <time>2021-12-24T14:40:33Z</time>
      </trkpt>
      <trkpt lat="46.33902" lon="-1.13749">
        <ele>-1.6</ele>
        <time>2021-12-24T14:40:34Z</time>
      </trkpt>
      <trkpt lat="46.33898" lon="-1.13743">
        <ele>-1.6</ele>
        <time>2021-12-24T14:40:35Z</time>
      </trkpt>
      <trkpt lat="46.33891" lon="-1.13732">
        <ele>-1.6</ele>
        <time>2021-12-24T14:40:37Z</time>
      </trkpt>
      <trkpt lat="46.33884" lon="-1.13721">
        <ele>-1.6</ele>
        <time>2021-12-24T14:40:39Z</time>
      </trkpt>
      <trkpt lat="46.33876" lon="-1.13709">
        <ele>-1.6</ele>
        <time>2021-12-24T14:40:41Z</time>
      </trkpt>
      <trkpt lat="46.33869" lon="-1.13697">
        <ele>-1.8</ele>
        <time>2021-12-24T14:40:43Z</time>
      </trkpt>
      <trkpt lat="46.33861" lon="-1.13686">
        <ele>-1.8</ele>
        <time>2021-12-24T14:40:45Z</time>
      </trkpt>
      <trkpt lat="46.33854" lon="-1.13675">
        <ele>-1.8</ele>
        <time>2021-12-24T14:40:47Z</time>
      </trkpt>
      <trkpt lat="46.33846" lon="-1.13663">
        <ele>-1.8</ele>
        <time>2021-12-24T14:40:49Z</time>
      </trkpt>
      <trkpt lat="46.33839" lon="-1.13651">
        <ele>-1.8</ele>
        <time>2021-12-24T14:40:51Z</time>
      </trkpt>
      <trkpt lat="46.33832" lon="-1.13639">
        <ele>-1.8</ele>
        <time>2021-12-24T14:40:53Z</time>
      </trkpt>
      <trkpt lat="46.33824" lon="-1.13628">
        <ele>-1.8</ele>
        <time>2021-12-24T14:40:55Z</time>
      </trkpt>
      <trkpt lat="46.33816" lon="-1.13617">
        <ele>-1.8</ele>
        <time>2021-12-24T14:40:57Z</time>
      </trkpt>
      <trkpt lat="46.33809" lon="-1.13605">
        <ele>-1.8</ele>
        <time>2021-12-24T14:40:59Z</time>
      </trkpt>
      <trkpt lat="46.33802" lon="-1.13593">
        <ele>-1.8</ele>
        <time>2021-12-24T14:41:01Z</time>
      </trkpt>
      <trkpt lat="46.33795" lon="-1.13582">
        <ele>-1.8</ele>
        <time>2021-12-24T14:41:03Z</time>
      </trkpt>
      <trkpt lat="46.33788" lon="-1.1357">
        <ele>-1.8</ele>
        <time>2021-12-24T14:41:05Z</time>
      </trkpt>
      <trkpt lat="46.3378" lon="-1.13559">
        <ele>-1.8</ele>
        <time>2021-12-24T14:41:07Z</time>
      </trkpt>
      <trkpt lat="46.33773" lon="-1.13547">
        <ele>-1.8</ele>
        <time>2021-12-24T14:41:09Z</time>
      </trkpt>
      <trkpt lat="46.33765" lon="-1.13536">
        <ele>-1.8</ele>
        <time>2021-12-24T14:41:11Z</time>
      </trkpt>
      <trkpt lat="46.33761" lon="-1.1353">
        <ele>-1.8</ele>
        <time>2021-12-24T14:41:12Z</time>
      </trkpt>
      <trkpt lat="46.33757" lon="-1.13524">
        <ele>-2</ele>
        <time>2021-12-24T14:41:13Z</time>
      </trkpt>
      <trkpt lat="46.3375" lon="-1.13511">
        <ele>-2</ele>
        <time>2021-12-24T14:41:15Z</time>
      </trkpt>
      <trkpt lat="46.33743" lon="-1.135">
        <ele>-2</ele>
        <time>2021-12-24T14:41:17Z</time>
      </trkpt>
      <trkpt lat="46.33735" lon="-1.13488">
        <ele>-2</ele>
        <time>2021-12-24T14:41:19Z</time>
      </trkpt>
      <trkpt lat="46.33731" lon="-1.13482">
        <ele>-2</ele>
        <time>2021-12-24T14:41:20Z</time>
      </trkpt>
      <trkpt lat="46.33728" lon="-1.13477">
        <ele>-2</ele>
        <time>2021-12-24T14:41:21Z</time>
      </trkpt>
      <trkpt lat="46.3372" lon="-1.13465">
        <ele>-2</ele>
        <time>2021-12-24T14:41:23Z</time>
      </trkpt>
      <trkpt lat="46.33713" lon="-1.13454">
        <ele>-2</ele>
        <time>2021-12-24T14:41:25Z</time>
      </trkpt>
      <trkpt lat="46.33707" lon="-1.13443">
        <ele>-2</ele>
        <time>2021-12-24T14:41:27Z</time>
      </trkpt>
      <trkpt lat="46.33701" lon="-1.13433">
        <ele>-2.2</ele>
        <time>2021-12-24T14:41:29Z</time>
      </trkpt>
      <trkpt lat="46.33694" lon="-1.13422">
        <ele>-2.2</ele>
        <time>2021-12-24T14:41:31Z</time>
      </trkpt>
      <trkpt lat="46.33687" lon="-1.13411">
        <ele>-2.2</ele>
        <time>2021-12-24T14:41:33Z</time>
      </trkpt>
      <trkpt lat="46.33679" lon="-1.13399">
        <ele>-2.4</ele>
        <time>2021-12-24T14:41:35Z</time>
      </trkpt>
      <trkpt lat="46.33672" lon="-1.13387">
        <ele>-2.4</ele>
        <time>2021-12-24T14:41:37Z</time>
      </trkpt>
      <trkpt lat="46.33664" lon="-1.13376">
        <ele>-2.4</ele>
        <time>2021-12-24T14:41:39Z</time>
      </trkpt>
      <trkpt lat="46.33657" lon="-1.13364">
        <ele>-2.4</ele>
        <time>2021-12-24T14:41:41Z</time>
      </trkpt>
      <trkpt lat="46.33653" lon="-1.13358">
        <ele>-2.4</ele>
        <time>2021-12-24T14:41:42Z</time>
      </trkpt>
      <trkpt lat="46.33649" lon="-1.13352">
        <ele>-2.4</ele>
        <time>2021-12-24T14:41:43Z</time>
      </trkpt>
      <trkpt lat="46.33642" lon="-1.1334">
        <ele>-2.4</ele>
        <time>2021-12-24T14:41:45Z</time>
      </trkpt>
      <trkpt lat="46.33634" lon="-1.13328">
        <ele>-2.6</ele>
        <time>2021-12-24T14:41:47Z</time>
      </trkpt>
      <trkpt lat="46.33627" lon="-1.13317">
        <ele>-2.6</ele>
        <time>2021-12-24T14:41:49Z</time>
      </trkpt>
      <trkpt lat="46.33619" lon="-1.13306">
        <ele>-2.6</ele>
        <time>2021-12-24T14:41:51Z</time>
      </trkpt>
      <trkpt lat="46.33612" lon="-1.13294">
        <ele>-2.6</ele>
        <time>2021-12-24T14:41:53Z</time>
      </trkpt>
      <trkpt lat="46.33604" lon="-1.13282">
        <ele>-2.6</ele>
        <time>2021-12-24T14:41:55Z</time>
      </trkpt>
      <trkpt lat="46.33597" lon="-1.13271">
        <ele>-2.6</ele>
        <time>2021-12-24T14:41:57Z</time>
      </trkpt>
      <trkpt lat="46.33593" lon="-1.13265">
        <ele>-2.6</ele>
        <time>2021-12-24T14:41:58Z</time>
      </trkpt>
      <trkpt lat="46.33589" lon="-1.1326">
        <ele>-2.6</ele>
        <time>2021-12-24T14:41:59Z</time>
      </trkpt>
      <trkpt lat="46.33582" lon="-1.13248">
        <ele>-2.6</ele>
        <time>2021-12-24T14:42:01Z</time>
      </trkpt>
      <trkpt lat="46.33574" lon="-1.13236">
        <ele>-2.6</ele>
        <time>2021-12-24T14:42:03Z</time>
      </trkpt>
      <trkpt lat="46.33567" lon="-1.13224">
        <ele>-2.8</ele>
        <time>2021-12-24T14:42:05Z</time>
      </trkpt>
      <trkpt lat="46.3356" lon="-1.13212">
        <ele>-2.8</ele>
        <time>2021-12-24T14:42:07Z</time>
      </trkpt>
      <trkpt lat="46.33552" lon="-1.132">
        <ele>-2.8</ele>
        <time>2021-12-24T14:42:09Z</time>
      </trkpt>
      <trkpt lat="46.33544" lon="-1.13189">
        <ele>-2.8</ele>
        <time>2021-12-24T14:42:11Z</time>
      </trkpt>
      <trkpt lat="46.33536" lon="-1.13178">
        <ele>-2.8</ele>
        <time>2021-12-24T14:42:13Z</time>
      </trkpt>
      <trkpt lat="46.33529" lon="-1.13166">
        <ele>-2.8</ele>
        <time>2021-12-24T14:42:15Z</time>
      </trkpt>
      <trkpt lat="46.33521" lon="-1.13155">
        <ele>-2.8</ele>
        <time>2021-12-24T14:42:17Z</time>
      </trkpt>
      <trkpt lat="46.33514" lon="-1.13143">
        <ele>-2.8</ele>
        <time>2021-12-24T14:42:19Z</time>
      </trkpt>
      <trkpt lat="46.33506" lon="-1.13132">
        <ele>-2.8</ele>
        <time>2021-12-24T14:42:21Z</time>
      </trkpt>
      <trkpt lat="46.33499" lon="-1.1312">
        <ele>-2.8</ele>
        <time>2021-12-24T14:42:23Z</time>
      </trkpt>
      <trkpt lat="46.33495" lon="-1.13115">
        <ele>-2.8</ele>
        <time>2021-12-24T14:42:24Z</time>
      </trkpt>
      <trkpt lat="46.33491" lon="-1.1311">
        <ele>-2.8</ele>
        <time>2021-12-24T14:42:25Z</time>
      </trkpt>
      <trkpt lat="46.33484" lon="-1.13098">
        <ele>-2.8</ele>
        <time>2021-12-24T14:42:27Z</time>
      </trkpt>
      <trkpt lat="46.33477" lon="-1.13087">
        <ele>-2.8</ele>
        <time>2021-12-24T14:42:29Z</time>
      </trkpt>
      <trkpt lat="46.3347" lon="-1.13074">
        <ele>-2.8</ele>
        <time>2021-12-24T14:42:31Z</time>
      </trkpt>
      <trkpt lat="46.33462" lon="-1.13063">
        <ele>-2.8</ele>
        <time>2021-12-24T14:42:33Z</time>
      </trkpt>
      <trkpt lat="46.33454" lon="-1.13051">
        <ele>-2.8</ele>
        <time>2021-12-24T14:42:35Z</time>
      </trkpt>
      <trkpt lat="46.33446" lon="-1.13039">
        <ele>-2.8</ele>
        <time>2021-12-24T14:42:37Z</time>
      </trkpt>
      <trkpt lat="46.33443" lon="-1.13034">
        <ele>-2.8</ele>
        <time>2021-12-24T14:42:38Z</time>
      </trkpt>
      <trkpt lat="46.33439" lon="-1.13028">
        <ele>-2.8</ele>
        <time>2021-12-24T14:42:39Z</time>
      </trkpt>
      <trkpt lat="46.33431" lon="-1.13016">
        <ele>-2.8</ele>
        <time>2021-12-24T14:42:41Z</time>
      </trkpt>
      <trkpt lat="46.33423" lon="-1.13004">
        <ele>-2.8</ele>
        <time>2021-12-24T14:42:43Z</time>
      </trkpt>
      <trkpt lat="46.33415" lon="-1.12992">
        <ele>-2.8</ele>
        <time>2021-12-24T14:42:45Z</time>
      </trkpt>
      <trkpt lat="46.33408" lon="-1.1298">
        <ele>-2.8</ele>
        <time>2021-12-24T14:42:47Z</time>
      </trkpt>
      <trkpt lat="46.334" lon="-1.12968">
        <ele>-2.8</ele>
        <time>2021-12-24T14:42:49Z</time>
      </trkpt>
      <trkpt lat="46.33392" lon="-1.12956">
        <ele>-2.8</ele>
        <time>2021-12-24T14:42:51Z</time>
      </trkpt>
      <trkpt lat="46.33384" lon="-1.12944">
        <ele>-2.8</ele>
        <time>2021-12-24T14:42:53Z</time>
      </trkpt>
      <trkpt lat="46.33376" lon="-1.12932">
        <ele>-2.8</ele>
        <time>2021-12-24T14:42:55Z</time>
      </trkpt>
      <trkpt lat="46.33369" lon="-1.1292">
        <ele>-2.8</ele>
        <time>2021-12-24T14:42:57Z</time>
      </trkpt>
      <trkpt lat="46.33365" lon="-1.12914">
        <ele>-2.8</ele>
        <time>2021-12-24T14:42:58Z</time>
      </trkpt>
      <trkpt lat="46.33361" lon="-1.12908">
        <ele>-2.8</ele>
        <time>2021-12-24T14:42:59Z</time>
      </trkpt>
      <trkpt lat="46.33353" lon="-1.12896">
        <ele>-2.8</ele>
        <time>2021-12-24T14:43:01Z</time>
      </trkpt>
      <trkpt lat="46.33345" lon="-1.12884">
        <ele>-2.8</ele>
        <time>2021-12-24T14:43:03Z</time>
      </trkpt>
      <trkpt lat="46.33337" lon="-1.12872">
        <ele>-2.8</ele>
        <time>2021-12-24T14:43:05Z</time>
      </trkpt>
      <trkpt lat="46.33329" lon="-1.1286">
        <ele>-2.8</ele>
        <time>2021-12-24T14:43:07Z</time>
      </trkpt>
      <trkpt lat="46.33321" lon="-1.12847">
        <ele>-2.8</ele>
        <time>2021-12-24T14:43:09Z</time>
      </trkpt>
      <trkpt lat="46.33313" lon="-1.12835">
        <ele>-2.8</ele>
        <time>2021-12-24T14:43:11Z</time>
      </trkpt>
      <trkpt lat="46.33305" lon="-1.12822">
        <ele>-2.8</ele>
        <time>2021-12-24T14:43:13Z</time>
      </trkpt>
      <trkpt lat="46.33297" lon="-1.1281">
        <ele>-2.8</ele>
        <time>2021-12-24T14:43:15Z</time>
      </trkpt>
      <trkpt lat="46.33289" lon="-1.12797">
        <ele>-2.8</ele>
        <time>2021-12-24T14:43:17Z</time>
      </trkpt>
      <trkpt lat="46.33281" lon="-1.12785">
        <ele>-2.8</ele>
        <time>2021-12-24T14:43:19Z</time>
      </trkpt>
      <trkpt lat="46.33272" lon="-1.12772">
        <ele>-2.8</ele>
        <time>2021-12-24T14:43:21Z</time>
      </trkpt>
      <trkpt lat="46.33264" lon="-1.1276">
        <ele>-2.8</ele>
        <time>2021-12-24T14:43:23Z</time>
      </trkpt>
      <trkpt lat="46.33256" lon="-1.12747">
        <ele>-2.8</ele>
        <time>2021-12-24T14:43:25Z</time>
      </trkpt>
      <trkpt lat="46.33248" lon="-1.12735">
        <ele>-2.8</ele>
        <time>2021-12-24T14:43:27Z</time>
      </trkpt>
      <trkpt lat="46.3324" lon="-1.12723">
        <ele>-2.8</ele>
        <time>2021-12-24T14:43:29Z</time>
      </trkpt>
      <trkpt lat="46.33232" lon="-1.1271">
        <ele>-2.8</ele>
        <time>2021-12-24T14:43:31Z</time>
      </trkpt>
      <trkpt lat="46.33225" lon="-1.12697">
        <ele>-2.8</ele>
        <time>2021-12-24T14:43:33Z</time>
      </trkpt>
      <trkpt lat="46.33217" lon="-1.12685">
        <ele>-2.8</ele>
        <time>2021-12-24T14:43:35Z</time>
      </trkpt>
      <trkpt lat="46.33209" lon="-1.12672">
        <ele>-2.6</ele>
        <time>2021-12-24T14:43:37Z</time>
      </trkpt>
      <trkpt lat="46.33201" lon="-1.1266">
        <ele>-2.6</ele>
        <time>2021-12-24T14:43:39Z</time>
      </trkpt>
      <trkpt lat="46.33193" lon="-1.12648">
        <ele>-2.6</ele>
        <time>2021-12-24T14:43:41Z</time>
      </trkpt>
      <trkpt lat="46.33185" lon="-1.12636">
        <ele>-2.8</ele>
        <time>2021-12-24T14:43:43Z</time>
      </trkpt>
      <trkpt lat="46.33177" lon="-1.12624">
        <ele>-2.8</ele>
        <time>2021-12-24T14:43:45Z</time>
      </trkpt>
      <trkpt lat="46.33169" lon="-1.12612">
        <ele>-2.8</ele>
        <time>2021-12-24T14:43:47Z</time>
      </trkpt>
      <trkpt lat="46.33161" lon="-1.12601">
        <ele>-2.8</ele>
        <time>2021-12-24T14:43:49Z</time>
      </trkpt>
      <trkpt lat="46.33153" lon="-1.1259">
        <ele>-2.6</ele>
        <time>2021-12-24T14:43:51Z</time>
      </trkpt>
      <trkpt lat="46.33144" lon="-1.12578">
        <ele>-2.6</ele>
        <time>2021-12-24T14:43:53Z</time>
      </trkpt>
      <trkpt lat="46.33136" lon="-1.12567">
        <ele>-2.6</ele>
        <time>2021-12-24T14:43:55Z</time>
      </trkpt>
      <trkpt lat="46.33128" lon="-1.12555">
        <ele>-2.6</ele>
        <time>2021-12-24T14:43:57Z</time>
      </trkpt>
      <trkpt lat="46.3312" lon="-1.12543">
        <ele>-2.6</ele>
        <time>2021-12-24T14:43:59Z</time>
      </trkpt>
      <trkpt lat="46.33112" lon="-1.1253">
        <ele>-2.8</ele>
        <time>2021-12-24T14:44:01Z</time>
      </trkpt>
      <trkpt lat="46.33105" lon="-1.12518">
        <ele>-2.8</ele>
        <time>2021-12-24T14:44:03Z</time>
      </trkpt>
      <trkpt lat="46.33101" lon="-1.12512">
        <ele>-2.8</ele>
        <time>2021-12-24T14:44:04Z</time>
      </trkpt>
      <trkpt lat="46.33097" lon="-1.12507">
        <ele>-2.8</ele>
        <time>2021-12-24T14:44:05Z</time>
      </trkpt>
      <trkpt lat="46.33089" lon="-1.12494">
        <ele>-2.8</ele>
        <time>2021-12-24T14:44:07Z</time>
      </trkpt>
      <trkpt lat="46.33082" lon="-1.12482">
        <ele>-2.8</ele>
        <time>2021-12-24T14:44:09Z</time>
      </trkpt>
      <trkpt lat="46.33074" lon="-1.12469">
        <ele>-2.8</ele>
        <time>2021-12-24T14:44:11Z</time>
      </trkpt>
      <trkpt lat="46.3307" lon="-1.12463">
        <ele>-3</ele>
        <time>2021-12-24T14:44:12Z</time>
      </trkpt>
      <trkpt lat="46.33066" lon="-1.12457">
        <ele>-3</ele>
        <time>2021-12-24T14:44:13Z</time>
      </trkpt>
      <trkpt lat="46.33059" lon="-1.12445">
        <ele>-3</ele>
        <time>2021-12-24T14:44:15Z</time>
      </trkpt>
      <trkpt lat="46.33051" lon="-1.12433">
        <ele>-3</ele>
        <time>2021-12-24T14:44:17Z</time>
      </trkpt>
      <trkpt lat="46.33043" lon="-1.12421">
        <ele>-3</ele>
        <time>2021-12-24T14:44:19Z</time>
      </trkpt>
      <trkpt lat="46.33036" lon="-1.12409">
        <ele>-3</ele>
        <time>2021-12-24T14:44:21Z</time>
      </trkpt>
      <trkpt lat="46.33029" lon="-1.12398">
        <ele>-3</ele>
        <time>2021-12-24T14:44:23Z</time>
      </trkpt>
      <trkpt lat="46.33022" lon="-1.12386">
        <ele>-3</ele>
        <time>2021-12-24T14:44:25Z</time>
      </trkpt>
      <trkpt lat="46.33014" lon="-1.12375">
        <ele>-3</ele>
        <time>2021-12-24T14:44:27Z</time>
      </trkpt>
      <trkpt lat="46.33007" lon="-1.12364">
        <ele>-3</ele>
        <time>2021-12-24T14:44:29Z</time>
      </trkpt>
      <trkpt lat="46.33001" lon="-1.12354">
        <ele>-3.2</ele>
        <time>2021-12-24T14:44:31Z</time>
      </trkpt>
      <trkpt lat="46.32994" lon="-1.12343">
        <ele>-3.2</ele>
        <time>2021-12-24T14:44:33Z</time>
      </trkpt>
      <trkpt lat="46.32987" lon="-1.12331">
        <ele>-3.2</ele>
        <time>2021-12-24T14:44:35Z</time>
      </trkpt>
      <trkpt lat="46.3298" lon="-1.12319">
        <ele>-3.4</ele>
        <time>2021-12-24T14:44:37Z</time>
      </trkpt>
      <trkpt lat="46.32974" lon="-1.12306">
        <ele>-3.4</ele>
        <time>2021-12-24T14:44:39Z</time>
      </trkpt>
      <trkpt lat="46.32972" lon="-1.12299">
        <ele>-3.4</ele>
        <time>2021-12-24T14:44:40Z</time>
      </trkpt>
      <trkpt lat="46.3297" lon="-1.12292">
        <ele>-3.4</ele>
        <time>2021-12-24T14:44:41Z</time>
      </trkpt>
      <trkpt lat="46.32968" lon="-1.12285">
        <ele>-3.4</ele>
        <time>2021-12-24T14:44:42Z</time>
      </trkpt>
      <trkpt lat="46.32966" lon="-1.12278">
        <ele>-3.4</ele>
        <time>2021-12-24T14:44:43Z</time>
      </trkpt>
      <trkpt lat="46.32964" lon="-1.12263">
        <ele>-3.6</ele>
        <time>2021-12-24T14:44:45Z</time>
      </trkpt>
      <trkpt lat="46.32962" lon="-1.12248">
        <ele>-3.6</ele>
        <time>2021-12-24T14:44:47Z</time>
      </trkpt>
      <trkpt lat="46.32961" lon="-1.1224">
        <ele>-3.6</ele>
        <time>2021-12-24T14:44:48Z</time>
      </trkpt>
      <trkpt lat="46.3296" lon="-1.12233">
        <ele>-3.6</ele>
        <time>2021-12-24T14:44:49Z</time>
      </trkpt>
      <trkpt lat="46.32958" lon="-1.12217">
        <ele>-3.8</ele>
        <time>2021-12-24T14:44:51Z</time>
      </trkpt>
      <trkpt lat="46.32957" lon="-1.12201">
        <ele>-3.8</ele>
        <time>2021-12-24T14:44:53Z</time>
      </trkpt>
      <trkpt lat="46.32955" lon="-1.12186">
        <ele>-3.8</ele>
        <time>2021-12-24T14:44:55Z</time>
      </trkpt>
      <trkpt lat="46.32953" lon="-1.12169">
        <ele>-4</ele>
        <time>2021-12-24T14:44:57Z</time>
      </trkpt>
      <trkpt lat="46.32952" lon="-1.12161">
        <ele>-4</ele>
        <time>2021-12-24T14:44:58Z</time>
      </trkpt>
      <trkpt lat="46.32951" lon="-1.12153">
        <ele>-4</ele>
        <time>2021-12-24T14:44:59Z</time>
      </trkpt>
      <trkpt lat="46.32948" lon="-1.12136">
        <ele>-4.2</ele>
        <time>2021-12-24T14:45:01Z</time>
      </trkpt>
      <trkpt lat="46.32948" lon="-1.12128">
        <ele>-4.2</ele>
        <time>2021-12-24T14:45:02Z</time>
      </trkpt>
      <trkpt lat="46.32947" lon="-1.12119">
        <ele>-4.2</ele>
        <time>2021-12-24T14:45:03Z</time>
      </trkpt>
      <trkpt lat="46.32947" lon="-1.12111">
        <ele>-4.2</ele>
        <time>2021-12-24T14:45:04Z</time>
      </trkpt>
      <trkpt lat="46.32946" lon="-1.12102">
        <ele>-4.4</ele>
        <time>2021-12-24T14:45:05Z</time>
      </trkpt>
      <trkpt lat="46.32945" lon="-1.12094">
        <ele>-4.4</ele>
        <time>2021-12-24T14:45:06Z</time>
      </trkpt>
      <trkpt lat="46.32944" lon="-1.12085">
        <ele>-4.4</ele>
        <time>2021-12-24T14:45:07Z</time>
      </trkpt>
      <trkpt lat="46.32942" lon="-1.12069">
        <ele>-4.4</ele>
        <time>2021-12-24T14:45:09Z</time>
      </trkpt>
      <trkpt lat="46.32941" lon="-1.12052">
        <ele>-4.4</ele>
        <time>2021-12-24T14:45:11Z</time>
      </trkpt>
      <trkpt lat="46.32939" lon="-1.12035">
        <ele>-4.6</ele>
        <time>2021-12-24T14:45:13Z</time>
      </trkpt>
      <trkpt lat="46.32937" lon="-1.12018">
        <ele>-4.6</ele>
        <time>2021-12-24T14:45:15Z</time>
      </trkpt>
      <trkpt lat="46.32935" lon="-1.12001">
        <ele>-4.8</ele>
        <time>2021-12-24T14:45:17Z</time>
      </trkpt>
      <trkpt lat="46.32934" lon="-1.11984">
        <ele>-4.8</ele>
        <time>2021-12-24T14:45:19Z</time>
      </trkpt>
      <trkpt lat="46.32932" lon="-1.11968">
        <ele>-4.8</ele>
        <time>2021-12-24T14:45:21Z</time>
      </trkpt>
      <trkpt lat="46.32931" lon="-1.11959">
        <ele>-5</ele>
        <time>2021-12-24T14:45:22Z</time>
      </trkpt>
      <trkpt lat="46.3293" lon="-1.11951">
        <ele>-5</ele>
        <time>2021-12-24T14:45:23Z</time>
      </trkpt>
      <trkpt lat="46.32928" lon="-1.11934">
        <ele>-5</ele>
        <time>2021-12-24T14:45:25Z</time>
      </trkpt>
      <trkpt lat="46.32926" lon="-1.11918">
        <ele>-5</ele>
        <time>2021-12-24T14:45:27Z</time>
      </trkpt>
      <trkpt lat="46.32925" lon="-1.11901">
        <ele>-5</ele>
        <time>2021-12-24T14:45:29Z</time>
      </trkpt>
      <trkpt lat="46.32922" lon="-1.11884">
        <ele>-5.2</ele>
        <time>2021-12-24T14:45:31Z</time>
      </trkpt>
      <trkpt lat="46.3292" lon="-1.11868">
        <ele>-5.2</ele>
        <time>2021-12-24T14:45:33Z</time>
      </trkpt>
      <trkpt lat="46.32919" lon="-1.11851">
        <ele>-5.2</ele>
        <time>2021-12-24T14:45:35Z</time>
      </trkpt>
      <trkpt lat="46.32917" lon="-1.11834">
        <ele>-5.2</ele>
        <time>2021-12-24T14:45:37Z</time>
      </trkpt>
      <trkpt lat="46.32915" lon="-1.11816">
        <ele>-5.2</ele>
        <time>2021-12-24T14:45:39Z</time>
      </trkpt>
      <trkpt lat="46.32914" lon="-1.11807">
        <ele>-5.2</ele>
        <time>2021-12-24T14:45:40Z</time>
      </trkpt>
      <trkpt lat="46.32913" lon="-1.11799">
        <ele>-5.4</ele>
        <time>2021-12-24T14:45:41Z</time>
      </trkpt>
      <trkpt lat="46.32911" lon="-1.11781">
        <ele>-5.4</ele>
        <time>2021-12-24T14:45:43Z</time>
      </trkpt>
      <trkpt lat="46.3291" lon="-1.11764">
        <ele>-5.4</ele>
        <time>2021-12-24T14:45:45Z</time>
      </trkpt>
      <trkpt lat="46.32908" lon="-1.11747">
        <ele>-5.4</ele>
        <time>2021-12-24T14:45:47Z</time>
      </trkpt>
      <trkpt lat="46.32907" lon="-1.11731">
        <ele>-5.6</ele>
        <time>2021-12-24T14:45:49Z</time>
      </trkpt>
      <trkpt lat="46.32906" lon="-1.11715">
        <ele>-5.6</ele>
        <time>2021-12-24T14:45:51Z</time>
      </trkpt>
      <trkpt lat="46.32906" lon="-1.11707">
        <ele>-5.6</ele>
        <time>2021-12-24T14:45:52Z</time>
      </trkpt>
      <trkpt lat="46.32907" lon="-1.11699">
        <ele>-5.6</ele>
        <time>2021-12-24T14:45:53Z</time>
      </trkpt>
      <trkpt lat="46.32907" lon="-1.11691">
        <ele>-5.6</ele>
        <time>2021-12-24T14:45:54Z</time>
      </trkpt>
      <trkpt lat="46.32908" lon="-1.11683">
        <ele>-5.6</ele>
        <time>2021-12-24T14:45:55Z</time>
      </trkpt>
      <trkpt lat="46.32911" lon="-1.11666">
        <ele>-5.8</ele>
        <time>2021-12-24T14:45:57Z</time>
      </trkpt>
      <trkpt lat="46.32912" lon="-1.11649">
        <ele>-5.8</ele>
        <time>2021-12-24T14:45:59Z</time>
      </trkpt>
      <trkpt lat="46.32914" lon="-1.11633">
        <ele>-5.8</ele>
        <time>2021-12-24T14:46:01Z</time>
      </trkpt>
      <trkpt lat="46.32915" lon="-1.11625">
        <ele>-5.8</ele>
        <time>2021-12-24T14:46:02Z</time>
      </trkpt>
      <trkpt lat="46.32916" lon="-1.11617">
        <ele>-5.8</ele>
        <time>2021-12-24T14:46:03Z</time>
      </trkpt>
      <trkpt lat="46.32918" lon="-1.11601">
        <ele>-5.8</ele>
        <time>2021-12-24T14:46:05Z</time>
      </trkpt>
      <trkpt lat="46.32921" lon="-1.11586">
        <ele>-5.8</ele>
        <time>2021-12-24T14:46:07Z</time>
      </trkpt>
      <trkpt lat="46.32922" lon="-1.11579">
        <ele>-5.8</ele>
        <time>2021-12-24T14:46:08Z</time>
      </trkpt>
      <trkpt lat="46.32922" lon="-1.11571">
        <ele>-5.8</ele>
        <time>2021-12-24T14:46:09Z</time>
      </trkpt>
      <trkpt lat="46.32924" lon="-1.11557">
        <ele>-5.8</ele>
        <time>2021-12-24T14:46:11Z</time>
      </trkpt>
      <trkpt lat="46.32925" lon="-1.11542">
        <ele>-5.8</ele>
        <time>2021-12-24T14:46:13Z</time>
      </trkpt>
      <trkpt lat="46.32926" lon="-1.11534">
        <ele>-5.8</ele>
        <time>2021-12-24T14:46:14Z</time>
      </trkpt>
      <trkpt lat="46.32927" lon="-1.11527">
        <ele>-5.8</ele>
        <time>2021-12-24T14:46:15Z</time>
      </trkpt>
      <trkpt lat="46.32928" lon="-1.11512">
        <ele>-5.8</ele>
        <time>2021-12-24T14:46:17Z</time>
      </trkpt>
      <trkpt lat="46.32928" lon="-1.11498">
        <ele>-5.8</ele>
        <time>2021-12-24T14:46:19Z</time>
      </trkpt>
      <trkpt lat="46.32928" lon="-1.11491">
        <ele>-5.6</ele>
        <time>2021-12-24T14:46:20Z</time>
      </trkpt>
      <trkpt lat="46.32927" lon="-1.11485">
        <ele>-5.6</ele>
        <time>2021-12-24T14:46:21Z</time>
      </trkpt>
      <trkpt lat="46.32925" lon="-1.11478">
        <ele>-5.6</ele>
        <time>2021-12-24T14:46:22Z</time>
      </trkpt>
      <trkpt lat="46.32923" lon="-1.11471">
        <ele>-5.6</ele>
        <time>2021-12-24T14:46:23Z</time>
      </trkpt>
      <trkpt lat="46.32921" lon="-1.11465">
        <ele>-5.6</ele>
        <time>2021-12-24T14:46:24Z</time>
      </trkpt>
      <trkpt lat="46.3292" lon="-1.11458">
        <ele>-5.6</ele>
        <time>2021-12-24T14:46:25Z</time>
      </trkpt>
      <trkpt lat="46.3292" lon="-1.11451">
        <ele>-5.6</ele>
        <time>2021-12-24T14:46:26Z</time>
      </trkpt>
      <trkpt lat="46.32921" lon="-1.11444">
        <ele>-5.6</ele>
        <time>2021-12-24T14:46:27Z</time>
      </trkpt>
      <trkpt lat="46.32923" lon="-1.11428">
        <ele>-5.6</ele>
        <time>2021-12-24T14:46:29Z</time>
      </trkpt>
      <trkpt lat="46.32925" lon="-1.11413">
        <ele>-5.6</ele>
        <time>2021-12-24T14:46:31Z</time>
      </trkpt>
      <trkpt lat="46.32927" lon="-1.11397">
        <ele>-5.6</ele>
        <time>2021-12-24T14:46:33Z</time>
      </trkpt>
      <trkpt lat="46.32929" lon="-1.1138">
        <ele>-5.6</ele>
        <time>2021-12-24T14:46:35Z</time>
      </trkpt>
      <trkpt lat="46.3293" lon="-1.11364">
        <ele>-5.6</ele>
        <time>2021-12-24T14:46:37Z</time>
      </trkpt>
      <trkpt lat="46.32931" lon="-1.11347">
        <ele>-5.6</ele>
        <time>2021-12-24T14:46:39Z</time>
      </trkpt>
      <trkpt lat="46.32932" lon="-1.11331">
        <ele>-5.8</ele>
        <time>2021-12-24T14:46:41Z</time>
      </trkpt>
      <trkpt lat="46.32933" lon="-1.11314">
        <ele>-5.6</ele>
        <time>2021-12-24T14:46:43Z</time>
      </trkpt>
      <trkpt lat="46.32935" lon="-1.11297">
        <ele>-5.6</ele>
        <time>2021-12-24T14:46:45Z</time>
      </trkpt>
      <trkpt lat="46.32936" lon="-1.1128">
        <ele>-5.6</ele>
        <time>2021-12-24T14:46:47Z</time>
      </trkpt>
      <trkpt lat="46.32938" lon="-1.11263">
        <ele>-5.6</ele>
        <time>2021-12-24T14:46:49Z</time>
      </trkpt>
      <trkpt lat="46.32939" lon="-1.11247">
        <ele>-5.6</ele>
        <time>2021-12-24T14:46:51Z</time>
      </trkpt>
      <trkpt lat="46.3294" lon="-1.1123">
        <ele>-5.6</ele>
        <time>2021-12-24T14:46:53Z</time>
      </trkpt>
      <trkpt lat="46.32942" lon="-1.11213">
        <ele>-5.6</ele>
        <time>2021-12-24T14:46:55Z</time>
      </trkpt>
      <trkpt lat="46.32942" lon="-1.11195">
        <ele>-5.6</ele>
        <time>2021-12-24T14:46:57Z</time>
      </trkpt>
      <trkpt lat="46.32943" lon="-1.11178">
        <ele>-5.6</ele>
        <time>2021-12-24T14:46:59Z</time>
      </trkpt>
      <trkpt lat="46.32945" lon="-1.11162">
        <ele>-5.6</ele>
        <time>2021-12-24T14:47:01Z</time>
      </trkpt>
      <trkpt lat="46.32946" lon="-1.11146">
        <ele>-5.6</ele>
        <time>2021-12-24T14:47:03Z</time>
      </trkpt>
      <trkpt lat="46.32946" lon="-1.11138">
        <ele>-5.6</ele>
        <time>2021-12-24T14:47:04Z</time>
      </trkpt>
      <trkpt lat="46.32948" lon="-1.1113">
        <ele>-5.6</ele>
        <time>2021-12-24T14:47:05Z</time>
      </trkpt>
      <trkpt lat="46.32949" lon="-1.11122">
        <ele>-5.6</ele>
        <time>2021-12-24T14:47:06Z</time>
      </trkpt>
      <trkpt lat="46.32952" lon="-1.11114">
        <ele>-5.6</ele>
        <time>2021-12-24T14:47:07Z</time>
      </trkpt>
      <trkpt lat="46.32958" lon="-1.111">
        <ele>-5.6</ele>
        <time>2021-12-24T14:47:09Z</time>
      </trkpt>
      <trkpt lat="46.32962" lon="-1.11093">
        <ele>-5.6</ele>
        <time>2021-12-24T14:47:10Z</time>
      </trkpt>
      <trkpt lat="46.32966" lon="-1.11086">
        <ele>-5.8</ele>
        <time>2021-12-24T14:47:11Z</time>
      </trkpt>
      <trkpt lat="46.32974" lon="-1.11072">
        <ele>-5.6</ele>
        <time>2021-12-24T14:47:13Z</time>
      </trkpt>
      <trkpt lat="46.32982" lon="-1.11059">
        <ele>-5.6</ele>
        <time>2021-12-24T14:47:15Z</time>
      </trkpt>
      <trkpt lat="46.3299" lon="-1.11046">
        <ele>-5.6</ele>
        <time>2021-12-24T14:47:17Z</time>
      </trkpt>
      <trkpt lat="46.32997" lon="-1.11031">
        <ele>-5.8</ele>
        <time>2021-12-24T14:47:19Z</time>
      </trkpt>
      <trkpt lat="46.33005" lon="-1.11017">
        <ele>-5.6</ele>
        <time>2021-12-24T14:47:21Z</time>
      </trkpt>
      <trkpt lat="46.33009" lon="-1.1101">
        <ele>-5.6</ele>
        <time>2021-12-24T14:47:22Z</time>
      </trkpt>
      <trkpt lat="46.33013" lon="-1.11003">
        <ele>-5.6</ele>
        <time>2021-12-24T14:47:23Z</time>
      </trkpt>
      <trkpt lat="46.33021" lon="-1.10988">
        <ele>-5.6</ele>
        <time>2021-12-24T14:47:25Z</time>
      </trkpt>
      <trkpt lat="46.33029" lon="-1.10974">
        <ele>-5.6</ele>
        <time>2021-12-24T14:47:27Z</time>
      </trkpt>
      <trkpt lat="46.33037" lon="-1.10959">
        <ele>-5.4</ele>
        <time>2021-12-24T14:47:29Z</time>
      </trkpt>
      <trkpt lat="46.33045" lon="-1.10945">
        <ele>-5.6</ele>
        <time>2021-12-24T14:47:31Z</time>
      </trkpt>
      <trkpt lat="46.33053" lon="-1.1093">
        <ele>-5.6</ele>
        <time>2021-12-24T14:47:33Z</time>
      </trkpt>
      <trkpt lat="46.33061" lon="-1.10915">
        <ele>-5.6</ele>
        <time>2021-12-24T14:47:35Z</time>
      </trkpt>
      <trkpt lat="46.33069" lon="-1.109">
        <ele>-5.6</ele>
        <time>2021-12-24T14:47:37Z</time>
      </trkpt>
      <trkpt lat="46.33077" lon="-1.10884">
        <ele>-5.6</ele>
        <time>2021-12-24T14:47:39Z</time>
      </trkpt>
      <trkpt lat="46.33086" lon="-1.10869">
        <ele>-5.6</ele>
        <time>2021-12-24T14:47:41Z</time>
      </trkpt>
      <trkpt lat="46.33094" lon="-1.10854">
        <ele>-5.6</ele>
        <time>2021-12-24T14:47:43Z</time>
      </trkpt>
      <trkpt lat="46.33102" lon="-1.10839">
        <ele>-5.6</ele>
        <time>2021-12-24T14:47:45Z</time>
      </trkpt>
      <trkpt lat="46.3311" lon="-1.10823">
        <ele>-5.6</ele>
        <time>2021-12-24T14:47:47Z</time>
      </trkpt>
      <trkpt lat="46.33114" lon="-1.10816">
        <ele>-5.6</ele>
        <time>2021-12-24T14:47:48Z</time>
      </trkpt>
      <trkpt lat="46.33119" lon="-1.10808">
        <ele>-5.6</ele>
        <time>2021-12-24T14:47:49Z</time>
      </trkpt>
      <trkpt lat="46.33127" lon="-1.10793">
        <ele>-5.4</ele>
        <time>2021-12-24T14:47:51Z</time>
      </trkpt>
      <trkpt lat="46.33135" lon="-1.10778">
        <ele>-5.4</ele>
        <time>2021-12-24T14:47:53Z</time>
      </trkpt>
      <trkpt lat="46.33143" lon="-1.10762">
        <ele>-5.4</ele>
        <time>2021-12-24T14:47:55Z</time>
      </trkpt>
      <trkpt lat="46.33151" lon="-1.10747">
        <ele>-5.4</ele>
        <time>2021-12-24T14:47:57Z</time>
      </trkpt>
      <trkpt lat="46.33156" lon="-1.10739">
        <ele>-5.4</ele>
        <time>2021-12-24T14:47:58Z</time>
      </trkpt>
      <trkpt lat="46.3316" lon="-1.10731">
        <ele>-5.4</ele>
        <time>2021-12-24T14:47:59Z</time>
      </trkpt>
      <trkpt lat="46.33168" lon="-1.10715">
        <ele>-5.4</ele>
        <time>2021-12-24T14:48:01Z</time>
      </trkpt>
      <trkpt lat="46.33176" lon="-1.10699">
        <ele>-5.2</ele>
        <time>2021-12-24T14:48:03Z</time>
      </trkpt>
      <trkpt lat="46.33184" lon="-1.10683">
        <ele>-5.2</ele>
        <time>2021-12-24T14:48:05Z</time>
      </trkpt>
      <trkpt lat="46.33189" lon="-1.10674">
        <ele>-5.2</ele>
        <time>2021-12-24T14:48:06Z</time>
      </trkpt>
      <trkpt lat="46.33193" lon="-1.10666">
        <ele>-5.2</ele>
        <time>2021-12-24T14:48:07Z</time>
      </trkpt>
      <trkpt lat="46.33201" lon="-1.1065">
        <ele>-5.2</ele>
        <time>2021-12-24T14:48:09Z</time>
      </trkpt>
      <trkpt lat="46.33209" lon="-1.10634">
        <ele>-5.2</ele>
        <time>2021-12-24T14:48:11Z</time>
      </trkpt>
      <trkpt lat="46.33212" lon="-1.10626">
        <ele>-5.2</ele>
        <time>2021-12-24T14:48:12Z</time>
      </trkpt>
      <trkpt lat="46.33215" lon="-1.10616">
        <ele>-5.2</ele>
        <time>2021-12-24T14:48:13Z</time>
      </trkpt>
      <trkpt lat="46.33217" lon="-1.10606">
        <ele>-5.2</ele>
        <time>2021-12-24T14:48:14Z</time>
      </trkpt>
      <trkpt lat="46.33217" lon="-1.10596">
        <ele>-5.2</ele>
        <time>2021-12-24T14:48:15Z</time>
      </trkpt>
      <trkpt lat="46.33216" lon="-1.10586">
        <ele>-5.2</ele>
        <time>2021-12-24T14:48:16Z</time>
      </trkpt>
      <trkpt lat="46.33215" lon="-1.10577">
        <ele>-5.2</ele>
        <time>2021-12-24T14:48:17Z</time>
      </trkpt>
      <trkpt lat="46.33214" lon="-1.10567">
        <ele>-5.2</ele>
        <time>2021-12-24T14:48:18Z</time>
      </trkpt>
      <trkpt lat="46.33212" lon="-1.10558">
        <ele>-5.2</ele>
        <time>2021-12-24T14:48:19Z</time>
      </trkpt>
      <trkpt lat="46.33209" lon="-1.10539">
        <ele>-5.2</ele>
        <time>2021-12-24T14:48:21Z</time>
      </trkpt>
      <trkpt lat="46.33206" lon="-1.1052">
        <ele>-5.2</ele>
        <time>2021-12-24T14:48:23Z</time>
      </trkpt>
      <trkpt lat="46.33203" lon="-1.10502">
        <ele>-5.2</ele>
        <time>2021-12-24T14:48:25Z</time>
      </trkpt>
      <trkpt lat="46.332" lon="-1.10483">
        <ele>-5</ele>
        <time>2021-12-24T14:48:27Z</time>
      </trkpt>
      <trkpt lat="46.33199" lon="-1.10474">
        <ele>-5.2</ele>
        <time>2021-12-24T14:48:28Z</time>
      </trkpt>
      <trkpt lat="46.33197" lon="-1.10465">
        <ele>-5.2</ele>
        <time>2021-12-24T14:48:29Z</time>
      </trkpt>
      <trkpt lat="46.33194" lon="-1.10447">
        <ele>-5</ele>
        <time>2021-12-24T14:48:31Z</time>
      </trkpt>
      <trkpt lat="46.33191" lon="-1.10429">
        <ele>-5</ele>
        <time>2021-12-24T14:48:33Z</time>
      </trkpt>
      <trkpt lat="46.33188" lon="-1.10411">
        <ele>-5</ele>
        <time>2021-12-24T14:48:35Z</time>
      </trkpt>
      <trkpt lat="46.33185" lon="-1.10393">
        <ele>-5</ele>
        <time>2021-12-24T14:48:37Z</time>
      </trkpt>
      <trkpt lat="46.33184" lon="-1.10384">
        <ele>-5</ele>
        <time>2021-12-24T14:48:38Z</time>
      </trkpt>
      <trkpt lat="46.33182" lon="-1.10375">
        <ele>-5</ele>
        <time>2021-12-24T14:48:39Z</time>
      </trkpt>
      <trkpt lat="46.3318" lon="-1.10357">
        <ele>-5</ele>
        <time>2021-12-24T14:48:41Z</time>
      </trkpt>
      <trkpt lat="46.33177" lon="-1.10339">
        <ele>-5</ele>
        <time>2021-12-24T14:48:43Z</time>
      </trkpt>
      <trkpt lat="46.33174" lon="-1.10321">
        <ele>-5</ele>
        <time>2021-12-24T14:48:45Z</time>
      </trkpt>
      <trkpt lat="46.33171" lon="-1.10303">
        <ele>-5</ele>
        <time>2021-12-24T14:48:47Z</time>
      </trkpt>
      <trkpt lat="46.3317" lon="-1.10294">
        <ele>-5</ele>
        <time>2021-12-24T14:48:48Z</time>
      </trkpt>
      <trkpt lat="46.33168" lon="-1.10285">
        <ele>-5</ele>
        <time>2021-12-24T14:48:49Z</time>
      </trkpt>
      <trkpt lat="46.33166" lon="-1.10268">
        <ele>-5</ele>
        <time>2021-12-24T14:48:51Z</time>
      </trkpt>
      <trkpt lat="46.33162" lon="-1.1025">
        <ele>-5</ele>
        <time>2021-12-24T14:48:53Z</time>
      </trkpt>
      <trkpt lat="46.3316" lon="-1.10233">
        <ele>-5</ele>
        <time>2021-12-24T14:48:55Z</time>
      </trkpt>
      <trkpt lat="46.33158" lon="-1.10224">
        <ele>-5</ele>
        <time>2021-12-24T14:48:56Z</time>
      </trkpt>
      <trkpt lat="46.33155" lon="-1.10216">
        <ele>-5</ele>
        <time>2021-12-24T14:48:57Z</time>
      </trkpt>
      <trkpt lat="46.33147" lon="-1.10205">
        <ele>-5</ele>
        <time>2021-12-24T14:48:59Z</time>
      </trkpt>
      <trkpt lat="46.33136" lon="-1.10199">
        <ele>-5.2</ele>
        <time>2021-12-24T14:49:01Z</time>
      </trkpt>
      <trkpt lat="46.33126" lon="-1.10193">
        <ele>-5.2</ele>
        <time>2021-12-24T14:49:03Z</time>
      </trkpt>
      <trkpt lat="46.33115" lon="-1.10187">
        <ele>-5.2</ele>
        <time>2021-12-24T14:49:05Z</time>
      </trkpt>
      <trkpt lat="46.3311" lon="-1.10185">
        <ele>-5.2</ele>
        <time>2021-12-24T14:49:06Z</time>
      </trkpt>
      <trkpt lat="46.33105" lon="-1.10182">
        <ele>-5.2</ele>
        <time>2021-12-24T14:49:07Z</time>
      </trkpt>
      <trkpt lat="46.33094" lon="-1.10177">
        <ele>-5.2</ele>
        <time>2021-12-24T14:49:09Z</time>
      </trkpt>
      <trkpt lat="46.33084" lon="-1.10171">
        <ele>-5</ele>
        <time>2021-12-24T14:49:11Z</time>
      </trkpt>
      <trkpt lat="46.33073" lon="-1.10165">
        <ele>-5.2</ele>
        <time>2021-12-24T14:49:13Z</time>
      </trkpt>
      <trkpt lat="46.33063" lon="-1.1016">
        <ele>-5</ele>
        <time>2021-12-24T14:49:15Z</time>
      </trkpt>
      <trkpt lat="46.33052" lon="-1.10155">
        <ele>-5</ele>
        <time>2021-12-24T14:49:17Z</time>
      </trkpt>
      <trkpt lat="46.33041" lon="-1.10149">
        <ele>-5</ele>
        <time>2021-12-24T14:49:19Z</time>
      </trkpt>
      <trkpt lat="46.3303" lon="-1.10144">
        <ele>-5</ele>
        <time>2021-12-24T14:49:21Z</time>
      </trkpt>
      <trkpt lat="46.33019" lon="-1.10139">
        <ele>-5</ele>
        <time>2021-12-24T14:49:23Z</time>
      </trkpt>
      <trkpt lat="46.33008" lon="-1.10133">
        <ele>-5.2</ele>
        <time>2021-12-24T14:49:25Z</time>
      </trkpt>
      <trkpt lat="46.32997" lon="-1.10127">
        <ele>-5.2</ele>
        <time>2021-12-24T14:49:27Z</time>
      </trkpt>
      <trkpt lat="46.32986" lon="-1.10122">
        <ele>-5.2</ele>
        <time>2021-12-24T14:49:29Z</time>
      </trkpt>
      <trkpt lat="46.32975" lon="-1.10116">
        <ele>-5.2</ele>
        <time>2021-12-24T14:49:31Z</time>
      </trkpt>
      <trkpt lat="46.32965" lon="-1.10111">
        <ele>-5.2</ele>
        <time>2021-12-24T14:49:33Z</time>
      </trkpt>
      <trkpt lat="46.3296" lon="-1.10108">
        <ele>-5.2</ele>
        <time>2021-12-24T14:49:34Z</time>
      </trkpt>
      <trkpt lat="46.32955" lon="-1.10105">
        <ele>-5</ele>
        <time>2021-12-24T14:49:35Z</time>
      </trkpt>
      <trkpt lat="46.32945" lon="-1.10097">
        <ele>-5</ele>
        <time>2021-12-24T14:49:37Z</time>
      </trkpt>
      <trkpt lat="46.32936" lon="-1.10088">
        <ele>-5.2</ele>
        <time>2021-12-24T14:49:39Z</time>
      </trkpt>
      <trkpt lat="46.32927" lon="-1.10078">
        <ele>-5.2</ele>
        <time>2021-12-24T14:49:41Z</time>
      </trkpt>
      <trkpt lat="46.32918" lon="-1.10068">
        <ele>-5.2</ele>
        <time>2021-12-24T14:49:43Z</time>
      </trkpt>
      <trkpt lat="46.32908" lon="-1.1006">
        <ele>-5</ele>
        <time>2021-12-24T14:49:45Z</time>
      </trkpt>
      <trkpt lat="46.32903" lon="-1.10055">
        <ele>-5</ele>
        <time>2021-12-24T14:49:46Z</time>
      </trkpt>
      <trkpt lat="46.32899" lon="-1.1005">
        <ele>-5</ele>
        <time>2021-12-24T14:49:47Z</time>
      </trkpt>
      <trkpt lat="46.32889" lon="-1.1004">
        <ele>-5</ele>
        <time>2021-12-24T14:49:49Z</time>
      </trkpt>
      <trkpt lat="46.32879" lon="-1.10031">
        <ele>-5</ele>
        <time>2021-12-24T14:49:51Z</time>
      </trkpt>
      <trkpt lat="46.3287" lon="-1.10021">
        <ele>-5</ele>
        <time>2021-12-24T14:49:53Z</time>
      </trkpt>
      <trkpt lat="46.32866" lon="-1.10016">
        <ele>-5</ele>
        <time>2021-12-24T14:49:54Z</time>
      </trkpt>
      <trkpt lat="46.32861" lon="-1.10012">
        <ele>-5</ele>
        <time>2021-12-24T14:49:55Z</time>
      </trkpt>
      <trkpt lat="46.32852" lon="-1.10002">
        <ele>-5</ele>
        <time>2021-12-24T14:49:57Z</time>
      </trkpt>
      <trkpt lat="46.32843" lon="-1.09993">
        <ele>-5</ele>
        <time>2021-12-24T14:49:59Z</time>
      </trkpt>
      <trkpt lat="46.32834" lon="-1.09984">
        <ele>-4.8</ele>
        <time>2021-12-24T14:50:01Z</time>
      </trkpt>
      <trkpt lat="46.32825" lon="-1.09974">
        <ele>-4.8</ele>
        <time>2021-12-24T14:50:03Z</time>
      </trkpt>
      <trkpt lat="46.32821" lon="-1.09969">
        <ele>-4.8</ele>
        <time>2021-12-24T14:50:04Z</time>
      </trkpt>
      <trkpt lat="46.32816" lon="-1.09965">
        <ele>-4.8</ele>
        <time>2021-12-24T14:50:05Z</time>
      </trkpt>
      <trkpt lat="46.32808" lon="-1.09955">
        <ele>-4.8</ele>
        <time>2021-12-24T14:50:07Z</time>
      </trkpt>
      <trkpt lat="46.328" lon="-1.09947">
        <ele>-5</ele>
        <time>2021-12-24T14:50:09Z</time>
      </trkpt>
      <trkpt lat="46.32792" lon="-1.0994">
        <ele>-5</ele>
        <time>2021-12-24T14:50:11Z</time>
      </trkpt>
      <trkpt lat="46.32785" lon="-1.09934">
        <ele>-4.8</ele>
        <time>2021-12-24T14:50:13Z</time>
      </trkpt>
      <trkpt lat="46.32777" lon="-1.09926">
        <ele>-5</ele>
        <time>2021-12-24T14:50:15Z</time>
      </trkpt>
      <trkpt lat="46.3277" lon="-1.09917">
        <ele>-4.8</ele>
        <time>2021-12-24T14:50:17Z</time>
      </trkpt>
      <trkpt lat="46.32766" lon="-1.09912">
        <ele>-4.8</ele>
        <time>2021-12-24T14:50:18Z</time>
      </trkpt>
      <trkpt lat="46.32762" lon="-1.09908">
        <ele>-4.8</ele>
        <time>2021-12-24T14:50:19Z</time>
      </trkpt>
      <trkpt lat="46.32754" lon="-1.09898">
        <ele>-4.8</ele>
        <time>2021-12-24T14:50:21Z</time>
      </trkpt>
      <trkpt lat="46.32746" lon="-1.09889">
        <ele>-4.8</ele>
        <time>2021-12-24T14:50:23Z</time>
      </trkpt>
      <trkpt lat="46.32738" lon="-1.09879">
        <ele>-4.8</ele>
        <time>2021-12-24T14:50:25Z</time>
      </trkpt>
      <trkpt lat="46.3273" lon="-1.09869">
        <ele>-4.8</ele>
        <time>2021-12-24T14:50:27Z</time>
      </trkpt>
      <trkpt lat="46.32726" lon="-1.09864">
        <ele>-4.8</ele>
        <time>2021-12-24T14:50:28Z</time>
      </trkpt>
      <trkpt lat="46.32722" lon="-1.09859">
        <ele>-4.8</ele>
        <time>2021-12-24T14:50:29Z</time>
      </trkpt>
      <trkpt lat="46.32713" lon="-1.09848">
        <ele>-4.8</ele>
        <time>2021-12-24T14:50:31Z</time>
      </trkpt>
      <trkpt lat="46.32704" lon="-1.09838">
        <ele>-4.6</ele>
        <time>2021-12-24T14:50:33Z</time>
      </trkpt>
      <trkpt lat="46.32696" lon="-1.09828">
        <ele>-4.6</ele>
        <time>2021-12-24T14:50:35Z</time>
      </trkpt>
      <trkpt lat="46.32688" lon="-1.09818">
        <ele>-4.6</ele>
        <time>2021-12-24T14:50:37Z</time>
      </trkpt>
      <trkpt lat="46.32684" lon="-1.09813">
        <ele>-4.6</ele>
        <time>2021-12-24T14:50:38Z</time>
      </trkpt>
      <trkpt lat="46.3268" lon="-1.09809">
        <ele>-4.6</ele>
        <time>2021-12-24T14:50:39Z</time>
      </trkpt>
      <trkpt lat="46.32672" lon="-1.09799">
        <ele>-4.6</ele>
        <time>2021-12-24T14:50:41Z</time>
      </trkpt>
      <trkpt lat="46.32665" lon="-1.09789">
        <ele>-4.6</ele>
        <time>2021-12-24T14:50:43Z</time>
      </trkpt>
      <trkpt lat="46.32657" lon="-1.09779">
        <ele>-4.6</ele>
        <time>2021-12-24T14:50:45Z</time>
      </trkpt>
      <trkpt lat="46.32649" lon="-1.09769">
        <ele>-4.6</ele>
        <time>2021-12-24T14:50:47Z</time>
      </trkpt>
      <trkpt lat="46.32641" lon="-1.0976">
        <ele>-4.6</ele>
        <time>2021-12-24T14:50:49Z</time>
      </trkpt>
      <trkpt lat="46.32633" lon="-1.0975">
        <ele>-4.6</ele>
        <time>2021-12-24T14:50:51Z</time>
      </trkpt>
      <trkpt lat="46.32626" lon="-1.09741">
        <ele>-4.6</ele>
        <time>2021-12-24T14:50:53Z</time>
      </trkpt>
      <trkpt lat="46.32618" lon="-1.09732">
        <ele>-4.6</ele>
        <time>2021-12-24T14:50:55Z</time>
      </trkpt>
      <trkpt lat="46.3261" lon="-1.09723">
        <ele>-4.6</ele>
        <time>2021-12-24T14:50:57Z</time>
      </trkpt>
      <trkpt lat="46.32601" lon="-1.09713">
        <ele>-4.6</ele>
        <time>2021-12-24T14:50:59Z</time>
      </trkpt>
      <trkpt lat="46.32593" lon="-1.09704">
        <ele>-4.6</ele>
        <time>2021-12-24T14:51:01Z</time>
      </trkpt>
      <trkpt lat="46.32584" lon="-1.09694">
        <ele>-4.6</ele>
        <time>2021-12-24T14:51:03Z</time>
      </trkpt>
      <trkpt lat="46.32576" lon="-1.09684">
        <ele>-4.6</ele>
        <time>2021-12-24T14:51:05Z</time>
      </trkpt>
      <trkpt lat="46.32567" lon="-1.09674">
        <ele>-4.6</ele>
        <time>2021-12-24T14:51:07Z</time>
      </trkpt>
      <trkpt lat="46.32563" lon="-1.09669">
        <ele>-4.6</ele>
        <time>2021-12-24T14:51:08Z</time>
      </trkpt>
      <trkpt lat="46.32559" lon="-1.09664">
        <ele>-4.6</ele>
        <time>2021-12-24T14:51:09Z</time>
      </trkpt>
      <trkpt lat="46.32551" lon="-1.09654">
        <ele>-4.6</ele>
        <time>2021-12-24T14:51:11Z</time>
      </trkpt>
      <trkpt lat="46.32542" lon="-1.09644">
        <ele>-4.6</ele>
        <time>2021-12-24T14:51:13Z</time>
      </trkpt>
      <trkpt lat="46.32534" lon="-1.09634">
        <ele>-4.4</ele>
        <time>2021-12-24T14:51:15Z</time>
      </trkpt>
      <trkpt lat="46.32526" lon="-1.09625">
        <ele>-4.4</ele>
        <time>2021-12-24T14:51:17Z</time>
      </trkpt>
      <trkpt lat="46.32519" lon="-1.09615">
        <ele>-4.4</ele>
        <time>2021-12-24T14:51:19Z</time>
      </trkpt>
      <trkpt lat="46.32511" lon="-1.09605">
        <ele>-4.4</ele>
        <time>2021-12-24T14:51:21Z</time>
      </trkpt>
      <trkpt lat="46.32503" lon="-1.09595">
        <ele>-4.4</ele>
        <time>2021-12-24T14:51:23Z</time>
      </trkpt>
      <trkpt lat="46.32496" lon="-1.09585">
        <ele>-4.4</ele>
        <time>2021-12-24T14:51:25Z</time>
      </trkpt>
      <trkpt lat="46.32492" lon="-1.0958">
        <ele>-4.4</ele>
        <time>2021-12-24T14:51:26Z</time>
      </trkpt>
      <trkpt lat="46.32488" lon="-1.09575">
        <ele>-4.4</ele>
        <time>2021-12-24T14:51:27Z</time>
      </trkpt>
      <trkpt lat="46.3248" lon="-1.09565">
        <ele>-4.4</ele>
        <time>2021-12-24T14:51:29Z</time>
      </trkpt>
      <trkpt lat="46.32472" lon="-1.09556">
        <ele>-4.4</ele>
        <time>2021-12-24T14:51:31Z</time>
      </trkpt>
      <trkpt lat="46.32465" lon="-1.09546">
        <ele>-4.4</ele>
        <time>2021-12-24T14:51:33Z</time>
      </trkpt>
      <trkpt lat="46.32461" lon="-1.09542">
        <ele>-4.4</ele>
        <time>2021-12-24T14:51:34Z</time>
      </trkpt>
      <trkpt lat="46.32457" lon="-1.09537">
        <ele>-4.4</ele>
        <time>2021-12-24T14:51:35Z</time>
      </trkpt>
      <trkpt lat="46.3245" lon="-1.09527">
        <ele>-4.4</ele>
        <time>2021-12-24T14:51:37Z</time>
      </trkpt>
      <trkpt lat="46.32443" lon="-1.09517">
        <ele>-4.4</ele>
        <time>2021-12-24T14:51:39Z</time>
      </trkpt>
      <trkpt lat="46.32435" lon="-1.09508">
        <ele>-4.4</ele>
        <time>2021-12-24T14:51:41Z</time>
      </trkpt>
      <trkpt lat="46.32428" lon="-1.09498">
        <ele>-4.4</ele>
        <time>2021-12-24T14:51:43Z</time>
      </trkpt>
      <trkpt lat="46.32421" lon="-1.09488">
        <ele>-4.2</ele>
        <time>2021-12-24T14:51:45Z</time>
      </trkpt>
      <trkpt lat="46.32413" lon="-1.09478">
        <ele>-4.2</ele>
        <time>2021-12-24T14:51:47Z</time>
      </trkpt>
      <trkpt lat="46.32406" lon="-1.09469">
        <ele>-4.2</ele>
        <time>2021-12-24T14:51:49Z</time>
      </trkpt>
      <trkpt lat="46.32398" lon="-1.09459">
        <ele>-4.2</ele>
        <time>2021-12-24T14:51:51Z</time>
      </trkpt>
      <trkpt lat="46.32394" lon="-1.09454">
        <ele>-4.2</ele>
        <time>2021-12-24T14:51:52Z</time>
      </trkpt>
      <trkpt lat="46.32391" lon="-1.09449">
        <ele>-4.4</ele>
        <time>2021-12-24T14:51:53Z</time>
      </trkpt>
      <trkpt lat="46.32383" lon="-1.0944">
        <ele>-4.2</ele>
        <time>2021-12-24T14:51:55Z</time>
      </trkpt>
      <trkpt lat="46.32375" lon="-1.0943">
        <ele>-4.2</ele>
        <time>2021-12-24T14:51:57Z</time>
      </trkpt>
      <trkpt lat="46.32368" lon="-1.0942">
        <ele>-4.2</ele>
        <time>2021-12-24T14:51:59Z</time>
      </trkpt>
      <trkpt lat="46.3236" lon="-1.0941">
        <ele>-4.2</ele>
        <time>2021-12-24T14:52:01Z</time>
      </trkpt>
      <trkpt lat="46.32356" lon="-1.09405">
        <ele>-4.2</ele>
        <time>2021-12-24T14:52:02Z</time>
      </trkpt>
      <trkpt lat="46.32352" lon="-1.094">
        <ele>-4.2</ele>
        <time>2021-12-24T14:52:03Z</time>
      </trkpt>
      <trkpt lat="46.32344" lon="-1.0939">
        <ele>-4.2</ele>
        <time>2021-12-24T14:52:05Z</time>
      </trkpt>
      <trkpt lat="46.32337" lon="-1.0938">
        <ele>-4.2</ele>
        <time>2021-12-24T14:52:07Z</time>
      </trkpt>
      <trkpt lat="46.3233" lon="-1.09369">
        <ele>-4.2</ele>
        <time>2021-12-24T14:52:09Z</time>
      </trkpt>
      <trkpt lat="46.32322" lon="-1.09359">
        <ele>-4</ele>
        <time>2021-12-24T14:52:11Z</time>
      </trkpt>
      <trkpt lat="46.32314" lon="-1.0935">
        <ele>-4</ele>
        <time>2021-12-24T14:52:13Z</time>
      </trkpt>
      <trkpt lat="46.32311" lon="-1.09346">
        <ele>-4</ele>
        <time>2021-12-24T14:52:14Z</time>
      </trkpt>
      <trkpt lat="46.32307" lon="-1.09341">
        <ele>-4</ele>
        <time>2021-12-24T14:52:15Z</time>
      </trkpt>
      <trkpt lat="46.323" lon="-1.09331">
        <ele>-4</ele>
        <time>2021-12-24T14:52:17Z</time>
      </trkpt>
      <trkpt lat="46.32293" lon="-1.09322">
        <ele>-4</ele>
        <time>2021-12-24T14:52:19Z</time>
      </trkpt>
      <trkpt lat="46.32286" lon="-1.09313">
        <ele>-4</ele>
        <time>2021-12-24T14:52:21Z</time>
      </trkpt>
      <trkpt lat="46.32282" lon="-1.09308">
        <ele>-4</ele>
        <time>2021-12-24T14:52:22Z</time>
      </trkpt>
      <trkpt lat="46.32278" lon="-1.09304">
        <ele>-4</ele>
        <time>2021-12-24T14:52:23Z</time>
      </trkpt>
      <trkpt lat="46.3227" lon="-1.09296">
        <ele>-4</ele>
        <time>2021-12-24T14:52:25Z</time>
      </trkpt>
      <trkpt lat="46.32262" lon="-1.09288">
        <ele>-4</ele>
        <time>2021-12-24T14:52:27Z</time>
      </trkpt>
      <trkpt lat="46.32254" lon="-1.09279">
        <ele>-4</ele>
        <time>2021-12-24T14:52:29Z</time>
      </trkpt>
      <trkpt lat="46.32246" lon="-1.09271">
        <ele>-4</ele>
        <time>2021-12-24T14:52:31Z</time>
      </trkpt>
      <trkpt lat="46.32238" lon="-1.09264">
        <ele>-4</ele>
        <time>2021-12-24T14:52:33Z</time>
      </trkpt>
      <trkpt lat="46.3223" lon="-1.09255">
        <ele>-4</ele>
        <time>2021-12-24T14:52:35Z</time>
      </trkpt>
      <trkpt lat="46.32221" lon="-1.09248">
        <ele>-4</ele>
        <time>2021-12-24T14:52:37Z</time>
      </trkpt>
      <trkpt lat="46.32213" lon="-1.0924">
        <ele>-4</ele>
        <time>2021-12-24T14:52:39Z</time>
      </trkpt>
      <trkpt lat="46.32204" lon="-1.09232">
        <ele>-4</ele>
        <time>2021-12-24T14:52:41Z</time>
      </trkpt>
      <trkpt lat="46.32196" lon="-1.09224">
        <ele>-4</ele>
        <time>2021-12-24T14:52:43Z</time>
      </trkpt>
      <trkpt lat="46.32187" lon="-1.09216">
        <ele>-4</ele>
        <time>2021-12-24T14:52:45Z</time>
      </trkpt>
      <trkpt lat="46.32178" lon="-1.09207">
        <ele>-4</ele>
        <time>2021-12-24T14:52:47Z</time>
      </trkpt>
      <trkpt lat="46.32174" lon="-1.09203">
        <ele>-4.2</ele>
        <time>2021-12-24T14:52:48Z</time>
      </trkpt>
      <trkpt lat="46.3217" lon="-1.09199">
        <ele>-4.2</ele>
        <time>2021-12-24T14:52:49Z</time>
      </trkpt>
      <trkpt lat="46.32161" lon="-1.0919">
        <ele>-4.2</ele>
        <time>2021-12-24T14:52:51Z</time>
      </trkpt>
      <trkpt lat="46.32153" lon="-1.09181">
        <ele>-4.2</ele>
        <time>2021-12-24T14:52:53Z</time>
      </trkpt>
      <trkpt lat="46.32145" lon="-1.09173">
        <ele>-4</ele>
        <time>2021-12-24T14:52:55Z</time>
      </trkpt>
      <trkpt lat="46.32136" lon="-1.09165">
        <ele>-4</ele>
        <time>2021-12-24T14:52:57Z</time>
      </trkpt>
      <trkpt lat="46.32127" lon="-1.09155">
        <ele>-4.2</ele>
        <time>2021-12-24T14:52:59Z</time>
      </trkpt>
      <trkpt lat="46.32119" lon="-1.09147">
        <ele>-4</ele>
        <time>2021-12-24T14:53:01Z</time>
      </trkpt>
      <trkpt lat="46.32111" lon="-1.09138">
        <ele>-4</ele>
        <time>2021-12-24T14:53:03Z</time>
      </trkpt>
      <trkpt lat="46.32103" lon="-1.0913">
        <ele>-4</ele>
        <time>2021-12-24T14:53:05Z</time>
      </trkpt>
      <trkpt lat="46.32095" lon="-1.09121">
        <ele>-4</ele>
        <time>2021-12-24T14:53:07Z</time>
      </trkpt>
      <trkpt lat="46.32087" lon="-1.09112">
        <ele>-4</ele>
        <time>2021-12-24T14:53:09Z</time>
      </trkpt>
      <trkpt lat="46.32079" lon="-1.09103">
        <ele>-4.2</ele>
        <time>2021-12-24T14:53:11Z</time>
      </trkpt>
      <trkpt lat="46.32072" lon="-1.09094">
        <ele>-4</ele>
        <time>2021-12-24T14:53:13Z</time>
      </trkpt>
      <trkpt lat="46.32064" lon="-1.09085">
        <ele>-4.2</ele>
        <time>2021-12-24T14:53:15Z</time>
      </trkpt>
      <trkpt lat="46.3206" lon="-1.09081">
        <ele>-4</ele>
        <time>2021-12-24T14:53:16Z</time>
      </trkpt>
      <trkpt lat="46.32056" lon="-1.09076">
        <ele>-4</ele>
        <time>2021-12-24T14:53:17Z</time>
      </trkpt>
      <trkpt lat="46.32048" lon="-1.09067">
        <ele>-4</ele>
        <time>2021-12-24T14:53:19Z</time>
      </trkpt>
      <trkpt lat="46.3204" lon="-1.09057">
        <ele>-4</ele>
        <time>2021-12-24T14:53:21Z</time>
      </trkpt>
      <trkpt lat="46.32032" lon="-1.09048">
        <ele>-4</ele>
        <time>2021-12-24T14:53:23Z</time>
      </trkpt>
      <trkpt lat="46.32028" lon="-1.09043">
        <ele>-4</ele>
        <time>2021-12-24T14:53:24Z</time>
      </trkpt>
      <trkpt lat="46.32024" lon="-1.09039">
        <ele>-4</ele>
        <time>2021-12-24T14:53:25Z</time>
      </trkpt>
      <trkpt lat="46.32016" lon="-1.09029">
        <ele>-4</ele>
        <time>2021-12-24T14:53:27Z</time>
      </trkpt>
      <trkpt lat="46.32008" lon="-1.0902">
        <ele>-4</ele>
        <time>2021-12-24T14:53:29Z</time>
      </trkpt>
      <trkpt lat="46.32001" lon="-1.09011">
        <ele>-4</ele>
        <time>2021-12-24T14:53:31Z</time>
      </trkpt>
      <trkpt lat="46.31997" lon="-1.09007">
        <ele>-4</ele>
        <time>2021-12-24T14:53:32Z</time>
      </trkpt>
      <trkpt lat="46.31994" lon="-1.09003">
        <ele>-4</ele>
        <time>2021-12-24T14:53:33Z</time>
      </trkpt>
      <trkpt lat="46.31987" lon="-1.08994">
        <ele>-4</ele>
        <time>2021-12-24T14:53:35Z</time>
      </trkpt>
      <trkpt lat="46.3198" lon="-1.08985">
        <ele>-4</ele>
        <time>2021-12-24T14:53:37Z</time>
      </trkpt>
      <trkpt lat="46.31973" lon="-1.08977">
        <ele>-4</ele>
        <time>2021-12-24T14:53:39Z</time>
      </trkpt>
      <trkpt lat="46.31971" lon="-1.08972">
        <ele>-4</ele>
        <time>2021-12-24T14:53:40Z</time>
      </trkpt>
      <trkpt lat="46.31968" lon="-1.08968">
        <ele>-4</ele>
        <time>2021-12-24T14:53:41Z</time>
      </trkpt>
      <trkpt lat="46.31963" lon="-1.08961">
        <ele>-4</ele>
        <time>2021-12-24T14:53:43Z</time>
      </trkpt>
      <trkpt lat="46.31958" lon="-1.08953">
        <ele>-3.8</ele>
        <time>2021-12-24T14:53:45Z</time>
      </trkpt>
      <trkpt lat="46.31953" lon="-1.08947">
        <ele>-3.8</ele>
        <time>2021-12-24T14:53:47Z</time>
      </trkpt>
      <trkpt lat="46.31947" lon="-1.0894">
        <ele>-3.8</ele>
        <time>2021-12-24T14:53:49Z</time>
      </trkpt>
      <trkpt lat="46.31941" lon="-1.08933">
        <ele>-3.8</ele>
        <time>2021-12-24T14:53:51Z</time>
      </trkpt>
      <trkpt lat="46.31934" lon="-1.08927">
        <ele>-3.6</ele>
        <time>2021-12-24T14:53:53Z</time>
      </trkpt>
      <trkpt lat="46.31931" lon="-1.08923">
        <ele>-3.6</ele>
        <time>2021-12-24T14:53:54Z</time>
      </trkpt>
      <trkpt lat="46.31927" lon="-1.08919">
        <ele>-3.6</ele>
        <time>2021-12-24T14:53:55Z</time>
      </trkpt>
      <trkpt lat="46.3192" lon="-1.08912">
        <ele>-3.6</ele>
        <time>2021-12-24T14:53:57Z</time>
      </trkpt>
      <trkpt lat="46.31913" lon="-1.08904">
        <ele>-3.6</ele>
        <time>2021-12-24T14:53:59Z</time>
      </trkpt>
      <trkpt lat="46.31906" lon="-1.08896">
        <ele>-3.6</ele>
        <time>2021-12-24T14:54:01Z</time>
      </trkpt>
      <trkpt lat="46.31899" lon="-1.08887">
        <ele>-3.6</ele>
        <time>2021-12-24T14:54:03Z</time>
      </trkpt>
      <trkpt lat="46.31896" lon="-1.08884">
        <ele>-3.4</ele>
        <time>2021-12-24T14:54:04Z</time>
      </trkpt>
      <trkpt lat="46.31892" lon="-1.0888">
        <ele>-3.4</ele>
        <time>2021-12-24T14:54:05Z</time>
      </trkpt>
      <trkpt lat="46.31886" lon="-1.08873">
        <ele>-3.4</ele>
        <time>2021-12-24T14:54:07Z</time>
      </trkpt>
      <trkpt lat="46.31881" lon="-1.08867">
        <ele>-3.4</ele>
        <time>2021-12-24T14:54:09Z</time>
      </trkpt>
      <trkpt lat="46.31876" lon="-1.08861">
        <ele>-3.2</ele>
        <time>2021-12-24T14:54:11Z</time>
      </trkpt>
      <trkpt lat="46.31872" lon="-1.08854">
        <ele>-3.2</ele>
        <time>2021-12-24T14:54:13Z</time>
      </trkpt>
      <trkpt lat="46.31868" lon="-1.08844">
        <ele>-3.2</ele>
        <time>2021-12-24T14:54:15Z</time>
      </trkpt>
      <trkpt lat="46.31867" lon="-1.08838">
        <ele>-3.2</ele>
        <time>2021-12-24T14:54:16Z</time>
      </trkpt>
      <trkpt lat="46.31865" lon="-1.08832">
        <ele>-3.2</ele>
        <time>2021-12-24T14:54:17Z</time>
      </trkpt>
      <trkpt lat="46.31863" lon="-1.08819">
        <ele>-3.2</ele>
        <time>2021-12-24T14:54:19Z</time>
      </trkpt>
      <trkpt lat="46.31861" lon="-1.08807">
        <ele>-3.2</ele>
        <time>2021-12-24T14:54:21Z</time>
      </trkpt>
      <trkpt lat="46.3186" lon="-1.08794">
        <ele>-3.2</ele>
        <time>2021-12-24T14:54:23Z</time>
      </trkpt>
      <trkpt lat="46.31859" lon="-1.08787">
        <ele>-3</ele>
        <time>2021-12-24T14:54:24Z</time>
      </trkpt>
      <trkpt lat="46.31858" lon="-1.08781">
        <ele>-3</ele>
        <time>2021-12-24T14:54:25Z</time>
      </trkpt>
      <trkpt lat="46.31857" lon="-1.08767">
        <ele>-3</ele>
        <time>2021-12-24T14:54:27Z</time>
      </trkpt>
      <trkpt lat="46.31855" lon="-1.08754">
        <ele>-3</ele>
        <time>2021-12-24T14:54:29Z</time>
      </trkpt>
      <trkpt lat="46.31853" lon="-1.08741">
        <ele>-3</ele>
        <time>2021-12-24T14:54:31Z</time>
      </trkpt>
      <trkpt lat="46.3185" lon="-1.08728">
        <ele>-3</ele>
        <time>2021-12-24T14:54:33Z</time>
      </trkpt>
      <trkpt lat="46.31848" lon="-1.08715">
        <ele>-3</ele>
        <time>2021-12-24T14:54:35Z</time>
      </trkpt>
      <trkpt lat="46.31846" lon="-1.08703">
        <ele>-3</ele>
        <time>2021-12-24T14:54:37Z</time>
      </trkpt>
      <trkpt lat="46.31844" lon="-1.08689">
        <ele>-3</ele>
        <time>2021-12-24T14:54:39Z</time>
      </trkpt>
      <trkpt lat="46.31842" lon="-1.08675">
        <ele>-3</ele>
        <time>2021-12-24T14:54:41Z</time>
      </trkpt>
      <trkpt lat="46.31841" lon="-1.08669">
        <ele>-2.8</ele>
        <time>2021-12-24T14:54:42Z</time>
      </trkpt>
      <trkpt lat="46.3184" lon="-1.08662">
        <ele>-2.8</ele>
        <time>2021-12-24T14:54:43Z</time>
      </trkpt>
      <trkpt lat="46.31837" lon="-1.0865">
        <ele>-3</ele>
        <time>2021-12-24T14:54:45Z</time>
      </trkpt>
      <trkpt lat="46.31835" lon="-1.08639">
        <ele>-3</ele>
        <time>2021-12-24T14:54:47Z</time>
      </trkpt>
      <trkpt lat="46.31833" lon="-1.08634">
        <ele>-3</ele>
        <time>2021-12-24T14:54:48Z</time>
      </trkpt>
      <trkpt lat="46.31832" lon="-1.08629">
        <ele>-3</ele>
        <time>2021-12-24T14:54:49Z</time>
      </trkpt>
      <trkpt lat="46.31828" lon="-1.08618">
        <ele>-3</ele>
        <time>2021-12-24T14:54:51Z</time>
      </trkpt>
      <trkpt lat="46.31825" lon="-1.08607">
        <ele>-2.8</ele>
        <time>2021-12-24T14:54:53Z</time>
      </trkpt>
      <trkpt lat="46.3182" lon="-1.08596">
        <ele>-2.8</ele>
        <time>2021-12-24T14:54:55Z</time>
      </trkpt>
      <trkpt lat="46.31818" lon="-1.08591">
        <ele>-2.8</ele>
        <time>2021-12-24T14:54:56Z</time>
      </trkpt>
      <trkpt lat="46.31816" lon="-1.08585">
        <ele>-2.8</ele>
        <time>2021-12-24T14:54:57Z</time>
      </trkpt>
      <trkpt lat="46.31811" lon="-1.08574">
        <ele>-2.8</ele>
        <time>2021-12-24T14:54:59Z</time>
      </trkpt>
      <trkpt lat="46.31807" lon="-1.08563">
        <ele>-2.8</ele>
        <time>2021-12-24T14:55:01Z</time>
      </trkpt>
      <trkpt lat="46.31802" lon="-1.08552">
        <ele>-2.8</ele>
        <time>2021-12-24T14:55:03Z</time>
      </trkpt>
      <trkpt lat="46.31797" lon="-1.08541">
        <ele>-2.8</ele>
        <time>2021-12-24T14:55:05Z</time>
      </trkpt>
      <trkpt lat="46.31792" lon="-1.0853">
        <ele>-2.8</ele>
        <time>2021-12-24T14:55:07Z</time>
      </trkpt>
      <trkpt lat="46.31788" lon="-1.08519">
        <ele>-2.8</ele>
        <time>2021-12-24T14:55:09Z</time>
      </trkpt>
      <trkpt lat="46.31783" lon="-1.08508">
        <ele>-2.8</ele>
        <time>2021-12-24T14:55:11Z</time>
      </trkpt>
      <trkpt lat="46.31778" lon="-1.08497">
        <ele>-2.8</ele>
        <time>2021-12-24T14:55:13Z</time>
      </trkpt>
      <trkpt lat="46.31774" lon="-1.08485">
        <ele>-2.8</ele>
        <time>2021-12-24T14:55:15Z</time>
      </trkpt>
      <trkpt lat="46.31769" lon="-1.08473">
        <ele>-2.6</ele>
        <time>2021-12-24T14:55:17Z</time>
      </trkpt>
      <trkpt lat="46.31764" lon="-1.08461">
        <ele>-2.8</ele>
        <time>2021-12-24T14:55:19Z</time>
      </trkpt>
      <trkpt lat="46.31759" lon="-1.08449">
        <ele>-2.8</ele>
        <time>2021-12-24T14:55:21Z</time>
      </trkpt>
      <trkpt lat="46.31755" lon="-1.08436">
        <ele>-2.6</ele>
        <time>2021-12-24T14:55:23Z</time>
      </trkpt>
      <trkpt lat="46.31754" lon="-1.08423">
        <ele>-2.8</ele>
        <time>2021-12-24T14:55:25Z</time>
      </trkpt>
      <trkpt lat="46.31754" lon="-1.08416">
        <ele>-2.8</ele>
        <time>2021-12-24T14:55:26Z</time>
      </trkpt>
      <trkpt lat="46.31755" lon="-1.0841">
        <ele>-2.8</ele>
        <time>2021-12-24T14:55:27Z</time>
      </trkpt>
      <trkpt lat="46.31757" lon="-1.08397">
        <ele>-2.8</ele>
        <time>2021-12-24T14:55:29Z</time>
      </trkpt>
      <trkpt lat="46.31759" lon="-1.08384">
        <ele>-2.8</ele>
        <time>2021-12-24T14:55:31Z</time>
      </trkpt>
      <trkpt lat="46.3176" lon="-1.08371">
        <ele>-2.8</ele>
        <time>2021-12-24T14:55:33Z</time>
      </trkpt>
      <trkpt lat="46.31761" lon="-1.08357">
        <ele>-2.8</ele>
        <time>2021-12-24T14:55:35Z</time>
      </trkpt>
      <trkpt lat="46.31763" lon="-1.08343">
        <ele>-2.6</ele>
        <time>2021-12-24T14:55:37Z</time>
      </trkpt>
      <trkpt lat="46.31764" lon="-1.08329">
        <ele>-2.8</ele>
        <time>2021-12-24T14:55:39Z</time>
      </trkpt>
      <trkpt lat="46.31765" lon="-1.08322">
        <ele>-2.8</ele>
        <time>2021-12-24T14:55:40Z</time>
      </trkpt>
      <trkpt lat="46.31765" lon="-1.08316">
        <ele>-2.8</ele>
        <time>2021-12-24T14:55:41Z</time>
      </trkpt>
      <trkpt lat="46.31767" lon="-1.08304">
        <ele>-2.8</ele>
        <time>2021-12-24T14:55:43Z</time>
      </trkpt>
      <trkpt lat="46.31769" lon="-1.08295">
        <ele>-2.8</ele>
        <time>2021-12-24T14:55:45Z</time>
      </trkpt>
      <trkpt lat="46.31774" lon="-1.08292">
        <ele>-2.8</ele>
        <time>2021-12-24T14:55:47Z</time>
      </trkpt>
      <trkpt lat="46.31777" lon="-1.08292">
        <ele>-2.8</ele>
        <time>2021-12-24T14:55:48Z</time>
      </trkpt>
      <trkpt lat="46.3178" lon="-1.08294">
        <ele>-3</ele>
        <time>2021-12-24T14:55:49Z</time>
      </trkpt>
      <trkpt lat="46.31787" lon="-1.08296">
        <ele>-3.2</ele>
        <time>2021-12-24T14:55:51Z</time>
      </trkpt>
      <trkpt lat="46.31795" lon="-1.08295">
        <ele>-3.2</ele>
        <time>2021-12-24T14:55:53Z</time>
      </trkpt>
      <trkpt lat="46.31799" lon="-1.08296">
        <ele>-3.4</ele>
        <time>2021-12-24T14:55:54Z</time>
      </trkpt>
      <trkpt lat="46.31803" lon="-1.08295">
        <ele>-3.4</ele>
        <time>2021-12-24T14:55:55Z</time>
      </trkpt>
      <trkpt lat="46.31812" lon="-1.08293">
        <ele>-3.4</ele>
        <time>2021-12-24T14:55:57Z</time>
      </trkpt>
      <trkpt lat="46.3182" lon="-1.08291">
        <ele>-3.4</ele>
        <time>2021-12-24T14:55:59Z</time>
      </trkpt>
      <trkpt lat="46.31824" lon="-1.08285">
        <ele>-3.4</ele>
        <time>2021-12-24T14:56:01Z</time>
      </trkpt>
      <trkpt lat="46.31824" lon="-1.08283">
        <ele>-3.4</ele>
        <time>2021-12-24T14:56:02Z</time>
      </trkpt>
      <trkpt lat="46.31823" lon="-1.08281">
        <ele>-3.6</ele>
        <time>2021-12-24T14:56:03Z</time>
      </trkpt>
      <trkpt lat="46.31823" lon="-1.08281">
        <ele>-3.6</ele>
        <time>2021-12-24T14:56:05Z</time>
      </trkpt>
      <trkpt lat="46.31819" lon="-1.08278">
        <ele>-3.8</ele>
        <time>2021-12-24T14:56:21Z</time>
      </trkpt>
      <trkpt lat="46.31817" lon="-1.08277">
        <ele>-3.8</ele>
        <time>2021-12-24T14:56:22Z</time>
      </trkpt>
      <trkpt lat="46.31813" lon="-1.08276">
        <ele>-3.8</ele>
        <time>2021-12-24T14:56:23Z</time>
      </trkpt>
      <trkpt lat="46.31805" lon="-1.08276">
        <ele>-3.8</ele>
        <time>2021-12-24T14:56:25Z</time>
      </trkpt>
      <trkpt lat="46.31797" lon="-1.08276">
        <ele>-3.8</ele>
        <time>2021-12-24T14:56:27Z</time>
      </trkpt>
      <trkpt lat="46.31788" lon="-1.08277">
        <ele>-3.8</ele>
        <time>2021-12-24T14:56:29Z</time>
      </trkpt>
      <trkpt lat="46.3178" lon="-1.08277">
        <ele>-3.6</ele>
        <time>2021-12-24T14:56:31Z</time>
      </trkpt>
      <trkpt lat="46.31771" lon="-1.08277">
        <ele>-3.4</ele>
        <time>2021-12-24T14:56:33Z</time>
      </trkpt>
      <trkpt lat="46.31763" lon="-1.08278">
        <ele>-3.4</ele>
        <time>2021-12-24T14:56:35Z</time>
      </trkpt>
      <trkpt lat="46.31755" lon="-1.08279">
        <ele>-3.2</ele>
        <time>2021-12-24T14:56:37Z</time>
      </trkpt>
      <trkpt lat="46.31746" lon="-1.0828">
        <ele>-3.2</ele>
        <time>2021-12-24T14:56:39Z</time>
      </trkpt>
      <trkpt lat="46.31737" lon="-1.08281">
        <ele>-3</ele>
        <time>2021-12-24T14:56:41Z</time>
      </trkpt>
      <trkpt lat="46.31732" lon="-1.08281">
        <ele>-3</ele>
        <time>2021-12-24T14:56:42Z</time>
      </trkpt>
      <trkpt lat="46.31727" lon="-1.08281">
        <ele>-3</ele>
        <time>2021-12-24T14:56:43Z</time>
      </trkpt>
      <trkpt lat="46.31717" lon="-1.08282">
        <ele>-2.8</ele>
        <time>2021-12-24T14:56:45Z</time>
      </trkpt>
      <trkpt lat="46.31707" lon="-1.08284">
        <ele>-2.8</ele>
        <time>2021-12-24T14:56:47Z</time>
      </trkpt>
      <trkpt lat="46.31696" lon="-1.08285">
        <ele>-2.8</ele>
        <time>2021-12-24T14:56:49Z</time>
      </trkpt>
      <trkpt lat="46.31684" lon="-1.08285">
        <ele>-2.6</ele>
        <time>2021-12-24T14:56:51Z</time>
      </trkpt>
      <trkpt lat="46.31673" lon="-1.08286">
        <ele>-2.6</ele>
        <time>2021-12-24T14:56:53Z</time>
      </trkpt>
      <trkpt lat="46.31661" lon="-1.08286">
        <ele>-2.4</ele>
        <time>2021-12-24T14:56:55Z</time>
      </trkpt>
      <trkpt lat="46.3165" lon="-1.08288">
        <ele>-2.4</ele>
        <time>2021-12-24T14:56:57Z</time>
      </trkpt>
      <trkpt lat="46.31638" lon="-1.08288">
        <ele>-2.2</ele>
        <time>2021-12-24T14:56:59Z</time>
      </trkpt>
      <trkpt lat="46.31625" lon="-1.0829">
        <ele>-2.2</ele>
        <time>2021-12-24T14:57:01Z</time>
      </trkpt>
      <trkpt lat="46.31612" lon="-1.08291">
        <ele>-2</ele>
        <time>2021-12-24T14:57:03Z</time>
      </trkpt>
      <trkpt lat="46.31597" lon="-1.08292">
        <ele>-2</ele>
        <time>2021-12-24T14:57:05Z</time>
      </trkpt>
      <trkpt lat="46.31582" lon="-1.08293">
        <ele>-2</ele>
        <time>2021-12-24T14:57:07Z</time>
      </trkpt>
      <trkpt lat="46.31575" lon="-1.08293">
        <ele>-2</ele>
        <time>2021-12-24T14:57:08Z</time>
      </trkpt>
      <trkpt lat="46.31567" lon="-1.08294">
        <ele>-2</ele>
        <time>2021-12-24T14:57:09Z</time>
      </trkpt>
      <trkpt lat="46.31552" lon="-1.08295">
        <ele>-2</ele>
        <time>2021-12-24T14:57:11Z</time>
      </trkpt>
      <trkpt lat="46.31536" lon="-1.08296">
        <ele>-2</ele>
        <time>2021-12-24T14:57:13Z</time>
      </trkpt>
      <trkpt lat="46.31521" lon="-1.08297">
        <ele>-2.2</ele>
        <time>2021-12-24T14:57:15Z</time>
      </trkpt>
      <trkpt lat="46.31513" lon="-1.08298">
        <ele>-2.2</ele>
        <time>2021-12-24T14:57:16Z</time>
      </trkpt>
      <trkpt lat="46.31505" lon="-1.08299">
        <ele>-2.2</ele>
        <time>2021-12-24T14:57:17Z</time>
      </trkpt>
      <trkpt lat="46.31489" lon="-1.083">
        <ele>-2.2</ele>
        <time>2021-12-24T14:57:19Z</time>
      </trkpt>
      <trkpt lat="46.31474" lon="-1.08301">
        <ele>-2</ele>
        <time>2021-12-24T14:57:21Z</time>
      </trkpt>
      <trkpt lat="46.31459" lon="-1.08302">
        <ele>-2</ele>
        <time>2021-12-24T14:57:23Z</time>
      </trkpt>
      <trkpt lat="46.31444" lon="-1.08303">
        <ele>-2</ele>
        <time>2021-12-24T14:57:25Z</time>
      </trkpt>
      <trkpt lat="46.31436" lon="-1.08303">
        <ele>-2.2</ele>
        <time>2021-12-24T14:57:26Z</time>
      </trkpt>
      <trkpt lat="46.31429" lon="-1.08303">
        <ele>-2</ele>
        <time>2021-12-24T14:57:27Z</time>
      </trkpt>
      <trkpt lat="46.31414" lon="-1.08305">
        <ele>-2</ele>
        <time>2021-12-24T14:57:29Z</time>
      </trkpt>
      <trkpt lat="46.31398" lon="-1.08305">
        <ele>-2</ele>
        <time>2021-12-24T14:57:31Z</time>
      </trkpt>
      <trkpt lat="46.31383" lon="-1.08307">
        <ele>-2.2</ele>
        <time>2021-12-24T14:57:33Z</time>
      </trkpt>
      <trkpt lat="46.31376" lon="-1.08308">
        <ele>-2.2</ele>
        <time>2021-12-24T14:57:34Z</time>
      </trkpt>
      <trkpt lat="46.31368" lon="-1.08308">
        <ele>-2.2</ele>
        <time>2021-12-24T14:57:35Z</time>
      </trkpt>
      <trkpt lat="46.31353" lon="-1.08309">
        <ele>-2.2</ele>
        <time>2021-12-24T14:57:37Z</time>
      </trkpt>
      <trkpt lat="46.31338" lon="-1.08311">
        <ele>-2.2</ele>
        <time>2021-12-24T14:57:39Z</time>
      </trkpt>
      <trkpt lat="46.31323" lon="-1.08314">
        <ele>-2.2</ele>
        <time>2021-12-24T14:57:41Z</time>
      </trkpt>
      <trkpt lat="46.31309" lon="-1.08317">
        <ele>-2.2</ele>
        <time>2021-12-24T14:57:43Z</time>
      </trkpt>
      <trkpt lat="46.31295" lon="-1.0832">
        <ele>-2.2</ele>
        <time>2021-12-24T14:57:45Z</time>
      </trkpt>
      <trkpt lat="46.31282" lon="-1.08325">
        <ele>-2</ele>
        <time>2021-12-24T14:57:47Z</time>
      </trkpt>
      <trkpt lat="46.31269" lon="-1.0833">
        <ele>-2</ele>
        <time>2021-12-24T14:57:49Z</time>
      </trkpt>
      <trkpt lat="46.31255" lon="-1.08335">
        <ele>-2</ele>
        <time>2021-12-24T14:57:51Z</time>
      </trkpt>
      <trkpt lat="46.31249" lon="-1.08339">
        <ele>-2</ele>
        <time>2021-12-24T14:57:52Z</time>
      </trkpt>
      <trkpt lat="46.31242" lon="-1.08342">
        <ele>-2</ele>
        <time>2021-12-24T14:57:53Z</time>
      </trkpt>
      <trkpt lat="46.3123" lon="-1.08348">
        <ele>-2</ele>
        <time>2021-12-24T14:57:55Z</time>
      </trkpt>
      <trkpt lat="46.31216" lon="-1.08354">
        <ele>-2</ele>
        <time>2021-12-24T14:57:57Z</time>
      </trkpt>
      <trkpt lat="46.31203" lon="-1.08359">
        <ele>-2</ele>
        <time>2021-12-24T14:57:59Z</time>
      </trkpt>
      <trkpt lat="46.3119" lon="-1.08365">
        <ele>-1.8</ele>
        <time>2021-12-24T14:58:01Z</time>
      </trkpt>
      <trkpt lat="46.31177" lon="-1.08371">
        <ele>-2</ele>
        <time>2021-12-24T14:58:03Z</time>
      </trkpt>
      <trkpt lat="46.31165" lon="-1.08377">
        <ele>-2</ele>
        <time>2021-12-24T14:58:05Z</time>
      </trkpt>
      <trkpt lat="46.31151" lon="-1.08383">
        <ele>-2</ele>
        <time>2021-12-24T14:58:07Z</time>
      </trkpt>
      <trkpt lat="46.31138" lon="-1.08388">
        <ele>-2</ele>
        <time>2021-12-24T14:58:09Z</time>
      </trkpt>
      <trkpt lat="46.31126" lon="-1.08395">
        <ele>-2</ele>
        <time>2021-12-24T14:58:11Z</time>
      </trkpt>
      <trkpt lat="46.31113" lon="-1.08401">
        <ele>-2</ele>
        <time>2021-12-24T14:58:13Z</time>
      </trkpt>
      <trkpt lat="46.31106" lon="-1.08404">
        <ele>-2</ele>
        <time>2021-12-24T14:58:14Z</time>
      </trkpt>
      <trkpt lat="46.311" lon="-1.08407">
        <ele>-2</ele>
        <time>2021-12-24T14:58:15Z</time>
      </trkpt>
      <trkpt lat="46.31087" lon="-1.08413">
        <ele>-2</ele>
        <time>2021-12-24T14:58:17Z</time>
      </trkpt>
      <trkpt lat="46.31074" lon="-1.08421">
        <ele>-2</ele>
        <time>2021-12-24T14:58:19Z</time>
      </trkpt>
      <trkpt lat="46.31062" lon="-1.08429">
        <ele>-2</ele>
        <time>2021-12-24T14:58:21Z</time>
      </trkpt>
      <trkpt lat="46.31056" lon="-1.08433">
        <ele>-2</ele>
        <time>2021-12-24T14:58:22Z</time>
      </trkpt>
      <trkpt lat="46.3105" lon="-1.08437">
        <ele>-2</ele>
        <time>2021-12-24T14:58:23Z</time>
      </trkpt>
      <trkpt lat="46.31038" lon="-1.08445">
        <ele>-2</ele>
        <time>2021-12-24T14:58:25Z</time>
      </trkpt>
      <trkpt lat="46.31026" lon="-1.08454">
        <ele>-2</ele>
        <time>2021-12-24T14:58:27Z</time>
      </trkpt>
      <trkpt lat="46.31015" lon="-1.08464">
        <ele>-2</ele>
        <time>2021-12-24T14:58:29Z</time>
      </trkpt>
      <trkpt lat="46.31003" lon="-1.08474">
        <ele>-2</ele>
        <time>2021-12-24T14:58:31Z</time>
      </trkpt>
      <trkpt lat="46.30997" lon="-1.08479">
        <ele>-2</ele>
        <time>2021-12-24T14:58:32Z</time>
      </trkpt>
      <trkpt lat="46.30992" lon="-1.08484">
        <ele>-2</ele>
        <time>2021-12-24T14:58:33Z</time>
      </trkpt>
      <trkpt lat="46.30981" lon="-1.08494">
        <ele>-2</ele>
        <time>2021-12-24T14:58:35Z</time>
      </trkpt>
      <trkpt lat="46.3097" lon="-1.08503">
        <ele>-2</ele>
        <time>2021-12-24T14:58:37Z</time>
      </trkpt>
      <trkpt lat="46.30958" lon="-1.08513">
        <ele>-2</ele>
        <time>2021-12-24T14:58:39Z</time>
      </trkpt>
      <trkpt lat="46.30947" lon="-1.08524">
        <ele>-2</ele>
        <time>2021-12-24T14:58:41Z</time>
      </trkpt>
      <trkpt lat="46.30936" lon="-1.08535">
        <ele>-2</ele>
        <time>2021-12-24T14:58:43Z</time>
      </trkpt>
      <trkpt lat="46.30924" lon="-1.08545">
        <ele>-2.2</ele>
        <time>2021-12-24T14:58:45Z</time>
      </trkpt>
      <trkpt lat="46.30913" lon="-1.08555">
        <ele>-2.2</ele>
        <time>2021-12-24T14:58:47Z</time>
      </trkpt>
      <trkpt lat="46.30902" lon="-1.08565">
        <ele>-2.4</ele>
        <time>2021-12-24T14:58:49Z</time>
      </trkpt>
      <trkpt lat="46.3089" lon="-1.08575">
        <ele>-2.2</ele>
        <time>2021-12-24T14:58:51Z</time>
      </trkpt>
      <trkpt lat="46.30879" lon="-1.08585">
        <ele>-2.4</ele>
        <time>2021-12-24T14:58:53Z</time>
      </trkpt>
      <trkpt lat="46.30868" lon="-1.08595">
        <ele>-2.4</ele>
        <time>2021-12-24T14:58:55Z</time>
      </trkpt>
      <trkpt lat="46.30857" lon="-1.08605">
        <ele>-2.4</ele>
        <time>2021-12-24T14:58:57Z</time>
      </trkpt>
      <trkpt lat="46.30846" lon="-1.08613">
        <ele>-2.4</ele>
        <time>2021-12-24T14:58:59Z</time>
      </trkpt>
      <trkpt lat="46.30835" lon="-1.0862">
        <ele>-2.2</ele>
        <time>2021-12-24T14:59:01Z</time>
      </trkpt>
      <trkpt lat="46.30824" lon="-1.08629">
        <ele>-2.2</ele>
        <time>2021-12-24T14:59:03Z</time>
      </trkpt>
      <trkpt lat="46.30814" lon="-1.08637">
        <ele>-2.4</ele>
        <time>2021-12-24T14:59:05Z</time>
      </trkpt>
      <trkpt lat="46.30803" lon="-1.08644">
        <ele>-2.4</ele>
        <time>2021-12-24T14:59:07Z</time>
      </trkpt>
      <trkpt lat="46.30793" lon="-1.08651">
        <ele>-2.6</ele>
        <time>2021-12-24T14:59:09Z</time>
      </trkpt>
      <trkpt lat="46.30783" lon="-1.08658">
        <ele>-2.6</ele>
        <time>2021-12-24T14:59:11Z</time>
      </trkpt>
      <trkpt lat="46.30772" lon="-1.08664">
        <ele>-2.8</ele>
        <time>2021-12-24T14:59:13Z</time>
      </trkpt>
      <trkpt lat="46.30761" lon="-1.0867">
        <ele>-2.8</ele>
        <time>2021-12-24T14:59:15Z</time>
      </trkpt>
      <trkpt lat="46.30751" lon="-1.08677">
        <ele>-2.8</ele>
        <time>2021-12-24T14:59:17Z</time>
      </trkpt>
      <trkpt lat="46.3074" lon="-1.08684">
        <ele>-2.8</ele>
        <time>2021-12-24T14:59:19Z</time>
      </trkpt>
      <trkpt lat="46.30729" lon="-1.08691">
        <ele>-2.8</ele>
        <time>2021-12-24T14:59:21Z</time>
      </trkpt>
      <trkpt lat="46.30718" lon="-1.08697">
        <ele>-2.8</ele>
        <time>2021-12-24T14:59:23Z</time>
      </trkpt>
      <trkpt lat="46.30707" lon="-1.08704">
        <ele>-2.8</ele>
        <time>2021-12-24T14:59:25Z</time>
      </trkpt>
      <trkpt lat="46.30696" lon="-1.08711">
        <ele>-2.8</ele>
        <time>2021-12-24T14:59:27Z</time>
      </trkpt>
      <trkpt lat="46.30686" lon="-1.08717">
        <ele>-2.8</ele>
        <time>2021-12-24T14:59:29Z</time>
      </trkpt>
      <trkpt lat="46.3068" lon="-1.0872">
        <ele>-2.8</ele>
        <time>2021-12-24T14:59:30Z</time>
      </trkpt>
      <trkpt lat="46.30674" lon="-1.08724">
        <ele>-3</ele>
        <time>2021-12-24T14:59:31Z</time>
      </trkpt>
      <trkpt lat="46.30663" lon="-1.08731">
        <ele>-3</ele>
        <time>2021-12-24T14:59:33Z</time>
      </trkpt>
      <trkpt lat="46.30653" lon="-1.08738">
        <ele>-3</ele>
        <time>2021-12-24T14:59:35Z</time>
      </trkpt>
      <trkpt lat="46.30642" lon="-1.08745">
        <ele>-3.2</ele>
        <time>2021-12-24T14:59:37Z</time>
      </trkpt>
      <trkpt lat="46.30631" lon="-1.08751">
        <ele>-3.2</ele>
        <time>2021-12-24T14:59:39Z</time>
      </trkpt>
      <trkpt lat="46.30621" lon="-1.08757">
        <ele>-3.4</ele>
        <time>2021-12-24T14:59:41Z</time>
      </trkpt>
      <trkpt lat="46.30611" lon="-1.08763">
        <ele>-3.4</ele>
        <time>2021-12-24T14:59:43Z</time>
      </trkpt>
      <trkpt lat="46.306" lon="-1.08767">
        <ele>-3.2</ele>
        <time>2021-12-24T14:59:45Z</time>
      </trkpt>
      <trkpt lat="46.30596" lon="-1.08769">
        <ele>-3.2</ele>
        <time>2021-12-24T14:59:46Z</time>
      </trkpt>
      <trkpt lat="46.3059" lon="-1.0877">
        <ele>-3</ele>
        <time>2021-12-24T14:59:47Z</time>
      </trkpt>
      <trkpt lat="46.30581" lon="-1.08772">
        <ele>-3.2</ele>
        <time>2021-12-24T14:59:49Z</time>
      </trkpt>
      <trkpt lat="46.30571" lon="-1.08774">
        <ele>-3</ele>
        <time>2021-12-24T14:59:51Z</time>
      </trkpt>
      <trkpt lat="46.30561" lon="-1.08778">
        <ele>-3</ele>
        <time>2021-12-24T14:59:53Z</time>
      </trkpt>
      <trkpt lat="46.30557" lon="-1.0878">
        <ele>-2.8</ele>
        <time>2021-12-24T14:59:54Z</time>
      </trkpt>
      <trkpt lat="46.30552" lon="-1.08783">
        <ele>-2.8</ele>
        <time>2021-12-24T14:59:55Z</time>
      </trkpt>
      <trkpt lat="46.30549" lon="-1.08787">
        <ele>-2.8</ele>
        <time>2021-12-24T14:59:56Z</time>
      </trkpt>
      <trkpt lat="46.30547" lon="-1.08793">
        <ele>-2.8</ele>
        <time>2021-12-24T14:59:57Z</time>
      </trkpt>
      <trkpt lat="46.30544" lon="-1.08798">
        <ele>-2.8</ele>
        <time>2021-12-24T14:59:58Z</time>
      </trkpt>
      <trkpt lat="46.30541" lon="-1.08802">
        <ele>-2.8</ele>
        <time>2021-12-24T14:59:59Z</time>
      </trkpt>
      <trkpt lat="46.30534" lon="-1.08809">
        <ele>-2.6</ele>
        <time>2021-12-24T15:00:01Z</time>
      </trkpt>
      <trkpt lat="46.30531" lon="-1.08813">
        <ele>-2.6</ele>
        <time>2021-12-24T15:00:02Z</time>
      </trkpt>
      <trkpt lat="46.30528" lon="-1.08818">
        <ele>-2.6</ele>
        <time>2021-12-24T15:00:03Z</time>
      </trkpt>
      <trkpt lat="46.30525" lon="-1.08823">
        <ele>-2.6</ele>
        <time>2021-12-24T15:00:04Z</time>
      </trkpt>
      <trkpt lat="46.30523" lon="-1.08828">
        <ele>-2.6</ele>
        <time>2021-12-24T15:00:05Z</time>
      </trkpt>
      <trkpt lat="46.30519" lon="-1.0884">
        <ele>-2.6</ele>
        <time>2021-12-24T15:00:07Z</time>
      </trkpt>
      <trkpt lat="46.30516" lon="-1.08851">
        <ele>-2.4</ele>
        <time>2021-12-24T15:00:09Z</time>
      </trkpt>
      <trkpt lat="46.30513" lon="-1.08863">
        <ele>-2.2</ele>
        <time>2021-12-24T15:00:11Z</time>
      </trkpt>
      <trkpt lat="46.30512" lon="-1.08868">
        <ele>-2.2</ele>
        <time>2021-12-24T15:00:12Z</time>
      </trkpt>
      <trkpt lat="46.30511" lon="-1.08874">
        <ele>-2.2</ele>
        <time>2021-12-24T15:00:13Z</time>
      </trkpt>
      <trkpt lat="46.30511" lon="-1.08886">
        <ele>-2.2</ele>
        <time>2021-12-24T15:00:15Z</time>
      </trkpt>
      <trkpt lat="46.30512" lon="-1.08899">
        <ele>-2</ele>
        <time>2021-12-24T15:00:17Z</time>
      </trkpt>
      <trkpt lat="46.30512" lon="-1.08905">
        <ele>-2</ele>
        <time>2021-12-24T15:00:18Z</time>
      </trkpt>
      <trkpt lat="46.30513" lon="-1.08912">
        <ele>-2</ele>
        <time>2021-12-24T15:00:19Z</time>
      </trkpt>
      <trkpt lat="46.30514" lon="-1.08925">
        <ele>-2</ele>
        <time>2021-12-24T15:00:21Z</time>
      </trkpt>
      <trkpt lat="46.30515" lon="-1.08938">
        <ele>-1.8</ele>
        <time>2021-12-24T15:00:23Z</time>
      </trkpt>
      <trkpt lat="46.30517" lon="-1.08951">
        <ele>-1.8</ele>
        <time>2021-12-24T15:00:25Z</time>
      </trkpt>
      <trkpt lat="46.30518" lon="-1.08964">
        <ele>-1.8</ele>
        <time>2021-12-24T15:00:27Z</time>
      </trkpt>
      <trkpt lat="46.30519" lon="-1.08977">
        <ele>-1.8</ele>
        <time>2021-12-24T15:00:29Z</time>
      </trkpt>
      <trkpt lat="46.3052" lon="-1.08992">
        <ele>-1.8</ele>
        <time>2021-12-24T15:00:31Z</time>
      </trkpt>
      <trkpt lat="46.30521" lon="-1.09006">
        <ele>-1.8</ele>
        <time>2021-12-24T15:00:33Z</time>
      </trkpt>
      <trkpt lat="46.30522" lon="-1.0902">
        <ele>-1.8</ele>
        <time>2021-12-24T15:00:35Z</time>
      </trkpt>
      <trkpt lat="46.30523" lon="-1.09035">
        <ele>-1.8</ele>
        <time>2021-12-24T15:00:37Z</time>
      </trkpt>
      <trkpt lat="46.30524" lon="-1.09049">
        <ele>-1.8</ele>
        <time>2021-12-24T15:00:39Z</time>
      </trkpt>
      <trkpt lat="46.30525" lon="-1.09064">
        <ele>-1.8</ele>
        <time>2021-12-24T15:00:41Z</time>
      </trkpt>
      <trkpt lat="46.30526" lon="-1.0908">
        <ele>-1.8</ele>
        <time>2021-12-24T15:00:43Z</time>
      </trkpt>
      <trkpt lat="46.30526" lon="-1.09097">
        <ele>-1.6</ele>
        <time>2021-12-24T15:00:45Z</time>
      </trkpt>
      <trkpt lat="46.30527" lon="-1.09114">
        <ele>-1.6</ele>
        <time>2021-12-24T15:00:47Z</time>
      </trkpt>
      <trkpt lat="46.30527" lon="-1.09122">
        <ele>-1.6</ele>
        <time>2021-12-24T15:00:48Z</time>
      </trkpt>
      <trkpt lat="46.30527" lon="-1.0913">
        <ele>-1.6</ele>
        <time>2021-12-24T15:00:49Z</time>
      </trkpt>
      <trkpt lat="46.30525" lon="-1.09145">
        <ele>-1.6</ele>
        <time>2021-12-24T15:00:51Z</time>
      </trkpt>
      <trkpt lat="46.30524" lon="-1.09161">
        <ele>-1.4</ele>
        <time>2021-12-24T15:00:53Z</time>
      </trkpt>
      <trkpt lat="46.30523" lon="-1.09176">
        <ele>-1.4</ele>
        <time>2021-12-24T15:00:55Z</time>
      </trkpt>
      <trkpt lat="46.30521" lon="-1.09192">
        <ele>-1.2</ele>
        <time>2021-12-24T15:00:57Z</time>
      </trkpt>
      <trkpt lat="46.30518" lon="-1.09208">
        <ele>-1.2</ele>
        <time>2021-12-24T15:00:59Z</time>
      </trkpt>
      <trkpt lat="46.30516" lon="-1.09223">
        <ele>-1</ele>
        <time>2021-12-24T15:01:01Z</time>
      </trkpt>
      <trkpt lat="46.30515" lon="-1.09231">
        <ele>-1</ele>
        <time>2021-12-24T15:01:02Z</time>
      </trkpt>
      <trkpt lat="46.30513" lon="-1.09239">
        <ele>-1</ele>
        <time>2021-12-24T15:01:03Z</time>
      </trkpt>
      <trkpt lat="46.30511" lon="-1.09255">
        <ele>-1</ele>
        <time>2021-12-24T15:01:05Z</time>
      </trkpt>
      <trkpt lat="46.30509" lon="-1.09271">
        <ele>-1</ele>
        <time>2021-12-24T15:01:07Z</time>
      </trkpt>
      <trkpt lat="46.30508" lon="-1.09287">
        <ele>-1</ele>
        <time>2021-12-24T15:01:09Z</time>
      </trkpt>
      <trkpt lat="46.30508" lon="-1.09305">
        <ele>-1.2</ele>
        <time>2021-12-24T15:01:11Z</time>
      </trkpt>
      <trkpt lat="46.30508" lon="-1.09314">
        <ele>-1.2</ele>
        <time>2021-12-24T15:01:12Z</time>
      </trkpt>
      <trkpt lat="46.30509" lon="-1.09324">
        <ele>-1</ele>
        <time>2021-12-24T15:01:13Z</time>
      </trkpt>
      <trkpt lat="46.30509" lon="-1.09343">
        <ele>-1</ele>
        <time>2021-12-24T15:01:15Z</time>
      </trkpt>
      <trkpt lat="46.30511" lon="-1.09362">
        <ele>-0.80000000000001</ele>
        <time>2021-12-24T15:01:17Z</time>
      </trkpt>
      <trkpt lat="46.30511" lon="-1.09383">
        <ele>-0.80000000000001</ele>
        <time>2021-12-24T15:01:19Z</time>
      </trkpt>
      <trkpt lat="46.30511" lon="-1.09405">
        <ele>-0.80000000000001</ele>
        <time>2021-12-24T15:01:21Z</time>
      </trkpt>
      <trkpt lat="46.30509" lon="-1.09425">
        <ele>-0.80000000000001</ele>
        <time>2021-12-24T15:01:23Z</time>
      </trkpt>
      <trkpt lat="46.30507" lon="-1.09435">
        <ele>-0.80000000000001</ele>
        <time>2021-12-24T15:01:24Z</time>
      </trkpt>
      <trkpt lat="46.30505" lon="-1.09445">
        <ele>-0.80000000000001</ele>
        <time>2021-12-24T15:01:25Z</time>
      </trkpt>
      <trkpt lat="46.305" lon="-1.09464">
        <ele>-0.60000000000002</ele>
        <time>2021-12-24T15:01:27Z</time>
      </trkpt>
      <trkpt lat="46.30496" lon="-1.09472">
        <ele>-0.60000000000002</ele>
        <time>2021-12-24T15:01:28Z</time>
      </trkpt>
      <trkpt lat="46.30491" lon="-1.09478">
        <ele>-0.60000000000002</ele>
        <time>2021-12-24T15:01:29Z</time>
      </trkpt>
      <trkpt lat="46.30479" lon="-1.09486">
        <ele>-0.60000000000002</ele>
        <time>2021-12-24T15:01:31Z</time>
      </trkpt>
      <trkpt lat="46.30473" lon="-1.09489">
        <ele>-0.60000000000002</ele>
        <time>2021-12-24T15:01:32Z</time>
      </trkpt>
      <trkpt lat="46.30466" lon="-1.09492">
        <ele>-0.60000000000002</ele>
        <time>2021-12-24T15:01:33Z</time>
      </trkpt>
      <trkpt lat="46.30454" lon="-1.09494">
        <ele>-0.60000000000002</ele>
        <time>2021-12-24T15:01:35Z</time>
      </trkpt>
      <trkpt lat="46.30448" lon="-1.09496">
        <ele>-0.39999999999998</ele>
        <time>2021-12-24T15:01:36Z</time>
      </trkpt>
      <trkpt lat="46.30442" lon="-1.09497">
        <ele>-0.39999999999998</ele>
        <time>2021-12-24T15:01:37Z</time>
      </trkpt>
      <trkpt lat="46.3043" lon="-1.095">
        <ele>-0.39999999999998</ele>
        <time>2021-12-24T15:01:39Z</time>
      </trkpt>
      <trkpt lat="46.30418" lon="-1.09503">
        <ele>-0.19999999999999</ele>
        <time>2021-12-24T15:01:41Z</time>
      </trkpt>
      <trkpt lat="46.30407" lon="-1.09506">
        <ele>-0.19999999999999</ele>
        <time>2021-12-24T15:01:43Z</time>
      </trkpt>
      <trkpt lat="46.30395" lon="-1.09509">
        <ele>-0.19999999999999</ele>
        <time>2021-12-24T15:01:45Z</time>
      </trkpt>
      <trkpt lat="46.30384" lon="-1.09512">
        <ele>-0.19999999999999</ele>
        <time>2021-12-24T15:01:47Z</time>
      </trkpt>
      <trkpt lat="46.30372" lon="-1.09515">
        <ele>-0.19999999999999</ele>
        <time>2021-12-24T15:01:49Z</time>
      </trkpt>
      <trkpt lat="46.30361" lon="-1.09518">
        <ele>-0.19999999999999</ele>
        <time>2021-12-24T15:01:51Z</time>
      </trkpt>
      <trkpt lat="46.30349" lon="-1.09521">
        <ele>-0.19999999999999</ele>
        <time>2021-12-24T15:01:53Z</time>
      </trkpt>
      <trkpt lat="46.30338" lon="-1.09524">
        <ele>-0.19999999999999</ele>
        <time>2021-12-24T15:01:55Z</time>
      </trkpt>
      <trkpt lat="46.30327" lon="-1.09527">
        <ele>-0.19999999999999</ele>
        <time>2021-12-24T15:01:57Z</time>
      </trkpt>
      <trkpt lat="46.30315" lon="-1.0953">
        <ele>-0.19999999999999</ele>
        <time>2021-12-24T15:01:59Z</time>
      </trkpt>
      <trkpt lat="46.30302" lon="-1.09533">
        <ele>-0.19999999999999</ele>
        <time>2021-12-24T15:02:01Z</time>
      </trkpt>
      <trkpt lat="46.30296" lon="-1.09534">
        <ele>-0.19999999999999</ele>
        <time>2021-12-24T15:02:02Z</time>
      </trkpt>
      <trkpt lat="46.3029" lon="-1.09536">
        <ele>-0.19999999999999</ele>
        <time>2021-12-24T15:02:03Z</time>
      </trkpt>
      <trkpt lat="46.30278" lon="-1.09539">
        <ele>-0.19999999999999</ele>
        <time>2021-12-24T15:02:05Z</time>
      </trkpt>
      <trkpt lat="46.30266" lon="-1.09542">
        <ele>-0.19999999999999</ele>
        <time>2021-12-24T15:02:07Z</time>
      </trkpt>
      <trkpt lat="46.30255" lon="-1.09545">
        <ele>-0.19999999999999</ele>
        <time>2021-12-24T15:02:09Z</time>
      </trkpt>
      <trkpt lat="46.30243" lon="-1.09548">
        <ele>-0.19999999999999</ele>
        <time>2021-12-24T15:02:11Z</time>
      </trkpt>
      <trkpt lat="46.30237" lon="-1.0955">
        <ele>0.19999999999999</ele>
        <time>2021-12-24T15:02:12Z</time>
      </trkpt>
      <trkpt lat="46.30231" lon="-1.09551">
        <ele>0.19999999999999</ele>
        <time>2021-12-24T15:02:13Z</time>
      </trkpt>
      <trkpt lat="46.3022" lon="-1.09555">
        <ele>0.19999999999999</ele>
        <time>2021-12-24T15:02:15Z</time>
      </trkpt>
      <trkpt lat="46.30209" lon="-1.09558">
        <ele>0.19999999999999</ele>
        <time>2021-12-24T15:02:17Z</time>
      </trkpt>
      <trkpt lat="46.30197" lon="-1.09562">
        <ele>0.19999999999999</ele>
        <time>2021-12-24T15:02:19Z</time>
      </trkpt>
      <trkpt lat="46.30186" lon="-1.09565">
        <ele>0.19999999999999</ele>
        <time>2021-12-24T15:02:21Z</time>
      </trkpt>
      <trkpt lat="46.30175" lon="-1.09569">
        <ele>0.19999999999999</ele>
        <time>2021-12-24T15:02:23Z</time>
      </trkpt>
      <trkpt lat="46.30165" lon="-1.09572">
        <ele>0.19999999999999</ele>
        <time>2021-12-24T15:02:25Z</time>
      </trkpt>
      <trkpt lat="46.30155" lon="-1.09576">
        <ele>0.19999999999999</ele>
        <time>2021-12-24T15:02:27Z</time>
      </trkpt>
      <trkpt lat="46.30145" lon="-1.0958">
        <ele>0.19999999999999</ele>
        <time>2021-12-24T15:02:29Z</time>
      </trkpt>
      <trkpt lat="46.30135" lon="-1.09584">
        <ele>0.19999999999999</ele>
        <time>2021-12-24T15:02:31Z</time>
      </trkpt>
      <trkpt lat="46.30125" lon="-1.09587">
        <ele>0.19999999999999</ele>
        <time>2021-12-24T15:02:33Z</time>
      </trkpt>
      <trkpt lat="46.30113" lon="-1.0959">
        <ele>0.19999999999999</ele>
        <time>2021-12-24T15:02:35Z</time>
      </trkpt>
      <trkpt lat="46.30102" lon="-1.09594">
        <ele>0.19999999999999</ele>
        <time>2021-12-24T15:02:37Z</time>
      </trkpt>
      <trkpt lat="46.3009" lon="-1.09598">
        <ele>0.19999999999999</ele>
        <time>2021-12-24T15:02:39Z</time>
      </trkpt>
      <trkpt lat="46.30079" lon="-1.09602">
        <ele>-0.19999999999999</ele>
        <time>2021-12-24T15:02:41Z</time>
      </trkpt>
      <trkpt lat="46.30067" lon="-1.09609">
        <ele>-0.19999999999999</ele>
        <time>2021-12-24T15:02:43Z</time>
      </trkpt>
      <trkpt lat="46.30061" lon="-1.09612">
        <ele>-0.39999999999998</ele>
        <time>2021-12-24T15:02:44Z</time>
      </trkpt>
      <trkpt lat="46.30055" lon="-1.09615">
        <ele>-0.39999999999998</ele>
        <time>2021-12-24T15:02:45Z</time>
      </trkpt>
      <trkpt lat="46.3005" lon="-1.09617">
        <ele>-0.39999999999998</ele>
        <time>2021-12-24T15:02:46Z</time>
      </trkpt>
      <trkpt lat="46.30043" lon="-1.09619">
        <ele>-0.39999999999998</ele>
        <time>2021-12-24T15:02:47Z</time>
      </trkpt>
      <trkpt lat="46.30031" lon="-1.09621">
        <ele>-0.39999999999998</ele>
        <time>2021-12-24T15:02:49Z</time>
      </trkpt>
      <trkpt lat="46.30026" lon="-1.09622">
        <ele>-0.60000000000002</ele>
        <time>2021-12-24T15:02:50Z</time>
      </trkpt>
      <trkpt lat="46.3002" lon="-1.09623">
        <ele>-0.60000000000002</ele>
        <time>2021-12-24T15:02:51Z</time>
      </trkpt>
      <trkpt lat="46.30009" lon="-1.09625">
        <ele>-0.60000000000002</ele>
        <time>2021-12-24T15:02:53Z</time>
      </trkpt>
      <trkpt lat="46.29998" lon="-1.09629">
        <ele>-0.80000000000001</ele>
        <time>2021-12-24T15:02:55Z</time>
      </trkpt>
      <trkpt lat="46.29987" lon="-1.09632">
        <ele>-1</ele>
        <time>2021-12-24T15:02:57Z</time>
      </trkpt>
      <trkpt lat="46.29976" lon="-1.09636">
        <ele>-1</ele>
        <time>2021-12-24T15:02:59Z</time>
      </trkpt>
      <trkpt lat="46.29965" lon="-1.0964">
        <ele>-1.2</ele>
        <time>2021-12-24T15:03:01Z</time>
      </trkpt>
      <trkpt lat="46.29954" lon="-1.09646">
        <ele>-1.2</ele>
        <time>2021-12-24T15:03:03Z</time>
      </trkpt>
      <trkpt lat="46.29949" lon="-1.09649">
        <ele>-1.4</ele>
        <time>2021-12-24T15:03:04Z</time>
      </trkpt>
      <trkpt lat="46.29943" lon="-1.09652">
        <ele>-1.4</ele>
        <time>2021-12-24T15:03:05Z</time>
      </trkpt>
      <trkpt lat="46.29932" lon="-1.09659">
        <ele>-1.4</ele>
        <time>2021-12-24T15:03:07Z</time>
      </trkpt>
      <trkpt lat="46.29922" lon="-1.09667">
        <ele>-1.4</ele>
        <time>2021-12-24T15:03:09Z</time>
      </trkpt>
      <trkpt lat="46.29912" lon="-1.09677">
        <ele>-1.6</ele>
        <time>2021-12-24T15:03:11Z</time>
      </trkpt>
      <trkpt lat="46.29903" lon="-1.09687">
        <ele>-1.6</ele>
        <time>2021-12-24T15:03:13Z</time>
      </trkpt>
      <trkpt lat="46.29894" lon="-1.09697">
        <ele>-1.8</ele>
        <time>2021-12-24T15:03:15Z</time>
      </trkpt>
      <trkpt lat="46.29886" lon="-1.09709">
        <ele>-1.8</ele>
        <time>2021-12-24T15:03:17Z</time>
      </trkpt>
      <trkpt lat="46.29878" lon="-1.09722">
        <ele>-2</ele>
        <time>2021-12-24T15:03:19Z</time>
      </trkpt>
      <trkpt lat="46.29872" lon="-1.09736">
        <ele>-2</ele>
        <time>2021-12-24T15:03:21Z</time>
      </trkpt>
      <trkpt lat="46.29865" lon="-1.0975">
        <ele>-2</ele>
        <time>2021-12-24T15:03:23Z</time>
      </trkpt>
      <trkpt lat="46.29862" lon="-1.09757">
        <ele>-2</ele>
        <time>2021-12-24T15:03:24Z</time>
      </trkpt>
      <trkpt lat="46.29859" lon="-1.09765">
        <ele>-2</ele>
        <time>2021-12-24T15:03:25Z</time>
      </trkpt>
      <trkpt lat="46.29853" lon="-1.0978">
        <ele>-2</ele>
        <time>2021-12-24T15:03:27Z</time>
      </trkpt>
      <trkpt lat="46.29847" lon="-1.09795">
        <ele>-2</ele>
        <time>2021-12-24T15:03:29Z</time>
      </trkpt>
      <trkpt lat="46.29841" lon="-1.0981">
        <ele>-2.2</ele>
        <time>2021-12-24T15:03:31Z</time>
      </trkpt>
      <trkpt lat="46.29836" lon="-1.09825">
        <ele>-2.2</ele>
        <time>2021-12-24T15:03:33Z</time>
      </trkpt>
      <trkpt lat="46.29833" lon="-1.09833">
        <ele>-2.2</ele>
        <time>2021-12-24T15:03:34Z</time>
      </trkpt>
      <trkpt lat="46.2983" lon="-1.09841">
        <ele>-2.2</ele>
        <time>2021-12-24T15:03:35Z</time>
      </trkpt>
      <trkpt lat="46.29824" lon="-1.09855">
        <ele>-2.2</ele>
        <time>2021-12-24T15:03:37Z</time>
      </trkpt>
      <trkpt lat="46.29818" lon="-1.09869">
        <ele>-2.2</ele>
        <time>2021-12-24T15:03:39Z</time>
      </trkpt>
      <trkpt lat="46.29813" lon="-1.09884">
        <ele>-2.2</ele>
        <time>2021-12-24T15:03:41Z</time>
      </trkpt>
      <trkpt lat="46.29807" lon="-1.09898">
        <ele>-2.2</ele>
        <time>2021-12-24T15:03:43Z</time>
      </trkpt>
      <trkpt lat="46.29802" lon="-1.09912">
        <ele>-2.4</ele>
        <time>2021-12-24T15:03:45Z</time>
      </trkpt>
      <trkpt lat="46.29796" lon="-1.09928">
        <ele>-2.4</ele>
        <time>2021-12-24T15:03:47Z</time>
      </trkpt>
      <trkpt lat="46.29791" lon="-1.09943">
        <ele>-2.4</ele>
        <time>2021-12-24T15:03:49Z</time>
      </trkpt>
      <trkpt lat="46.29785" lon="-1.09958">
        <ele>-2.4</ele>
        <time>2021-12-24T15:03:51Z</time>
      </trkpt>
      <trkpt lat="46.29779" lon="-1.09974">
        <ele>-2.4</ele>
        <time>2021-12-24T15:03:53Z</time>
      </trkpt>
      <trkpt lat="46.29773" lon="-1.09989">
        <ele>-2.4</ele>
        <time>2021-12-24T15:03:55Z</time>
      </trkpt>
      <trkpt lat="46.29768" lon="-1.10005">
        <ele>-2.6</ele>
        <time>2021-12-24T15:03:57Z</time>
      </trkpt>
      <trkpt lat="46.29762" lon="-1.1002">
        <ele>-2.6</ele>
        <time>2021-12-24T15:03:59Z</time>
      </trkpt>
      <trkpt lat="46.29759" lon="-1.10027">
        <ele>-2.6</ele>
        <time>2021-12-24T15:04:00Z</time>
      </trkpt>
      <trkpt lat="46.29757" lon="-1.10034">
        <ele>-2.6</ele>
        <time>2021-12-24T15:04:01Z</time>
      </trkpt>
      <trkpt lat="46.29751" lon="-1.1005">
        <ele>-2.6</ele>
        <time>2021-12-24T15:04:03Z</time>
      </trkpt>
      <trkpt lat="46.29746" lon="-1.10065">
        <ele>-2.6</ele>
        <time>2021-12-24T15:04:05Z</time>
      </trkpt>
      <trkpt lat="46.2974" lon="-1.1008">
        <ele>-2.6</ele>
        <time>2021-12-24T15:04:07Z</time>
      </trkpt>
      <trkpt lat="46.29735" lon="-1.10095">
        <ele>-2.6</ele>
        <time>2021-12-24T15:04:09Z</time>
      </trkpt>
      <trkpt lat="46.29729" lon="-1.10111">
        <ele>-2.6</ele>
        <time>2021-12-24T15:04:11Z</time>
      </trkpt>
      <trkpt lat="46.29724" lon="-1.10127">
        <ele>-2.6</ele>
        <time>2021-12-24T15:04:13Z</time>
      </trkpt>
      <trkpt lat="46.29718" lon="-1.10142">
        <ele>-2.6</ele>
        <time>2021-12-24T15:04:15Z</time>
      </trkpt>
      <trkpt lat="46.29715" lon="-1.1015">
        <ele>-2.6</ele>
        <time>2021-12-24T15:04:16Z</time>
      </trkpt>
      <trkpt lat="46.29712" lon="-1.10157">
        <ele>-2.6</ele>
        <time>2021-12-24T15:04:17Z</time>
      </trkpt>
      <trkpt lat="46.29707" lon="-1.10172">
        <ele>-2.6</ele>
        <time>2021-12-24T15:04:19Z</time>
      </trkpt>
      <trkpt lat="46.29701" lon="-1.10186">
        <ele>-2.6</ele>
        <time>2021-12-24T15:04:21Z</time>
      </trkpt>
      <trkpt lat="46.29696" lon="-1.10201">
        <ele>-2.6</ele>
        <time>2021-12-24T15:04:23Z</time>
      </trkpt>
      <trkpt lat="46.29694" lon="-1.10208">
        <ele>-2.6</ele>
        <time>2021-12-24T15:04:24Z</time>
      </trkpt>
      <trkpt lat="46.29691" lon="-1.10216">
        <ele>-2.6</ele>
        <time>2021-12-24T15:04:25Z</time>
      </trkpt>
      <trkpt lat="46.29686" lon="-1.1023">
        <ele>-2.6</ele>
        <time>2021-12-24T15:04:27Z</time>
      </trkpt>
      <trkpt lat="46.2968" lon="-1.10245">
        <ele>-2.6</ele>
        <time>2021-12-24T15:04:29Z</time>
      </trkpt>
      <trkpt lat="46.29678" lon="-1.10252">
        <ele>-2.6</ele>
        <time>2021-12-24T15:04:30Z</time>
      </trkpt>
      <trkpt lat="46.29675" lon="-1.1026">
        <ele>-2.6</ele>
        <time>2021-12-24T15:04:31Z</time>
      </trkpt>
      <trkpt lat="46.2967" lon="-1.10275">
        <ele>-2.8</ele>
        <time>2021-12-24T15:04:33Z</time>
      </trkpt>
      <trkpt lat="46.29664" lon="-1.10291">
        <ele>-2.8</ele>
        <time>2021-12-24T15:04:35Z</time>
      </trkpt>
      <trkpt lat="46.29658" lon="-1.10307">
        <ele>-2.8</ele>
        <time>2021-12-24T15:04:37Z</time>
      </trkpt>
      <trkpt lat="46.29656" lon="-1.10314">
        <ele>-2.8</ele>
        <time>2021-12-24T15:04:38Z</time>
      </trkpt>
      <trkpt lat="46.29653" lon="-1.10322">
        <ele>-2.8</ele>
        <time>2021-12-24T15:04:39Z</time>
      </trkpt>
      <trkpt lat="46.29648" lon="-1.10336">
        <ele>-2.8</ele>
        <time>2021-12-24T15:04:41Z</time>
      </trkpt>
      <trkpt lat="46.29643" lon="-1.10351">
        <ele>-2.8</ele>
        <time>2021-12-24T15:04:43Z</time>
      </trkpt>
      <trkpt lat="46.29638" lon="-1.10366">
        <ele>-3</ele>
        <time>2021-12-24T15:04:45Z</time>
      </trkpt>
      <trkpt lat="46.29633" lon="-1.10381">
        <ele>-3</ele>
        <time>2021-12-24T15:04:47Z</time>
      </trkpt>
      <trkpt lat="46.29627" lon="-1.10396">
        <ele>-3</ele>
        <time>2021-12-24T15:04:49Z</time>
      </trkpt>
      <trkpt lat="46.29622" lon="-1.10411">
        <ele>-3</ele>
        <time>2021-12-24T15:04:51Z</time>
      </trkpt>
      <trkpt lat="46.29616" lon="-1.10427">
        <ele>-3.2</ele>
        <time>2021-12-24T15:04:53Z</time>
      </trkpt>
      <trkpt lat="46.2961" lon="-1.10441">
        <ele>-3.2</ele>
        <time>2021-12-24T15:04:55Z</time>
      </trkpt>
      <trkpt lat="46.29607" lon="-1.10448">
        <ele>-3.2</ele>
        <time>2021-12-24T15:04:56Z</time>
      </trkpt>
      <trkpt lat="46.29604" lon="-1.10455">
        <ele>-3.4</ele>
        <time>2021-12-24T15:04:57Z</time>
      </trkpt>
      <trkpt lat="46.29599" lon="-1.10471">
        <ele>-3.4</ele>
        <time>2021-12-24T15:04:59Z</time>
      </trkpt>
      <trkpt lat="46.29593" lon="-1.10485">
        <ele>-3.4</ele>
        <time>2021-12-24T15:05:01Z</time>
      </trkpt>
      <trkpt lat="46.29587" lon="-1.10499">
        <ele>-3.4</ele>
        <time>2021-12-24T15:05:03Z</time>
      </trkpt>
      <trkpt lat="46.29584" lon="-1.10507">
        <ele>-3.4</ele>
        <time>2021-12-24T15:05:04Z</time>
      </trkpt>
      <trkpt lat="46.29581" lon="-1.10514">
        <ele>-3.6</ele>
        <time>2021-12-24T15:05:05Z</time>
      </trkpt>
      <trkpt lat="46.29575" lon="-1.10529">
        <ele>-3.6</ele>
        <time>2021-12-24T15:05:07Z</time>
      </trkpt>
      <trkpt lat="46.29569" lon="-1.10544">
        <ele>-3.8</ele>
        <time>2021-12-24T15:05:09Z</time>
      </trkpt>
      <trkpt lat="46.29564" lon="-1.10558">
        <ele>-3.6</ele>
        <time>2021-12-24T15:05:11Z</time>
      </trkpt>
      <trkpt lat="46.29561" lon="-1.10565">
        <ele>-3.6</ele>
        <time>2021-12-24T15:05:12Z</time>
      </trkpt>
      <trkpt lat="46.29558" lon="-1.10572">
        <ele>-3.6</ele>
        <time>2021-12-24T15:05:13Z</time>
      </trkpt>
      <trkpt lat="46.29553" lon="-1.10585">
        <ele>-3.6</ele>
        <time>2021-12-24T15:05:15Z</time>
      </trkpt>
      <trkpt lat="46.29547" lon="-1.10597">
        <ele>-3.6</ele>
        <time>2021-12-24T15:05:17Z</time>
      </trkpt>
      <trkpt lat="46.29543" lon="-1.1061">
        <ele>-3.6</ele>
        <time>2021-12-24T15:05:19Z</time>
      </trkpt>
      <trkpt lat="46.29537" lon="-1.10618">
        <ele>-3</ele>
        <time>2021-12-24T15:05:21Z</time>
      </trkpt>
      <trkpt lat="46.29532" lon="-1.10628">
        <ele>-3.2</ele>
        <time>2021-12-24T15:05:23Z</time>
      </trkpt>
      <trkpt lat="46.29528" lon="-1.10638">
        <ele>-3.2</ele>
        <time>2021-12-24T15:05:25Z</time>
      </trkpt>
      <trkpt lat="46.29526" lon="-1.10643">
        <ele>-3.2</ele>
        <time>2021-12-24T15:05:26Z</time>
      </trkpt>
      <trkpt lat="46.29524" lon="-1.10647">
        <ele>-3.2</ele>
        <time>2021-12-24T15:05:27Z</time>
      </trkpt>
      <trkpt lat="46.2952" lon="-1.10656">
        <ele>-3.2</ele>
        <time>2021-12-24T15:05:29Z</time>
      </trkpt>
      <trkpt lat="46.29516" lon="-1.10665">
        <ele>-3.2</ele>
        <time>2021-12-24T15:05:31Z</time>
      </trkpt>
      <trkpt lat="46.29513" lon="-1.10675">
        <ele>-3.2</ele>
        <time>2021-12-24T15:05:33Z</time>
      </trkpt>
      <trkpt lat="46.29509" lon="-1.10687">
        <ele>-3</ele>
        <time>2021-12-24T15:05:35Z</time>
      </trkpt>
      <trkpt lat="46.29504" lon="-1.10701">
        <ele>-3.2</ele>
        <time>2021-12-24T15:05:37Z</time>
      </trkpt>
      <trkpt lat="46.29502" lon="-1.10709">
        <ele>-3.2</ele>
        <time>2021-12-24T15:05:38Z</time>
      </trkpt>
      <trkpt lat="46.295" lon="-1.10717">
        <ele>-3.2</ele>
        <time>2021-12-24T15:05:39Z</time>
      </trkpt>
      <trkpt lat="46.29497" lon="-1.10724">
        <ele>-3.2</ele>
        <time>2021-12-24T15:05:40Z</time>
      </trkpt>
      <trkpt lat="46.29494" lon="-1.10731">
        <ele>-3.2</ele>
        <time>2021-12-24T15:05:41Z</time>
      </trkpt>
      <trkpt lat="46.29489" lon="-1.10736">
        <ele>-3.2</ele>
        <time>2021-12-24T15:05:42Z</time>
      </trkpt>
      <trkpt lat="46.29484" lon="-1.10739">
        <ele>-3.2</ele>
        <time>2021-12-24T15:05:43Z</time>
      </trkpt>
      <trkpt lat="46.29478" lon="-1.10741">
        <ele>-3.2</ele>
        <time>2021-12-24T15:05:44Z</time>
      </trkpt>
      <trkpt lat="46.29472" lon="-1.10742">
        <ele>-3.2</ele>
        <time>2021-12-24T15:05:45Z</time>
      </trkpt>
      <trkpt lat="46.29466" lon="-1.10741">
        <ele>-3.2</ele>
        <time>2021-12-24T15:05:46Z</time>
      </trkpt>
      <trkpt lat="46.2946" lon="-1.1074">
        <ele>-3.2</ele>
        <time>2021-12-24T15:05:47Z</time>
      </trkpt>
      <trkpt lat="46.29454" lon="-1.10737">
        <ele>-3.2</ele>
        <time>2021-12-24T15:05:48Z</time>
      </trkpt>
      <trkpt lat="46.29448" lon="-1.10734">
        <ele>-3.2</ele>
        <time>2021-12-24T15:05:49Z</time>
      </trkpt>
      <trkpt lat="46.29437" lon="-1.10728">
        <ele>-3.2</ele>
        <time>2021-12-24T15:05:51Z</time>
      </trkpt>
      <trkpt lat="46.29427" lon="-1.10719">
        <ele>-3.2</ele>
        <time>2021-12-24T15:05:53Z</time>
      </trkpt>
      <trkpt lat="46.29418" lon="-1.10708">
        <ele>-3.2</ele>
        <time>2021-12-24T15:05:55Z</time>
      </trkpt>
      <trkpt lat="46.29414" lon="-1.10703">
        <ele>-3.2</ele>
        <time>2021-12-24T15:05:56Z</time>
      </trkpt>
      <trkpt lat="46.29411" lon="-1.10697">
        <ele>-3.2</ele>
        <time>2021-12-24T15:05:57Z</time>
      </trkpt>
      <trkpt lat="46.29404" lon="-1.10684">
        <ele>-3.2</ele>
        <time>2021-12-24T15:05:59Z</time>
      </trkpt>
      <trkpt lat="46.29396" lon="-1.10673">
        <ele>-3.2</ele>
        <time>2021-12-24T15:06:01Z</time>
      </trkpt>
      <trkpt lat="46.29392" lon="-1.10667">
        <ele>-3.2</ele>
        <time>2021-12-24T15:06:02Z</time>
      </trkpt>
      <trkpt lat="46.29389" lon="-1.10661">
        <ele>-3.2</ele>
        <time>2021-12-24T15:06:03Z</time>
      </trkpt>
      <trkpt lat="46.29383" lon="-1.10652">
        <ele>-3.2</ele>
        <time>2021-12-24T15:06:05Z</time>
      </trkpt>
      <trkpt lat="46.29374" lon="-1.10646">
        <ele>-3</ele>
        <time>2021-12-24T15:06:07Z</time>
      </trkpt>
      <trkpt lat="46.29365" lon="-1.10642">
        <ele>-3</ele>
        <time>2021-12-24T15:06:09Z</time>
      </trkpt>
      <trkpt lat="46.2936" lon="-1.10641">
        <ele>-3</ele>
        <time>2021-12-24T15:06:10Z</time>
      </trkpt>
      <trkpt lat="46.29355" lon="-1.1064">
        <ele>-3</ele>
        <time>2021-12-24T15:06:11Z</time>
      </trkpt>
      <trkpt lat="46.29351" lon="-1.1064">
        <ele>-3</ele>
        <time>2021-12-24T15:06:12Z</time>
      </trkpt>
      <trkpt lat="46.29346" lon="-1.10638">
        <ele>-2.8</ele>
        <time>2021-12-24T15:06:13Z</time>
      </trkpt>
      <trkpt lat="46.29342" lon="-1.10635">
        <ele>-2.8</ele>
        <time>2021-12-24T15:06:14Z</time>
      </trkpt>
      <trkpt lat="46.29338" lon="-1.10632">
        <ele>-2.8</ele>
        <time>2021-12-24T15:06:15Z</time>
      </trkpt>
      <trkpt lat="46.29328" lon="-1.10626">
        <ele>-2.8</ele>
        <time>2021-12-24T15:06:17Z</time>
      </trkpt>
      <trkpt lat="46.29324" lon="-1.10624">
        <ele>-2.8</ele>
        <time>2021-12-24T15:06:18Z</time>
      </trkpt>
      <trkpt lat="46.29319" lon="-1.10621">
        <ele>-2.8</ele>
        <time>2021-12-24T15:06:19Z</time>
      </trkpt>
      <trkpt lat="46.2931" lon="-1.10615">
        <ele>-2.8</ele>
        <time>2021-12-24T15:06:21Z</time>
      </trkpt>
      <trkpt lat="46.29305" lon="-1.10612">
        <ele>-2.8</ele>
        <time>2021-12-24T15:06:22Z</time>
      </trkpt>
      <trkpt lat="46.29299" lon="-1.1061">
        <ele>-2.8</ele>
        <time>2021-12-24T15:06:23Z</time>
      </trkpt>
      <trkpt lat="46.29289" lon="-1.10604">
        <ele>-2.8</ele>
        <time>2021-12-24T15:06:25Z</time>
      </trkpt>
      <trkpt lat="46.29278" lon="-1.10599">
        <ele>-2.8</ele>
        <time>2021-12-24T15:06:27Z</time>
      </trkpt>
      <trkpt lat="46.29268" lon="-1.10592">
        <ele>-2.8</ele>
        <time>2021-12-24T15:06:29Z</time>
      </trkpt>
      <trkpt lat="46.29258" lon="-1.10586">
        <ele>-2.8</ele>
        <time>2021-12-24T15:06:31Z</time>
      </trkpt>
      <trkpt lat="46.29248" lon="-1.1058">
        <ele>-3</ele>
        <time>2021-12-24T15:06:33Z</time>
      </trkpt>
      <trkpt lat="46.29239" lon="-1.10574">
        <ele>-3</ele>
        <time>2021-12-24T15:06:35Z</time>
      </trkpt>
      <trkpt lat="46.29235" lon="-1.1057">
        <ele>-3</ele>
        <time>2021-12-24T15:06:36Z</time>
      </trkpt>
      <trkpt lat="46.2923" lon="-1.10567">
        <ele>-3</ele>
        <time>2021-12-24T15:06:37Z</time>
      </trkpt>
      <trkpt lat="46.29219" lon="-1.10561">
        <ele>-3</ele>
        <time>2021-12-24T15:06:39Z</time>
      </trkpt>
      <trkpt lat="46.29208" lon="-1.10555">
        <ele>-3</ele>
        <time>2021-12-24T15:06:41Z</time>
      </trkpt>
      <trkpt lat="46.29197" lon="-1.10551">
        <ele>-3</ele>
        <time>2021-12-24T15:06:43Z</time>
      </trkpt>
      <trkpt lat="46.29186" lon="-1.10548">
        <ele>-3</ele>
        <time>2021-12-24T15:06:45Z</time>
      </trkpt>
      <trkpt lat="46.29175" lon="-1.10544">
        <ele>-3</ele>
        <time>2021-12-24T15:06:47Z</time>
      </trkpt>
      <trkpt lat="46.29165" lon="-1.1054">
        <ele>-3</ele>
        <time>2021-12-24T15:06:49Z</time>
      </trkpt>
      <trkpt lat="46.29154" lon="-1.10536">
        <ele>-3</ele>
        <time>2021-12-24T15:06:51Z</time>
      </trkpt>
      <trkpt lat="46.29143" lon="-1.10532">
        <ele>-2.8</ele>
        <time>2021-12-24T15:06:53Z</time>
      </trkpt>
      <trkpt lat="46.29133" lon="-1.10528">
        <ele>-2.8</ele>
        <time>2021-12-24T15:06:55Z</time>
      </trkpt>
      <trkpt lat="46.29122" lon="-1.10525">
        <ele>-2.8</ele>
        <time>2021-12-24T15:06:57Z</time>
      </trkpt>
      <trkpt lat="46.29117" lon="-1.10523">
        <ele>-2.8</ele>
        <time>2021-12-24T15:06:58Z</time>
      </trkpt>
      <trkpt lat="46.29112" lon="-1.10522">
        <ele>-2.8</ele>
        <time>2021-12-24T15:06:59Z</time>
      </trkpt>
      <trkpt lat="46.29102" lon="-1.10516">
        <ele>-2.8</ele>
        <time>2021-12-24T15:07:01Z</time>
      </trkpt>
      <trkpt lat="46.29093" lon="-1.10509">
        <ele>-2.8</ele>
        <time>2021-12-24T15:07:03Z</time>
      </trkpt>
      <trkpt lat="46.29083" lon="-1.10504">
        <ele>-3</ele>
        <time>2021-12-24T15:07:05Z</time>
      </trkpt>
      <trkpt lat="46.29078" lon="-1.10502">
        <ele>-3</ele>
        <time>2021-12-24T15:07:06Z</time>
      </trkpt>
      <trkpt lat="46.29072" lon="-1.10501">
        <ele>-3</ele>
        <time>2021-12-24T15:07:07Z</time>
      </trkpt>
      <trkpt lat="46.29067" lon="-1.105">
        <ele>-3</ele>
        <time>2021-12-24T15:07:08Z</time>
      </trkpt>
      <trkpt lat="46.29062" lon="-1.10498">
        <ele>-3</ele>
        <time>2021-12-24T15:07:09Z</time>
      </trkpt>
      <trkpt lat="46.2905" lon="-1.10492">
        <ele>-3</ele>
        <time>2021-12-24T15:07:11Z</time>
      </trkpt>
      <trkpt lat="46.29039" lon="-1.10487">
        <ele>-3</ele>
        <time>2021-12-24T15:07:13Z</time>
      </trkpt>
      <trkpt lat="46.29027" lon="-1.10481">
        <ele>-3.2</ele>
        <time>2021-12-24T15:07:15Z</time>
      </trkpt>
      <trkpt lat="46.29021" lon="-1.10478">
        <ele>-3.2</ele>
        <time>2021-12-24T15:07:16Z</time>
      </trkpt>
      <trkpt lat="46.29015" lon="-1.10475">
        <ele>-3.2</ele>
        <time>2021-12-24T15:07:17Z</time>
      </trkpt>
      <trkpt lat="46.29003" lon="-1.1047">
        <ele>-3.2</ele>
        <time>2021-12-24T15:07:19Z</time>
      </trkpt>
      <trkpt lat="46.28991" lon="-1.10464">
        <ele>-3.2</ele>
        <time>2021-12-24T15:07:21Z</time>
      </trkpt>
      <trkpt lat="46.2898" lon="-1.10458">
        <ele>-3.2</ele>
        <time>2021-12-24T15:07:23Z</time>
      </trkpt>
      <trkpt lat="46.28974" lon="-1.10455">
        <ele>-3.2</ele>
        <time>2021-12-24T15:07:24Z</time>
      </trkpt>
      <trkpt lat="46.28968" lon="-1.10452">
        <ele>-3.2</ele>
        <time>2021-12-24T15:07:25Z</time>
      </trkpt>
      <trkpt lat="46.28956" lon="-1.10447">
        <ele>-3.2</ele>
        <time>2021-12-24T15:07:27Z</time>
      </trkpt>
      <trkpt lat="46.28944" lon="-1.1044">
        <ele>-3.2</ele>
        <time>2021-12-24T15:07:29Z</time>
      </trkpt>
      <trkpt lat="46.28932" lon="-1.10434">
        <ele>-3</ele>
        <time>2021-12-24T15:07:31Z</time>
      </trkpt>
      <trkpt lat="46.2892" lon="-1.10431">
        <ele>-3</ele>
        <time>2021-12-24T15:07:33Z</time>
      </trkpt>
      <trkpt lat="46.28908" lon="-1.1043">
        <ele>-3</ele>
        <time>2021-12-24T15:07:35Z</time>
      </trkpt>
      <trkpt lat="46.28902" lon="-1.1043">
        <ele>-3</ele>
        <time>2021-12-24T15:07:36Z</time>
      </trkpt>
      <trkpt lat="46.28896" lon="-1.1043">
        <ele>-3</ele>
        <time>2021-12-24T15:07:37Z</time>
      </trkpt>
      <trkpt lat="46.28885" lon="-1.10432">
        <ele>-2.8</ele>
        <time>2021-12-24T15:07:39Z</time>
      </trkpt>
      <trkpt lat="46.28879" lon="-1.10434">
        <ele>-3</ele>
        <time>2021-12-24T15:07:40Z</time>
      </trkpt>
      <trkpt lat="46.28874" lon="-1.10436">
        <ele>-2.8</ele>
        <time>2021-12-24T15:07:41Z</time>
      </trkpt>
      <trkpt lat="46.28868" lon="-1.10439">
        <ele>-3</ele>
        <time>2021-12-24T15:07:42Z</time>
      </trkpt>
      <trkpt lat="46.28863" lon="-1.10442">
        <ele>-3</ele>
        <time>2021-12-24T15:07:43Z</time>
      </trkpt>
      <trkpt lat="46.28852" lon="-1.10449">
        <ele>-3</ele>
        <time>2021-12-24T15:07:45Z</time>
      </trkpt>
      <trkpt lat="46.28842" lon="-1.10456">
        <ele>-3</ele>
        <time>2021-12-24T15:07:47Z</time>
      </trkpt>
      <trkpt lat="46.28832" lon="-1.10464">
        <ele>-3.2</ele>
        <time>2021-12-24T15:07:49Z</time>
      </trkpt>
      <trkpt lat="46.28827" lon="-1.10468">
        <ele>-3.2</ele>
        <time>2021-12-24T15:07:50Z</time>
      </trkpt>
      <trkpt lat="46.28823" lon="-1.10472">
        <ele>-3.2</ele>
        <time>2021-12-24T15:07:51Z</time>
      </trkpt>
      <trkpt lat="46.28813" lon="-1.1048">
        <ele>-3.2</ele>
        <time>2021-12-24T15:07:53Z</time>
      </trkpt>
      <trkpt lat="46.28804" lon="-1.10488">
        <ele>-3.2</ele>
        <time>2021-12-24T15:07:55Z</time>
      </trkpt>
      <trkpt lat="46.28794" lon="-1.10496">
        <ele>-3.2</ele>
        <time>2021-12-24T15:07:57Z</time>
      </trkpt>
      <trkpt lat="46.28785" lon="-1.10504">
        <ele>-3.2</ele>
        <time>2021-12-24T15:07:59Z</time>
      </trkpt>
      <trkpt lat="46.28776" lon="-1.10511">
        <ele>-3</ele>
        <time>2021-12-24T15:08:01Z</time>
      </trkpt>
      <trkpt lat="46.28766" lon="-1.10518">
        <ele>-3</ele>
        <time>2021-12-24T15:08:03Z</time>
      </trkpt>
      <trkpt lat="46.28756" lon="-1.10524">
        <ele>-3.2</ele>
        <time>2021-12-24T15:08:05Z</time>
      </trkpt>
      <trkpt lat="46.28746" lon="-1.1053">
        <ele>-3.2</ele>
        <time>2021-12-24T15:08:07Z</time>
      </trkpt>
      <trkpt lat="46.28735" lon="-1.10534">
        <ele>-3.2</ele>
        <time>2021-12-24T15:08:09Z</time>
      </trkpt>
      <trkpt lat="46.28724" lon="-1.10539">
        <ele>-3.2</ele>
        <time>2021-12-24T15:08:11Z</time>
      </trkpt>
      <trkpt lat="46.28713" lon="-1.10543">
        <ele>-3.2</ele>
        <time>2021-12-24T15:08:13Z</time>
      </trkpt>
      <trkpt lat="46.28701" lon="-1.10545">
        <ele>-3.2</ele>
        <time>2021-12-24T15:08:15Z</time>
      </trkpt>
      <trkpt lat="46.2869" lon="-1.10548">
        <ele>-3.2</ele>
        <time>2021-12-24T15:08:17Z</time>
      </trkpt>
      <trkpt lat="46.28678" lon="-1.10551">
        <ele>-3.2</ele>
        <time>2021-12-24T15:08:19Z</time>
      </trkpt>
      <trkpt lat="46.28672" lon="-1.10553">
        <ele>-3.2</ele>
        <time>2021-12-24T15:08:20Z</time>
      </trkpt>
      <trkpt lat="46.28666" lon="-1.10555">
        <ele>-3.2</ele>
        <time>2021-12-24T15:08:21Z</time>
      </trkpt>
      <trkpt lat="46.28654" lon="-1.10558">
        <ele>-3.2</ele>
        <time>2021-12-24T15:08:23Z</time>
      </trkpt>
      <trkpt lat="46.28643" lon="-1.10561">
        <ele>-3.2</ele>
        <time>2021-12-24T15:08:25Z</time>
      </trkpt>
      <trkpt lat="46.28631" lon="-1.10564">
        <ele>-3.2</ele>
        <time>2021-12-24T15:08:27Z</time>
      </trkpt>
      <trkpt lat="46.28619" lon="-1.10567">
        <ele>-3.2</ele>
        <time>2021-12-24T15:08:29Z</time>
      </trkpt>
      <trkpt lat="46.28607" lon="-1.1057">
        <ele>-3.2</ele>
        <time>2021-12-24T15:08:31Z</time>
      </trkpt>
      <trkpt lat="46.28594" lon="-1.10573">
        <ele>-3.2</ele>
        <time>2021-12-24T15:08:33Z</time>
      </trkpt>
      <trkpt lat="46.28582" lon="-1.10577">
        <ele>-3.2</ele>
        <time>2021-12-24T15:08:35Z</time>
      </trkpt>
      <trkpt lat="46.2857" lon="-1.10579">
        <ele>-3.2</ele>
        <time>2021-12-24T15:08:37Z</time>
      </trkpt>
      <trkpt lat="46.28558" lon="-1.10582">
        <ele>-3.2</ele>
        <time>2021-12-24T15:08:39Z</time>
      </trkpt>
      <trkpt lat="46.28547" lon="-1.10585">
        <ele>-3.4</ele>
        <time>2021-12-24T15:08:41Z</time>
      </trkpt>
      <trkpt lat="46.28535" lon="-1.10588">
        <ele>-3.4</ele>
        <time>2021-12-24T15:08:43Z</time>
      </trkpt>
      <trkpt lat="46.28523" lon="-1.10591">
        <ele>-3.2</ele>
        <time>2021-12-24T15:08:45Z</time>
      </trkpt>
      <trkpt lat="46.28511" lon="-1.10594">
        <ele>-3.2</ele>
        <time>2021-12-24T15:08:47Z</time>
      </trkpt>
      <trkpt lat="46.285" lon="-1.10597">
        <ele>-3.4</ele>
        <time>2021-12-24T15:08:49Z</time>
      </trkpt>
      <trkpt lat="46.28488" lon="-1.10601">
        <ele>-3.4</ele>
        <time>2021-12-24T15:08:51Z</time>
      </trkpt>
      <trkpt lat="46.28476" lon="-1.10603">
        <ele>-3.4</ele>
        <time>2021-12-24T15:08:53Z</time>
      </trkpt>
      <trkpt lat="46.28464" lon="-1.10606">
        <ele>-3.4</ele>
        <time>2021-12-24T15:08:55Z</time>
      </trkpt>
      <trkpt lat="46.28453" lon="-1.10609">
        <ele>-3.4</ele>
        <time>2021-12-24T15:08:57Z</time>
      </trkpt>
      <trkpt lat="46.28447" lon="-1.1061">
        <ele>-3.4</ele>
        <time>2021-12-24T15:08:58Z</time>
      </trkpt>
      <trkpt lat="46.28441" lon="-1.10612">
        <ele>-3.4</ele>
        <time>2021-12-24T15:08:59Z</time>
      </trkpt>
      <trkpt lat="46.28429" lon="-1.10615">
        <ele>-3.4</ele>
        <time>2021-12-24T15:09:01Z</time>
      </trkpt>
      <trkpt lat="46.28418" lon="-1.10617">
        <ele>-3.4</ele>
        <time>2021-12-24T15:09:03Z</time>
      </trkpt>
      <trkpt lat="46.28407" lon="-1.10621">
        <ele>-3.4</ele>
        <time>2021-12-24T15:09:05Z</time>
      </trkpt>
      <trkpt lat="46.28395" lon="-1.10623">
        <ele>-3.4</ele>
        <time>2021-12-24T15:09:07Z</time>
      </trkpt>
      <trkpt lat="46.28383" lon="-1.10626">
        <ele>-3.4</ele>
        <time>2021-12-24T15:09:09Z</time>
      </trkpt>
      <trkpt lat="46.28372" lon="-1.1063">
        <ele>-3.4</ele>
        <time>2021-12-24T15:09:11Z</time>
      </trkpt>
      <trkpt lat="46.2836" lon="-1.10632">
        <ele>-3.4</ele>
        <time>2021-12-24T15:09:13Z</time>
      </trkpt>
      <trkpt lat="46.28349" lon="-1.10635">
        <ele>-3.4</ele>
        <time>2021-12-24T15:09:15Z</time>
      </trkpt>
      <trkpt lat="46.28337" lon="-1.10638">
        <ele>-3.4</ele>
        <time>2021-12-24T15:09:17Z</time>
      </trkpt>
      <trkpt lat="46.28326" lon="-1.10641">
        <ele>-3.4</ele>
        <time>2021-12-24T15:09:19Z</time>
      </trkpt>
      <trkpt lat="46.2832" lon="-1.10642">
        <ele>-3.6</ele>
        <time>2021-12-24T15:09:20Z</time>
      </trkpt>
      <trkpt lat="46.28314" lon="-1.10644">
        <ele>-3.6</ele>
        <time>2021-12-24T15:09:21Z</time>
      </trkpt>
      <trkpt lat="46.28303" lon="-1.10647">
        <ele>-3.4</ele>
        <time>2021-12-24T15:09:23Z</time>
      </trkpt>
      <trkpt lat="46.28291" lon="-1.1065">
        <ele>-3.4</ele>
        <time>2021-12-24T15:09:25Z</time>
      </trkpt>
      <trkpt lat="46.2828" lon="-1.10653">
        <ele>-3.4</ele>
        <time>2021-12-24T15:09:27Z</time>
      </trkpt>
      <trkpt lat="46.28268" lon="-1.10656">
        <ele>-3.4</ele>
        <time>2021-12-24T15:09:29Z</time>
      </trkpt>
      <trkpt lat="46.28255" lon="-1.10658">
        <ele>-3.4</ele>
        <time>2021-12-24T15:09:31Z</time>
      </trkpt>
      <trkpt lat="46.28243" lon="-1.10661">
        <ele>-3.4</ele>
        <time>2021-12-24T15:09:33Z</time>
      </trkpt>
      <trkpt lat="46.28231" lon="-1.10664">
        <ele>-3.4</ele>
        <time>2021-12-24T15:09:35Z</time>
      </trkpt>
      <trkpt lat="46.2822" lon="-1.10667">
        <ele>-3.4</ele>
        <time>2021-12-24T15:09:37Z</time>
      </trkpt>
      <trkpt lat="46.28208" lon="-1.1067">
        <ele>-3.4</ele>
        <time>2021-12-24T15:09:39Z</time>
      </trkpt>
      <trkpt lat="46.28195" lon="-1.10673">
        <ele>-3.6</ele>
        <time>2021-12-24T15:09:41Z</time>
      </trkpt>
      <trkpt lat="46.28183" lon="-1.10676">
        <ele>-3.6</ele>
        <time>2021-12-24T15:09:43Z</time>
      </trkpt>
      <trkpt lat="46.28172" lon="-1.10679">
        <ele>-3.6</ele>
        <time>2021-12-24T15:09:45Z</time>
      </trkpt>
      <trkpt lat="46.2816" lon="-1.10682">
        <ele>-3.4</ele>
        <time>2021-12-24T15:09:47Z</time>
      </trkpt>
      <trkpt lat="46.28148" lon="-1.10685">
        <ele>-3.4</ele>
        <time>2021-12-24T15:09:49Z</time>
      </trkpt>
      <trkpt lat="46.28137" lon="-1.10688">
        <ele>-3.4</ele>
        <time>2021-12-24T15:09:51Z</time>
      </trkpt>
      <trkpt lat="46.28131" lon="-1.10689">
        <ele>-3.4</ele>
        <time>2021-12-24T15:09:52Z</time>
      </trkpt>
      <trkpt lat="46.28125" lon="-1.10691">
        <ele>-3.4</ele>
        <time>2021-12-24T15:09:53Z</time>
      </trkpt>
      <trkpt lat="46.28114" lon="-1.10694">
        <ele>-3.4</ele>
        <time>2021-12-24T15:09:55Z</time>
      </trkpt>
      <trkpt lat="46.28102" lon="-1.10696">
        <ele>-3.2</ele>
        <time>2021-12-24T15:09:57Z</time>
      </trkpt>
      <trkpt lat="46.28091" lon="-1.107">
        <ele>-3.4</ele>
        <time>2021-12-24T15:09:59Z</time>
      </trkpt>
      <trkpt lat="46.2808" lon="-1.10703">
        <ele>-3.4</ele>
        <time>2021-12-24T15:10:01Z</time>
      </trkpt>
      <trkpt lat="46.28075" lon="-1.10704">
        <ele>-3.4</ele>
        <time>2021-12-24T15:10:02Z</time>
      </trkpt>
      <trkpt lat="46.28069" lon="-1.10705">
        <ele>-3.2</ele>
        <time>2021-12-24T15:10:03Z</time>
      </trkpt>
      <trkpt lat="46.28058" lon="-1.10709">
        <ele>-3.2</ele>
        <time>2021-12-24T15:10:05Z</time>
      </trkpt>
      <trkpt lat="46.28047" lon="-1.10712">
        <ele>-3.2</ele>
        <time>2021-12-24T15:10:07Z</time>
      </trkpt>
      <trkpt lat="46.28035" lon="-1.10715">
        <ele>-3.4</ele>
        <time>2021-12-24T15:10:09Z</time>
      </trkpt>
      <trkpt lat="46.28024" lon="-1.10719">
        <ele>-3.4</ele>
        <time>2021-12-24T15:10:11Z</time>
      </trkpt>
      <trkpt lat="46.28013" lon="-1.10723">
        <ele>-3.4</ele>
        <time>2021-12-24T15:10:13Z</time>
      </trkpt>
      <trkpt lat="46.28007" lon="-1.10725">
        <ele>-3.4</ele>
        <time>2021-12-24T15:10:14Z</time>
      </trkpt>
      <trkpt lat="46.28002" lon="-1.10727">
        <ele>-3.4</ele>
        <time>2021-12-24T15:10:15Z</time>
      </trkpt>
      <trkpt lat="46.27991" lon="-1.10731">
        <ele>-3.4</ele>
        <time>2021-12-24T15:10:17Z</time>
      </trkpt>
      <trkpt lat="46.27979" lon="-1.10734">
        <ele>-3.4</ele>
        <time>2021-12-24T15:10:19Z</time>
      </trkpt>
      <trkpt lat="46.27968" lon="-1.10738">
        <ele>-3.4</ele>
        <time>2021-12-24T15:10:21Z</time>
      </trkpt>
      <trkpt lat="46.27957" lon="-1.10742">
        <ele>-3.6</ele>
        <time>2021-12-24T15:10:23Z</time>
      </trkpt>
      <trkpt lat="46.27946" lon="-1.10746">
        <ele>-3.6</ele>
        <time>2021-12-24T15:10:25Z</time>
      </trkpt>
      <trkpt lat="46.27935" lon="-1.10749">
        <ele>-3.6</ele>
        <time>2021-12-24T15:10:27Z</time>
      </trkpt>
      <trkpt lat="46.27923" lon="-1.10753">
        <ele>-3.4</ele>
        <time>2021-12-24T15:10:29Z</time>
      </trkpt>
      <trkpt lat="46.27912" lon="-1.10757">
        <ele>-3.4</ele>
        <time>2021-12-24T15:10:31Z</time>
      </trkpt>
      <trkpt lat="46.279" lon="-1.10761">
        <ele>-3.4</ele>
        <time>2021-12-24T15:10:33Z</time>
      </trkpt>
      <trkpt lat="46.27889" lon="-1.10765">
        <ele>-3.4</ele>
        <time>2021-12-24T15:10:35Z</time>
      </trkpt>
      <trkpt lat="46.27884" lon="-1.10768">
        <ele>-3.6</ele>
        <time>2021-12-24T15:10:36Z</time>
      </trkpt>
      <trkpt lat="46.27878" lon="-1.10771">
        <ele>-3.6</ele>
        <time>2021-12-24T15:10:37Z</time>
      </trkpt>
      <trkpt lat="46.27867" lon="-1.10775">
        <ele>-3.6</ele>
        <time>2021-12-24T15:10:39Z</time>
      </trkpt>
      <trkpt lat="46.27855" lon="-1.10777">
        <ele>-3.6</ele>
        <time>2021-12-24T15:10:41Z</time>
      </trkpt>
      <trkpt lat="46.27844" lon="-1.1078">
        <ele>-3.6</ele>
        <time>2021-12-24T15:10:43Z</time>
      </trkpt>
      <trkpt lat="46.27833" lon="-1.10781">
        <ele>-3.6</ele>
        <time>2021-12-24T15:10:45Z</time>
      </trkpt>
      <trkpt lat="46.27821" lon="-1.10781">
        <ele>-3.6</ele>
        <time>2021-12-24T15:10:47Z</time>
      </trkpt>
      <trkpt lat="46.2781" lon="-1.1078">
        <ele>-3.4</ele>
        <time>2021-12-24T15:10:49Z</time>
      </trkpt>
      <trkpt lat="46.27798" lon="-1.10778">
        <ele>-3.4</ele>
        <time>2021-12-24T15:10:51Z</time>
      </trkpt>
      <trkpt lat="46.27786" lon="-1.10775">
        <ele>-3.4</ele>
        <time>2021-12-24T15:10:53Z</time>
      </trkpt>
      <trkpt lat="46.27775" lon="-1.10773">
        <ele>-3.4</ele>
        <time>2021-12-24T15:10:55Z</time>
      </trkpt>
      <trkpt lat="46.27764" lon="-1.1077">
        <ele>-3.4</ele>
        <time>2021-12-24T15:10:57Z</time>
      </trkpt>
      <trkpt lat="46.27752" lon="-1.10768">
        <ele>-3.4</ele>
        <time>2021-12-24T15:10:59Z</time>
      </trkpt>
      <trkpt lat="46.27741" lon="-1.10765">
        <ele>-3.4</ele>
        <time>2021-12-24T15:11:01Z</time>
      </trkpt>
      <trkpt lat="46.2773" lon="-1.10762">
        <ele>-3.4</ele>
        <time>2021-12-24T15:11:03Z</time>
      </trkpt>
      <trkpt lat="46.27718" lon="-1.1076">
        <ele>-3.4</ele>
        <time>2021-12-24T15:11:05Z</time>
      </trkpt>
      <trkpt lat="46.27707" lon="-1.10757">
        <ele>-3.4</ele>
        <time>2021-12-24T15:11:07Z</time>
      </trkpt>
      <trkpt lat="46.27695" lon="-1.10754">
        <ele>-3.4</ele>
        <time>2021-12-24T15:11:09Z</time>
      </trkpt>
      <trkpt lat="46.27689" lon="-1.10753">
        <ele>-3.4</ele>
        <time>2021-12-24T15:11:10Z</time>
      </trkpt>
      <trkpt lat="46.27683" lon="-1.10752">
        <ele>-3.4</ele>
        <time>2021-12-24T15:11:11Z</time>
      </trkpt>
      <trkpt lat="46.27673" lon="-1.10749">
        <ele>-3.4</ele>
        <time>2021-12-24T15:11:13Z</time>
      </trkpt>
      <trkpt lat="46.27662" lon="-1.10747">
        <ele>-3.4</ele>
        <time>2021-12-24T15:11:15Z</time>
      </trkpt>
      <trkpt lat="46.27651" lon="-1.10745">
        <ele>-3.4</ele>
        <time>2021-12-24T15:11:17Z</time>
      </trkpt>
      <trkpt lat="46.2764" lon="-1.10742">
        <ele>-3.2</ele>
        <time>2021-12-24T15:11:19Z</time>
      </trkpt>
      <trkpt lat="46.27629" lon="-1.1074">
        <ele>-3.2</ele>
        <time>2021-12-24T15:11:21Z</time>
      </trkpt>
      <trkpt lat="46.27617" lon="-1.10737">
        <ele>-3.2</ele>
        <time>2021-12-24T15:11:23Z</time>
      </trkpt>
      <trkpt lat="46.27607" lon="-1.10735">
        <ele>-3.4</ele>
        <time>2021-12-24T15:11:25Z</time>
      </trkpt>
      <trkpt lat="46.27595" lon="-1.10732">
        <ele>-3.4</ele>
        <time>2021-12-24T15:11:27Z</time>
      </trkpt>
      <trkpt lat="46.27584" lon="-1.10729">
        <ele>-3.4</ele>
        <time>2021-12-24T15:11:29Z</time>
      </trkpt>
      <trkpt lat="46.27573" lon="-1.10727">
        <ele>-3.2</ele>
        <time>2021-12-24T15:11:31Z</time>
      </trkpt>
      <trkpt lat="46.27562" lon="-1.10724">
        <ele>-3.2</ele>
        <time>2021-12-24T15:11:33Z</time>
      </trkpt>
      <trkpt lat="46.2755" lon="-1.10722">
        <ele>-3.4</ele>
        <time>2021-12-24T15:11:35Z</time>
      </trkpt>
      <trkpt lat="46.27539" lon="-1.1072">
        <ele>-3.2</ele>
        <time>2021-12-24T15:11:37Z</time>
      </trkpt>
      <trkpt lat="46.27527" lon="-1.10718">
        <ele>-3.2</ele>
        <time>2021-12-24T15:11:39Z</time>
      </trkpt>
      <trkpt lat="46.27515" lon="-1.10715">
        <ele>-3.4</ele>
        <time>2021-12-24T15:11:41Z</time>
      </trkpt>
      <trkpt lat="46.27503" lon="-1.10712">
        <ele>-3.2</ele>
        <time>2021-12-24T15:11:43Z</time>
      </trkpt>
      <trkpt lat="46.27491" lon="-1.1071">
        <ele>-3.4</ele>
        <time>2021-12-24T15:11:45Z</time>
      </trkpt>
      <trkpt lat="46.27479" lon="-1.10707">
        <ele>-3.2</ele>
        <time>2021-12-24T15:11:47Z</time>
      </trkpt>
      <trkpt lat="46.27466" lon="-1.10704">
        <ele>-3.2</ele>
        <time>2021-12-24T15:11:49Z</time>
      </trkpt>
      <trkpt lat="46.27455" lon="-1.10701">
        <ele>-3.2</ele>
        <time>2021-12-24T15:11:51Z</time>
      </trkpt>
      <trkpt lat="46.27443" lon="-1.10699">
        <ele>-3.4</ele>
        <time>2021-12-24T15:11:53Z</time>
      </trkpt>
      <trkpt lat="46.27431" lon="-1.10697">
        <ele>-3.4</ele>
        <time>2021-12-24T15:11:55Z</time>
      </trkpt>
      <trkpt lat="46.27419" lon="-1.10694">
        <ele>-3.4</ele>
        <time>2021-12-24T15:11:57Z</time>
      </trkpt>
      <trkpt lat="46.27408" lon="-1.10691">
        <ele>-3.4</ele>
        <time>2021-12-24T15:11:59Z</time>
      </trkpt>
      <trkpt lat="46.27396" lon="-1.10689">
        <ele>-3.4</ele>
        <time>2021-12-24T15:12:01Z</time>
      </trkpt>
      <trkpt lat="46.27385" lon="-1.10686">
        <ele>-3.4</ele>
        <time>2021-12-24T15:12:03Z</time>
      </trkpt>
      <trkpt lat="46.27375" lon="-1.10683">
        <ele>-3.2</ele>
        <time>2021-12-24T15:12:05Z</time>
      </trkpt>
      <trkpt lat="46.27365" lon="-1.10682">
        <ele>-3.2</ele>
        <time>2021-12-24T15:12:07Z</time>
      </trkpt>
      <trkpt lat="46.2736" lon="-1.10681">
        <ele>-3.2</ele>
        <time>2021-12-24T15:12:08Z</time>
      </trkpt>
      <trkpt lat="46.27355" lon="-1.10679">
        <ele>-3.2</ele>
        <time>2021-12-24T15:12:09Z</time>
      </trkpt>
      <trkpt lat="46.27344" lon="-1.10677">
        <ele>-3.2</ele>
        <time>2021-12-24T15:12:11Z</time>
      </trkpt>
      <trkpt lat="46.27333" lon="-1.10675">
        <ele>-3.2</ele>
        <time>2021-12-24T15:12:13Z</time>
      </trkpt>
      <trkpt lat="46.27322" lon="-1.10672">
        <ele>-3.2</ele>
        <time>2021-12-24T15:12:15Z</time>
      </trkpt>
      <trkpt lat="46.27311" lon="-1.1067">
        <ele>-3.2</ele>
        <time>2021-12-24T15:12:17Z</time>
      </trkpt>
      <trkpt lat="46.273" lon="-1.10667">
        <ele>-3.2</ele>
        <time>2021-12-24T15:12:19Z</time>
      </trkpt>
      <trkpt lat="46.27289" lon="-1.10664">
        <ele>-3.2</ele>
        <time>2021-12-24T15:12:21Z</time>
      </trkpt>
      <trkpt lat="46.27278" lon="-1.10661">
        <ele>-3.2</ele>
        <time>2021-12-24T15:12:23Z</time>
      </trkpt>
      <trkpt lat="46.27267" lon="-1.10659">
        <ele>-3.2</ele>
        <time>2021-12-24T15:12:25Z</time>
      </trkpt>
      <trkpt lat="46.27261" lon="-1.10658">
        <ele>-3.2</ele>
        <time>2021-12-24T15:12:26Z</time>
      </trkpt>
      <trkpt lat="46.27256" lon="-1.10657">
        <ele>-3.2</ele>
        <time>2021-12-24T15:12:27Z</time>
      </trkpt>
      <trkpt lat="46.27245" lon="-1.10655">
        <ele>-3.2</ele>
        <time>2021-12-24T15:12:29Z</time>
      </trkpt>
      <trkpt lat="46.27235" lon="-1.10653">
        <ele>-3.2</ele>
        <time>2021-12-24T15:12:31Z</time>
      </trkpt>
      <trkpt lat="46.27229" lon="-1.10652">
        <ele>-3.2</ele>
        <time>2021-12-24T15:12:32Z</time>
      </trkpt>
      <trkpt lat="46.27223" lon="-1.1065">
        <ele>-3.2</ele>
        <time>2021-12-24T15:12:33Z</time>
      </trkpt>
      <trkpt lat="46.27212" lon="-1.10648">
        <ele>-3.2</ele>
        <time>2021-12-24T15:12:35Z</time>
      </trkpt>
      <trkpt lat="46.27201" lon="-1.10645">
        <ele>-3.2</ele>
        <time>2021-12-24T15:12:37Z</time>
      </trkpt>
      <trkpt lat="46.2719" lon="-1.10643">
        <ele>-3.2</ele>
        <time>2021-12-24T15:12:39Z</time>
      </trkpt>
      <trkpt lat="46.27183" lon="-1.10641">
        <ele>-3.2</ele>
        <time>2021-12-24T15:12:40Z</time>
      </trkpt>
      <trkpt lat="46.27178" lon="-1.10641">
        <ele>-3.2</ele>
        <time>2021-12-24T15:12:41Z</time>
      </trkpt>
      <trkpt lat="46.27167" lon="-1.10638">
        <ele>-3.2</ele>
        <time>2021-12-24T15:12:43Z</time>
      </trkpt>
      <trkpt lat="46.27155" lon="-1.10635">
        <ele>-3.2</ele>
        <time>2021-12-24T15:12:45Z</time>
      </trkpt>
      <trkpt lat="46.27144" lon="-1.10633">
        <ele>-3.2</ele>
        <time>2021-12-24T15:12:47Z</time>
      </trkpt>
      <trkpt lat="46.27133" lon="-1.1063">
        <ele>-3.2</ele>
        <time>2021-12-24T15:12:49Z</time>
      </trkpt>
      <trkpt lat="46.27121" lon="-1.10627">
        <ele>-3.2</ele>
        <time>2021-12-24T15:12:51Z</time>
      </trkpt>
      <trkpt lat="46.2711" lon="-1.10625">
        <ele>-3.2</ele>
        <time>2021-12-24T15:12:53Z</time>
      </trkpt>
      <trkpt lat="46.27099" lon="-1.10622">
        <ele>-3.2</ele>
        <time>2021-12-24T15:12:55Z</time>
      </trkpt>
      <trkpt lat="46.27087" lon="-1.1062">
        <ele>-3.2</ele>
        <time>2021-12-24T15:12:57Z</time>
      </trkpt>
      <trkpt lat="46.27076" lon="-1.10618">
        <ele>-3.2</ele>
        <time>2021-12-24T15:12:59Z</time>
      </trkpt>
      <trkpt lat="46.2707" lon="-1.10617">
        <ele>-3.2</ele>
        <time>2021-12-24T15:13:00Z</time>
      </trkpt>
      <trkpt lat="46.27064" lon="-1.10616">
        <ele>-3.2</ele>
        <time>2021-12-24T15:13:01Z</time>
      </trkpt>
      <trkpt lat="46.27053" lon="-1.10613">
        <ele>-3.2</ele>
        <time>2021-12-24T15:13:03Z</time>
      </trkpt>
      <trkpt lat="46.27041" lon="-1.1061">
        <ele>-3.2</ele>
        <time>2021-12-24T15:13:05Z</time>
      </trkpt>
      <trkpt lat="46.27029" lon="-1.10608">
        <ele>-3.2</ele>
        <time>2021-12-24T15:13:07Z</time>
      </trkpt>
      <trkpt lat="46.27018" lon="-1.10605">
        <ele>-3.2</ele>
        <time>2021-12-24T15:13:09Z</time>
      </trkpt>
      <trkpt lat="46.27006" lon="-1.10603">
        <ele>-3.2</ele>
        <time>2021-12-24T15:13:11Z</time>
      </trkpt>
      <trkpt lat="46.27001" lon="-1.10602">
        <ele>-3.2</ele>
        <time>2021-12-24T15:13:12Z</time>
      </trkpt>
      <trkpt lat="46.26995" lon="-1.10601">
        <ele>-3.2</ele>
        <time>2021-12-24T15:13:13Z</time>
      </trkpt>
      <trkpt lat="46.26985" lon="-1.10598">
        <ele>-3.2</ele>
        <time>2021-12-24T15:13:15Z</time>
      </trkpt>
      <trkpt lat="46.26974" lon="-1.10596">
        <ele>-3.2</ele>
        <time>2021-12-24T15:13:17Z</time>
      </trkpt>
      <trkpt lat="46.26962" lon="-1.10593">
        <ele>-3.2</ele>
        <time>2021-12-24T15:13:19Z</time>
      </trkpt>
      <trkpt lat="46.26957" lon="-1.10592">
        <ele>-3.2</ele>
        <time>2021-12-24T15:13:20Z</time>
      </trkpt>
      <trkpt lat="46.26951" lon="-1.10591">
        <ele>-3.2</ele>
        <time>2021-12-24T15:13:21Z</time>
      </trkpt>
      <trkpt lat="46.26939" lon="-1.10588">
        <ele>-3.2</ele>
        <time>2021-12-24T15:13:23Z</time>
      </trkpt>
      <trkpt lat="46.26928" lon="-1.10586">
        <ele>-3.2</ele>
        <time>2021-12-24T15:13:25Z</time>
      </trkpt>
      <trkpt lat="46.26916" lon="-1.10584">
        <ele>-3.4</ele>
        <time>2021-12-24T15:13:27Z</time>
      </trkpt>
      <trkpt lat="46.26904" lon="-1.10581">
        <ele>-3.4</ele>
        <time>2021-12-24T15:13:29Z</time>
      </trkpt>
      <trkpt lat="46.26898" lon="-1.1058">
        <ele>-3.4</ele>
        <time>2021-12-24T15:13:30Z</time>
      </trkpt>
      <trkpt lat="46.26893" lon="-1.10579">
        <ele>-3.4</ele>
        <time>2021-12-24T15:13:31Z</time>
      </trkpt>
      <trkpt lat="46.26881" lon="-1.10576">
        <ele>-3.4</ele>
        <time>2021-12-24T15:13:33Z</time>
      </trkpt>
      <trkpt lat="46.26868" lon="-1.10573">
        <ele>-3.4</ele>
        <time>2021-12-24T15:13:35Z</time>
      </trkpt>
      <trkpt lat="46.26856" lon="-1.10571">
        <ele>-3.4</ele>
        <time>2021-12-24T15:13:37Z</time>
      </trkpt>
      <trkpt lat="46.26844" lon="-1.10568">
        <ele>-3.4</ele>
        <time>2021-12-24T15:13:39Z</time>
      </trkpt>
      <trkpt lat="46.26831" lon="-1.10565">
        <ele>-3.4</ele>
        <time>2021-12-24T15:13:41Z</time>
      </trkpt>
      <trkpt lat="46.26819" lon="-1.10561">
        <ele>-3.4</ele>
        <time>2021-12-24T15:13:43Z</time>
      </trkpt>
      <trkpt lat="46.26809" lon="-1.10559">
        <ele>-3.4</ele>
        <time>2021-12-24T15:13:45Z</time>
      </trkpt>
      <trkpt lat="46.26799" lon="-1.10556">
        <ele>-3.4</ele>
        <time>2021-12-24T15:13:47Z</time>
      </trkpt>
      <trkpt lat="46.26788" lon="-1.10554">
        <ele>-3.4</ele>
        <time>2021-12-24T15:13:49Z</time>
      </trkpt>
      <trkpt lat="46.26775" lon="-1.10552">
        <ele>-3.4</ele>
        <time>2021-12-24T15:13:51Z</time>
      </trkpt>
      <trkpt lat="46.26763" lon="-1.10549">
        <ele>-3.4</ele>
        <time>2021-12-24T15:13:53Z</time>
      </trkpt>
      <trkpt lat="46.26751" lon="-1.10546">
        <ele>-3.6</ele>
        <time>2021-12-24T15:13:55Z</time>
      </trkpt>
      <trkpt lat="46.26739" lon="-1.10543">
        <ele>-3.4</ele>
        <time>2021-12-24T15:13:57Z</time>
      </trkpt>
      <trkpt lat="46.26726" lon="-1.10542">
        <ele>-3.4</ele>
        <time>2021-12-24T15:13:59Z</time>
      </trkpt>
      <trkpt lat="46.26714" lon="-1.10539">
        <ele>-3.4</ele>
        <time>2021-12-24T15:14:01Z</time>
      </trkpt>
      <trkpt lat="46.26702" lon="-1.10537">
        <ele>-3.6</ele>
        <time>2021-12-24T15:14:03Z</time>
      </trkpt>
      <trkpt lat="46.26696" lon="-1.10536">
        <ele>-3.4</ele>
        <time>2021-12-24T15:14:04Z</time>
      </trkpt>
      <trkpt lat="46.2669" lon="-1.10534">
        <ele>-3.4</ele>
        <time>2021-12-24T15:14:05Z</time>
      </trkpt>
      <trkpt lat="46.26679" lon="-1.10532">
        <ele>-3.4</ele>
        <time>2021-12-24T15:14:07Z</time>
      </trkpt>
      <trkpt lat="46.26667" lon="-1.10529">
        <ele>-3.4</ele>
        <time>2021-12-24T15:14:09Z</time>
      </trkpt>
      <trkpt lat="46.26656" lon="-1.10526">
        <ele>-3.4</ele>
        <time>2021-12-24T15:14:11Z</time>
      </trkpt>
      <trkpt lat="46.26645" lon="-1.10523">
        <ele>-3.4</ele>
        <time>2021-12-24T15:14:13Z</time>
      </trkpt>
      <trkpt lat="46.2664" lon="-1.10521">
        <ele>-3.4</ele>
        <time>2021-12-24T15:14:14Z</time>
      </trkpt>
      <trkpt lat="46.26635" lon="-1.1052">
        <ele>-3.4</ele>
        <time>2021-12-24T15:14:15Z</time>
      </trkpt>
      <trkpt lat="46.26623" lon="-1.10517">
        <ele>-3.4</ele>
        <time>2021-12-24T15:14:17Z</time>
      </trkpt>
      <trkpt lat="46.26612" lon="-1.10515">
        <ele>-3.4</ele>
        <time>2021-12-24T15:14:19Z</time>
      </trkpt>
      <trkpt lat="46.266" lon="-1.10512">
        <ele>-3.4</ele>
        <time>2021-12-24T15:14:21Z</time>
      </trkpt>
      <trkpt lat="46.26589" lon="-1.1051">
        <ele>-3.4</ele>
        <time>2021-12-24T15:14:23Z</time>
      </trkpt>
      <trkpt lat="46.26577" lon="-1.10507">
        <ele>-3.4</ele>
        <time>2021-12-24T15:14:25Z</time>
      </trkpt>
      <trkpt lat="46.26565" lon="-1.10505">
        <ele>-3.4</ele>
        <time>2021-12-24T15:14:27Z</time>
      </trkpt>
      <trkpt lat="46.26554" lon="-1.10503">
        <ele>-3.4</ele>
        <time>2021-12-24T15:14:29Z</time>
      </trkpt>
      <trkpt lat="46.26542" lon="-1.10501">
        <ele>-3.6</ele>
        <time>2021-12-24T15:14:31Z</time>
      </trkpt>
      <trkpt lat="46.26536" lon="-1.10501">
        <ele>-3.6</ele>
        <time>2021-12-24T15:14:32Z</time>
      </trkpt>
      <trkpt lat="46.2653" lon="-1.10501">
        <ele>-3.6</ele>
        <time>2021-12-24T15:14:33Z</time>
      </trkpt>
      <trkpt lat="46.26518" lon="-1.10502">
        <ele>-3.8</ele>
        <time>2021-12-24T15:14:35Z</time>
      </trkpt>
      <trkpt lat="46.26506" lon="-1.10504">
        <ele>-3.8</ele>
        <time>2021-12-24T15:14:37Z</time>
      </trkpt>
      <trkpt lat="46.26495" lon="-1.10506">
        <ele>-3.8</ele>
        <time>2021-12-24T15:14:39Z</time>
      </trkpt>
      <trkpt lat="46.26485" lon="-1.1051">
        <ele>-3.8</ele>
        <time>2021-12-24T15:14:41Z</time>
      </trkpt>
      <trkpt lat="46.26475" lon="-1.10514">
        <ele>-3.6</ele>
        <time>2021-12-24T15:14:43Z</time>
      </trkpt>
      <trkpt lat="46.26465" lon="-1.10518">
        <ele>-3.8</ele>
        <time>2021-12-24T15:14:45Z</time>
      </trkpt>
      <trkpt lat="46.26455" lon="-1.10525">
        <ele>-3.6</ele>
        <time>2021-12-24T15:14:47Z</time>
      </trkpt>
      <trkpt lat="46.26445" lon="-1.10532">
        <ele>-3.6</ele>
        <time>2021-12-24T15:14:49Z</time>
      </trkpt>
      <trkpt lat="46.26435" lon="-1.10539">
        <ele>-3.6</ele>
        <time>2021-12-24T15:14:51Z</time>
      </trkpt>
      <trkpt lat="46.26426" lon="-1.10547">
        <ele>-3.6</ele>
        <time>2021-12-24T15:14:53Z</time>
      </trkpt>
      <trkpt lat="46.26416" lon="-1.10554">
        <ele>-3.6</ele>
        <time>2021-12-24T15:14:55Z</time>
      </trkpt>
      <trkpt lat="46.26406" lon="-1.10562">
        <ele>-3.6</ele>
        <time>2021-12-24T15:14:57Z</time>
      </trkpt>
      <trkpt lat="46.26395" lon="-1.1057">
        <ele>-3.4</ele>
        <time>2021-12-24T15:14:59Z</time>
      </trkpt>
      <trkpt lat="46.26385" lon="-1.10578">
        <ele>-3.6</ele>
        <time>2021-12-24T15:15:01Z</time>
      </trkpt>
      <trkpt lat="46.26374" lon="-1.10585">
        <ele>-3.4</ele>
        <time>2021-12-24T15:15:03Z</time>
      </trkpt>
      <trkpt lat="46.26364" lon="-1.10593">
        <ele>-3.4</ele>
        <time>2021-12-24T15:15:05Z</time>
      </trkpt>
      <trkpt lat="46.26354" lon="-1.106">
        <ele>-3.6</ele>
        <time>2021-12-24T15:15:07Z</time>
      </trkpt>
      <trkpt lat="46.26349" lon="-1.10604">
        <ele>-3.6</ele>
        <time>2021-12-24T15:15:08Z</time>
      </trkpt>
      <trkpt lat="46.26344" lon="-1.10608">
        <ele>-3.6</ele>
        <time>2021-12-24T15:15:09Z</time>
      </trkpt>
      <trkpt lat="46.26333" lon="-1.10616">
        <ele>-3.6</ele>
        <time>2021-12-24T15:15:11Z</time>
      </trkpt>
      <trkpt lat="46.26322" lon="-1.10625">
        <ele>-3.6</ele>
        <time>2021-12-24T15:15:13Z</time>
      </trkpt>
      <trkpt lat="46.26312" lon="-1.10632">
        <ele>-3.6</ele>
        <time>2021-12-24T15:15:15Z</time>
      </trkpt>
      <trkpt lat="46.26301" lon="-1.1064">
        <ele>-3.6</ele>
        <time>2021-12-24T15:15:17Z</time>
      </trkpt>
      <trkpt lat="46.2629" lon="-1.10648">
        <ele>-3.6</ele>
        <time>2021-12-24T15:15:19Z</time>
      </trkpt>
      <trkpt lat="46.2628" lon="-1.10656">
        <ele>-3.6</ele>
        <time>2021-12-24T15:15:21Z</time>
      </trkpt>
      <trkpt lat="46.26269" lon="-1.10664">
        <ele>-3.6</ele>
        <time>2021-12-24T15:15:23Z</time>
      </trkpt>
      <trkpt lat="46.26259" lon="-1.10672">
        <ele>-3.6</ele>
        <time>2021-12-24T15:15:25Z</time>
      </trkpt>
      <trkpt lat="46.26248" lon="-1.10679">
        <ele>-3.6</ele>
        <time>2021-12-24T15:15:27Z</time>
      </trkpt>
      <trkpt lat="46.26238" lon="-1.10687">
        <ele>-3.6</ele>
        <time>2021-12-24T15:15:29Z</time>
      </trkpt>
      <trkpt lat="46.26228" lon="-1.10694">
        <ele>-3.6</ele>
        <time>2021-12-24T15:15:31Z</time>
      </trkpt>
      <trkpt lat="46.26223" lon="-1.10698">
        <ele>-3.6</ele>
        <time>2021-12-24T15:15:32Z</time>
      </trkpt>
      <trkpt lat="46.26218" lon="-1.10701">
        <ele>-3.6</ele>
        <time>2021-12-24T15:15:33Z</time>
      </trkpt>
      <trkpt lat="46.26209" lon="-1.10708">
        <ele>-3.6</ele>
        <time>2021-12-24T15:15:35Z</time>
      </trkpt>
      <trkpt lat="46.262" lon="-1.10716">
        <ele>-3.4</ele>
        <time>2021-12-24T15:15:37Z</time>
      </trkpt>
      <trkpt lat="46.2619" lon="-1.10723">
        <ele>-3.4</ele>
        <time>2021-12-24T15:15:39Z</time>
      </trkpt>
      <trkpt lat="46.26181" lon="-1.10731">
        <ele>-3.4</ele>
        <time>2021-12-24T15:15:41Z</time>
      </trkpt>
      <trkpt lat="46.26176" lon="-1.10734">
        <ele>-3.4</ele>
        <time>2021-12-24T15:15:42Z</time>
      </trkpt>
      <trkpt lat="46.26171" lon="-1.10738">
        <ele>-3.4</ele>
        <time>2021-12-24T15:15:43Z</time>
      </trkpt>
      <trkpt lat="46.26161" lon="-1.10745">
        <ele>-3.4</ele>
        <time>2021-12-24T15:15:45Z</time>
      </trkpt>
      <trkpt lat="46.26151" lon="-1.10753">
        <ele>-3.4</ele>
        <time>2021-12-24T15:15:47Z</time>
      </trkpt>
      <trkpt lat="46.2614" lon="-1.1076">
        <ele>-3.4</ele>
        <time>2021-12-24T15:15:49Z</time>
      </trkpt>
      <trkpt lat="46.2613" lon="-1.10768">
        <ele>-3.4</ele>
        <time>2021-12-24T15:15:51Z</time>
      </trkpt>
      <trkpt lat="46.2612" lon="-1.10775">
        <ele>-3.4</ele>
        <time>2021-12-24T15:15:53Z</time>
      </trkpt>
      <trkpt lat="46.26111" lon="-1.10782">
        <ele>-3.4</ele>
        <time>2021-12-24T15:15:55Z</time>
      </trkpt>
      <trkpt lat="46.26101" lon="-1.10789">
        <ele>-3.4</ele>
        <time>2021-12-24T15:15:57Z</time>
      </trkpt>
      <trkpt lat="46.26092" lon="-1.10796">
        <ele>-3.4</ele>
        <time>2021-12-24T15:15:59Z</time>
      </trkpt>
      <trkpt lat="46.26082" lon="-1.10803">
        <ele>-3.4</ele>
        <time>2021-12-24T15:16:01Z</time>
      </trkpt>
      <trkpt lat="46.26072" lon="-1.10811">
        <ele>-3.4</ele>
        <time>2021-12-24T15:16:03Z</time>
      </trkpt>
      <trkpt lat="46.26063" lon="-1.10819">
        <ele>-3.4</ele>
        <time>2021-12-24T15:16:05Z</time>
      </trkpt>
      <trkpt lat="46.26058" lon="-1.10823">
        <ele>-3.4</ele>
        <time>2021-12-24T15:16:06Z</time>
      </trkpt>
      <trkpt lat="46.26053" lon="-1.10826">
        <ele>-3.4</ele>
        <time>2021-12-24T15:16:07Z</time>
      </trkpt>
      <trkpt lat="46.26043" lon="-1.10833">
        <ele>-3.4</ele>
        <time>2021-12-24T15:16:09Z</time>
      </trkpt>
      <trkpt lat="46.26033" lon="-1.10841">
        <ele>-3.4</ele>
        <time>2021-12-24T15:16:11Z</time>
      </trkpt>
      <trkpt lat="46.26023" lon="-1.10848">
        <ele>-3.4</ele>
        <time>2021-12-24T15:16:13Z</time>
      </trkpt>
      <trkpt lat="46.26013" lon="-1.10856">
        <ele>-3.4</ele>
        <time>2021-12-24T15:16:15Z</time>
      </trkpt>
      <trkpt lat="46.26003" lon="-1.10863">
        <ele>-3.4</ele>
        <time>2021-12-24T15:16:17Z</time>
      </trkpt>
      <trkpt lat="46.25998" lon="-1.10867">
        <ele>-3.4</ele>
        <time>2021-12-24T15:16:18Z</time>
      </trkpt>
      <trkpt lat="46.25993" lon="-1.10871">
        <ele>-3.4</ele>
        <time>2021-12-24T15:16:19Z</time>
      </trkpt>
      <trkpt lat="46.25983" lon="-1.10878">
        <ele>-3.2</ele>
        <time>2021-12-24T15:16:21Z</time>
      </trkpt>
      <trkpt lat="46.25973" lon="-1.10885">
        <ele>-3.2</ele>
        <time>2021-12-24T15:16:23Z</time>
      </trkpt>
      <trkpt lat="46.25963" lon="-1.10893">
        <ele>-3.2</ele>
        <time>2021-12-24T15:16:25Z</time>
      </trkpt>
      <trkpt lat="46.25953" lon="-1.109">
        <ele>-3.2</ele>
        <time>2021-12-24T15:16:27Z</time>
      </trkpt>
      <trkpt lat="46.25943" lon="-1.10908">
        <ele>-3.2</ele>
        <time>2021-12-24T15:16:29Z</time>
      </trkpt>
      <trkpt lat="46.25933" lon="-1.10916">
        <ele>-3.2</ele>
        <time>2021-12-24T15:16:31Z</time>
      </trkpt>
      <trkpt lat="46.25922" lon="-1.10923">
        <ele>-3.2</ele>
        <time>2021-12-24T15:16:33Z</time>
      </trkpt>
      <trkpt lat="46.25912" lon="-1.10931">
        <ele>-3.2</ele>
        <time>2021-12-24T15:16:35Z</time>
      </trkpt>
      <trkpt lat="46.25901" lon="-1.10939">
        <ele>-3.2</ele>
        <time>2021-12-24T15:16:37Z</time>
      </trkpt>
      <trkpt lat="46.2589" lon="-1.10947">
        <ele>-3.2</ele>
        <time>2021-12-24T15:16:39Z</time>
      </trkpt>
      <trkpt lat="46.25879" lon="-1.10954">
        <ele>-3.2</ele>
        <time>2021-12-24T15:16:41Z</time>
      </trkpt>
      <trkpt lat="46.25869" lon="-1.10963">
        <ele>-3.2</ele>
        <time>2021-12-24T15:16:43Z</time>
      </trkpt>
      <trkpt lat="46.25858" lon="-1.10971">
        <ele>-3</ele>
        <time>2021-12-24T15:16:45Z</time>
      </trkpt>
      <trkpt lat="46.25847" lon="-1.10979">
        <ele>-3.2</ele>
        <time>2021-12-24T15:16:47Z</time>
      </trkpt>
      <trkpt lat="46.25836" lon="-1.10987">
        <ele>-3.2</ele>
        <time>2021-12-24T15:16:49Z</time>
      </trkpt>
      <trkpt lat="46.25825" lon="-1.10995">
        <ele>-3.2</ele>
        <time>2021-12-24T15:16:51Z</time>
      </trkpt>
      <trkpt lat="46.25814" lon="-1.11003">
        <ele>-3.2</ele>
        <time>2021-12-24T15:16:53Z</time>
      </trkpt>
      <trkpt lat="46.25803" lon="-1.11011">
        <ele>-3.2</ele>
        <time>2021-12-24T15:16:55Z</time>
      </trkpt>
      <trkpt lat="46.25793" lon="-1.11019">
        <ele>-3.2</ele>
        <time>2021-12-24T15:16:57Z</time>
      </trkpt>
      <trkpt lat="46.25782" lon="-1.11027">
        <ele>-3.2</ele>
        <time>2021-12-24T15:16:59Z</time>
      </trkpt>
      <trkpt lat="46.25777" lon="-1.11031">
        <ele>-3.2</ele>
        <time>2021-12-24T15:17:00Z</time>
      </trkpt>
      <trkpt lat="46.25771" lon="-1.11035">
        <ele>-3.2</ele>
        <time>2021-12-24T15:17:01Z</time>
      </trkpt>
      <trkpt lat="46.25761" lon="-1.11043">
        <ele>-3.2</ele>
        <time>2021-12-24T15:17:03Z</time>
      </trkpt>
      <trkpt lat="46.2575" lon="-1.11051">
        <ele>-3.2</ele>
        <time>2021-12-24T15:17:05Z</time>
      </trkpt>
      <trkpt lat="46.2574" lon="-1.11059">
        <ele>-3.2</ele>
        <time>2021-12-24T15:17:07Z</time>
      </trkpt>
      <trkpt lat="46.25729" lon="-1.11066">
        <ele>-3.4</ele>
        <time>2021-12-24T15:17:09Z</time>
      </trkpt>
      <trkpt lat="46.25719" lon="-1.11074">
        <ele>-3.4</ele>
        <time>2021-12-24T15:17:11Z</time>
      </trkpt>
      <trkpt lat="46.25709" lon="-1.11082">
        <ele>-3.2</ele>
        <time>2021-12-24T15:17:13Z</time>
      </trkpt>
      <trkpt lat="46.25698" lon="-1.1109">
        <ele>-3.4</ele>
        <time>2021-12-24T15:17:15Z</time>
      </trkpt>
      <trkpt lat="46.25688" lon="-1.11097">
        <ele>-3.4</ele>
        <time>2021-12-24T15:17:17Z</time>
      </trkpt>
      <trkpt lat="46.25678" lon="-1.11105">
        <ele>-3.4</ele>
        <time>2021-12-24T15:17:19Z</time>
      </trkpt>
      <trkpt lat="46.25668" lon="-1.11113">
        <ele>-3.4</ele>
        <time>2021-12-24T15:17:21Z</time>
      </trkpt>
      <trkpt lat="46.25663" lon="-1.11117">
        <ele>-3.4</ele>
        <time>2021-12-24T15:17:22Z</time>
      </trkpt>
      <trkpt lat="46.25658" lon="-1.11121">
        <ele>-3.4</ele>
        <time>2021-12-24T15:17:23Z</time>
      </trkpt>
      <trkpt lat="46.25647" lon="-1.11128">
        <ele>-3.4</ele>
        <time>2021-12-24T15:17:25Z</time>
      </trkpt>
      <trkpt lat="46.25637" lon="-1.11136">
        <ele>-3.4</ele>
        <time>2021-12-24T15:17:27Z</time>
      </trkpt>
      <trkpt lat="46.25627" lon="-1.11144">
        <ele>-3.4</ele>
        <time>2021-12-24T15:17:29Z</time>
      </trkpt>
      <trkpt lat="46.25616" lon="-1.11151">
        <ele>-3.4</ele>
        <time>2021-12-24T15:17:31Z</time>
      </trkpt>
      <trkpt lat="46.25606" lon="-1.11158">
        <ele>-3.4</ele>
        <time>2021-12-24T15:17:33Z</time>
      </trkpt>
      <trkpt lat="46.25602" lon="-1.11162">
        <ele>-3.4</ele>
        <time>2021-12-24T15:17:34Z</time>
      </trkpt>
      <trkpt lat="46.25597" lon="-1.11165">
        <ele>-3.4</ele>
        <time>2021-12-24T15:17:35Z</time>
      </trkpt>
      <trkpt lat="46.25588" lon="-1.11172">
        <ele>-3.4</ele>
        <time>2021-12-24T15:17:37Z</time>
      </trkpt>
      <trkpt lat="46.25579" lon="-1.11178">
        <ele>-3.4</ele>
        <time>2021-12-24T15:17:39Z</time>
      </trkpt>
      <trkpt lat="46.2557" lon="-1.11185">
        <ele>-3.4</ele>
        <time>2021-12-24T15:17:41Z</time>
      </trkpt>
      <trkpt lat="46.25565" lon="-1.11188">
        <ele>-3.6</ele>
        <time>2021-12-24T15:17:42Z</time>
      </trkpt>
      <trkpt lat="46.25561" lon="-1.11191">
        <ele>-3.4</ele>
        <time>2021-12-24T15:17:43Z</time>
      </trkpt>
      <trkpt lat="46.25552" lon="-1.11199">
        <ele>-3.4</ele>
        <time>2021-12-24T15:17:45Z</time>
      </trkpt>
      <trkpt lat="46.25542" lon="-1.11206">
        <ele>-3.4</ele>
        <time>2021-12-24T15:17:47Z</time>
      </trkpt>
      <trkpt lat="46.25533" lon="-1.11213">
        <ele>-3.4</ele>
        <time>2021-12-24T15:17:49Z</time>
      </trkpt>
      <trkpt lat="46.25524" lon="-1.11221">
        <ele>-3.4</ele>
        <time>2021-12-24T15:17:51Z</time>
      </trkpt>
      <trkpt lat="46.25518" lon="-1.11224">
        <ele>-3.4</ele>
        <time>2021-12-24T15:17:52Z</time>
      </trkpt>
      <trkpt lat="46.25513" lon="-1.11227">
        <ele>-3.4</ele>
        <time>2021-12-24T15:17:53Z</time>
      </trkpt>
      <trkpt lat="46.25503" lon="-1.11235">
        <ele>-3.4</ele>
        <time>2021-12-24T15:17:55Z</time>
      </trkpt>
      <trkpt lat="46.25493" lon="-1.11242">
        <ele>-3.4</ele>
        <time>2021-12-24T15:17:57Z</time>
      </trkpt>
      <trkpt lat="46.25483" lon="-1.11251">
        <ele>-3.6</ele>
        <time>2021-12-24T15:17:59Z</time>
      </trkpt>
      <trkpt lat="46.25473" lon="-1.11258">
        <ele>-3.6</ele>
        <time>2021-12-24T15:18:01Z</time>
      </trkpt>
      <trkpt lat="46.25463" lon="-1.11265">
        <ele>-3.6</ele>
        <time>2021-12-24T15:18:03Z</time>
      </trkpt>
      <trkpt lat="46.25453" lon="-1.11273">
        <ele>-3.6</ele>
        <time>2021-12-24T15:18:05Z</time>
      </trkpt>
      <trkpt lat="46.25443" lon="-1.1128">
        <ele>-3.6</ele>
        <time>2021-12-24T15:18:07Z</time>
      </trkpt>
      <trkpt lat="46.25434" lon="-1.11286">
        <ele>-3.6</ele>
        <time>2021-12-24T15:18:09Z</time>
      </trkpt>
      <trkpt lat="46.25424" lon="-1.11293">
        <ele>-3.6</ele>
        <time>2021-12-24T15:18:11Z</time>
      </trkpt>
      <trkpt lat="46.25415" lon="-1.11301">
        <ele>-3.8</ele>
        <time>2021-12-24T15:18:13Z</time>
      </trkpt>
      <trkpt lat="46.25405" lon="-1.11308">
        <ele>-3.8</ele>
        <time>2021-12-24T15:18:15Z</time>
      </trkpt>
      <trkpt lat="46.25396" lon="-1.11315">
        <ele>-3.8</ele>
        <time>2021-12-24T15:18:17Z</time>
      </trkpt>
      <trkpt lat="46.25386" lon="-1.11322">
        <ele>-4</ele>
        <time>2021-12-24T15:18:19Z</time>
      </trkpt>
      <trkpt lat="46.25377" lon="-1.11329">
        <ele>-4</ele>
        <time>2021-12-24T15:18:21Z</time>
      </trkpt>
      <trkpt lat="46.25368" lon="-1.11336">
        <ele>-4</ele>
        <time>2021-12-24T15:18:23Z</time>
      </trkpt>
      <trkpt lat="46.25358" lon="-1.11343">
        <ele>-4</ele>
        <time>2021-12-24T15:18:25Z</time>
      </trkpt>
      <trkpt lat="46.25349" lon="-1.1135">
        <ele>-4</ele>
        <time>2021-12-24T15:18:27Z</time>
      </trkpt>
      <trkpt lat="46.25339" lon="-1.11358">
        <ele>-4</ele>
        <time>2021-12-24T15:18:29Z</time>
      </trkpt>
      <trkpt lat="46.25329" lon="-1.11365">
        <ele>-4</ele>
        <time>2021-12-24T15:18:31Z</time>
      </trkpt>
      <trkpt lat="46.25319" lon="-1.11372">
        <ele>-4</ele>
        <time>2021-12-24T15:18:33Z</time>
      </trkpt>
      <trkpt lat="46.2531" lon="-1.11379">
        <ele>-4</ele>
        <time>2021-12-24T15:18:35Z</time>
      </trkpt>
      <trkpt lat="46.253" lon="-1.11386">
        <ele>-4</ele>
        <time>2021-12-24T15:18:37Z</time>
      </trkpt>
      <trkpt lat="46.25295" lon="-1.1139">
        <ele>-4</ele>
        <time>2021-12-24T15:18:38Z</time>
      </trkpt>
      <trkpt lat="46.25291" lon="-1.11393">
        <ele>-4</ele>
        <time>2021-12-24T15:18:39Z</time>
      </trkpt>
      <trkpt lat="46.25281" lon="-1.11401">
        <ele>-4</ele>
        <time>2021-12-24T15:18:41Z</time>
      </trkpt>
      <trkpt lat="46.25272" lon="-1.11407">
        <ele>-3.6</ele>
        <time>2021-12-24T15:18:43Z</time>
      </trkpt>
      <trkpt lat="46.25261" lon="-1.11414">
        <ele>-3.8</ele>
        <time>2021-12-24T15:18:45Z</time>
      </trkpt>
      <trkpt lat="46.25252" lon="-1.11421">
        <ele>-3.6</ele>
        <time>2021-12-24T15:18:47Z</time>
      </trkpt>
      <trkpt lat="46.25242" lon="-1.11429">
        <ele>-3.6</ele>
        <time>2021-12-24T15:18:49Z</time>
      </trkpt>
      <trkpt lat="46.25232" lon="-1.11436">
        <ele>-3.6</ele>
        <time>2021-12-24T15:18:51Z</time>
      </trkpt>
      <trkpt lat="46.25223" lon="-1.11445">
        <ele>-3.6</ele>
        <time>2021-12-24T15:18:53Z</time>
      </trkpt>
      <trkpt lat="46.25213" lon="-1.11452">
        <ele>-3.6</ele>
        <time>2021-12-24T15:18:55Z</time>
      </trkpt>
      <trkpt lat="46.25204" lon="-1.11459">
        <ele>-3.8</ele>
        <time>2021-12-24T15:18:57Z</time>
      </trkpt>
      <trkpt lat="46.25195" lon="-1.11466">
        <ele>-3.6</ele>
        <time>2021-12-24T15:18:59Z</time>
      </trkpt>
      <trkpt lat="46.25187" lon="-1.11473">
        <ele>-3.6</ele>
        <time>2021-12-24T15:19:01Z</time>
      </trkpt>
      <trkpt lat="46.25178" lon="-1.1148">
        <ele>-3.6</ele>
        <time>2021-12-24T15:19:03Z</time>
      </trkpt>
      <trkpt lat="46.25169" lon="-1.11486">
        <ele>-3.6</ele>
        <time>2021-12-24T15:19:05Z</time>
      </trkpt>
      <trkpt lat="46.25161" lon="-1.11491">
        <ele>-3.6</ele>
        <time>2021-12-24T15:19:07Z</time>
      </trkpt>
      <trkpt lat="46.25154" lon="-1.11495">
        <ele>-3.6</ele>
        <time>2021-12-24T15:19:09Z</time>
      </trkpt>
      <trkpt lat="46.2515" lon="-1.11497">
        <ele>-3.4</ele>
        <time>2021-12-24T15:19:11Z</time>
      </trkpt>
      <trkpt lat="46.25145" lon="-1.11499">
        <ele>-3.2</ele>
        <time>2021-12-24T15:19:13Z</time>
      </trkpt>
      <trkpt lat="46.2514" lon="-1.11502">
        <ele>-3</ele>
        <time>2021-12-24T15:19:15Z</time>
      </trkpt>
      <trkpt lat="46.25137" lon="-1.11506">
        <ele>-2.8</ele>
        <time>2021-12-24T15:19:17Z</time>
      </trkpt>
      <trkpt lat="46.25136" lon="-1.11509">
        <ele>-2.8</ele>
        <time>2021-12-24T15:19:18Z</time>
      </trkpt>
      <trkpt lat="46.25135" lon="-1.11513">
        <ele>-2.8</ele>
        <time>2021-12-24T15:19:19Z</time>
      </trkpt>
      <trkpt lat="46.2513" lon="-1.11517">
        <ele>-2.8</ele>
        <time>2021-12-24T15:19:21Z</time>
      </trkpt>
      <trkpt lat="46.25125" lon="-1.11521">
        <ele>-2.6</ele>
        <time>2021-12-24T15:19:23Z</time>
      </trkpt>
      <trkpt lat="46.25122" lon="-1.11523">
        <ele>-2.6</ele>
        <time>2021-12-24T15:19:24Z</time>
      </trkpt>
      <trkpt lat="46.25118" lon="-1.11525">
        <ele>-2.4</ele>
        <time>2021-12-24T15:19:25Z</time>
      </trkpt>
      <trkpt lat="46.25112" lon="-1.11529">
        <ele>-2.4</ele>
        <time>2021-12-24T15:19:27Z</time>
      </trkpt>
      <trkpt lat="46.25105" lon="-1.11534">
        <ele>-2.4</ele>
        <time>2021-12-24T15:19:29Z</time>
      </trkpt>
      <trkpt lat="46.25098" lon="-1.11538">
        <ele>-2.2</ele>
        <time>2021-12-24T15:19:31Z</time>
      </trkpt>
      <trkpt lat="46.25091" lon="-1.1154">
        <ele>-2</ele>
        <time>2021-12-24T15:19:33Z</time>
      </trkpt>
      <trkpt lat="46.25084" lon="-1.11544">
        <ele>-1.8</ele>
        <time>2021-12-24T15:19:35Z</time>
      </trkpt>
      <trkpt lat="46.25078" lon="-1.11547">
        <ele>-1.6</ele>
        <time>2021-12-24T15:19:37Z</time>
      </trkpt>
      <trkpt lat="46.25077" lon="-1.11552">
        <ele>-1.6</ele>
        <time>2021-12-24T15:19:38Z</time>
      </trkpt>
      <trkpt lat="46.25073" lon="-1.11552">
        <ele>-1.6</ele>
        <time>2021-12-24T15:19:39Z</time>
      </trkpt>
      <trkpt lat="46.25066" lon="-1.11553">
        <ele>-1.2</ele>
        <time>2021-12-24T15:19:41Z</time>
      </trkpt>
      <trkpt lat="46.25061" lon="-1.11556">
        <ele>-1</ele>
        <time>2021-12-24T15:19:43Z</time>
      </trkpt>
      <trkpt lat="46.25059" lon="-1.11557">
        <ele>-1</ele>
        <time>2021-12-24T15:19:44Z</time>
      </trkpt>
      <trkpt lat="46.25057" lon="-1.11559">
        <ele>-0.80000000000001</ele>
        <time>2021-12-24T15:19:45Z</time>
      </trkpt>
      <trkpt lat="46.25053" lon="-1.11564">
        <ele>-0.39999999999998</ele>
        <time>2021-12-24T15:19:47Z</time>
      </trkpt>
      <trkpt lat="46.2505" lon="-1.11565">
        <ele>-0.39999999999998</ele>
        <time>2021-12-24T15:19:48Z</time>
      </trkpt>
      <trkpt lat="46.25048" lon="-1.11566">
        <ele>-0.19999999999999</ele>
        <time>2021-12-24T15:19:49Z</time>
      </trkpt>
      <trkpt lat="46.25042" lon="-1.11569">
        <ele>-0.19999999999999</ele>
        <time>2021-12-24T15:19:51Z</time>
      </trkpt>
      <trkpt lat="46.25037" lon="-1.11577">
        <ele>-0.19999999999999</ele>
        <time>2021-12-24T15:19:53Z</time>
      </trkpt>
      <trkpt lat="46.25034" lon="-1.11578">
        <ele>-0.19999999999999</ele>
        <time>2021-12-24T15:19:54Z</time>
      </trkpt>
      <trkpt lat="46.2503" lon="-1.11578">
        <ele>0.19999999999999</ele>
        <time>2021-12-24T15:19:55Z</time>
      </trkpt>
      <trkpt lat="46.25023" lon="-1.1158">
        <ele>0.19999999999999</ele>
        <time>2021-12-24T15:19:57Z</time>
      </trkpt>
      <trkpt lat="46.25017" lon="-1.11582">
        <ele>0.39999999999998</ele>
        <time>2021-12-24T15:19:59Z</time>
      </trkpt>
      <trkpt lat="46.25014" lon="-1.11583">
        <ele>0.60000000000002</ele>
        <time>2021-12-24T15:20:00Z</time>
      </trkpt>
      <trkpt lat="46.25011" lon="-1.11584">
        <ele>0.60000000000002</ele>
        <time>2021-12-24T15:20:01Z</time>
      </trkpt>
      <trkpt lat="46.25004" lon="-1.11585">
        <ele>0.80000000000001</ele>
        <time>2021-12-24T15:20:03Z</time>
      </trkpt>
      <trkpt lat="46.25" lon="-1.11585">
        <ele>1</ele>
        <time>2021-12-24T15:20:04Z</time>
      </trkpt>
      <trkpt lat="46.24996" lon="-1.11584">
        <ele>1.2</ele>
        <time>2021-12-24T15:20:05Z</time>
      </trkpt>
      <trkpt lat="46.2499" lon="-1.11589">
        <ele>1.4</ele>
        <time>2021-12-24T15:20:07Z</time>
      </trkpt>
      <trkpt lat="46.24982" lon="-1.11588">
        <ele>1.6</ele>
        <time>2021-12-24T15:20:09Z</time>
      </trkpt>
      <trkpt lat="46.24974" lon="-1.1159">
        <ele>2</ele>
        <time>2021-12-24T15:20:11Z</time>
      </trkpt>
      <trkpt lat="46.24967" lon="-1.11594">
        <ele>2.2</ele>
        <time>2021-12-24T15:20:13Z</time>
      </trkpt>
      <trkpt lat="46.24962" lon="-1.11598">
        <ele>2.4</ele>
        <time>2021-12-24T15:20:15Z</time>
      </trkpt>
      <trkpt lat="46.24959" lon="-1.11599">
        <ele>2.4</ele>
        <time>2021-12-24T15:20:16Z</time>
      </trkpt>
      <trkpt lat="46.24957" lon="-1.11601">
        <ele>2.4</ele>
        <time>2021-12-24T15:20:17Z</time>
      </trkpt>
      <trkpt lat="46.24953" lon="-1.11606">
        <ele>2.4</ele>
        <time>2021-12-24T15:20:19Z</time>
      </trkpt>
      <trkpt lat="46.24951" lon="-1.1161">
        <ele>2.4</ele>
        <time>2021-12-24T15:20:21Z</time>
      </trkpt>
      <trkpt lat="46.2495" lon="-1.11611">
        <ele>2.4</ele>
        <time>2021-12-24T15:20:22Z</time>
      </trkpt>
      <trkpt lat="46.24947" lon="-1.11615">
        <ele>3</ele>
        <time>2021-12-24T15:20:35Z</time>
      </trkpt>
      <trkpt lat="46.24944" lon="-1.11615">
        <ele>3.2</ele>
        <time>2021-12-24T15:20:36Z</time>
      </trkpt>
      <trkpt lat="46.24942" lon="-1.11616">
        <ele>3.2</ele>
        <time>2021-12-24T15:20:37Z</time>
      </trkpt>
      <trkpt lat="46.24935" lon="-1.1162">
        <ele>3.2</ele>
        <time>2021-12-24T15:20:39Z</time>
      </trkpt>
      <trkpt lat="46.24932" lon="-1.11623">
        <ele>3.2</ele>
        <time>2021-12-24T15:20:40Z</time>
      </trkpt>
      <trkpt lat="46.24928" lon="-1.11625">
        <ele>3.4</ele>
        <time>2021-12-24T15:20:41Z</time>
      </trkpt>
      <trkpt lat="46.24921" lon="-1.11631">
        <ele>3.4</ele>
        <time>2021-12-24T15:20:43Z</time>
      </trkpt>
      <trkpt lat="46.24915" lon="-1.11637">
        <ele>3.6</ele>
        <time>2021-12-24T15:20:45Z</time>
      </trkpt>
      <trkpt lat="46.24909" lon="-1.11644">
        <ele>3.6</ele>
        <time>2021-12-24T15:20:47Z</time>
      </trkpt>
      <trkpt lat="46.24903" lon="-1.11651">
        <ele>3.6</ele>
        <time>2021-12-24T15:20:49Z</time>
      </trkpt>
      <trkpt lat="46.24898" lon="-1.11658">
        <ele>3.8</ele>
        <time>2021-12-24T15:20:51Z</time>
      </trkpt>
      <trkpt lat="46.24892" lon="-1.11665">
        <ele>3.8</ele>
        <time>2021-12-24T15:20:53Z</time>
      </trkpt>
      <trkpt lat="46.24887" lon="-1.11673">
        <ele>3.8</ele>
        <time>2021-12-24T15:20:55Z</time>
      </trkpt>
      <trkpt lat="46.24881" lon="-1.11679">
        <ele>4</ele>
        <time>2021-12-24T15:20:57Z</time>
      </trkpt>
      <trkpt lat="46.24878" lon="-1.11682">
        <ele>4.2</ele>
        <time>2021-12-24T15:20:58Z</time>
      </trkpt>
      <trkpt lat="46.24875" lon="-1.11685">
        <ele>4.2</ele>
        <time>2021-12-24T15:20:59Z</time>
      </trkpt>
      <trkpt lat="46.24869" lon="-1.11691">
        <ele>4.4</ele>
        <time>2021-12-24T15:21:01Z</time>
      </trkpt>
      <trkpt lat="46.24863" lon="-1.11697">
        <ele>4.6</ele>
        <time>2021-12-24T15:21:03Z</time>
      </trkpt>
      <trkpt lat="46.24857" lon="-1.11704">
        <ele>4.6</ele>
        <time>2021-12-24T15:21:05Z</time>
      </trkpt>
      <trkpt lat="46.24851" lon="-1.11711">
        <ele>4.8</ele>
        <time>2021-12-24T15:21:07Z</time>
      </trkpt>
      <trkpt lat="46.24845" lon="-1.11717">
        <ele>4.8</ele>
        <time>2021-12-24T15:21:09Z</time>
      </trkpt>
      <trkpt lat="46.24838" lon="-1.11722">
        <ele>5</ele>
        <time>2021-12-24T15:21:11Z</time>
      </trkpt>
      <trkpt lat="46.2483" lon="-1.11726">
        <ele>5.2</ele>
        <time>2021-12-24T15:21:13Z</time>
      </trkpt>
      <trkpt lat="46.24823" lon="-1.1173">
        <ele>5.2</ele>
        <time>2021-12-24T15:21:15Z</time>
      </trkpt>
      <trkpt lat="46.24815" lon="-1.11734">
        <ele>5.4</ele>
        <time>2021-12-24T15:21:17Z</time>
      </trkpt>
      <trkpt lat="46.24809" lon="-1.11738">
        <ele>5.4</ele>
        <time>2021-12-24T15:21:19Z</time>
      </trkpt>
      <trkpt lat="46.24802" lon="-1.11742">
        <ele>5.6</ele>
        <time>2021-12-24T15:21:21Z</time>
      </trkpt>
      <trkpt lat="46.24795" lon="-1.11745">
        <ele>5.8</ele>
        <time>2021-12-24T15:21:23Z</time>
      </trkpt>
      <trkpt lat="46.24787" lon="-1.11749">
        <ele>5.8</ele>
        <time>2021-12-24T15:21:25Z</time>
      </trkpt>
      <trkpt lat="46.2478" lon="-1.11753">
        <ele>6</ele>
        <time>2021-12-24T15:21:27Z</time>
      </trkpt>
      <trkpt lat="46.24773" lon="-1.11759">
        <ele>6.2</ele>
        <time>2021-12-24T15:21:29Z</time>
      </trkpt>
      <trkpt lat="46.24766" lon="-1.11764">
        <ele>6.4</ele>
        <time>2021-12-24T15:21:31Z</time>
      </trkpt>
      <trkpt lat="46.24759" lon="-1.11769">
        <ele>6.6</ele>
        <time>2021-12-24T15:21:33Z</time>
      </trkpt>
      <trkpt lat="46.24752" lon="-1.11775">
        <ele>6.6</ele>
        <time>2021-12-24T15:21:35Z</time>
      </trkpt>
      <trkpt lat="46.24745" lon="-1.1178">
        <ele>6.6</ele>
        <time>2021-12-24T15:21:37Z</time>
      </trkpt>
      <trkpt lat="46.24738" lon="-1.11787">
        <ele>6.8</ele>
        <time>2021-12-24T15:21:39Z</time>
      </trkpt>
      <trkpt lat="46.24731" lon="-1.11794">
        <ele>7</ele>
        <time>2021-12-24T15:21:41Z</time>
      </trkpt>
      <trkpt lat="46.24728" lon="-1.11797">
        <ele>7</ele>
        <time>2021-12-24T15:21:42Z</time>
      </trkpt>
      <trkpt lat="46.24724" lon="-1.118">
        <ele>7</ele>
        <time>2021-12-24T15:21:43Z</time>
      </trkpt>
      <trkpt lat="46.24717" lon="-1.11807">
        <ele>7</ele>
        <time>2021-12-24T15:21:45Z</time>
      </trkpt>
      <trkpt lat="46.2471" lon="-1.11814">
        <ele>7.2</ele>
        <time>2021-12-24T15:21:47Z</time>
      </trkpt>
      <trkpt lat="46.24703" lon="-1.11821">
        <ele>7.2</ele>
        <time>2021-12-24T15:21:49Z</time>
      </trkpt>
      <trkpt lat="46.24699" lon="-1.11825">
        <ele>7.2</ele>
        <time>2021-12-24T15:21:50Z</time>
      </trkpt>
      <trkpt lat="46.24696" lon="-1.11828">
        <ele>7.4</ele>
        <time>2021-12-24T15:21:51Z</time>
      </trkpt>
      <trkpt lat="46.2469" lon="-1.11836">
        <ele>7.6</ele>
        <time>2021-12-24T15:21:53Z</time>
      </trkpt>
      <trkpt lat="46.24684" lon="-1.11841">
        <ele>7.6</ele>
        <time>2021-12-24T15:21:55Z</time>
      </trkpt>
      <trkpt lat="46.24684" lon="-1.11843">
        <ele>7.6</ele>
        <time>2021-12-24T15:21:56Z</time>
      </trkpt>
      <trkpt lat="46.24683" lon="-1.11845">
        <ele>7.6</ele>
        <time>2021-12-24T15:21:57Z</time>
      </trkpt>
      <trkpt lat="46.24682" lon="-1.11845">
        <ele>7.6</ele>
        <time>2021-12-24T15:21:59Z</time>
      </trkpt>
      <trkpt lat="46.24679" lon="-1.11847">
        <ele>8.6</ele>
        <time>2021-12-24T15:22:46Z</time>
      </trkpt>
      <trkpt lat="46.24677" lon="-1.11849">
        <ele>8.6</ele>
        <time>2021-12-24T15:22:47Z</time>
      </trkpt>
      <trkpt lat="46.24672" lon="-1.11854">
        <ele>8.6</ele>
        <time>2021-12-24T15:22:49Z</time>
      </trkpt>
      <trkpt lat="46.24664" lon="-1.11859">
        <ele>8.6</ele>
        <time>2021-12-24T15:22:51Z</time>
      </trkpt>
      <trkpt lat="46.24657" lon="-1.11865">
        <ele>8.6</ele>
        <time>2021-12-24T15:22:53Z</time>
      </trkpt>
      <trkpt lat="46.24649" lon="-1.11871">
        <ele>8.6</ele>
        <time>2021-12-24T15:22:55Z</time>
      </trkpt>
      <trkpt lat="46.24643" lon="-1.1188">
        <ele>8.6</ele>
        <time>2021-12-24T15:22:57Z</time>
      </trkpt>
      <trkpt lat="46.24635" lon="-1.11887">
        <ele>8.6</ele>
        <time>2021-12-24T15:22:59Z</time>
      </trkpt>
      <trkpt lat="46.24626" lon="-1.11892">
        <ele>8.6</ele>
        <time>2021-12-24T15:23:01Z</time>
      </trkpt>
      <trkpt lat="46.24617" lon="-1.11899">
        <ele>8.8</ele>
        <time>2021-12-24T15:23:03Z</time>
      </trkpt>
      <trkpt lat="46.2461" lon="-1.11906">
        <ele>8.8</ele>
        <time>2021-12-24T15:23:05Z</time>
      </trkpt>
      <trkpt lat="46.24601" lon="-1.11912">
        <ele>9</ele>
        <time>2021-12-24T15:23:07Z</time>
      </trkpt>
      <trkpt lat="46.24592" lon="-1.11919">
        <ele>9</ele>
        <time>2021-12-24T15:23:09Z</time>
      </trkpt>
      <trkpt lat="46.24584" lon="-1.11924">
        <ele>9</ele>
        <time>2021-12-24T15:23:11Z</time>
      </trkpt>
      <trkpt lat="46.24579" lon="-1.11927">
        <ele>9</ele>
        <time>2021-12-24T15:23:12Z</time>
      </trkpt>
      <trkpt lat="46.24575" lon="-1.1193">
        <ele>9</ele>
        <time>2021-12-24T15:23:13Z</time>
      </trkpt>
      <trkpt lat="46.24566" lon="-1.11934">
        <ele>9</ele>
        <time>2021-12-24T15:23:15Z</time>
      </trkpt>
      <trkpt lat="46.24557" lon="-1.1194">
        <ele>9.2</ele>
        <time>2021-12-24T15:23:17Z</time>
      </trkpt>
      <trkpt lat="46.24548" lon="-1.11945">
        <ele>9.2</ele>
        <time>2021-12-24T15:23:19Z</time>
      </trkpt>
      <trkpt lat="46.2454" lon="-1.1195">
        <ele>9.4</ele>
        <time>2021-12-24T15:23:21Z</time>
      </trkpt>
      <trkpt lat="46.24531" lon="-1.11955">
        <ele>9.4</ele>
        <time>2021-12-24T15:23:23Z</time>
      </trkpt>
      <trkpt lat="46.24523" lon="-1.11961">
        <ele>9.6</ele>
        <time>2021-12-24T15:23:25Z</time>
      </trkpt>
      <trkpt lat="46.24514" lon="-1.11966">
        <ele>9.6</ele>
        <time>2021-12-24T15:23:27Z</time>
      </trkpt>
      <trkpt lat="46.24505" lon="-1.11972">
        <ele>9.6</ele>
        <time>2021-12-24T15:23:29Z</time>
      </trkpt>
      <trkpt lat="46.24496" lon="-1.11978">
        <ele>9.8</ele>
        <time>2021-12-24T15:23:31Z</time>
      </trkpt>
      <trkpt lat="46.24488" lon="-1.11984">
        <ele>9.8</ele>
        <time>2021-12-24T15:23:33Z</time>
      </trkpt>
      <trkpt lat="46.24479" lon="-1.11989">
        <ele>10</ele>
        <time>2021-12-24T15:23:35Z</time>
      </trkpt>
      <trkpt lat="46.24475" lon="-1.11991">
        <ele>10</ele>
        <time>2021-12-24T15:23:36Z</time>
      </trkpt>
      <trkpt lat="46.24471" lon="-1.11994">
        <ele>10</ele>
        <time>2021-12-24T15:23:37Z</time>
      </trkpt>
      <trkpt lat="46.24462" lon="-1.12">
        <ele>10</ele>
        <time>2021-12-24T15:23:39Z</time>
      </trkpt>
      <trkpt lat="46.24455" lon="-1.12008">
        <ele>10.2</ele>
        <time>2021-12-24T15:23:41Z</time>
      </trkpt>
      <trkpt lat="46.24452" lon="-1.12014">
        <ele>10</ele>
        <time>2021-12-24T15:23:42Z</time>
      </trkpt>
      <trkpt lat="46.24452" lon="-1.12021">
        <ele>10.2</ele>
        <time>2021-12-24T15:23:43Z</time>
      </trkpt>
      <trkpt lat="46.24451" lon="-1.12034">
        <ele>10.2</ele>
        <time>2021-12-24T15:23:45Z</time>
      </trkpt>
      <trkpt lat="46.24451" lon="-1.12048">
        <ele>10.2</ele>
        <time>2021-12-24T15:23:47Z</time>
      </trkpt>
      <trkpt lat="46.24449" lon="-1.12062">
        <ele>10.2</ele>
        <time>2021-12-24T15:23:49Z</time>
      </trkpt>
      <trkpt lat="46.24449" lon="-1.12076">
        <ele>10.2</ele>
        <time>2021-12-24T15:23:51Z</time>
      </trkpt>
      <trkpt lat="46.24447" lon="-1.12091">
        <ele>10.4</ele>
        <time>2021-12-24T15:23:53Z</time>
      </trkpt>
      <trkpt lat="46.24446" lon="-1.12106">
        <ele>10.2</ele>
        <time>2021-12-24T15:23:55Z</time>
      </trkpt>
      <trkpt lat="46.24446" lon="-1.12119">
        <ele>10.2</ele>
        <time>2021-12-24T15:23:57Z</time>
      </trkpt>
      <trkpt lat="46.24445" lon="-1.12134">
        <ele>10.2</ele>
        <time>2021-12-24T15:23:59Z</time>
      </trkpt>
      <trkpt lat="46.24444" lon="-1.1215">
        <ele>10.2</ele>
        <time>2021-12-24T15:24:01Z</time>
      </trkpt>
      <trkpt lat="46.24444" lon="-1.12158">
        <ele>10.2</ele>
        <time>2021-12-24T15:24:02Z</time>
      </trkpt>
      <trkpt lat="46.24443" lon="-1.12167">
        <ele>10.2</ele>
        <time>2021-12-24T15:24:03Z</time>
      </trkpt>
      <trkpt lat="46.24443" lon="-1.12183">
        <ele>10.4</ele>
        <time>2021-12-24T15:24:05Z</time>
      </trkpt>
      <trkpt lat="46.24445" lon="-1.122">
        <ele>10.2</ele>
        <time>2021-12-24T15:24:07Z</time>
      </trkpt>
      <trkpt lat="46.24446" lon="-1.12216">
        <ele>10.2</ele>
        <time>2021-12-24T15:24:09Z</time>
      </trkpt>
      <trkpt lat="46.24447" lon="-1.12232">
        <ele>10</ele>
        <time>2021-12-24T15:24:11Z</time>
      </trkpt>
      <trkpt lat="46.24448" lon="-1.12246">
        <ele>10</ele>
        <time>2021-12-24T15:24:13Z</time>
      </trkpt>
      <trkpt lat="46.24448" lon="-1.12255">
        <ele>10</ele>
        <time>2021-12-24T15:24:15Z</time>
      </trkpt>
      <trkpt lat="46.24444" lon="-1.12258">
        <ele>10</ele>
        <time>2021-12-24T15:24:17Z</time>
      </trkpt>
      <trkpt lat="46.2444" lon="-1.12259">
        <ele>10</ele>
        <time>2021-12-24T15:24:18Z</time>
      </trkpt>
      <trkpt lat="46.24435" lon="-1.1226">
        <ele>10</ele>
        <time>2021-12-24T15:24:19Z</time>
      </trkpt>
      <trkpt lat="46.24425" lon="-1.12263">
        <ele>9.8</ele>
        <time>2021-12-24T15:24:21Z</time>
      </trkpt>
      <trkpt lat="46.24415" lon="-1.12268">
        <ele>9.8</ele>
        <time>2021-12-24T15:24:23Z</time>
      </trkpt>
      <trkpt lat="46.24405" lon="-1.12273">
        <ele>9.8</ele>
        <time>2021-12-24T15:24:25Z</time>
      </trkpt>
      <trkpt lat="46.24393" lon="-1.12279">
        <ele>9.8</ele>
        <time>2021-12-24T15:24:27Z</time>
      </trkpt>
      <trkpt lat="46.24381" lon="-1.12283">
        <ele>9.8</ele>
        <time>2021-12-24T15:24:29Z</time>
      </trkpt>
      <trkpt lat="46.24375" lon="-1.12286">
        <ele>9.8</ele>
        <time>2021-12-24T15:24:30Z</time>
      </trkpt>
      <trkpt lat="46.24369" lon="-1.12288">
        <ele>9.8</ele>
        <time>2021-12-24T15:24:31Z</time>
      </trkpt>
      <trkpt lat="46.24357" lon="-1.12293">
        <ele>9.8</ele>
        <time>2021-12-24T15:24:33Z</time>
      </trkpt>
      <trkpt lat="46.24346" lon="-1.12298">
        <ele>9.6</ele>
        <time>2021-12-24T15:24:35Z</time>
      </trkpt>
      <trkpt lat="46.24336" lon="-1.12303">
        <ele>9.6</ele>
        <time>2021-12-24T15:24:37Z</time>
      </trkpt>
      <trkpt lat="46.24325" lon="-1.12307">
        <ele>9.6</ele>
        <time>2021-12-24T15:24:39Z</time>
      </trkpt>
      <trkpt lat="46.24314" lon="-1.12311">
        <ele>9.6</ele>
        <time>2021-12-24T15:24:41Z</time>
      </trkpt>
      <trkpt lat="46.24305" lon="-1.12316">
        <ele>9.4</ele>
        <time>2021-12-24T15:24:43Z</time>
      </trkpt>
      <trkpt lat="46.24303" lon="-1.12321">
        <ele>9.4</ele>
        <time>2021-12-24T15:24:44Z</time>
      </trkpt>
      <trkpt lat="46.24304" lon="-1.12328">
        <ele>9.4</ele>
        <time>2021-12-24T15:24:45Z</time>
      </trkpt>
      <trkpt lat="46.24308" lon="-1.12343">
        <ele>9.2</ele>
        <time>2021-12-24T15:24:47Z</time>
      </trkpt>
      <trkpt lat="46.24311" lon="-1.12358">
        <ele>9.2</ele>
        <time>2021-12-24T15:24:49Z</time>
      </trkpt>
      <trkpt lat="46.24313" lon="-1.12374">
        <ele>9.2</ele>
        <time>2021-12-24T15:24:51Z</time>
      </trkpt>
      <trkpt lat="46.24316" lon="-1.12389">
        <ele>9.2</ele>
        <time>2021-12-24T15:24:53Z</time>
      </trkpt>
      <trkpt lat="46.24317" lon="-1.12397">
        <ele>9.2</ele>
        <time>2021-12-24T15:24:54Z</time>
      </trkpt>
      <trkpt lat="46.24316" lon="-1.12404">
        <ele>9</ele>
        <time>2021-12-24T15:24:55Z</time>
      </trkpt>
      <trkpt lat="46.24312" lon="-1.12409">
        <ele>9</ele>
        <time>2021-12-24T15:24:56Z</time>
      </trkpt>
      <trkpt lat="46.24307" lon="-1.1241">
        <ele>9</ele>
        <time>2021-12-24T15:24:57Z</time>
      </trkpt>
      <trkpt lat="46.24296" lon="-1.12413">
        <ele>8.8</ele>
        <time>2021-12-24T15:24:59Z</time>
      </trkpt>
      <trkpt lat="46.24285" lon="-1.12416">
        <ele>8.8</ele>
        <time>2021-12-24T15:25:01Z</time>
      </trkpt>
      <trkpt lat="46.24273" lon="-1.12419">
        <ele>8.8</ele>
        <time>2021-12-24T15:25:03Z</time>
      </trkpt>
      <trkpt lat="46.24262" lon="-1.12423">
        <ele>8.8</ele>
        <time>2021-12-24T15:25:05Z</time>
      </trkpt>
      <trkpt lat="46.24252" lon="-1.12427">
        <ele>8.8</ele>
        <time>2021-12-24T15:25:07Z</time>
      </trkpt>
      <trkpt lat="46.24242" lon="-1.1243">
        <ele>8.8</ele>
        <time>2021-12-24T15:25:09Z</time>
      </trkpt>
      <trkpt lat="46.24233" lon="-1.12433">
        <ele>8.8</ele>
        <time>2021-12-24T15:25:11Z</time>
      </trkpt>
      <trkpt lat="46.24224" lon="-1.12436">
        <ele>8.8</ele>
        <time>2021-12-24T15:25:13Z</time>
      </trkpt>
      <trkpt lat="46.24215" lon="-1.12439">
        <ele>9</ele>
        <time>2021-12-24T15:25:15Z</time>
      </trkpt>
      <trkpt lat="46.24208" lon="-1.12441">
        <ele>8.8</ele>
        <time>2021-12-24T15:25:17Z</time>
      </trkpt>
      <trkpt lat="46.242" lon="-1.12444">
        <ele>9.2</ele>
        <time>2021-12-24T15:25:19Z</time>
      </trkpt>
      <trkpt lat="46.24193" lon="-1.12446">
        <ele>9.2</ele>
        <time>2021-12-24T15:25:21Z</time>
      </trkpt>
      <trkpt lat="46.24187" lon="-1.12448">
        <ele>9.2</ele>
        <time>2021-12-24T15:25:23Z</time>
      </trkpt>
      <trkpt lat="46.2418" lon="-1.12451">
        <ele>9.4</ele>
        <time>2021-12-24T15:25:25Z</time>
      </trkpt>
      <trkpt lat="46.24172" lon="-1.12453">
        <ele>9.4</ele>
        <time>2021-12-24T15:25:27Z</time>
      </trkpt>
      <trkpt lat="46.24166" lon="-1.12455">
        <ele>9.6</ele>
        <time>2021-12-24T15:25:29Z</time>
      </trkpt>
      <trkpt lat="46.24159" lon="-1.12457">
        <ele>9.6</ele>
        <time>2021-12-24T15:25:31Z</time>
      </trkpt>
      <trkpt lat="46.24153" lon="-1.12459">
        <ele>9.8</ele>
        <time>2021-12-24T15:25:33Z</time>
      </trkpt>
      <trkpt lat="46.24147" lon="-1.12461">
        <ele>10</ele>
        <time>2021-12-24T15:25:35Z</time>
      </trkpt>
      <trkpt lat="46.2414" lon="-1.12464">
        <ele>10.2</ele>
        <time>2021-12-24T15:25:37Z</time>
      </trkpt>
      <trkpt lat="46.24138" lon="-1.12467">
        <ele>10.2</ele>
        <time>2021-12-24T15:25:38Z</time>
      </trkpt>
      <trkpt lat="46.24137" lon="-1.12471">
        <ele>10.4</ele>
        <time>2021-12-24T15:25:39Z</time>
      </trkpt>
      <trkpt lat="46.24138" lon="-1.12476">
        <ele>10.4</ele>
        <time>2021-12-24T15:25:40Z</time>
      </trkpt>
      <trkpt lat="46.24139" lon="-1.12481">
        <ele>10.4</ele>
        <time>2021-12-24T15:25:41Z</time>
      </trkpt>
      <trkpt lat="46.24142" lon="-1.12492">
        <ele>10.6</ele>
        <time>2021-12-24T15:25:43Z</time>
      </trkpt>
      <trkpt lat="46.24144" lon="-1.12505">
        <ele>10.6</ele>
        <time>2021-12-24T15:25:45Z</time>
      </trkpt>
      <trkpt lat="46.24147" lon="-1.12519">
        <ele>10.6</ele>
        <time>2021-12-24T15:25:47Z</time>
      </trkpt>
      <trkpt lat="46.24151" lon="-1.12535">
        <ele>10.6</ele>
        <time>2021-12-24T15:25:49Z</time>
      </trkpt>
      <trkpt lat="46.24152" lon="-1.12543">
        <ele>10.8</ele>
        <time>2021-12-24T15:25:50Z</time>
      </trkpt>
      <trkpt lat="46.24151" lon="-1.12551">
        <ele>10.8</ele>
        <time>2021-12-24T15:25:51Z</time>
      </trkpt>
      <trkpt lat="46.24147" lon="-1.12557">
        <ele>10.6</ele>
        <time>2021-12-24T15:25:52Z</time>
      </trkpt>
      <trkpt lat="46.24142" lon="-1.1256">
        <ele>10.6</ele>
        <time>2021-12-24T15:25:53Z</time>
      </trkpt>
      <trkpt lat="46.2413" lon="-1.12563">
        <ele>10.6</ele>
        <time>2021-12-24T15:25:55Z</time>
      </trkpt>
      <trkpt lat="46.24124" lon="-1.12565">
        <ele>10.6</ele>
        <time>2021-12-24T15:25:56Z</time>
      </trkpt>
      <trkpt lat="46.24118" lon="-1.12567">
        <ele>10.6</ele>
        <time>2021-12-24T15:25:57Z</time>
      </trkpt>
      <trkpt lat="46.24106" lon="-1.12571">
        <ele>10.6</ele>
        <time>2021-12-24T15:25:59Z</time>
      </trkpt>
      <trkpt lat="46.24095" lon="-1.12576">
        <ele>10.6</ele>
        <time>2021-12-24T15:26:01Z</time>
      </trkpt>
      <trkpt lat="46.24085" lon="-1.1258">
        <ele>10.6</ele>
        <time>2021-12-24T15:26:03Z</time>
      </trkpt>
      <trkpt lat="46.24074" lon="-1.12584">
        <ele>10.6</ele>
        <time>2021-12-24T15:26:05Z</time>
      </trkpt>
      <trkpt lat="46.24065" lon="-1.12589">
        <ele>10.8</ele>
        <time>2021-12-24T15:26:07Z</time>
      </trkpt>
      <trkpt lat="46.24055" lon="-1.12592">
        <ele>10.8</ele>
        <time>2021-12-24T15:26:09Z</time>
      </trkpt>
      <trkpt lat="46.2405" lon="-1.12594">
        <ele>10.8</ele>
        <time>2021-12-24T15:26:10Z</time>
      </trkpt>
      <trkpt lat="46.24046" lon="-1.12596">
        <ele>10.8</ele>
        <time>2021-12-24T15:26:11Z</time>
      </trkpt>
      <trkpt lat="46.24036" lon="-1.126">
        <ele>10.8</ele>
        <time>2021-12-24T15:26:13Z</time>
      </trkpt>
      <trkpt lat="46.24025" lon="-1.12603">
        <ele>10.8</ele>
        <time>2021-12-24T15:26:15Z</time>
      </trkpt>
      <trkpt lat="46.24014" lon="-1.12607">
        <ele>10.8</ele>
        <time>2021-12-24T15:26:17Z</time>
      </trkpt>
      <trkpt lat="46.24004" lon="-1.12612">
        <ele>10.8</ele>
        <time>2021-12-24T15:26:19Z</time>
      </trkpt>
      <trkpt lat="46.23993" lon="-1.12617">
        <ele>10.8</ele>
        <time>2021-12-24T15:26:21Z</time>
      </trkpt>
      <trkpt lat="46.23981" lon="-1.12621">
        <ele>10.8</ele>
        <time>2021-12-24T15:26:23Z</time>
      </trkpt>
      <trkpt lat="46.23969" lon="-1.12625">
        <ele>10.8</ele>
        <time>2021-12-24T15:26:25Z</time>
      </trkpt>
      <trkpt lat="46.23957" lon="-1.12629">
        <ele>10.8</ele>
        <time>2021-12-24T15:26:27Z</time>
      </trkpt>
      <trkpt lat="46.23945" lon="-1.12634">
        <ele>10.8</ele>
        <time>2021-12-24T15:26:29Z</time>
      </trkpt>
      <trkpt lat="46.23934" lon="-1.12639">
        <ele>10.8</ele>
        <time>2021-12-24T15:26:31Z</time>
      </trkpt>
      <trkpt lat="46.23923" lon="-1.12643">
        <ele>10.8</ele>
        <time>2021-12-24T15:26:33Z</time>
      </trkpt>
      <trkpt lat="46.23912" lon="-1.12649">
        <ele>10.8</ele>
        <time>2021-12-24T15:26:35Z</time>
      </trkpt>
      <trkpt lat="46.23902" lon="-1.12653">
        <ele>10.8</ele>
        <time>2021-12-24T15:26:37Z</time>
      </trkpt>
      <trkpt lat="46.23892" lon="-1.12657">
        <ele>10.8</ele>
        <time>2021-12-24T15:26:39Z</time>
      </trkpt>
      <trkpt lat="46.23887" lon="-1.12659">
        <ele>10.8</ele>
        <time>2021-12-24T15:26:40Z</time>
      </trkpt>
      <trkpt lat="46.23883" lon="-1.1266">
        <ele>10.6</ele>
        <time>2021-12-24T15:26:41Z</time>
      </trkpt>
      <trkpt lat="46.23874" lon="-1.12663">
        <ele>10.8</ele>
        <time>2021-12-24T15:26:43Z</time>
      </trkpt>
      <trkpt lat="46.23867" lon="-1.12666">
        <ele>10.8</ele>
        <time>2021-12-24T15:26:45Z</time>
      </trkpt>
      <trkpt lat="46.2386" lon="-1.1267">
        <ele>11</ele>
        <time>2021-12-24T15:26:47Z</time>
      </trkpt>
      <trkpt lat="46.23852" lon="-1.12673">
        <ele>11</ele>
        <time>2021-12-24T15:26:49Z</time>
      </trkpt>
      <trkpt lat="46.23843" lon="-1.12676">
        <ele>11</ele>
        <time>2021-12-24T15:26:51Z</time>
      </trkpt>
      <trkpt lat="46.23835" lon="-1.12679">
        <ele>11.2</ele>
        <time>2021-12-24T15:26:53Z</time>
      </trkpt>
      <trkpt lat="46.23826" lon="-1.12683">
        <ele>11.2</ele>
        <time>2021-12-24T15:26:55Z</time>
      </trkpt>
      <trkpt lat="46.23822" lon="-1.12684">
        <ele>11.2</ele>
        <time>2021-12-24T15:26:56Z</time>
      </trkpt>
      <trkpt lat="46.23817" lon="-1.12686">
        <ele>11.2</ele>
        <time>2021-12-24T15:26:57Z</time>
      </trkpt>
      <trkpt lat="46.23808" lon="-1.12689">
        <ele>11.4</ele>
        <time>2021-12-24T15:26:59Z</time>
      </trkpt>
      <trkpt lat="46.23798" lon="-1.12693">
        <ele>11.6</ele>
        <time>2021-12-24T15:27:01Z</time>
      </trkpt>
      <trkpt lat="46.23789" lon="-1.12697">
        <ele>11.6</ele>
        <time>2021-12-24T15:27:03Z</time>
      </trkpt>
      <trkpt lat="46.2378" lon="-1.12699">
        <ele>11.8</ele>
        <time>2021-12-24T15:27:05Z</time>
      </trkpt>
      <trkpt lat="46.2377" lon="-1.12702">
        <ele>11.8</ele>
        <time>2021-12-24T15:27:07Z</time>
      </trkpt>
      <trkpt lat="46.23761" lon="-1.12704">
        <ele>11.8</ele>
        <time>2021-12-24T15:27:09Z</time>
      </trkpt>
      <trkpt lat="46.23752" lon="-1.12706">
        <ele>11.8</ele>
        <time>2021-12-24T15:27:11Z</time>
      </trkpt>
      <trkpt lat="46.23743" lon="-1.12708">
        <ele>12</ele>
        <time>2021-12-24T15:27:13Z</time>
      </trkpt>
      <trkpt lat="46.23734" lon="-1.1271">
        <ele>12</ele>
        <time>2021-12-24T15:27:15Z</time>
      </trkpt>
      <trkpt lat="46.23725" lon="-1.12712">
        <ele>12.2</ele>
        <time>2021-12-24T15:27:17Z</time>
      </trkpt>
      <trkpt lat="46.23721" lon="-1.12713">
        <ele>12.2</ele>
        <time>2021-12-24T15:27:18Z</time>
      </trkpt>
      <trkpt lat="46.23717" lon="-1.12714">
        <ele>12.2</ele>
        <time>2021-12-24T15:27:19Z</time>
      </trkpt>
      <trkpt lat="46.23713" lon="-1.12716">
        <ele>12.4</ele>
        <time>2021-12-24T15:27:20Z</time>
      </trkpt>
      <trkpt lat="46.23709" lon="-1.12719">
        <ele>12.4</ele>
        <time>2021-12-24T15:27:21Z</time>
      </trkpt>
      <trkpt lat="46.23701" lon="-1.12723">
        <ele>12.4</ele>
        <time>2021-12-24T15:27:23Z</time>
      </trkpt>
      <trkpt lat="46.23697" lon="-1.12726">
        <ele>12.6</ele>
        <time>2021-12-24T15:27:24Z</time>
      </trkpt>
      <trkpt lat="46.23693" lon="-1.12729">
        <ele>12.6</ele>
        <time>2021-12-24T15:27:25Z</time>
      </trkpt>
      <trkpt lat="46.23686" lon="-1.12734">
        <ele>12.8</ele>
        <time>2021-12-24T15:27:27Z</time>
      </trkpt>
      <trkpt lat="46.23679" lon="-1.12739">
        <ele>12.8</ele>
        <time>2021-12-24T15:27:29Z</time>
      </trkpt>
      <trkpt lat="46.23672" lon="-1.12745">
        <ele>13</ele>
        <time>2021-12-24T15:27:31Z</time>
      </trkpt>
      <trkpt lat="46.23668" lon="-1.12747">
        <ele>13.2</ele>
        <time>2021-12-24T15:27:32Z</time>
      </trkpt>
      <trkpt lat="46.23665" lon="-1.1275">
        <ele>13.2</ele>
        <time>2021-12-24T15:27:33Z</time>
      </trkpt>
      <trkpt lat="46.23657" lon="-1.12755">
        <ele>13.4</ele>
        <time>2021-12-24T15:27:35Z</time>
      </trkpt>
      <trkpt lat="46.23649" lon="-1.12761">
        <ele>13.6</ele>
        <time>2021-12-24T15:27:37Z</time>
      </trkpt>
      <trkpt lat="46.23641" lon="-1.12767">
        <ele>13.8</ele>
        <time>2021-12-24T15:27:39Z</time>
      </trkpt>
      <trkpt lat="46.23633" lon="-1.12773">
        <ele>13.8</ele>
        <time>2021-12-24T15:27:41Z</time>
      </trkpt>
      <trkpt lat="46.23623" lon="-1.12778">
        <ele>14</ele>
        <time>2021-12-24T15:27:43Z</time>
      </trkpt>
      <trkpt lat="46.23615" lon="-1.12785">
        <ele>14</ele>
        <time>2021-12-24T15:27:45Z</time>
      </trkpt>
      <trkpt lat="46.23606" lon="-1.12792">
        <ele>14.2</ele>
        <time>2021-12-24T15:27:47Z</time>
      </trkpt>
      <trkpt lat="46.23597" lon="-1.12798">
        <ele>14.2</ele>
        <time>2021-12-24T15:27:49Z</time>
      </trkpt>
      <trkpt lat="46.23588" lon="-1.12804">
        <ele>14.4</ele>
        <time>2021-12-24T15:27:51Z</time>
      </trkpt>
      <trkpt lat="46.23579" lon="-1.1281">
        <ele>14.6</ele>
        <time>2021-12-24T15:27:53Z</time>
      </trkpt>
      <trkpt lat="46.2357" lon="-1.12816">
        <ele>14.6</ele>
        <time>2021-12-24T15:27:55Z</time>
      </trkpt>
      <trkpt lat="46.23565" lon="-1.12819">
        <ele>14.8</ele>
        <time>2021-12-24T15:27:56Z</time>
      </trkpt>
      <trkpt lat="46.23561" lon="-1.12823">
        <ele>14.8</ele>
        <time>2021-12-24T15:27:57Z</time>
      </trkpt>
      <trkpt lat="46.23552" lon="-1.12829">
        <ele>15</ele>
        <time>2021-12-24T15:27:59Z</time>
      </trkpt>
      <trkpt lat="46.23543" lon="-1.12836">
        <ele>15</ele>
        <time>2021-12-24T15:28:01Z</time>
      </trkpt>
      <trkpt lat="46.23534" lon="-1.12843">
        <ele>15.2</ele>
        <time>2021-12-24T15:28:03Z</time>
      </trkpt>
      <trkpt lat="46.23524" lon="-1.12849">
        <ele>15.2</ele>
        <time>2021-12-24T15:28:05Z</time>
      </trkpt>
      <trkpt lat="46.23514" lon="-1.12855">
        <ele>15.2</ele>
        <time>2021-12-24T15:28:07Z</time>
      </trkpt>
      <trkpt lat="46.23504" lon="-1.12861">
        <ele>15.4</ele>
        <time>2021-12-24T15:28:09Z</time>
      </trkpt>
      <trkpt lat="46.23495" lon="-1.12868">
        <ele>15.6</ele>
        <time>2021-12-24T15:28:11Z</time>
      </trkpt>
      <trkpt lat="46.23485" lon="-1.12874">
        <ele>15.6</ele>
        <time>2021-12-24T15:28:13Z</time>
      </trkpt>
      <trkpt lat="46.23474" lon="-1.12881">
        <ele>15.8</ele>
        <time>2021-12-24T15:28:15Z</time>
      </trkpt>
      <trkpt lat="46.23464" lon="-1.12888">
        <ele>15.8</ele>
        <time>2021-12-24T15:28:17Z</time>
      </trkpt>
      <trkpt lat="46.23454" lon="-1.12896">
        <ele>16</ele>
        <time>2021-12-24T15:28:19Z</time>
      </trkpt>
      <trkpt lat="46.23443" lon="-1.12903">
        <ele>16</ele>
        <time>2021-12-24T15:28:21Z</time>
      </trkpt>
      <trkpt lat="46.23433" lon="-1.12909">
        <ele>16</ele>
        <time>2021-12-24T15:28:23Z</time>
      </trkpt>
      <trkpt lat="46.23428" lon="-1.12912">
        <ele>16</ele>
        <time>2021-12-24T15:28:24Z</time>
      </trkpt>
      <trkpt lat="46.23423" lon="-1.12917">
        <ele>16.2</ele>
        <time>2021-12-24T15:28:25Z</time>
      </trkpt>
      <trkpt lat="46.23413" lon="-1.12927">
        <ele>16.2</ele>
        <time>2021-12-24T15:28:27Z</time>
      </trkpt>
      <trkpt lat="46.23403" lon="-1.12937">
        <ele>16.2</ele>
        <time>2021-12-24T15:28:29Z</time>
      </trkpt>
      <trkpt lat="46.23398" lon="-1.12941">
        <ele>16.2</ele>
        <time>2021-12-24T15:28:30Z</time>
      </trkpt>
      <trkpt lat="46.23392" lon="-1.12944">
        <ele>16.2</ele>
        <time>2021-12-24T15:28:31Z</time>
      </trkpt>
      <trkpt lat="46.23385" lon="-1.12948">
        <ele>16.2</ele>
        <time>2021-12-24T15:28:32Z</time>
      </trkpt>
      <trkpt lat="46.23378" lon="-1.12952">
        <ele>16.2</ele>
        <time>2021-12-24T15:28:33Z</time>
      </trkpt>
      <trkpt lat="46.23365" lon="-1.1296">
        <ele>16.2</ele>
        <time>2021-12-24T15:28:35Z</time>
      </trkpt>
      <trkpt lat="46.23353" lon="-1.12968">
        <ele>16</ele>
        <time>2021-12-24T15:28:37Z</time>
      </trkpt>
      <trkpt lat="46.23341" lon="-1.12975">
        <ele>16</ele>
        <time>2021-12-24T15:28:39Z</time>
      </trkpt>
      <trkpt lat="46.23329" lon="-1.12979">
        <ele>16</ele>
        <time>2021-12-24T15:28:41Z</time>
      </trkpt>
      <trkpt lat="46.23316" lon="-1.12983">
        <ele>16.2</ele>
        <time>2021-12-24T15:28:43Z</time>
      </trkpt>
      <trkpt lat="46.23304" lon="-1.12987">
        <ele>16.2</ele>
        <time>2021-12-24T15:28:45Z</time>
      </trkpt>
      <trkpt lat="46.23291" lon="-1.12989">
        <ele>16.4</ele>
        <time>2021-12-24T15:28:47Z</time>
      </trkpt>
      <trkpt lat="46.23285" lon="-1.1299">
        <ele>16.2</ele>
        <time>2021-12-24T15:28:48Z</time>
      </trkpt>
      <trkpt lat="46.23279" lon="-1.1299">
        <ele>16.2</ele>
        <time>2021-12-24T15:28:49Z</time>
      </trkpt>
      <trkpt lat="46.23266" lon="-1.12989">
        <ele>16</ele>
        <time>2021-12-24T15:28:51Z</time>
      </trkpt>
      <trkpt lat="46.23254" lon="-1.12988">
        <ele>16</ele>
        <time>2021-12-24T15:28:53Z</time>
      </trkpt>
      <trkpt lat="46.23243" lon="-1.12987">
        <ele>16</ele>
        <time>2021-12-24T15:28:55Z</time>
      </trkpt>
      <trkpt lat="46.23232" lon="-1.12987">
        <ele>16</ele>
        <time>2021-12-24T15:28:57Z</time>
      </trkpt>
      <trkpt lat="46.23221" lon="-1.12988">
        <ele>16.2</ele>
        <time>2021-12-24T15:28:59Z</time>
      </trkpt>
      <trkpt lat="46.23215" lon="-1.12988">
        <ele>16</ele>
        <time>2021-12-24T15:29:00Z</time>
      </trkpt>
      <trkpt lat="46.2321" lon="-1.12989">
        <ele>16</ele>
        <time>2021-12-24T15:29:01Z</time>
      </trkpt>
      <trkpt lat="46.23199" lon="-1.12991">
        <ele>16</ele>
        <time>2021-12-24T15:29:03Z</time>
      </trkpt>
      <trkpt lat="46.23189" lon="-1.12994">
        <ele>15.8</ele>
        <time>2021-12-24T15:29:05Z</time>
      </trkpt>
      <trkpt lat="46.23184" lon="-1.12996">
        <ele>16</ele>
        <time>2021-12-24T15:29:06Z</time>
      </trkpt>
      <trkpt lat="46.2318" lon="-1.12997">
        <ele>16</ele>
        <time>2021-12-24T15:29:07Z</time>
      </trkpt>
      <trkpt lat="46.23172" lon="-1.13002">
        <ele>16</ele>
        <time>2021-12-24T15:29:09Z</time>
      </trkpt>
      <trkpt lat="46.23164" lon="-1.13007">
        <ele>16.2</ele>
        <time>2021-12-24T15:29:11Z</time>
      </trkpt>
      <trkpt lat="46.23156" lon="-1.13012">
        <ele>16.2</ele>
        <time>2021-12-24T15:29:13Z</time>
      </trkpt>
      <trkpt lat="46.23148" lon="-1.13019">
        <ele>16.2</ele>
        <time>2021-12-24T15:29:15Z</time>
      </trkpt>
      <trkpt lat="46.23141" lon="-1.13026">
        <ele>16.4</ele>
        <time>2021-12-24T15:29:17Z</time>
      </trkpt>
      <trkpt lat="46.23134" lon="-1.13035">
        <ele>16.4</ele>
        <time>2021-12-24T15:29:19Z</time>
      </trkpt>
      <trkpt lat="46.2313" lon="-1.13039">
        <ele>16.4</ele>
        <time>2021-12-24T15:29:20Z</time>
      </trkpt>
      <trkpt lat="46.23127" lon="-1.13043">
        <ele>16.4</ele>
        <time>2021-12-24T15:29:21Z</time>
      </trkpt>
      <trkpt lat="46.23118" lon="-1.13047">
        <ele>16.4</ele>
        <time>2021-12-24T15:29:23Z</time>
      </trkpt>
      <trkpt lat="46.23114" lon="-1.13049">
        <ele>16.4</ele>
        <time>2021-12-24T15:29:24Z</time>
      </trkpt>
      <trkpt lat="46.23109" lon="-1.13051">
        <ele>16.4</ele>
        <time>2021-12-24T15:29:25Z</time>
      </trkpt>
      <trkpt lat="46.23099" lon="-1.13055">
        <ele>16.6</ele>
        <time>2021-12-24T15:29:27Z</time>
      </trkpt>
      <trkpt lat="46.23088" lon="-1.13056">
        <ele>16.8</ele>
        <time>2021-12-24T15:29:29Z</time>
      </trkpt>
      <trkpt lat="46.23082" lon="-1.13058">
        <ele>16.8</ele>
        <time>2021-12-24T15:29:30Z</time>
      </trkpt>
      <trkpt lat="46.23076" lon="-1.1306">
        <ele>16.8</ele>
        <time>2021-12-24T15:29:31Z</time>
      </trkpt>
      <trkpt lat="46.23065" lon="-1.13065">
        <ele>16.8</ele>
        <time>2021-12-24T15:29:33Z</time>
      </trkpt>
      <trkpt lat="46.23053" lon="-1.1307">
        <ele>16.8</ele>
        <time>2021-12-24T15:29:35Z</time>
      </trkpt>
      <trkpt lat="46.23048" lon="-1.13074">
        <ele>16.8</ele>
        <time>2021-12-24T15:29:36Z</time>
      </trkpt>
      <trkpt lat="46.23042" lon="-1.13078">
        <ele>16.8</ele>
        <time>2021-12-24T15:29:37Z</time>
      </trkpt>
      <trkpt lat="46.23029" lon="-1.13085">
        <ele>16.8</ele>
        <time>2021-12-24T15:29:39Z</time>
      </trkpt>
      <trkpt lat="46.23016" lon="-1.13091">
        <ele>17</ele>
        <time>2021-12-24T15:29:41Z</time>
      </trkpt>
      <trkpt lat="46.23004" lon="-1.13096">
        <ele>17</ele>
        <time>2021-12-24T15:29:43Z</time>
      </trkpt>
      <trkpt lat="46.22991" lon="-1.131">
        <ele>17</ele>
        <time>2021-12-24T15:29:45Z</time>
      </trkpt>
      <trkpt lat="46.22979" lon="-1.13106">
        <ele>17</ele>
        <time>2021-12-24T15:29:47Z</time>
      </trkpt>
      <trkpt lat="46.22974" lon="-1.13111">
        <ele>17</ele>
        <time>2021-12-24T15:29:48Z</time>
      </trkpt>
      <trkpt lat="46.22971" lon="-1.13119">
        <ele>17</ele>
        <time>2021-12-24T15:29:49Z</time>
      </trkpt>
      <trkpt lat="46.2297" lon="-1.13138">
        <ele>17</ele>
        <time>2021-12-24T15:29:51Z</time>
      </trkpt>
      <trkpt lat="46.22969" lon="-1.13156">
        <ele>17</ele>
        <time>2021-12-24T15:29:53Z</time>
      </trkpt>
      <trkpt lat="46.22968" lon="-1.13173">
        <ele>16.6</ele>
        <time>2021-12-24T15:29:55Z</time>
      </trkpt>
      <trkpt lat="46.22967" lon="-1.13191">
        <ele>16.6</ele>
        <time>2021-12-24T15:29:57Z</time>
      </trkpt>
      <trkpt lat="46.22966" lon="-1.13208">
        <ele>16.6</ele>
        <time>2021-12-24T15:29:59Z</time>
      </trkpt>
      <trkpt lat="46.22965" lon="-1.13226">
        <ele>16.6</ele>
        <time>2021-12-24T15:30:01Z</time>
      </trkpt>
      <trkpt lat="46.2296" lon="-1.13242">
        <ele>16.4</ele>
        <time>2021-12-24T15:30:03Z</time>
      </trkpt>
      <trkpt lat="46.22951" lon="-1.13257">
        <ele>16.4</ele>
        <time>2021-12-24T15:30:05Z</time>
      </trkpt>
      <trkpt lat="46.22942" lon="-1.13273">
        <ele>16.2</ele>
        <time>2021-12-24T15:30:07Z</time>
      </trkpt>
      <trkpt lat="46.22938" lon="-1.13282">
        <ele>16.2</ele>
        <time>2021-12-24T15:30:08Z</time>
      </trkpt>
      <trkpt lat="46.22934" lon="-1.13292">
        <ele>16</ele>
        <time>2021-12-24T15:30:09Z</time>
      </trkpt>
      <trkpt lat="46.22926" lon="-1.13311">
        <ele>15.6</ele>
        <time>2021-12-24T15:30:11Z</time>
      </trkpt>
      <trkpt lat="46.22918" lon="-1.1333">
        <ele>15.4</ele>
        <time>2021-12-24T15:30:13Z</time>
      </trkpt>
      <trkpt lat="46.2291" lon="-1.1335">
        <ele>15.2</ele>
        <time>2021-12-24T15:30:15Z</time>
      </trkpt>
      <trkpt lat="46.22903" lon="-1.13369">
        <ele>15</ele>
        <time>2021-12-24T15:30:17Z</time>
      </trkpt>
      <trkpt lat="46.22896" lon="-1.13387">
        <ele>14.6</ele>
        <time>2021-12-24T15:30:19Z</time>
      </trkpt>
      <trkpt lat="46.22888" lon="-1.13405">
        <ele>14.4</ele>
        <time>2021-12-24T15:30:21Z</time>
      </trkpt>
      <trkpt lat="46.2288" lon="-1.13423">
        <ele>14.2</ele>
        <time>2021-12-24T15:30:23Z</time>
      </trkpt>
      <trkpt lat="46.22876" lon="-1.13431">
        <ele>14</ele>
        <time>2021-12-24T15:30:24Z</time>
      </trkpt>
      <trkpt lat="46.22871" lon="-1.13438">
        <ele>13.8</ele>
        <time>2021-12-24T15:30:25Z</time>
      </trkpt>
      <trkpt lat="46.22861" lon="-1.13451">
        <ele>13.6</ele>
        <time>2021-12-24T15:30:27Z</time>
      </trkpt>
      <trkpt lat="46.22851" lon="-1.13464">
        <ele>13.2</ele>
        <time>2021-12-24T15:30:29Z</time>
      </trkpt>
      <trkpt lat="46.22841" lon="-1.13477">
        <ele>13</ele>
        <time>2021-12-24T15:30:31Z</time>
      </trkpt>
      <trkpt lat="46.22832" lon="-1.1349">
        <ele>12.8</ele>
        <time>2021-12-24T15:30:33Z</time>
      </trkpt>
      <trkpt lat="46.22826" lon="-1.13497">
        <ele>12.8</ele>
        <time>2021-12-24T15:30:34Z</time>
      </trkpt>
      <trkpt lat="46.22821" lon="-1.13504">
        <ele>12.6</ele>
        <time>2021-12-24T15:30:35Z</time>
      </trkpt>
      <trkpt lat="46.2281" lon="-1.13518">
        <ele>12.4</ele>
        <time>2021-12-24T15:30:37Z</time>
      </trkpt>
      <trkpt lat="46.228" lon="-1.13532">
        <ele>12.2</ele>
        <time>2021-12-24T15:30:39Z</time>
      </trkpt>
      <trkpt lat="46.22788" lon="-1.13546">
        <ele>12</ele>
        <time>2021-12-24T15:30:41Z</time>
      </trkpt>
      <trkpt lat="46.22776" lon="-1.13558">
        <ele>11.8</ele>
        <time>2021-12-24T15:30:43Z</time>
      </trkpt>
      <trkpt lat="46.22764" lon="-1.13569">
        <ele>11.6</ele>
        <time>2021-12-24T15:30:45Z</time>
      </trkpt>
      <trkpt lat="46.22752" lon="-1.13582">
        <ele>11.4</ele>
        <time>2021-12-24T15:30:47Z</time>
      </trkpt>
      <trkpt lat="46.22741" lon="-1.13594">
        <ele>11.2</ele>
        <time>2021-12-24T15:30:49Z</time>
      </trkpt>
      <trkpt lat="46.22729" lon="-1.13605">
        <ele>11.2</ele>
        <time>2021-12-24T15:30:51Z</time>
      </trkpt>
      <trkpt lat="46.22717" lon="-1.13617">
        <ele>11.2</ele>
        <time>2021-12-24T15:30:53Z</time>
      </trkpt>
      <trkpt lat="46.22705" lon="-1.13628">
        <ele>11.2</ele>
        <time>2021-12-24T15:30:55Z</time>
      </trkpt>
      <trkpt lat="46.22692" lon="-1.13638">
        <ele>11</ele>
        <time>2021-12-24T15:30:57Z</time>
      </trkpt>
      <trkpt lat="46.22678" lon="-1.13646">
        <ele>10.8</ele>
        <time>2021-12-24T15:30:59Z</time>
      </trkpt>
      <trkpt lat="46.22672" lon="-1.1365">
        <ele>10.6</ele>
        <time>2021-12-24T15:31:00Z</time>
      </trkpt>
      <trkpt lat="46.22666" lon="-1.13655">
        <ele>10.6</ele>
        <time>2021-12-24T15:31:01Z</time>
      </trkpt>
      <trkpt lat="46.22653" lon="-1.13663">
        <ele>10.6</ele>
        <time>2021-12-24T15:31:03Z</time>
      </trkpt>
      <trkpt lat="46.2264" lon="-1.1367">
        <ele>10.4</ele>
        <time>2021-12-24T15:31:05Z</time>
      </trkpt>
      <trkpt lat="46.22627" lon="-1.13678">
        <ele>10.2</ele>
        <time>2021-12-24T15:31:07Z</time>
      </trkpt>
      <trkpt lat="46.22615" lon="-1.13686">
        <ele>10.2</ele>
        <time>2021-12-24T15:31:09Z</time>
      </trkpt>
      <trkpt lat="46.22603" lon="-1.13693">
        <ele>10</ele>
        <time>2021-12-24T15:31:11Z</time>
      </trkpt>
      <trkpt lat="46.22591" lon="-1.13701">
        <ele>9.8</ele>
        <time>2021-12-24T15:31:13Z</time>
      </trkpt>
      <trkpt lat="46.22579" lon="-1.13708">
        <ele>9.8</ele>
        <time>2021-12-24T15:31:15Z</time>
      </trkpt>
      <trkpt lat="46.22566" lon="-1.13715">
        <ele>9.6</ele>
        <time>2021-12-24T15:31:17Z</time>
      </trkpt>
      <trkpt lat="46.22553" lon="-1.13722">
        <ele>9.4</ele>
        <time>2021-12-24T15:31:19Z</time>
      </trkpt>
      <trkpt lat="46.22547" lon="-1.13726">
        <ele>9.4</ele>
        <time>2021-12-24T15:31:20Z</time>
      </trkpt>
      <trkpt lat="46.22541" lon="-1.13731">
        <ele>9.4</ele>
        <time>2021-12-24T15:31:21Z</time>
      </trkpt>
      <trkpt lat="46.22529" lon="-1.1374">
        <ele>9.2</ele>
        <time>2021-12-24T15:31:23Z</time>
      </trkpt>
      <trkpt lat="46.22518" lon="-1.13752">
        <ele>9</ele>
        <time>2021-12-24T15:31:25Z</time>
      </trkpt>
      <trkpt lat="46.22512" lon="-1.13757">
        <ele>9</ele>
        <time>2021-12-24T15:31:26Z</time>
      </trkpt>
      <trkpt lat="46.22507" lon="-1.13764">
        <ele>8.8</ele>
        <time>2021-12-24T15:31:27Z</time>
      </trkpt>
      <trkpt lat="46.22498" lon="-1.13778">
        <ele>9</ele>
        <time>2021-12-24T15:31:29Z</time>
      </trkpt>
      <trkpt lat="46.22488" lon="-1.13792">
        <ele>9</ele>
        <time>2021-12-24T15:31:31Z</time>
      </trkpt>
      <trkpt lat="46.2248" lon="-1.13806">
        <ele>9</ele>
        <time>2021-12-24T15:31:33Z</time>
      </trkpt>
      <trkpt lat="46.22473" lon="-1.1382">
        <ele>9</ele>
        <time>2021-12-24T15:31:35Z</time>
      </trkpt>
      <trkpt lat="46.22469" lon="-1.13826">
        <ele>9</ele>
        <time>2021-12-24T15:31:36Z</time>
      </trkpt>
      <trkpt lat="46.22467" lon="-1.13831">
        <ele>9</ele>
        <time>2021-12-24T15:31:37Z</time>
      </trkpt>
      <trkpt lat="46.22465" lon="-1.13834">
        <ele>9</ele>
        <time>2021-12-24T15:31:39Z</time>
      </trkpt>
      <trkpt lat="46.22465" lon="-1.13834">
        <ele>8.8</ele>
        <time>2021-12-24T15:31:40Z</time>
      </trkpt>
      <trkpt lat="46.22464" lon="-1.13837">
        <ele>8.6</ele>
        <time>2021-12-24T15:31:46Z</time>
      </trkpt>
      <trkpt lat="46.22464" lon="-1.13841">
        <ele>8.6</ele>
        <time>2021-12-24T15:31:47Z</time>
      </trkpt>
      <trkpt lat="46.22461" lon="-1.13848">
        <ele>8.4</ele>
        <time>2021-12-24T15:31:49Z</time>
      </trkpt>
      <trkpt lat="46.22456" lon="-1.13857">
        <ele>8.2</ele>
        <time>2021-12-24T15:31:51Z</time>
      </trkpt>
      <trkpt lat="46.22451" lon="-1.13868">
        <ele>7.8</ele>
        <time>2021-12-24T15:31:53Z</time>
      </trkpt>
      <trkpt lat="46.22446" lon="-1.13879">
        <ele>7.6</ele>
        <time>2021-12-24T15:31:55Z</time>
      </trkpt>
      <trkpt lat="46.22441" lon="-1.13891">
        <ele>7.2</ele>
        <time>2021-12-24T15:31:57Z</time>
      </trkpt>
      <trkpt lat="46.22439" lon="-1.13898">
        <ele>7</ele>
        <time>2021-12-24T15:31:58Z</time>
      </trkpt>
      <trkpt lat="46.22437" lon="-1.13905">
        <ele>7</ele>
        <time>2021-12-24T15:31:59Z</time>
      </trkpt>
      <trkpt lat="46.22432" lon="-1.13918">
        <ele>6.6</ele>
        <time>2021-12-24T15:32:01Z</time>
      </trkpt>
      <trkpt lat="46.22427" lon="-1.13932">
        <ele>6.4</ele>
        <time>2021-12-24T15:32:03Z</time>
      </trkpt>
      <trkpt lat="46.22423" lon="-1.13946">
        <ele>6.2</ele>
        <time>2021-12-24T15:32:05Z</time>
      </trkpt>
      <trkpt lat="46.22419" lon="-1.1396">
        <ele>6</ele>
        <time>2021-12-24T15:32:07Z</time>
      </trkpt>
      <trkpt lat="46.22415" lon="-1.13972">
        <ele>5.8</ele>
        <time>2021-12-24T15:32:09Z</time>
      </trkpt>
      <trkpt lat="46.22409" lon="-1.13978">
        <ele>5.6</ele>
        <time>2021-12-24T15:32:11Z</time>
      </trkpt>
      <trkpt lat="46.224" lon="-1.13981">
        <ele>5.6</ele>
        <time>2021-12-24T15:32:13Z</time>
      </trkpt>
      <trkpt lat="46.22389" lon="-1.13982">
        <ele>5.6</ele>
        <time>2021-12-24T15:32:15Z</time>
      </trkpt>
      <trkpt lat="46.22383" lon="-1.13983">
        <ele>5.6</ele>
        <time>2021-12-24T15:32:16Z</time>
      </trkpt>
      <trkpt lat="46.22377" lon="-1.13983">
        <ele>5.4</ele>
        <time>2021-12-24T15:32:17Z</time>
      </trkpt>
      <trkpt lat="46.22366" lon="-1.13984">
        <ele>5.4</ele>
        <time>2021-12-24T15:32:19Z</time>
      </trkpt>
      <trkpt lat="46.22356" lon="-1.13986">
        <ele>5.4</ele>
        <time>2021-12-24T15:32:21Z</time>
      </trkpt>
      <trkpt lat="46.22346" lon="-1.13988">
        <ele>5.4</ele>
        <time>2021-12-24T15:32:23Z</time>
      </trkpt>
      <trkpt lat="46.22335" lon="-1.13989">
        <ele>5.2</ele>
        <time>2021-12-24T15:32:25Z</time>
      </trkpt>
      <trkpt lat="46.2233" lon="-1.1399">
        <ele>5.2</ele>
        <time>2021-12-24T15:32:26Z</time>
      </trkpt>
      <trkpt lat="46.22325" lon="-1.13991">
        <ele>5.4</ele>
        <time>2021-12-24T15:32:27Z</time>
      </trkpt>
      <trkpt lat="46.22315" lon="-1.13993">
        <ele>5.2</ele>
        <time>2021-12-24T15:32:29Z</time>
      </trkpt>
      <trkpt lat="46.22305" lon="-1.13996">
        <ele>5.2</ele>
        <time>2021-12-24T15:32:31Z</time>
      </trkpt>
      <trkpt lat="46.22295" lon="-1.13998">
        <ele>5.2</ele>
        <time>2021-12-24T15:32:33Z</time>
      </trkpt>
      <trkpt lat="46.22285" lon="-1.13999">
        <ele>5.2</ele>
        <time>2021-12-24T15:32:35Z</time>
      </trkpt>
      <trkpt lat="46.22276" lon="-1.14002">
        <ele>5.2</ele>
        <time>2021-12-24T15:32:37Z</time>
      </trkpt>
      <trkpt lat="46.22267" lon="-1.14003">
        <ele>5.2</ele>
        <time>2021-12-24T15:32:39Z</time>
      </trkpt>
      <trkpt lat="46.22257" lon="-1.14005">
        <ele>5.2</ele>
        <time>2021-12-24T15:32:41Z</time>
      </trkpt>
      <trkpt lat="46.22247" lon="-1.14007">
        <ele>5.2</ele>
        <time>2021-12-24T15:32:43Z</time>
      </trkpt>
      <trkpt lat="46.22237" lon="-1.14009">
        <ele>5.2</ele>
        <time>2021-12-24T15:32:45Z</time>
      </trkpt>
      <trkpt lat="46.22227" lon="-1.14011">
        <ele>5</ele>
        <time>2021-12-24T15:32:47Z</time>
      </trkpt>
      <trkpt lat="46.22216" lon="-1.14012">
        <ele>5</ele>
        <time>2021-12-24T15:32:49Z</time>
      </trkpt>
      <trkpt lat="46.22205" lon="-1.14014">
        <ele>5</ele>
        <time>2021-12-24T15:32:51Z</time>
      </trkpt>
      <trkpt lat="46.22195" lon="-1.14016">
        <ele>5</ele>
        <time>2021-12-24T15:32:53Z</time>
      </trkpt>
      <trkpt lat="46.2219" lon="-1.14018">
        <ele>5</ele>
        <time>2021-12-24T15:32:54Z</time>
      </trkpt>
      <trkpt lat="46.22185" lon="-1.14019">
        <ele>5</ele>
        <time>2021-12-24T15:32:55Z</time>
      </trkpt>
      <trkpt lat="46.22174" lon="-1.1402">
        <ele>5</ele>
        <time>2021-12-24T15:32:57Z</time>
      </trkpt>
      <trkpt lat="46.22164" lon="-1.14022">
        <ele>4.8</ele>
        <time>2021-12-24T15:32:59Z</time>
      </trkpt>
      <trkpt lat="46.22154" lon="-1.14023">
        <ele>4.8</ele>
        <time>2021-12-24T15:33:01Z</time>
      </trkpt>
      <trkpt lat="46.22149" lon="-1.14024">
        <ele>4.8</ele>
        <time>2021-12-24T15:33:02Z</time>
      </trkpt>
      <trkpt lat="46.22144" lon="-1.14025">
        <ele>4.8</ele>
        <time>2021-12-24T15:33:03Z</time>
      </trkpt>
      <trkpt lat="46.22134" lon="-1.14027">
        <ele>4.8</ele>
        <time>2021-12-24T15:33:05Z</time>
      </trkpt>
      <trkpt lat="46.22124" lon="-1.14029">
        <ele>4.8</ele>
        <time>2021-12-24T15:33:07Z</time>
      </trkpt>
      <trkpt lat="46.22114" lon="-1.14031">
        <ele>4.8</ele>
        <time>2021-12-24T15:33:09Z</time>
      </trkpt>
      <trkpt lat="46.22109" lon="-1.14032">
        <ele>4.8</ele>
        <time>2021-12-24T15:33:10Z</time>
      </trkpt>
      <trkpt lat="46.22104" lon="-1.14033">
        <ele>4.8</ele>
        <time>2021-12-24T15:33:11Z</time>
      </trkpt>
      <trkpt lat="46.22094" lon="-1.14035">
        <ele>4.8</ele>
        <time>2021-12-24T15:33:13Z</time>
      </trkpt>
      <trkpt lat="46.22083" lon="-1.14037">
        <ele>4.8</ele>
        <time>2021-12-24T15:33:15Z</time>
      </trkpt>
      <trkpt lat="46.22073" lon="-1.14038">
        <ele>4.8</ele>
        <time>2021-12-24T15:33:17Z</time>
      </trkpt>
      <trkpt lat="46.22061" lon="-1.1404">
        <ele>4.6</ele>
        <time>2021-12-24T15:33:19Z</time>
      </trkpt>
      <trkpt lat="46.2205" lon="-1.14042">
        <ele>4.6</ele>
        <time>2021-12-24T15:33:21Z</time>
      </trkpt>
      <trkpt lat="46.2204" lon="-1.14043">
        <ele>4.6</ele>
        <time>2021-12-24T15:33:23Z</time>
      </trkpt>
      <trkpt lat="46.22029" lon="-1.14046">
        <ele>4.6</ele>
        <time>2021-12-24T15:33:25Z</time>
      </trkpt>
      <trkpt lat="46.22018" lon="-1.14047">
        <ele>4.6</ele>
        <time>2021-12-24T15:33:27Z</time>
      </trkpt>
      <trkpt lat="46.22007" lon="-1.1405">
        <ele>4.6</ele>
        <time>2021-12-24T15:33:29Z</time>
      </trkpt>
      <trkpt lat="46.21997" lon="-1.14052">
        <ele>4.6</ele>
        <time>2021-12-24T15:33:31Z</time>
      </trkpt>
      <trkpt lat="46.21986" lon="-1.14054">
        <ele>4.6</ele>
        <time>2021-12-24T15:33:33Z</time>
      </trkpt>
      <trkpt lat="46.21976" lon="-1.14056">
        <ele>4.6</ele>
        <time>2021-12-24T15:33:35Z</time>
      </trkpt>
      <trkpt lat="46.2197" lon="-1.14057">
        <ele>4.6</ele>
        <time>2021-12-24T15:33:36Z</time>
      </trkpt>
      <trkpt lat="46.21965" lon="-1.14058">
        <ele>4.6</ele>
        <time>2021-12-24T15:33:37Z</time>
      </trkpt>
      <trkpt lat="46.21954" lon="-1.1406">
        <ele>4.6</ele>
        <time>2021-12-24T15:33:39Z</time>
      </trkpt>
      <trkpt lat="46.21943" lon="-1.14061">
        <ele>4.6</ele>
        <time>2021-12-24T15:33:41Z</time>
      </trkpt>
      <trkpt lat="46.21931" lon="-1.14061">
        <ele>4.6</ele>
        <time>2021-12-24T15:33:43Z</time>
      </trkpt>
      <trkpt lat="46.21919" lon="-1.14061">
        <ele>4.6</ele>
        <time>2021-12-24T15:33:45Z</time>
      </trkpt>
      <trkpt lat="46.21907" lon="-1.14061">
        <ele>4.8</ele>
        <time>2021-12-24T15:33:47Z</time>
      </trkpt>
      <trkpt lat="46.21895" lon="-1.1406">
        <ele>4.6</ele>
        <time>2021-12-24T15:33:49Z</time>
      </trkpt>
      <trkpt lat="46.21883" lon="-1.1406">
        <ele>4.8</ele>
        <time>2021-12-24T15:33:51Z</time>
      </trkpt>
      <trkpt lat="46.21872" lon="-1.1406">
        <ele>4.6</ele>
        <time>2021-12-24T15:33:53Z</time>
      </trkpt>
      <trkpt lat="46.21861" lon="-1.14059">
        <ele>4.6</ele>
        <time>2021-12-24T15:33:55Z</time>
      </trkpt>
      <trkpt lat="46.21851" lon="-1.14059">
        <ele>4.8</ele>
        <time>2021-12-24T15:33:57Z</time>
      </trkpt>
      <trkpt lat="46.21847" lon="-1.14059">
        <ele>4.8</ele>
        <time>2021-12-24T15:33:58Z</time>
      </trkpt>
      <trkpt lat="46.21843" lon="-1.14059">
        <ele>4.8</ele>
        <time>2021-12-24T15:33:59Z</time>
      </trkpt>
      <trkpt lat="46.21834" lon="-1.14059">
        <ele>5</ele>
        <time>2021-12-24T15:34:01Z</time>
      </trkpt>
      <trkpt lat="46.21826" lon="-1.14059">
        <ele>5</ele>
        <time>2021-12-24T15:34:03Z</time>
      </trkpt>
      <trkpt lat="46.21818" lon="-1.14059">
        <ele>5</ele>
        <time>2021-12-24T15:34:05Z</time>
      </trkpt>
      <trkpt lat="46.21813" lon="-1.14059">
        <ele>5</ele>
        <time>2021-12-24T15:34:06Z</time>
      </trkpt>
      <trkpt lat="46.21809" lon="-1.14059">
        <ele>5</ele>
        <time>2021-12-24T15:34:07Z</time>
      </trkpt>
      <trkpt lat="46.218" lon="-1.14059">
        <ele>5</ele>
        <time>2021-12-24T15:34:09Z</time>
      </trkpt>
      <trkpt lat="46.21791" lon="-1.14059">
        <ele>5.2</ele>
        <time>2021-12-24T15:34:11Z</time>
      </trkpt>
      <trkpt lat="46.21782" lon="-1.1406">
        <ele>5.2</ele>
        <time>2021-12-24T15:34:13Z</time>
      </trkpt>
      <trkpt lat="46.21772" lon="-1.14059">
        <ele>5.2</ele>
        <time>2021-12-24T15:34:15Z</time>
      </trkpt>
      <trkpt lat="46.21761" lon="-1.1406">
        <ele>5.4</ele>
        <time>2021-12-24T15:34:17Z</time>
      </trkpt>
      <trkpt lat="46.21751" lon="-1.14059">
        <ele>5.4</ele>
        <time>2021-12-24T15:34:19Z</time>
      </trkpt>
      <trkpt lat="46.21741" lon="-1.14059">
        <ele>5.4</ele>
        <time>2021-12-24T15:34:21Z</time>
      </trkpt>
      <trkpt lat="46.21731" lon="-1.14058">
        <ele>5.6</ele>
        <time>2021-12-24T15:34:23Z</time>
      </trkpt>
      <trkpt lat="46.21721" lon="-1.14059">
        <ele>5.6</ele>
        <time>2021-12-24T15:34:25Z</time>
      </trkpt>
      <trkpt lat="46.21711" lon="-1.14059">
        <ele>5.6</ele>
        <time>2021-12-24T15:34:27Z</time>
      </trkpt>
      <trkpt lat="46.217" lon="-1.14059">
        <ele>5.6</ele>
        <time>2021-12-24T15:34:29Z</time>
      </trkpt>
      <trkpt lat="46.2169" lon="-1.14059">
        <ele>5.6</ele>
        <time>2021-12-24T15:34:31Z</time>
      </trkpt>
      <trkpt lat="46.21685" lon="-1.14059">
        <ele>5.6</ele>
        <time>2021-12-24T15:34:32Z</time>
      </trkpt>
      <trkpt lat="46.21679" lon="-1.14059">
        <ele>5.6</ele>
        <time>2021-12-24T15:34:33Z</time>
      </trkpt>
      <trkpt lat="46.21669" lon="-1.1406">
        <ele>5.6</ele>
        <time>2021-12-24T15:34:35Z</time>
      </trkpt>
      <trkpt lat="46.21658" lon="-1.1406">
        <ele>5.6</ele>
        <time>2021-12-24T15:34:37Z</time>
      </trkpt>
      <trkpt lat="46.21648" lon="-1.1406">
        <ele>5.6</ele>
        <time>2021-12-24T15:34:39Z</time>
      </trkpt>
      <trkpt lat="46.21638" lon="-1.14059">
        <ele>5.8</ele>
        <time>2021-12-24T15:34:41Z</time>
      </trkpt>
      <trkpt lat="46.21628" lon="-1.14059">
        <ele>5.8</ele>
        <time>2021-12-24T15:34:43Z</time>
      </trkpt>
      <trkpt lat="46.21617" lon="-1.14059">
        <ele>5.8</ele>
        <time>2021-12-24T15:34:45Z</time>
      </trkpt>
      <trkpt lat="46.21608" lon="-1.14059">
        <ele>6</ele>
        <time>2021-12-24T15:34:47Z</time>
      </trkpt>
      <trkpt lat="46.21598" lon="-1.14059">
        <ele>6</ele>
        <time>2021-12-24T15:34:49Z</time>
      </trkpt>
      <trkpt lat="46.21588" lon="-1.14058">
        <ele>6</ele>
        <time>2021-12-24T15:34:51Z</time>
      </trkpt>
      <trkpt lat="46.21579" lon="-1.14058">
        <ele>6</ele>
        <time>2021-12-24T15:34:53Z</time>
      </trkpt>
      <trkpt lat="46.2157" lon="-1.14058">
        <ele>6</ele>
        <time>2021-12-24T15:34:55Z</time>
      </trkpt>
      <trkpt lat="46.21562" lon="-1.14058">
        <ele>6.2</ele>
        <time>2021-12-24T15:34:57Z</time>
      </trkpt>
      <trkpt lat="46.21553" lon="-1.14059">
        <ele>6.2</ele>
        <time>2021-12-24T15:34:59Z</time>
      </trkpt>
      <trkpt lat="46.21544" lon="-1.14059">
        <ele>6.2</ele>
        <time>2021-12-24T15:35:01Z</time>
      </trkpt>
      <trkpt lat="46.21535" lon="-1.14061">
        <ele>6.2</ele>
        <time>2021-12-24T15:35:03Z</time>
      </trkpt>
      <trkpt lat="46.21526" lon="-1.14063">
        <ele>6.4</ele>
        <time>2021-12-24T15:35:05Z</time>
      </trkpt>
      <trkpt lat="46.21518" lon="-1.14067">
        <ele>6.4</ele>
        <time>2021-12-24T15:35:07Z</time>
      </trkpt>
      <trkpt lat="46.21509" lon="-1.1407">
        <ele>6.6</ele>
        <time>2021-12-24T15:35:09Z</time>
      </trkpt>
      <trkpt lat="46.21505" lon="-1.14071">
        <ele>6.6</ele>
        <time>2021-12-24T15:35:10Z</time>
      </trkpt>
      <trkpt lat="46.21501" lon="-1.14073">
        <ele>6.6</ele>
        <time>2021-12-24T15:35:11Z</time>
      </trkpt>
      <trkpt lat="46.21494" lon="-1.14077">
        <ele>6.8</ele>
        <time>2021-12-24T15:35:13Z</time>
      </trkpt>
      <trkpt lat="46.21485" lon="-1.14081">
        <ele>7</ele>
        <time>2021-12-24T15:35:15Z</time>
      </trkpt>
      <trkpt lat="46.21481" lon="-1.14083">
        <ele>7</ele>
        <time>2021-12-24T15:35:16Z</time>
      </trkpt>
      <trkpt lat="46.21477" lon="-1.14085">
        <ele>7</ele>
        <time>2021-12-24T15:35:17Z</time>
      </trkpt>
      <trkpt lat="46.2147" lon="-1.14089">
        <ele>7</ele>
        <time>2021-12-24T15:35:19Z</time>
      </trkpt>
      <trkpt lat="46.21461" lon="-1.14092">
        <ele>7.2</ele>
        <time>2021-12-24T15:35:21Z</time>
      </trkpt>
      <trkpt lat="46.21457" lon="-1.14093">
        <ele>7.2</ele>
        <time>2021-12-24T15:35:22Z</time>
      </trkpt>
      <trkpt lat="46.21453" lon="-1.14095">
        <ele>7.2</ele>
        <time>2021-12-24T15:35:23Z</time>
      </trkpt>
      <trkpt lat="46.21445" lon="-1.14099">
        <ele>7.4</ele>
        <time>2021-12-24T15:35:25Z</time>
      </trkpt>
      <trkpt lat="46.21438" lon="-1.14102">
        <ele>7.6</ele>
        <time>2021-12-24T15:35:27Z</time>
      </trkpt>
      <trkpt lat="46.21434" lon="-1.14103">
        <ele>7.6</ele>
        <time>2021-12-24T15:35:28Z</time>
      </trkpt>
      <trkpt lat="46.21431" lon="-1.14104">
        <ele>7.6</ele>
        <time>2021-12-24T15:35:29Z</time>
      </trkpt>
      <trkpt lat="46.21424" lon="-1.14107">
        <ele>7.8</ele>
        <time>2021-12-24T15:35:31Z</time>
      </trkpt>
      <trkpt lat="46.2142" lon="-1.14109">
        <ele>7.8</ele>
        <time>2021-12-24T15:35:33Z</time>
      </trkpt>
      <trkpt lat="46.21417" lon="-1.14112">
        <ele>8</ele>
        <time>2021-12-24T15:35:35Z</time>
      </trkpt>
      <trkpt lat="46.21415" lon="-1.14112">
        <ele>8</ele>
        <time>2021-12-24T15:35:37Z</time>
      </trkpt>
      <trkpt lat="46.21415" lon="-1.14116">
        <ele>13.4</ele>
        <time>2021-12-24T15:40:44Z</time>
      </trkpt>
      <trkpt lat="46.21415" lon="-1.14119">
        <ele>13.4</ele>
        <time>2021-12-24T15:40:45Z</time>
      </trkpt>
      <trkpt lat="46.21418" lon="-1.14127">
        <ele>13.4</ele>
        <time>2021-12-24T15:40:47Z</time>
      </trkpt>
      <trkpt lat="46.21423" lon="-1.14138">
        <ele>13.4</ele>
        <time>2021-12-24T15:40:49Z</time>
      </trkpt>
      <trkpt lat="46.21428" lon="-1.1415">
        <ele>13.4</ele>
        <time>2021-12-24T15:40:51Z</time>
      </trkpt>
      <trkpt lat="46.21431" lon="-1.14156">
        <ele>13.4</ele>
        <time>2021-12-24T15:40:52Z</time>
      </trkpt>
      <trkpt lat="46.21433" lon="-1.14162">
        <ele>13.4</ele>
        <time>2021-12-24T15:40:53Z</time>
      </trkpt>
      <trkpt lat="46.21438" lon="-1.14174">
        <ele>13.4</ele>
        <time>2021-12-24T15:40:55Z</time>
      </trkpt>
      <trkpt lat="46.21442" lon="-1.1418">
        <ele>13.4</ele>
        <time>2021-12-24T15:40:56Z</time>
      </trkpt>
      <trkpt lat="46.21445" lon="-1.14186">
        <ele>13.4</ele>
        <time>2021-12-24T15:40:57Z</time>
      </trkpt>
      <trkpt lat="46.21453" lon="-1.14198">
        <ele>13.6</ele>
        <time>2021-12-24T15:40:59Z</time>
      </trkpt>
      <trkpt lat="46.21461" lon="-1.14211">
        <ele>13.4</ele>
        <time>2021-12-24T15:41:01Z</time>
      </trkpt>
      <trkpt lat="46.21469" lon="-1.14225">
        <ele>13.4</ele>
        <time>2021-12-24T15:41:03Z</time>
      </trkpt>
      <trkpt lat="46.21476" lon="-1.14241">
        <ele>13.4</ele>
        <time>2021-12-24T15:41:05Z</time>
      </trkpt>
      <trkpt lat="46.21481" lon="-1.1426">
        <ele>13.4</ele>
        <time>2021-12-24T15:41:07Z</time>
      </trkpt>
      <trkpt lat="46.21485" lon="-1.14279">
        <ele>13.4</ele>
        <time>2021-12-24T15:41:09Z</time>
      </trkpt>
      <trkpt lat="46.21487" lon="-1.14288">
        <ele>13.2</ele>
        <time>2021-12-24T15:41:10Z</time>
      </trkpt>
      <trkpt lat="46.21488" lon="-1.14298">
        <ele>13.2</ele>
        <time>2021-12-24T15:41:11Z</time>
      </trkpt>
      <trkpt lat="46.21491" lon="-1.14319">
        <ele>13</ele>
        <time>2021-12-24T15:41:13Z</time>
      </trkpt>
      <trkpt lat="46.21495" lon="-1.1434">
        <ele>13</ele>
        <time>2021-12-24T15:41:15Z</time>
      </trkpt>
      <trkpt lat="46.21499" lon="-1.14362">
        <ele>12.8</ele>
        <time>2021-12-24T15:41:17Z</time>
      </trkpt>
      <trkpt lat="46.215" lon="-1.14373">
        <ele>12.8</ele>
        <time>2021-12-24T15:41:18Z</time>
      </trkpt>
      <trkpt lat="46.21502" lon="-1.14384">
        <ele>12.8</ele>
        <time>2021-12-24T15:41:19Z</time>
      </trkpt>
      <trkpt lat="46.21507" lon="-1.14406">
        <ele>12.6</ele>
        <time>2021-12-24T15:41:21Z</time>
      </trkpt>
      <trkpt lat="46.21512" lon="-1.14427">
        <ele>12.6</ele>
        <time>2021-12-24T15:41:23Z</time>
      </trkpt>
      <trkpt lat="46.21517" lon="-1.14449">
        <ele>12.6</ele>
        <time>2021-12-24T15:41:25Z</time>
      </trkpt>
      <trkpt lat="46.21522" lon="-1.1447">
        <ele>12.6</ele>
        <time>2021-12-24T15:41:27Z</time>
      </trkpt>
      <trkpt lat="46.21527" lon="-1.1449">
        <ele>12.6</ele>
        <time>2021-12-24T15:41:29Z</time>
      </trkpt>
      <trkpt lat="46.21532" lon="-1.1451">
        <ele>12.6</ele>
        <time>2021-12-24T15:41:31Z</time>
      </trkpt>
      <trkpt lat="46.21538" lon="-1.14531">
        <ele>12.6</ele>
        <time>2021-12-24T15:41:33Z</time>
      </trkpt>
      <trkpt lat="46.21543" lon="-1.14551">
        <ele>12.4</ele>
        <time>2021-12-24T15:41:35Z</time>
      </trkpt>
      <trkpt lat="46.21548" lon="-1.14571">
        <ele>12.4</ele>
        <time>2021-12-24T15:41:37Z</time>
      </trkpt>
      <trkpt lat="46.21552" lon="-1.1459">
        <ele>12.4</ele>
        <time>2021-12-24T15:41:39Z</time>
      </trkpt>
      <trkpt lat="46.21557" lon="-1.14609">
        <ele>12.4</ele>
        <time>2021-12-24T15:41:41Z</time>
      </trkpt>
      <trkpt lat="46.21561" lon="-1.14629">
        <ele>12.4</ele>
        <time>2021-12-24T15:41:43Z</time>
      </trkpt>
      <trkpt lat="46.21566" lon="-1.14648">
        <ele>12.4</ele>
        <time>2021-12-24T15:41:45Z</time>
      </trkpt>
      <trkpt lat="46.2157" lon="-1.14667">
        <ele>12.4</ele>
        <time>2021-12-24T15:41:47Z</time>
      </trkpt>
      <trkpt lat="46.21573" lon="-1.14685">
        <ele>12.4</ele>
        <time>2021-12-24T15:41:49Z</time>
      </trkpt>
      <trkpt lat="46.21573" lon="-1.14694">
        <ele>12.4</ele>
        <time>2021-12-24T15:41:50Z</time>
      </trkpt>
      <trkpt lat="46.21571" lon="-1.14703">
        <ele>12.4</ele>
        <time>2021-12-24T15:41:51Z</time>
      </trkpt>
      <trkpt lat="46.21567" lon="-1.14708">
        <ele>12.2</ele>
        <time>2021-12-24T15:41:52Z</time>
      </trkpt>
      <trkpt lat="46.21562" lon="-1.14711">
        <ele>12.2</ele>
        <time>2021-12-24T15:41:53Z</time>
      </trkpt>
      <trkpt lat="46.21555" lon="-1.14712">
        <ele>12.2</ele>
        <time>2021-12-24T15:41:54Z</time>
      </trkpt>
      <trkpt lat="46.21548" lon="-1.14713">
        <ele>12</ele>
        <time>2021-12-24T15:41:55Z</time>
      </trkpt>
      <trkpt lat="46.21534" lon="-1.14715">
        <ele>12</ele>
        <time>2021-12-24T15:41:57Z</time>
      </trkpt>
      <trkpt lat="46.21521" lon="-1.14718">
        <ele>12</ele>
        <time>2021-12-24T15:41:59Z</time>
      </trkpt>
      <trkpt lat="46.21507" lon="-1.14721">
        <ele>11.8</ele>
        <time>2021-12-24T15:42:01Z</time>
      </trkpt>
      <trkpt lat="46.21493" lon="-1.14725">
        <ele>11.8</ele>
        <time>2021-12-24T15:42:03Z</time>
      </trkpt>
      <trkpt lat="46.2148" lon="-1.14728">
        <ele>11.6</ele>
        <time>2021-12-24T15:42:05Z</time>
      </trkpt>
      <trkpt lat="46.21466" lon="-1.14731">
        <ele>11.6</ele>
        <time>2021-12-24T15:42:07Z</time>
      </trkpt>
      <trkpt lat="46.21452" lon="-1.14734">
        <ele>11.4</ele>
        <time>2021-12-24T15:42:09Z</time>
      </trkpt>
      <trkpt lat="46.21437" lon="-1.14738">
        <ele>11.2</ele>
        <time>2021-12-24T15:42:11Z</time>
      </trkpt>
      <trkpt lat="46.21423" lon="-1.14742">
        <ele>11</ele>
        <time>2021-12-24T15:42:13Z</time>
      </trkpt>
      <trkpt lat="46.21408" lon="-1.14745">
        <ele>11</ele>
        <time>2021-12-24T15:42:15Z</time>
      </trkpt>
      <trkpt lat="46.21394" lon="-1.14747">
        <ele>10.8</ele>
        <time>2021-12-24T15:42:17Z</time>
      </trkpt>
      <trkpt lat="46.2138" lon="-1.1475">
        <ele>10.6</ele>
        <time>2021-12-24T15:42:19Z</time>
      </trkpt>
      <trkpt lat="46.21368" lon="-1.14755">
        <ele>10.4</ele>
        <time>2021-12-24T15:42:21Z</time>
      </trkpt>
      <trkpt lat="46.21365" lon="-1.14761">
        <ele>10.4</ele>
        <time>2021-12-24T15:42:22Z</time>
      </trkpt>
      <trkpt lat="46.21363" lon="-1.14768">
        <ele>10.2</ele>
        <time>2021-12-24T15:42:23Z</time>
      </trkpt>
      <trkpt lat="46.21363" lon="-1.14777">
        <ele>10.2</ele>
        <time>2021-12-24T15:42:24Z</time>
      </trkpt>
      <trkpt lat="46.21364" lon="-1.14786">
        <ele>10</ele>
        <time>2021-12-24T15:42:25Z</time>
      </trkpt>
      <trkpt lat="46.21366" lon="-1.14805">
        <ele>10</ele>
        <time>2021-12-24T15:42:27Z</time>
      </trkpt>
      <trkpt lat="46.21367" lon="-1.14824">
        <ele>9.8</ele>
        <time>2021-12-24T15:42:29Z</time>
      </trkpt>
      <trkpt lat="46.21367" lon="-1.14844">
        <ele>9.8</ele>
        <time>2021-12-24T15:42:31Z</time>
      </trkpt>
      <trkpt lat="46.21369" lon="-1.14865">
        <ele>9.6</ele>
        <time>2021-12-24T15:42:33Z</time>
      </trkpt>
      <trkpt lat="46.2137" lon="-1.14885">
        <ele>9.4</ele>
        <time>2021-12-24T15:42:35Z</time>
      </trkpt>
      <trkpt lat="46.2137" lon="-1.14906">
        <ele>9.4</ele>
        <time>2021-12-24T15:42:37Z</time>
      </trkpt>
      <trkpt lat="46.21371" lon="-1.14927">
        <ele>9.2</ele>
        <time>2021-12-24T15:42:39Z</time>
      </trkpt>
      <trkpt lat="46.21372" lon="-1.14948">
        <ele>9.2</ele>
        <time>2021-12-24T15:42:41Z</time>
      </trkpt>
      <trkpt lat="46.21372" lon="-1.14968">
        <ele>9.2</ele>
        <time>2021-12-24T15:42:43Z</time>
      </trkpt>
      <trkpt lat="46.21372" lon="-1.14988">
        <ele>9.2</ele>
        <time>2021-12-24T15:42:45Z</time>
      </trkpt>
      <trkpt lat="46.21373" lon="-1.15008">
        <ele>9.2</ele>
        <time>2021-12-24T15:42:47Z</time>
      </trkpt>
      <trkpt lat="46.21373" lon="-1.15028">
        <ele>9.2</ele>
        <time>2021-12-24T15:42:49Z</time>
      </trkpt>
      <trkpt lat="46.21374" lon="-1.15047">
        <ele>9.2</ele>
        <time>2021-12-24T15:42:51Z</time>
      </trkpt>
      <trkpt lat="46.21374" lon="-1.15067">
        <ele>9.2</ele>
        <time>2021-12-24T15:42:53Z</time>
      </trkpt>
      <trkpt lat="46.21375" lon="-1.15087">
        <ele>9.2</ele>
        <time>2021-12-24T15:42:55Z</time>
      </trkpt>
      <trkpt lat="46.21375" lon="-1.15106">
        <ele>9.2</ele>
        <time>2021-12-24T15:42:57Z</time>
      </trkpt>
      <trkpt lat="46.21376" lon="-1.15124">
        <ele>9.2</ele>
        <time>2021-12-24T15:42:59Z</time>
      </trkpt>
      <trkpt lat="46.21377" lon="-1.15143">
        <ele>9.2</ele>
        <time>2021-12-24T15:43:01Z</time>
      </trkpt>
      <trkpt lat="46.21377" lon="-1.15161">
        <ele>9.2</ele>
        <time>2021-12-24T15:43:03Z</time>
      </trkpt>
      <trkpt lat="46.21377" lon="-1.1517">
        <ele>9.2</ele>
        <time>2021-12-24T15:43:04Z</time>
      </trkpt>
      <trkpt lat="46.21377" lon="-1.15179">
        <ele>9</ele>
        <time>2021-12-24T15:43:05Z</time>
      </trkpt>
      <trkpt lat="46.21378" lon="-1.15196">
        <ele>9</ele>
        <time>2021-12-24T15:43:07Z</time>
      </trkpt>
      <trkpt lat="46.21379" lon="-1.15214">
        <ele>9</ele>
        <time>2021-12-24T15:43:09Z</time>
      </trkpt>
      <trkpt lat="46.21379" lon="-1.15231">
        <ele>9</ele>
        <time>2021-12-24T15:43:11Z</time>
      </trkpt>
      <trkpt lat="46.2138" lon="-1.15239">
        <ele>9</ele>
        <time>2021-12-24T15:43:12Z</time>
      </trkpt>
      <trkpt lat="46.2138" lon="-1.15248">
        <ele>9</ele>
        <time>2021-12-24T15:43:13Z</time>
      </trkpt>
      <trkpt lat="46.21381" lon="-1.15265">
        <ele>9</ele>
        <time>2021-12-24T15:43:15Z</time>
      </trkpt>
      <trkpt lat="46.21381" lon="-1.15283">
        <ele>9</ele>
        <time>2021-12-24T15:43:17Z</time>
      </trkpt>
      <trkpt lat="46.21382" lon="-1.153">
        <ele>9</ele>
        <time>2021-12-24T15:43:19Z</time>
      </trkpt>
      <trkpt lat="46.21382" lon="-1.15308">
        <ele>9</ele>
        <time>2021-12-24T15:43:20Z</time>
      </trkpt>
      <trkpt lat="46.21383" lon="-1.15317">
        <ele>9</ele>
        <time>2021-12-24T15:43:21Z</time>
      </trkpt>
      <trkpt lat="46.21383" lon="-1.15335">
        <ele>9</ele>
        <time>2021-12-24T15:43:23Z</time>
      </trkpt>
      <trkpt lat="46.21383" lon="-1.15352">
        <ele>9</ele>
        <time>2021-12-24T15:43:25Z</time>
      </trkpt>
      <trkpt lat="46.21383" lon="-1.1537">
        <ele>8.8</ele>
        <time>2021-12-24T15:43:27Z</time>
      </trkpt>
      <trkpt lat="46.21384" lon="-1.15389">
        <ele>8.8</ele>
        <time>2021-12-24T15:43:29Z</time>
      </trkpt>
      <trkpt lat="46.21386" lon="-1.15407">
        <ele>8.8</ele>
        <time>2021-12-24T15:43:31Z</time>
      </trkpt>
      <trkpt lat="46.21386" lon="-1.15424">
        <ele>8.8</ele>
        <time>2021-12-24T15:43:33Z</time>
      </trkpt>
      <trkpt lat="46.21387" lon="-1.15442">
        <ele>8.8</ele>
        <time>2021-12-24T15:43:35Z</time>
      </trkpt>
      <trkpt lat="46.21388" lon="-1.15458">
        <ele>8.8</ele>
        <time>2021-12-24T15:43:37Z</time>
      </trkpt>
      <trkpt lat="46.21388" lon="-1.15475">
        <ele>8.8</ele>
        <time>2021-12-24T15:43:39Z</time>
      </trkpt>
      <trkpt lat="46.21389" lon="-1.15493">
        <ele>9</ele>
        <time>2021-12-24T15:43:41Z</time>
      </trkpt>
      <trkpt lat="46.21389" lon="-1.15511">
        <ele>9</ele>
        <time>2021-12-24T15:43:43Z</time>
      </trkpt>
      <trkpt lat="46.21389" lon="-1.15529">
        <ele>9</ele>
        <time>2021-12-24T15:43:45Z</time>
      </trkpt>
      <trkpt lat="46.21389" lon="-1.15538">
        <ele>9.2</ele>
        <time>2021-12-24T15:43:46Z</time>
      </trkpt>
      <trkpt lat="46.21389" lon="-1.15547">
        <ele>9.2</ele>
        <time>2021-12-24T15:43:47Z</time>
      </trkpt>
      <trkpt lat="46.21388" lon="-1.15565">
        <ele>9.2</ele>
        <time>2021-12-24T15:43:49Z</time>
      </trkpt>
      <trkpt lat="46.21388" lon="-1.15583">
        <ele>9.2</ele>
        <time>2021-12-24T15:43:51Z</time>
      </trkpt>
      <trkpt lat="46.21387" lon="-1.15601">
        <ele>9.2</ele>
        <time>2021-12-24T15:43:53Z</time>
      </trkpt>
      <trkpt lat="46.21387" lon="-1.1561">
        <ele>9.2</ele>
        <time>2021-12-24T15:43:54Z</time>
      </trkpt>
      <trkpt lat="46.21387" lon="-1.15619">
        <ele>9.4</ele>
        <time>2021-12-24T15:43:55Z</time>
      </trkpt>
      <trkpt lat="46.21386" lon="-1.15637">
        <ele>9.4</ele>
        <time>2021-12-24T15:43:57Z</time>
      </trkpt>
      <trkpt lat="46.21386" lon="-1.15655">
        <ele>9.4</ele>
        <time>2021-12-24T15:43:59Z</time>
      </trkpt>
      <trkpt lat="46.21385" lon="-1.15671">
        <ele>9.4</ele>
        <time>2021-12-24T15:44:01Z</time>
      </trkpt>
      <trkpt lat="46.21385" lon="-1.15679">
        <ele>9.4</ele>
        <time>2021-12-24T15:44:02Z</time>
      </trkpt>
      <trkpt lat="46.21384" lon="-1.15686">
        <ele>9.4</ele>
        <time>2021-12-24T15:44:03Z</time>
      </trkpt>
      <trkpt lat="46.21376" lon="-1.15691">
        <ele>9.4</ele>
        <time>2021-12-24T15:44:05Z</time>
      </trkpt>
      <trkpt lat="46.21371" lon="-1.15691">
        <ele>9.4</ele>
        <time>2021-12-24T15:44:06Z</time>
      </trkpt>
      <trkpt lat="46.21367" lon="-1.15691">
        <ele>9.4</ele>
        <time>2021-12-24T15:44:07Z</time>
      </trkpt>
      <trkpt lat="46.21356" lon="-1.15693">
        <ele>9.4</ele>
        <time>2021-12-24T15:44:09Z</time>
      </trkpt>
      <trkpt lat="46.21351" lon="-1.15694">
        <ele>9.4</ele>
        <time>2021-12-24T15:44:10Z</time>
      </trkpt>
      <trkpt lat="46.21346" lon="-1.15695">
        <ele>9.2</ele>
        <time>2021-12-24T15:44:11Z</time>
      </trkpt>
      <trkpt lat="46.21335" lon="-1.15696">
        <ele>9</ele>
        <time>2021-12-24T15:44:13Z</time>
      </trkpt>
      <trkpt lat="46.21324" lon="-1.15698">
        <ele>9.2</ele>
        <time>2021-12-24T15:44:15Z</time>
      </trkpt>
      <trkpt lat="46.21319" lon="-1.15701">
        <ele>9.2</ele>
        <time>2021-12-24T15:44:16Z</time>
      </trkpt>
      <trkpt lat="46.21315" lon="-1.15706">
        <ele>9.2</ele>
        <time>2021-12-24T15:44:17Z</time>
      </trkpt>
      <trkpt lat="46.21314" lon="-1.15713">
        <ele>9.2</ele>
        <time>2021-12-24T15:44:18Z</time>
      </trkpt>
      <trkpt lat="46.21314" lon="-1.15721">
        <ele>9.2</ele>
        <time>2021-12-24T15:44:19Z</time>
      </trkpt>
      <trkpt lat="46.21316" lon="-1.15737">
        <ele>9</ele>
        <time>2021-12-24T15:44:21Z</time>
      </trkpt>
      <trkpt lat="46.21317" lon="-1.15746">
        <ele>9.2</ele>
        <time>2021-12-24T15:44:22Z</time>
      </trkpt>
      <trkpt lat="46.21318" lon="-1.15755">
        <ele>9.2</ele>
        <time>2021-12-24T15:44:23Z</time>
      </trkpt>
      <trkpt lat="46.21321" lon="-1.15773">
        <ele>9</ele>
        <time>2021-12-24T15:44:25Z</time>
      </trkpt>
      <trkpt lat="46.21321" lon="-1.15782">
        <ele>9</ele>
        <time>2021-12-24T15:44:26Z</time>
      </trkpt>
      <trkpt lat="46.21321" lon="-1.15791">
        <ele>9</ele>
        <time>2021-12-24T15:44:27Z</time>
      </trkpt>
      <trkpt lat="46.21318" lon="-1.15799">
        <ele>9</ele>
        <time>2021-12-24T15:44:28Z</time>
      </trkpt>
      <trkpt lat="46.21314" lon="-1.15806">
        <ele>9</ele>
        <time>2021-12-24T15:44:29Z</time>
      </trkpt>
      <trkpt lat="46.2131" lon="-1.15813">
        <ele>8.8</ele>
        <time>2021-12-24T15:44:30Z</time>
      </trkpt>
      <trkpt lat="46.21304" lon="-1.1582">
        <ele>8.8</ele>
        <time>2021-12-24T15:44:31Z</time>
      </trkpt>
      <trkpt lat="46.21294" lon="-1.15835">
        <ele>8.8</ele>
        <time>2021-12-24T15:44:33Z</time>
      </trkpt>
      <trkpt lat="46.21289" lon="-1.15843">
        <ele>8.8</ele>
        <time>2021-12-24T15:44:34Z</time>
      </trkpt>
      <trkpt lat="46.21285" lon="-1.15852">
        <ele>8.8</ele>
        <time>2021-12-24T15:44:35Z</time>
      </trkpt>
      <trkpt lat="46.2128" lon="-1.15872">
        <ele>8.8</ele>
        <time>2021-12-24T15:44:37Z</time>
      </trkpt>
      <trkpt lat="46.21275" lon="-1.15892">
        <ele>8.8</ele>
        <time>2021-12-24T15:44:39Z</time>
      </trkpt>
      <trkpt lat="46.21273" lon="-1.15902">
        <ele>8.8</ele>
        <time>2021-12-24T15:44:40Z</time>
      </trkpt>
      <trkpt lat="46.21271" lon="-1.15911">
        <ele>8.8</ele>
        <time>2021-12-24T15:44:41Z</time>
      </trkpt>
      <trkpt lat="46.21266" lon="-1.15929">
        <ele>8.8</ele>
        <time>2021-12-24T15:44:43Z</time>
      </trkpt>
      <trkpt lat="46.21258" lon="-1.15945">
        <ele>8.8</ele>
        <time>2021-12-24T15:44:45Z</time>
      </trkpt>
      <trkpt lat="46.2125" lon="-1.15958">
        <ele>8.8</ele>
        <time>2021-12-24T15:44:47Z</time>
      </trkpt>
      <trkpt lat="46.21247" lon="-1.15963">
        <ele>8.6</ele>
        <time>2021-12-24T15:44:48Z</time>
      </trkpt>
      <trkpt lat="46.21245" lon="-1.15968">
        <ele>8.6</ele>
        <time>2021-12-24T15:44:49Z</time>
      </trkpt>
      <trkpt lat="46.21243" lon="-1.15972">
        <ele>8.8</ele>
        <time>2021-12-24T15:44:50Z</time>
      </trkpt>
      <trkpt lat="46.21243" lon="-1.15977">
        <ele>8.8</ele>
        <time>2021-12-24T15:44:51Z</time>
      </trkpt>
      <trkpt lat="46.21241" lon="-1.1598">
        <ele>8.8</ele>
        <time>2021-12-24T15:44:52Z</time>
      </trkpt>
      <trkpt lat="46.21238" lon="-1.15983">
        <ele>9</ele>
        <time>2021-12-24T15:44:53Z</time>
      </trkpt>
      <trkpt lat="46.21234" lon="-1.15985">
        <ele>9</ele>
        <time>2021-12-24T15:44:54Z</time>
      </trkpt>
      <trkpt lat="46.21228" lon="-1.15987">
        <ele>9</ele>
        <time>2021-12-24T15:44:55Z</time>
      </trkpt>
      <trkpt lat="46.21215" lon="-1.15989">
        <ele>9</ele>
        <time>2021-12-24T15:44:57Z</time>
      </trkpt>
      <trkpt lat="46.21207" lon="-1.15991">
        <ele>8.8</ele>
        <time>2021-12-24T15:44:58Z</time>
      </trkpt>
      <trkpt lat="46.21199" lon="-1.15992">
        <ele>9</ele>
        <time>2021-12-24T15:44:59Z</time>
      </trkpt>
      <trkpt lat="46.21184" lon="-1.15996">
        <ele>8.8</ele>
        <time>2021-12-24T15:45:01Z</time>
      </trkpt>
      <trkpt lat="46.21168" lon="-1.16">
        <ele>8.8</ele>
        <time>2021-12-24T15:45:03Z</time>
      </trkpt>
      <trkpt lat="46.2116" lon="-1.16003">
        <ele>8.6</ele>
        <time>2021-12-24T15:45:04Z</time>
      </trkpt>
      <trkpt lat="46.21152" lon="-1.16005">
        <ele>8.6</ele>
        <time>2021-12-24T15:45:05Z</time>
      </trkpt>
      <trkpt lat="46.21137" lon="-1.16009">
        <ele>8.6</ele>
        <time>2021-12-24T15:45:07Z</time>
      </trkpt>
      <trkpt lat="46.21121" lon="-1.16013">
        <ele>8.4</ele>
        <time>2021-12-24T15:45:09Z</time>
      </trkpt>
      <trkpt lat="46.21114" lon="-1.16015">
        <ele>8.2</ele>
        <time>2021-12-24T15:45:10Z</time>
      </trkpt>
      <trkpt lat="46.21105" lon="-1.16018">
        <ele>8.2</ele>
        <time>2021-12-24T15:45:11Z</time>
      </trkpt>
      <trkpt lat="46.21089" lon="-1.16022">
        <ele>8</ele>
        <time>2021-12-24T15:45:13Z</time>
      </trkpt>
      <trkpt lat="46.21073" lon="-1.16026">
        <ele>7.8</ele>
        <time>2021-12-24T15:45:15Z</time>
      </trkpt>
      <trkpt lat="46.21057" lon="-1.1603">
        <ele>7.8</ele>
        <time>2021-12-24T15:45:17Z</time>
      </trkpt>
      <trkpt lat="46.2104" lon="-1.16034">
        <ele>7.6</ele>
        <time>2021-12-24T15:45:19Z</time>
      </trkpt>
      <trkpt lat="46.21024" lon="-1.16038">
        <ele>7.6</ele>
        <time>2021-12-24T15:45:21Z</time>
      </trkpt>
      <trkpt lat="46.21009" lon="-1.16042">
        <ele>7.6</ele>
        <time>2021-12-24T15:45:23Z</time>
      </trkpt>
      <trkpt lat="46.21001" lon="-1.16044">
        <ele>7.6</ele>
        <time>2021-12-24T15:45:24Z</time>
      </trkpt>
      <trkpt lat="46.20994" lon="-1.16045">
        <ele>7.4</ele>
        <time>2021-12-24T15:45:25Z</time>
      </trkpt>
      <trkpt lat="46.20987" lon="-1.16046">
        <ele>7.4</ele>
        <time>2021-12-24T15:45:26Z</time>
      </trkpt>
      <trkpt lat="46.2098" lon="-1.16046">
        <ele>7.4</ele>
        <time>2021-12-24T15:45:27Z</time>
      </trkpt>
      <trkpt lat="46.20975" lon="-1.16046">
        <ele>7.2</ele>
        <time>2021-12-24T15:45:28Z</time>
      </trkpt>
      <trkpt lat="46.20973" lon="-1.16048">
        <ele>7.2</ele>
        <time>2021-12-24T15:45:29Z</time>
      </trkpt>
      <trkpt lat="46.20973" lon="-1.16049">
        <ele>7.2</ele>
        <time>2021-12-24T15:45:30Z</time>
      </trkpt>
      <trkpt lat="46.20973" lon="-1.1605">
        <ele>7.2</ele>
        <time>2021-12-24T15:45:31Z</time>
      </trkpt>
      <trkpt lat="46.20973" lon="-1.1605">
        <ele>7</ele>
        <time>2021-12-24T15:45:32Z</time>
      </trkpt>
      <trkpt lat="46.2097" lon="-1.16053">
        <ele>6.2</ele>
        <time>2021-12-24T15:45:51Z</time>
      </trkpt>
      <trkpt lat="46.20968" lon="-1.16063">
        <ele>6</ele>
        <time>2021-12-24T15:45:53Z</time>
      </trkpt>
      <trkpt lat="46.20966" lon="-1.16073">
        <ele>5.8</ele>
        <time>2021-12-24T15:45:55Z</time>
      </trkpt>
      <trkpt lat="46.20965" lon="-1.16078">
        <ele>5.6</ele>
        <time>2021-12-24T15:45:56Z</time>
      </trkpt>
      <trkpt lat="46.20964" lon="-1.16084">
        <ele>5.6</ele>
        <time>2021-12-24T15:45:57Z</time>
      </trkpt>
      <trkpt lat="46.20963" lon="-1.16089">
        <ele>5.4</ele>
        <time>2021-12-24T15:45:58Z</time>
      </trkpt>
      <trkpt lat="46.20962" lon="-1.16095">
        <ele>5.4</ele>
        <time>2021-12-24T15:45:59Z</time>
      </trkpt>
      <trkpt lat="46.20958" lon="-1.16107">
        <ele>5.2</ele>
        <time>2021-12-24T15:46:01Z</time>
      </trkpt>
      <trkpt lat="46.20957" lon="-1.16118">
        <ele>4.8</ele>
        <time>2021-12-24T15:46:03Z</time>
      </trkpt>
      <trkpt lat="46.20957" lon="-1.16128">
        <ele>4.8</ele>
        <time>2021-12-24T15:46:05Z</time>
      </trkpt>
      <trkpt lat="46.20956" lon="-1.16137">
        <ele>4.6</ele>
        <time>2021-12-24T15:46:07Z</time>
      </trkpt>
      <trkpt lat="46.20957" lon="-1.16148">
        <ele>4.4</ele>
        <time>2021-12-24T15:46:09Z</time>
      </trkpt>
      <trkpt lat="46.20958" lon="-1.16155">
        <ele>4.4</ele>
        <time>2021-12-24T15:46:10Z</time>
      </trkpt>
      <trkpt lat="46.20958" lon="-1.16162">
        <ele>4.2</ele>
        <time>2021-12-24T15:46:11Z</time>
      </trkpt>
      <trkpt lat="46.20958" lon="-1.16175">
        <ele>4.2</ele>
        <time>2021-12-24T15:46:13Z</time>
      </trkpt>
      <trkpt lat="46.20958" lon="-1.16182">
        <ele>4</ele>
        <time>2021-12-24T15:46:14Z</time>
      </trkpt>
      <trkpt lat="46.20958" lon="-1.16188">
        <ele>4</ele>
        <time>2021-12-24T15:46:15Z</time>
      </trkpt>
      <trkpt lat="46.20957" lon="-1.16201">
        <ele>3.8</ele>
        <time>2021-12-24T15:46:17Z</time>
      </trkpt>
      <trkpt lat="46.20957" lon="-1.16209">
        <ele>3.8</ele>
        <time>2021-12-24T15:46:19Z</time>
      </trkpt>
      <trkpt lat="46.20957" lon="-1.1621">
        <ele>3.8</ele>
        <time>2021-12-24T15:46:20Z</time>
      </trkpt>
      <trkpt lat="46.20957" lon="-1.16214">
        <ele>0.80000000000001</ele>
        <time>2021-12-24T15:47:36Z</time>
      </trkpt>
      <trkpt lat="46.20956" lon="-1.16218">
        <ele>0.80000000000001</ele>
        <time>2021-12-24T15:47:37Z</time>
      </trkpt>
      <trkpt lat="46.20954" lon="-1.16227">
        <ele>0.60000000000002</ele>
        <time>2021-12-24T15:47:39Z</time>
      </trkpt>
      <trkpt lat="46.20953" lon="-1.16238">
        <ele>0.60000000000002</ele>
        <time>2021-12-24T15:47:41Z</time>
      </trkpt>
      <trkpt lat="46.20952" lon="-1.16251">
        <ele>0.39999999999998</ele>
        <time>2021-12-24T15:47:43Z</time>
      </trkpt>
      <trkpt lat="46.20951" lon="-1.16264">
        <ele>0.39999999999998</ele>
        <time>2021-12-24T15:47:45Z</time>
      </trkpt>
      <trkpt lat="46.2095" lon="-1.16271">
        <ele>0.19999999999999</ele>
        <time>2021-12-24T15:47:46Z</time>
      </trkpt>
      <trkpt lat="46.20949" lon="-1.16278">
        <ele>0.19999999999999</ele>
        <time>2021-12-24T15:47:47Z</time>
      </trkpt>
      <trkpt lat="46.20947" lon="-1.16295">
        <ele>0.19999999999999</ele>
        <time>2021-12-24T15:47:49Z</time>
      </trkpt>
      <trkpt lat="46.20944" lon="-1.16311">
        <ele>0.19999999999999</ele>
        <time>2021-12-24T15:47:51Z</time>
      </trkpt>
      <trkpt lat="46.20943" lon="-1.16328">
        <ele>-0.19999999999999</ele>
        <time>2021-12-24T15:47:53Z</time>
      </trkpt>
      <trkpt lat="46.20942" lon="-1.16345">
        <ele>-0.39999999999998</ele>
        <time>2021-12-24T15:47:55Z</time>
      </trkpt>
      <trkpt lat="46.20942" lon="-1.16353">
        <ele>-0.39999999999998</ele>
        <time>2021-12-24T15:47:56Z</time>
      </trkpt>
      <trkpt lat="46.2094" lon="-1.16361">
        <ele>-0.60000000000002</ele>
        <time>2021-12-24T15:47:57Z</time>
      </trkpt>
      <trkpt lat="46.20939" lon="-1.1637">
        <ele>-0.60000000000002</ele>
        <time>2021-12-24T15:47:58Z</time>
      </trkpt>
      <trkpt lat="46.20938" lon="-1.16381">
        <ele>-0.80000000000001</ele>
        <time>2021-12-24T15:47:59Z</time>
      </trkpt>
      <trkpt lat="46.20936" lon="-1.16402">
        <ele>-1</ele>
        <time>2021-12-24T15:48:01Z</time>
      </trkpt>
      <trkpt lat="46.20931" lon="-1.16435">
        <ele>-1.2</ele>
        <time>2021-12-24T15:48:04Z</time>
      </trkpt>
      <trkpt lat="46.20929" lon="-1.16457">
        <ele>-1.4</ele>
        <time>2021-12-24T15:48:06Z</time>
      </trkpt>
      <trkpt lat="46.20927" lon="-1.16477">
        <ele>-1.4</ele>
        <time>2021-12-24T15:48:08Z</time>
      </trkpt>
      <trkpt lat="46.20925" lon="-1.16494">
        <ele>-1.4</ele>
        <time>2021-12-24T15:48:10Z</time>
      </trkpt>
      <trkpt lat="46.20922" lon="-1.16505">
        <ele>-1.6</ele>
        <time>2021-12-24T15:48:12Z</time>
      </trkpt>
      <trkpt lat="46.20921" lon="-1.16509">
        <ele>-1.6</ele>
        <time>2021-12-24T15:48:13Z</time>
      </trkpt>
      <trkpt lat="46.20918" lon="-1.1651">
        <ele>-1.6</ele>
        <time>2021-12-24T15:48:14Z</time>
      </trkpt>
      <trkpt lat="46.20914" lon="-1.16505">
        <ele>-2</ele>
        <time>2021-12-24T15:48:16Z</time>
      </trkpt>
      <trkpt lat="46.20913" lon="-1.16502">
        <ele>-2</ele>
        <time>2021-12-24T15:48:17Z</time>
      </trkpt>
      <trkpt lat="46.20915" lon="-1.16498">
        <ele>-2.2</ele>
        <time>2021-12-24T15:48:18Z</time>
      </trkpt>
      <trkpt lat="46.20917" lon="-1.16493">
        <ele>-2.2</ele>
        <time>2021-12-24T15:48:19Z</time>
      </trkpt>
      <trkpt lat="46.20918" lon="-1.16488">
        <ele>-2.4</ele>
        <time>2021-12-24T15:48:20Z</time>
      </trkpt>
      <trkpt lat="46.20919" lon="-1.16478">
        <ele>-2.6</ele>
        <time>2021-12-24T15:48:22Z</time>
      </trkpt>
      <trkpt lat="46.2092" lon="-1.16467">
        <ele>-2.8</ele>
        <time>2021-12-24T15:48:24Z</time>
      </trkpt>
      <trkpt lat="46.20921" lon="-1.16456">
        <ele>-3</ele>
        <time>2021-12-24T15:48:26Z</time>
      </trkpt>
      <trkpt lat="46.20922" lon="-1.16444">
        <ele>-3</ele>
        <time>2021-12-24T15:48:28Z</time>
      </trkpt>
      <trkpt lat="46.20923" lon="-1.16432">
        <ele>-3.2</ele>
        <time>2021-12-24T15:48:30Z</time>
      </trkpt>
      <trkpt lat="46.20925" lon="-1.16419">
        <ele>-3.4</ele>
        <time>2021-12-24T15:48:32Z</time>
      </trkpt>
      <trkpt lat="46.20926" lon="-1.16405">
        <ele>-3.4</ele>
        <time>2021-12-24T15:48:34Z</time>
      </trkpt>
      <trkpt lat="46.20928" lon="-1.1639">
        <ele>-3.4</ele>
        <time>2021-12-24T15:48:36Z</time>
      </trkpt>
      <trkpt lat="46.2093" lon="-1.16376">
        <ele>-3.6</ele>
        <time>2021-12-24T15:48:38Z</time>
      </trkpt>
      <trkpt lat="46.20931" lon="-1.16365">
        <ele>-3.6</ele>
        <time>2021-12-24T15:48:40Z</time>
      </trkpt>
      <trkpt lat="46.20933" lon="-1.16355">
        <ele>-3.8</ele>
        <time>2021-12-24T15:48:42Z</time>
      </trkpt>
      <trkpt lat="46.20932" lon="-1.1635">
        <ele>-3.8</ele>
        <time>2021-12-24T15:48:44Z</time>
      </trkpt>
      <trkpt lat="46.20931" lon="-1.16348">
        <ele>-3.8</ele>
        <time>2021-12-24T15:48:45Z</time>
      </trkpt>
      <trkpt lat="46.2093" lon="-1.16347">
        <ele>-4</ele>
        <time>2021-12-24T15:48:46Z</time>
      </trkpt>
      <trkpt lat="46.20925" lon="-1.16346">
        <ele>-4.2</ele>
        <time>2021-12-24T15:48:48Z</time>
      </trkpt>
      <trkpt lat="46.20922" lon="-1.16345">
        <ele>-4.2</ele>
        <time>2021-12-24T15:48:49Z</time>
      </trkpt>
      <trkpt lat="46.20917" lon="-1.16344">
        <ele>-4.4</ele>
        <time>2021-12-24T15:48:50Z</time>
      </trkpt>
      <trkpt lat="46.20908" lon="-1.16339">
        <ele>-4.6</ele>
        <time>2021-12-24T15:48:52Z</time>
      </trkpt>
      <trkpt lat="46.20903" lon="-1.16337">
        <ele>-4.6</ele>
        <time>2021-12-24T15:48:53Z</time>
      </trkpt>
      <trkpt lat="46.20898" lon="-1.16333">
        <ele>-4.8</ele>
        <time>2021-12-24T15:48:54Z</time>
      </trkpt>
      <trkpt lat="46.20887" lon="-1.16327">
        <ele>-5</ele>
        <time>2021-12-24T15:48:56Z</time>
      </trkpt>
      <trkpt lat="46.20875" lon="-1.16319">
        <ele>-5.2</ele>
        <time>2021-12-24T15:48:58Z</time>
      </trkpt>
      <trkpt lat="46.20867" lon="-1.16313">
        <ele>-5.4</ele>
        <time>2021-12-24T15:49:00Z</time>
      </trkpt>
      <trkpt lat="46.20859" lon="-1.16311">
        <ele>-5.6</ele>
        <time>2021-12-24T15:49:02Z</time>
      </trkpt>
      <trkpt lat="46.20848" lon="-1.16313">
        <ele>-6.2</ele>
        <time>2021-12-24T15:49:04Z</time>
      </trkpt>
      <trkpt lat="46.20842" lon="-1.16315">
        <ele>-6.4</ele>
        <time>2021-12-24T15:49:05Z</time>
      </trkpt>
      <trkpt lat="46.20836" lon="-1.16317">
        <ele>-6.6</ele>
        <time>2021-12-24T15:49:06Z</time>
      </trkpt>
      <trkpt lat="46.20832" lon="-1.16319">
        <ele>-6.8</ele>
        <time>2021-12-24T15:49:07Z</time>
      </trkpt>
      <trkpt lat="46.20827" lon="-1.16321">
        <ele>-7</ele>
        <time>2021-12-24T15:49:08Z</time>
      </trkpt>
      <trkpt lat="46.20817" lon="-1.16323">
        <ele>-7.4</ele>
        <time>2021-12-24T15:49:10Z</time>
      </trkpt>
      <trkpt lat="46.20812" lon="-1.16322">
        <ele>-7.4</ele>
        <time>2021-12-24T15:49:11Z</time>
      </trkpt>
      <trkpt lat="46.20809" lon="-1.16322">
        <ele>-7.6</ele>
        <time>2021-12-24T15:49:12Z</time>
      </trkpt>
      <trkpt lat="46.20802" lon="-1.16318">
        <ele>-7.8</ele>
        <time>2021-12-24T15:49:14Z</time>
      </trkpt>
      <trkpt lat="46.20793" lon="-1.16316">
        <ele>-8</ele>
        <time>2021-12-24T15:49:16Z</time>
      </trkpt>
      <trkpt lat="46.20787" lon="-1.16313">
        <ele>-8</ele>
        <time>2021-12-24T15:49:18Z</time>
      </trkpt>
      <trkpt lat="46.20785" lon="-1.16312">
        <ele>-8</ele>
        <time>2021-12-24T15:49:19Z</time>
      </trkpt>
      <trkpt lat="46.20784" lon="-1.16312">
        <ele>-8</ele>
        <time>2021-12-24T15:49:20Z</time>
      </trkpt>
      <trkpt lat="46.20775" lon="-1.16313">
        <ele>-9.6</ele>
        <time>2021-12-24T15:49:34Z</time>
      </trkpt>
      <trkpt lat="46.2077" lon="-1.16311">
        <ele>-9.8</ele>
        <time>2021-12-24T15:49:36Z</time>
      </trkpt>
      <trkpt lat="46.20765" lon="-1.16312">
        <ele>-10</ele>
        <time>2021-12-24T15:49:38Z</time>
      </trkpt>
      <trkpt lat="46.20761" lon="-1.16313">
        <ele>-10.2</ele>
        <time>2021-12-24T15:49:39Z</time>
      </trkpt>
      <trkpt lat="46.20758" lon="-1.16314">
        <ele>-10.2</ele>
        <time>2021-12-24T15:49:40Z</time>
      </trkpt>
      <trkpt lat="46.20751" lon="-1.16316">
        <ele>-10.4</ele>
        <time>2021-12-24T15:49:42Z</time>
      </trkpt>
      <trkpt lat="46.20744" lon="-1.16317">
        <ele>-10.8</ele>
        <time>2021-12-24T15:49:44Z</time>
      </trkpt>
      <trkpt lat="46.20742" lon="-1.16318">
        <ele>-11</ele>
        <time>2021-12-24T15:49:45Z</time>
      </trkpt>
      <trkpt lat="46.2074" lon="-1.16319">
        <ele>-11.2</ele>
        <time>2021-12-24T15:49:46Z</time>
      </trkpt>
      <trkpt lat="46.20739" lon="-1.16321">
        <ele>-11.6</ele>
        <time>2021-12-24T15:49:48Z</time>
      </trkpt>
      <trkpt lat="46.20735" lon="-1.1632">
        <ele>-11.6</ele>
        <time>2021-12-24T15:49:49Z</time>
      </trkpt>
      <trkpt lat="46.20732" lon="-1.1632">
        <ele>-11.6</ele>
        <time>2021-12-24T15:49:50Z</time>
      </trkpt>
      <trkpt lat="46.20727" lon="-1.16322">
        <ele>-11.8</ele>
        <time>2021-12-24T15:49:52Z</time>
      </trkpt>
      <trkpt lat="46.20723" lon="-1.16323">
        <ele>-11.8</ele>
        <time>2021-12-24T15:49:53Z</time>
      </trkpt>
      <trkpt lat="46.20718" lon="-1.16325">
        <ele>-11.8</ele>
        <time>2021-12-24T15:49:54Z</time>
      </trkpt>
      <trkpt lat="46.20714" lon="-1.16326">
        <ele>-12</ele>
        <time>2021-12-24T15:49:55Z</time>
      </trkpt>
      <trkpt lat="46.20708" lon="-1.16327">
        <ele>-12</ele>
        <time>2021-12-24T15:49:56Z</time>
      </trkpt>
      <trkpt lat="46.20703" lon="-1.16329">
        <ele>-12</ele>
        <time>2021-12-24T15:49:57Z</time>
      </trkpt>
      <trkpt lat="46.20698" lon="-1.16331">
        <ele>-12</ele>
        <time>2021-12-24T15:49:58Z</time>
      </trkpt>
      <trkpt lat="46.20688" lon="-1.16335">
        <ele>-12</ele>
        <time>2021-12-24T15:50:00Z</time>
      </trkpt>
      <trkpt lat="46.20678" lon="-1.16339">
        <ele>-11.8</ele>
        <time>2021-12-24T15:50:02Z</time>
      </trkpt>
      <trkpt lat="46.20673" lon="-1.16342">
        <ele>-11.8</ele>
        <time>2021-12-24T15:50:03Z</time>
      </trkpt>
      <trkpt lat="46.2067" lon="-1.16345">
        <ele>-11.6</ele>
        <time>2021-12-24T15:50:04Z</time>
      </trkpt>
      <trkpt lat="46.20661" lon="-1.1635">
        <ele>-12</ele>
        <time>2021-12-24T15:50:06Z</time>
      </trkpt>
      <trkpt lat="46.20659" lon="-1.16353">
        <ele>-11.8</ele>
        <time>2021-12-24T15:50:07Z</time>
      </trkpt>
      <trkpt lat="46.20658" lon="-1.16357">
        <ele>-11.6</ele>
        <time>2021-12-24T15:50:08Z</time>
      </trkpt>
      <trkpt lat="46.20654" lon="-1.16364">
        <ele>-10.8</ele>
        <time>2021-12-24T15:50:10Z</time>
      </trkpt>
      <trkpt lat="46.20648" lon="-1.16372">
        <ele>-11</ele>
        <time>2021-12-24T15:50:12Z</time>
      </trkpt>
      <trkpt lat="46.20644" lon="-1.16376">
        <ele>-10.8</ele>
        <time>2021-12-24T15:50:13Z</time>
      </trkpt>
      <trkpt lat="46.20641" lon="-1.16379">
        <ele>-10.6</ele>
        <time>2021-12-24T15:50:14Z</time>
      </trkpt>
      <trkpt lat="46.20635" lon="-1.16385">
        <ele>-10.6</ele>
        <time>2021-12-24T15:50:16Z</time>
      </trkpt>
      <trkpt lat="46.20628" lon="-1.16389">
        <ele>-10.6</ele>
        <time>2021-12-24T15:50:18Z</time>
      </trkpt>
      <trkpt lat="46.20621" lon="-1.16393">
        <ele>-10.4</ele>
        <time>2021-12-24T15:50:20Z</time>
      </trkpt>
      <trkpt lat="46.20614" lon="-1.16397">
        <ele>-10.4</ele>
        <time>2021-12-24T15:50:22Z</time>
      </trkpt>
      <trkpt lat="46.20605" lon="-1.16401">
        <ele>-10.4</ele>
        <time>2021-12-24T15:50:24Z</time>
      </trkpt>
      <trkpt lat="46.20598" lon="-1.16405">
        <ele>-10.4</ele>
        <time>2021-12-24T15:50:26Z</time>
      </trkpt>
      <trkpt lat="46.20592" lon="-1.1641">
        <ele>-10.4</ele>
        <time>2021-12-24T15:50:28Z</time>
      </trkpt>
      <trkpt lat="46.20589" lon="-1.16413">
        <ele>-10.4</ele>
        <time>2021-12-24T15:50:29Z</time>
      </trkpt>
      <trkpt lat="46.20586" lon="-1.16418">
        <ele>-10.4</ele>
        <time>2021-12-24T15:50:30Z</time>
      </trkpt>
      <trkpt lat="46.20585" lon="-1.16423">
        <ele>-10.4</ele>
        <time>2021-12-24T15:50:31Z</time>
      </trkpt>
      <trkpt lat="46.20582" lon="-1.16429">
        <ele>-10.4</ele>
        <time>2021-12-24T15:50:32Z</time>
      </trkpt>
      <trkpt lat="46.2058" lon="-1.16436">
        <ele>-10.2</ele>
        <time>2021-12-24T15:50:33Z</time>
      </trkpt>
      <trkpt lat="46.2058" lon="-1.16443">
        <ele>-10</ele>
        <time>2021-12-24T15:50:34Z</time>
      </trkpt>
      <trkpt lat="46.20581" lon="-1.16456">
        <ele>-10</ele>
        <time>2021-12-24T15:50:36Z</time>
      </trkpt>
      <trkpt lat="46.20582" lon="-1.16468">
        <ele>-10</ele>
        <time>2021-12-24T15:50:38Z</time>
      </trkpt>
      <trkpt lat="46.20582" lon="-1.1648">
        <ele>-9.8</ele>
        <time>2021-12-24T15:50:40Z</time>
      </trkpt>
      <trkpt lat="46.20577" lon="-1.1649">
        <ele>-9.6</ele>
        <time>2021-12-24T15:50:42Z</time>
      </trkpt>
      <trkpt lat="46.20569" lon="-1.16493">
        <ele>-9.4</ele>
        <time>2021-12-24T15:50:44Z</time>
      </trkpt>
      <trkpt lat="46.20564" lon="-1.16493">
        <ele>-9.4</ele>
        <time>2021-12-24T15:50:45Z</time>
      </trkpt>
      <trkpt lat="46.20559" lon="-1.16495">
        <ele>-9.2</ele>
        <time>2021-12-24T15:50:46Z</time>
      </trkpt>
      <trkpt lat="46.2055" lon="-1.16499">
        <ele>-9.2</ele>
        <time>2021-12-24T15:50:48Z</time>
      </trkpt>
      <trkpt lat="46.20541" lon="-1.16502">
        <ele>-9</ele>
        <time>2021-12-24T15:50:50Z</time>
      </trkpt>
      <trkpt lat="46.20536" lon="-1.16503">
        <ele>-9</ele>
        <time>2021-12-24T15:50:51Z</time>
      </trkpt>
      <trkpt lat="46.20532" lon="-1.16505">
        <ele>-8.8</ele>
        <time>2021-12-24T15:50:52Z</time>
      </trkpt>
      <trkpt lat="46.20523" lon="-1.16508">
        <ele>-8.4</ele>
        <time>2021-12-24T15:50:54Z</time>
      </trkpt>
      <trkpt lat="46.20514" lon="-1.16509">
        <ele>-8.2</ele>
        <time>2021-12-24T15:50:56Z</time>
      </trkpt>
      <trkpt lat="46.20504" lon="-1.16511">
        <ele>-8</ele>
        <time>2021-12-24T15:50:58Z</time>
      </trkpt>
      <trkpt lat="46.20495" lon="-1.16513">
        <ele>-7.8</ele>
        <time>2021-12-24T15:51:00Z</time>
      </trkpt>
      <trkpt lat="46.20486" lon="-1.16516">
        <ele>-7.6</ele>
        <time>2021-12-24T15:51:02Z</time>
      </trkpt>
      <trkpt lat="46.20481" lon="-1.16518">
        <ele>-7.4</ele>
        <time>2021-12-24T15:51:03Z</time>
      </trkpt>
      <trkpt lat="46.20476" lon="-1.16519">
        <ele>-7.2</ele>
        <time>2021-12-24T15:51:04Z</time>
      </trkpt>
      <trkpt lat="46.20466" lon="-1.16523">
        <ele>-7.2</ele>
        <time>2021-12-24T15:51:06Z</time>
      </trkpt>
      <trkpt lat="46.20456" lon="-1.16527">
        <ele>-7</ele>
        <time>2021-12-24T15:51:08Z</time>
      </trkpt>
      <trkpt lat="46.20445" lon="-1.16532">
        <ele>-7</ele>
        <time>2021-12-24T15:51:10Z</time>
      </trkpt>
      <trkpt lat="46.20439" lon="-1.16534">
        <ele>-7</ele>
        <time>2021-12-24T15:51:11Z</time>
      </trkpt>
      <trkpt lat="46.20433" lon="-1.16535">
        <ele>-6.8</ele>
        <time>2021-12-24T15:51:12Z</time>
      </trkpt>
      <trkpt lat="46.20428" lon="-1.16538">
        <ele>-6.8</ele>
        <time>2021-12-24T15:51:13Z</time>
      </trkpt>
      <trkpt lat="46.20423" lon="-1.16541">
        <ele>-6.6</ele>
        <time>2021-12-24T15:51:14Z</time>
      </trkpt>
      <trkpt lat="46.20412" lon="-1.16546">
        <ele>-6.4</ele>
        <time>2021-12-24T15:51:16Z</time>
      </trkpt>
      <trkpt lat="46.20401" lon="-1.16549">
        <ele>-6.2</ele>
        <time>2021-12-24T15:51:18Z</time>
      </trkpt>
      <trkpt lat="46.20391" lon="-1.16552">
        <ele>-6</ele>
        <time>2021-12-24T15:51:20Z</time>
      </trkpt>
      <trkpt lat="46.20386" lon="-1.16555">
        <ele>-6</ele>
        <time>2021-12-24T15:51:21Z</time>
      </trkpt>
      <trkpt lat="46.20381" lon="-1.16558">
        <ele>-5.8</ele>
        <time>2021-12-24T15:51:22Z</time>
      </trkpt>
      <trkpt lat="46.20377" lon="-1.16561">
        <ele>-5.8</ele>
        <time>2021-12-24T15:51:23Z</time>
      </trkpt>
      <trkpt lat="46.20372" lon="-1.16563">
        <ele>-5.6</ele>
        <time>2021-12-24T15:51:24Z</time>
      </trkpt>
      <trkpt lat="46.20363" lon="-1.16567">
        <ele>-5.2</ele>
        <time>2021-12-24T15:51:26Z</time>
      </trkpt>
      <trkpt lat="46.20355" lon="-1.16571">
        <ele>-4.8</ele>
        <time>2021-12-24T15:51:28Z</time>
      </trkpt>
      <trkpt lat="46.20346" lon="-1.16575">
        <ele>-4.6</ele>
        <time>2021-12-24T15:51:30Z</time>
      </trkpt>
      <trkpt lat="46.20337" lon="-1.16578">
        <ele>-4.2</ele>
        <time>2021-12-24T15:51:32Z</time>
      </trkpt>
      <trkpt lat="46.20329" lon="-1.16581">
        <ele>-4</ele>
        <time>2021-12-24T15:51:34Z</time>
      </trkpt>
      <trkpt lat="46.20321" lon="-1.16585">
        <ele>-3.8</ele>
        <time>2021-12-24T15:51:36Z</time>
      </trkpt>
      <trkpt lat="46.20313" lon="-1.16587">
        <ele>-3.4</ele>
        <time>2021-12-24T15:51:38Z</time>
      </trkpt>
      <trkpt lat="46.20309" lon="-1.16589">
        <ele>-3.2</ele>
        <time>2021-12-24T15:51:39Z</time>
      </trkpt>
      <trkpt lat="46.20305" lon="-1.1659">
        <ele>-3.2</ele>
        <time>2021-12-24T15:51:40Z</time>
      </trkpt>
      <trkpt lat="46.20296" lon="-1.16592">
        <ele>-2.8</ele>
        <time>2021-12-24T15:51:42Z</time>
      </trkpt>
      <trkpt lat="46.20288" lon="-1.16594">
        <ele>-2.6</ele>
        <time>2021-12-24T15:51:44Z</time>
      </trkpt>
      <trkpt lat="46.20279" lon="-1.16597">
        <ele>-2.2</ele>
        <time>2021-12-24T15:51:46Z</time>
      </trkpt>
      <trkpt lat="46.20275" lon="-1.16598">
        <ele>-2</ele>
        <time>2021-12-24T15:51:47Z</time>
      </trkpt>
      <trkpt lat="46.20271" lon="-1.166">
        <ele>-2</ele>
        <time>2021-12-24T15:51:48Z</time>
      </trkpt>
      <trkpt lat="46.20263" lon="-1.16601">
        <ele>-1.6</ele>
        <time>2021-12-24T15:51:50Z</time>
      </trkpt>
      <trkpt lat="46.20254" lon="-1.16602">
        <ele>-1.2</ele>
        <time>2021-12-24T15:51:52Z</time>
      </trkpt>
      <trkpt lat="46.20246" lon="-1.16603">
        <ele>-0.60000000000002</ele>
        <time>2021-12-24T15:51:54Z</time>
      </trkpt>
      <trkpt lat="46.20239" lon="-1.16605">
        <ele>-0.39999999999998</ele>
        <time>2021-12-24T15:51:56Z</time>
      </trkpt>
      <trkpt lat="46.20232" lon="-1.16606">
        <ele>-0.19999999999999</ele>
        <time>2021-12-24T15:51:58Z</time>
      </trkpt>
      <trkpt lat="46.20229" lon="-1.16607">
        <ele>-0.19999999999999</ele>
        <time>2021-12-24T15:51:59Z</time>
      </trkpt>
      <trkpt lat="46.20226" lon="-1.16608">
        <ele>0.19999999999999</ele>
        <time>2021-12-24T15:52:00Z</time>
      </trkpt>
      <trkpt lat="46.20219" lon="-1.1661">
        <ele>0.39999999999998</ele>
        <time>2021-12-24T15:52:02Z</time>
      </trkpt>
      <trkpt lat="46.20211" lon="-1.16611">
        <ele>0.60000000000002</ele>
        <time>2021-12-24T15:52:04Z</time>
      </trkpt>
      <trkpt lat="46.20207" lon="-1.1661">
        <ele>1</ele>
        <time>2021-12-24T15:52:05Z</time>
      </trkpt>
      <trkpt lat="46.20204" lon="-1.16611">
        <ele>1</ele>
        <time>2021-12-24T15:52:06Z</time>
      </trkpt>
      <trkpt lat="46.20197" lon="-1.16611">
        <ele>1.4</ele>
        <time>2021-12-24T15:52:08Z</time>
      </trkpt>
      <trkpt lat="46.2019" lon="-1.16612">
        <ele>1.6</ele>
        <time>2021-12-24T15:52:10Z</time>
      </trkpt>
      <trkpt lat="46.20183" lon="-1.16614">
        <ele>1.8</ele>
        <time>2021-12-24T15:52:12Z</time>
      </trkpt>
      <trkpt lat="46.20175" lon="-1.16614">
        <ele>2</ele>
        <time>2021-12-24T15:52:14Z</time>
      </trkpt>
      <trkpt lat="46.20168" lon="-1.16614">
        <ele>2.4</ele>
        <time>2021-12-24T15:52:16Z</time>
      </trkpt>
      <trkpt lat="46.2016" lon="-1.16614">
        <ele>2.6</ele>
        <time>2021-12-24T15:52:18Z</time>
      </trkpt>
      <trkpt lat="46.20156" lon="-1.16615">
        <ele>2.8</ele>
        <time>2021-12-24T15:52:19Z</time>
      </trkpt>
      <trkpt lat="46.20152" lon="-1.16615">
        <ele>2.8</ele>
        <time>2021-12-24T15:52:20Z</time>
      </trkpt>
      <trkpt lat="46.20144" lon="-1.16615">
        <ele>3.2</ele>
        <time>2021-12-24T15:52:22Z</time>
      </trkpt>
      <trkpt lat="46.20135" lon="-1.16616">
        <ele>3.4</ele>
        <time>2021-12-24T15:52:24Z</time>
      </trkpt>
      <trkpt lat="46.20127" lon="-1.16618">
        <ele>3.6</ele>
        <time>2021-12-24T15:52:26Z</time>
      </trkpt>
      <trkpt lat="46.20123" lon="-1.16617">
        <ele>3.8</ele>
        <time>2021-12-24T15:52:27Z</time>
      </trkpt>
      <trkpt lat="46.20118" lon="-1.16617">
        <ele>3.8</ele>
        <time>2021-12-24T15:52:28Z</time>
      </trkpt>
      <trkpt lat="46.20109" lon="-1.16618">
        <ele>4</ele>
        <time>2021-12-24T15:52:30Z</time>
      </trkpt>
      <trkpt lat="46.20099" lon="-1.16618">
        <ele>4.2</ele>
        <time>2021-12-24T15:52:32Z</time>
      </trkpt>
      <trkpt lat="46.2009" lon="-1.16619">
        <ele>4.4</ele>
        <time>2021-12-24T15:52:34Z</time>
      </trkpt>
      <trkpt lat="46.20086" lon="-1.16619">
        <ele>4.6</ele>
        <time>2021-12-24T15:52:35Z</time>
      </trkpt>
      <trkpt lat="46.20082" lon="-1.16621">
        <ele>4.8</ele>
        <time>2021-12-24T15:52:36Z</time>
      </trkpt>
      <trkpt lat="46.20075" lon="-1.16627">
        <ele>4.8</ele>
        <time>2021-12-24T15:52:38Z</time>
      </trkpt>
      <trkpt lat="46.20071" lon="-1.16629">
        <ele>5</ele>
        <time>2021-12-24T15:52:39Z</time>
      </trkpt>
      <trkpt lat="46.20066" lon="-1.16629">
        <ele>5.2</ele>
        <time>2021-12-24T15:52:40Z</time>
      </trkpt>
      <trkpt lat="46.20058" lon="-1.16624">
        <ele>5.2</ele>
        <time>2021-12-24T15:52:42Z</time>
      </trkpt>
      <trkpt lat="46.20053" lon="-1.16622">
        <ele>5.4</ele>
        <time>2021-12-24T15:52:43Z</time>
      </trkpt>
      <trkpt lat="46.20049" lon="-1.16621">
        <ele>5.4</ele>
        <time>2021-12-24T15:52:44Z</time>
      </trkpt>
      <trkpt lat="46.20044" lon="-1.16622">
        <ele>5.6</ele>
        <time>2021-12-24T15:52:45Z</time>
      </trkpt>
      <trkpt lat="46.2004" lon="-1.16622">
        <ele>5.6</ele>
        <time>2021-12-24T15:52:46Z</time>
      </trkpt>
      <trkpt lat="46.2003" lon="-1.16624">
        <ele>5.8</ele>
        <time>2021-12-24T15:52:48Z</time>
      </trkpt>
      <trkpt lat="46.2002" lon="-1.16625">
        <ele>6</ele>
        <time>2021-12-24T15:52:50Z</time>
      </trkpt>
      <trkpt lat="46.20011" lon="-1.16626">
        <ele>6</ele>
        <time>2021-12-24T15:52:52Z</time>
      </trkpt>
      <trkpt lat="46.20001" lon="-1.16628">
        <ele>6.2</ele>
        <time>2021-12-24T15:52:54Z</time>
      </trkpt>
      <trkpt lat="46.1999" lon="-1.16629">
        <ele>6.4</ele>
        <time>2021-12-24T15:52:56Z</time>
      </trkpt>
      <trkpt lat="46.19985" lon="-1.16631">
        <ele>6.4</ele>
        <time>2021-12-24T15:52:57Z</time>
      </trkpt>
      <trkpt lat="46.1998" lon="-1.16633">
        <ele>6.4</ele>
        <time>2021-12-24T15:52:58Z</time>
      </trkpt>
      <trkpt lat="46.19969" lon="-1.16637">
        <ele>6.6</ele>
        <time>2021-12-24T15:53:00Z</time>
      </trkpt>
      <trkpt lat="46.19958" lon="-1.16642">
        <ele>6.8</ele>
        <time>2021-12-24T15:53:02Z</time>
      </trkpt>
      <trkpt lat="46.19946" lon="-1.16646">
        <ele>7</ele>
        <time>2021-12-24T15:53:04Z</time>
      </trkpt>
      <trkpt lat="46.1994" lon="-1.16649">
        <ele>7</ele>
        <time>2021-12-24T15:53:05Z</time>
      </trkpt>
      <trkpt lat="46.19934" lon="-1.16652">
        <ele>7</ele>
        <time>2021-12-24T15:53:06Z</time>
      </trkpt>
      <trkpt lat="46.19921" lon="-1.16657">
        <ele>7.2</ele>
        <time>2021-12-24T15:53:08Z</time>
      </trkpt>
      <trkpt lat="46.19909" lon="-1.16661">
        <ele>7.2</ele>
        <time>2021-12-24T15:53:10Z</time>
      </trkpt>
      <trkpt lat="46.19903" lon="-1.16662">
        <ele>7.4</ele>
        <time>2021-12-24T15:53:11Z</time>
      </trkpt>
      <trkpt lat="46.19896" lon="-1.16665">
        <ele>7.4</ele>
        <time>2021-12-24T15:53:12Z</time>
      </trkpt>
      <trkpt lat="46.19884" lon="-1.16668">
        <ele>7.6</ele>
        <time>2021-12-24T15:53:14Z</time>
      </trkpt>
      <trkpt lat="46.19871" lon="-1.16671">
        <ele>7.8</ele>
        <time>2021-12-24T15:53:16Z</time>
      </trkpt>
      <trkpt lat="46.19858" lon="-1.16673">
        <ele>7.8</ele>
        <time>2021-12-24T15:53:18Z</time>
      </trkpt>
      <trkpt lat="46.19845" lon="-1.16674">
        <ele>8</ele>
        <time>2021-12-24T15:53:20Z</time>
      </trkpt>
      <trkpt lat="46.19838" lon="-1.16675">
        <ele>8</ele>
        <time>2021-12-24T15:53:21Z</time>
      </trkpt>
      <trkpt lat="46.19831" lon="-1.16676">
        <ele>8</ele>
        <time>2021-12-24T15:53:22Z</time>
      </trkpt>
      <trkpt lat="46.19817" lon="-1.16678">
        <ele>8.2</ele>
        <time>2021-12-24T15:53:24Z</time>
      </trkpt>
      <trkpt lat="46.19803" lon="-1.1668">
        <ele>8.2</ele>
        <time>2021-12-24T15:53:26Z</time>
      </trkpt>
      <trkpt lat="46.19797" lon="-1.16681">
        <ele>8.2</ele>
        <time>2021-12-24T15:53:27Z</time>
      </trkpt>
      <trkpt lat="46.1979" lon="-1.16682">
        <ele>8.4</ele>
        <time>2021-12-24T15:53:28Z</time>
      </trkpt>
      <trkpt lat="46.19776" lon="-1.16684">
        <ele>8.4</ele>
        <time>2021-12-24T15:53:30Z</time>
      </trkpt>
      <trkpt lat="46.19763" lon="-1.16686">
        <ele>8.4</ele>
        <time>2021-12-24T15:53:32Z</time>
      </trkpt>
      <trkpt lat="46.19748" lon="-1.16688">
        <ele>8.4</ele>
        <time>2021-12-24T15:53:34Z</time>
      </trkpt>
      <trkpt lat="46.19741" lon="-1.16689">
        <ele>8.4</ele>
        <time>2021-12-24T15:53:35Z</time>
      </trkpt>
      <trkpt lat="46.19734" lon="-1.1669">
        <ele>8.4</ele>
        <time>2021-12-24T15:53:36Z</time>
      </trkpt>
      <trkpt lat="46.19719" lon="-1.16692">
        <ele>8.4</ele>
        <time>2021-12-24T15:53:38Z</time>
      </trkpt>
      <trkpt lat="46.19704" lon="-1.16695">
        <ele>8.4</ele>
        <time>2021-12-24T15:53:40Z</time>
      </trkpt>
      <trkpt lat="46.1969" lon="-1.16697">
        <ele>8.4</ele>
        <time>2021-12-24T15:53:42Z</time>
      </trkpt>
      <trkpt lat="46.19675" lon="-1.16699">
        <ele>8.4</ele>
        <time>2021-12-24T15:53:44Z</time>
      </trkpt>
      <trkpt lat="46.19662" lon="-1.16703">
        <ele>8.6</ele>
        <time>2021-12-24T15:53:46Z</time>
      </trkpt>
      <trkpt lat="46.19649" lon="-1.16705">
        <ele>8.6</ele>
        <time>2021-12-24T15:53:48Z</time>
      </trkpt>
      <trkpt lat="46.19637" lon="-1.16705">
        <ele>8.6</ele>
        <time>2021-12-24T15:53:50Z</time>
      </trkpt>
      <trkpt lat="46.19629" lon="-1.16697">
        <ele>8.6</ele>
        <time>2021-12-24T15:53:52Z</time>
      </trkpt>
      <trkpt lat="46.19626" lon="-1.16692">
        <ele>8.6</ele>
        <time>2021-12-24T15:53:53Z</time>
      </trkpt>
      <trkpt lat="46.19626" lon="-1.16686">
        <ele>8.6</ele>
        <time>2021-12-24T15:53:54Z</time>
      </trkpt>
      <trkpt lat="46.19627" lon="-1.16679">
        <ele>8.4</ele>
        <time>2021-12-24T15:53:55Z</time>
      </trkpt>
      <trkpt lat="46.19627" lon="-1.16672">
        <ele>8.2</ele>
        <time>2021-12-24T15:53:56Z</time>
      </trkpt>
      <trkpt lat="46.19628" lon="-1.16665">
        <ele>8.2</ele>
        <time>2021-12-24T15:53:57Z</time>
      </trkpt>
      <trkpt lat="46.19627" lon="-1.16658">
        <ele>8</ele>
        <time>2021-12-24T15:53:58Z</time>
      </trkpt>
      <trkpt lat="46.19626" lon="-1.16652">
        <ele>8</ele>
        <time>2021-12-24T15:53:59Z</time>
      </trkpt>
      <trkpt lat="46.19624" lon="-1.16646">
        <ele>8.2</ele>
        <time>2021-12-24T15:54:00Z</time>
      </trkpt>
      <trkpt lat="46.19622" lon="-1.16641">
        <ele>8.2</ele>
        <time>2021-12-24T15:54:01Z</time>
      </trkpt>
      <trkpt lat="46.19618" lon="-1.16637">
        <ele>8.2</ele>
        <time>2021-12-24T15:54:02Z</time>
      </trkpt>
      <trkpt lat="46.19611" lon="-1.1663">
        <ele>8.2</ele>
        <time>2021-12-24T15:54:04Z</time>
      </trkpt>
      <trkpt lat="46.19606" lon="-1.16626">
        <ele>8.2</ele>
        <time>2021-12-24T15:54:05Z</time>
      </trkpt>
      <trkpt lat="46.19602" lon="-1.16623">
        <ele>8.2</ele>
        <time>2021-12-24T15:54:06Z</time>
      </trkpt>
      <trkpt lat="46.19593" lon="-1.16617">
        <ele>8.2</ele>
        <time>2021-12-24T15:54:08Z</time>
      </trkpt>
      <trkpt lat="46.19584" lon="-1.16612">
        <ele>8.2</ele>
        <time>2021-12-24T15:54:10Z</time>
      </trkpt>
      <trkpt lat="46.19575" lon="-1.16607">
        <ele>8.4</ele>
        <time>2021-12-24T15:54:12Z</time>
      </trkpt>
      <trkpt lat="46.1957" lon="-1.16605">
        <ele>8.4</ele>
        <time>2021-12-24T15:54:13Z</time>
      </trkpt>
      <trkpt lat="46.19566" lon="-1.16603">
        <ele>8.6</ele>
        <time>2021-12-24T15:54:14Z</time>
      </trkpt>
      <trkpt lat="46.19557" lon="-1.16599">
        <ele>8.6</ele>
        <time>2021-12-24T15:54:16Z</time>
      </trkpt>
      <trkpt lat="46.19548" lon="-1.16597">
        <ele>8.8</ele>
        <time>2021-12-24T15:54:18Z</time>
      </trkpt>
      <trkpt lat="46.19538" lon="-1.16595">
        <ele>9</ele>
        <time>2021-12-24T15:54:20Z</time>
      </trkpt>
      <trkpt lat="46.19529" lon="-1.16593">
        <ele>9</ele>
        <time>2021-12-24T15:54:22Z</time>
      </trkpt>
      <trkpt lat="46.19525" lon="-1.16594">
        <ele>9.2</ele>
        <time>2021-12-24T15:54:23Z</time>
      </trkpt>
      <trkpt lat="46.1952" lon="-1.16594">
        <ele>9.2</ele>
        <time>2021-12-24T15:54:24Z</time>
      </trkpt>
      <trkpt lat="46.19511" lon="-1.16595">
        <ele>9.2</ele>
        <time>2021-12-24T15:54:26Z</time>
      </trkpt>
      <trkpt lat="46.19502" lon="-1.16595">
        <ele>9.4</ele>
        <time>2021-12-24T15:54:28Z</time>
      </trkpt>
      <trkpt lat="46.19493" lon="-1.16596">
        <ele>9.6</ele>
        <time>2021-12-24T15:54:30Z</time>
      </trkpt>
      <trkpt lat="46.19484" lon="-1.16596">
        <ele>9.8</ele>
        <time>2021-12-24T15:54:32Z</time>
      </trkpt>
      <trkpt lat="46.19474" lon="-1.16596">
        <ele>9.8</ele>
        <time>2021-12-24T15:54:34Z</time>
      </trkpt>
      <trkpt lat="46.1947" lon="-1.16596">
        <ele>9.8</ele>
        <time>2021-12-24T15:54:35Z</time>
      </trkpt>
      <trkpt lat="46.19465" lon="-1.16597">
        <ele>10</ele>
        <time>2021-12-24T15:54:36Z</time>
      </trkpt>
      <trkpt lat="46.19456" lon="-1.16597">
        <ele>10</ele>
        <time>2021-12-24T15:54:38Z</time>
      </trkpt>
      <trkpt lat="46.19447" lon="-1.16597">
        <ele>10.2</ele>
        <time>2021-12-24T15:54:40Z</time>
      </trkpt>
      <trkpt lat="46.19437" lon="-1.16597">
        <ele>10.4</ele>
        <time>2021-12-24T15:54:42Z</time>
      </trkpt>
      <trkpt lat="46.19432" lon="-1.16597">
        <ele>10.4</ele>
        <time>2021-12-24T15:54:43Z</time>
      </trkpt>
      <trkpt lat="46.19427" lon="-1.16597">
        <ele>10.4</ele>
        <time>2021-12-24T15:54:44Z</time>
      </trkpt>
      <trkpt lat="46.19417" lon="-1.16597">
        <ele>10.6</ele>
        <time>2021-12-24T15:54:46Z</time>
      </trkpt>
      <trkpt lat="46.19407" lon="-1.16597">
        <ele>10.6</ele>
        <time>2021-12-24T15:54:48Z</time>
      </trkpt>
      <trkpt lat="46.19398" lon="-1.16598">
        <ele>10.8</ele>
        <time>2021-12-24T15:54:50Z</time>
      </trkpt>
      <trkpt lat="46.19388" lon="-1.16598">
        <ele>11</ele>
        <time>2021-12-24T15:54:52Z</time>
      </trkpt>
      <trkpt lat="46.19378" lon="-1.16599">
        <ele>11</ele>
        <time>2021-12-24T15:54:54Z</time>
      </trkpt>
      <trkpt lat="46.19369" lon="-1.16599">
        <ele>11.2</ele>
        <time>2021-12-24T15:54:56Z</time>
      </trkpt>
      <trkpt lat="46.1936" lon="-1.166">
        <ele>11.4</ele>
        <time>2021-12-24T15:54:58Z</time>
      </trkpt>
      <trkpt lat="46.19351" lon="-1.16601">
        <ele>11.4</ele>
        <time>2021-12-24T15:55:00Z</time>
      </trkpt>
      <trkpt lat="46.19341" lon="-1.16601">
        <ele>11.6</ele>
        <time>2021-12-24T15:55:02Z</time>
      </trkpt>
      <trkpt lat="46.19332" lon="-1.16602">
        <ele>11.8</ele>
        <time>2021-12-24T15:55:04Z</time>
      </trkpt>
      <trkpt lat="46.19322" lon="-1.16602">
        <ele>11.8</ele>
        <time>2021-12-24T15:55:06Z</time>
      </trkpt>
      <trkpt lat="46.19318" lon="-1.16603">
        <ele>11.8</ele>
        <time>2021-12-24T15:55:07Z</time>
      </trkpt>
      <trkpt lat="46.19313" lon="-1.16603">
        <ele>12</ele>
        <time>2021-12-24T15:55:08Z</time>
      </trkpt>
      <trkpt lat="46.19303" lon="-1.16604">
        <ele>12</ele>
        <time>2021-12-24T15:55:10Z</time>
      </trkpt>
      <trkpt lat="46.19293" lon="-1.16605">
        <ele>12.2</ele>
        <time>2021-12-24T15:55:12Z</time>
      </trkpt>
      <trkpt lat="46.19283" lon="-1.16606">
        <ele>12.2</ele>
        <time>2021-12-24T15:55:14Z</time>
      </trkpt>
      <trkpt lat="46.19275" lon="-1.16607">
        <ele>12.2</ele>
        <time>2021-12-24T15:55:16Z</time>
      </trkpt>
      <trkpt lat="46.19268" lon="-1.16608">
        <ele>12.4</ele>
        <time>2021-12-24T15:55:18Z</time>
      </trkpt>
      <trkpt lat="46.19264" lon="-1.16609">
        <ele>12.4</ele>
        <time>2021-12-24T15:55:19Z</time>
      </trkpt>
      <trkpt lat="46.19261" lon="-1.1661">
        <ele>12.6</ele>
        <time>2021-12-24T15:55:20Z</time>
      </trkpt>
      <trkpt lat="46.19254" lon="-1.16611">
        <ele>12.6</ele>
        <time>2021-12-24T15:55:22Z</time>
      </trkpt>
      <trkpt lat="46.19245" lon="-1.16608">
        <ele>12.8</ele>
        <time>2021-12-24T15:55:24Z</time>
      </trkpt>
      <trkpt lat="46.19237" lon="-1.16609">
        <ele>12.8</ele>
        <time>2021-12-24T15:55:26Z</time>
      </trkpt>
      <trkpt lat="46.19229" lon="-1.16611">
        <ele>13</ele>
        <time>2021-12-24T15:55:28Z</time>
      </trkpt>
      <trkpt lat="46.1922" lon="-1.16613">
        <ele>13</ele>
        <time>2021-12-24T15:55:30Z</time>
      </trkpt>
      <trkpt lat="46.19212" lon="-1.16615">
        <ele>13</ele>
        <time>2021-12-24T15:55:32Z</time>
      </trkpt>
      <trkpt lat="46.19204" lon="-1.16618">
        <ele>13.2</ele>
        <time>2021-12-24T15:55:34Z</time>
      </trkpt>
      <trkpt lat="46.192" lon="-1.16619">
        <ele>13.2</ele>
        <time>2021-12-24T15:55:35Z</time>
      </trkpt>
      <trkpt lat="46.19196" lon="-1.16622">
        <ele>13.2</ele>
        <time>2021-12-24T15:55:36Z</time>
      </trkpt>
      <trkpt lat="46.19187" lon="-1.16627">
        <ele>13.2</ele>
        <time>2021-12-24T15:55:38Z</time>
      </trkpt>
      <trkpt lat="46.19179" lon="-1.16633">
        <ele>13.4</ele>
        <time>2021-12-24T15:55:40Z</time>
      </trkpt>
      <trkpt lat="46.19171" lon="-1.1664">
        <ele>13.4</ele>
        <time>2021-12-24T15:55:42Z</time>
      </trkpt>
      <trkpt lat="46.19162" lon="-1.16647">
        <ele>13.4</ele>
        <time>2021-12-24T15:55:44Z</time>
      </trkpt>
      <trkpt lat="46.19153" lon="-1.16654">
        <ele>13.2</ele>
        <time>2021-12-24T15:55:46Z</time>
      </trkpt>
      <trkpt lat="46.19144" lon="-1.1666">
        <ele>13.4</ele>
        <time>2021-12-24T15:55:48Z</time>
      </trkpt>
      <trkpt lat="46.19134" lon="-1.16663">
        <ele>13.4</ele>
        <time>2021-12-24T15:55:50Z</time>
      </trkpt>
      <trkpt lat="46.19124" lon="-1.1666">
        <ele>13.4</ele>
        <time>2021-12-24T15:55:52Z</time>
      </trkpt>
      <trkpt lat="46.19114" lon="-1.1665">
        <ele>13.2</ele>
        <time>2021-12-24T15:55:54Z</time>
      </trkpt>
      <trkpt lat="46.19111" lon="-1.16643">
        <ele>13.6</ele>
        <time>2021-12-24T15:55:55Z</time>
      </trkpt>
      <trkpt lat="46.19108" lon="-1.16636">
        <ele>13</ele>
        <time>2021-12-24T15:55:56Z</time>
      </trkpt>
      <trkpt lat="46.19105" lon="-1.16621">
        <ele>13.2</ele>
        <time>2021-12-24T15:55:58Z</time>
      </trkpt>
      <trkpt lat="46.19099" lon="-1.16607">
        <ele>13</ele>
        <time>2021-12-24T15:56:00Z</time>
      </trkpt>
      <trkpt lat="46.19096" lon="-1.166">
        <ele>13</ele>
        <time>2021-12-24T15:56:01Z</time>
      </trkpt>
      <trkpt lat="46.19093" lon="-1.16595">
        <ele>13</ele>
        <time>2021-12-24T15:56:02Z</time>
      </trkpt>
      <trkpt lat="46.19089" lon="-1.16591">
        <ele>13.2</ele>
        <time>2021-12-24T15:56:03Z</time>
      </trkpt>
      <trkpt lat="46.19084" lon="-1.16589">
        <ele>13</ele>
        <time>2021-12-24T15:56:04Z</time>
      </trkpt>
      <trkpt lat="46.19075" lon="-1.16583">
        <ele>13</ele>
        <time>2021-12-24T15:56:06Z</time>
      </trkpt>
      <trkpt lat="46.19067" lon="-1.16572">
        <ele>13</ele>
        <time>2021-12-24T15:56:08Z</time>
      </trkpt>
      <trkpt lat="46.19063" lon="-1.16566">
        <ele>13</ele>
        <time>2021-12-24T15:56:09Z</time>
      </trkpt>
      <trkpt lat="46.1906" lon="-1.16559">
        <ele>13</ele>
        <time>2021-12-24T15:56:10Z</time>
      </trkpt>
      <trkpt lat="46.19058" lon="-1.16552">
        <ele>12.8</ele>
        <time>2021-12-24T15:56:11Z</time>
      </trkpt>
      <trkpt lat="46.19055" lon="-1.16545">
        <ele>12.8</ele>
        <time>2021-12-24T15:56:12Z</time>
      </trkpt>
      <trkpt lat="46.19051" lon="-1.1654">
        <ele>12.6</ele>
        <time>2021-12-24T15:56:13Z</time>
      </trkpt>
      <trkpt lat="46.19047" lon="-1.16537">
        <ele>12.6</ele>
        <time>2021-12-24T15:56:14Z</time>
      </trkpt>
      <trkpt lat="46.19042" lon="-1.16537">
        <ele>12.4</ele>
        <time>2021-12-24T15:56:15Z</time>
      </trkpt>
      <trkpt lat="46.19037" lon="-1.16539">
        <ele>12.4</ele>
        <time>2021-12-24T15:56:16Z</time>
      </trkpt>
      <trkpt lat="46.19026" lon="-1.16543">
        <ele>12.2</ele>
        <time>2021-12-24T15:56:18Z</time>
      </trkpt>
      <trkpt lat="46.19021" lon="-1.16546">
        <ele>12.2</ele>
        <time>2021-12-24T15:56:19Z</time>
      </trkpt>
      <trkpt lat="46.19015" lon="-1.16548">
        <ele>12</ele>
        <time>2021-12-24T15:56:20Z</time>
      </trkpt>
      <trkpt lat="46.19005" lon="-1.16552">
        <ele>11.8</ele>
        <time>2021-12-24T15:56:22Z</time>
      </trkpt>
      <trkpt lat="46.18999" lon="-1.16554">
        <ele>11.8</ele>
        <time>2021-12-24T15:56:23Z</time>
      </trkpt>
      <trkpt lat="46.18994" lon="-1.16556">
        <ele>11.6</ele>
        <time>2021-12-24T15:56:24Z</time>
      </trkpt>
      <trkpt lat="46.18983" lon="-1.1656">
        <ele>11.2</ele>
        <time>2021-12-24T15:56:26Z</time>
      </trkpt>
      <trkpt lat="46.18973" lon="-1.16564">
        <ele>11</ele>
        <time>2021-12-24T15:56:28Z</time>
      </trkpt>
      <trkpt lat="46.18966" lon="-1.1657">
        <ele>10.6</ele>
        <time>2021-12-24T15:56:30Z</time>
      </trkpt>
      <trkpt lat="46.18963" lon="-1.16573">
        <ele>10.4</ele>
        <time>2021-12-24T15:56:31Z</time>
      </trkpt>
      <trkpt lat="46.1896" lon="-1.16576">
        <ele>10.2</ele>
        <time>2021-12-24T15:56:32Z</time>
      </trkpt>
      <trkpt lat="46.18956" lon="-1.16577">
        <ele>10.2</ele>
        <time>2021-12-24T15:56:34Z</time>
      </trkpt>
      <trkpt lat="46.18952" lon="-1.16578">
        <ele>9.8</ele>
        <time>2021-12-24T15:56:36Z</time>
      </trkpt>
      <trkpt lat="46.18945" lon="-1.16581">
        <ele>9.6</ele>
        <time>2021-12-24T15:56:38Z</time>
      </trkpt>
      <trkpt lat="46.18942" lon="-1.16583">
        <ele>9.6</ele>
        <time>2021-12-24T15:56:39Z</time>
      </trkpt>
      <trkpt lat="46.1894" lon="-1.16586">
        <ele>9.4</ele>
        <time>2021-12-24T15:56:40Z</time>
      </trkpt>
      <trkpt lat="46.18937" lon="-1.16589">
        <ele>9.2</ele>
        <time>2021-12-24T15:56:41Z</time>
      </trkpt>
      <trkpt lat="46.18933" lon="-1.16592">
        <ele>9</ele>
        <time>2021-12-24T15:56:42Z</time>
      </trkpt>
      <trkpt lat="46.18931" lon="-1.16594">
        <ele>8.6</ele>
        <time>2021-12-24T15:56:43Z</time>
      </trkpt>
      <trkpt lat="46.18929" lon="-1.16596">
        <ele>8.4</ele>
        <time>2021-12-24T15:56:44Z</time>
      </trkpt>
      <trkpt lat="46.18924" lon="-1.16603">
        <ele>8</ele>
        <time>2021-12-24T15:56:46Z</time>
      </trkpt>
      <trkpt lat="46.18921" lon="-1.16606">
        <ele>7.6</ele>
        <time>2021-12-24T15:56:47Z</time>
      </trkpt>
      <trkpt lat="46.18918" lon="-1.16606">
        <ele>7.4</ele>
        <time>2021-12-24T15:56:48Z</time>
      </trkpt>
      <trkpt lat="46.18911" lon="-1.16607">
        <ele>6.8</ele>
        <time>2021-12-24T15:56:50Z</time>
      </trkpt>
      <trkpt lat="46.18906" lon="-1.16606">
        <ele>6.6</ele>
        <time>2021-12-24T15:56:51Z</time>
      </trkpt>
      <trkpt lat="46.18902" lon="-1.16606">
        <ele>6.2</ele>
        <time>2021-12-24T15:56:52Z</time>
      </trkpt>
      <trkpt lat="46.18894" lon="-1.16606">
        <ele>5.6</ele>
        <time>2021-12-24T15:56:54Z</time>
      </trkpt>
      <trkpt lat="46.18885" lon="-1.16607">
        <ele>4.8</ele>
        <time>2021-12-24T15:56:56Z</time>
      </trkpt>
      <trkpt lat="46.18876" lon="-1.16608">
        <ele>4</ele>
        <time>2021-12-24T15:56:58Z</time>
      </trkpt>
      <trkpt lat="46.18869" lon="-1.1661">
        <ele>3.2</ele>
        <time>2021-12-24T15:57:00Z</time>
      </trkpt>
      <trkpt lat="46.18863" lon="-1.16613">
        <ele>2.4</ele>
        <time>2021-12-24T15:57:02Z</time>
      </trkpt>
      <trkpt lat="46.18855" lon="-1.16618">
        <ele>1.8</ele>
        <time>2021-12-24T15:57:04Z</time>
      </trkpt>
      <trkpt lat="46.18852" lon="-1.16623">
        <ele>1.8</ele>
        <time>2021-12-24T15:57:05Z</time>
      </trkpt>
      <trkpt lat="46.18848" lon="-1.16627">
        <ele>1.6</ele>
        <time>2021-12-24T15:57:06Z</time>
      </trkpt>
      <trkpt lat="46.18839" lon="-1.16632">
        <ele>1.4</ele>
        <time>2021-12-24T15:57:08Z</time>
      </trkpt>
      <trkpt lat="46.18829" lon="-1.16637">
        <ele>1</ele>
        <time>2021-12-24T15:57:10Z</time>
      </trkpt>
      <trkpt lat="46.18818" lon="-1.16641">
        <ele>0.80000000000001</ele>
        <time>2021-12-24T15:57:12Z</time>
      </trkpt>
      <trkpt lat="46.18813" lon="-1.16643">
        <ele>0.80000000000001</ele>
        <time>2021-12-24T15:57:13Z</time>
      </trkpt>
      <trkpt lat="46.18807" lon="-1.16645">
        <ele>0.80000000000001</ele>
        <time>2021-12-24T15:57:14Z</time>
      </trkpt>
      <trkpt lat="46.18796" lon="-1.16649">
        <ele>0.39999999999998</ele>
        <time>2021-12-24T15:57:16Z</time>
      </trkpt>
      <trkpt lat="46.18789" lon="-1.1665">
        <ele>0.39999999999998</ele>
        <time>2021-12-24T15:57:17Z</time>
      </trkpt>
      <trkpt lat="46.18784" lon="-1.1665">
        <ele>0.19999999999999</ele>
        <time>2021-12-24T15:57:18Z</time>
      </trkpt>
      <trkpt lat="46.18777" lon="-1.1665">
        <ele>-0.19999999999999</ele>
        <time>2021-12-24T15:57:19Z</time>
      </trkpt>
      <trkpt lat="46.18771" lon="-1.1665">
        <ele>-0.39999999999998</ele>
        <time>2021-12-24T15:57:20Z</time>
      </trkpt>
      <trkpt lat="46.18764" lon="-1.1665">
        <ele>-0.80000000000001</ele>
        <time>2021-12-24T15:57:21Z</time>
      </trkpt>
      <trkpt lat="46.18758" lon="-1.1665">
        <ele>-1</ele>
        <time>2021-12-24T15:57:22Z</time>
      </trkpt>
      <trkpt lat="46.18752" lon="-1.16649">
        <ele>-1.4</ele>
        <time>2021-12-24T15:57:23Z</time>
      </trkpt>
      <trkpt lat="46.18747" lon="-1.16648">
        <ele>-1.8</ele>
        <time>2021-12-24T15:57:24Z</time>
      </trkpt>
      <trkpt lat="46.18736" lon="-1.16646">
        <ele>-2.6</ele>
        <time>2021-12-24T15:57:26Z</time>
      </trkpt>
      <trkpt lat="46.1873" lon="-1.16644">
        <ele>-2.8</ele>
        <time>2021-12-24T15:57:27Z</time>
      </trkpt>
      <trkpt lat="46.18724" lon="-1.16643">
        <ele>-3.2</ele>
        <time>2021-12-24T15:57:28Z</time>
      </trkpt>
      <trkpt lat="46.18712" lon="-1.16641">
        <ele>-3.8</ele>
        <time>2021-12-24T15:57:30Z</time>
      </trkpt>
      <trkpt lat="46.18698" lon="-1.1664">
        <ele>-4.4</ele>
        <time>2021-12-24T15:57:32Z</time>
      </trkpt>
      <trkpt lat="46.18693" lon="-1.16639">
        <ele>-4.8</ele>
        <time>2021-12-24T15:57:33Z</time>
      </trkpt>
      <trkpt lat="46.18688" lon="-1.16639">
        <ele>-5.2</ele>
        <time>2021-12-24T15:57:34Z</time>
      </trkpt>
      <trkpt lat="46.18677" lon="-1.16639">
        <ele>-5.8</ele>
        <time>2021-12-24T15:57:36Z</time>
      </trkpt>
      <trkpt lat="46.18665" lon="-1.16636">
        <ele>-6</ele>
        <time>2021-12-24T15:57:38Z</time>
      </trkpt>
      <trkpt lat="46.18653" lon="-1.16635">
        <ele>-6.2</ele>
        <time>2021-12-24T15:57:40Z</time>
      </trkpt>
      <trkpt lat="46.18648" lon="-1.16634">
        <ele>-6.4</ele>
        <time>2021-12-24T15:57:41Z</time>
      </trkpt>
      <trkpt lat="46.18642" lon="-1.16635">
        <ele>-6.2</ele>
        <time>2021-12-24T15:57:42Z</time>
      </trkpt>
      <trkpt lat="46.18629" lon="-1.16638">
        <ele>-5.6</ele>
        <time>2021-12-24T15:57:44Z</time>
      </trkpt>
      <trkpt lat="46.18622" lon="-1.16638">
        <ele>-5.4</ele>
        <time>2021-12-24T15:57:45Z</time>
      </trkpt>
      <trkpt lat="46.18616" lon="-1.16639">
        <ele>-5</ele>
        <time>2021-12-24T15:57:46Z</time>
      </trkpt>
      <trkpt lat="46.1861" lon="-1.16641">
        <ele>-5</ele>
        <time>2021-12-24T15:57:47Z</time>
      </trkpt>
      <trkpt lat="46.18604" lon="-1.16643">
        <ele>-8</ele>
        <time>2021-12-24T15:57:48Z</time>
      </trkpt>
      <trkpt lat="46.18598" lon="-1.16644">
        <ele>-6.2</ele>
        <time>2021-12-24T15:57:49Z</time>
      </trkpt>
      <trkpt lat="46.18593" lon="-1.16642">
        <ele>-6</ele>
        <time>2021-12-24T15:57:50Z</time>
      </trkpt>
      <trkpt lat="46.18587" lon="-1.16639">
        <ele>-5</ele>
        <time>2021-12-24T15:57:51Z</time>
      </trkpt>
      <trkpt lat="46.18582" lon="-1.16636">
        <ele>-5</ele>
        <time>2021-12-24T15:57:52Z</time>
      </trkpt>
      <trkpt lat="46.1857" lon="-1.16633">
        <ele>-4.8</ele>
        <time>2021-12-24T15:57:54Z</time>
      </trkpt>
      <trkpt lat="46.18564" lon="-1.16632">
        <ele>-4.2</ele>
        <time>2021-12-24T15:57:55Z</time>
      </trkpt>
      <trkpt lat="46.18558" lon="-1.16631">
        <ele>-4.2</ele>
        <time>2021-12-24T15:57:56Z</time>
      </trkpt>
      <trkpt lat="46.18544" lon="-1.16631">
        <ele>-4.2</ele>
        <time>2021-12-24T15:57:58Z</time>
      </trkpt>
      <trkpt lat="46.1853" lon="-1.1663">
        <ele>-3.8</ele>
        <time>2021-12-24T15:58:00Z</time>
      </trkpt>
      <trkpt lat="46.18518" lon="-1.16628">
        <ele>-3.8</ele>
        <time>2021-12-24T15:58:02Z</time>
      </trkpt>
      <trkpt lat="46.18505" lon="-1.16628">
        <ele>-3.6</ele>
        <time>2021-12-24T15:58:04Z</time>
      </trkpt>
      <trkpt lat="46.18494" lon="-1.16628">
        <ele>-3.6</ele>
        <time>2021-12-24T15:58:06Z</time>
      </trkpt>
      <trkpt lat="46.18482" lon="-1.16628">
        <ele>-3.2</ele>
        <time>2021-12-24T15:58:08Z</time>
      </trkpt>
      <trkpt lat="46.18472" lon="-1.1663">
        <ele>-2.8</ele>
        <time>2021-12-24T15:58:10Z</time>
      </trkpt>
      <trkpt lat="46.18461" lon="-1.16633">
        <ele>-2.4</ele>
        <time>2021-12-24T15:58:12Z</time>
      </trkpt>
      <trkpt lat="46.18455" lon="-1.16633">
        <ele>-2.2</ele>
        <time>2021-12-24T15:58:13Z</time>
      </trkpt>
      <trkpt lat="46.18448" lon="-1.16634">
        <ele>-2</ele>
        <time>2021-12-24T15:58:14Z</time>
      </trkpt>
      <trkpt lat="46.18442" lon="-1.16635">
        <ele>-1.8</ele>
        <time>2021-12-24T15:58:15Z</time>
      </trkpt>
      <trkpt lat="46.18435" lon="-1.16637">
        <ele>-1.6</ele>
        <time>2021-12-24T15:58:16Z</time>
      </trkpt>
      <trkpt lat="46.18423" lon="-1.16641">
        <ele>-1.2</ele>
        <time>2021-12-24T15:58:18Z</time>
      </trkpt>
      <trkpt lat="46.18411" lon="-1.16645">
        <ele>-1</ele>
        <time>2021-12-24T15:58:20Z</time>
      </trkpt>
      <trkpt lat="46.18399" lon="-1.16648">
        <ele>-0.60000000000002</ele>
        <time>2021-12-24T15:58:22Z</time>
      </trkpt>
      <trkpt lat="46.18394" lon="-1.16651">
        <ele>-0.60000000000002</ele>
        <time>2021-12-24T15:58:23Z</time>
      </trkpt>
      <trkpt lat="46.18389" lon="-1.16655">
        <ele>-0.39999999999998</ele>
        <time>2021-12-24T15:58:24Z</time>
      </trkpt>
      <trkpt lat="46.18383" lon="-1.16658">
        <ele>-0.19999999999999</ele>
        <time>2021-12-24T15:58:25Z</time>
      </trkpt>
      <trkpt lat="46.18377" lon="-1.1666">
        <ele>-0.19999999999999</ele>
        <time>2021-12-24T15:58:26Z</time>
      </trkpt>
      <trkpt lat="46.18371" lon="-1.16662">
        <ele>0.19999999999999</ele>
        <time>2021-12-24T15:58:27Z</time>
      </trkpt>
      <trkpt lat="46.18364" lon="-1.16664">
        <ele>0.39999999999998</ele>
        <time>2021-12-24T15:58:28Z</time>
      </trkpt>
      <trkpt lat="46.18352" lon="-1.16668">
        <ele>0.80000000000001</ele>
        <time>2021-12-24T15:58:30Z</time>
      </trkpt>
      <trkpt lat="46.1834" lon="-1.16672">
        <ele>1</ele>
        <time>2021-12-24T15:58:32Z</time>
      </trkpt>
      <trkpt lat="46.18328" lon="-1.16676">
        <ele>1.2</ele>
        <time>2021-12-24T15:58:34Z</time>
      </trkpt>
      <trkpt lat="46.18321" lon="-1.16678">
        <ele>1.4</ele>
        <time>2021-12-24T15:58:35Z</time>
      </trkpt>
      <trkpt lat="46.18315" lon="-1.16681">
        <ele>1.6</ele>
        <time>2021-12-24T15:58:36Z</time>
      </trkpt>
      <trkpt lat="46.18303" lon="-1.16684">
        <ele>1.8</ele>
        <time>2021-12-24T15:58:38Z</time>
      </trkpt>
      <trkpt lat="46.18291" lon="-1.16687">
        <ele>2</ele>
        <time>2021-12-24T15:58:40Z</time>
      </trkpt>
      <trkpt lat="46.18279" lon="-1.16688">
        <ele>2.4</ele>
        <time>2021-12-24T15:58:42Z</time>
      </trkpt>
      <trkpt lat="46.18273" lon="-1.16688">
        <ele>2.4</ele>
        <time>2021-12-24T15:58:43Z</time>
      </trkpt>
      <trkpt lat="46.18267" lon="-1.16688">
        <ele>2.6</ele>
        <time>2021-12-24T15:58:44Z</time>
      </trkpt>
      <trkpt lat="46.18255" lon="-1.16688">
        <ele>3</ele>
        <time>2021-12-24T15:58:46Z</time>
      </trkpt>
      <trkpt lat="46.18243" lon="-1.16689">
        <ele>3.2</ele>
        <time>2021-12-24T15:58:48Z</time>
      </trkpt>
      <trkpt lat="46.1823" lon="-1.16689">
        <ele>3.4</ele>
        <time>2021-12-24T15:58:50Z</time>
      </trkpt>
      <trkpt lat="46.18216" lon="-1.1669">
        <ele>3.6</ele>
        <time>2021-12-24T15:58:52Z</time>
      </trkpt>
      <trkpt lat="46.18203" lon="-1.1669">
        <ele>3.6</ele>
        <time>2021-12-24T15:58:54Z</time>
      </trkpt>
      <trkpt lat="46.1819" lon="-1.1669">
        <ele>3.8</ele>
        <time>2021-12-24T15:58:56Z</time>
      </trkpt>
      <trkpt lat="46.18183" lon="-1.1669">
        <ele>3.8</ele>
        <time>2021-12-24T15:58:57Z</time>
      </trkpt>
      <trkpt lat="46.18176" lon="-1.1669">
        <ele>3.8</ele>
        <time>2021-12-24T15:58:58Z</time>
      </trkpt>
      <trkpt lat="46.18163" lon="-1.16691">
        <ele>4</ele>
        <time>2021-12-24T15:59:00Z</time>
      </trkpt>
      <trkpt lat="46.1815" lon="-1.16692">
        <ele>4.2</ele>
        <time>2021-12-24T15:59:02Z</time>
      </trkpt>
      <trkpt lat="46.18137" lon="-1.16695">
        <ele>4.2</ele>
        <time>2021-12-24T15:59:04Z</time>
      </trkpt>
      <trkpt lat="46.18124" lon="-1.167">
        <ele>4.4</ele>
        <time>2021-12-24T15:59:06Z</time>
      </trkpt>
      <trkpt lat="46.18118" lon="-1.16703">
        <ele>4.4</ele>
        <time>2021-12-24T15:59:07Z</time>
      </trkpt>
      <trkpt lat="46.18112" lon="-1.16707">
        <ele>4.4</ele>
        <time>2021-12-24T15:59:08Z</time>
      </trkpt>
      <trkpt lat="46.18107" lon="-1.16711">
        <ele>4.6</ele>
        <time>2021-12-24T15:59:09Z</time>
      </trkpt>
      <trkpt lat="46.18105" lon="-1.16717">
        <ele>4.6</ele>
        <time>2021-12-24T15:59:10Z</time>
      </trkpt>
      <trkpt lat="46.18103" lon="-1.16723">
        <ele>4.6</ele>
        <time>2021-12-24T15:59:11Z</time>
      </trkpt>
      <trkpt lat="46.18102" lon="-1.16728">
        <ele>4.6</ele>
        <time>2021-12-24T15:59:12Z</time>
      </trkpt>
      <trkpt lat="46.181" lon="-1.16733">
        <ele>4.8</ele>
        <time>2021-12-24T15:59:13Z</time>
      </trkpt>
      <trkpt lat="46.18097" lon="-1.16735">
        <ele>4.8</ele>
        <time>2021-12-24T15:59:14Z</time>
      </trkpt>
      <trkpt lat="46.18094" lon="-1.16736">
        <ele>4.8</ele>
        <time>2021-12-24T15:59:15Z</time>
      </trkpt>
      <trkpt lat="46.18089" lon="-1.16735">
        <ele>4.8</ele>
        <time>2021-12-24T15:59:16Z</time>
      </trkpt>
      <trkpt lat="46.18079" lon="-1.16731">
        <ele>5</ele>
        <time>2021-12-24T15:59:18Z</time>
      </trkpt>
      <trkpt lat="46.18069" lon="-1.16727">
        <ele>5</ele>
        <time>2021-12-24T15:59:20Z</time>
      </trkpt>
      <trkpt lat="46.18058" lon="-1.16727">
        <ele>4.8</ele>
        <time>2021-12-24T15:59:22Z</time>
      </trkpt>
      <trkpt lat="46.18052" lon="-1.16728">
        <ele>4.8</ele>
        <time>2021-12-24T15:59:23Z</time>
      </trkpt>
      <trkpt lat="46.18046" lon="-1.16729">
        <ele>4.8</ele>
        <time>2021-12-24T15:59:24Z</time>
      </trkpt>
      <trkpt lat="46.18034" lon="-1.16733">
        <ele>4.6</ele>
        <time>2021-12-24T15:59:26Z</time>
      </trkpt>
      <trkpt lat="46.18022" lon="-1.16737">
        <ele>4.6</ele>
        <time>2021-12-24T15:59:28Z</time>
      </trkpt>
      <trkpt lat="46.18015" lon="-1.1674">
        <ele>4.2</ele>
        <time>2021-12-24T15:59:29Z</time>
      </trkpt>
      <trkpt lat="46.18008" lon="-1.16742">
        <ele>3.8</ele>
        <time>2021-12-24T15:59:30Z</time>
      </trkpt>
      <trkpt lat="46.17995" lon="-1.16747">
        <ele>4.2</ele>
        <time>2021-12-24T15:59:32Z</time>
      </trkpt>
      <trkpt lat="46.1798" lon="-1.16751">
        <ele>4</ele>
        <time>2021-12-24T15:59:34Z</time>
      </trkpt>
      <trkpt lat="46.17966" lon="-1.16756">
        <ele>4</ele>
        <time>2021-12-24T15:59:36Z</time>
      </trkpt>
      <trkpt lat="46.17959" lon="-1.16757">
        <ele>3.8</ele>
        <time>2021-12-24T15:59:37Z</time>
      </trkpt>
      <trkpt lat="46.17952" lon="-1.16758">
        <ele>3.8</ele>
        <time>2021-12-24T15:59:38Z</time>
      </trkpt>
      <trkpt lat="46.17937" lon="-1.16762">
        <ele>3.8</ele>
        <time>2021-12-24T15:59:40Z</time>
      </trkpt>
      <trkpt lat="46.17921" lon="-1.16764">
        <ele>3.8</ele>
        <time>2021-12-24T15:59:42Z</time>
      </trkpt>
      <trkpt lat="46.17905" lon="-1.16766">
        <ele>4</ele>
        <time>2021-12-24T15:59:44Z</time>
      </trkpt>
      <trkpt lat="46.17888" lon="-1.16767">
        <ele>4</ele>
        <time>2021-12-24T15:59:46Z</time>
      </trkpt>
      <trkpt lat="46.17872" lon="-1.16767">
        <ele>4</ele>
        <time>2021-12-24T15:59:48Z</time>
      </trkpt>
      <trkpt lat="46.17855" lon="-1.16767">
        <ele>4</ele>
        <time>2021-12-24T15:59:50Z</time>
      </trkpt>
      <trkpt lat="46.17839" lon="-1.16765">
        <ele>3.8</ele>
        <time>2021-12-24T15:59:52Z</time>
      </trkpt>
      <trkpt lat="46.17822" lon="-1.16763">
        <ele>4</ele>
        <time>2021-12-24T15:59:54Z</time>
      </trkpt>
      <trkpt lat="46.17813" lon="-1.16762">
        <ele>4</ele>
        <time>2021-12-24T15:59:55Z</time>
      </trkpt>
      <trkpt lat="46.17805" lon="-1.1676">
        <ele>4</ele>
        <time>2021-12-24T15:59:56Z</time>
      </trkpt>
      <trkpt lat="46.17788" lon="-1.16757">
        <ele>4</ele>
        <time>2021-12-24T15:59:58Z</time>
      </trkpt>
      <trkpt lat="46.17771" lon="-1.16754">
        <ele>4</ele>
        <time>2021-12-24T16:00:00Z</time>
      </trkpt>
      <trkpt lat="46.17754" lon="-1.1675">
        <ele>4</ele>
        <time>2021-12-24T16:00:02Z</time>
      </trkpt>
      <trkpt lat="46.17737" lon="-1.16747">
        <ele>3.8</ele>
        <time>2021-12-24T16:00:04Z</time>
      </trkpt>
      <trkpt lat="46.1772" lon="-1.16743">
        <ele>3.8</ele>
        <time>2021-12-24T16:00:06Z</time>
      </trkpt>
      <trkpt lat="46.17704" lon="-1.1674">
        <ele>3.6</ele>
        <time>2021-12-24T16:00:08Z</time>
      </trkpt>
      <trkpt lat="46.17688" lon="-1.16736">
        <ele>3.6</ele>
        <time>2021-12-24T16:00:10Z</time>
      </trkpt>
      <trkpt lat="46.17672" lon="-1.16733">
        <ele>3.6</ele>
        <time>2021-12-24T16:00:12Z</time>
      </trkpt>
      <trkpt lat="46.17656" lon="-1.1673">
        <ele>3.6</ele>
        <time>2021-12-24T16:00:14Z</time>
      </trkpt>
      <trkpt lat="46.17648" lon="-1.16728">
        <ele>3.6</ele>
        <time>2021-12-24T16:00:15Z</time>
      </trkpt>
      <trkpt lat="46.1764" lon="-1.16726">
        <ele>3.6</ele>
        <time>2021-12-24T16:00:16Z</time>
      </trkpt>
      <trkpt lat="46.17625" lon="-1.16724">
        <ele>3.6</ele>
        <time>2021-12-24T16:00:18Z</time>
      </trkpt>
      <trkpt lat="46.17618" lon="-1.16724">
        <ele>3.6</ele>
        <time>2021-12-24T16:00:19Z</time>
      </trkpt>
      <trkpt lat="46.1761" lon="-1.16722">
        <ele>3.6</ele>
        <time>2021-12-24T16:00:20Z</time>
      </trkpt>
      <trkpt lat="46.17595" lon="-1.16718">
        <ele>3.6</ele>
        <time>2021-12-24T16:00:22Z</time>
      </trkpt>
      <trkpt lat="46.17579" lon="-1.16715">
        <ele>3.6</ele>
        <time>2021-12-24T16:00:24Z</time>
      </trkpt>
      <trkpt lat="46.17572" lon="-1.16713">
        <ele>3.6</ele>
        <time>2021-12-24T16:00:25Z</time>
      </trkpt>
      <trkpt lat="46.17564" lon="-1.16711">
        <ele>3.6</ele>
        <time>2021-12-24T16:00:26Z</time>
      </trkpt>
      <trkpt lat="46.1755" lon="-1.16708">
        <ele>3.6</ele>
        <time>2021-12-24T16:00:28Z</time>
      </trkpt>
      <trkpt lat="46.17536" lon="-1.16705">
        <ele>3.8</ele>
        <time>2021-12-24T16:00:30Z</time>
      </trkpt>
      <trkpt lat="46.17529" lon="-1.16703">
        <ele>3.8</ele>
        <time>2021-12-24T16:00:31Z</time>
      </trkpt>
      <trkpt lat="46.17522" lon="-1.16701">
        <ele>3.8</ele>
        <time>2021-12-24T16:00:32Z</time>
      </trkpt>
      <trkpt lat="46.17508" lon="-1.16698">
        <ele>4</ele>
        <time>2021-12-24T16:00:34Z</time>
      </trkpt>
      <trkpt lat="46.17495" lon="-1.16695">
        <ele>4</ele>
        <time>2021-12-24T16:00:36Z</time>
      </trkpt>
      <trkpt lat="46.17482" lon="-1.16691">
        <ele>4</ele>
        <time>2021-12-24T16:00:38Z</time>
      </trkpt>
      <trkpt lat="46.17471" lon="-1.16688">
        <ele>4</ele>
        <time>2021-12-24T16:00:40Z</time>
      </trkpt>
      <trkpt lat="46.17459" lon="-1.16684">
        <ele>4.2</ele>
        <time>2021-12-24T16:00:42Z</time>
      </trkpt>
      <trkpt lat="46.17449" lon="-1.1668">
        <ele>4.2</ele>
        <time>2021-12-24T16:00:44Z</time>
      </trkpt>
      <trkpt lat="46.17439" lon="-1.16677">
        <ele>4.4</ele>
        <time>2021-12-24T16:00:46Z</time>
      </trkpt>
      <trkpt lat="46.17434" lon="-1.16675">
        <ele>4.4</ele>
        <time>2021-12-24T16:00:47Z</time>
      </trkpt>
      <trkpt lat="46.17429" lon="-1.16674">
        <ele>4.4</ele>
        <time>2021-12-24T16:00:48Z</time>
      </trkpt>
      <trkpt lat="46.17423" lon="-1.16671">
        <ele>4.4</ele>
        <time>2021-12-24T16:00:50Z</time>
      </trkpt>
      <trkpt lat="46.17421" lon="-1.16669">
        <ele>4.6</ele>
        <time>2021-12-24T16:00:51Z</time>
      </trkpt>
      <trkpt lat="46.17419" lon="-1.16667">
        <ele>4.6</ele>
        <time>2021-12-24T16:00:52Z</time>
      </trkpt>
      <trkpt lat="46.17416" lon="-1.16666">
        <ele>4.6</ele>
        <time>2021-12-24T16:00:54Z</time>
      </trkpt>
      <trkpt lat="46.17414" lon="-1.16667">
        <ele>4.6</ele>
        <time>2021-12-24T16:00:55Z</time>
      </trkpt>
      <trkpt lat="46.17412" lon="-1.16669">
        <ele>4.6</ele>
        <time>2021-12-24T16:00:56Z</time>
      </trkpt>
      <trkpt lat="46.17408" lon="-1.16672">
        <ele>4.6</ele>
        <time>2021-12-24T16:00:58Z</time>
      </trkpt>
      <trkpt lat="46.17405" lon="-1.16672">
        <ele>4.6</ele>
        <time>2021-12-24T16:00:59Z</time>
      </trkpt>
      <trkpt lat="46.17401" lon="-1.16672">
        <ele>4.6</ele>
        <time>2021-12-24T16:01:00Z</time>
      </trkpt>
      <trkpt lat="46.17397" lon="-1.1667">
        <ele>4.6</ele>
        <time>2021-12-24T16:01:01Z</time>
      </trkpt>
      <trkpt lat="46.17393" lon="-1.16666">
        <ele>4.6</ele>
        <time>2021-12-24T16:01:02Z</time>
      </trkpt>
      <trkpt lat="46.17389" lon="-1.16661">
        <ele>4.6</ele>
        <time>2021-12-24T16:01:03Z</time>
      </trkpt>
      <trkpt lat="46.17386" lon="-1.16655">
        <ele>4.6</ele>
        <time>2021-12-24T16:01:04Z</time>
      </trkpt>
      <trkpt lat="46.17381" lon="-1.16642">
        <ele>4.6</ele>
        <time>2021-12-24T16:01:06Z</time>
      </trkpt>
      <trkpt lat="46.1738" lon="-1.16636">
        <ele>4.6</ele>
        <time>2021-12-24T16:01:07Z</time>
      </trkpt>
      <trkpt lat="46.1738" lon="-1.16631">
        <ele>4.6</ele>
        <time>2021-12-24T16:01:08Z</time>
      </trkpt>
      <trkpt lat="46.17376" lon="-1.16623">
        <ele>4.6</ele>
        <time>2021-12-24T16:01:10Z</time>
      </trkpt>
      <trkpt lat="46.17372" lon="-1.1662">
        <ele>4.6</ele>
        <time>2021-12-24T16:01:11Z</time>
      </trkpt>
      <trkpt lat="46.17368" lon="-1.16617">
        <ele>4.6</ele>
        <time>2021-12-24T16:01:12Z</time>
      </trkpt>
      <trkpt lat="46.1736" lon="-1.16608">
        <ele>4.6</ele>
        <time>2021-12-24T16:01:14Z</time>
      </trkpt>
      <trkpt lat="46.17356" lon="-1.16602">
        <ele>4.8</ele>
        <time>2021-12-24T16:01:15Z</time>
      </trkpt>
      <trkpt lat="46.17351" lon="-1.16597">
        <ele>4.8</ele>
        <time>2021-12-24T16:01:16Z</time>
      </trkpt>
      <trkpt lat="46.1734" lon="-1.16588">
        <ele>4.8</ele>
        <time>2021-12-24T16:01:18Z</time>
      </trkpt>
      <trkpt lat="46.17334" lon="-1.16584">
        <ele>4.8</ele>
        <time>2021-12-24T16:01:19Z</time>
      </trkpt>
      <trkpt lat="46.17329" lon="-1.1658">
        <ele>4.8</ele>
        <time>2021-12-24T16:01:20Z</time>
      </trkpt>
      <trkpt lat="46.17323" lon="-1.16576">
        <ele>4.8</ele>
        <time>2021-12-24T16:01:21Z</time>
      </trkpt>
      <trkpt lat="46.17318" lon="-1.1657">
        <ele>4.8</ele>
        <time>2021-12-24T16:01:22Z</time>
      </trkpt>
      <trkpt lat="46.17308" lon="-1.1656">
        <ele>4.8</ele>
        <time>2021-12-24T16:01:24Z</time>
      </trkpt>
      <trkpt lat="46.17303" lon="-1.16555">
        <ele>4.8</ele>
        <time>2021-12-24T16:01:25Z</time>
      </trkpt>
      <trkpt lat="46.17298" lon="-1.1655">
        <ele>4.8</ele>
        <time>2021-12-24T16:01:26Z</time>
      </trkpt>
      <trkpt lat="46.17288" lon="-1.16539">
        <ele>4.8</ele>
        <time>2021-12-24T16:01:28Z</time>
      </trkpt>
      <trkpt lat="46.17278" lon="-1.16529">
        <ele>4.8</ele>
        <time>2021-12-24T16:01:30Z</time>
      </trkpt>
      <trkpt lat="46.17268" lon="-1.16519">
        <ele>4.8</ele>
        <time>2021-12-24T16:01:32Z</time>
      </trkpt>
      <trkpt lat="46.17264" lon="-1.16514">
        <ele>4.8</ele>
        <time>2021-12-24T16:01:33Z</time>
      </trkpt>
      <trkpt lat="46.17259" lon="-1.16509">
        <ele>4.8</ele>
        <time>2021-12-24T16:01:34Z</time>
      </trkpt>
      <trkpt lat="46.17249" lon="-1.16499">
        <ele>4.8</ele>
        <time>2021-12-24T16:01:36Z</time>
      </trkpt>
      <trkpt lat="46.17239" lon="-1.16489">
        <ele>5</ele>
        <time>2021-12-24T16:01:38Z</time>
      </trkpt>
      <trkpt lat="46.1723" lon="-1.16479">
        <ele>5</ele>
        <time>2021-12-24T16:01:40Z</time>
      </trkpt>
      <trkpt lat="46.1722" lon="-1.1647">
        <ele>5</ele>
        <time>2021-12-24T16:01:42Z</time>
      </trkpt>
      <trkpt lat="46.1721" lon="-1.16462">
        <ele>5.2</ele>
        <time>2021-12-24T16:01:44Z</time>
      </trkpt>
      <trkpt lat="46.17201" lon="-1.16456">
        <ele>5.2</ele>
        <time>2021-12-24T16:01:46Z</time>
      </trkpt>
      <trkpt lat="46.17196" lon="-1.16453">
        <ele>5.2</ele>
        <time>2021-12-24T16:01:47Z</time>
      </trkpt>
      <trkpt lat="46.17192" lon="-1.1645">
        <ele>5.2</ele>
        <time>2021-12-24T16:01:48Z</time>
      </trkpt>
      <trkpt lat="46.17185" lon="-1.16443">
        <ele>5.2</ele>
        <time>2021-12-24T16:01:50Z</time>
      </trkpt>
      <trkpt lat="46.17181" lon="-1.1644">
        <ele>5.2</ele>
        <time>2021-12-24T16:01:51Z</time>
      </trkpt>
      <trkpt lat="46.17178" lon="-1.16438">
        <ele>5.2</ele>
        <time>2021-12-24T16:01:52Z</time>
      </trkpt>
      <trkpt lat="46.17172" lon="-1.16444">
        <ele>5.2</ele>
        <time>2021-12-24T16:01:54Z</time>
      </trkpt>
      <trkpt lat="46.17168" lon="-1.16445">
        <ele>5.2</ele>
        <time>2021-12-24T16:01:55Z</time>
      </trkpt>
      <trkpt lat="46.17164" lon="-1.16445">
        <ele>5.2</ele>
        <time>2021-12-24T16:01:56Z</time>
      </trkpt>
      <trkpt lat="46.17159" lon="-1.16443">
        <ele>5.2</ele>
        <time>2021-12-24T16:01:57Z</time>
      </trkpt>
      <trkpt lat="46.17155" lon="-1.16441">
        <ele>5.2</ele>
        <time>2021-12-24T16:01:58Z</time>
      </trkpt>
      <trkpt lat="46.17145" lon="-1.16437">
        <ele>5.4</ele>
        <time>2021-12-24T16:02:00Z</time>
      </trkpt>
      <trkpt lat="46.17134" lon="-1.16432">
        <ele>5.2</ele>
        <time>2021-12-24T16:02:02Z</time>
      </trkpt>
      <trkpt lat="46.17124" lon="-1.16427">
        <ele>5.2</ele>
        <time>2021-12-24T16:02:04Z</time>
      </trkpt>
      <trkpt lat="46.17113" lon="-1.16423">
        <ele>5.2</ele>
        <time>2021-12-24T16:02:06Z</time>
      </trkpt>
      <trkpt lat="46.17102" lon="-1.16419">
        <ele>5</ele>
        <time>2021-12-24T16:02:08Z</time>
      </trkpt>
      <trkpt lat="46.17092" lon="-1.16414">
        <ele>5</ele>
        <time>2021-12-24T16:02:10Z</time>
      </trkpt>
      <trkpt lat="46.17081" lon="-1.16409">
        <ele>5.2</ele>
        <time>2021-12-24T16:02:12Z</time>
      </trkpt>
      <trkpt lat="46.1707" lon="-1.16405">
        <ele>5.2</ele>
        <time>2021-12-24T16:02:14Z</time>
      </trkpt>
      <trkpt lat="46.1706" lon="-1.16401">
        <ele>5.2</ele>
        <time>2021-12-24T16:02:16Z</time>
      </trkpt>
      <trkpt lat="46.17049" lon="-1.16396">
        <ele>5.4</ele>
        <time>2021-12-24T16:02:18Z</time>
      </trkpt>
      <trkpt lat="46.17039" lon="-1.16393">
        <ele>5.4</ele>
        <time>2021-12-24T16:02:20Z</time>
      </trkpt>
      <trkpt lat="46.17034" lon="-1.1639">
        <ele>5.4</ele>
        <time>2021-12-24T16:02:21Z</time>
      </trkpt>
      <trkpt lat="46.17029" lon="-1.16386">
        <ele>5.4</ele>
        <time>2021-12-24T16:02:22Z</time>
      </trkpt>
      <trkpt lat="46.17024" lon="-1.16382">
        <ele>5.4</ele>
        <time>2021-12-24T16:02:23Z</time>
      </trkpt>
      <trkpt lat="46.1702" lon="-1.16379">
        <ele>5.4</ele>
        <time>2021-12-24T16:02:24Z</time>
      </trkpt>
      <trkpt lat="46.1701" lon="-1.16372">
        <ele>5.4</ele>
        <time>2021-12-24T16:02:26Z</time>
      </trkpt>
      <trkpt lat="46.17" lon="-1.16367">
        <ele>5.4</ele>
        <time>2021-12-24T16:02:28Z</time>
      </trkpt>
      <trkpt lat="46.1699" lon="-1.16364">
        <ele>5.4</ele>
        <time>2021-12-24T16:02:30Z</time>
      </trkpt>
      <trkpt lat="46.16979" lon="-1.16365">
        <ele>5.4</ele>
        <time>2021-12-24T16:02:32Z</time>
      </trkpt>
      <trkpt lat="46.16969" lon="-1.16362">
        <ele>5.6</ele>
        <time>2021-12-24T16:02:34Z</time>
      </trkpt>
      <trkpt lat="46.16965" lon="-1.1636">
        <ele>5.4</ele>
        <time>2021-12-24T16:02:35Z</time>
      </trkpt>
      <trkpt lat="46.16961" lon="-1.16359">
        <ele>5.4</ele>
        <time>2021-12-24T16:02:36Z</time>
      </trkpt>
      <trkpt lat="46.16953" lon="-1.16358">
        <ele>5.4</ele>
        <time>2021-12-24T16:02:38Z</time>
      </trkpt>
      <trkpt lat="46.1695" lon="-1.16358">
        <ele>5.4</ele>
        <time>2021-12-24T16:02:39Z</time>
      </trkpt>
      <trkpt lat="46.16946" lon="-1.16358">
        <ele>5.2</ele>
        <time>2021-12-24T16:02:40Z</time>
      </trkpt>
      <trkpt lat="46.16936" lon="-1.16359">
        <ele>5</ele>
        <time>2021-12-24T16:02:42Z</time>
      </trkpt>
      <trkpt lat="46.16931" lon="-1.16359">
        <ele>5</ele>
        <time>2021-12-24T16:02:43Z</time>
      </trkpt>
      <trkpt lat="46.16925" lon="-1.1636">
        <ele>4.8</ele>
        <time>2021-12-24T16:02:44Z</time>
      </trkpt>
      <trkpt lat="46.1692" lon="-1.1636">
        <ele>4.8</ele>
        <time>2021-12-24T16:02:45Z</time>
      </trkpt>
      <trkpt lat="46.16915" lon="-1.16361">
        <ele>4.6</ele>
        <time>2021-12-24T16:02:46Z</time>
      </trkpt>
      <trkpt lat="46.16904" lon="-1.16361">
        <ele>4.4</ele>
        <time>2021-12-24T16:02:48Z</time>
      </trkpt>
      <trkpt lat="46.16892" lon="-1.16362">
        <ele>4.4</ele>
        <time>2021-12-24T16:02:50Z</time>
      </trkpt>
      <trkpt lat="46.16882" lon="-1.16364">
        <ele>4.2</ele>
        <time>2021-12-24T16:02:52Z</time>
      </trkpt>
      <trkpt lat="46.16875" lon="-1.16365">
        <ele>4.2</ele>
        <time>2021-12-24T16:02:54Z</time>
      </trkpt>
      <trkpt lat="46.16867" lon="-1.16367">
        <ele>4.2</ele>
        <time>2021-12-24T16:02:56Z</time>
      </trkpt>
      <trkpt lat="46.16863" lon="-1.16368">
        <ele>4</ele>
        <time>2021-12-24T16:02:57Z</time>
      </trkpt>
      <trkpt lat="46.16858" lon="-1.16369">
        <ele>4</ele>
        <time>2021-12-24T16:02:58Z</time>
      </trkpt>
      <trkpt lat="46.16848" lon="-1.1637">
        <ele>4</ele>
        <time>2021-12-24T16:03:00Z</time>
      </trkpt>
      <trkpt lat="46.16843" lon="-1.1637">
        <ele>4</ele>
        <time>2021-12-24T16:03:01Z</time>
      </trkpt>
      <trkpt lat="46.16837" lon="-1.16371">
        <ele>4</ele>
        <time>2021-12-24T16:03:02Z</time>
      </trkpt>
      <trkpt lat="46.16826" lon="-1.16372">
        <ele>4</ele>
        <time>2021-12-24T16:03:04Z</time>
      </trkpt>
      <trkpt lat="46.16815" lon="-1.16373">
        <ele>4.2</ele>
        <time>2021-12-24T16:03:06Z</time>
      </trkpt>
      <trkpt lat="46.16804" lon="-1.16374">
        <ele>4</ele>
        <time>2021-12-24T16:03:08Z</time>
      </trkpt>
      <trkpt lat="46.16799" lon="-1.16374">
        <ele>4</ele>
        <time>2021-12-24T16:03:09Z</time>
      </trkpt>
      <trkpt lat="46.16794" lon="-1.16374">
        <ele>4</ele>
        <time>2021-12-24T16:03:10Z</time>
      </trkpt>
      <trkpt lat="46.16783" lon="-1.16376">
        <ele>4</ele>
        <time>2021-12-24T16:03:12Z</time>
      </trkpt>
      <trkpt lat="46.16772" lon="-1.16376">
        <ele>3.8</ele>
        <time>2021-12-24T16:03:14Z</time>
      </trkpt>
      <trkpt lat="46.16767" lon="-1.16376">
        <ele>3.8</ele>
        <time>2021-12-24T16:03:15Z</time>
      </trkpt>
      <trkpt lat="46.16763" lon="-1.16377">
        <ele>3.6</ele>
        <time>2021-12-24T16:03:16Z</time>
      </trkpt>
      <trkpt lat="46.16754" lon="-1.16378">
        <ele>3.6</ele>
        <time>2021-12-24T16:03:18Z</time>
      </trkpt>
      <trkpt lat="46.16749" lon="-1.16378">
        <ele>3.4</ele>
        <time>2021-12-24T16:03:20Z</time>
      </trkpt>
      <trkpt lat="46.16746" lon="-1.16378">
        <ele>3.6</ele>
        <time>2021-12-24T16:03:22Z</time>
      </trkpt>
      <trkpt lat="46.16742" lon="-1.16378">
        <ele>3.4</ele>
        <time>2021-12-24T16:03:24Z</time>
      </trkpt>
      <trkpt lat="46.16736" lon="-1.1638">
        <ele>3.4</ele>
        <time>2021-12-24T16:03:26Z</time>
      </trkpt>
      <trkpt lat="46.16728" lon="-1.16382">
        <ele>3.2</ele>
        <time>2021-12-24T16:03:28Z</time>
      </trkpt>
      <trkpt lat="46.1672" lon="-1.16385">
        <ele>3</ele>
        <time>2021-12-24T16:03:30Z</time>
      </trkpt>
      <trkpt lat="46.16711" lon="-1.16387">
        <ele>2.8</ele>
        <time>2021-12-24T16:03:32Z</time>
      </trkpt>
      <trkpt lat="46.16703" lon="-1.1639">
        <ele>2.6</ele>
        <time>2021-12-24T16:03:34Z</time>
      </trkpt>
      <trkpt lat="46.16696" lon="-1.16391">
        <ele>2.4</ele>
        <time>2021-12-24T16:03:36Z</time>
      </trkpt>
      <trkpt lat="46.16694" lon="-1.16392">
        <ele>2.2</ele>
        <time>2021-12-24T16:03:38Z</time>
      </trkpt>
      <trkpt lat="46.16693" lon="-1.16392">
        <ele>1.8</ele>
        <time>2021-12-24T16:03:44Z</time>
      </trkpt>
      <trkpt lat="46.16688" lon="-1.16395">
        <ele>1.6</ele>
        <time>2021-12-24T16:03:46Z</time>
      </trkpt>
      <trkpt lat="46.16681" lon="-1.16397">
        <ele>1.2</ele>
        <time>2021-12-24T16:03:48Z</time>
      </trkpt>
      <trkpt lat="46.16676" lon="-1.16397">
        <ele>1</ele>
        <time>2021-12-24T16:03:49Z</time>
      </trkpt>
      <trkpt lat="46.16671" lon="-1.16399">
        <ele>0.80000000000001</ele>
        <time>2021-12-24T16:03:50Z</time>
      </trkpt>
      <trkpt lat="46.16661" lon="-1.16402">
        <ele>0.60000000000002</ele>
        <time>2021-12-24T16:03:52Z</time>
      </trkpt>
      <trkpt lat="46.16649" lon="-1.16407">
        <ele>0.19999999999999</ele>
        <time>2021-12-24T16:03:54Z</time>
      </trkpt>
      <trkpt lat="46.16638" lon="-1.16411">
        <ele>0.19999999999999</ele>
        <time>2021-12-24T16:03:56Z</time>
      </trkpt>
      <trkpt lat="46.16628" lon="-1.16414">
        <ele>-0.39999999999998</ele>
        <time>2021-12-24T16:03:58Z</time>
      </trkpt>
      <trkpt lat="46.16623" lon="-1.16415">
        <ele>-0.60000000000002</ele>
        <time>2021-12-24T16:03:59Z</time>
      </trkpt>
      <trkpt lat="46.16618" lon="-1.16417">
        <ele>-0.60000000000002</ele>
        <time>2021-12-24T16:04:00Z</time>
      </trkpt>
      <trkpt lat="46.16613" lon="-1.16418">
        <ele>-0.80000000000001</ele>
        <time>2021-12-24T16:04:01Z</time>
      </trkpt>
      <trkpt lat="46.16607" lon="-1.16419">
        <ele>-0.80000000000001</ele>
        <time>2021-12-24T16:04:02Z</time>
      </trkpt>
      <trkpt lat="46.16596" lon="-1.16423">
        <ele>-1</ele>
        <time>2021-12-24T16:04:04Z</time>
      </trkpt>
      <trkpt lat="46.16585" lon="-1.16425">
        <ele>-1</ele>
        <time>2021-12-24T16:04:06Z</time>
      </trkpt>
      <trkpt lat="46.16574" lon="-1.16427">
        <ele>-0.60000000000002</ele>
        <time>2021-12-24T16:04:08Z</time>
      </trkpt>
      <trkpt lat="46.16563" lon="-1.16432">
        <ele>-0.39999999999998</ele>
        <time>2021-12-24T16:04:10Z</time>
      </trkpt>
      <trkpt lat="46.16558" lon="-1.16436">
        <ele>-0.39999999999998</ele>
        <time>2021-12-24T16:04:11Z</time>
      </trkpt>
      <trkpt lat="46.16553" lon="-1.16438">
        <ele>-0.19999999999999</ele>
        <time>2021-12-24T16:04:12Z</time>
      </trkpt>
      <trkpt lat="46.16542" lon="-1.16442">
        <ele>-0.80000000000001</ele>
        <time>2021-12-24T16:04:14Z</time>
      </trkpt>
      <trkpt lat="46.16532" lon="-1.16445">
        <ele>0.80000000000001</ele>
        <time>2021-12-24T16:04:16Z</time>
      </trkpt>
      <trkpt lat="46.16521" lon="-1.16448">
        <ele>1</ele>
        <time>2021-12-24T16:04:18Z</time>
      </trkpt>
      <trkpt lat="46.16509" lon="-1.16452">
        <ele>1</ele>
        <time>2021-12-24T16:04:20Z</time>
      </trkpt>
      <trkpt lat="46.16498" lon="-1.16455">
        <ele>0.60000000000002</ele>
        <time>2021-12-24T16:04:22Z</time>
      </trkpt>
      <trkpt lat="46.16494" lon="-1.16457">
        <ele>0.60000000000002</ele>
        <time>2021-12-24T16:04:23Z</time>
      </trkpt>
      <trkpt lat="46.1649" lon="-1.16459">
        <ele>0.39999999999998</ele>
        <time>2021-12-24T16:04:24Z</time>
      </trkpt>
      <trkpt lat="46.16479" lon="-1.16462">
        <ele>-0.39999999999998</ele>
        <time>2021-12-24T16:04:26Z</time>
      </trkpt>
      <trkpt lat="46.16468" lon="-1.16464">
        <ele>-1.2</ele>
        <time>2021-12-24T16:04:28Z</time>
      </trkpt>
      <trkpt lat="46.16456" lon="-1.16468">
        <ele>-0.60000000000002</ele>
        <time>2021-12-24T16:04:30Z</time>
      </trkpt>
      <trkpt lat="46.16443" lon="-1.16472">
        <ele>-0.80000000000001</ele>
        <time>2021-12-24T16:04:32Z</time>
      </trkpt>
      <trkpt lat="46.1643" lon="-1.16475">
        <ele>-1.2</ele>
        <time>2021-12-24T16:04:34Z</time>
      </trkpt>
      <trkpt lat="46.16417" lon="-1.16479">
        <ele>-1.4</ele>
        <time>2021-12-24T16:04:36Z</time>
      </trkpt>
      <trkpt lat="46.16404" lon="-1.16483">
        <ele>-1.6</ele>
        <time>2021-12-24T16:04:38Z</time>
      </trkpt>
      <trkpt lat="46.16391" lon="-1.16487">
        <ele>-1.8</ele>
        <time>2021-12-24T16:04:40Z</time>
      </trkpt>
      <trkpt lat="46.16384" lon="-1.16489">
        <ele>-1.8</ele>
        <time>2021-12-24T16:04:41Z</time>
      </trkpt>
      <trkpt lat="46.16377" lon="-1.16492">
        <ele>-2</ele>
        <time>2021-12-24T16:04:42Z</time>
      </trkpt>
      <trkpt lat="46.16364" lon="-1.16497">
        <ele>-2.2</ele>
        <time>2021-12-24T16:04:44Z</time>
      </trkpt>
      <trkpt lat="46.16353" lon="-1.16502">
        <ele>-2.2</ele>
        <time>2021-12-24T16:04:46Z</time>
      </trkpt>
      <trkpt lat="46.16342" lon="-1.16504">
        <ele>-2.4</ele>
        <time>2021-12-24T16:04:48Z</time>
      </trkpt>
      <trkpt lat="46.16333" lon="-1.16506">
        <ele>-2.8</ele>
        <time>2021-12-24T16:04:50Z</time>
      </trkpt>
      <trkpt lat="46.16329" lon="-1.16506">
        <ele>-2.8</ele>
        <time>2021-12-24T16:04:51Z</time>
      </trkpt>
      <trkpt lat="46.16326" lon="-1.16506">
        <ele>-3</ele>
        <time>2021-12-24T16:04:52Z</time>
      </trkpt>
      <trkpt lat="46.1632" lon="-1.16505">
        <ele>-2.8</ele>
        <time>2021-12-24T16:04:54Z</time>
      </trkpt>
      <trkpt lat="46.16317" lon="-1.16505">
        <ele>-3</ele>
        <time>2021-12-24T16:04:55Z</time>
      </trkpt>
      <trkpt lat="46.16313" lon="-1.16506">
        <ele>-3.2</ele>
        <time>2021-12-24T16:04:56Z</time>
      </trkpt>
      <trkpt lat="46.16309" lon="-1.16506">
        <ele>-3.4</ele>
        <time>2021-12-24T16:04:57Z</time>
      </trkpt>
      <trkpt lat="46.16305" lon="-1.16506">
        <ele>-3.6</ele>
        <time>2021-12-24T16:04:58Z</time>
      </trkpt>
      <trkpt lat="46.16301" lon="-1.16506">
        <ele>-3.8</ele>
        <time>2021-12-24T16:04:59Z</time>
      </trkpt>
      <trkpt lat="46.16296" lon="-1.16507">
        <ele>-4</ele>
        <time>2021-12-24T16:05:00Z</time>
      </trkpt>
      <trkpt lat="46.16287" lon="-1.16509">
        <ele>-4</ele>
        <time>2021-12-24T16:05:02Z</time>
      </trkpt>
      <trkpt lat="46.16282" lon="-1.16509">
        <ele>-4.2</ele>
        <time>2021-12-24T16:05:03Z</time>
      </trkpt>
      <trkpt lat="46.16276" lon="-1.16509">
        <ele>-4.2</ele>
        <time>2021-12-24T16:05:04Z</time>
      </trkpt>
      <trkpt lat="46.1627" lon="-1.1651">
        <ele>-4.2</ele>
        <time>2021-12-24T16:05:05Z</time>
      </trkpt>
      <trkpt lat="46.16266" lon="-1.16511">
        <ele>-4.4</ele>
        <time>2021-12-24T16:05:06Z</time>
      </trkpt>
      <trkpt lat="46.16261" lon="-1.16512">
        <ele>-4.4</ele>
        <time>2021-12-24T16:05:07Z</time>
      </trkpt>
      <trkpt lat="46.16256" lon="-1.16512">
        <ele>-4.4</ele>
        <time>2021-12-24T16:05:08Z</time>
      </trkpt>
      <trkpt lat="46.16247" lon="-1.16514">
        <ele>-4.6</ele>
        <time>2021-12-24T16:05:10Z</time>
      </trkpt>
      <trkpt lat="46.16238" lon="-1.16515">
        <ele>-4.8</ele>
        <time>2021-12-24T16:05:12Z</time>
      </trkpt>
      <trkpt lat="46.16236" lon="-1.16517">
        <ele>-4.8</ele>
        <time>2021-12-24T16:05:13Z</time>
      </trkpt>
      <trkpt lat="46.16235" lon="-1.16518">
        <ele>-4.8</ele>
        <time>2021-12-24T16:05:14Z</time>
      </trkpt>
      <trkpt lat="46.16235" lon="-1.16518">
        <ele>-4.8</ele>
        <time>2021-12-24T16:05:15Z</time>
      </trkpt>
      <trkpt lat="46.16231" lon="-1.16524">
        <ele>-5</ele>
        <time>2021-12-24T16:05:21Z</time>
      </trkpt>
      <trkpt lat="46.1623" lon="-1.16527">
        <ele>-4.8</ele>
        <time>2021-12-24T16:05:22Z</time>
      </trkpt>
      <trkpt lat="46.16228" lon="-1.16529">
        <ele>-5</ele>
        <time>2021-12-24T16:05:23Z</time>
      </trkpt>
      <trkpt lat="46.16224" lon="-1.1653">
        <ele>-5.2</ele>
        <time>2021-12-24T16:05:24Z</time>
      </trkpt>
      <trkpt lat="46.1622" lon="-1.16531">
        <ele>-5.4</ele>
        <time>2021-12-24T16:05:25Z</time>
      </trkpt>
      <trkpt lat="46.16215" lon="-1.16532">
        <ele>-5.4</ele>
        <time>2021-12-24T16:05:26Z</time>
      </trkpt>
      <trkpt lat="46.16204" lon="-1.16534">
        <ele>-5.8</ele>
        <time>2021-12-24T16:05:28Z</time>
      </trkpt>
      <trkpt lat="46.16197" lon="-1.16535">
        <ele>-6</ele>
        <time>2021-12-24T16:05:29Z</time>
      </trkpt>
      <trkpt lat="46.16191" lon="-1.16537">
        <ele>-6.2</ele>
        <time>2021-12-24T16:05:30Z</time>
      </trkpt>
      <trkpt lat="46.16177" lon="-1.16539">
        <ele>-6.4</ele>
        <time>2021-12-24T16:05:32Z</time>
      </trkpt>
      <trkpt lat="46.16164" lon="-1.16541">
        <ele>-6.4</ele>
        <time>2021-12-24T16:05:34Z</time>
      </trkpt>
      <trkpt lat="46.16151" lon="-1.16544">
        <ele>-6.2</ele>
        <time>2021-12-24T16:05:36Z</time>
      </trkpt>
      <trkpt lat="46.16138" lon="-1.16547">
        <ele>-6.2</ele>
        <time>2021-12-24T16:05:38Z</time>
      </trkpt>
      <trkpt lat="46.16124" lon="-1.16549">
        <ele>-6.2</ele>
        <time>2021-12-24T16:05:40Z</time>
      </trkpt>
      <trkpt lat="46.16109" lon="-1.16551">
        <ele>-6.4</ele>
        <time>2021-12-24T16:05:42Z</time>
      </trkpt>
      <trkpt lat="46.16095" lon="-1.16554">
        <ele>-6.4</ele>
        <time>2021-12-24T16:05:44Z</time>
      </trkpt>
      <trkpt lat="46.1608" lon="-1.16557">
        <ele>-6.4</ele>
        <time>2021-12-24T16:05:46Z</time>
      </trkpt>
      <trkpt lat="46.16066" lon="-1.1656">
        <ele>-6.6</ele>
        <time>2021-12-24T16:05:48Z</time>
      </trkpt>
      <trkpt lat="46.16052" lon="-1.16562">
        <ele>-6.6</ele>
        <time>2021-12-24T16:05:50Z</time>
      </trkpt>
      <trkpt lat="46.16038" lon="-1.16564">
        <ele>-6.6</ele>
        <time>2021-12-24T16:05:52Z</time>
      </trkpt>
      <trkpt lat="46.16024" lon="-1.16567">
        <ele>-6.8</ele>
        <time>2021-12-24T16:05:54Z</time>
      </trkpt>
      <trkpt lat="46.16011" lon="-1.1657">
        <ele>-6.8</ele>
        <time>2021-12-24T16:05:56Z</time>
      </trkpt>
      <trkpt lat="46.15999" lon="-1.16573">
        <ele>-7</ele>
        <time>2021-12-24T16:05:58Z</time>
      </trkpt>
      <trkpt lat="46.15994" lon="-1.16574">
        <ele>-7</ele>
        <time>2021-12-24T16:05:59Z</time>
      </trkpt>
      <trkpt lat="46.15989" lon="-1.16575">
        <ele>-7</ele>
        <time>2021-12-24T16:06:00Z</time>
      </trkpt>
      <trkpt lat="46.15979" lon="-1.16577">
        <ele>-6.8</ele>
        <time>2021-12-24T16:06:02Z</time>
      </trkpt>
      <trkpt lat="46.15968" lon="-1.16578">
        <ele>-6.8</ele>
        <time>2021-12-24T16:06:04Z</time>
      </trkpt>
      <trkpt lat="46.15962" lon="-1.16578">
        <ele>-6.8</ele>
        <time>2021-12-24T16:06:05Z</time>
      </trkpt>
      <trkpt lat="46.15956" lon="-1.16578">
        <ele>-6.8</ele>
        <time>2021-12-24T16:06:06Z</time>
      </trkpt>
      <trkpt lat="46.15943" lon="-1.1658">
        <ele>-7</ele>
        <time>2021-12-24T16:06:08Z</time>
      </trkpt>
      <trkpt lat="46.15932" lon="-1.16582">
        <ele>-7.2</ele>
        <time>2021-12-24T16:06:10Z</time>
      </trkpt>
      <trkpt lat="46.1592" lon="-1.16584">
        <ele>-7.4</ele>
        <time>2021-12-24T16:06:12Z</time>
      </trkpt>
      <trkpt lat="46.15908" lon="-1.16587">
        <ele>-7.6</ele>
        <time>2021-12-24T16:06:14Z</time>
      </trkpt>
      <trkpt lat="46.15897" lon="-1.16589">
        <ele>-7.8</ele>
        <time>2021-12-24T16:06:16Z</time>
      </trkpt>
      <trkpt lat="46.15885" lon="-1.1659">
        <ele>-7.6</ele>
        <time>2021-12-24T16:06:18Z</time>
      </trkpt>
      <trkpt lat="46.15874" lon="-1.16591">
        <ele>-7.8</ele>
        <time>2021-12-24T16:06:20Z</time>
      </trkpt>
      <trkpt lat="46.15862" lon="-1.16593">
        <ele>-7.8</ele>
        <time>2021-12-24T16:06:22Z</time>
      </trkpt>
      <trkpt lat="46.15851" lon="-1.16595">
        <ele>-8</ele>
        <time>2021-12-24T16:06:24Z</time>
      </trkpt>
      <trkpt lat="46.1584" lon="-1.16598">
        <ele>-8.2</ele>
        <time>2021-12-24T16:06:26Z</time>
      </trkpt>
      <trkpt lat="46.15829" lon="-1.166">
        <ele>-8.2</ele>
        <time>2021-12-24T16:06:28Z</time>
      </trkpt>
      <trkpt lat="46.15819" lon="-1.16602">
        <ele>-8.4</ele>
        <time>2021-12-24T16:06:30Z</time>
      </trkpt>
      <trkpt lat="46.15808" lon="-1.16604">
        <ele>-8.6</ele>
        <time>2021-12-24T16:06:32Z</time>
      </trkpt>
      <trkpt lat="46.15798" lon="-1.16605">
        <ele>-8.8</ele>
        <time>2021-12-24T16:06:34Z</time>
      </trkpt>
      <trkpt lat="46.15788" lon="-1.16607">
        <ele>-9</ele>
        <time>2021-12-24T16:06:36Z</time>
      </trkpt>
      <trkpt lat="46.15777" lon="-1.16609">
        <ele>-9</ele>
        <time>2021-12-24T16:06:38Z</time>
      </trkpt>
      <trkpt lat="46.15767" lon="-1.16611">
        <ele>-9</ele>
        <time>2021-12-24T16:06:40Z</time>
      </trkpt>
      <trkpt lat="46.15757" lon="-1.16613">
        <ele>-9.2</ele>
        <time>2021-12-24T16:06:42Z</time>
      </trkpt>
      <trkpt lat="46.15745" lon="-1.16615">
        <ele>-9.2</ele>
        <time>2021-12-24T16:06:44Z</time>
      </trkpt>
      <trkpt lat="46.15734" lon="-1.16617">
        <ele>-9.2</ele>
        <time>2021-12-24T16:06:46Z</time>
      </trkpt>
      <trkpt lat="46.1573" lon="-1.16617">
        <ele>-9.4</ele>
        <time>2021-12-24T16:06:47Z</time>
      </trkpt>
      <trkpt lat="46.15725" lon="-1.16618">
        <ele>-9.4</ele>
        <time>2021-12-24T16:06:48Z</time>
      </trkpt>
      <trkpt lat="46.15716" lon="-1.1662">
        <ele>-9.6</ele>
        <time>2021-12-24T16:06:50Z</time>
      </trkpt>
      <trkpt lat="46.15708" lon="-1.16622">
        <ele>-10</ele>
        <time>2021-12-24T16:06:52Z</time>
      </trkpt>
      <trkpt lat="46.15703" lon="-1.16622">
        <ele>-10.2</ele>
        <time>2021-12-24T16:06:53Z</time>
      </trkpt>
      <trkpt lat="46.15699" lon="-1.16623">
        <ele>-10.4</ele>
        <time>2021-12-24T16:06:54Z</time>
      </trkpt>
      <trkpt lat="46.15689" lon="-1.16625">
        <ele>-10.4</ele>
        <time>2021-12-24T16:06:56Z</time>
      </trkpt>
      <trkpt lat="46.15679" lon="-1.16627">
        <ele>-10.8</ele>
        <time>2021-12-24T16:06:58Z</time>
      </trkpt>
      <trkpt lat="46.15675" lon="-1.16628">
        <ele>-11</ele>
        <time>2021-12-24T16:06:59Z</time>
      </trkpt>
      <trkpt lat="46.1567" lon="-1.16629">
        <ele>-11</ele>
        <time>2021-12-24T16:07:00Z</time>
      </trkpt>
      <trkpt lat="46.15661" lon="-1.1663">
        <ele>-11.2</ele>
        <time>2021-12-24T16:07:02Z</time>
      </trkpt>
      <trkpt lat="46.15652" lon="-1.16631">
        <ele>-11.4</ele>
        <time>2021-12-24T16:07:04Z</time>
      </trkpt>
      <trkpt lat="46.15648" lon="-1.16632">
        <ele>-11.6</ele>
        <time>2021-12-24T16:07:05Z</time>
      </trkpt>
      <trkpt lat="46.15645" lon="-1.16632">
        <ele>-11.8</ele>
        <time>2021-12-24T16:07:06Z</time>
      </trkpt>
      <trkpt lat="46.15636" lon="-1.16634">
        <ele>-12.2</ele>
        <time>2021-12-24T16:07:08Z</time>
      </trkpt>
      <trkpt lat="46.15627" lon="-1.16634">
        <ele>-12.6</ele>
        <time>2021-12-24T16:07:10Z</time>
      </trkpt>
      <trkpt lat="46.15619" lon="-1.16634">
        <ele>-12.8</ele>
        <time>2021-12-24T16:07:12Z</time>
      </trkpt>
      <trkpt lat="46.15616" lon="-1.16635">
        <ele>-12.6</ele>
        <time>2021-12-24T16:07:13Z</time>
      </trkpt>
      <trkpt lat="46.15616" lon="-1.16637">
        <ele>-12.8</ele>
        <time>2021-12-24T16:07:14Z</time>
      </trkpt>
      <trkpt lat="46.15615" lon="-1.1664">
        <ele>-12.6</ele>
        <time>2021-12-24T16:07:15Z</time>
      </trkpt>
      <trkpt lat="46.15614" lon="-1.16643">
        <ele>-12.4</ele>
        <time>2021-12-24T16:07:16Z</time>
      </trkpt>
      <trkpt lat="46.15611" lon="-1.16651">
        <ele>-12.2</ele>
        <time>2021-12-24T16:07:18Z</time>
      </trkpt>
      <trkpt lat="46.15608" lon="-1.16661">
        <ele>-13.2</ele>
        <time>2021-12-24T16:07:20Z</time>
      </trkpt>
      <trkpt lat="46.15606" lon="-1.16671">
        <ele>-11.8</ele>
        <time>2021-12-24T16:07:22Z</time>
      </trkpt>
      <trkpt lat="46.15606" lon="-1.16675">
        <ele>-11.6</ele>
        <time>2021-12-24T16:07:23Z</time>
      </trkpt>
      <trkpt lat="46.15604" lon="-1.1668">
        <ele>-11.2</ele>
        <time>2021-12-24T16:07:24Z</time>
      </trkpt>
      <trkpt lat="46.15602" lon="-1.16684">
        <ele>-10.6</ele>
        <time>2021-12-24T16:07:25Z</time>
      </trkpt>
      <trkpt lat="46.156" lon="-1.1669">
        <ele>-10</ele>
        <time>2021-12-24T16:07:26Z</time>
      </trkpt>
      <trkpt lat="46.15598" lon="-1.16696">
        <ele>-11</ele>
        <time>2021-12-24T16:07:27Z</time>
      </trkpt>
      <trkpt lat="46.15597" lon="-1.16703">
        <ele>-11</ele>
        <time>2021-12-24T16:07:28Z</time>
      </trkpt>
      <trkpt lat="46.15596" lon="-1.16711">
        <ele>-11</ele>
        <time>2021-12-24T16:07:29Z</time>
      </trkpt>
      <trkpt lat="46.15596" lon="-1.16718">
        <ele>-10.8</ele>
        <time>2021-12-24T16:07:30Z</time>
      </trkpt>
      <trkpt lat="46.15596" lon="-1.16725">
        <ele>-10.8</ele>
        <time>2021-12-24T16:07:31Z</time>
      </trkpt>
      <trkpt lat="46.15595" lon="-1.16732">
        <ele>-11</ele>
        <time>2021-12-24T16:07:32Z</time>
      </trkpt>
      <trkpt lat="46.15594" lon="-1.16747">
        <ele>-11</ele>
        <time>2021-12-24T16:07:34Z</time>
      </trkpt>
      <trkpt lat="46.15593" lon="-1.16754">
        <ele>-11</ele>
        <time>2021-12-24T16:07:35Z</time>
      </trkpt>
      <trkpt lat="46.15592" lon="-1.16762">
        <ele>-10.8</ele>
        <time>2021-12-24T16:07:36Z</time>
      </trkpt>
      <trkpt lat="46.15592" lon="-1.16778">
        <ele>-10.8</ele>
        <time>2021-12-24T16:07:38Z</time>
      </trkpt>
      <trkpt lat="46.15591" lon="-1.16794">
        <ele>-10.6</ele>
        <time>2021-12-24T16:07:40Z</time>
      </trkpt>
      <trkpt lat="46.15591" lon="-1.16809">
        <ele>-10.6</ele>
        <time>2021-12-24T16:07:42Z</time>
      </trkpt>
      <trkpt lat="46.15591" lon="-1.16824">
        <ele>-10.4</ele>
        <time>2021-12-24T16:07:44Z</time>
      </trkpt>
      <trkpt lat="46.1559" lon="-1.16832">
        <ele>-10.4</ele>
        <time>2021-12-24T16:07:45Z</time>
      </trkpt>
      <trkpt lat="46.1559" lon="-1.1684">
        <ele>-10.4</ele>
        <time>2021-12-24T16:07:46Z</time>
      </trkpt>
      <trkpt lat="46.15589" lon="-1.16855">
        <ele>-10.2</ele>
        <time>2021-12-24T16:07:48Z</time>
      </trkpt>
      <trkpt lat="46.15589" lon="-1.16871">
        <ele>-10</ele>
        <time>2021-12-24T16:07:50Z</time>
      </trkpt>
      <trkpt lat="46.15588" lon="-1.16886">
        <ele>-9.8</ele>
        <time>2021-12-24T16:07:52Z</time>
      </trkpt>
      <trkpt lat="46.15588" lon="-1.16894">
        <ele>-9.8</ele>
        <time>2021-12-24T16:07:53Z</time>
      </trkpt>
      <trkpt lat="46.15588" lon="-1.16902">
        <ele>-9.6</ele>
        <time>2021-12-24T16:07:54Z</time>
      </trkpt>
      <trkpt lat="46.15587" lon="-1.16918">
        <ele>-9.4</ele>
        <time>2021-12-24T16:07:56Z</time>
      </trkpt>
      <trkpt lat="46.15587" lon="-1.16933">
        <ele>-9.2</ele>
        <time>2021-12-24T16:07:58Z</time>
      </trkpt>
      <trkpt lat="46.15587" lon="-1.1694">
        <ele>-9</ele>
        <time>2021-12-24T16:07:59Z</time>
      </trkpt>
      <trkpt lat="46.15586" lon="-1.16947">
        <ele>-9</ele>
        <time>2021-12-24T16:08:00Z</time>
      </trkpt>
      <trkpt lat="46.15586" lon="-1.16955">
        <ele>-8.8</ele>
        <time>2021-12-24T16:08:01Z</time>
      </trkpt>
      <trkpt lat="46.15586" lon="-1.16963">
        <ele>-8.8</ele>
        <time>2021-12-24T16:08:02Z</time>
      </trkpt>
      <trkpt lat="46.15586" lon="-1.16971">
        <ele>-8.6</ele>
        <time>2021-12-24T16:08:03Z</time>
      </trkpt>
      <trkpt lat="46.15585" lon="-1.16979">
        <ele>-8.4</ele>
        <time>2021-12-24T16:08:04Z</time>
      </trkpt>
      <trkpt lat="46.15585" lon="-1.16995">
        <ele>-8.4</ele>
        <time>2021-12-24T16:08:06Z</time>
      </trkpt>
      <trkpt lat="46.15585" lon="-1.17012">
        <ele>-8.2</ele>
        <time>2021-12-24T16:08:08Z</time>
      </trkpt>
      <trkpt lat="46.15585" lon="-1.17019">
        <ele>-8</ele>
        <time>2021-12-24T16:08:09Z</time>
      </trkpt>
      <trkpt lat="46.15585" lon="-1.17027">
        <ele>-8</ele>
        <time>2021-12-24T16:08:10Z</time>
      </trkpt>
      <trkpt lat="46.15585" lon="-1.17043">
        <ele>-7.8</ele>
        <time>2021-12-24T16:08:12Z</time>
      </trkpt>
      <trkpt lat="46.15585" lon="-1.17057">
        <ele>-7.6</ele>
        <time>2021-12-24T16:08:14Z</time>
      </trkpt>
      <trkpt lat="46.15585" lon="-1.17071">
        <ele>-7.4</ele>
        <time>2021-12-24T16:08:16Z</time>
      </trkpt>
      <trkpt lat="46.15584" lon="-1.17082">
        <ele>-7.2</ele>
        <time>2021-12-24T16:08:18Z</time>
      </trkpt>
      <trkpt lat="46.1559" lon="-1.17088">
        <ele>-7</ele>
        <time>2021-12-24T16:08:20Z</time>
      </trkpt>
      <trkpt lat="46.15594" lon="-1.17088">
        <ele>-6.8</ele>
        <time>2021-12-24T16:08:21Z</time>
      </trkpt>
      <trkpt lat="46.15598" lon="-1.17087">
        <ele>-6.6</ele>
        <time>2021-12-24T16:08:22Z</time>
      </trkpt>
      <trkpt lat="46.15605" lon="-1.17085">
        <ele>-6.6</ele>
        <time>2021-12-24T16:08:24Z</time>
      </trkpt>
      <trkpt lat="46.15608" lon="-1.17083">
        <ele>-6.4</ele>
        <time>2021-12-24T16:08:25Z</time>
      </trkpt>
      <trkpt lat="46.15611" lon="-1.17081">
        <ele>-6.4</ele>
        <time>2021-12-24T16:08:26Z</time>
      </trkpt>
      <trkpt lat="46.15614" lon="-1.1708">
        <ele>-6.4</ele>
        <time>2021-12-24T16:08:27Z</time>
      </trkpt>
      <trkpt lat="46.15618" lon="-1.17079">
        <ele>-6.4</ele>
        <time>2021-12-24T16:08:28Z</time>
      </trkpt>
      <trkpt lat="46.15622" lon="-1.17077">
        <ele>-6.4</ele>
        <time>2021-12-24T16:08:29Z</time>
      </trkpt>
      <trkpt lat="46.15627" lon="-1.17076">
        <ele>-6.4</ele>
        <time>2021-12-24T16:08:30Z</time>
      </trkpt>
      <trkpt lat="46.15635" lon="-1.17076">
        <ele>-6.2</ele>
        <time>2021-12-24T16:08:32Z</time>
      </trkpt>
      <trkpt lat="46.15643" lon="-1.17075">
        <ele>-6</ele>
        <time>2021-12-24T16:08:34Z</time>
      </trkpt>
      <trkpt lat="46.15651" lon="-1.17075">
        <ele>-5.8</ele>
        <time>2021-12-24T16:08:36Z</time>
      </trkpt>
      <trkpt lat="46.15659" lon="-1.17075">
        <ele>-5.6</ele>
        <time>2021-12-24T16:08:38Z</time>
      </trkpt>
      <trkpt lat="46.15662" lon="-1.17075">
        <ele>-5.6</ele>
        <time>2021-12-24T16:08:39Z</time>
      </trkpt>
      <trkpt lat="46.15667" lon="-1.17075">
        <ele>-5.6</ele>
        <time>2021-12-24T16:08:40Z</time>
      </trkpt>
      <trkpt lat="46.15676" lon="-1.17074">
        <ele>-5.6</ele>
        <time>2021-12-24T16:08:42Z</time>
      </trkpt>
      <trkpt lat="46.15682" lon="-1.17074">
        <ele>-5.4</ele>
        <time>2021-12-24T16:08:43Z</time>
      </trkpt>
      <trkpt lat="46.15687" lon="-1.17074">
        <ele>-5.4</ele>
        <time>2021-12-24T16:08:44Z</time>
      </trkpt>
      <trkpt lat="46.15692" lon="-1.17072">
        <ele>-5.4</ele>
        <time>2021-12-24T16:08:45Z</time>
      </trkpt>
      <trkpt lat="46.15697" lon="-1.17071">
        <ele>-5.4</ele>
        <time>2021-12-24T16:08:46Z</time>
      </trkpt>
      <trkpt lat="46.15708" lon="-1.17069">
        <ele>-5.6</ele>
        <time>2021-12-24T16:08:48Z</time>
      </trkpt>
      <trkpt lat="46.15718" lon="-1.17067">
        <ele>-5.6</ele>
        <time>2021-12-24T16:08:50Z</time>
      </trkpt>
      <trkpt lat="46.15727" lon="-1.17065">
        <ele>-5.4</ele>
        <time>2021-12-24T16:08:52Z</time>
      </trkpt>
      <trkpt lat="46.15732" lon="-1.17062">
        <ele>-5.4</ele>
        <time>2021-12-24T16:08:54Z</time>
      </trkpt>
      <trkpt lat="46.15733" lon="-1.17062">
        <ele>-5.4</ele>
        <time>2021-12-24T16:08:55Z</time>
      </trkpt>
      <trkpt lat="46.15733" lon="-1.17062">
        <ele>-5.2</ele>
        <time>2021-12-24T16:08:56Z</time>
      </trkpt>
    </trkseg>
  </trk>
</gpx>